
Distance (Route):
Temperature : 17.7°C
Humidity : 63.2%
Pressure : 979.8hPa| Receiver | Frames | First received | Last received |
|---|---|---|---|
| DM0DOS-11 | 595 | 2026-09-03 04:59:24 | 2026-09-03 07:06:12 |
| BIOWL1-15 | 576 | 2026-09-03 04:58:17 | 2026-09-03 06:47:28 |
| DK7TD | 442 | 2026-09-03 05:28:34 | 2026-09-03 07:13:20 |
| DL1XH-west | 289 | 2026-09-03 05:55:00 | 2026-09-03 06:48:41 |
| DO3MHA-11 | 205 | 2026-09-03 05:09:32 | 2026-09-03 07:14:32 |
| DL1XH1-15 | 186 | 2026-09-03 05:55:33 | 2026-09-03 06:48:30 |
| DB0UT-7 | 167 | 2026-09-03 04:38:16 | 2026-09-03 07:19:33 |
| DK5PH-5 | 130 | 2026-09-03 04:52:12 | 2026-09-03 07:19:34 |
| IW2NTF | 121 | 2026-09-03 05:56:10 | 2026-09-03 06:48:57 |
| DB0UT-9 | 110 | 2026-09-03 04:37:26 | 2026-09-03 07:19:09 |
| DB0ND-19 | 102 | 2026-09-03 04:46:44 | 2026-09-03 07:20:21 |
| HARRO8 | 90 | 2026-09-03 04:50:06 | 2026-09-03 07:17:34 |
| DJ2DS-15 | 87 | 2026-09-03 05:30:57 | 2026-09-03 06:52:27 |
| CB1BUN | 85 | 2026-09-03 04:46:52 | 2026-09-03 07:14:16 |
| DF7PN | 85 | 2026-09-03 04:50:50 | 2026-09-03 07:17:20 |
| DL1XH-15 | 80 | 2026-09-03 06:21:43 | 2026-09-03 06:45:09 |
| HSKMA3-T | 73 | 2026-09-03 05:32:18 | 2026-09-03 06:50:45 |
| HEMX73-11 | 67 | 2026-09-03 04:47:38 | 2026-09-03 07:02:05 |
| DM7RM-13 | 66 | 2026-09-03 05:05:32 | 2026-09-03 07:16:07 |
| DF3TZ-5 | 63 | 2026-09-03 05:15:54 | 2026-09-03 07:19:33 |
| DL9PN | 62 | 2026-09-03 04:46:18 | 2026-09-03 06:56:48 |
| DF1GD-15 | 62 | 2026-09-03 04:55:14 | 2026-09-03 07:16:48 |
| DL0LBS | 60 | 2026-09-03 04:59:38 | 2026-09-03 07:15:39 |
| DL3AQ-11 | 58 | 2026-09-03 06:03:26 | 2026-09-03 06:46:30 |
| DM3KS-11 | 57 | 2026-09-03 04:50:46 | 2026-09-03 06:15:39 |
| NBG1-10 | 57 | 2026-09-03 05:07:39 | 2026-09-03 07:05:50 |
| AA1-15 | 55 | 2026-09-03 06:32:18 | 2026-09-03 06:43:56 |
| DO1YAY-16 | 52 | 2026-09-03 05:15:39 | 2026-09-03 06:50:55 |
| BIOWL9-15 | 49 | 2026-09-03 05:00:23 | 2026-09-03 07:05:35 |
| DL4BBY-15 | 44 | 2026-09-03 05:44:28 | 2026-09-03 06:44:59 |
| BIOWL7-15 | 40 | 2026-09-03 05:03:06 | 2026-09-03 07:03:13 |
| DL8DAS-14 | 40 | 2026-09-03 05:12:45 | 2026-09-03 06:59:47 |
| DL8DAS-15 | 40 | 2026-09-03 05:13:15 | 2026-09-03 06:54:16 |
| DN1GJH-1 | 40 | 2026-09-03 05:24:23 | 2026-09-03 07:00:07 |
| DB0NH | 40 | 2026-09-03 05:37:45 | 2026-09-03 06:57:07 |
| DJ2KF-10 | 36 | 2026-09-03 05:40:42 | 2026-09-03 06:50:03 |
| DD1CC8 | 33 | 2026-09-03 05:34:58 | 2026-09-03 06:50:32 |
| SFWM-10 | 30 | 2026-09-03 05:18:05 | 2026-09-03 07:03:32 |
| KANTATE | 27 | 2026-09-03 05:25:07 | 2026-09-03 07:17:35 |
| OE5DXL-15 | 25 | 2026-09-03 06:08:13 | 2026-09-03 06:45:34 |
| DJTTGO | 24 | 2026-09-03 05:40:53 | 2026-09-03 06:56:18 |
| DL6DJ-15 | 21 | 2026-09-03 05:56:14 | 2026-09-03 06:42:19 |
| AZAK | 21 | 2026-09-03 05:56:31 | 2026-09-03 07:18:13 |
| DH7VM-15 | 17 | 2026-09-03 04:56:06 | 2026-09-03 07:18:13 |
| SONCRA | 14 | 2026-09-03 06:20:01 | 2026-09-03 06:43:49 |
| SSTOLZ84 | 13 | 2026-09-03 05:16:16 | 2026-09-03 06:43:13 |
| EDDB2-11 | 13 | 2026-09-03 06:26:00 | 2026-09-03 06:47:12 |
| SONDE2-11 | 11 | 2026-09-03 06:06:11 | 2026-09-03 06:38:47 |
| OE5DRO-10 | 11 | 2026-09-03 06:12:01 | 2026-09-03 06:42:42 |
| AU51GT2 | 10 | 2026-09-03 05:42:47 | 2026-09-03 06:51:02 |
| HTAHTA | 8 | 2026-09-03 05:47:37 | 2026-09-03 06:42:28 |
| DO2KSM | 6 | 2026-09-03 06:08:45 | 2026-09-03 06:22:24 |
| DO8TBO-1 | 5 | 2026-09-03 05:54:46 | 2026-09-03 06:07:16 |
| HEMX73-6 | 4 | 2026-09-03 04:52:18 | 2026-09-03 06:51:54 |
| DF8AY | 4 | 2026-09-03 06:09:21 | 2026-09-03 06:29:42 |
| DB0DAN | 4 | 2026-09-03 06:27:40 | 2026-09-03 06:28:25 |
| OE9MKV-15 | 4 | 2026-09-03 06:36:25 | 2026-09-03 06:41:12 |
| EDDB2-12 | 4 | 2026-09-03 06:37:09 | 2026-09-03 06:46:59 |
| LOEBOVI | 2 | 2026-09-03 06:31:32 | 2026-09-03 06:35:19 |
| DO3DL | 2 | 2026-09-03 06:54:47 | 2026-09-03 06:55:40 |
| DL1NUX | 1 | 2026-09-03 05:51:51 | 2026-09-03 05:51:51 |
| DL8OAI-8 | 1 | 2026-09-03 06:23:58 | 2026-09-03 06:23:58 |
| GOEST3-10 | 1 | 2026-09-03 06:41:22 | 2026-09-03 06:41:22 |
| Receiver | Date | Latitude | Longitude | Direction | Speed | Altitude | Climb | Temperature | Humidity | Pressure | Voltage | Killtimer | Uptime | BKT | XDATA |
|---|---|---|---|---|---|---|---|---|---|---|---|---|---|---|---|
| DB0ND-19 | 2026-09-03 07:20:21 | 49.01013 | 8.88114 | 83° | 9km/h | 409m | -8.1m/s | 17.7°C | 63.2% | 979.8hPa | 2.7V | 00:00:00 | 00:00:00 | 00:00:00 | |
| DB0ND-19 | 2026-09-03 07:19:50 | 49.01005 | 8.88073 | 67° | 16km/h | 471m | -7.8m/s | 17.4°C | 57.6% | 972.7hPa | 2.7V | 00:00:00 | 00:00:00 | 00:00:00 | |
| DK5PH-5 | 2026-09-03 07:19:34 | 49.00974 | 8.87917 | 74° | 35km/h | 599m | -8.5m/s | 17.9°C | 51.2% | 958.4hPa | 2.7V | 02:28:00 | 02:49:41 | 00:00:00 | |
| DF3TZ-5 | 2026-09-03 07:19:33 | 49.00972 | 8.87905 | 77° | 33km/h | 607m | -8.3m/s | 17.9°C | 51.2% | 957.1hPa | 2.7V | 00:00:00 | 00:00:00 | 00:00:00 | |
| DB0UT-7 | 2026-09-03 07:19:33 | 49.00972 | 8.87905 | 78° | 35km/h | 607m | -8.3m/s | 17.9°C | 51.0% | 957.1hPa | 2.7V | 00:00:00 | 02:49:40 | 00:00:00 | |
| DK5PH-5 | 2026-09-03 07:19:29 | 49.00964 | 8.87853 | 81° | 35km/h | 639m | -8.6m/s | 17.8°C | 50.4% | 953.4hPa | 2.7V | 00:00:00 | 02:49:36 | 00:00:00 | |
| DB0UT-7 | 2026-09-03 07:19:26 | 49.00959 | 8.87815 | 78° | 33km/h | 665m | -8.7m/s | 17.6°C | 50.5% | 950.6hPa | 2.7V | 00:00:00 | 00:00:00 | 00:00:00 | |
| DK5PH-5 | 2026-09-03 07:19:24 | 49.00956 | 8.87789 | 78° | 33km/h | 682m | -8.8m/s | 17.5°C | 50.6% | 948.5hPa | 2.7V | 00:00:00 | 02:49:31 | 00:00:00 | |
| DB0UT-7 | 2026-09-03 07:19:21 | 49.00953 | 8.87751 | 79° | 33km/h | 707m | -8.7m/s | 17.3°C | 51.1% | 945.7hPa | 2.7V | 02:28:00 | 02:49:28 | 00:00:00 | |
| DB0ND-19 | 2026-09-03 07:19:19 | 49.00951 | 8.87726 | 81° | 33km/h | 724m | -8.1m/s | 17.2°C | 51.6% | 944.1hPa | 2.7V | 00:00:00 | 00:00:00 | 00:00:00 | |
| DK5PH-5 | 2026-09-03 07:19:19 | 49.00951 | 8.87726 | 82° | 33km/h | 724m | -8.1m/s | 17.2°C | 51.4% | 944.1hPa | 2.7V | 02:28:00 | 02:49:26 | 00:00:00 | |
| DB0UT-7 | 2026-09-03 07:19:16 | 49.00947 | 8.87688 | 79° | 31km/h | 749m | -8.7m/s | 17.0°C | 51.9% | 941.3hPa | 2.7V | 00:00:00 | 00:00:00 | 00:00:00 | |
| DK5PH-5 | 2026-09-03 07:19:14 | 49.00945 | 8.87664 | 84° | 31km/h | 766m | -8.0m/s | 16.8°C | 52.3% | 939.2hPa | 2.7V | 00:00:00 | 02:49:21 | 00:00:00 | |
| DB0UT-7 | 2026-09-03 07:19:11 | 49.00943 | 8.87629 | 85° | 31km/h | 790m | -7.9m/s | 16.6°C | 52.9% | 936.9hPa | 2.7V | 00:00:00 | 02:49:18 | 00:00:00 | |
| DB0UT-9 | 2026-09-03 07:19:09 | 49.00942 | 8.87618 | 82° | 29km/h | 798m | -8.2m/s | 16.6°C | 53.3% | 935.7hPa | 2.7V | 02:28:00 | 00:00:00 | 00:00:00 | |
| DK5PH-5 | 2026-09-03 07:19:09 | 49.00941 | 8.87606 | 81° | 29km/h | 807m | -8.4m/s | 16.4°C | 53.3% | 934.9hPa | 2.7V | 00:00:00 | 02:49:16 | 00:00:00 | |
| DB0UT-7 | 2026-09-03 07:19:06 | 49.00940 | 8.87572 | 87° | 29km/h | 831m | -8.5m/s | 16.2°C | 53.9% | 932.1hPa | 2.7V | 02:28:00 | 00:00:00 | 00:00:00 | |
| DK5PH-5 | 2026-09-03 07:19:04 | 49.00939 | 8.87549 | 83° | 27km/h | 847m | -8.4m/s | 16.0°C | 54.3% | 930.4hPa | 2.7V | 02:28:00 | 02:49:11 | 00:00:00 | |
| DF3TZ-5 | 2026-09-03 07:19:02 | 49.00938 | 8.87527 | 85° | 26km/h | 863m | -8.2m/s | 16.0°C | 54.8% | 928.8hPa | 2.7V | 00:00:00 | 00:00:00 | 00:00:00 | |
| DB0ND-19 | 2026-09-03 07:18:48 | 49.00935 | 8.87385 | 90° | 26km/h | 980m | -8.7m/s | 14.9°C | 59.4% | 916.2hPa | 2.7V | 00:00:00 | 00:00:00 | 00:00:00 | |
| DB0UT-7 | 2026-09-03 07:18:46 | 49.00934 | 8.87366 | 85° | 24km/h | 997m | -8.4m/s | 14.7°C | 60.3% | 914.2hPa | 2.7V | 00:00:00 | 00:00:00 | 00:00:00 | |
| DK5PH-5 | 2026-09-03 07:18:44 | 49.00934 | 8.87348 | 88° | 22km/h | 1013m | -8.3m/s | 14.5°C | 61.2% | 912.4hPa | 2.7V | 00:00:00 | 02:48:51 | 00:00:00 | |
| DB0UT-7 | 2026-09-03 07:18:40 | 49.00933 | 8.87313 | 93° | 20km/h | 1047m | -9.1m/s | 14.2°C | 62.5% | 908.8hPa | 2.7V | 00:00:00 | 02:48:47 | 00:00:00 | |
| DK5PH-5 | 2026-09-03 07:18:34 | 49.00935 | 8.87265 | 100° | 18km/h | 1099m | -8.9m/s | 13.7°C | 65.6% | 903.2hPa | 2.7V | 00:00:00 | 02:48:41 | 00:00:00 | |
| DF3TZ-5 | 2026-09-03 07:18:31 | 49.00937 | 8.87244 | 91° | 16km/h | 1125m | -8.9m/s | 13.5°C | 66.6% | 900.6hPa | 2.7V | 00:00:00 | 00:00:00 | 00:00:00 | |
| DB0UT-7 | 2026-09-03 07:18:30 | 49.00937 | 8.87238 | 101° | 16km/h | 1134m | -8.9m/s | 13.4°C | 66.7% | 899.5hPa | 2.7V | 02:29:00 | 00:00:00 | 00:00:00 | |
| DB0UT-9 | 2026-09-03 07:18:27 | 49.00939 | 8.87224 | 102° | 18km/h | 1152m | -8.0m/s | 13.3°C | 68.0% | 897.8hPa | 2.7V | 02:29:00 | 00:00:00 | 00:00:00 | |
| DK5PH-5 | 2026-09-03 07:18:24 | 49.00943 | 8.87199 | 102° | 18km/h | 1185m | -8.8m/s | 13.0°C | 70.1% | 894.0hPa | 2.7V | 02:29:00 | 02:48:31 | 00:00:00 | |
| DB0UT-7 | 2026-09-03 07:18:20 | 49.00949 | 8.87174 | 107° | 20km/h | 1221m | -8.5m/s | 12.8°C | 72.2% | 890.4hPa | 2.7V | 00:00:00 | 02:48:27 | 00:00:00 | |
| DB0ND-19 | 2026-09-03 07:18:17 | 49.00955 | 8.87155 | 112° | 16km/h | 1246m | -8.6m/s | 12.7°C | 74.6% | 887.7hPa | 2.7V | 00:00:00 | 00:00:00 | 00:00:00 | |
| DK5PH-5 | 2026-09-03 07:18:14 | 49.00961 | 8.87133 | 116° | 22km/h | 1271m | -7.9m/s | 12.5°C | 75.1% | 885.0hPa | 2.7V | 00:00:00 | 02:48:21 | 00:00:00 | |
| DH7VM-15 | 2026-09-03 07:18:13 | 49.00961 | 8.87133 | 116° | 20km/h | 1271m | -8.0m/s | 12.6°C | 75.0% | 885.1hPa | 2.7V | 00:00:00 | 00:00:00 | 00:00:00 | |
| AZAK | 2026-09-03 07:18:13 | 49.00963 | 8.87126 | 116° | 20km/h | 1280m | -8.4m/s | 12.5°C | 75.3% | 884.4hPa | 2.7V | 00:00:00 | 00:00:00 | 00:00:00 | |
| DB0UT-7 | 2026-09-03 07:18:10 | 49.00971 | 8.87105 | 119° | 24km/h | 1305m | -8.2m/s | 12.2°C | 76.3% | 881.5hPa | 2.7V | 00:00:00 | 00:00:00 | 00:00:00 | |
| DB0UT-9 | 2026-09-03 07:18:07 | 49.00977 | 8.87090 | 119° | 24km/h | 1322m | -8.3m/s | 12.2°C | 76.2% | 879.8hPa | 2.7V | 02:30:00 | 00:00:00 | 00:00:00 | |
| DK5PH-5 | 2026-09-03 07:18:04 | 49.00989 | 8.87058 | 126° | 26km/h | 1356m | -8.8m/s | 12.1°C | 75.4% | 876.2hPa | 2.7V | 00:00:00 | 02:48:11 | 00:00:00 | |
| DF3TZ-5 | 2026-09-03 07:18:00 | 49.01002 | 8.87025 | 122° | 24km/h | 1390m | -9.1m/s | 11.8°C | 76.6% | 872.5hPa | 2.7V | 00:00:00 | 00:00:00 | 00:00:00 | |
| DB0ND-19 | 2026-09-03 07:17:46 | 49.01043 | 8.86903 | 107° | 26km/h | 1513m | -9.0m/s | 10.9°C | 79.9% | 860.0hPa | 2.7V | 00:00:00 | 00:00:00 | 00:00:00 | |
| DK5PH-5 | 2026-09-03 07:17:44 | 49.01047 | 8.86884 | 112° | 27km/h | 1530m | -8.8m/s | 10.8°C | 81.8% | 858.1hPa | 2.7V | 00:00:00 | 02:47:51 | 00:00:00 | |
| DB0UT-7 | 2026-09-03 07:17:40 | 49.01053 | 8.86845 | 101° | 27km/h | 1565m | -8.8m/s | 10.5°C | 83.4% | 854.6hPa | 2.7V | 00:00:00 | 02:47:47 | 00:00:00 | |
| KANTATE | 2026-09-03 07:17:35 | 49.01059 | 8.86804 | 107° | 27km/h | 1600m | -9.0m/s | 10.3°C | 86.3% | 851.0hPa | 2.7V | 02:30:00 | 00:00:00 | 00:00:00 | |
| DK5PH-5 | 2026-09-03 07:17:34 | 49.01062 | 8.86783 | 102° | 29km/h | 1617m | -8.6m/s | 10.1°C | 87.7% | 849.1hPa | 2.7V | 00:00:00 | 02:47:41 | 00:00:00 | |
| HARRO8 | 2026-09-03 07:17:34 | 49.01063 | 8.86772 | 99° | 26km/h | 1626m | -8.8m/s | 10.1°C | 87.7% | 848.4hPa | 2.7V | 00:00:00 | 00:00:00 | 00:00:00 | |
| DB0UT-7 | 2026-09-03 07:17:30 | 49.01067 | 8.86740 | 98° | 29km/h | 1651m | -8.9m/s | 9.9°C | 88.9% | 845.7hPa | 2.7V | 02:30:00 | 00:00:00 | 00:00:00 | |
| AZAK | 2026-09-03 07:17:29 | 49.01067 | 8.86740 | 99° | 27km/h | 1651m | -9.0m/s | 9.9°C | 88.6% | 845.7hPa | 2.7V | 02:30:00 | 00:00:00 | 00:00:00 | |
| DF3TZ-5 | 2026-09-03 07:17:29 | 49.01068 | 8.86729 | 96° | 27km/h | 1660m | -8.4m/s | 9.9°C | 88.5% | 844.9hPa | 2.7V | 00:00:00 | 00:00:00 | 00:00:00 | |
| DB0UT-9 | 2026-09-03 07:17:26 | 49.01070 | 8.86707 | 102° | 29km/h | 1677m | -9.1m/s | 9.8°C | 88.8% | 843.1hPa | 2.7V | 02:30:00 | 00:00:00 | 00:00:00 | |
| DK5PH-5 | 2026-09-03 07:17:24 | 49.01074 | 8.86673 | 104° | 29km/h | 1703m | -9.1m/s | 9.5°C | 90.1% | 840.3hPa | 2.7V | 02:30:00 | 02:47:31 | 00:00:00 | |
| DF7PN | 2026-09-03 07:17:20 | 49.01078 | 8.86627 | 100° | 27km/h | 1737m | -9.3m/s | 9.3°C | 91.1% | 837.0hPa | 2.7V | 00:00:00 | 00:00:00 | 00:00:00 | |
| DB0UT-7 | 2026-09-03 07:17:20 | 49.01078 | 8.86627 | 101° | 31km/h | 1737m | -9.2m/s | 9.2°C | 91.5% | 836.9hPa | 2.7V | 00:00:00 | 02:47:27 | 00:00:00 | |
| KANTATE | 2026-09-03 07:17:14 | 49.01082 | 8.86569 | 94° | 29km/h | 1780m | -8.9m/s | 8.9°C | 93.3% | 832.6hPa | 2.7V | 00:00:00 | 00:00:00 | 00:00:00 | |
| DK5PH-5 | 2026-09-03 07:17:14 | 49.01083 | 8.86558 | 94° | 31km/h | 1789m | -8.2m/s | 8.8°C | 94.2% | 831.6hPa | 2.7V | 00:00:00 | 02:47:21 | 00:00:00 | |
| DB0UT-7 | 2026-09-03 07:17:10 | 49.01086 | 8.86510 | 94° | 33km/h | 1823m | -8.3m/s | 8.5°C | 95.9% | 828.1hPa | 2.7V | 00:00:00 | 00:00:00 | 00:00:00 | |
| DH7VM-15 | 2026-09-03 07:17:09 | 49.01086 | 8.86510 | 94° | 33km/h | 1823m | -8.4m/s | 8.5°C | 95.4% | 828.1hPa | 2.7V | 00:00:00 | 00:00:00 | 00:00:00 | |
| AZAK | 2026-09-03 07:17:09 | 49.01087 | 8.86497 | 98° | 33km/h | 1831m | -9.0m/s | 8.5°C | 95.9% | 827.4hPa | 2.7V | 02:31:00 | 00:00:00 | 00:00:00 | |
| DB0UT-9 | 2026-09-03 07:17:05 | 49.01088 | 8.86460 | 91° | 31km/h | 1858m | -8.9m/s | 8.3°C | 96.8% | 824.6hPa | 2.7V | 02:31:00 | 00:00:00 | 00:00:00 | |
| DK5PH-5 | 2026-09-03 07:17:04 | 49.01088 | 8.86436 | 93° | 35km/h | 1876m | -8.6m/s | 8.1°C | 97.8% | 822.9hPa | 2.7V | 00:00:00 | 02:47:11 | 00:00:00 | |
| HARRO8 | 2026-09-03 07:17:03 | 49.01089 | 8.86410 | 89° | 31km/h | 1893m | -8.7m/s | 8.0°C | 97.7% | 821.2hPa | 2.7V | 00:00:00 | 00:00:00 | 00:00:00 | |
| DF3TZ-5 | 2026-09-03 07:16:58 | 49.01089 | 8.86358 | 88° | 33km/h | 1928m | -8.8m/s | 8.0°C | 97.6% | 817.8hPa | 2.7V | 00:00:00 | 00:00:00 | 00:00:00 | |
| DF7PN | 2026-09-03 07:16:49 | 49.01086 | 8.86230 | 90° | 38km/h | 2006m | -8.8m/s | 8.4°C | 94.0% | 810.1hPa | 2.7V | 00:00:00 | 00:00:00 | 00:00:00 | |
| DF1GD-15 | 2026-09-03 07:16:48 | 49.01086 | 8.86230 | 91° | 38km/h | 2006m | -8.8m/s | 8.4°C | 94.0% | 810.1hPa | 2.7V | 02:31:00 | 00:00:00 | 00:00:00 | |
| DB0UT-9 | 2026-09-03 07:16:45 | 49.01086 | 8.86186 | 94° | 40km/h | 2033m | -8.9m/s | 8.4°C | 93.8% | 807.4hPa | 2.7V | 02:31:00 | 00:00:00 | 00:00:00 | |
| DB0ND-19 | 2026-09-03 07:16:44 | 49.01087 | 8.86140 | 94° | 40km/h | 2060m | -8.9m/s | 8.4°C | 88.0% | 804.9hPa | 2.7V | 00:00:00 | 00:00:00 | 00:00:00 | |
| DB0UT-7 | 2026-09-03 07:16:40 | 49.01089 | 8.86092 | 93° | 46km/h | 2087m | -9.0m/s | 8.3°C | 89.6% | 802.2hPa | 2.7V | 00:00:00 | 02:46:47 | 00:00:00 | |
| KANTATE | 2026-09-03 07:16:33 | 49.01096 | 8.85991 | 99° | 46km/h | 2140m | -8.9m/s | 8.3°C | 89.4% | 797.4hPa | 2.7V | 00:00:00 | 00:00:00 | 00:00:00 | |
| HARRO8 | 2026-09-03 07:16:32 | 49.01101 | 8.85939 | 96° | 46km/h | 2167m | -8.8m/s | 8.2°C | 90.2% | 794.8hPa | 2.7V | 00:00:00 | 00:00:00 | 00:00:00 | |
| AZAK | 2026-09-03 07:16:28 | 49.01104 | 8.85903 | 101° | 47km/h | 2185m | -9.0m/s | 8.0°C | 90.9% | 793.0hPa | 2.7V | 02:31:00 | 00:00:00 | 00:00:00 | |
| DF3TZ-5 | 2026-09-03 07:16:27 | 49.01108 | 8.85867 | 96° | 46km/h | 2202m | -9.3m/s | 7.9°C | 91.8% | 791.3hPa | 2.7V | 00:00:00 | 00:00:00 | 00:00:00 | |
| DK5PH-5 | 2026-09-03 07:16:24 | 49.01112 | 8.85813 | 100° | 47km/h | 2230m | -9.6m/s | 7.6°C | 93.6% | 788.7hPa | 2.7V | 00:00:00 | 02:46:31 | 00:00:00 | |
| DB0UT-7 | 2026-09-03 07:16:20 | 49.01119 | 8.85742 | 100° | 49km/h | 2267m | -9.3m/s | 7.2°C | 94.9% | 785.1hPa | 2.7V | 02:31:00 | 00:00:00 | 00:00:00 | |
| DF7PN | 2026-09-03 07:16:18 | 49.01122 | 8.85705 | 97° | 49km/h | 2285m | -8.6m/s | 7.1°C | 95.6% | 783.4hPa | 2.6V | 00:00:00 | 00:00:00 | 00:00:00 | |
| DB0ND-19 | 2026-09-03 07:16:13 | 49.01131 | 8.85594 | 97° | 47km/h | 2339m | -9.5m/s | 6.6°C | 98.5% | 778.4hPa | 2.6V | 00:00:00 | 00:00:00 | 00:00:00 | |
| DM7RM-13 | 2026-09-03 07:16:07 | 49.01136 | 8.85519 | 99° | 49km/h | 2375m | -9.3m/s | 6.3°C | 100.2% | 774.9hPa | 2.6V | 00:00:00 | 00:00:00 | 00:00:00 | |
| DK5PH-5 | 2026-09-03 07:16:04 | 49.01141 | 8.85445 | 98° | 49km/h | 2412m | -9.1m/s | 6.1°C | 0% | 771.3hPa | 2.6V | 02:31:00 | 02:46:11 | 00:00:00 | |
| DF1GD-15 | 2026-09-03 07:16:03 | 49.01141 | 8.85445 | 98° | 51km/h | 2412m | -9.2m/s | 6.1°C | 100.4% | 771.4hPa | 2.6V | 02:31:00 | 00:00:00 | 00:00:00 | |
| HARRO8 | 2026-09-03 07:16:01 | 49.01149 | 8.85370 | 100° | 49km/h | 2449m | -9.4m/s | 5.9°C | 100.0% | 767.9hPa | 2.6V | 00:00:00 | 00:00:00 | 00:00:00 | |
| DF3TZ-5 | 2026-09-03 07:15:56 | 49.01157 | 8.85294 | 98° | 47km/h | 2485m | -9.2m/s | 5.6°C | 100.0% | 764.5hPa | 2.6V | 00:00:00 | 00:00:00 | 00:00:00 | |
| DF7PN | 2026-09-03 07:15:47 | 49.01180 | 8.85126 | 101° | 49km/h | 2568m | -8.9m/s | 5.4°C | 92.6% | 757.0hPa | 2.6V | 00:00:00 | 00:00:00 | 00:00:00 | |
| AZAK | 2026-09-03 07:15:46 | 49.01180 | 8.85126 | 102° | 49km/h | 2568m | -8.9m/s | 5.4°C | 92.6% | 757.0hPa | 2.6V | 02:31:00 | 00:00:00 | 00:00:00 | |
| DK5PH-5 | 2026-09-03 07:15:44 | 49.01188 | 8.85068 | 102° | 49km/h | 2596m | -9.1m/s | 5.2°C | 93.8% | 754.4hPa | 2.6V | 00:00:00 | 02:45:51 | 00:00:00 | |
| DB0ND-19 | 2026-09-03 07:15:42 | 49.01195 | 8.85012 | 104° | 49km/h | 2623m | -9.7m/s | 5.1°C | 93.6% | 751.9hPa | 2.6V | 00:00:00 | 00:00:00 | 00:00:00 | |
| DB0UT-7 | 2026-09-03 07:15:40 | 49.01198 | 8.84993 | 103° | 47km/h | 2633m | -9.2m/s | 5.0°C | 94.2% | 751.0hPa | 2.6V | 00:00:00 | 00:00:00 | 00:00:00 | |
| DL0LBS | 2026-09-03 07:15:39 | 49.01201 | 8.84975 | 102° | 47km/h | 2642m | -9.0m/s | 5.0°C | 93.6% | 750.2hPa | 2.6V | 02:31:00 | 00:00:00 | 00:00:00 | |
| HARRO8 | 2026-09-03 07:15:29 | 49.01230 | 8.84793 | 105° | 47km/h | 2731m | -9.5m/s | 4.8°C | 80.2% | 742.0hPa | 2.6V | 00:00:00 | 00:00:00 | 00:00:00 | |
| AZAK | 2026-09-03 07:15:26 | 49.01239 | 8.84741 | 105° | 49km/h | 2758m | -8.7m/s | 4.7°C | 69.1% | 739.6hPa | 2.6V | 02:32:00 | 00:00:00 | 00:00:00 | |
| DF3TZ-5 | 2026-09-03 07:15:25 | 49.01242 | 8.84723 | 104° | 49km/h | 2767m | -9.1m/s | 4.7°C | 67.2% | 738.7hPa | 2.6V | 00:00:00 | 00:00:00 | 00:00:00 | |
| DB0UT-9 | 2026-09-03 07:15:24 | 49.01242 | 8.84723 | 106° | 49km/h | 2767m | -9.1m/s | 4.7°C | 67.2% | 738.7hPa | 2.6V | 02:32:00 | 00:00:00 | 00:00:00 | |
| DF1GD-15 | 2026-09-03 07:15:22 | 49.01249 | 8.84687 | 108° | 47km/h | 2785m | -9.7m/s | 4.8°C | 54.7% | 737.1hPa | 2.6V | 02:32:00 | 00:00:00 | 00:00:00 | |
| DM7RM-13 | 2026-09-03 07:15:21 | 49.01253 | 8.84670 | 105° | 47km/h | 2794m | -9.1m/s | 4.8°C | 54.5% | 736.2hPa | 2.6V | 00:00:00 | 00:00:00 | 00:00:00 | |
| DB0UT-7 | 2026-09-03 07:15:20 | 49.01259 | 8.84634 | 107° | 47km/h | 2811m | -9.2m/s | 4.7°C | 57.3% | 734.6hPa | 2.6V | 02:32:00 | 02:45:27 | 00:00:00 | |
| DL0LBS | 2026-09-03 07:15:18 | 49.01262 | 8.84616 | 110° | 47km/h | 2821m | -9.4m/s | 4.7°C | 54.6% | 733.9hPa | 2.6V | 02:32:00 | 00:00:00 | 00:00:00 | |
| DF7PN | 2026-09-03 07:15:16 | 49.01273 | 8.84564 | 104° | 47km/h | 2848m | -8.7m/s | 4.6°C | 50.4% | 731.3hPa | 2.6V | 00:00:00 | 00:00:00 | 00:00:00 | |
| DB0ND-19 | 2026-09-03 07:15:11 | 49.01292 | 8.84458 | 105° | 47km/h | 2902m | -9.0m/s | 5.2°C | 12.7% | 726.4hPa | 2.6V | 00:00:00 | 00:00:00 | 00:00:00 | |
| DK5PH-5 | 2026-09-03 07:15:04 | 49.01312 | 8.84352 | 108° | 47km/h | 2957m | -9.5m/s | 5.1°C | 12.5% | 721.6hPa | 2.6V | 02:32:00 | 02:45:11 | 00:00:00 | |
| DB0UT-9 | 2026-09-03 07:15:03 | 49.01312 | 8.84352 | 109° | 49km/h | 2957m | -9.5m/s | 5.2°C | 12.5% | 721.6hPa | 2.7V | 02:32:00 | 00:00:00 | 00:00:00 | |
| HARRO8 | 2026-09-03 07:14:58 | 49.01334 | 8.84249 | 108° | 46km/h | 3013m | -9.6m/s | 5.0°C | 12.7% | 716.9hPa | 2.7V | 00:00:00 | 00:00:00 | 00:00:00 | |
| DF3TZ-5 | 2026-09-03 07:14:54 | 49.01347 | 8.84179 | 105° | 46km/h | 3050m | -9.3m/s | 5.0°C | 10.0% | 713.6hPa | 2.7V | 00:00:00 | 00:00:00 | 00:00:00 | |
| DF7PN | 2026-09-03 07:14:45 | 49.01386 | 8.84020 | 113° | 49km/h | 3129m | -9.4m/s | 4.9°C | 23.7% | 706.3hPa | 2.7V | 00:00:00 | 00:00:00 | 00:00:00 | |
| DK5PH-5 | 2026-09-03 07:14:44 | 49.01391 | 8.84002 | 112° | 53km/h | 3139m | -9.1m/s | 4.8°C | 22.2% | 705.7hPa | 2.7V | 00:00:00 | 02:44:51 | 00:00:00 | |
| DB0UT-9 | 2026-09-03 07:14:43 | 49.01391 | 8.84002 | 113° | 49km/h | 3139m | -9.2m/s | 4.8°C | 22.0% | 705.7hPa | 2.7V | 02:33:00 | 00:00:00 | 00:00:00 | |
| AZAK | 2026-09-03 07:14:42 | 49.01396 | 8.83984 | 113° | 49km/h | 3148m | -8.9m/s | 4.8°C | 19.6% | 705.0hPa | 2.7V | 00:00:00 | 00:00:00 | 00:00:00 | |
| DF1GD-15 | 2026-09-03 07:14:41 | 49.01400 | 8.83966 | 113° | 51km/h | 3157m | -9.2m/s | 4.9°C | 15.0% | 704.2hPa | 2.7V | 02:33:00 | 00:00:00 | 00:00:00 | |
| DB0ND-19 | 2026-09-03 07:14:40 | 49.01417 | 8.83912 | 114° | 51km/h | 3184m | -8.6m/s | 5.0°C | 15.1% | 702.0hPa | 2.7V | 00:00:00 | 00:00:00 | 00:00:00 | |
| DB0UT-7 | 2026-09-03 07:14:38 | 49.01423 | 8.83894 | 116° | 53km/h | 3193m | -8.9m/s | 4.9°C | 15.5% | 701.1hPa | 2.7V | 00:00:00 | 02:44:45 | 00:00:00 | |
| DL0LBS | 2026-09-03 07:14:36 | 49.01435 | 8.83859 | 117° | 51km/h | 3211m | -8.8m/s | 4.8°C | 15.7% | 699.5hPa | 2.7V | 02:33:00 | 00:00:00 | 00:00:00 | |
| DO3MHA-11 | 2026-09-03 07:14:32 | 49.01460 | 8.83787 | 121° | 53km/h | 3246m | -9.0m/s | 4.5°C | 24.7% | 696.5hPa | 2.7V | 00:00:00 | 02:44:39 | 00:00:00 | |
| KANTATE | 2026-09-03 07:14:31 | 49.01460 | 8.83787 | 121° | 53km/h | 3246m | -9.1m/s | 4.6°C | 24.4% | 696.6hPa | 2.7V | 02:33:00 | 00:00:00 | 00:00:00 | |
| HARRO8 | 2026-09-03 07:14:27 | 49.01493 | 8.83700 | 120° | 49km/h | 3291m | -9.0m/s | 4.1°C | 33.8% | 692.8hPa | 2.7V | 00:00:00 | 00:00:00 | 00:00:00 | |
| DO3MHA-11 | 2026-09-03 07:14:26 | 49.01500 | 8.83682 | 121° | 53km/h | 3300m | -8.7m/s | 4.0°C | 37.7% | 692.0hPa | 2.7V | 00:00:00 | 02:44:33 | 00:00:00 | |
| DF3TZ-5 | 2026-09-03 07:14:23 | 49.01520 | 8.83630 | 119° | 51km/h | 3327m | -9.0m/s | 3.7°C | 42.7% | 689.7hPa | 2.7V | 00:00:00 | 00:00:00 | 00:00:00 | |
| AZAK | 2026-09-03 07:14:22 | 49.01534 | 8.83595 | 121° | 51km/h | 3345m | -9.2m/s | 3.4°C | 56.9% | 688.3hPa | 2.7V | 00:00:00 | 00:00:00 | 00:00:00 | |
| DO3MHA-11 | 2026-09-03 07:14:20 | 49.01541 | 8.83577 | 121° | 55km/h | 3354m | -8.3m/s | 3.2°C | 76.1% | 687.4hPa | 2.7V | 02:33:00 | 02:44:27 | 00:00:00 | |
| CB1BUN | 2026-09-03 07:14:16 | 49.01562 | 8.83525 | 122° | 55km/h | 3380m | -8.7m/s | 2.9°C | 86.3% | 685.3hPa | 2.6V | 02:33:00 | 00:00:00 | 00:00:00 | |
| DK5PH-5 | 2026-09-03 07:14:14 | 49.01584 | 8.83473 | 123° | 51km/h | 3407m | -9.1m/s | 2.7°C | 80.7% | 683.0hPa | 2.6V | 00:00:00 | 02:44:21 | 00:00:00 | |
| DO3MHA-11 | 2026-09-03 07:14:13 | 49.01591 | 8.83455 | 122° | 51km/h | 3416m | -8.6m/s | 2.7°C | 74.9% | 682.1hPa | 2.6V | 00:00:00 | 02:44:20 | 00:00:00 | |
| DM7RM-13 | 2026-09-03 07:14:12 | 49.01591 | 8.83455 | 122° | 53km/h | 3416m | -8.7m/s | 2.8°C | 74.0% | 682.2hPa | 2.6V | 02:33:00 | 00:00:00 | 00:00:00 | |
| KANTATE | 2026-09-03 07:14:11 | 49.01598 | 8.83438 | 124° | 55km/h | 3424m | -9.1m/s | 2.8°C | 70.4% | 681.5hPa | 2.6V | 02:33:00 | 00:00:00 | 00:00:00 | |
| DB0ND-19 | 2026-09-03 07:14:09 | 49.01625 | 8.83368 | 120° | 51km/h | 3459m | -9.0m/s | 2.5°C | 70.2% | 678.5hPa | 2.6V | 00:00:00 | 00:00:00 | 00:00:00 | |
| DB0UT-7 | 2026-09-03 07:14:08 | 49.01625 | 8.83368 | 121° | 49km/h | 3459m | -8.9m/s | 2.5°C | 71.0% | 678.5hPa | 2.6V | 02:33:00 | 00:00:00 | 00:00:00 | |
| DB0UT-9 | 2026-09-03 07:14:02 | 49.01657 | 8.83280 | 117° | 51km/h | 3501m | -8.7m/s | 2.3°C | 70.8% | 674.9hPa | 2.7V | 02:33:00 | 00:00:00 | 00:00:00 | |
| DO3MHA-11 | 2026-09-03 07:14:01 | 49.01670 | 8.83245 | 118° | 51km/h | 3519m | -8.9m/s | 2.1°C | 69.4% | 673.5hPa | 2.7V | 00:00:00 | 02:44:08 | 00:00:00 | |
| DF1GD-15 | 2026-09-03 07:14:00 | 49.01670 | 8.83245 | 118° | 53km/h | 3519m | -8.9m/s | 2.2°C | 68.5% | 673.5hPa | 2.7V | 02:33:00 | 00:00:00 | 00:00:00 | |
| AZAK | 2026-09-03 07:13:58 | 49.01682 | 8.83210 | 116° | 49km/h | 3536m | -8.8m/s | 2.0°C | 70.2% | 672.0hPa | 2.7V | 00:00:00 | 00:00:00 | 00:00:00 | |
| DH7VM-15 | 2026-09-03 07:13:56 | 49.01693 | 8.83175 | 118° | 51km/h | 3554m | -8.9m/s | 1.9°C | 75.4% | 670.6hPa | 2.7V | 00:00:00 | 00:00:00 | 00:00:00 | |
| CB1BUN | 2026-09-03 07:13:55 | 49.01699 | 8.83158 | 116° | 49km/h | 3562m | -8.6m/s | 1.8°C | 74.9% | 669.9hPa | 2.7V | 02:33:00 | 00:00:00 | 00:00:00 | |
| DO3MHA-11 | 2026-09-03 07:13:53 | 49.01715 | 8.83105 | 117° | 49km/h | 3588m | -9.1m/s | 1.6°C | 75.6% | 667.7hPa | 2.7V | 02:33:00 | 02:44:00 | 00:00:00 | |
| DO3MHA-11 | 2026-09-03 07:13:47 | 49.01747 | 8.83001 | 116° | 49km/h | 3640m | -9.2m/s | 1.3°C | 75.9% | 663.4hPa | 2.5V | 00:00:00 | 02:43:54 | 00:00:00 | |
| KANTATE | 2026-09-03 07:13:45 | 49.01752 | 8.82984 | 113° | 47km/h | 3649m | -8.8m/s | 1.3°C | 73.9% | 662.8hPa | 2.5V | 02:34:00 | 00:00:00 | 00:00:00 | |
| DK5PH-5 | 2026-09-03 07:13:44 | 49.01762 | 8.82950 | 113° | 47km/h | 3667m | -8.5m/s | 1.2°C | 72.7% | 661.3hPa | 2.5V | 02:33:00 | 02:43:51 | 00:00:00 | |
| DF7PN | 2026-09-03 07:13:43 | 49.01772 | 8.82916 | 113° | 47km/h | 3684m | -8.4m/s | 1.2°C | 62.5% | 660.0hPa | 2.7V | 00:00:00 | 00:00:00 | 00:00:00 | |
| DO3MHA-11 | 2026-09-03 07:13:42 | 49.01772 | 8.82916 | 114° | 49km/h | 3684m | -8.4m/s | 1.1°C | 63.4% | 659.9hPa | 2.7V | 00:00:00 | 02:43:49 | 00:00:00 | |
| DF1GD-15 | 2026-09-03 07:13:39 | 49.01783 | 8.82883 | 115° | 49km/h | 3702m | -8.4m/s | 1.0°C | 61.9% | 658.4hPa | 2.7V | 02:34:00 | 00:00:00 | 00:00:00 | |
| DB0UT-7 | 2026-09-03 07:13:38 | 49.01793 | 8.82849 | 116° | 49km/h | 3720m | -8.8m/s | 0.8°C | 79.4% | 656.9hPa | 2.7V | 00:00:00 | 02:43:45 | 00:00:00 | |
| DK7TD | 2026-09-03 07:13:20 | 49.01897 | 8.82556 | 119° | 49km/h | 3877m | -8.8m/s | 0.2°C | 58.9% | 644.2hPa | 2.7V | 02:35:22 | 02:43:27 | 00:00:00 | |
| DF1GD-15 | 2026-09-03 07:13:18 | 49.01903 | 8.82539 | 119° | 47km/h | 3886m | -8.9m/s | 0.1°C | 52.2% | 643.6hPa | 2.7V | 02:34:00 | 00:00:00 | 00:00:00 | |
| DO3MHA-11 | 2026-09-03 07:13:17 | 49.01916 | 8.82506 | 120° | 51km/h | 3903m | -8.4m/s | -0.1°C | 58.9% | 642.0hPa | 2.7V | 00:00:00 | 02:43:24 | 00:00:00 | |
| DK5PH-5 | 2026-09-03 07:13:14 | 49.01935 | 8.82456 | 120° | 55km/h | 3929m | -8.4m/s | -0.5°C | 78.7% | 639.9hPa | 2.7V | 00:00:00 | 02:43:21 | 00:00:00 | |
| CB1BUN | 2026-09-03 07:13:13 | 49.01935 | 8.82456 | 120° | 51km/h | 3929m | -8.4m/s | -0.5°C | 77.5% | 639.9hPa | 2.7V | 02:34:00 | 00:00:00 | 00:00:00 | |
| DF7PN | 2026-09-03 07:13:12 | 49.01955 | 8.82405 | 119° | 49km/h | 3954m | -8.6m/s | -0.8°C | 80.4% | 637.9hPa | 2.7V | 00:00:00 | 00:00:00 | 00:00:00 | |
| DK7TD | 2026-09-03 07:12:51 | 49.02090 | 8.82037 | 116° | 58km/h | 4129m | -8.9m/s | -1.8°C | 87.8% | 624hPa | 2.7V | 02:35:22 | 02:42:58 | 00:00:00 | |
| DF3TZ-5 | 2026-09-03 07:12:50 | 49.02097 | 8.82017 | 118° | 58km/h | 4137m | -9.2m/s | -1.8°C | 83.4% | 623.2hPa | 2.5V | 00:00:00 | 00:00:00 | 00:00:00 | |
| DM7RM-13 | 2026-09-03 07:12:49 | 49.02097 | 8.82017 | 119° | 58km/h | 4138m | -9.2m/s | -1.8°C | 83.4% | 623.3hPa | 2.5V | 02:35:00 | 00:00:00 | 00:00:00 | |
| DO3MHA-11 | 2026-09-03 07:12:47 | 49.02117 | 8.81955 | 116° | 60km/h | 4164m | -9.0m/s | -1.8°C | 86.7% | 621.2hPa | 2.5V | 00:00:00 | 02:42:54 | 00:00:00 | |
| DK7TD | 2026-09-03 07:12:29 | 49.02237 | 8.81584 | 118° | 57km/h | 4325m | -9m/s | -1.7°C | 64.3% | 608.9hPa | 2.5V | 02:35:22 | 02:42:36 | 00:00:00 | |
| DK7TD | 2026-09-03 07:12:18 | 49.02313 | 8.81372 | 119° | 57km/h | 4423m | -8.6m/s | -1.3°C | 11.1% | 601.7hPa | 2.7V | 02:35:22 | 02:42:25 | 00:00:00 | |
| DK7TD | 2026-09-03 07:12:06 | 49.02393 | 8.81151 | 119° | 55km/h | 4526m | -8.6m/s | -1.9°C | 7% | 593.8hPa | 2.7V | 02:36:13 | 02:42:13 | 00:00:00 | |
| DK7TD | 2026-09-03 07:11:56 | 49.02455 | 8.80960 | 115° | 55km/h | 4609m | -8.8m/s | -2.4°C | 11.6% | 587.6hPa | 2.7V | 02:36:13 | 02:42:03 | 00:00:00 | |
| DK7TD | 2026-09-03 07:11:45 | 49.02520 | 8.80746 | 114° | 57km/h | 4705m | -8.8m/s | -3°C | 19% | 580.5hPa | 2.5V | 02:36:13 | 02:41:52 | 00:00:00 | |
| DK7TD | 2026-09-03 07:11:34 | 49.02583 | 8.80531 | 116° | 57km/h | 4799m | -8.8m/s | -3.8°C | 22% | 573.6hPa | 2.5V | 02:36:13 | 02:41:41 | 00:00:00 | |
| DK7TD | 2026-09-03 07:11:23 | 49.02652 | 8.80310 | 118° | 60km/h | 4892m | -8.5m/s | -4.6°C | 27.1% | 566.9hPa | 2.7V | 02:36:13 | 02:41:30 | 00:00:00 | |
| DK7TD | 2026-09-03 07:11:12 | 49.02733 | 8.80076 | 121° | 60km/h | 4982m | -8.5m/s | -5.4°C | 30% | 560.3hPa | 2.7V | 02:37:04 | 02:41:19 | 00:00:00 | |
| DK7TD | 2026-09-03 07:11:01 | 49.02816 | 8.79842 | 119° | 62km/h | 5073m | -8.5m/s | -6.3°C | 44.4% | 553.8hPa | 2.7V | 02:37:04 | 02:41:08 | 00:00:00 | |
| DK7TD | 2026-09-03 07:10:51 | 49.02890 | 8.79631 | 119° | 64km/h | 5156m | -9m/s | -7.1°C | 59% | 548.1hPa | 2.6V | 02:37:04 | 02:40:58 | 00:00:00 | |
| HARRO8 | 2026-09-03 07:10:50 | 49.02897 | 8.79610 | 118° | 62km/h | 5165m | -8.8m/s | -7.2°C | 51.0% | 547.4hPa | 2.7V | 00:00:00 | 00:00:00 | 00:00:00 | |
| DF3TZ-5 | 2026-09-03 07:10:46 | 49.02935 | 8.79505 | 118° | 62km/h | 5208m | -8.9m/s | -7.6°C | 53.3% | 544.5hPa | 2.7V | 00:00:00 | 00:00:00 | 00:00:00 | |
| DK7TD | 2026-09-03 07:10:40 | 49.02972 | 8.79401 | 121° | 62km/h | 5252m | -9.1m/s | -8°C | 61.2% | 541.4hPa | 2.7V | 02:37:04 | 02:40:47 | 00:00:00 | |
| DK7TD | 2026-09-03 07:10:30 | 49.03050 | 8.79193 | 121° | 60km/h | 5339m | -9m/s | -8.4°C | 68% | 535.5hPa | 2.5V | 02:38:46 | 02:40:37 | 00:00:00 | |
| DK7TD | 2026-09-03 07:10:20 | 49.03131 | 8.78989 | 120° | 60km/h | 5425m | -9m/s | -9°C | 85.9% | 529.5hPa | 2.5V | 02:38:46 | 02:40:27 | 00:00:00 | |
| DK7TD | 2026-09-03 07:10:09 | 49.03226 | 8.78769 | 127° | 66km/h | 5518m | -8.5m/s | -9.7°C | 87.5% | 523.3hPa | 2.5V | 02:38:46 | 02:40:16 | 00:00:00 | |
| DK7TD | 2026-09-03 07:09:58 | 49.03342 | 8.78537 | 129° | 71km/h | 5603m | -8m/s | -10.1°C | 83.8% | 517.5hPa | 2.5V | 02:38:46 | 02:40:05 | 00:00:00 | |
| DK7TD | 2026-09-03 07:09:48 | 49.03455 | 8.78321 | 129° | 71km/h | 5681m | -7.8m/s | -10.4°C | 82.3% | 512.1hPa | 2.5V | 02:38:46 | 02:39:55 | 00:00:00 | |
| DK7TD | 2026-09-03 07:09:38 | 49.03566 | 8.78111 | 128° | 69km/h | 5760m | -7.7m/s | -11°C | 80.6% | 506.9hPa | 2.6V | 02:38:46 | 02:39:45 | 00:00:00 | |
| DK7TD | 2026-09-03 07:09:23 | 49.03727 | 8.77807 | 128° | 69km/h | 5880m | -7.6m/s | -12°C | 77.5% | 499.2hPa | 2.6V | 02:38:46 | 02:39:30 | 00:00:00 | |
| DK7TD | 2026-09-03 07:09:13 | 49.03834 | 8.77595 | 127° | 71km/h | 5959m | -8.4m/s | -12.7°C | 85% | 493.9hPa | 2.6V | 02:38:46 | 02:39:20 | 00:00:00 | |
| DK7TD | 2026-09-03 07:09:02 | 49.03952 | 8.77358 | 126° | 69km/h | 6049m | -8m/s | -13.5°C | 86.4% | 488.3hPa | 2.6V | 02:38:46 | 02:39:09 | 00:00:00 | |
| DK7TD | 2026-09-03 07:08:51 | 49.04067 | 8.77111 | 126° | 73km/h | 6137m | -8.5m/s | -14.3°C | 89.8% | 482.6hPa | 2.6V | 02:38:46 | 02:38:58 | 00:00:00 | |
| HARRO8 | 2026-09-03 07:08:46 | 49.04118 | 8.76998 | 123° | 69km/h | 6179m | -8.2m/s | -14.7°C | 84.4% | 480.1hPa | 2.6V | 00:00:00 | 00:00:00 | 00:00:00 | |
| DK7TD | 2026-09-03 07:08:41 | 49.04169 | 8.76887 | 124° | 69km/h | 6220m | -8m/s | -15°C | 88% | 477.4hPa | 2.6V | 02:39:37 | 02:38:48 | 00:00:00 | |
| DK7TD | 2026-09-03 07:08:25 | 49.04344 | 8.76517 | 126° | 80km/h | 6355m | -9m/s | -16.1°C | 83.7% | 468.8hPa | 2.6V | 02:39:37 | 02:38:32 | 00:00:00 | |
| DK7TD | 2026-09-03 07:08:14 | 49.04490 | 8.76228 | 129° | 89km/h | 6453m | -8.7m/s | -15.4°C | 54.5% | 463hPa | 2.6V | 02:39:37 | 02:38:21 | 00:00:00 | |
| DK7TD | 2026-09-03 07:08:04 | 49.04637 | 8.75954 | 130° | 93km/h | 6540m | -8.9m/s | -15.3°C | 28.7% | 457.6hPa | 2.6V | 02:39:37 | 02:38:11 | 00:00:00 | |
| DK7TD | 2026-09-03 07:07:54 | 49.04783 | 8.75682 | 128° | 91km/h | 6626m | -8.5m/s | -15.8°C | 32.6% | 452.3hPa | 2.5V | 02:40:28 | 02:38:01 | 00:00:00 | |
| DK7TD | 2026-09-03 07:07:43 | 49.04935 | 8.75376 | 126° | 88km/h | 6723m | -8.6m/s | -16.7°C | 38.9% | 446.5hPa | 2.6V | 02:40:28 | 02:37:50 | 00:00:00 | |
| DK7TD | 2026-09-03 07:07:33 | 49.05065 | 8.75104 | 126° | 88km/h | 6812m | -9.2m/s | -17.4°C | 44.6% | 441.2hPa | 2.5V | 02:40:28 | 02:37:40 | 00:00:00 | |
| DK7TD | 2026-09-03 07:07:22 | 49.05206 | 8.74816 | 128° | 84km/h | 6913m | -9.6m/s | -17.9°C | 31.9% | 435.4hPa | 2.5V | 02:40:28 | 02:37:29 | 00:00:00 | |
| DK7TD | 2026-09-03 07:07:12 | 49.05329 | 8.74565 | 128° | 84km/h | 7003m | -9.6m/s | -18.4°C | 27% | 430hPa | 2.6V | 02:40:28 | 02:37:19 | 00:00:00 | |
| DK7TD | 2026-09-03 07:07:02 | 49.05463 | 8.74304 | 129° | 89km/h | 7093m | -8.8m/s | -19°C | 23% | 425hPa | 2.6V | 02:41:19 | 02:37:09 | 00:00:00 | |
| DK7TD | 2026-09-03 07:06:52 | 49.05614 | 8.74027 | 130° | 95km/h | 7183m | -9.5m/s | -18.9°C | 12.1% | 419.8hPa | 2.6V | 02:41:19 | 02:36:59 | 00:00:00 | |
| DK7TD | 2026-09-03 07:06:41 | 49.05776 | 8.73719 | 127° | 93km/h | 7281m | -8.9m/s | -19.6°C | 21.6% | 414.2hPa | 2.5V | 02:41:19 | 02:36:48 | 00:00:00 | |
| DK7TD | 2026-09-03 07:06:31 | 49.05914 | 8.73445 | 127° | 88km/h | 7370m | -9.2m/s | -20.3°C | 25.3% | 409.2hPa | 2.5V | 02:41:19 | 02:36:38 | 00:00:00 | |
| DK7TD | 2026-09-03 07:06:20 | 49.06063 | 8.73151 | 127° | 88km/h | 7473m | -8.8m/s | -21.3°C | 32% | 403.6hPa | 2.6V | 02:41:19 | 02:36:27 | 00:00:00 | |
| DO3MHA-11 | 2026-09-03 07:06:16 | 49.06119 | 8.73045 | 128° | 89km/h | 7510m | -9.2m/s | -21.5°C | 28.6% | 401.6hPa | 2.5V | 02:41:00 | 02:36:23 | 00:00:00 | |
| DK5PH-5 | 2026-09-03 07:06:14 | 49.06146 | 8.72992 | 128° | 91km/h | 7529m | -9.3m/s | -21.7°C | 29.3% | 400.7hPa | 2.6V | 02:41:00 | 02:36:21 | 00:00:00 | |
| DM0DOS-11 | 2026-09-03 07:06:12 | 49.06242 | 8.72803 | 128° | 89km/h | 7593m | -9.5m/s | -22.3°C | 32% | 397.2hPa | 2.5V | 02:41:29 | 02:36:14 | 00:00:00 | |
| DK7TD | 2026-09-03 07:06:09 | 49.06214 | 8.72857 | 129° | 89km/h | 7575m | -9.3m/s | -22.2°C | 35% | 398.2hPa | 2.6V | 02:42:10 | 02:36:16 | 00:00:00 | |
| DK7TD | 2026-09-03 07:05:59 | 49.06355 | 8.72588 | 130° | 91km/h | 7668m | -9.3m/s | -23°C | 38% | 393.2hPa | 2.6V | 02:42:10 | 02:36:06 | 00:00:00 | |
| DF7PN | 2026-09-03 07:05:57 | 49.06384 | 8.72534 | 130° | 91km/h | 7686m | -9.2m/s | -23.1°C | 32.3% | 392.3hPa | 2.6V | 00:00:00 | 00:00:00 | 00:00:00 | |
| DB0ND-19 | 2026-09-03 07:05:52 | 49.06459 | 8.72396 | 130° | 95km/h | 7731m | -9.4m/s | -23.5°C | 33.6% | 389.9hPa | 2.6V | 00:00:00 | 00:00:00 | 00:00:00 | |
| NBG1-10 | 2026-09-03 07:05:50 | 49.06490 | 8.72339 | 130° | 99km/h | 7749m | -9.1m/s | -23.7°C | 36.4% | 388.9hPa | 2.6V | 00:00:00 | 02:35:57 | 00:00:00 | |
| DM0DOS-11 | 2026-09-03 07:05:49 | 49.06583 | 8.72169 | 130° | 95km/h | 7803m | -9.5m/s | -24.2°C | 38.2% | 386.1hPa | 2.6V | 02:41:52 | 02:35:51 | 00:00:00 | |
| DK7TD | 2026-09-03 07:05:49 | 49.06505 | 8.72311 | 129° | 95km/h | 7758m | -9.3m/s | -23.8°C | 40.9% | 388.5hPa | 2.6V | 02:42:10 | 02:35:56 | 00:00:00 | |
| DK7TD | 2026-09-03 07:05:38 | 49.06677 | 8.71998 | 130° | 99km/h | 7859m | -9.3m/s | -24.6°C | 43.4% | 383.1hPa | 2.6V | 02:42:10 | 02:35:45 | 00:00:00 | |
| DB0UT-7 | 2026-09-03 07:05:38 | 49.06677 | 8.71998 | 131° | 100km/h | 7859m | -9.3m/s | -24.5°C | 39.4% | 383.1hPa | 2.5V | 00:00:00 | 02:35:45 | 00:00:00 | |
| DO3MHA-11 | 2026-09-03 07:05:36 | 49.06708 | 8.71939 | 131° | 99km/h | 7877m | -8.8m/s | -24.7°C | 40.3% | 382.1hPa | 2.5V | 00:00:00 | 02:35:43 | 00:00:00 | |
| BIOWL9-15 | 2026-09-03 07:05:35 | 49.06725 | 8.71910 | 131° | 97km/h | 7886m | -9.8m/s | -24.8°C | 38.7% | 381.7hPa | 2.5V | 00:00:00 | 00:00:00 | 00:00:00 | |
| DF1GD-15 | 2026-09-03 07:05:29 | 49.06823 | 8.71739 | 133° | 99km/h | 7941m | -9.8m/s | -25.3°C | 40.0% | 378.9hPa | 2.5V | 02:42:00 | 00:00:00 | 00:00:00 | |
| DK7TD | 2026-09-03 07:05:29 | 49.06840 | 8.71711 | 131° | 97km/h | 7950m | -9.1m/s | -25.3°C | 47.1% | 378.4hPa | 2.5V | 02:42:10 | 02:35:35 | 00:00:00 | |
| DB0UT-9 | 2026-09-03 07:05:28 | 49.06823 | 8.71739 | 133° | 99km/h | 7941m | -9.8m/s | -25.3°C | 40.0% | 378.9hPa | 2.5V | 02:42:00 | 00:00:00 | 00:00:00 | |
| KANTATE | 2026-09-03 07:05:27 | 49.06840 | 8.71711 | 132° | 97km/h | 7950m | -9.1m/s | -25.3°C | 40.0% | 378.4hPa | 2.5V | 02:42:00 | 00:00:00 | 00:00:00 | |
| DO3MHA-11 | 2026-09-03 07:05:26 | 49.06873 | 8.71654 | 132° | 100km/h | 7968m | -9.6m/s | -25.5°C | 43.0% | 377.3hPa | 2.5V | 00:00:00 | 02:35:33 | 00:00:00 | |
| DB0ND-19 | 2026-09-03 07:05:21 | 49.06957 | 8.71511 | 132° | 99km/h | 8015m | -10.1m/s | -25.9°C | 39.0% | 374.9hPa | 2.5V | 00:00:00 | 00:00:00 | 00:00:00 | |
| CB1BUN | 2026-09-03 07:05:20 | 49.06956 | 8.71511 | 134° | 100km/h | 8016m | -10.1m/s | -25.9°C | 39.0% | 374.9hPa | 2.5V | 00:00:00 | 00:00:00 | 00:00:00 | |
| DH7VM-15 | 2026-09-03 07:05:18 | 49.06990 | 8.71454 | 133° | 100km/h | 8035m | -9.4m/s | -26.1°C | 38.4% | 374.0hPa | 2.5V | 00:00:00 | 00:00:00 | 00:00:00 | |
| NBG1-10 | 2026-09-03 07:05:17 | 49.07024 | 8.71396 | 133° | 104km/h | 8054m | -9.3m/s | -26.2°C | 41.6% | 372.9hPa | 2.5V | 02:42:00 | 02:35:24 | 00:00:00 | |
| DK7TD | 2026-09-03 07:05:17 | 49.07024 | 8.71396 | 132° | 100km/h | 8053m | -9.3m/s | -26.2°C | 46% | 373hPa | 2.5V | 02:43:01 | 02:35:24 | 00:00:00 | |
| DO3MHA-11 | 2026-09-03 07:05:16 | 49.07042 | 8.71368 | 134° | 104km/h | 8063m | -9.8m/s | -26.3°C | 41.6% | 372.4hPa | 2.6V | 02:42:00 | 02:35:23 | 00:00:00 | |
| DK5PH-5 | 2026-09-03 07:05:14 | 49.07077 | 8.71310 | 134° | 102km/h | 8082m | -9.8m/s | -26.4°C | 42.3% | 371.4hPa | 2.6V | 00:00:00 | 02:35:21 | 00:00:00 | |
| DM0DOS-11 | 2026-09-03 07:05:13 | 49.07185 | 8.71136 | 133° | 104km/h | 8132m | -7.8m/s | -26.9°C | 46.1% | 368.9hPa | 2.6V | 02:42:28 | 02:35:15 | 00:00:00 | |
| DK7TD | 2026-09-03 07:05:07 | 49.07203 | 8.71107 | 134° | 104km/h | 8140m | -7.7m/s | -27°C | 50.5% | 368.6hPa | 2.6V | 02:43:01 | 02:35:14 | 00:00:00 | |
| DO3MHA-11 | 2026-09-03 07:05:06 | 49.07221 | 8.71079 | 134° | 102km/h | 8148m | -7.6m/s | -27.0°C | 47.1% | 368.1hPa | 2.6V | 00:00:00 | 02:35:13 | 00:00:00 | |
| DF3TZ-5 | 2026-09-03 07:05:04 | 49.07257 | 8.71021 | 133° | 100km/h | 8163m | -7.7m/s | -27.2°C | 45.3% | 367.4hPa | 2.6V | 00:00:00 | 00:00:00 | 00:00:00 | |
| AZAK | 2026-09-03 07:05:00 | 49.07311 | 8.70936 | 135° | 102km/h | 8186m | -7.9m/s | -27.4°C | 47.0% | 366.1hPa | 2.6V | 00:00:00 | 00:00:00 | 00:00:00 | |
| CB1BUN | 2026-09-03 07:04:59 | 49.07328 | 8.70908 | 135° | 102km/h | 8194m | -7.8m/s | -27.5°C | 47.5% | 365.7hPa | 2.6V | 00:00:00 | 00:00:00 | 00:00:00 | |
| DM7RM-13 | 2026-09-03 07:04:58 | 49.07346 | 8.70880 | 134° | 102km/h | 8202m | -7.9m/s | -27.6°C | 48.1% | 365.3hPa | 2.6V | 02:43:00 | 00:00:00 | 00:00:00 | |
| DM0DOS-11 | 2026-09-03 07:04:57 | 49.07399 | 8.70794 | 133° | 102km/h | 8225m | -8.1m/s | -27.8°C | 55.4% | 364.1hPa | 2.6V | 02:42:40 | 02:35:03 | 00:00:00 | |
| DK7TD | 2026-09-03 07:04:57 | 49.07382 | 8.70823 | 133° | 102km/h | 8217m | -8m/s | -27.7°C | 57.2% | 364.5hPa | 2.5V | 02:43:01 | 02:35:04 | 00:00:00 | |
| DF7PN | 2026-09-03 07:04:55 | 49.07435 | 8.70736 | 132° | 102km/h | 8241m | -8.0m/s | -27.9°C | 53.2% | 363.3hPa | 2.5V | 00:00:00 | 00:00:00 | 00:00:00 | |
| DM0DOS-11 | 2026-09-03 07:04:51 | 49.07574 | 8.70502 | 131° | 104km/h | 8304m | -8.1m/s | -28.3°C | 49.3% | 360.2hPa | 2.5V | 02:42:50 | 02:34:53 | 00:00:00 | |
| DK7TD | 2026-09-03 07:04:46 | 49.07574 | 8.70502 | 132° | 104km/h | 8304m | -8.1m/s | -28.3°C | 52.9% | 360.2hPa | 2.5V | 02:43:01 | 02:34:53 | 00:00:00 | |
| DO3MHA-11 | 2026-09-03 07:04:46 | 49.07574 | 8.70502 | 132° | 102km/h | 8304m | -8.0m/s | -28.3°C | 49.3% | 360.1hPa | 2.5V | 02:42:00 | 02:34:53 | 00:00:00 | |
| DL0LBS | 2026-09-03 07:04:45 | 49.07574 | 8.70502 | 133° | 104km/h | 8304m | -8.1m/s | -28.3°C | 45.8% | 360.2hPa | 2.6V | 02:43:00 | 00:00:00 | 00:00:00 | |
| DK5PH-5 | 2026-09-03 07:04:44 | 49.07609 | 8.70442 | 132° | 104km/h | 8319m | -7.7m/s | -28.4°C | 47.0% | 359.2hPa | 2.6V | 02:42:00 | 02:34:51 | 00:00:00 | |
| DM7RM-13 | 2026-09-03 07:04:38 | 49.07695 | 8.70294 | 133° | 100km/h | 8358m | -7.9m/s | -28.7°C | 42.5% | 357.4hPa | 2.6V | 02:43:00 | 00:00:00 | 00:00:00 | |
| DM0DOS-11 | 2026-09-03 07:04:37 | 49.07745 | 8.70206 | 131° | 104km/h | 8380m | -7.7m/s | -28.9°C | 46.8% | 356.2hPa | 2.6V | 02:43:00 | 02:34:43 | 00:00:00 | |
| DK7TD | 2026-09-03 07:04:35 | 49.07763 | 8.70176 | 131° | 104km/h | 8388m | -7.7m/s | -29°C | 50.6% | 355.7hPa | 2.6V | 02:43:01 | 02:34:42 | 00:00:00 | |
| BIOWL9-15 | 2026-09-03 07:04:33 | 49.07797 | 8.70115 | 130° | 104km/h | 8403m | -8.2m/s | -29.1°C | 42.8% | 355.0hPa | 2.5V | 00:00:00 | 00:00:00 | 00:00:00 | |
| DM0DOS-11 | 2026-09-03 07:04:31 | 49.07917 | 8.69901 | 130° | 104km/h | 8460m | -8.4m/s | -29.5°C | 44% | 352.2hPa | 2.5V | 02:43:10 | 02:34:33 | 00:00:00 | |
| DK7TD | 2026-09-03 07:04:24 | 49.07952 | 8.69840 | 130° | 104km/h | 8477m | -8.5m/s | -29.6°C | 45.4% | 351.4hPa | 2.6V | 02:43:52 | 02:34:31 | 00:00:00 | |
| DF7PN | 2026-09-03 07:04:24 | 49.07969 | 8.69810 | 130° | 102km/h | 8485m | -8.4m/s | -29.6°C | 37.5% | 351.0hPa | 2.6V | 00:00:00 | 00:00:00 | 00:00:00 | |
| NBG1-10 | 2026-09-03 07:04:21 | 49.08003 | 8.69749 | 131° | 115km/h | 8502m | -8.4m/s | -29.6°C | 40.7% | 350.1hPa | 2.6V | 00:00:00 | 02:34:28 | 00:00:00 | |
| DB0ND-19 | 2026-09-03 07:04:19 | 49.08037 | 8.69687 | 130° | 102km/h | 8518m | -8.3m/s | -29.8°C | 38.5% | 349.4hPa | 2.6V | 00:00:00 | 00:00:00 | 00:00:00 | |
| DM0DOS-11 | 2026-09-03 07:04:17 | 49.08088 | 8.69596 | 130° | 102km/h | 8543m | -8.3m/s | -30°C | 43.3% | 348.3hPa | 2.6V | 02:43:20 | 02:34:23 | 00:00:00 | |
| DK7TD | 2026-09-03 07:04:13 | 49.08138 | 8.69505 | 129° | 100km/h | 8568m | -8.3m/s | -30.3°C | 48.9% | 347.1hPa | 2.5V | 02:43:52 | 02:34:20 | 00:00:00 | |
| DK7TD | 2026-09-03 07:04:02 | 49.08318 | 8.69171 | 130° | 104km/h | 8656m | -8.4m/s | -31.1°C | 51.4% | 342.8hPa | 2.5V | 02:43:52 | 02:34:09 | 00:00:00 | |
| DK7TD | 2026-09-03 07:03:51 | 49.08505 | 8.68829 | 130° | 108km/h | 8746m | -8.5m/s | -31.8°C | 53.8% | 338.5hPa | 2.5V | 02:43:52 | 02:33:58 | 00:00:00 | |
| DB0ND-19 | 2026-09-03 07:03:48 | 49.08556 | 8.68733 | 128° | 108km/h | 8770m | -8.4m/s | -32.0°C | 46.5% | 337.3hPa | 2.5V | 00:00:00 | 00:00:00 | 00:00:00 | |
| DK7TD | 2026-09-03 07:03:41 | 49.08677 | 8.68506 | 129° | 110km/h | 8828m | -8.4m/s | -32.5°C | 56.3% | 334.5hPa | 2.5V | 02:44:43 | 02:33:48 | 00:00:00 | |
| DM0DOS-11 | 2026-09-03 07:03:37 | 49.08765 | 8.68341 | 128° | 111km/h | 8870m | -8.3m/s | -32.9°C | 53.7% | 332.6hPa | 2.6V | 02:44:00 | 02:33:43 | 00:00:00 | |
| DO3MHA-11 | 2026-09-03 07:03:36 | 49.08765 | 8.68341 | 129° | 113km/h | 8870m | -8.3m/s | -32.9°C | 53.7% | 332.6hPa | 2.5V | 00:00:00 | 02:33:43 | 00:00:00 | |
| DM7RM-13 | 2026-09-03 07:03:35 | 49.08765 | 8.68341 | 130° | 111km/h | 8870m | -8.4m/s | -32.9°C | 49.4% | 332.6hPa | 2.5V | 02:44:00 | 00:00:00 | 00:00:00 | |
| SFWM-10 | 2026-09-03 07:03:32 | 49.08819 | 8.68241 | 130° | 113km/h | 8895m | -8.2m/s | -33.1°C | 49.7% | 331.4hPa | 2.5V | 00:00:00 | 00:00:00 | 00:00:00 | |
| DM0DOS-11 | 2026-09-03 07:03:31 | 49.08947 | 8.68002 | 129° | 117km/h | 8953m | -8.3m/s | -33.6°C | 55.7% | 328.7hPa | 2.5V | 02:44:10 | 02:33:33 | 00:00:00 | |
| DK7TD | 2026-09-03 07:03:31 | 49.08855 | 8.68174 | 130° | 115km/h | 8912m | -8.4m/s | -33.3°C | 58% | 330.6hPa | 2.6V | 02:44:43 | 02:33:38 | 00:00:00 | |
| DK7TD | 2026-09-03 07:03:20 | 49.09060 | 8.67792 | 129° | 117km/h | 9002m | -8.1m/s | -34°C | 59.8% | 326.5hPa | 2.5V | 02:44:43 | 02:33:27 | 00:00:00 | |
| DM0DOS-11 | 2026-09-03 07:03:17 | 49.09137 | 8.67649 | 129° | 122km/h | 9034m | -7.9m/s | -34.3°C | 57% | 324.9hPa | 2.6V | 02:44:20 | 02:33:23 | 00:00:00 | |
| DO3MHA-11 | 2026-09-03 07:03:16 | 49.09137 | 8.67649 | 130° | 120km/h | 9034m | -7.9m/s | -34.3°C | 57.0% | 324.9hPa | 2.6V | 02:44:00 | 02:33:23 | 00:00:00 | |
| DM7RM-13 | 2026-09-03 07:03:15 | 49.09137 | 8.67649 | 130° | 122km/h | 9034m | -7.9m/s | -34.3°C | 52.3% | 324.9hPa | 2.5V | 02:44:00 | 00:00:00 | 00:00:00 | |
| DK5PH-5 | 2026-09-03 07:03:14 | 49.09175 | 8.67577 | 129° | 120km/h | 9050m | -8.2m/s | -34.4°C | 57.4% | 324.1hPa | 2.5V | 02:44:00 | 02:33:21 | 00:00:00 | |
| BIOWL7-15 | 2026-09-03 07:03:13 | 49.09175 | 8.67577 | 130° | 119km/h | 9050m | -8.3m/s | -34.5°C | 52.6% | 324.2hPa | 2.6V | 00:00:00 | 00:00:00 | 00:00:00 | |
| DM0DOS-11 | 2026-09-03 07:03:11 | 49.09332 | 8.67287 | 129° | 120km/h | 9117m | -8.3m/s | -35.1°C | 56.4% | 321hPa | 2.6V | 02:44:30 | 02:33:13 | 00:00:00 | |
| DK7TD | 2026-09-03 07:03:09 | 49.09273 | 8.67396 | 130° | 122km/h | 9092m | -8.1m/s | -34.9°C | 60.3% | 322.3hPa | 2.5V | 02:44:43 | 02:33:16 | 00:00:00 | |
| DK7TD | 2026-09-03 07:02:58 | 49.09488 | 8.66999 | 129° | 122km/h | 9185m | -8.6m/s | -35.6°C | 58.6% | 318hPa | 2.5V | 02:44:43 | 02:33:05 | 00:00:00 | |
| DK7TD | 2026-09-03 07:02:48 | 49.09679 | 8.66640 | 129° | 120km/h | 9271m | -9m/s | -36.4°C | 59.2% | 314.1hPa | 2.5V | 02:45:34 | 02:32:55 | 00:00:00 | |
| DB0ND-19 | 2026-09-03 07:02:46 | 49.09717 | 8.66568 | 128° | 117km/h | 9288m | -8.9m/s | -36.5°C | 50.7% | 313.3hPa | 2.5V | 00:00:00 | 00:00:00 | 00:00:00 | |
| DK7TD | 2026-09-03 07:02:37 | 49.09889 | 8.66245 | 129° | 120km/h | 9368m | -8.5m/s | -37.3°C | 57.4% | 309.7hPa | 2.5V | 02:45:34 | 02:32:44 | 00:00:00 | |
| DO3MHA-11 | 2026-09-03 07:02:36 | 49.09908 | 8.66209 | 129° | 122km/h | 9377m | -8.4m/s | -37.3°C | 54.0% | 309.3hPa | 2.5V | 00:00:00 | 02:32:43 | 00:00:00 | |
| CB1BUN | 2026-09-03 07:02:35 | 49.09927 | 8.66172 | 130° | 122km/h | 9385m | -8.5m/s | -37.4°C | 48.4% | 308.9hPa | 2.5V | 02:45:00 | 00:00:00 | 00:00:00 | |
| DM7RM-13 | 2026-09-03 07:02:34 | 49.09927 | 8.66172 | 130° | 122km/h | 9385m | -8.5m/s | -37.4°C | 48.4% | 308.9hPa | 2.5V | 02:45:00 | 00:00:00 | 00:00:00 | |
| DM0DOS-11 | 2026-09-03 07:02:33 | 49.10064 | 8.65920 | 130° | 122km/h | 9445m | -9.1m/s | -37.9°C | 53.7% | 306.2hPa | 2.5V | 02:45:08 | 02:32:35 | 00:00:00 | |
| DK7TD | 2026-09-03 07:02:27 | 49.10084 | 8.65883 | 130° | 124km/h | 9454m | -9m/s | -38°C | 57.3% | 305.9hPa | 2.5V | 02:45:34 | 02:32:34 | 00:00:00 | |
| DO3MHA-11 | 2026-09-03 07:02:26 | 49.10104 | 8.65846 | 130° | 124km/h | 9463m | -8.6m/s | -38.0°C | 54.6% | 305.4hPa | 2.6V | 00:00:00 | 02:32:33 | 00:00:00 | |
| SFWM-10 | 2026-09-03 07:02:25 | 49.10104 | 8.65846 | 130° | 124km/h | 9463m | -8.6m/s | -38.1°C | 49.4% | 305.5hPa | 2.6V | 00:00:00 | 00:00:00 | 00:00:00 | |
| DB0UT-9 | 2026-09-03 07:02:24 | 49.10124 | 8.65810 | 130° | 124km/h | 9471m | -8.5m/s | -38.2°C | 49.8% | 305.1hPa | 2.6V | 02:45:00 | 00:00:00 | 00:00:00 | |
| DM0DOS-11 | 2026-09-03 07:02:23 | 49.10263 | 8.65550 | 129° | 126km/h | 9531m | -8.9m/s | -38.7°C | 58.8% | 302.4hPa | 2.6V | 02:45:18 | 02:32:25 | 00:00:00 | |
| DK7TD | 2026-09-03 07:02:17 | 49.10283 | 8.65512 | 129° | 126km/h | 9539m | -8.6m/s | -38.8°C | 61.3% | 302.1hPa | 2.5V | 02:45:34 | 02:32:24 | 00:00:00 | |
| DO3MHA-11 | 2026-09-03 07:02:16 | 49.10303 | 8.65475 | 129° | 124km/h | 9548m | -8.5m/s | -38.9°C | 58.9% | 301.6hPa | 2.5V | 02:45:00 | 02:32:23 | 00:00:00 | |
| DK5PH-5 | 2026-09-03 07:02:14 | 49.10343 | 8.65400 | 130° | 126km/h | 9566m | -8.9m/s | -39.0°C | 58.2% | 300.8hPa | 2.6V | 00:00:00 | 02:32:21 | 00:00:00 | |
| DM0DOS-11 | 2026-09-03 07:02:13 | 49.10461 | 8.65176 | 128° | 124km/h | 9618m | -8.6m/s | -39.4°C | 52.5% | 298.6hPa | 2.6V | 02:45:28 | 02:32:15 | 00:00:00 | |
| DK7TD | 2026-09-03 07:02:07 | 49.10481 | 8.65139 | 129° | 122km/h | 9626m | -8.7m/s | -39.5°C | 55.1% | 298.2hPa | 2.6V | 02:45:34 | 02:32:14 | 00:00:00 | |
| DO3MHA-11 | 2026-09-03 07:02:06 | 49.10500 | 8.65101 | 128° | 126km/h | 9635m | -8.6m/s | -39.5°C | 52.5% | 297.8hPa | 2.5V | 00:00:00 | 02:32:13 | 00:00:00 | |
| HEMX73-11 | 2026-09-03 07:02:05 | 49.10500 | 8.65101 | 129° | 122km/h | 9635m | -8.6m/s | -39.6°C | 47.1% | 297.8hPa | 2.5V | 02:45:00 | 00:00:00 | 00:00:00 | |
| DM0DOS-11 | 2026-09-03 07:02:03 | 49.10657 | 8.64796 | 127° | 126km/h | 9705m | -9.2m/s | -40.2°C | 52.4% | 294.8hPa | 2.5V | 02:45:38 | 02:32:05 | 00:00:00 | |
| DK7TD | 2026-09-03 07:01:56 | 49.10696 | 8.64719 | 128° | 126km/h | 9722m | -8.7m/s | -40.4°C | 54.7% | 294hPa | 2.6V | 02:46:25 | 02:32:03 | 00:00:00 | |
| DO3MHA-11 | 2026-09-03 07:01:56 | 49.10696 | 8.64719 | 128° | 126km/h | 9722m | -8.6m/s | -40.4°C | 52.3% | 294.0hPa | 2.5V | 00:00:00 | 02:32:03 | 00:00:00 | |
| NBG1-10 | 2026-09-03 07:01:55 | 49.10715 | 8.64681 | 128° | 128km/h | 9731m | -8.8m/s | -40.4°C | 52.1% | 293.6hPa | 2.5V | 02:45:00 | 02:32:02 | 00:00:00 | |
| DM0DOS-11 | 2026-09-03 07:01:53 | 49.10870 | 8.64376 | 128° | 126km/h | 9801m | -9.3m/s | -41°C | 50.7% | 290.7hPa | 2.5V | 02:45:49 | 02:31:54 | 00:00:00 | |
| DK7TD | 2026-09-03 07:01:46 | 49.10890 | 8.64337 | 129° | 128km/h | 9810m | -9.2m/s | -41.1°C | 52.9% | 290.3hPa | 2.6V | 02:46:25 | 02:31:53 | 00:00:00 | |
| DO3MHA-11 | 2026-09-03 07:01:46 | 49.10890 | 8.64337 | 129° | 128km/h | 9810m | -9.2m/s | -41.1°C | 50.2% | 290.2hPa | 2.6V | 02:45:00 | 02:31:53 | 00:00:00 | |
| DK5PH-5 | 2026-09-03 07:01:44 | 49.10930 | 8.64260 | 129° | 128km/h | 9828m | -8.6m/s | -41.2°C | 49.6% | 289.5hPa | 2.5V | 02:45:00 | 02:31:51 | 00:00:00 | |
| DM0DOS-11 | 2026-09-03 07:01:42 | 49.11049 | 8.64030 | 128° | 128km/h | 9881m | -8.7m/s | -41.7°C | 50.1% | 287.3hPa | 2.5V | 02:45:58 | 02:31:45 | 00:00:00 | |
| DK7TD | 2026-09-03 07:01:36 | 49.11089 | 8.63952 | 128° | 126km/h | 9898m | -8.8m/s | -41.9°C | 53.6% | 286.5hPa | 2.5V | 02:46:25 | 02:31:43 | 00:00:00 | |
| DO3MHA-11 | 2026-09-03 07:01:36 | 49.11089 | 8.63952 | 129° | 128km/h | 9899m | -8.8m/s | -41.9°C | 50.9% | 286.5hPa | 2.6V | 00:00:00 | 02:31:43 | 00:00:00 | |
| SFWM-10 | 2026-09-03 07:01:35 | 49.11089 | 8.63952 | 129° | 126km/h | 9899m | -8.8m/s | -41.9°C | 45.2% | 286.5hPa | 2.6V | 02:46:00 | 00:00:00 | 00:00:00 | |
| CB1BUN | 2026-09-03 07:01:33 | 49.11129 | 8.63875 | 129° | 128km/h | 9916m | -9.4m/s | -42.1°C | 46.0% | 285.8hPa | 2.6V | 02:46:00 | 00:00:00 | 00:00:00 | |
| DM0DOS-11 | 2026-09-03 07:01:32 | 49.11250 | 8.63640 | 128° | 128km/h | 9970m | -8.7m/s | -42.6°C | 54.1% | 283.6hPa | 2.6V | 02:46:08 | 02:31:35 | 00:00:00 | |
| DK7TD | 2026-09-03 07:01:25 | 49.11311 | 8.63524 | 129° | 128km/h | 9996m | -9m/s | -42.8°C | 57.9% | 282.5hPa | 2.5V | 02:46:25 | 02:31:32 | 00:00:00 | |
| HEMX73-11 | 2026-09-03 07:01:23 | 49.11331 | 8.63486 | 130° | 130km/h | 10005m | -8.6m/s | -42.9°C | 49.6% | 282.1hPa | 2.5V | 02:46:00 | 00:00:00 | 00:00:00 | |
| DM0DOS-11 | 2026-09-03 07:01:22 | 49.11473 | 8.63217 | 128° | 126km/h | 10066m | -9m/s | -43.5°C | 54.7% | 279.6hPa | 2.5V | 02:46:19 | 02:31:24 | 00:00:00 | |
| DK7TD | 2026-09-03 07:01:14 | 49.11532 | 8.63104 | 129° | 126km/h | 10093m | -9.5m/s | -43.7°C | 55.6% | 278.4hPa | 2.6V | 02:46:25 | 02:31:21 | 00:00:00 | |
| DK5PH-5 | 2026-09-03 07:01:14 | 49.11532 | 8.63104 | 129° | 124km/h | 10093m | -9.4m/s | -43.6°C | 52.8% | 278.3hPa | 2.5V | 00:00:00 | 02:31:21 | 00:00:00 | |
| DB0ND-19 | 2026-09-03 07:01:13 | 49.11572 | 8.63028 | 128° | 126km/h | 10111m | -9.0m/s | -43.8°C | 46.3% | 277.7hPa | 2.5V | 00:00:00 | 00:00:00 | 00:00:00 | |
| DM0DOS-11 | 2026-09-03 07:01:12 | 49.11669 | 8.62839 | 128° | 124km/h | 10155m | -9.2m/s | -44.2°C | 52.4% | 275.9hPa | 2.5V | 02:46:29 | 02:31:14 | 00:00:00 | |
| DK7TD | 2026-09-03 07:01:03 | 49.11748 | 8.62690 | 129° | 124km/h | 10192m | -8.8m/s | -44.5°C | 56.4% | 274.4hPa | 2.6V | 02:47:16 | 02:31:10 | 00:00:00 | |
| DM0DOS-11 | 2026-09-03 07:01:02 | 49.11867 | 8.62466 | 129° | 126km/h | 10246m | -9.2m/s | -44.9°C | 56.2% | 272.2hPa | 2.6V | 02:46:39 | 02:31:04 | 00:00:00 | |
| HARRO8 | 2026-09-03 07:01:00 | 49.11807 | 8.62578 | 129° | 124km/h | 10218m | -9.0m/s | -44.7°C | 47.1% | 273.4hPa | 2.6V | 00:00:00 | 00:00:00 | 00:00:00 | |
| DL0LBS | 2026-09-03 07:00:59 | 49.11807 | 8.62578 | 130° | 126km/h | 10218m | -9.0m/s | -44.7°C | 47.1% | 273.4hPa | 2.6V | 02:47:00 | 00:00:00 | 00:00:00 | |
| DO3MHA-11 | 2026-09-03 07:00:56 | 49.11886 | 8.62429 | 130° | 124km/h | 10255m | -9.2m/s | -45.0°C | 57.5% | 271.7hPa | 2.6V | 00:00:00 | 02:31:03 | 00:00:00 | |
| DM0DOS-11 | 2026-09-03 07:00:52 | 49.12067 | 8.62094 | 130° | 126km/h | 10337m | -9.3m/s | -45.8°C | 63% | 268.5hPa | 2.6V | 02:46:49 | 02:30:54 | 00:00:00 | |
| DK7TD | 2026-09-03 07:00:46 | 49.12088 | 8.62057 | 130° | 126km/h | 10346m | -9m/s | -45.9°C | 66.8% | 268.1hPa | 2.6V | 02:47:16 | 02:30:53 | 00:00:00 | |
| DO3MHA-11 | 2026-09-03 07:00:46 | 49.12088 | 8.62057 | 130° | 124km/h | 10347m | -9.0m/s | -45.9°C | 63.6% | 268.0hPa | 2.6V | 02:46:00 | 02:30:53 | 00:00:00 | |
| DK5PH-5 | 2026-09-03 07:00:44 | 49.12128 | 8.61984 | 131° | 124km/h | 10364m | -9.2m/s | -46.0°C | 64.6% | 267.3hPa | 2.5V | 00:00:00 | 02:30:51 | 00:00:00 | |
| DM0DOS-11 | 2026-09-03 07:00:42 | 49.12270 | 8.61728 | 130° | 122km/h | 10427m | -9.1m/s | -46.7°C | 69.2% | 264.8hPa | 2.5V | 02:46:59 | 02:30:44 | 00:00:00 | |
| DB0ND-19 | 2026-09-03 07:00:42 | 49.12168 | 8.61910 | 130° | 124km/h | 10382m | -9.1m/s | -46.3°C | 58.4% | 266.6hPa | 2.6V | 00:00:00 | 00:00:00 | 00:00:00 | |
| DB0UT-9 | 2026-09-03 07:00:41 | 49.12168 | 8.61910 | 131° | 124km/h | 10382m | -9.1m/s | -46.3°C | 58.4% | 266.6hPa | 2.6V | 02:47:00 | 00:00:00 | 00:00:00 | |
| DF1GD-15 | 2026-09-03 07:00:40 | 49.12188 | 8.61873 | 131° | 122km/h | 10391m | -9.2m/s | -46.3°C | 59.0% | 266.2hPa | 2.6V | 02:47:00 | 00:00:00 | 00:00:00 | |
| DB0UT-7 | 2026-09-03 07:00:38 | 49.12249 | 8.61764 | 131° | 126km/h | 10418m | -8.8m/s | -46.6°C | 68.6% | 265.1hPa | 2.6V | 02:46:00 | 02:30:45 | 00:00:00 | |
| DO3MHA-11 | 2026-09-03 07:00:36 | 49.12290 | 8.61691 | 131° | 126km/h | 10436m | -9.3m/s | -46.7°C | 69.8% | 264.4hPa | 2.5V | 00:00:00 | 02:30:43 | 00:00:00 | |
| DM0DOS-11 | 2026-09-03 07:00:32 | 49.12479 | 8.61361 | 131° | 126km/h | 10520m | -9.2m/s | -47.5°C | 73.9% | 261.2hPa | 2.5V | 02:47:09 | 02:30:34 | 00:00:00 | |
| DK7TD | 2026-09-03 07:00:31 | 49.12394 | 8.61508 | 130° | 124km/h | 10482m | -9.4m/s | -47.2°C | 75.2% | 262.6hPa | 2.5V | 02:47:16 | 02:30:38 | 00:00:00 | |
| DK7TD | 2026-09-03 07:00:20 | 49.12625 | 8.61106 | 131° | 124km/h | 10583m | -9m/s | -48.1°C | 79.3% | 258.6hPa | 2.6V | 02:47:16 | 02:30:27 | 00:00:00 | |
| DM0DOS-11 | 2026-09-03 07:00:17 | 49.12688 | 8.60997 | 131° | 124km/h | 10609m | -9.1m/s | -48.4°C | 77.1% | 257.6hPa | 2.5V | 02:47:19 | 02:30:24 | 00:00:00 | |
| DO3MHA-11 | 2026-09-03 07:00:16 | 49.12708 | 8.60961 | 132° | 126km/h | 10618m | -9.1m/s | -48.4°C | 77.2% | 257.2hPa | 2.5V | 02:47:00 | 02:30:23 | 00:00:00 | |
| DF7PN | 2026-09-03 07:00:15 | 49.12730 | 8.60925 | 131° | 124km/h | 10627m | -9.2m/s | -48.5°C | 68.3% | 256.9hPa | 2.6V | 00:00:00 | 00:00:00 | 00:00:00 | |
| DK5PH-5 | 2026-09-03 07:00:14 | 49.12751 | 8.60890 | 132° | 126km/h | 10636m | -9.1m/s | -48.6°C | 77.5% | 256.5hPa | 2.6V | 02:47:00 | 02:30:21 | 00:00:00 | |
| DM0DOS-11 | 2026-09-03 07:00:12 | 49.12900 | 8.60637 | 131° | 124km/h | 10699m | -8.9m/s | -49.2°C | 77.8% | 254.1hPa | 2.6V | 02:47:29 | 02:30:14 | 00:00:00 | |
| DK7TD | 2026-09-03 07:00:09 | 49.12857 | 8.60709 | 132° | 128km/h | 10681m | -9.2m/s | -49°C | 80.5% | 254.8hPa | 2.5V | 02:48:07 | 02:30:16 | 00:00:00 | |
| DB0UT-7 | 2026-09-03 07:00:08 | 49.12879 | 8.60673 | 132° | 128km/h | 10690m | -9.2m/s | -49.1°C | 77.9% | 254.3hPa | 2.5V | 00:00:00 | 00:00:00 | 00:00:00 | |
| DN1GJH-1 | 2026-09-03 07:00:07 | 49.12879 | 8.60673 | 133° | 126km/h | 10690m | -9.2m/s | -49.1°C | 68.7% | 254.4hPa | 2.5V | 02:48:00 | 00:00:00 | 00:00:00 | |
| DO3MHA-11 | 2026-09-03 07:00:06 | 49.12921 | 8.60601 | 133° | 126km/h | 10708m | -8.8m/s | -49.2°C | 77.8% | 253.6hPa | 2.5V | 00:00:00 | 02:30:13 | 00:00:00 | |
| DM0DOS-11 | 2026-09-03 07:00:02 | 49.13115 | 8.60280 | 133° | 126km/h | 10790m | -9.1m/s | -50°C | 77% | 250.5hPa | 2.5V | 02:47:39 | 02:30:04 | 00:00:00 | |
| DK7TD | 2026-09-03 06:59:58 | 49.13093 | 8.60315 | 133° | 128km/h | 10781m | -9.1m/s | -50°C | 79.3% | 250.8hPa | 2.5V | 02:48:07 | 02:30:05 | 00:00:00 | |
| DF3TZ-5 | 2026-09-03 06:59:54 | 49.13204 | 8.60137 | 133° | 126km/h | 10828m | -9.4m/s | -50.4°C | 66.3% | 249.1hPa | 2.5V | 00:00:00 | 00:00:00 | 00:00:00 | |
| DM0DOS-11 | 2026-09-03 06:59:52 | 49.13339 | 8.59927 | 134° | 128km/h | 10885m | -9.7m/s | -50.9°C | 73.3% | 247hPa | 2.5V | 02:47:49 | 02:29:54 | 00:00:00 | |
| DK7TD | 2026-09-03 06:59:48 | 49.13316 | 8.59962 | 135° | 126km/h | 10875m | -9.5m/s | -50.8°C | 76.4% | 247.4hPa | 2.6V | 02:48:07 | 02:29:55 | 00:00:00 | |
| DL8DAS-14 | 2026-09-03 06:59:47 | 49.13386 | 8.59856 | 134° | 130km/h | 10904m | -9.1m/s | -51.0°C | 62.7% | 246.3hPa | 2.5V | 00:00:00 | 00:00:00 | 00:00:00 | |
| DO3MHA-11 | 2026-09-03 06:59:46 | 49.13362 | 8.59892 | 136° | 133km/h | 10895m | -9.6m/s | -50.9°C | 72.8% | 246.6hPa | 2.5V | 02:47:00 | 02:29:53 | 00:00:00 | |
| DK5PH-5 | 2026-09-03 06:59:44 | 49.13409 | 8.59821 | 135° | 137km/h | 10914m | -9.3m/s | -51.0°C | 71.5% | 245.9hPa | 2.5V | 00:00:00 | 02:29:51 | 00:00:00 | |
| DM0DOS-11 | 2026-09-03 06:59:42 | 49.13575 | 8.59567 | 134° | 135km/h | 10981m | -9.9m/s | -51.6°C | 70.6% | 243.4hPa | 2.5V | 02:47:59 | 02:29:44 | 00:00:00 | |
| DK7TD | 2026-09-03 06:59:38 | 49.13551 | 8.59604 | 134° | 133km/h | 10972m | -9.9m/s | -51.6°C | 74% | 243.8hPa | 2.5V | 02:48:07 | 02:29:45 | 00:00:00 | |
| DB0UT-7 | 2026-09-03 06:59:38 | 49.13551 | 8.59604 | 134° | 139km/h | 10972m | -9.8m/s | -51.5°C | 70.6% | 243.7hPa | 2.5V | 00:00:00 | 02:29:45 | 00:00:00 | |
| DO3MHA-11 | 2026-09-03 06:59:36 | 49.13599 | 8.59530 | 135° | 135km/h | 10991m | -9.6m/s | -51.7°C | 70.9% | 243.0hPa | 2.5V | 00:00:00 | 02:29:43 | 00:00:00 | |
| DM0DOS-11 | 2026-09-03 06:59:32 | 49.13816 | 8.59196 | 135° | 137km/h | 11079m | -10m/s | -52.6°C | 74.1% | 239.7hPa | 2.5V | 02:48:09 | 02:29:34 | 00:00:00 | |
| DK7TD | 2026-09-03 06:59:28 | 49.13792 | 8.59233 | 135° | 137km/h | 11070m | -9.8m/s | -52.5°C | 76.1% | 240.1hPa | 2.5V | 02:48:58 | 02:29:35 | 00:00:00 | |
| HARRO8 | 2026-09-03 06:59:27 | 49.13816 | 8.59196 | 135° | 135km/h | 11079m | -10.0m/s | -52.6°C | 64.3% | 239.7hPa | 2.6V | 00:00:00 | 00:00:00 | 00:00:00 | |
| DO3MHA-11 | 2026-09-03 06:59:26 | 49.13841 | 8.59159 | 136° | 139km/h | 11090m | -9.7m/s | -52.6°C | 74.3% | 239.3hPa | 2.6V | 00:00:00 | 02:29:33 | 00:00:00 | |
| DN1GJH-1 | 2026-09-03 06:59:25 | 49.13841 | 8.59159 | 136° | 135km/h | 11090m | -9.8m/s | -52.7°C | 64.5% | 239.4hPa | 2.6V | 02:48:00 | 00:00:00 | 00:00:00 | |
| DF3TZ-5 | 2026-09-03 06:59:23 | 49.13942 | 8.59011 | 136° | 139km/h | 11128m | -10.0m/s | -53.1°C | 65.9% | 237.9hPa | 2.6V | 00:00:00 | 00:00:00 | 00:00:00 | |
| DM0DOS-11 | 2026-09-03 06:59:22 | 49.14071 | 8.58827 | 137° | 141km/h | 11177m | -9.8m/s | -53.4°C | 77.7% | 236.2hPa | 2.6V | 02:48:19 | 02:29:24 | 00:00:00 | |
| DK7TD | 2026-09-03 06:59:17 | 49.14071 | 8.58827 | 138° | 141km/h | 11177m | -9.8m/s | -53.4°C | 79.2% | 236.2hPa | 2.6V | 02:48:58 | 02:29:24 | 00:00:00 | |
| AZAK | 2026-09-03 06:59:16 | 49.14097 | 8.58790 | 138° | 141km/h | 11187m | -10.0m/s | -53.5°C | 67.2% | 235.8hPa | 2.5V | 02:48:00 | 00:00:00 | 00:00:00 | |
| DK5PH-5 | 2026-09-03 06:59:14 | 49.14149 | 8.58717 | 138° | 141km/h | 11206m | -9.7m/s | -53.7°C | 77.2% | 235.1hPa | 2.5V | 00:00:00 | 02:29:21 | 00:00:00 | |
| DF7PN | 2026-09-03 06:59:13 | 49.14175 | 8.58680 | 137° | 139km/h | 11216m | -10.0m/s | -53.8°C | 66.3% | 234.7hPa | 2.5V | 00:00:00 | 00:00:00 | 00:00:00 | |
| DM0DOS-11 | 2026-09-03 06:59:12 | 49.14330 | 8.58459 | 137° | 141km/h | 11274m | -9.8m/s | -54.3°C | 74.9% | 232.7hPa | 2.5V | 02:48:29 | 02:29:14 | 00:00:00 | |
| DK7TD | 2026-09-03 06:59:06 | 49.14356 | 8.58422 | 137° | 142km/h | 11284m | -9.6m/s | -54.4°C | 75.5% | 232.3hPa | 2.5V | 02:48:58 | 02:29:13 | 00:00:00 | |
| DO3MHA-11 | 2026-09-03 06:59:06 | 49.14356 | 8.58422 | 137° | 141km/h | 11284m | -9.6m/s | -54.3°C | 74.8% | 232.2hPa | 2.5V | 00:00:00 | 02:29:13 | 00:00:00 | |
| NBG1-10 | 2026-09-03 06:59:05 | 49.14382 | 8.58384 | 137° | 142km/h | 11294m | -9.5m/s | -54.4°C | 74.4% | 231.9hPa | 2.5V | 00:00:00 | 02:29:12 | 00:00:00 | |
| DM0DOS-11 | 2026-09-03 06:59:02 | 49.14589 | 8.58084 | 136° | 142km/h | 11372m | -9.9m/s | -55.1°C | 70.6% | 229.1hPa | 2.5V | 02:48:39 | 02:29:04 | 00:00:00 | |
| DK7TD | 2026-09-03 06:58:56 | 49.14614 | 8.58047 | 136° | 141km/h | 11382m | -9.9m/s | -55.2°C | 70.3% | 228.7hPa | 2.5V | 02:48:58 | 02:29:03 | 00:00:00 | |
| DO3MHA-11 | 2026-09-03 06:58:56 | 49.14614 | 8.58047 | 137° | 142km/h | 11382m | -9.9m/s | -55.1°C | 69.9% | 228.7hPa | 2.6V | 00:00:00 | 02:29:03 | 00:00:00 | |
| AZAK | 2026-09-03 06:58:55 | 49.14614 | 8.58047 | 137° | 141km/h | 11382m | -9.9m/s | -55.2°C | 59.7% | 228.7hPa | 2.6V | 02:48:00 | 00:00:00 | 00:00:00 | |
| BIOWL7-15 | 2026-09-03 06:58:54 | 49.14640 | 8.58009 | 138° | 142km/h | 11392m | -10.0m/s | -55.2°C | 59.3% | 228.4hPa | 2.6V | 00:00:00 | 00:00:00 | 00:00:00 | |
| DM0DOS-11 | 2026-09-03 06:58:52 | 49.14849 | 8.57706 | 136° | 141km/h | 11471m | -10.1m/s | -55.8°C | 66.5% | 225.6hPa | 2.6V | 02:48:49 | 02:28:54 | 00:00:00 | |
| DK7TD | 2026-09-03 06:58:45 | 49.14902 | 8.57630 | 137° | 142km/h | 11491m | -10.2m/s | -56°C | 65.4% | 224.9hPa | 2.5V | 02:48:58 | 02:28:52 | 00:00:00 | |
| DK5PH-5 | 2026-09-03 06:58:44 | 49.14928 | 8.57592 | 137° | 144km/h | 11501m | -10.1m/s | -56.0°C | 65.4% | 224.4hPa | 2.5V | 02:48:00 | 02:28:51 | 00:00:00 | |
| DM0DOS-11 | 2026-09-03 06:58:42 | 49.15114 | 8.57328 | 138° | 144km/h | 11571m | -10.1m/s | -56.5°C | 64.1% | 222.1hPa | 2.5V | 02:48:59 | 02:28:44 | 00:00:00 | |
| DK7TD | 2026-09-03 06:58:34 | 49.15197 | 8.57215 | 138° | 146km/h | 11601m | -10m/s | -56.6°C | 62.9% | 221hPa | 2.6V | 02:49:49 | 02:28:41 | 00:00:00 | |
| DK7TD | 2026-09-03 06:58:23 | 49.15504 | 8.56805 | 138° | 144km/h | 11713m | -9.8m/s | -57.2°C | 60.7% | 217.1hPa | 2.6V | 02:49:49 | 02:28:30 | 00:00:00 | |
| DK7TD | 2026-09-03 06:58:12 | 49.15782 | 8.56399 | 135° | 133km/h | 11822m | -10m/s | -57.4°C | 57.8% | 213.3hPa | 2.5V | 02:49:49 | 02:28:19 | 00:00:00 | |
| DF7PN | 2026-09-03 06:58:11 | 49.15806 | 8.56363 | 135° | 130km/h | 11831m | -10.2m/s | -57.5°C | 46.9% | 213.0hPa | 2.5V | 00:00:00 | 00:00:00 | 00:00:00 | |
| SFWM-10 | 2026-09-03 06:58:09 | 49.15829 | 8.56327 | 135° | 130km/h | 11842m | -9.8m/s | -57.6°C | 46.9% | 212.7hPa | 2.5V | 02:49:00 | 00:00:00 | 00:00:00 | |
| DB0UT-7 | 2026-09-03 06:58:08 | 49.15875 | 8.56256 | 135° | 124km/h | 11862m | -10.1m/s | -57.6°C | 56.2% | 211.9hPa | 2.5V | 00:00:00 | 00:00:00 | 00:00:00 | |
| DB0ND-19 | 2026-09-03 06:58:07 | 49.15921 | 8.56184 | 133° | 126km/h | 11881m | -10.0m/s | -57.9°C | 0% | 211.3hPa | 2.5V | 00:00:00 | 00:00:00 | 00:00:00 | |
| DO3MHA-11 | 2026-09-03 06:58:06 | 49.15921 | 8.56184 | 134° | 126km/h | 11881m | -9.9m/s | -57.8°C | 56.5% | 211.3hPa | 2.5V | 00:00:00 | 02:28:13 | 00:00:00 | |
| DN1GJH-1 | 2026-09-03 06:58:03 | 49.15965 | 8.56112 | 133° | 128km/h | 11902m | -10.2m/s | -57.9°C | 45.8% | 210.7hPa | 2.5V | 02:49:00 | 00:00:00 | 00:00:00 | |
| DM0DOS-11 | 2026-09-03 06:58:02 | 49.16113 | 8.55858 | 130° | 124km/h | 11973m | -10.3m/s | -58.5°C | 53.8% | 208.3hPa | 2.5V | 02:49:39 | 02:28:04 | 00:00:00 | |
| DK7TD | 2026-09-03 06:58:02 | 49.16008 | 8.56040 | 132° | 128km/h | 11922m | -10.3m/s | -58.1°C | 55.6% | 210hPa | 2.5V | 02:49:49 | 02:28:09 | 00:00:00 | |
| HARRO8 | 2026-09-03 06:57:54 | 49.16173 | 8.55747 | 128° | 122km/h | 12005m | -10.0m/s | -58.7°C | 42.9% | 207.3hPa | 2.6V | 00:00:00 | 00:00:00 | 00:00:00 | |
| DM0DOS-11 | 2026-09-03 06:57:52 | 49.16307 | 8.55486 | 127° | 122km/h | 12078m | -10.7m/s | -59.2°C | 49.2% | 204.9hPa | 2.6V | 02:49:49 | 02:27:54 | 00:00:00 | |
| DK7TD | 2026-09-03 06:57:52 | 49.16212 | 8.55673 | 129° | 124km/h | 12025m | -10.2m/s | -58.8°C | 51.8% | 206.6hPa | 2.5V | 02:49:49 | 02:27:59 | 00:00:00 | |
| BIOWL9-15 | 2026-09-03 06:57:50 | 49.16270 | 8.55561 | 127° | 122km/h | 12057m | -10.4m/s | -59.0°C | 40.9% | 205.5hPa | 2.6V | 00:00:00 | 00:00:00 | 00:00:00 | |
| DF3TZ-5 | 2026-09-03 06:57:49 | 49.16270 | 8.55561 | 127° | 122km/h | 12057m | -10.4m/s | -59.0°C | 40.9% | 205.5hPa | 2.6V | 00:00:00 | 00:00:00 | 00:00:00 | |
| DK7TD | 2026-09-03 06:57:41 | 49.16416 | 8.55260 | 125° | 122km/h | 12141m | -10.5m/s | -59.7°C | 46% | 202.8hPa | 2.6V | 02:50:40 | 02:27:48 | 00:00:00 | |
| DF7PN | 2026-09-03 06:57:40 | 49.16433 | 8.55222 | 125° | 119km/h | 12151m | -10.6m/s | -59.7°C | 37.2% | 202.5hPa | 2.6V | 00:00:00 | 00:00:00 | 00:00:00 | |
| DM0DOS-11 | 2026-09-03 06:57:37 | 49.16486 | 8.55109 | 124° | 120km/h | 12183m | -10.8m/s | -59.9°C | 46.2% | 201.4hPa | 2.6V | 02:49:59 | 02:27:44 | 00:00:00 | |
| DO3MHA-11 | 2026-09-03 06:57:36 | 49.16503 | 8.55071 | 125° | 126km/h | 12194m | -10.8m/s | -60.0°C | 46.3% | 201.1hPa | 2.5V | 00:00:00 | 02:27:43 | 00:00:00 | |
| HEMX73-11 | 2026-09-03 06:57:35 | 49.16503 | 8.55071 | 126° | 120km/h | 12194m | -10.9m/s | -60.0°C | 36.9% | 201.1hPa | 2.5V | 02:50:00 | 00:00:00 | 00:00:00 | |
| AZAK | 2026-09-03 06:57:33 | 49.16555 | 8.54954 | 124° | 122km/h | 12226m | -10.8m/s | -60.2°C | 36.8% | 200.1hPa | 2.5V | 02:50:00 | 00:00:00 | 00:00:00 | |
| DM0DOS-11 | 2026-09-03 06:57:32 | 49.16664 | 8.54708 | 124° | 131km/h | 12290m | -10.6m/s | -60.8°C | 44.9% | 198hPa | 2.5V | 02:50:09 | 02:27:34 | 00:00:00 | |
| DK7TD | 2026-09-03 06:57:31 | 49.16590 | 8.54874 | 124° | 128km/h | 12247m | -10.5m/s | -60.4°C | 41.5% | 199.4hPa | 2.6V | 02:50:40 | 02:27:38 | 00:00:00 | |
| CB1BUN | 2026-09-03 06:57:29 | 49.16608 | 8.54833 | 125° | 130km/h | 12258m | -10.4m/s | -60.5°C | 36.3% | 199.1hPa | 2.5V | 02:50:00 | 00:00:00 | 00:00:00 | |
| SFWM-10 | 2026-09-03 06:57:28 | 49.16627 | 8.54792 | 125° | 130km/h | 12269m | -10.9m/s | -60.6°C | 36.0% | 198.8hPa | 2.5V | 02:50:00 | 00:00:00 | 00:00:00 | |
| DO3MHA-11 | 2026-09-03 06:57:26 | 49.16682 | 8.54665 | 124° | 142km/h | 12301m | -10.3m/s | -60.8°C | 44.6% | 197.6hPa | 2.5V | 00:00:00 | 02:27:33 | 00:00:00 | |
| DM7RM-13 | 2026-09-03 06:57:25 | 49.16682 | 8.54665 | 125° | 133km/h | 12301m | -10.4m/s | -60.9°C | 35.0% | 197.7hPa | 2.5V | 02:50:00 | 00:00:00 | 00:00:00 | |
| HARRO8 | 2026-09-03 06:57:23 | 49.16740 | 8.54534 | 124° | 139km/h | 12333m | -10.8m/s | -60.9°C | 33.8% | 196.7hPa | 2.5V | 00:00:00 | 00:00:00 | 00:00:00 | |
| DM0DOS-11 | 2026-09-03 06:57:22 | 49.16865 | 8.54257 | 125° | 150km/h | 12396m | -10.5m/s | -59.5°C | 36.6% | 194.8hPa | 2.5V | 02:50:19 | 02:27:24 | 00:00:00 | |
| DK7TD | 2026-09-03 06:57:20 | 49.16801 | 8.54397 | 124° | 146km/h | 12365m | -10.3m/s | -60.3°C | 35.7% | 195.7hPa | 2.6V | 02:50:40 | 02:27:27 | 00:00:00 | |
| NBG1-10 | 2026-09-03 06:57:20 | 49.16801 | 8.54397 | 125° | 133km/h | 12365m | -10.2m/s | -60.2°C | 40.3% | 195.7hPa | 2.5V | 00:00:00 | 02:27:27 | 00:00:00 | |
| BIOWL9-15 | 2026-09-03 06:57:19 | 49.16843 | 8.54304 | 125° | 148km/h | 12386m | -10.3m/s | -59.8°C | 29.5% | 195.1hPa | 2.5V | 00:00:00 | 00:00:00 | 00:00:00 | |
| DF3TZ-5 | 2026-09-03 06:57:18 | 49.16843 | 8.54304 | 125° | 148km/h | 12386m | -10.3m/s | -59.8°C | 29.5% | 195.1hPa | 2.5V | 00:00:00 | 00:00:00 | 00:00:00 | |
| DO3MHA-11 | 2026-09-03 06:57:16 | 49.16887 | 8.54210 | 127° | 144km/h | 12407m | -10.5m/s | -59.3°C | 35.3% | 194.4hPa | 2.5V | 02:50:00 | 02:27:23 | 00:00:00 | |
| DF1GD-15 | 2026-09-03 06:57:15 | 49.16909 | 8.54164 | 127° | 148km/h | 12418m | -10.8m/s | -59.3°C | 27.0% | 194.1hPa | 2.6V | 02:50:00 | 00:00:00 | 00:00:00 | |
| DK5PH-5 | 2026-09-03 06:57:14 | 49.16932 | 8.54118 | 127° | 128km/h | 12429m | -10.6m/s | -59.3°C | 34.4% | 193.7hPa | 2.6V | 02:50:00 | 02:27:21 | 00:00:00 | |
| DM0DOS-11 | 2026-09-03 06:57:12 | 49.17087 | 8.53807 | 127° | 137km/h | 12503m | -10.6m/s | -58.9°C | 29.6% | 191.4hPa | 2.5V | 02:50:29 | 02:27:14 | 00:00:00 | |
| DK7TD | 2026-09-03 06:57:09 | 49.17044 | 8.53893 | 128° | 142km/h | 12481m | -10.7m/s | -59.1°C | 29.5% | 192.1hPa | 2.6V | 02:50:40 | 02:27:16 | 00:00:00 | |
| DB0UT-7 | 2026-09-03 06:57:08 | 49.17066 | 8.53850 | 128° | 120km/h | 12492m | -10.7m/s | -58.9°C | 30.3% | 191.7hPa | 2.6V | 00:00:00 | 00:00:00 | 00:00:00 | |
| DB0NH | 2026-09-03 06:57:07 | 49.17087 | 8.53807 | 128° | 122km/h | 12503m | -10.6m/s | -58.9°C | 29.6% | 191.4hPa | 2.6V | 00:00:00 | 02:27:14 | 00:00:00 | |
| DO3MHA-11 | 2026-09-03 06:57:06 | 49.17108 | 8.53765 | 127° | 130km/h | 12513m | -10.4m/s | -58.9°C | 29.0% | 191.1hPa | 2.6V | 00:00:00 | 02:27:13 | 00:00:00 | |
| DB0ND-19 | 2026-09-03 06:57:05 | 49.17148 | 8.53682 | 126° | 133km/h | 12534m | -10.7m/s | -59.0°C | 20.9% | 190.5hPa | 2.6V | 00:00:00 | 00:00:00 | 00:00:00 | |
| DM0DOS-11 | 2026-09-03 06:57:02 | 49.17279 | 8.53399 | 122° | 122km/h | 12613m | -11.7m/s | -57.9°C | 22.9% | 188.1hPa | 2.6V | 02:50:39 | 02:27:04 | 00:00:00 | |
| DK7TD | 2026-09-03 06:56:58 | 49.17262 | 8.53438 | 124° | 124km/h | 12601m | -11.5m/s | -58.2°C | 24.3% | 188.4hPa | 2.6V | 02:50:40 | 02:27:05 | 00:00:00 | |
| DO3MHA-11 | 2026-09-03 06:56:56 | 49.17295 | 8.53359 | 123° | 117km/h | 12625m | -11.2m/s | -58.0°C | 22.8% | 187.7hPa | 2.6V | 00:00:00 | 02:27:03 | 00:00:00 | |
| KANTATE | 2026-09-03 06:56:54 | 49.17312 | 8.53319 | 123° | 120km/h | 12636m | -11.5m/s | -58.2°C | 17.0% | 187.4hPa | 2.6V | 00:00:00 | 00:00:00 | 00:00:00 | |
| DF1GD-15 | 2026-09-03 06:56:53 | 49.17327 | 8.53280 | 123° | 119km/h | 12647m | -11.5m/s | -58.3°C | 16.8% | 187.0hPa | 2.6V | 02:51:00 | 00:00:00 | 00:00:00 | |
| DM0DOS-11 | 2026-09-03 06:56:52 | 49.17429 | 8.53011 | 117° | 115km/h | 12726m | -11m/s | -58.8°C | 21.6% | 184.7hPa | 2.6V | 02:50:49 | 02:26:54 | 00:00:00 | |
| DK7TD | 2026-09-03 06:56:48 | 49.17415 | 8.53050 | 118° | 113km/h | 12715m | -11.1m/s | -58.7°C | 21.9% | 185.1hPa | 2.5V | 02:52:22 | 02:26:55 | 00:00:00 | |
| DL9PN | 2026-09-03 06:56:48 | 49.17428 | 8.53011 | 117° | 113km/h | 12726m | -11.0m/s | -58.8°C | 15.7% | 184.7hPa | 2.6V | 00:00:00 | 00:00:00 | 00:00:00 | |
| NBG1-10 | 2026-09-03 06:56:47 | 49.17428 | 8.53011 | 118° | 124km/h | 12727m | -11.0m/s | -58.7°C | 21.6% | 184.6hPa | 2.6V | 00:00:00 | 02:26:54 | 00:00:00 | |
| DO3MHA-11 | 2026-09-03 06:56:46 | 49.17442 | 8.52972 | 118° | 113km/h | 12738m | -11.2m/s | -58.8°C | 21.4% | 184.4hPa | 2.6V | 02:50:00 | 02:26:53 | 00:00:00 | |
| DM7RM-13 | 2026-09-03 06:56:45 | 49.17442 | 8.52972 | 118° | 113km/h | 12738m | -11.3m/s | -58.8°C | 15.5% | 184.4hPa | 2.5V | 02:51:00 | 00:00:00 | 00:00:00 | |
| DK5PH-5 | 2026-09-03 06:56:44 | 49.17467 | 8.52894 | 116° | 119km/h | 12760m | -11.1m/s | -58.9°C | 20.8% | 183.7hPa | 2.5V | 00:00:00 | 02:26:51 | 00:00:00 | |
| DM0DOS-11 | 2026-09-03 06:56:42 | 49.17543 | 8.52616 | 111° | 113km/h | 12839m | -11.3m/s | -59.5°C | 19.6% | 181.5hPa | 2.5V | 02:50:59 | 02:26:44 | 00:00:00 | |
| DL8DAS-14 | 2026-09-03 06:56:41 | 49.17501 | 8.52776 | 113° | 111km/h | 12793m | -11.2m/s | -59.3°C | 14.5% | 182.8hPa | 2.5V | 00:00:00 | 00:00:00 | 00:00:00 | |
| DH7VM-15 | 2026-09-03 06:56:40 | 49.17501 | 8.52775 | 114° | 113km/h | 12794m | -11.2m/s | -59.3°C | 14.5% | 182.8hPa | 2.5V | 00:00:00 | 00:00:00 | 00:00:00 | |
| DB0UT-7 | 2026-09-03 06:56:38 | 49.17533 | 8.52656 | 111° | 122km/h | 12828m | -11.3m/s | -59.4°C | 19.7% | 181.8hPa | 2.5V | 00:00:00 | 02:26:45 | 00:00:00 | |
| DO3MHA-11 | 2026-09-03 06:56:36 | 49.17554 | 8.52575 | 112° | 115km/h | 12851m | -11.1m/s | -59.5°C | 19.4% | 181.1hPa | 2.5V | 00:00:00 | 02:26:43 | 00:00:00 | |
| DB0UT-9 | 2026-09-03 06:56:34 | 49.17564 | 8.52535 | 111° | 111km/h | 12862m | -11.2m/s | -59.6°C | 13.5% | 180.8hPa | 2.5V | 02:51:00 | 00:00:00 | 00:00:00 | |
| HEMX73-11 | 2026-09-03 06:56:33 | 49.17574 | 8.52494 | 112° | 113km/h | 12873m | -11.7m/s | -59.7°C | 13.3% | 180.5hPa | 2.5V | 02:51:00 | 00:00:00 | 00:00:00 | |
| DM0DOS-11 | 2026-09-03 06:56:32 | 49.17646 | 8.52199 | 110° | 122km/h | 12952m | -11.5m/s | -60.2°C | 18.2% | 178.2hPa | 2.5V | 02:51:09 | 02:26:34 | 00:00:00 | |
| KANTATE | 2026-09-03 06:56:31 | 49.17595 | 8.52412 | 111° | 115km/h | 12896m | -11.2m/s | -59.8°C | 13.0% | 179.9hPa | 2.5V | 00:00:00 | 00:00:00 | 00:00:00 | |
| DL0LBS | 2026-09-03 06:56:30 | 49.17604 | 8.52370 | 111° | 113km/h | 12908m | -11.3m/s | -59.9°C | 12.9% | 179.5hPa | 2.5V | 02:51:00 | 00:00:00 | 00:00:00 | |
| BIOWL7-15 | 2026-09-03 06:56:28 | 49.17625 | 8.52286 | 111° | 117km/h | 12930m | -11.4m/s | -60.0°C | 12.6% | 178.9hPa | 2.5V | 00:00:00 | 00:00:00 | 00:00:00 | |
| DO3MHA-11 | 2026-09-03 06:56:26 | 49.17656 | 8.52155 | 111° | 126km/h | 12964m | -11.3m/s | -60.2°C | 17.9% | 177.8hPa | 2.5V | 00:00:00 | 02:26:33 | 00:00:00 | |
| SFWM-10 | 2026-09-03 06:56:25 | 49.17656 | 8.52155 | 112° | 122km/h | 12964m | -11.4m/s | -60.2°C | 12.1% | 177.9hPa | 2.5V | 02:51:00 | 00:00:00 | 00:00:00 | |
| DM0DOS-11 | 2026-09-03 06:56:22 | 49.17764 | 8.51749 | 115° | 130km/h | 13068m | -11.2m/s | -60.2°C | 15.3% | 175hPa | 2.5V | 02:51:19 | 02:26:24 | 00:00:00 | |
| HARRO8 | 2026-09-03 06:56:21 | 49.17712 | 8.51929 | 111° | 128km/h | 13022m | -11.3m/s | -60.5°C | 11.2% | 176.3hPa | 2.5V | 00:00:00 | 00:00:00 | 00:00:00 | |
| DN1GJH-1 | 2026-09-03 06:56:20 | 49.17712 | 8.51929 | 113° | 130km/h | 13022m | -11.3m/s | -60.5°C | 11.2% | 176.3hPa | 2.5V | 02:51:00 | 00:00:00 | 00:00:00 | |
| DB0NH | 2026-09-03 06:56:19 | 49.17737 | 8.51839 | 114° | 124km/h | 13045m | -11.7m/s | -60.3°C | 16.3% | 175.6hPa | 2.5V | 00:00:00 | 02:26:26 | 00:00:00 | |
| DJTTGO | 2026-09-03 06:56:18 | 49.17737 | 8.51839 | 115° | 128km/h | 13045m | -11.7m/s | -60.4°C | 10.6% | 175.6hPa | 2.5V | 02:51:00 | 00:00:00 | 00:00:00 | |
| DL9PN | 2026-09-03 06:56:17 | 49.17778 | 8.51704 | 115° | 126km/h | 13079m | -11.4m/s | -60.1°C | 9.5% | 174.6hPa | 2.5V | 00:00:00 | 00:00:00 | 00:00:00 | |
| DO3MHA-11 | 2026-09-03 06:56:16 | 49.17777 | 8.51704 | 116° | 126km/h | 13079m | -11.4m/s | -60.1°C | 14.9% | 174.6hPa | 2.5V | 02:51:00 | 02:26:23 | 00:00:00 | |
| DK5PH-5 | 2026-09-03 06:56:14 | 49.17806 | 8.51616 | 117° | 122km/h | 13102m | -11.6m/s | -60.1°C | 14.4% | 174.0hPa | 2.5V | 00:00:00 | 02:26:21 | 00:00:00 | |
| DB0UT-9 | 2026-09-03 06:56:13 | 49.17806 | 8.51616 | 118° | 130km/h | 13102m | -11.7m/s | -60.1°C | 9.1% | 174.0hPa | 2.5V | 02:51:00 | 00:00:00 | 00:00:00 | |
| DM0DOS-11 | 2026-09-03 06:56:12 | 49.17910 | 8.51317 | 118° | 126km/h | 13183m | -11.8m/s | -58.8°C | 12.4% | 171.8hPa | 2.5V | 02:51:29 | 02:26:14 | 00:00:00 | |
| DK7TD | 2026-09-03 06:56:09 | 49.17880 | 8.51401 | 119° | 126km/h | 13160m | -11.5m/s | -59°C | 10% | 172.4hPa | 2.6V | 02:52:22 | 02:26:16 | 00:00:00 | |
| DB0UT-7 | 2026-09-03 06:56:08 | 49.17895 | 8.51359 | 119° | 120km/h | 13172m | -11.5m/s | -58.8°C | 12.6% | 172.0hPa | 2.5V | 02:51:00 | 00:00:00 | 00:00:00 | |
| DF7PN | 2026-09-03 06:56:07 | 49.17910 | 8.51317 | 118° | 124km/h | 13183m | -11.8m/s | -58.8°C | 7.7% | 171.8hPa | 2.6V | 00:00:00 | 00:00:00 | 00:00:00 | |
| DO3MHA-11 | 2026-09-03 06:56:06 | 49.17925 | 8.51274 | 119° | 124km/h | 13195m | -11.8m/s | -58.7°C | 12.4% | 171.4hPa | 2.6V | 00:00:00 | 02:26:13 | 00:00:00 | |
| CB1BUN | 2026-09-03 06:56:05 | 49.17925 | 8.51274 | 120° | 126km/h | 13195m | -11.9m/s | -58.7°C | 7.7% | 171.5hPa | 2.6V | 02:51:00 | 00:00:00 | 00:00:00 | |
| NBG1-10 | 2026-09-03 06:56:04 | 49.17956 | 8.51190 | 120° | 120km/h | 13218m | -11.8m/s | -58.5°C | 12.4% | 170.8hPa | 2.6V | 02:51:00 | 02:26:11 | 00:00:00 | |
| DM0DOS-11 | 2026-09-03 06:56:03 | 49.18063 | 8.50903 | 121° | 124km/h | 13301m | -11.8m/s | -58.5°C | 11.8% | 168.5hPa | 2.5V | 02:51:39 | 02:26:04 | 00:00:00 | |
| DK7TD | 2026-09-03 06:55:55 | 49.18095 | 8.50822 | 122° | 124km/h | 13325m | -11.7m/s | -58.2°C | 8.4% | 168hPa | 2.5V | 02:52:22 | 02:26:02 | 00:00:00 | |
| HARRO8 | 2026-09-03 06:55:50 | 49.18178 | 8.50626 | 123° | 117km/h | 13383m | -12.1m/s | -57.9°C | 5.6% | 166.4hPa | 2.6V | 00:00:00 | 00:00:00 | 00:00:00 | |
| DN1GJH-1 | 2026-09-03 06:55:49 | 49.18178 | 8.50626 | 124° | 119km/h | 13384m | -12.1m/s | -57.9°C | 5.6% | 166.4hPa | 2.6V | 02:52:00 | 00:00:00 | 00:00:00 | |
| DM0DOS-11 | 2026-09-03 06:55:47 | 49.18228 | 8.50513 | 125° | 119km/h | 13419m | -12.1m/s | -57.9°C | 9.4% | 165.5hPa | 2.6V | 02:51:49 | 02:25:54 | 00:00:00 | |
| DL9PN | 2026-09-03 06:55:46 | 49.18262 | 8.50439 | 125° | 113km/h | 13444m | -12.1m/s | -57.3°C | 4.8% | 164.8hPa | 2.7V | 00:00:00 | 00:00:00 | 00:00:00 | |
| DF3TZ-5 | 2026-09-03 06:55:45 | 49.18262 | 8.50439 | 125° | 113km/h | 13444m | -12.1m/s | -57.3°C | 4.8% | 164.8hPa | 2.7V | 00:00:00 | 00:00:00 | 00:00:00 | |
| DK7TD | 2026-09-03 06:55:45 | 49.18262 | 8.50439 | 126° | 115km/h | 13444m | -12.1m/s | -57.3°C | 5.9% | 164.8hPa | 2.5V | 02:52:22 | 02:25:52 | 00:00:00 | |
| DK5PH-5 | 2026-09-03 06:55:44 | 49.18279 | 8.50402 | 126° | 115km/h | 13456m | -12.3m/s | -57.1°C | 8.3% | 164.5hPa | 2.7V | 02:51:00 | 02:25:51 | 00:00:00 | |
| DM7RM-13 | 2026-09-03 06:55:42 | 49.18296 | 8.50366 | 127° | 115km/h | 13469m | -11.9m/s | -57.1°C | 4.4% | 164.2hPa | 2.6V | 02:52:00 | 00:00:00 | 00:00:00 | |
| DO3DL | 2026-09-03 06:55:40 | 49.18330 | 8.50294 | 127° | 115km/h | 13492m | -12.2m/s | 0°C | 0% | 0hPa | 2.6V | 00:00:00 | 00:00:00 | 00:00:00 | |
| DM0DOS-11 | 2026-09-03 06:55:37 | 49.18398 | 8.50149 | 125° | 117km/h | 13540m | -12.2m/s | -56.7°C | 7.3% | 162.3hPa | 2.6V | 02:51:59 | 02:25:44 | 00:00:00 | |
| DK7TD | 2026-09-03 06:55:33 | 49.18467 | 8.50000 | 125° | 119km/h | 13590m | -12.5m/s | -56.7°C | 4.5% | 161.1hPa | 2.6V | 02:52:22 | 02:25:40 | 00:00:00 | |
| DK7TD | 2026-09-03 06:55:23 | 49.18633 | 8.49624 | 124° | 113km/h | 13713m | -12m/s | -57.3°C | 4.5% | 158.1hPa | 2.6V | 02:52:22 | 02:25:30 | 00:00:00 | |
| DM0DOS-11 | 2026-09-03 06:55:22 | 49.18728 | 8.49413 | 124° | 108km/h | 13785m | -12m/s | -56.9°C | 7.2% | 155.9hPa | 2.6V | 02:52:19 | 02:25:24 | 00:00:00 | |
| DK7TD | 2026-09-03 06:55:12 | 49.18805 | 8.49248 | 126° | 104km/h | 13846m | -12.1m/s | -56.3°C | 3.8% | 154.8hPa | 2.6V | 02:54:04 | 02:25:19 | 00:00:00 | |
| DM0DOS-11 | 2026-09-03 06:55:12 | 49.18881 | 8.49090 | 126° | 100km/h | 13907m | -12.3m/s | -56.2°C | 6.6% | 153.3hPa | 2.7V | 02:52:29 | 02:25:14 | 00:00:00 | |
| HEMX73-11 | 2026-09-03 06:55:11 | 49.18805 | 8.49248 | 127° | 104km/h | 13846m | -12.1m/s | -56.3°C | 3.4% | 154.8hPa | 2.5V | 02:53:00 | 00:00:00 | 00:00:00 | |
| DF1GD-15 | 2026-09-03 06:55:10 | 49.18820 | 8.49216 | 126° | 100km/h | 13858m | -12.1m/s | -56.3°C | 3.4% | 154.5hPa | 2.5V | 02:53:00 | 00:00:00 | 00:00:00 | |
| DB0UT-7 | 2026-09-03 06:55:08 | 49.18866 | 8.49121 | 127° | 93km/h | 13894m | -12.5m/s | -56.1°C | 6.6% | 153.5hPa | 2.5V | 00:00:00 | 00:00:00 | 00:00:00 | |
| DO3MHA-11 | 2026-09-03 06:55:06 | 49.18896 | 8.49059 | 126° | 99km/h | 13919m | -12.6m/s | -56.2°C | 6.6% | 152.9hPa | 2.5V | 00:00:00 | 02:25:13 | 00:00:00 | |
| AZAK | 2026-09-03 06:55:05 | 49.18896 | 8.49059 | 127° | 99km/h | 13919m | -12.7m/s | -56.2°C | 3.2% | 153.0hPa | 2.5V | 00:00:00 | 00:00:00 | 00:00:00 | |
| CB1BUN | 2026-09-03 06:55:04 | 49.18911 | 8.49028 | 127° | 100km/h | 13931m | -12.2m/s | -56.3°C | 3.2% | 152.7hPa | 2.5V | 02:53:00 | 00:00:00 | 00:00:00 | |
| SFWM-10 | 2026-09-03 06:55:03 | 49.18925 | 8.48997 | 126° | 97km/h | 13944m | -12.5m/s | -56.3°C | 3.2% | 152.4hPa | 2.5V | 02:53:00 | 00:00:00 | 00:00:00 | |
| DM0DOS-11 | 2026-09-03 06:55:02 | 49.19020 | 8.48777 | 120° | 97km/h | 14031m | -12.7m/s | -56.7°C | 6.7% | 150.3hPa | 2.5V | 02:52:39 | 02:25:04 | 00:00:00 | |
| DK7TD | 2026-09-03 06:55:01 | 49.18967 | 8.48904 | 124° | 99km/h | 13981m | -12.6m/s | -56.5°C | 3.5% | 151.5hPa | 2.5V | 02:54:04 | 02:25:08 | 00:00:00 | |
| DB0ND-19 | 2026-09-03 06:55:00 | 49.18981 | 8.48873 | 123° | 99km/h | 13994m | -12.3m/s | -56.6°C | 3.2% | 151.2hPa | 2.6V | 00:00:00 | 00:00:00 | 00:00:00 | |
| DO3MHA-11 | 2026-09-03 06:54:56 | 49.19033 | 8.48745 | 121° | 95km/h | 14044m | -12.6m/s | -56.6°C | 6.6% | 149.9hPa | 2.6V | 00:00:00 | 02:25:03 | 00:00:00 | |
| DJTTGO | 2026-09-03 06:54:55 | 49.19033 | 8.48745 | 122° | 99km/h | 14044m | -12.7m/s | -56.7°C | 3.1% | 150.0hPa | 2.6V | 02:53:00 | 00:00:00 | 00:00:00 | |
| DB0UT-9 | 2026-09-03 06:54:53 | 49.19058 | 8.48679 | 121° | 97km/h | 14069m | -12.6m/s | -56.7°C | 3.1% | 149.4hPa | 2.6V | 02:53:00 | 00:00:00 | 00:00:00 | |
| DM0DOS-11 | 2026-09-03 06:54:52 | 49.19142 | 8.48460 | 121° | 91km/h | 14159m | -12.6m/s | -56.6°C | 6.2% | 147.3hPa | 2.6V | 02:52:49 | 02:24:54 | 00:00:00 | |
| DK7TD | 2026-09-03 06:54:50 | 49.19106 | 8.48551 | 120° | 93km/h | 14120m | -12.5m/s | -56.6°C | 3% | 148.2hPa | 2.5V | 02:54:04 | 02:24:57 | 00:00:00 | |
| HARRO8 | 2026-09-03 06:54:48 | 49.19130 | 8.48490 | 121° | 91km/h | 14146m | -12.6m/s | -56.6°C | 2.8% | 147.6hPa | 2.7V | 00:00:00 | 00:00:00 | 00:00:00 | |
| DO3DL | 2026-09-03 06:54:47 | 49.19130 | 8.48490 | 122° | 93km/h | 14146m | -12.6m/s | 0°C | 0% | 0hPa | 2.7V | 00:00:00 | 00:00:00 | 00:00:00 | |
| DB0NH | 2026-09-03 06:54:46 | 49.19154 | 8.48430 | 122° | 84km/h | 14172m | -12.5m/s | -56.6°C | 6.1% | 147.0hPa | 2.7V | 00:00:00 | 02:24:53 | 00:00:00 | |
| DK5PH-5 | 2026-09-03 06:54:44 | 49.19177 | 8.48372 | 122° | 77km/h | 14197m | -12.5m/s | -56.3°C | 6.0% | 146.4hPa | 2.7V | 00:00:00 | 02:24:51 | 00:00:00 | |
| DF3TZ-5 | 2026-09-03 06:54:43 | 49.19188 | 8.48343 | 122° | 86km/h | 14209m | -12.7m/s | -56.2°C | 2.6% | 146.2hPa | 2.7V | 00:00:00 | 00:00:00 | 00:00:00 | |
| DM0DOS-11 | 2026-09-03 06:54:42 | 49.19252 | 8.48184 | 121° | 77km/h | 14286m | -12.7m/s | -55.8°C | 5.4% | 144.4hPa | 2.7V | 02:52:59 | 02:24:44 | 00:00:00 | |
| DK7TD | 2026-09-03 06:54:35 | 49.19272 | 8.48135 | 122° | 71km/h | 14311m | -12.6m/s | -55.8°C | 2.3% | 143.8hPa | 2.5V | 02:54:04 | 02:24:42 | 00:00:00 | |
| DF7PN | 2026-09-03 06:54:34 | 49.19292 | 8.48087 | 123° | 71km/h | 14337m | -12.9m/s | -55.9°C | 2.4% | 143.2hPa | 2.5V | 00:00:00 | 00:00:00 | 00:00:00 | |
| DM0DOS-11 | 2026-09-03 06:54:32 | 49.19353 | 8.47946 | 125° | 75km/h | 14414m | -13.3m/s | -56°C | 5.4% | 141.5hPa | 2.5V | 02:53:09 | 02:24:34 | 00:00:00 | |
| DK7TD | 2026-09-03 06:54:24 | 49.19387 | 8.47875 | 126° | 77km/h | 14454m | -13m/s | -56.1°C | 2.1% | 140.6hPa | 2.7V | 02:54:04 | 02:24:31 | 00:00:00 | |
| DJTTGO | 2026-09-03 06:54:23 | 49.19387 | 8.47875 | 127° | 77km/h | 14454m | -13.0m/s | -56.1°C | 2.3% | 140.6hPa | 2.7V | 02:53:00 | 00:00:00 | 00:00:00 | |
| DM0DOS-11 | 2026-09-03 06:54:22 | 49.19468 | 8.47708 | 127° | 75km/h | 14546m | -13.4m/s | -56.9°C | 5.6% | 138.6hPa | 2.7V | 02:53:19 | 02:24:24 | 00:00:00 | |
| SFWM-10 | 2026-09-03 06:54:21 | 49.19410 | 8.47827 | 127° | 78km/h | 14480m | -13.0m/s | -56.3°C | 2.3% | 140.0hPa | 2.5V | 00:00:00 | 00:00:00 | 00:00:00 | |
| DM7RM-13 | 2026-09-03 06:54:20 | 49.19421 | 8.47802 | 128° | 77km/h | 14493m | -12.8m/s | -56.4°C | 2.3% | 139.8hPa | 2.5V | 02:54:00 | 00:00:00 | 00:00:00 | |
| HARRO8 | 2026-09-03 06:54:17 | 49.19468 | 8.47708 | 127° | 75km/h | 14546m | -13.4m/s | -56.9°C | 2.4% | 138.6hPa | 2.5V | 00:00:00 | 00:00:00 | 00:00:00 | |
| DL8DAS-15 | 2026-09-03 06:54:16 | 49.19480 | 8.47684 | 128° | 77km/h | 14560m | -13.5m/s | -57.0°C | 2.4% | 138.3hPa | 2.5V | 00:00:00 | 00:00:00 | 00:00:00 | |
| DK5PH-5 | 2026-09-03 06:54:14 | 49.19503 | 8.47636 | 127° | 77km/h | 14586m | -13.5m/s | -56.9°C | 5.6% | 137.7hPa | 2.5V | 02:53:00 | 02:24:21 | 00:00:00 | |
| DM0DOS-11 | 2026-09-03 06:54:12 | 49.19578 | 8.47458 | 119° | 80km/h | 14679m | -13.1m/s | -57.3°C | 5.6% | 135.7hPa | 2.7V | 02:53:29 | 02:24:14 | 00:00:00 | |
| HEMX73-11 | 2026-09-03 06:54:10 | 49.19536 | 8.47562 | 124° | 80km/h | 14626m | -13.2m/s | -56.9°C | 2.3% | 136.9hPa | 2.7V | 02:54:00 | 00:00:00 | 00:00:00 | |
| DF1GD-15 | 2026-09-03 06:54:09 | 49.19547 | 8.47536 | 124° | 78km/h | 14639m | -13.2m/s | -57.0°C | 2.3% | 136.6hPa | 2.7V | 02:54:00 | 00:00:00 | 00:00:00 | |
| DB0UT-7 | 2026-09-03 06:54:08 | 49.19568 | 8.47485 | 121° | 75km/h | 14666m | -13.4m/s | -57.2°C | 5.5% | 136.0hPa | 2.7V | 00:00:00 | 00:00:00 | 00:00:00 | |
| DL0LBS | 2026-09-03 06:54:07 | 49.19567 | 8.47485 | 122° | 80km/h | 14666m | -13.4m/s | -57.2°C | 2.3% | 136.0hPa | 2.7V | 02:54:00 | 00:00:00 | 00:00:00 | |
| DO3MHA-11 | 2026-09-03 06:54:06 | 49.19588 | 8.47431 | 120° | 78km/h | 14692m | -13.2m/s | -57.4°C | 5.6% | 135.4hPa | 2.7V | 00:00:00 | 02:24:13 | 00:00:00 | |
| DN1GJH-1 | 2026-09-03 06:54:05 | 49.19588 | 8.47431 | 120° | 80km/h | 14692m | -13.3m/s | -57.4°C | 2.4% | 135.4hPa | 2.7V | 02:54:00 | 00:00:00 | 00:00:00 | |
| CB1BUN | 2026-09-03 06:54:02 | 49.19617 | 8.47351 | 120° | 77km/h | 14732m | -13.6m/s | -57.6°C | 2.3% | 134.6hPa | 2.7V | 02:54:00 | 00:00:00 | 00:00:00 | |
| DM0DOS-11 | 2026-09-03 06:54:02 | 49.19677 | 8.47198 | 122° | 78km/h | 14812m | -13.2m/s | -58°C | 5.7% | 132.9hPa | 2.7V | 02:53:39 | 02:24:04 | 00:00:00 | |
| DB0ND-19 | 2026-09-03 06:53:58 | 49.19667 | 8.47222 | 121° | 75km/h | 14799m | -13.2m/s | -57.9°C | 2.3% | 133.2hPa | 2.7V | 00:00:00 | 00:00:00 | 00:00:00 | |
| DO3MHA-11 | 2026-09-03 06:53:56 | 49.19688 | 8.47172 | 123° | 73km/h | 14825m | -13.2m/s | -58.0°C | 5.7% | 132.6hPa | 2.7V | 00:00:00 | 02:24:03 | 00:00:00 | |
| DL8DAS-15 | 2026-09-03 06:53:54 | 49.19698 | 8.47147 | 123° | 77km/h | 14839m | -13.5m/s | -58.1°C | 2.4% | 132.3hPa | 2.7V | 00:00:00 | 00:00:00 | 00:00:00 | |
| DM0DOS-11 | 2026-09-03 06:53:52 | 49.19779 | 8.46959 | 122° | 68km/h | 14946m | -13.5m/s | -58.2°C | 5.6% | 130hPa | 2.7V | 02:53:49 | 02:23:54 | 00:00:00 | |
| DK7TD | 2026-09-03 06:53:47 | 49.19779 | 8.46959 | 123° | 68km/h | 14946m | -13.5m/s | -58.2°C | 1.9% | 130hPa | 2.7V | 02:54:04 | 02:23:54 | 00:00:00 | |
| DO3MHA-11 | 2026-09-03 06:53:46 | 49.19788 | 8.46937 | 123° | 69km/h | 14960m | -13.6m/s | -58.2°C | 5.7% | 129.7hPa | 2.7V | 02:53:00 | 02:23:53 | 00:00:00 | |
| DB0NH | 2026-09-03 06:53:45 | 49.19797 | 8.46914 | 122° | 77km/h | 14974m | -13.7m/s | -58.2°C | 5.6% | 129.4hPa | 2.5V | 02:53:00 | 02:23:52 | 00:00:00 | |
| DK5PH-5 | 2026-09-03 06:53:44 | 49.19806 | 8.46892 | 122° | 69km/h | 14988m | -13.8m/s | -58.3°C | 5.7% | 129.2hPa | 2.5V | 00:00:00 | 02:23:51 | 00:00:00 | |
| NBG1-10 | 2026-09-03 06:53:43 | 49.19816 | 8.46870 | 121° | 69km/h | 15002m | -13.5m/s | -58.4°C | 5.7% | 128.9hPa | 2.5V | 00:00:00 | 02:23:50 | 00:00:00 | |
| DM0DOS-11 | 2026-09-03 06:53:42 | 49.19867 | 8.46731 | 120° | 69km/h | 15083m | -13.7m/s | -58.9°C | 6% | 127.3hPa | 2.5V | 02:53:59 | 02:23:44 | 00:00:00 | |
| DK7TD | 2026-09-03 06:53:35 | 49.19885 | 8.46686 | 121° | 69km/h | 15111m | -13.7m/s | -59.1°C | 2% | 126.7hPa | 2.7V | 02:54:04 | 02:23:42 | 00:00:00 | |
| DL8DAS-14 | 2026-09-03 06:53:35 | 49.19894 | 8.46663 | 121° | 66km/h | 15125m | -13.9m/s | -59.1°C | 2.3% | 126.5hPa | 2.5V | 00:00:00 | 00:00:00 | 00:00:00 | |
| DM0DOS-11 | 2026-09-03 06:53:32 | 49.19968 | 8.46479 | 120° | 73km/h | 15235m | -13.7m/s | -59°C | 6% | 124.2hPa | 2.5V | 02:54:10 | 02:23:33 | 00:00:00 | |
| DK7TD | 2026-09-03 06:53:24 | 49.19985 | 8.46431 | 119° | 73km/h | 15263m | -13.8m/s | -59.1°C | 1.9% | 123.7hPa | 2.7V | 02:54:55 | 02:23:31 | 00:00:00 | |
| DN1GJH-1 | 2026-09-03 06:53:23 | 49.19986 | 8.46431 | 120° | 73km/h | 15263m | -13.8m/s | -59.1°C | 2.3% | 123.7hPa | 2.5V | 02:54:00 | 00:00:00 | 00:00:00 | |
| DM0DOS-11 | 2026-09-03 06:53:21 | 49.20044 | 8.46264 | 118° | 68km/h | 15361m | -14.1m/s | -58.5°C | 5.6% | 121.8hPa | 2.5V | 02:54:19 | 02:23:24 | 00:00:00 | |
| DK7TD | 2026-09-03 06:53:14 | 49.20067 | 8.46196 | 117° | 64km/h | 15404m | -14.2m/s | -58.4°C | 1.6% | 120.9hPa | 2.5V | 02:54:55 | 02:23:21 | 00:00:00 | |
| DK5PH-5 | 2026-09-03 06:53:14 | 49.20067 | 8.46196 | 118° | 75km/h | 15404m | -14.2m/s | -58.3°C | 5.6% | 120.9hPa | 2.5V | 00:00:00 | 02:23:21 | 00:00:00 | |
| DL8DAS-15 | 2026-09-03 06:53:13 | 49.20067 | 8.46196 | 118° | 64km/h | 15404m | -14.2m/s | -58.4°C | 2.1% | 120.9hPa | 2.5V | 00:00:00 | 00:00:00 | 00:00:00 | |
| DM0DOS-11 | 2026-09-03 06:53:12 | 49.20119 | 8.46038 | 117° | 68km/h | 15502m | -14.1m/s | -58°C | 5.3% | 119.1hPa | 2.5V | 02:54:29 | 02:23:14 | 00:00:00 | |
| DK7TD | 2026-09-03 06:53:04 | 49.20142 | 8.45967 | 116° | 69km/h | 15543m | -14m/s | -58.2°C | 1.2% | 118.3hPa | 2.7V | 02:54:55 | 02:23:11 | 00:00:00 | |
| DL8DAS-14 | 2026-09-03 06:53:04 | 49.20151 | 8.45942 | 118° | 73km/h | 15557m | -14.1m/s | -58.2°C | 1.8% | 118.0hPa | 2.5V | 00:00:00 | 00:00:00 | 00:00:00 | |
| DN1GJH-1 | 2026-09-03 06:53:02 | 49.20151 | 8.45942 | 119° | 75km/h | 15557m | -14.1m/s | -58.2°C | 1.8% | 118.0hPa | 2.5V | 02:54:00 | 00:00:00 | 00:00:00 | |
| DM0DOS-11 | 2026-09-03 06:53:01 | 49.20216 | 8.45757 | 119° | 80km/h | 15655m | -14.3m/s | -58.4°C | 5.3% | 116.2hPa | 2.5V | 02:54:40 | 02:23:03 | 00:00:00 | |
| DK7TD | 2026-09-03 06:52:53 | 49.20249 | 8.45676 | 122° | 84km/h | 15699m | -14.4m/s | -57.9°C | 0.8% | 115.4hPa | 2.7V | 02:54:55 | 02:23:00 | 00:00:00 | |
| DM0DOS-11 | 2026-09-03 06:52:50 | 49.20330 | 8.45504 | 127° | 73km/h | 15801m | -14.6m/s | -57.1°C | 4.5% | 113.6hPa | 2.5V | 02:54:50 | 02:22:53 | 00:00:00 | |
| DK7TD | 2026-09-03 06:52:42 | 49.20376 | 8.45418 | 130° | 69km/h | 15858m | -14.3m/s | -57.3°C | 0.5% | 112.5hPa | 2.5V | 02:54:55 | 02:22:49 | 00:00:00 | |
| DK7TD | 2026-09-03 06:52:32 | 49.20483 | 8.45217 | 128° | 68km/h | 16005m | -14.8m/s | -57.5°C | 0.5% | 109.9hPa | 2.5V | 02:55:46 | 02:22:39 | 00:00:00 | |
| DM0DOS-11 | 2026-09-03 06:52:31 | 49.20549 | 8.45092 | 126° | 69km/h | 16097m | -15.3m/s | -57.8°C | 4.7% | 108.4hPa | 2.5V | 02:55:10 | 02:22:33 | 00:00:00 | |
| DF7PN | 2026-09-03 06:52:29 | 49.20516 | 8.45155 | 128° | 68km/h | 16051m | -15.0m/s | -57.7°C | 1.4% | 109.2hPa | 2.7V | 00:00:00 | 00:00:00 | 00:00:00 | |
| DJ2DS-15 | 2026-09-03 06:52:27 | 49.20538 | 8.45113 | 127° | 66km/h | 16082m | -15.3m/s | -57.7°C | 4.7% | 108.6hPa | 2.7V | 00:00:00 | 02:22:34 | 00:00:00 | |
| DO3MHA-11 | 2026-09-03 06:52:26 | 49.20549 | 8.45092 | 127° | 66km/h | 16097m | -15.3m/s | -57.8°C | 4.7% | 108.3hPa | 2.7V | 00:00:00 | 02:22:33 | 00:00:00 | |
| DB0ND-19 | 2026-09-03 06:52:25 | 49.20559 | 8.45070 | 126° | 68km/h | 16113m | -15.2m/s | -57.9°C | 1.4% | 108.1hPa | 2.7V | 00:00:00 | 00:00:00 | 00:00:00 | |
| DL0LBS | 2026-09-03 06:52:23 | 49.20569 | 8.45049 | 127° | 68km/h | 16128m | -15.1m/s | -58.0°C | 1.4% | 107.9hPa | 2.7V | 02:55:00 | 00:00:00 | 00:00:00 | |
| AZAK | 2026-09-03 06:52:22 | 49.20589 | 8.45007 | 125° | 66km/h | 16158m | -15.1m/s | -58.0°C | 1.3% | 107.3hPa | 2.7V | 02:55:00 | 00:00:00 | 00:00:00 | |
| DM0DOS-11 | 2026-09-03 06:52:21 | 49.20641 | 8.44883 | 120° | 64km/h | 16250m | -15.2m/s | -57.2°C | 4.6% | 105.8hPa | 2.7V | 02:55:20 | 02:22:23 | 00:00:00 | |
| DK7TD | 2026-09-03 06:52:21 | 49.20598 | 8.44986 | 124° | 64km/h | 16173m | -15.1m/s | -57.9°C | 0.4% | 107.1hPa | 2.5V | 02:55:46 | 02:22:28 | 00:00:00 | |
| DK7TD | 2026-09-03 06:52:10 | 49.20682 | 8.44750 | 111° | 66km/h | 16342m | -15.2m/s | -56.8°C | 0.2% | 104.3hPa | 2.7V | 02:55:46 | 02:22:17 | 00:00:00 | |
| DM0DOS-11 | 2026-09-03 06:52:10 | 49.20704 | 8.44654 | 107° | 66km/h | 16403m | -15.5m/s | -57.2°C | 4.6% | 103.3hPa | 2.7V | 02:55:30 | 02:22:13 | 00:00:00 | |
| DK7TD | 2026-09-03 06:52:00 | 49.20738 | 8.44504 | 112° | 69km/h | 16496m | -16m/s | -56.4°C | 0.1% | 101.8hPa | 2.7V | 02:55:46 | 02:22:07 | 00:00:00 | |
| DN1GJH-1 | 2026-09-03 06:51:59 | 49.20738 | 8.44504 | 113° | 69km/h | 16497m | -16.0m/s | -56.4°C | 1.1% | 101.8hPa | 2.5V | 02:55:00 | 00:00:00 | 00:00:00 | |
| DM0DOS-11 | 2026-09-03 06:51:58 | 49.20765 | 8.44408 | 116° | 68km/h | 16561m | -16.3m/s | -56.1°C | 4.2% | 100.8hPa | 2.5V | 02:55:40 | 02:22:03 | 00:00:00 | |
| DO3MHA-11 | 2026-09-03 06:51:56 | 49.20765 | 8.44408 | 117° | 68km/h | 16561m | -16.2m/s | -56.0°C | 4.2% | 100.7hPa | 2.7V | 00:00:00 | 02:22:03 | 00:00:00 | |
| HEMX73-6 | 2026-09-03 06:51:54 | 49.20780 | 8.44362 | 119° | 18km/h | 16593m | -15.9m/s | -55.6°C | 4.1% | 100.1hPa | 2.7V | 00:00:00 | 02:22:01 | 00:00:00 | |
| DL8DAS-15 | 2026-09-03 06:51:53 | 49.20780 | 8.44362 | 120° | 69km/h | 16593m | -15.9m/s | -55.6°C | 1.1% | 100.2hPa | 2.7V | 02:55:00 | 00:00:00 | 00:00:00 | |
| SFWM-10 | 2026-09-03 06:51:52 | 49.20789 | 8.44338 | 120° | 69km/h | 16609m | -16.0m/s | -55.3°C | 1.0% | 100.0hPa | 2.7V | 02:55:00 | 00:00:00 | 00:00:00 | |
| DM0DOS-11 | 2026-09-03 06:51:51 | 49.20845 | 8.44181 | 119° | 68km/h | 16723m | -16.5m/s | -54.5°C | 3.8% | 98.2hPa | 2.7V | 02:55:50 | 02:21:53 | 00:00:00 | |
| DK7TD | 2026-09-03 06:51:49 | 49.20821 | 8.44247 | 118° | 64km/h | 16674m | -16.4m/s | -55.1°C | 0% | 99hPa | 2.6V | 02:56:37 | 02:21:56 | 00:00:00 | |
| DB0UT-9 | 2026-09-03 06:51:48 | 49.20829 | 8.44225 | 120° | 66km/h | 16690m | -16.6m/s | -54.9°C | 1.0% | 98.7hPa | 2.7V | 02:56:00 | 00:00:00 | 00:00:00 | |
| DO3MHA-11 | 2026-09-03 06:51:46 | 49.20845 | 8.44180 | 120° | 68km/h | 16723m | -16.4m/s | -54.4°C | 3.8% | 98.1hPa | 2.7V | 02:55:00 | 02:21:53 | 00:00:00 | |
| DK5PH-5 | 2026-09-03 06:51:44 | 49.20862 | 8.44136 | 122° | 58km/h | 16757m | -16.9m/s | -54.6°C | 3.8% | 97.6hPa | 2.7V | 00:00:00 | 02:21:51 | 00:00:00 | |
| HARRO8 | 2026-09-03 06:51:42 | 49.20890 | 8.44070 | 122° | 64km/h | 16807m | -16.4m/s | -54.9°C | 1.0% | 96.9hPa | 2.7V | 00:00:00 | 00:00:00 | 00:00:00 | |
| DB0NH | 2026-09-03 06:51:41 | 49.20890 | 8.44070 | 123° | 40km/h | 16807m | -16.4m/s | -54.8°C | 3.9% | 96.9hPa | 2.7V | 02:55:00 | 02:21:48 | 00:00:00 | |
| DM0DOS-11 | 2026-09-03 06:51:40 | 49.20938 | 8.43963 | 125° | 69km/h | 16893m | -16.6m/s | -55.1°C | 4% | 95.7hPa | 2.7V | 02:56:00 | 02:21:43 | 00:00:00 | |
| DK7TD | 2026-09-03 06:51:39 | 49.20908 | 8.44028 | 125° | 66km/h | 16841m | -17m/s | -54.9°C | 0% | 96.4hPa | 2.5V | 02:56:37 | 02:21:46 | 00:00:00 | |
| DK7TD | 2026-09-03 06:51:29 | 49.21012 | 8.43820 | 130° | 62km/h | 17010m | -17.1m/s | -54.5°C | 0% | 94hPa | 2.7V | 02:56:37 | 02:21:36 | 00:00:00 | |
| DM0DOS-11 | 2026-09-03 06:51:28 | 49.21043 | 8.43769 | 133° | 58km/h | 17061m | -17.2m/s | -54.3°C | 3.8% | 93.2hPa | 2.5V | 02:56:10 | 02:21:33 | 00:00:00 | |
| DK7TD | 2026-09-03 06:51:18 | 49.21120 | 8.43669 | 145° | 42km/h | 17198m | -17.2m/s | -54.1°C | 0% | 91.2hPa | 2.7V | 02:56:37 | 02:21:25 | 00:00:00 | |
| BIOWL7-15 | 2026-09-03 06:51:17 | 49.21120 | 8.43669 | 146° | 42km/h | 17198m | -17.2m/s | -54.1°C | 0.8% | 91.2hPa | 2.5V | 02:56:00 | 00:00:00 | 00:00:00 | |
| DM0DOS-11 | 2026-09-03 06:51:16 | 49.21145 | 8.43643 | 144° | 38km/h | 17250m | -17.1m/s | -54.1°C | 3.6% | 90.5hPa | 2.5V | 02:56:21 | 02:21:22 | 00:00:00 | |
| DO3MHA-11 | 2026-09-03 06:51:16 | 49.21137 | 8.43651 | 146° | 38km/h | 17233m | -17.0m/s | -54.0°C | 3.6% | 90.7hPa | 2.7V | 02:56:00 | 02:21:23 | 00:00:00 | |
| DJ2DS-15 | 2026-09-03 06:51:15 | 49.21145 | 8.43642 | 145° | 35km/h | 17250m | -17.1m/s | -54.1°C | 3.6% | 90.4hPa | 2.5V | 00:00:00 | 02:21:22 | 00:00:00 | |
| DK5PH-5 | 2026-09-03 06:51:14 | 49.21153 | 8.43633 | 143° | 37km/h | 17268m | -17.0m/s | -54.2°C | 3.6% | 90.2hPa | 2.5V | 02:56:00 | 02:21:21 | 00:00:00 | |
| HARRO8 | 2026-09-03 06:51:11 | 49.21184 | 8.43591 | 136° | 38km/h | 17336m | -17.5m/s | -54.6°C | 0.9% | 89.2hPa | 2.7V | 00:00:00 | 00:00:00 | 00:00:00 | |
| DM0DOS-11 | 2026-09-03 06:51:10 | 49.21219 | 8.43532 | 126° | 33km/h | 17439m | -17.2m/s | -54.9°C | 3.9% | 87.8hPa | 2.7V | 02:56:32 | 02:21:11 | 00:00:00 | |
| DK7TD | 2026-09-03 06:51:08 | 49.21197 | 8.43571 | 132° | 35km/h | 17370m | -17.1m/s | -54.8°C | 0% | 88.8hPa | 2.5V | 02:56:37 | 02:21:15 | 00:00:00 | |
| DB0UT-7 | 2026-09-03 06:51:08 | 49.21197 | 8.43571 | 132° | 37km/h | 17370m | -17.0m/s | -54.8°C | 3.8% | 88.7hPa | 2.7V | 00:00:00 | 00:00:00 | 00:00:00 | |
| DO3MHA-11 | 2026-09-03 06:51:06 | 49.21208 | 8.43551 | 131° | 31km/h | 17405m | -17.5m/s | -54.9°C | 3.8% | 88.2hPa | 2.7V | 00:00:00 | 02:21:13 | 00:00:00 | |
| AU51GT2 | 2026-09-03 06:51:02 | 49.21229 | 8.43511 | 125° | 33km/h | 17473m | -17.2m/s | 0°C | -1.0% | -1.0hPa | 2.7V | 00:00:00 | 00:00:00 | 00:00:00 | |
| DL8DAS-14 | 2026-09-03 06:51:00 | 49.21243 | 8.43481 | 124° | 29km/h | 17525m | -17.6m/s | -54.9°C | 0.9% | 86.6hPa | 2.7V | 00:00:00 | 00:00:00 | 00:00:00 | |
| DM0DOS-11 | 2026-09-03 06:50:59 | 49.21262 | 8.43433 | 121° | 33km/h | 17613m | -17.5m/s | -55.5°C | 4% | 85.5hPa | 2.7V | 02:56:42 | 02:21:01 | 00:00:00 | |
| DK7TD | 2026-09-03 06:50:58 | 49.21247 | 8.43471 | 123° | 27km/h | 17542m | -17.7m/s | -55.1°C | 0% | 86.4hPa | 2.7V | 02:57:28 | 02:21:05 | 00:00:00 | |
| DF7PN | 2026-09-03 06:50:56 | 49.21254 | 8.43452 | 125° | 27km/h | 17578m | -17.5m/s | -55.4°C | 0.9% | 85.9hPa | 2.5V | 00:00:00 | 00:00:00 | 00:00:00 | |
| DO1YAY-16 | 2026-09-03 06:50:55 | 49.21262 | 8.43433 | 121° | 31km/h | 17613m | -17.5m/s | -55.5°C | 0.9% | 85.5hPa | 2.5V | 00:00:00 | 00:00:00 | 00:00:00 | |
| DJ2DS-15 | 2026-09-03 06:50:52 | 49.21270 | 8.43410 | 116° | 35km/h | 17649m | -18.3m/s | -55.5°C | 0.9% | 85.0hPa | 2.5V | 00:00:00 | 00:00:00 | 00:00:00 | |
| BIOWL7-15 | 2026-09-03 06:50:50 | 49.21274 | 8.43397 | 118° | 37km/h | 17667m | -17.8m/s | -55.5°C | 1.0% | 84.7hPa | 2.5V | 02:57:00 | 00:00:00 | 00:00:00 | |
| DM0DOS-11 | 2026-09-03 06:50:48 | 49.21309 | 8.43301 | 125° | 49km/h | 17791m | -17.5m/s | -54.9°C | 3.8% | 83.1hPa | 2.5V | 02:56:52 | 02:20:51 | 00:00:00 | |
| DK7TD | 2026-09-03 06:50:47 | 49.21291 | 8.43345 | 119° | 42km/h | 17737m | -17.9m/s | -54.9°C | 0% | 83.8hPa | 2.7V | 02:57:28 | 02:20:54 | 00:00:00 | |
| HSKMA3-T | 2026-09-03 06:50:45 | 49.21302 | 8.43316 | 122° | 47km/h | 17773m | -18m/s | -54.9°C | 0% | 83.3hPa | 2.5V | 03:01:43 | 02:20:52 | 00:00:00 | |
| DK7TD | 2026-09-03 06:50:37 | 49.21367 | 8.43206 | 138° | 46km/h | 17919m | -17.6m/s | -54.3°C | 0% | 81.5hPa | 2.6V | 02:57:28 | 02:20:44 | 00:00:00 | |
| DM0DOS-11 | 2026-09-03 06:50:36 | 49.21391 | 8.43173 | 138° | 37km/h | 17973m | -18.1m/s | -54.2°C | 3.6% | 80.8hPa | 2.7V | 02:57:02 | 02:20:41 | 00:00:00 | |
| DO3MHA-11 | 2026-09-03 06:50:36 | 49.21375 | 8.43194 | 138° | 33km/h | 17937m | -17.7m/s | -54.3°C | 3.6% | 81.2hPa | 2.7V | 00:00:00 | 02:20:43 | 00:00:00 | |
| DJ2DS-15 | 2026-09-03 06:50:35 | 49.21384 | 8.43183 | 139° | 35km/h | 17955m | -17.8m/s | -54.3°C | 3.6% | 81.0hPa | 2.7V | 02:57:00 | 02:20:42 | 00:00:00 | |
| DM7RM-13 | 2026-09-03 06:50:34 | 49.21384 | 8.43183 | 139° | 42km/h | 17955m | -17.8m/s | -54.3°C | 0.8% | 81.0hPa | 2.6V | 02:57:00 | 00:00:00 | 00:00:00 | |
| NBG1-10 | 2026-09-03 06:50:33 | 49.21398 | 8.43164 | 139° | 37km/h | 17991m | -18.1m/s | -54.1°C | 3.6% | 80.5hPa | 2.6V | 02:57:00 | 02:20:40 | 00:00:00 | |
| DD1CC8 | 2026-09-03 06:50:32 | 49.21404 | 8.43155 | 139° | 31km/h | 18009m | -18.2m/s | -54.2°C | 0.8% | 80.4hPa | 2.7V | 00:00:00 | 00:00:00 | 00:00:00 | |
| DM0DOS-11 | 2026-09-03 06:50:29 | 49.21443 | 8.43088 | 126° | 33km/h | 18158m | -18.2m/s | -54.7°C | 3.7% | 78.5hPa | 2.7V | 02:57:12 | 02:20:31 | 00:00:00 | |
| DK7TD | 2026-09-03 06:50:27 | 49.21430 | 8.43114 | 133° | 27km/h | 18101m | -18.7m/s | -54.5°C | 0% | 79.2hPa | 2.5V | 02:57:28 | 02:20:34 | 00:00:00 | |
| DO3MHA-11 | 2026-09-03 06:50:26 | 49.21434 | 8.43105 | 133° | 37km/h | 18120m | -18.6m/s | -54.5°C | 3.7% | 78.9hPa | 2.6V | 00:00:00 | 02:20:33 | 00:00:00 | |
| DF7PN | 2026-09-03 06:50:25 | 49.21439 | 8.43097 | 128° | 29km/h | 18140m | -18.6m/s | -54.6°C | 0.9% | 78.8hPa | 2.6V | 00:00:00 | 00:00:00 | 00:00:00 | |
| DB0UT-9 | 2026-09-03 06:50:24 | 49.21438 | 8.43097 | 130° | 29km/h | 18140m | -18.6m/s | -54.6°C | 0.9% | 78.8hPa | 2.6V | 02:57:00 | 00:00:00 | 00:00:00 | |
| DL8DAS-15 | 2026-09-03 06:50:23 | 49.21443 | 8.43088 | 127° | 33km/h | 18158m | -18.2m/s | -54.7°C | 0.9% | 78.5hPa | 2.6V | 00:00:00 | 00:00:00 | 00:00:00 | |
| DB0ND-19 | 2026-09-03 06:50:21 | 49.21458 | 8.43053 | 119° | 37km/h | 18212m | -18.5m/s | -55.1°C | 0.9% | 77.9hPa | 2.6V | 00:00:00 | 00:00:00 | 00:00:00 | |
| DF1GD-15 | 2026-09-03 06:50:20 | 49.21458 | 8.43053 | 121° | 38km/h | 18212m | -18.5m/s | -55.1°C | 0.9% | 77.9hPa | 2.6V | 02:57:00 | 00:00:00 | 00:00:00 | |
| DM0DOS-11 | 2026-09-03 06:50:19 | 49.21492 | 8.42955 | 122° | 46km/h | 18344m | -18.6m/s | -55.1°C | 3.9% | 76.2hPa | 2.6V | 02:57:22 | 02:20:21 | 00:00:00 | |
| DK7TD | 2026-09-03 06:50:16 | 49.21481 | 8.42985 | 118° | 44km/h | 18306m | -19m/s | -55.5°C | 0% | 76.7hPa | 2.7V | 02:57:28 | 02:20:23 | 00:00:00 | |
| DO3MHA-11 | 2026-09-03 06:50:16 | 49.21481 | 8.42985 | 119° | 42km/h | 18306m | -18.9m/s | -55.5°C | 4.0% | 76.7hPa | 2.7V | 02:57:00 | 02:20:23 | 00:00:00 | |
| DJ2DS-15 | 2026-09-03 06:50:15 | 49.21486 | 8.42970 | 121° | 42km/h | 18325m | -18.8m/s | -55.5°C | 4.1% | 76.4hPa | 2.7V | 00:00:00 | 02:20:22 | 00:00:00 | |
| DK5PH-5 | 2026-09-03 06:50:14 | 49.21492 | 8.42955 | 123° | 37km/h | 18344m | -18.5m/s | -55.1°C | 3.9% | 76.2hPa | 2.7V | 00:00:00 | 02:20:21 | 00:00:00 | |
| DH7VM-15 | 2026-09-03 06:50:12 | 49.21499 | 8.42941 | 125° | 44km/h | 18363m | -18.8m/s | -54.9°C | 0.8% | 76.0hPa | 2.7V | 00:00:00 | 00:00:00 | 00:00:00 | |
| HARRO8 | 2026-09-03 06:50:09 | 49.21529 | 8.42880 | 129° | 38km/h | 18457m | -18.9m/s | -54.9°C | 0.8% | 75.0hPa | 2.7V | 00:00:00 | 00:00:00 | 00:00:00 | |
| DM0DOS-11 | 2026-09-03 06:50:08 | 49.21556 | 8.42834 | 131° | 42km/h | 18534m | -19m/s | -54.6°C | 3.6% | 74hPa | 2.7V | 02:57:32 | 02:20:11 | 00:00:00 | |
| DK7TD | 2026-09-03 06:50:05 | 49.21550 | 8.42846 | 130° | 40km/h | 18515m | -18.8m/s | -54.6°C | 0% | 74.3hPa | 2.7V | 02:58:19 | 02:20:12 | 00:00:00 | |
| DF3TZ-5 | 2026-09-03 06:50:04 | 49.21564 | 8.42822 | 132° | 42km/h | 18553m | -19.2m/s | -54.6°C | 0.8% | 73.8hPa | 2.6V | 00:00:00 | 00:00:00 | 00:00:00 | |
| DJ2KF-10 | 2026-09-03 06:50:03 | 49.21564 | 8.42822 | 133° | 26km/h | 18554m | -19.2m/s | -54.5°C | 3.7% | 73.8hPa | 2.6V | 00:00:00 | 02:20:10 | 00:00:00 | |
| DD1CC8 | 2026-09-03 06:50:01 | 49.21578 | 8.42798 | 132° | 40km/h | 18592m | -19.1m/s | -54.7°C | 0.8% | 73.4hPa | 2.6V | 00:00:00 | 00:00:00 | 00:00:00 | |
| NBG1-10 | 2026-09-03 06:50:00 | 49.21585 | 8.42787 | 135° | 26km/h | 18611m | -19.2m/s | -54.6°C | 3.7% | 73.1hPa | 2.6V | 00:00:00 | 02:20:07 | 00:00:00 | |
| DM0DOS-11 | 2026-09-03 06:49:56 | 49.21632 | 8.42721 | 141° | 40km/h | 18725m | -19.1m/s | -54.9°C | 3.7% | 71.8hPa | 2.6V | 02:57:42 | 02:20:01 | 00:00:00 | |
| DK7TD | 2026-09-03 06:49:55 | 49.21624 | 8.42732 | 140° | 42km/h | 18706m | -19m/s | -54.9°C | 0% | 72.1hPa | 2.5V | 02:58:19 | 02:20:02 | 00:00:00 | |
| DF7PN | 2026-09-03 06:49:54 | 49.21632 | 8.42721 | 141° | 38km/h | 18725m | -19.1m/s | -54.9°C | 0.8% | 71.8hPa | 2.6V | 00:00:00 | 00:00:00 | 00:00:00 | |
| DM0DOS-11 | 2026-09-03 06:49:50 | 49.21681 | 8.42656 | 131° | 20km/h | 18916m | -19.4m/s | -55°C | 3.7% | 69.7hPa | 2.6V | 02:57:52 | 02:19:51 | 00:00:00 | |
| DK7TD | 2026-09-03 06:49:44 | 49.21681 | 8.42656 | 132° | 20km/h | 18917m | -19.4m/s | -55.1°C | 0% | 69.7hPa | 2.6V | 02:58:19 | 02:19:51 | 00:00:00 | |
| DK5PH-5 | 2026-09-03 06:49:44 | 49.21681 | 8.42656 | 132° | 27km/h | 18917m | -19.4m/s | -55.0°C | 3.7% | 69.6hPa | 2.6V | 02:57:00 | 02:19:51 | 00:00:00 | |
| DB0UT-9 | 2026-09-03 06:49:43 | 49.21681 | 8.42656 | 133° | 20km/h | 18917m | -19.4m/s | -55.1°C | 0.8% | 69.7hPa | 2.7V | 02:58:00 | 00:00:00 | 00:00:00 | |
| HEMX73-11 | 2026-09-03 06:49:40 | 49.21690 | 8.42633 | 113° | 15km/h | 18994m | -20.1m/s | -55.4°C | 0.8% | 68.8hPa | 2.7V | 02:58:00 | 00:00:00 | 00:00:00 | |
| BIOWL7-15 | 2026-09-03 06:49:39 | 49.21690 | 8.42633 | 113° | 15km/h | 18994m | -20.1m/s | -55.4°C | 0.8% | 68.8hPa | 2.7V | 02:58:00 | 00:00:00 | 00:00:00 | |
| DM0DOS-11 | 2026-09-03 06:49:38 | 49.21702 | 8.42592 | 115° | 24km/h | 19114m | -19.8m/s | -56.1°C | 4.1% | 67.5hPa | 2.7V | 02:58:02 | 02:19:41 | 00:00:00 | |
| DK7TD | 2026-09-03 06:49:33 | 49.21704 | 8.42584 | 113° | 24km/h | 19134m | -19.9m/s | -56°C | 0% | 67.3hPa | 2.7V | 02:58:19 | 02:19:40 | 00:00:00 | |
| DL9PN | 2026-09-03 06:49:33 | 49.21704 | 8.42584 | 112° | 24km/h | 19134m | -19.9m/s | -56.0°C | 0% | 67.3hPa | 2.6V | 00:00:00 | 00:00:00 | 00:00:00 | |
| DM7RM-13 | 2026-09-03 06:49:32 | 49.21704 | 8.42584 | 114° | 24km/h | 19135m | -19.9m/s | -56.0°C | 0.9% | 67.3hPa | 2.6V | 00:00:00 | 00:00:00 | 00:00:00 | |
| DJ2KF-10 | 2026-09-03 06:49:30 | 49.21710 | 8.42557 | 100° | 37km/h | 19196m | -20.6m/s | -55.9°C | 4.1% | 66.6hPa | 2.6V | 02:58:00 | 02:19:37 | 00:00:00 | |
| DM0DOS-11 | 2026-09-03 06:49:27 | 49.21721 | 8.42492 | 109° | 35km/h | 19320m | -20.4m/s | -56°C | 4.1% | 65.4hPa | 2.5V | 02:58:12 | 02:19:31 | 00:00:00 | |
| DK7TD | 2026-09-03 06:49:23 | 49.21725 | 8.42479 | 112° | 37km/h | 19341m | -20.4m/s | -56.2°C | 0% | 65.2hPa | 2.6V | 02:58:19 | 02:19:30 | 00:00:00 | |
| DO1YAY-16 | 2026-09-03 06:49:22 | 49.21742 | 8.42412 | 110° | 37km/h | 19445m | -21.0m/s | -56.0°C | 0.9% | 64.2hPa | 2.6V | 00:00:00 | 00:00:00 | 00:00:00 | |
| DM0DOS-11 | 2026-09-03 06:49:19 | 49.21759 | 8.42357 | 118° | 40km/h | 19529m | -20.6m/s | -55.8°C | 4.1% | 63.3hPa | 2.6V | 02:58:22 | 02:19:21 | 00:00:00 | |
| DK7TD | 2026-09-03 06:49:12 | 49.21769 | 8.42330 | 123° | 38km/h | 19570m | -20.7m/s | -55.9°C | 0% | 62.9hPa | 2.7V | 02:59:10 | 02:19:19 | 00:00:00 | |
| SFWM-10 | 2026-09-03 06:49:09 | 49.21780 | 8.42307 | 127° | 35km/h | 19612m | -20.7m/s | -56.1°C | 0.9% | 62.5hPa | 2.5V | 00:00:00 | 00:00:00 | 00:00:00 | |
| DM0DOS-11 | 2026-09-03 06:49:08 | 49.21814 | 8.42234 | 122° | 46km/h | 19739m | -21.2m/s | -55.7°C | 4.3% | 61.3hPa | 2.5V | 02:58:32 | 02:19:11 | 00:00:00 | |
| DK7TD | 2026-09-03 06:49:01 | 49.21831 | 8.42188 | 116° | 46km/h | 19802m | -20.9m/s | -55.2°C | 0% | 60.7hPa | 2.7V | 02:59:10 | 02:19:08 | 00:00:00 | |
| DD1CC8 | 2026-09-03 06:48:59 | 49.21842 | 8.42155 | 118° | 47km/h | 19843m | -21.2m/s | -55.3°C | 0.8% | 60.3hPa | 2.7V | 00:00:00 | 00:00:00 | 00:00:00 | |
| BIOWL7-15 | 2026-09-03 06:48:58 | 49.21842 | 8.42155 | 119° | 47km/h | 19843m | -21.2m/s | -55.3°C | 0.8% | 60.3hPa | 2.7V | 02:59:00 | 00:00:00 | 00:00:00 | |
| IW2NTF | 2026-09-03 06:48:57 | 49.21887 | 8.42052 | 133° | 40km/h | 19992m | -21.1m/s | -54.1°C | 3.8% | 58.9hPa | 2.7V | 02:58:44 | 02:18:59 | 00:00:00 | |
| DM0DOS-11 | 2026-09-03 06:48:56 | 49.21873 | 8.42078 | 128° | 46km/h | 19949m | -21.2m/s | -54.6°C | 4% | 59.3hPa | 2.6V | 02:58:42 | 02:19:01 | 00:00:00 | |
| DK7TD | 2026-09-03 06:48:51 | 49.21893 | 8.42042 | 135° | 37km/h | 20013m | -21.1m/s | -54°C | 0% | 58.7hPa | 2.7V | 02:59:10 | 02:18:58 | 00:00:00 | |
| DB0ND-19 | 2026-09-03 06:48:48 | 49.21908 | 8.42018 | 137° | 22km/h | 20077m | -21.6m/s | -53.7°C | 0.7% | 58.1hPa | 2.7V | 00:00:00 | 00:00:00 | 00:00:00 | |
| SFWM-10 | 2026-09-03 06:48:47 | 49.21908 | 8.42018 | 138° | 22km/h | 20077m | -21.6m/s | -53.7°C | 0.7% | 58.1hPa | 2.7V | 00:00:00 | 00:00:00 | 00:00:00 | |
| IW2NTF | 2026-09-03 06:48:46 | 49.21926 | 8.41985 | 118° | 5km/h | 20252m | -22m/s | -52.5°C | 3.1% | 56.6hPa | 2.7V | 02:58:56 | 02:18:47 | 00:00:00 | |
| DM0DOS-11 | 2026-09-03 06:48:44 | 49.21921 | 8.41999 | 130° | 16km/h | 20164m | -21.9m/s | -52.6°C | 3.2% | 57.3hPa | 2.7V | 02:58:52 | 02:18:51 | 00:00:00 | |
| DL1XH-west | 2026-09-03 06:48:41 | 49.21926 | 8.41988 | 114° | 7km/h | 20230m | -21.8m/s | -52.3°C | 0% | 56.7hPa | 2.7V | 02:59:10 | 02:18:48 | 00:00:00 | |
| DL8DAS-15 | 2026-09-03 06:48:40 | 49.21926 | 8.41988 | 115° | 7km/h | 20230m | -21.8m/s | -52.3°C | 0.7% | 56.7hPa | 2.6V | 00:00:00 | 00:00:00 | 00:00:00 | |
| DM0DOS-11 | 2026-09-03 06:48:38 | 49.21925 | 8.41960 | 76° | 15km/h | 20407m | -22.2m/s | -53.7°C | 3.5% | 55.2hPa | 2.6V | 02:59:03 | 02:18:40 | 00:00:00 | |
| DK7TD | 2026-09-03 06:48:31 | 49.21922 | 8.41948 | 65° | 18km/h | 20451m | -22m/s | -53.9°C | 0% | 54.8hPa | 2.7V | 02:59:10 | 02:18:38 | 00:00:00 | |
| BIOWL9-15 | 2026-09-03 06:48:31 | 49.21920 | 8.41942 | 66° | 18km/h | 20473m | -22.2m/s | -54.1°C | 0.7% | 54.6hPa | 2.6V | 00:00:00 | 00:00:00 | 00:00:00 | |
| DL1XH1-15 | 2026-09-03 06:48:30 | 49.21916 | 8.41918 | 83° | 24km/h | 20541m | -22.3m/s | -54.5°C | 3.8% | 54.1hPa | 2.6V | 02:59:09 | 02:18:34 | 00:00:00 | |
| DJ2KF-10 | 2026-09-03 06:48:30 | 49.21920 | 8.41942 | 67° | 18km/h | 20474m | -22.2m/s | -54.0°C | 3.6% | 54.6hPa | 2.6V | 00:00:00 | 02:18:37 | 00:00:00 | |
| DL8DAS-15 | 2026-09-03 06:48:29 | 49.21920 | 8.41942 | 67° | 20km/h | 20474m | -22.2m/s | -54.1°C | 0.7% | 54.6hPa | 2.6V | 00:00:00 | 00:00:00 | 00:00:00 | |
| DD1CC8 | 2026-09-03 06:48:28 | 49.21917 | 8.41926 | 77° | 22km/h | 20519m | -22.1m/s | -54.4°C | 0.7% | 54.3hPa | 2.6V | 00:00:00 | 00:00:00 | 00:00:00 | |
| DM7RM-13 | 2026-09-03 06:48:27 | 49.21917 | 8.41926 | 78° | 24km/h | 20519m | -22.1m/s | -54.4°C | 0.8% | 54.3hPa | 2.6V | 02:59:00 | 00:00:00 | 00:00:00 | |
| DM0DOS-11 | 2026-09-03 06:48:26 | 49.21917 | 8.41882 | 104° | 24km/h | 20630m | -22.5m/s | -54.5°C | 3.7% | 53.3hPa | 2.6V | 02:59:13 | 02:18:30 | 00:00:00 | |
| DL1XH-west | 2026-09-03 06:48:26 | 49.21915 | 8.41909 | 89° | 24km/h | 20563m | -22.1m/s | -54.6°C | 0% | 53.9hPa | 2.7V | 02:59:10 | 02:18:33 | 00:00:00 | |
| DK7TD | 2026-09-03 06:48:20 | 49.21923 | 8.41859 | 121° | 18km/h | 20698m | -22.8m/s | -54.6°C | 0% | 52.8hPa | 2.7V | 03:00:52 | 02:18:27 | 00:00:00 | |
| DL1XH-west | 2026-09-03 06:48:15 | 49.21942 | 8.41836 | 153° | 20km/h | 20814m | -22.6m/s | -53.8°C | 0% | 51.9hPa | 2.7V | 03:00:01 | 02:18:22 | 00:00:00 | |
| DM0DOS-11 | 2026-09-03 06:48:15 | 49.21951 | 8.41831 | 163° | 18km/h | 20859m | -22.8m/s | -53.8°C | 3.6% | 51.5hPa | 2.6V | 02:59:23 | 02:18:20 | 00:00:00 | |
| DK7TD | 2026-09-03 06:48:09 | 49.21966 | 8.41827 | 175° | 13km/h | 20950m | -23.5m/s | -53.9°C | 0% | 50.8hPa | 2.7V | 03:00:52 | 02:18:16 | 00:00:00 | |
| DM0DOS-11 | 2026-09-03 06:48:08 | 49.21990 | 8.41821 | 165° | 18km/h | 21091m | -23m/s | -54°C | 3.7% | 49.6hPa | 2.7V | 02:59:33 | 02:18:10 | 00:00:00 | |
| DL1XH-west | 2026-09-03 06:48:04 | 49.21985 | 8.41822 | 172° | 22km/h | 21067m | -24.5m/s | -54°C | 0% | 49.8hPa | 2.7V | 03:00:01 | 02:18:11 | 00:00:00 | |
| DK7TD | 2026-09-03 06:47:59 | 49.22009 | 8.41812 | 162° | 20km/h | 21184m | -23.5m/s | -53.8°C | 0% | 48.9hPa | 2.7V | 03:00:52 | 02:18:06 | 00:00:00 | |
| DL1XH1-15 | 2026-09-03 06:47:59 | 49.22036 | 8.41798 | 159° | 27km/h | 21304m | -23.8m/s | -53.4°C | 3.5% | 48hPa | 2.7V | 02:59:42 | 02:18:01 | 00:00:00 | |
| DL1XH-west | 2026-09-03 06:47:54 | 49.22036 | 8.41798 | 159° | 27km/h | 21304m | -23.8m/s | -53.4°C | 0% | 48hPa | 2.7V | 03:00:01 | 02:18:01 | 00:00:00 | |
| DL8DAS-14 | 2026-09-03 06:47:53 | 49.22042 | 8.41794 | 162° | 26km/h | 21328m | -23.8m/s | -53.4°C | 0.7% | 47.9hPa | 2.7V | 00:00:00 | 00:00:00 | 00:00:00 | |
| DJ2DS-15 | 2026-09-03 06:47:52 | 49.22055 | 8.41790 | 174° | 24km/h | 21376m | -24.1m/s | -53.5°C | 0.6% | 47.5hPa | 2.7V | 00:00:00 | 00:00:00 | 00:00:00 | |
| DF7PN | 2026-09-03 06:47:50 | 49.22066 | 8.41790 | 190° | 20km/h | 21423m | -24.0m/s | -53.1°C | 0.6% | 47.1hPa | 2.7V | 00:00:00 | 00:00:00 | 00:00:00 | |
| DL1XH1-15 | 2026-09-03 06:47:49 | 49.22089 | 8.41807 | 220° | 16km/h | 21544m | -24.3m/s | -53.1°C | 3.4% | 46.3hPa | 2.7V | 02:59:52 | 02:17:51 | 00:00:00 | |
| DK7TD | 2026-09-03 06:47:49 | 49.22066 | 8.41790 | 191° | 22km/h | 21423m | -24m/s | -53.1°C | 0% | 47.1hPa | 2.7V | 03:00:52 | 02:17:56 | 00:00:00 | |
| DM7RM-13 | 2026-09-03 06:47:47 | 49.22071 | 8.41792 | 199° | 22km/h | 21447m | -24.5m/s | -53.1°C | 0.7% | 47.0hPa | 2.6V | 03:00:00 | 00:00:00 | 00:00:00 | |
| DO3MHA-11 | 2026-09-03 06:47:46 | 49.22081 | 8.41799 | 208° | 13km/h | 21496m | -24.2m/s | -53.1°C | 3.4% | 46.6hPa | 2.6V | 02:59:00 | 02:17:53 | 00:00:00 | |
| DM0DOS-11 | 2026-09-03 06:47:44 | 49.22092 | 8.41811 | 218° | 15km/h | 21567m | -24m/s | -53.1°C | 3.4% | 46.1hPa | 2.7V | 02:59:53 | 02:17:50 | 00:00:00 | |
| DL1XH-west | 2026-09-03 06:47:43 | 49.22092 | 8.41811 | 218° | 15km/h | 21567m | -24m/s | -53.1°C | 0% | 46.1hPa | 2.7V | 03:00:01 | 02:17:50 | 00:00:00 | |
| BIOWL7-15 | 2026-09-03 06:47:42 | 49.22092 | 8.41811 | 219° | 15km/h | 21568m | -24.0m/s | -53.1°C | 0.6% | 46.1hPa | 2.7V | 00:00:00 | 00:00:00 | 00:00:00 | |
| NBG1-10 | 2026-09-03 06:47:40 | 49.22097 | 8.41822 | 253° | 9km/h | 21640m | -24.8m/s | -53.5°C | 3.5% | 45.5hPa | 2.7V | 00:00:00 | 02:17:47 | 00:00:00 | |
| DM0DOS-11 | 2026-09-03 06:47:39 | 49.22096 | 8.41830 | 42° | 5km/h | 21814m | -25.3m/s | -53.8°C | 3.7% | 44.4hPa | 2.7V | 03:00:03 | 02:17:40 | 00:00:00 | |
| DK7TD | 2026-09-03 06:47:38 | 49.22098 | 8.41830 | 256° | 7km/h | 21690m | -24.6m/s | -53.6°C | 0% | 45.2hPa | 2.7V | 03:00:52 | 02:17:45 | 00:00:00 | |
| DL1XH-west | 2026-09-03 06:47:32 | 49.22095 | 8.41828 | 44° | 7km/h | 21839m | -24.9m/s | -53.9°C | 0% | 44.2hPa | 2.7V | 03:00:52 | 02:17:39 | 00:00:00 | |
| DB0NH | 2026-09-03 06:47:32 | 49.22095 | 8.41828 | 44° | 9km/h | 21839m | -24.9m/s | -53.8°C | 3.7% | 44.1hPa | 2.6V | 00:00:00 | 02:17:39 | 00:00:00 | |
| DJ2KF-10 | 2026-09-03 06:47:30 | 49.22092 | 8.41823 | 49° | 9km/h | 21889m | -25.7m/s | -53.9°C | 3.7% | 43.8hPa | 2.6V | 00:00:00 | 02:17:37 | 00:00:00 | |
| DF3TZ-5 | 2026-09-03 06:47:29 | 49.22091 | 8.41818 | 92° | 9km/h | 21941m | -25.9m/s | -53.9°C | 0.7% | 43.5hPa | 2.6V | 00:00:00 | 00:00:00 | 00:00:00 | |
| BIOWL1-15 | 2026-09-03 06:47:28 | 49.22111 | 8.41789 | 73° | 11km/h | 22456m | -26.7m/s | -53.2°C | 0% | 40.1hPa | 2.6V | 03:00:52 | 02:17:15 | 00:00:00 | |
| DK7TD | 2026-09-03 06:47:27 | 49.22091 | 8.41814 | 110° | 11km/h | 21968m | -25.9m/s | -53.8°C | 0% | 43.3hPa | 2.7V | 03:00:52 | 02:17:34 | 00:00:00 | |
| HSKMA3-T | 2026-09-03 06:47:26 | 49.22092 | 8.41810 | 122° | 11km/h | 21993m | -25.6m/s | -53.8°C | 0% | 43.1hPa | 2.7V | 03:01:43 | 02:17:33 | 00:00:00 | |
| DL1XH-west | 2026-09-03 06:47:21 | 49.22103 | 8.41798 | 177° | 9km/h | 22120m | -25.7m/s | -53.2°C | 0% | 42.3hPa | 2.7V | 03:00:52 | 02:17:28 | 00:00:00 | |
| DL1XH1-15 | 2026-09-03 06:47:20 | 49.22114 | 8.41799 | 171° | 5km/h | 22274m | -25.8m/s | -52.4°C | 3.2% | 41.4hPa | 2.7V | 03:00:21 | 02:17:22 | 00:00:00 | |
| DF7PN | 2026-09-03 06:47:19 | 49.22109 | 8.41799 | 193° | 9km/h | 22197m | -26.0m/s | -52.8°C | 0.6% | 41.9hPa | 2.6V | 00:00:00 | 00:00:00 | 00:00:00 | |
| DM0DOS-11 | 2026-09-03 06:47:18 | 49.22115 | 8.41797 | 14° | 2km/h | 22326m | -26.1m/s | -52.5°C | 3.3% | 41hPa | 2.6V | 03:00:23 | 02:17:20 | 00:00:00 | |
| DK7TD | 2026-09-03 06:47:16 | 49.22113 | 8.41799 | 174° | 7km/h | 22249m | -25.7m/s | -52.5°C | 0% | 41.5hPa | 2.7V | 03:00:52 | 02:17:23 | 00:00:00 | |
| DO3MHA-11 | 2026-09-03 06:47:16 | 49.22112 | 8.41799 | 175° | 5km/h | 22249m | -25.6m/s | -52.4°C | 3.2% | 41.5hPa | 2.7V | 03:00:00 | 02:17:23 | 00:00:00 | |
| IW2NTF | 2026-09-03 06:47:15 | 49.22113 | 8.41795 | 58° | 5km/h | 22404m | -26m/s | -53°C | 3.4% | 40.5hPa | 2.7V | 03:00:26 | 02:17:17 | 00:00:00 | |
| DJ2DS-15 | 2026-09-03 06:47:15 | 49.22114 | 8.41799 | 172° | 9km/h | 22275m | -25.7m/s | -52.3°C | 3.2% | 41.3hPa | 2.7V | 03:00:00 | 02:17:22 | 00:00:00 | |
| DK5PH-5 | 2026-09-03 06:47:14 | 49.22115 | 8.41798 | 145° | 7km/h | 22301m | -26.0m/s | -52.4°C | 3.2% | 41.1hPa | 2.7V | 00:00:00 | 02:17:21 | 00:00:00 | |
| DN1GJH-1 | 2026-09-03 06:47:13 | 49.22114 | 8.41798 | 146° | 4km/h | 22301m | -26.1m/s | -52.4°C | 0.6% | 41.2hPa | 2.7V | 03:00:00 | 00:00:00 | 00:00:00 | |
| EDDB2-11 | 2026-09-03 06:47:12 | 49.22114 | 8.41797 | 8° | 2km/h | 22353m | -26.2m/s | -52.8°C | 0.6% | 40.8hPa | 2.7V | 00:00:00 | 00:00:00 | 00:00:00 | |
| CB1BUN | 2026-09-03 06:47:11 | 49.22114 | 8.41797 | 9° | 2km/h | 22353m | -26.2m/s | -52.8°C | 0.6% | 40.8hPa | 2.7V | 03:00:00 | 00:00:00 | 00:00:00 | |
| DL1XH1-15 | 2026-09-03 06:47:10 | 49.22110 | 8.41776 | 77° | 13km/h | 22536m | -26.4m/s | -53.6°C | 3.5% | 39.7hPa | 2.7V | 03:00:31 | 02:17:12 | 00:00:00 | |
| DL1XH-west | 2026-09-03 06:47:10 | 49.22113 | 8.41795 | 58° | 5km/h | 22404m | -26m/s | -53°C | 0% | 40.5hPa | 2.7V | 03:00:52 | 02:17:17 | 00:00:00 | |
| DK7TD | 2026-09-03 06:47:06 | 49.22110 | 8.41781 | 83° | 13km/h | 22509m | -26.4m/s | -53.4°C | 0% | 39.8hPa | 2.7V | 03:00:52 | 02:17:13 | 00:00:00 | |
| BIOWL1-15 | 2026-09-03 06:47:02 | 49.22111 | 8.41762 | 106° | 11km/h | 22617m | -27.5m/s | -53.9°C | 0% | 39.2hPa | 2.6V | 03:00:52 | 02:17:09 | 00:00:00 | |
| DB0NH | 2026-09-03 06:47:02 | 49.22111 | 8.41762 | 107° | 9km/h | 22618m | -27.4m/s | -53.9°C | 3.7% | 39.1hPa | 2.7V | 00:00:00 | 02:17:09 | 00:00:00 | |
| DL1XH1-15 | 2026-09-03 06:47:00 | 49.22123 | 8.41743 | 182° | 7km/h | 22804m | -27m/s | -52.7°C | 3.3% | 38hPa | 2.7V | 03:00:41 | 02:17:02 | 00:00:00 | |
| DL1XH-west | 2026-09-03 06:46:59 | 49.22115 | 8.41750 | 132° | 11km/h | 22699m | -26.9m/s | -53.5°C | 0% | 38.7hPa | 2.7V | 03:00:52 | 02:17:06 | 00:00:00 | |
| EDDB2-12 | 2026-09-03 06:46:59 | 49.22117 | 8.41747 | 146° | 9km/h | 22725m | -26.7m/s | -53.1°C | 0.6% | 38.6hPa | 2.7V | 00:00:00 | 00:00:00 | 00:00:00 | |
| DM0DOS-11 | 2026-09-03 06:46:58 | 49.22126 | 8.41745 | 237° | 5km/h | 22857m | -27.2m/s | -52.6°C | 3.3% | 37.8hPa | 2.7V | 03:00:43 | 02:17:00 | 00:00:00 | |
| DK7TD | 2026-09-03 06:46:56 | 49.22121 | 8.41743 | 165° | 9km/h | 22777m | -26.1m/s | -52.7°C | 0% | 38.2hPa | 2.6V | 03:00:52 | 02:17:03 | 00:00:00 | |
| DO3MHA-11 | 2026-09-03 06:46:56 | 49.22121 | 8.41743 | 165° | 9km/h | 22778m | -26.0m/s | -52.7°C | 3.3% | 38.1hPa | 2.6V | 00:00:00 | 02:17:03 | 00:00:00 | |
| IW2NTF | 2026-09-03 06:46:55 | 49.22126 | 8.41753 | 295° | 11km/h | 22938m | -27.7m/s | -53°C | 3.4% | 37.3hPa | 2.6V | 03:00:46 | 02:16:57 | 00:00:00 | |
| BIOWL1-15 | 2026-09-03 06:46:52 | 49.22127 | 8.41747 | 267° | 7km/h | 22883m | -27.2m/s | -52.7°C | 0% | 37.6hPa | 2.7V | 03:00:52 | 02:16:59 | 00:00:00 | |
| DL8DAS-14 | 2026-09-03 06:46:52 | 49.22127 | 8.41750 | 282° | 7km/h | 22911m | -27.5m/s | -52.8°C | 0.6% | 37.5hPa | 2.7V | 00:00:00 | 00:00:00 | 00:00:00 | |
| DL0LBS | 2026-09-03 06:46:51 | 49.22127 | 8.41747 | 268° | 7km/h | 22884m | -27.2m/s | -52.7°C | 0.6% | 37.6hPa | 2.7V | 03:00:00 | 00:00:00 | 00:00:00 | |
| BIOWL7-15 | 2026-09-03 06:46:49 | 49.22126 | 8.41753 | 297° | 11km/h | 22938m | -27.7m/s | -53.0°C | 0.6% | 37.3hPa | 2.7V | 00:00:00 | 00:00:00 | 00:00:00 | |
| DM0DOS-11 | 2026-09-03 06:46:48 | 49.22108 | 8.41768 | 9° | 11km/h | 23129m | -27.8m/s | -53.7°C | 3.6% | 36.2hPa | 2.7V | 03:00:53 | 02:16:50 | 00:00:00 | |
| DL1XH-west | 2026-09-03 06:46:48 | 49.22122 | 8.41760 | 318° | 11km/h | 22993m | -27.1m/s | -53.3°C | 0% | 36.9hPa | 2.7V | 03:00:52 | 02:16:55 | 00:00:00 | |
| DK7TD | 2026-09-03 06:46:45 | 49.22114 | 8.41767 | 343° | 13km/h | 23074m | -27.4m/s | -53.6°C | 0% | 36.5hPa | 2.6V | 03:00:52 | 02:16:52 | 00:00:00 | |
| BIOWL1-15 | 2026-09-03 06:46:41 | 49.22104 | 8.41765 | 39° | 9km/h | 23186m | -27.8m/s | -53.7°C | 0% | 35.9hPa | 2.7V | 03:01:43 | 02:16:48 | 00:00:00 | |
| DL1XH1-15 | 2026-09-03 06:46:40 | 49.22102 | 8.41744 | 107° | 13km/h | 23354m | -28.1m/s | -53.4°C | 3.7% | 34.9hPa | 2.7V | 03:01:01 | 02:16:42 | 00:00:00 | |
| DJ2DS-15 | 2026-09-03 06:46:40 | 49.22101 | 8.41760 | 69° | 7km/h | 23241m | -28.2m/s | -53.7°C | 0.6% | 35.6hPa | 2.6V | 00:00:00 | 00:00:00 | 00:00:00 | |
| DM0DOS-11 | 2026-09-03 06:46:38 | 49.22103 | 8.41736 | 109° | 9km/h | 23410m | -28.2m/s | -53.1°C | 3.6% | 34.6hPa | 2.6V | 03:01:03 | 02:16:40 | 00:00:00 | |
| DL1XH-west | 2026-09-03 06:46:37 | 49.22100 | 8.41752 | 99° | 11km/h | 23298m | -28.3m/s | -53.6°C | 0% | 35.3hPa | 2.7V | 03:01:43 | 02:16:44 | 00:00:00 | |
| DO3MHA-11 | 2026-09-03 06:46:36 | 49.22101 | 8.41748 | 104° | 7km/h | 23326m | -28.2m/s | -53.4°C | 3.7% | 35.0hPa | 2.7V | 03:01:00 | 02:16:43 | 00:00:00 | |
| DJ2DS-15 | 2026-09-03 06:46:35 | 49.22101 | 8.41743 | 108° | 15km/h | 23355m | -28.0m/s | -53.3°C | 3.7% | 34.9hPa | 2.7V | 00:00:00 | 02:16:42 | 00:00:00 | |
| IW2NTF | 2026-09-03 06:46:34 | 49.22100 | 8.41728 | 20° | 5km/h | 23522m | -28.4m/s | -52.9°C | 3.5% | 34hPa | 2.7V | 03:01:07 | 02:16:36 | 00:00:00 | |
| DK7TD | 2026-09-03 06:46:34 | 49.22102 | 8.41739 | 113° | 11km/h | 23382m | -28.1m/s | -53.3°C | 0% | 34.8hPa | 2.7V | 03:02:34 | 02:16:41 | 00:00:00 | |
| BIOWL1-15 | 2026-09-03 06:46:30 | 49.22102 | 8.41729 | 25° | 5km/h | 23494m | -27.8m/s | -53°C | 0% | 34.2hPa | 2.7V | 03:01:43 | 02:16:37 | 00:00:00 | |
| DL3AQ-11 | 2026-09-03 06:46:30 | 49.22100 | 8.41728 | 20° | 5km/h | 23523m | -28.4m/s | -52.9°C | 0.6% | 34.0hPa | 2.7V | 00:00:00 | 00:00:00 | 00:00:00 | |
| DL1XH1-15 | 2026-09-03 06:46:28 | 49.22092 | 8.41715 | 86° | 13km/h | 23696m | -29.6m/s | -52.4°C | 3.4% | 33.1hPa | 2.7V | 03:01:13 | 02:16:30 | 00:00:00 | |
| DL1XH-west | 2026-09-03 06:46:27 | 49.22098 | 8.41725 | 21° | 7km/h | 23580m | -29m/s | -52.8°C | 0% | 33.7hPa | 2.6V | 03:01:43 | 02:16:34 | 00:00:00 | |
| BIOWL9-15 | 2026-09-03 06:46:27 | 49.22096 | 8.41724 | 29° | 7km/h | 23609m | -28.8m/s | -52.8°C | 0.6% | 33.6hPa | 2.6V | 00:00:00 | 00:00:00 | 00:00:00 | |
| DB0NH | 2026-09-03 06:46:26 | 49.22096 | 8.41724 | 30° | 9km/h | 23609m | -28.7m/s | -52.7°C | 3.5% | 33.5hPa | 2.6V | 03:01:00 | 02:16:33 | 00:00:00 | |
| DM7RM-13 | 2026-09-03 06:46:25 | 49.22096 | 8.41724 | 30° | 7km/h | 23609m | -28.8m/s | -52.8°C | 0.6% | 33.6hPa | 2.7V | 03:01:00 | 00:00:00 | 00:00:00 | |
| IW2NTF | 2026-09-03 06:46:24 | 49.22098 | 8.41685 | 115° | 27km/h | 23813m | -28m/s | -52.3°C | 3.4% | 32.5hPa | 2.7V | 03:01:17 | 02:16:26 | 00:00:00 | |
| DK7TD | 2026-09-03 06:46:24 | 49.22093 | 8.41719 | 65° | 9km/h | 23667m | -29.6m/s | -52.5°C | 0% | 33.3hPa | 2.7V | 03:02:34 | 02:16:31 | 00:00:00 | |
| BIOWL1-15 | 2026-09-03 06:46:19 | 49.22098 | 8.41685 | 115° | 27km/h | 23813m | -28m/s | -52.3°C | 0% | 32.5hPa | 2.7V | 03:01:43 | 02:16:26 | 00:00:00 | |
| DL1XH1-15 | 2026-09-03 06:46:18 | 49.22124 | 8.41635 | 142° | 24km/h | 23982m | -29.1m/s | -51.9°C | 3.3% | 31.7hPa | 2.6V | 03:01:23 | 02:16:20 | 00:00:00 | |
| DL1XH-west | 2026-09-03 06:46:17 | 49.22105 | 8.41666 | 125° | 31km/h | 23869m | -28.2m/s | -52.1°C | 0% | 32.3hPa | 2.7V | 03:01:43 | 02:16:24 | 00:00:00 | |
| DL3AQ-11 | 2026-09-03 06:46:17 | 49.22110 | 8.41657 | 129° | 27km/h | 23897m | -28.3m/s | -52.0°C | 0.5% | 32.1hPa | 2.7V | 00:00:00 | 00:00:00 | 00:00:00 | |
| DO3MHA-11 | 2026-09-03 06:46:16 | 49.22110 | 8.41656 | 130° | 24km/h | 23897m | -28.2m/s | -52.0°C | 3.4% | 32.1hPa | 2.7V | 00:00:00 | 02:16:23 | 00:00:00 | |
| DJ2DS-15 | 2026-09-03 06:46:15 | 49.22114 | 8.41648 | 133° | 26km/h | 23925m | -28.7m/s | -52.0°C | 3.4% | 31.9hPa | 2.6V | 00:00:00 | 02:16:22 | 00:00:00 | |
| IW2NTF | 2026-09-03 06:46:14 | 49.22142 | 8.41614 | 144° | 22km/h | 24101m | -30.3m/s | -51.9°C | 3.3% | 31.1hPa | 2.6V | 03:01:27 | 02:16:16 | 00:00:00 | |
| BIOWL1-15 | 2026-09-03 06:46:11 | 49.22142 | 8.41614 | 144° | 22km/h | 24101m | -30.3m/s | -51.9°C | 0% | 31.1hPa | 2.6V | 03:01:43 | 02:16:16 | 00:00:00 | |
| DK7TD | 2026-09-03 06:46:10 | 49.22137 | 8.41619 | 146° | 22km/h | 24071m | -30m/s | -51.8°C | 0% | 31.3hPa | 2.7V | 03:02:34 | 02:16:17 | 00:00:00 | |
| DL0LBS | 2026-09-03 06:46:09 | 49.22137 | 8.41619 | 147° | 22km/h | 24072m | -30.0m/s | -51.8°C | 0.6% | 31.3hPa | 2.6V | 03:01:00 | 00:00:00 | 00:00:00 | |
| DM0DOS-11 | 2026-09-03 06:46:08 | 49.22177 | 8.41581 | 154° | 31km/h | 24285m | -30.2m/s | -51.3°C | 3.2% | 30.3hPa | 2.6V | 03:01:33 | 02:16:10 | 00:00:00 | |
| DL1XH-west | 2026-09-03 06:46:07 | 49.22152 | 8.41604 | 146° | 26km/h | 24163m | -30.3m/s | -51.7°C | 0% | 30.9hPa | 2.7V | 03:01:43 | 02:16:14 | 00:00:00 | |
| BIOWL1-15 | 2026-09-03 06:45:59 | 49.22204 | 8.41567 | 172° | 27km/h | 24407m | -31.1m/s | -50.9°C | 0% | 29.7hPa | 2.6V | 03:01:43 | 02:16:06 | 00:00:00 | |
| DL1XH-west | 2026-09-03 06:45:57 | 49.22217 | 8.41565 | 175° | 24km/h | 24468m | -30.5m/s | -51°C | 0% | 29.4hPa | 2.7V | 03:01:43 | 02:16:04 | 00:00:00 | |
| DK7TD | 2026-09-03 06:45:56 | 49.22223 | 8.41565 | 182° | 22km/h | 24499m | -30.5m/s | -51°C | 0% | 29.3hPa | 2.7V | 03:02:34 | 02:16:03 | 00:00:00 | |
| HSKMA3-T | 2026-09-03 06:45:53 | 49.22239 | 8.41568 | 198° | 18km/h | 24592m | -31.2m/s | -50.9°C | 0% | 28.9hPa | 2.7V | 03:01:43 | 02:16:00 | 00:00:00 | |
| BIOWL1-15 | 2026-09-03 06:45:49 | 49.22251 | 8.41581 | 244° | 13km/h | 24717m | -31.7m/s | -50.5°C | 0% | 28.3hPa | 2.6V | 03:02:34 | 02:15:56 | 00:00:00 | |
| DL1XH-west | 2026-09-03 06:45:46 | 49.22254 | 8.41595 | 255° | 11km/h | 24812m | -31.7m/s | -50.3°C | 0% | 27.9hPa | 2.7V | 03:02:34 | 02:15:53 | 00:00:00 | |
| DO1YAY-16 | 2026-09-03 06:45:45 | 49.22255 | 8.41598 | 249° | 7km/h | 24844m | -31.4m/s | -50.3°C | 0.5% | 27.8hPa | 2.7V | 00:00:00 | 00:00:00 | 00:00:00 | |
| DM7RM-13 | 2026-09-03 06:45:44 | 49.22255 | 8.41598 | 251° | 7km/h | 24844m | -31.4m/s | -50.3°C | 0.5% | 27.8hPa | 2.7V | 03:02:00 | 00:00:00 | 00:00:00 | |
| DB0ND-19 | 2026-09-03 06:45:42 | 49.22258 | 8.41605 | 236° | 5km/h | 24940m | -32.2m/s | -50.6°C | 0.5% | 27.4hPa | 2.7V | 00:00:00 | 00:00:00 | 00:00:00 | |
| AZAK | 2026-09-03 06:45:40 | 49.22260 | 8.41611 | 235° | 5km/h | 25036m | -32.7m/s | -50.9°C | 0.4% | 27.0hPa | 2.7V | 03:02:00 | 00:00:00 | 00:00:00 | |
| DL1XH1-15 | 2026-09-03 06:45:38 | 49.22272 | 8.41616 | 184° | 11km/h | 25232m | -32.8m/s | -50.8°C | 3.1% | 26.1hPa | 2.7V | 03:02:03 | 02:15:40 | 00:00:00 | |
| BIOWL1-15 | 2026-09-03 06:45:38 | 49.22261 | 8.41613 | 222° | 5km/h | 25069m | -32.8m/s | -50.9°C | 0% | 26.9hPa | 2.7V | 03:02:34 | 02:15:45 | 00:00:00 | |
| HSKMA3-T | 2026-09-03 06:45:37 | 49.22263 | 8.41614 | 217° | 5km/h | 25102m | -32.9m/s | -50.8°C | 0% | 26.7hPa | 2.6V | 03:05:07 | 02:15:44 | 00:00:00 | |
| DL1XH-west | 2026-09-03 06:45:35 | 49.22267 | 8.41616 | 180° | 11km/h | 25167m | -32.7m/s | -50.8°C | 0% | 26.4hPa | 2.7V | 03:02:34 | 02:15:42 | 00:00:00 | |
| DJ2DS-15 | 2026-09-03 06:45:35 | 49.22267 | 8.41616 | 180° | 9km/h | 25167m | -32.7m/s | -50.7°C | 3.1% | 26.4hPa | 2.7V | 00:00:00 | 02:15:42 | 00:00:00 | |
| OE5DXL-15 | 2026-09-03 06:45:34 | 49.22269 | 8.41616 | 183° | 9km/h | 25200m | -32.6m/s | -50.8°C | 3.1% | 26.2hPa | 2.7V | 00:00:00 | 00:00:00 | 00:00:00 | |
| DB0NH | 2026-09-03 06:45:33 | 49.22273 | 8.41616 | 185° | 15km/h | 25233m | -32.8m/s | -50.8°C | 3.1% | 26.1hPa | 2.7V | 00:00:00 | 02:15:40 | 00:00:00 | |
| DF1GD-15 | 2026-09-03 06:45:31 | 49.22275 | 8.41617 | 195° | 11km/h | 25265m | -32.8m/s | -50.8°C | 0.5% | 26.0hPa | 2.7V | 03:02:00 | 00:00:00 | 00:00:00 | |
| DJ2KF-10 | 2026-09-03 06:45:30 | 49.22282 | 8.41619 | 196° | 9km/h | 25330m | -33.2m/s | -50.6°C | 3.1% | 25.7hPa | 2.7V | 00:00:00 | 02:15:37 | 00:00:00 | |
| HARRO8 | 2026-09-03 06:45:29 | 49.22285 | 8.41621 | 206° | 11km/h | 25364m | -33.6m/s | -50.6°C | 0.4% | 25.6hPa | 2.7V | 00:00:00 | 00:00:00 | 00:00:00 | |
| DL1XH1-15 | 2026-09-03 06:45:28 | 49.22299 | 8.41632 | 171° | 5km/h | 25566m | -33.9m/s | -50.9°C | 3.2% | 24.8hPa | 2.7V | 03:02:13 | 02:15:30 | 00:00:00 | |
| BIOWL1-15 | 2026-09-03 06:45:28 | 49.22288 | 8.41623 | 211° | 11km/h | 25398m | -33.7m/s | -50.6°C | 0% | 25.5hPa | 2.7V | 03:02:34 | 02:15:35 | 00:00:00 | |
| DL1XH-west | 2026-09-03 06:45:27 | 49.22295 | 8.41630 | 214° | 9km/h | 25498m | -33.7m/s | -50.8°C | 0% | 25.1hPa | 2.6V | 03:02:34 | 02:15:32 | 00:00:00 | |
| DK7TD | 2026-09-03 06:45:24 | 49.22297 | 8.41631 | 193° | 7km/h | 25532m | -33.7m/s | -50.8°C | 0% | 25hPa | 2.7V | 03:02:34 | 02:15:31 | 00:00:00 | |
| DM7RM-13 | 2026-09-03 06:45:23 | 49.22297 | 8.41631 | 194° | 7km/h | 25532m | -33.7m/s | -50.8°C | 0.5% | 25.0hPa | 2.6V | 03:02:00 | 00:00:00 | 00:00:00 | |
| DD1CC8 | 2026-09-03 06:45:22 | 49.22301 | 8.41632 | 172° | 4km/h | 25633m | -33.7m/s | -50.6°C | 0.4% | 24.6hPa | 2.6V | 00:00:00 | 00:00:00 | 00:00:00 | |
| DL1XH1-15 | 2026-09-03 06:45:18 | 49.22310 | 8.41643 | 238° | 11km/h | 25905m | -35m/s | -50.5°C | 3.2% | 23.6hPa | 2.6V | 03:02:23 | 02:15:20 | 00:00:00 | |
| DM0DOS-11 | 2026-09-03 06:45:17 | 49.22311 | 8.41646 | 234° | 11km/h | 25940m | -35m/s | -50.5°C | 3.3% | 23.5hPa | 2.6V | 03:02:24 | 02:15:19 | 00:00:00 | |
| BIOWL1-15 | 2026-09-03 06:45:17 | 49.22305 | 8.41633 | 213° | 7km/h | 25768m | -34.4m/s | -50.5°C | 0% | 24.1hPa | 2.7V | 03:02:34 | 02:15:24 | 00:00:00 | |
| DO3MHA-11 | 2026-09-03 06:45:16 | 49.22306 | 8.41635 | 223° | 9km/h | 25803m | -34.0m/s | -50.5°C | 3.2% | 23.9hPa | 2.7V | 03:02:00 | 02:15:23 | 00:00:00 | |
| DJ2DS-15 | 2026-09-03 06:45:15 | 49.22308 | 8.41637 | 238° | 9km/h | 25837m | -34.4m/s | -50.5°C | 3.2% | 23.8hPa | 2.7V | 00:00:00 | 02:15:22 | 00:00:00 | |
| DK7TD | 2026-09-03 06:45:14 | 49.22309 | 8.41640 | 240° | 11km/h | 25870m | -34.6m/s | -50.6°C | 0% | 23.7hPa | 2.7V | 03:02:34 | 02:15:21 | 00:00:00 | |
| NBG1-10 | 2026-09-03 06:45:14 | 49.22309 | 8.41640 | 241° | 5km/h | 25871m | -34.6m/s | -50.5°C | 3.2% | 23.7hPa | 2.7V | 00:00:00 | 02:15:21 | 00:00:00 | |
| DL8DAS-15 | 2026-09-03 06:45:13 | 49.22309 | 8.41640 | 241° | 11km/h | 25871m | -34.6m/s | -50.6°C | 0.5% | 23.7hPa | 2.6V | 00:00:00 | 00:00:00 | 00:00:00 | |
| DJTTGO | 2026-09-03 06:45:12 | 49.22310 | 8.41643 | 240° | 11km/h | 25906m | -35.0m/s | -50.5°C | 0.4% | 23.6hPa | 2.6V | 03:02:00 | 00:00:00 | 00:00:00 | |
| DB0ND-19 | 2026-09-03 06:45:11 | 49.22313 | 8.41649 | 222° | 9km/h | 25975m | -34.8m/s | -50.4°C | 0.4% | 23.4hPa | 2.6V | 00:00:00 | 00:00:00 | 00:00:00 | |
| IW2NTF | 2026-09-03 06:45:10 | 49.22323 | 8.41646 | 137° | 9km/h | 26184m | -34.6m/s | -49.6°C | 3.1% | 22.6hPa | 2.6V | 03:02:31 | 02:15:12 | 00:00:00 | |
| DL1XH-15 | 2026-09-03 06:45:09 | 49.22325 | 8.41644 | 144° | 9km/h | 26218m | -34.8m/s | -49.4°C | 3% | 22.5hPa | 2.6V | 03:02:32 | 02:15:11 | 00:00:00 | |
| DL1XH1-15 | 2026-09-03 06:45:08 | 49.22327 | 8.41642 | 148° | 11km/h | 26253m | -34.6m/s | -49.2°C | 3% | 22.4hPa | 2.7V | 03:02:33 | 02:15:10 | 00:00:00 | |
| DB0UT-7 | 2026-09-03 06:45:08 | 49.22318 | 8.41652 | 158° | 13km/h | 26082m | -33.8m/s | -49.9°C | 3.1% | 22.9hPa | 2.7V | 00:00:00 | 00:00:00 | 00:00:00 | |
| DM0DOS-11 | 2026-09-03 06:45:07 | 49.22330 | 8.41640 | 164° | 9km/h | 26288m | -36.1m/s | -48.8°C | 2.9% | 22.3hPa | 2.7V | 03:02:34 | 02:15:09 | 00:00:00 | |
| BIOWL1-15 | 2026-09-03 06:45:06 | 49.22321 | 8.41649 | 140° | 11km/h | 26149m | -34m/s | -49.7°C | 0% | 22.8hPa | 2.6V | 03:02:34 | 02:15:13 | 00:00:00 | |
| DL1XH-west | 2026-09-03 06:45:04 | 49.22325 | 8.41644 | 145° | 9km/h | 26218m | -34.8m/s | -49.4°C | 0% | 22.5hPa | 2.6V | 03:02:34 | 02:15:11 | 00:00:00 | |
| DK7TD | 2026-09-03 06:45:03 | 49.22327 | 8.41642 | 149° | 11km/h | 26253m | -34.6m/s | -49.2°C | 0% | 22.4hPa | 2.7V | 03:02:34 | 02:15:10 | 00:00:00 | |
| DM7RM-13 | 2026-09-03 06:45:02 | 49.22327 | 8.41642 | 150° | 11km/h | 26253m | -34.6m/s | -49.2°C | 0.4% | 22.4hPa | 2.7V | 03:02:00 | 00:00:00 | 00:00:00 | |
| BIOWL7-15 | 2026-09-03 06:45:01 | 49.22330 | 8.41640 | 165° | 9km/h | 26288m | -36.1m/s | -48.8°C | 0.4% | 22.3hPa | 2.7V | 03:02:00 | 00:00:00 | 00:00:00 | |
| IW2NTF | 2026-09-03 06:45:00 | 49.22347 | 8.41649 | 197° | 11km/h | 26540m | -35.4m/s | -47.9°C | 2.7% | 21.4hPa | 2.7V | 03:02:41 | 02:15:02 | 00:00:00 | |
| DJ2KF-10 | 2026-09-03 06:45:00 | 49.22334 | 8.41640 | 193° | 11km/h | 26360m | -36.0m/s | -48.3°C | 2.8% | 22.0hPa | 2.7V | 00:00:00 | 02:15:07 | 00:00:00 | |
| DL1XH-15 | 2026-09-03 06:44:59 | 49.22350 | 8.41651 | 198° | 11km/h | 26576m | -35.6m/s | -47.8°C | 2.6% | 21.3hPa | 2.7V | 03:02:42 | 02:15:01 | 00:00:00 | |
| DL4BBY-15 | 2026-09-03 06:44:59 | 49.22336 | 8.41641 | 205° | 11km/h | 26396m | -36.1m/s | -49.0°C | 0% | 0hPa | 2.7V | 00:00:00 | 00:00:00 | 00:00:00 | |
| DL1XH1-15 | 2026-09-03 06:44:58 | 49.22353 | 8.41652 | 195° | 11km/h | 26611m | -36.2m/s | -47.8°C | 2.6% | 21.2hPa | 2.7V | 03:02:43 | 02:15:00 | 00:00:00 | |
| DM0DOS-11 | 2026-09-03 06:44:57 | 49.22355 | 8.41653 | 197° | 11km/h | 26647m | -35.9m/s | -47.9°C | 2.7% | 21.1hPa | 2.6V | 03:02:44 | 02:14:59 | 00:00:00 | |
| BIOWL1-15 | 2026-09-03 06:44:56 | 49.22344 | 8.41648 | 197° | 13km/h | 26504m | -35.8m/s | -48°C | 0% | 21.6hPa | 2.7V | 03:03:25 | 02:15:03 | 00:00:00 | |
| DL1XH-west | 2026-09-03 06:44:54 | 49.22350 | 8.41651 | 198° | 11km/h | 26576m | -35.6m/s | -47.9°C | 0% | 21.3hPa | 2.7V | 03:03:25 | 02:15:01 | 00:00:00 | |
| DK7TD | 2026-09-03 06:44:53 | 49.22353 | 8.41652 | 195° | 11km/h | 26611m | -36.2m/s | -47.9°C | 0% | 21.2hPa | 2.7V | 03:03:25 | 02:15:00 | 00:00:00 | |
| BIOWL1-15 | 2026-09-03 06:44:51 | 49.22366 | 8.41677 | 265° | 18km/h | 26903m | -37.2m/s | -48.1°C | 0% | 20.3hPa | 2.6V | 03:03:25 | 02:14:52 | 00:00:00 | |
| IW2NTF | 2026-09-03 06:44:50 | 49.22366 | 8.41677 | 264° | 18km/h | 26903m | -37.2m/s | -48.1°C | 2.7% | 20.3hPa | 2.6V | 03:02:51 | 02:14:52 | 00:00:00 | |
| HEMX73-11 | 2026-09-03 06:44:49 | 49.22360 | 8.41656 | 211° | 11km/h | 26720m | -36.4m/s | -48.0°C | 0.3% | 20.8hPa | 2.6V | 03:03:00 | 00:00:00 | 00:00:00 | |
| DL1XH1-15 | 2026-09-03 06:44:48 | 49.22366 | 8.41691 | 275° | 20km/h | 26978m | -37.1m/s | -47.9°C | 2.7% | 20hPa | 2.6V | 03:02:53 | 02:14:50 | 00:00:00 | |
| DM0DOS-11 | 2026-09-03 06:44:47 | 49.22364 | 8.41699 | 281° | 20km/h | 27015m | -37.3m/s | -47.9°C | 2.7% | 19.9hPa | 2.7V | 03:02:54 | 02:14:49 | 00:00:00 | |
| DL3AQ-11 | 2026-09-03 06:44:46 | 49.22366 | 8.41677 | 264° | 18km/h | 26904m | -37.2m/s | -48.1°C | 0.3% | 20.3hPa | 2.6V | 00:00:00 | 00:00:00 | 00:00:00 | |
| DL1XH-west | 2026-09-03 06:44:44 | 49.22366 | 8.41684 | 268° | 18km/h | 26941m | -37m/s | -48°C | 0% | 20.1hPa | 2.6V | 03:03:25 | 02:14:51 | 00:00:00 | |
| DK7TD | 2026-09-03 06:44:43 | 49.22366 | 8.41691 | 276° | 20km/h | 26978m | -37.1m/s | -47.9°C | 0% | 20hPa | 2.6V | 03:03:25 | 02:14:50 | 00:00:00 | |
| DK5PH-5 | 2026-09-03 06:44:41 | 49.22363 | 8.41706 | 286° | 5km/h | 27053m | -37.7m/s | -48.0°C | 2.8% | 19.8hPa | 2.7V | 00:00:00 | 02:14:48 | 00:00:00 | |
| IW2NTF | 2026-09-03 06:44:40 | 49.22353 | 8.41731 | 313° | 5km/h | 27279m | -38.4m/s | -48°C | 2.8% | 19.1hPa | 2.7V | 03:03:01 | 02:14:42 | 00:00:00 | |
| DB0ND-19 | 2026-09-03 06:44:40 | 49.22360 | 8.41718 | 296° | 15km/h | 27128m | -38.0m/s | -48.3°C | 0.4% | 19.6hPa | 2.7V | 00:00:00 | 00:00:00 | 00:00:00 | |
| DL1XH1-15 | 2026-09-03 06:44:38 | 49.22351 | 8.41733 | 303° | 2km/h | 27356m | -38.5m/s | -48.1°C | 2.8% | 18.9hPa | 2.7V | 03:03:03 | 02:14:40 | 00:00:00 | |
| DB0UT-7 | 2026-09-03 06:44:38 | 49.22358 | 8.41723 | 309° | 4km/h | 27166m | -37.9m/s | -48.2°C | 2.8% | 19.4hPa | 2.7V | 00:00:00 | 02:14:45 | 00:00:00 | |
| DM0DOS-11 | 2026-09-03 06:44:37 | 49.22351 | 8.41734 | 285° | 2km/h | 27395m | -38.6m/s | -48.1°C | 2.9% | 18.8hPa | 2.7V | 03:03:04 | 02:14:39 | 00:00:00 | |
| BIOWL1-15 | 2026-09-03 06:44:35 | 49.22353 | 8.41731 | 313° | 5km/h | 27279m | -38.4m/s | -48°C | 0% | 19.1hPa | 2.7V | 03:03:25 | 02:14:42 | 00:00:00 | |
| DL1XH-west | 2026-09-03 06:44:33 | 49.22352 | 8.41733 | 304° | 2km/h | 27356m | -38.6m/s | -48.1°C | 0% | 18.9hPa | 2.7V | 03:03:25 | 02:14:40 | 00:00:00 | |
| DK7TD | 2026-09-03 06:44:32 | 49.22351 | 8.41734 | 286° | 2km/h | 27395m | -38.6m/s | -48.1°C | 0% | 18.8hPa | 2.7V | 03:03:25 | 02:14:39 | 00:00:00 | |
| BIOWL7-15 | 2026-09-03 06:44:31 | 49.22351 | 8.41734 | 0° | 0km/h | 27395m | -38.6m/s | -48.1°C | 0.4% | 18.8hPa | 2.7V | 00:00:00 | 00:00:00 | 00:00:00 | |
| IW2NTF | 2026-09-03 06:44:30 | 49.22350 | 8.41742 | 299° | 5km/h | 27665m | -39.7m/s | -47.4°C | 2.8% | 18hPa | 2.7V | 03:03:11 | 02:14:32 | 00:00:00 | |
| DJ2KF-10 | 2026-09-03 06:44:30 | 49.22351 | 8.41735 | 274° | 5km/h | 27472m | -38.7m/s | -48.1°C | 2.9% | 18.6hPa | 2.6V | 03:03:00 | 02:14:37 | 00:00:00 | |
| DF1GD-15 | 2026-09-03 06:44:29 | 49.22351 | 8.41735 | 275° | 2km/h | 27472m | -38.8m/s | -48.1°C | 0.4% | 18.6hPa | 2.6V | 03:03:00 | 00:00:00 | 00:00:00 | |
| DL1XH1-15 | 2026-09-03 06:44:28 | 49.22348 | 8.41746 | 325° | 4km/h | 27744m | -39.9m/s | -47.2°C | 2.8% | 17.8hPa | 2.6V | 03:03:13 | 02:14:30 | 00:00:00 | |
| DM0DOS-11 | 2026-09-03 06:44:27 | 49.22347 | 8.41747 | 347° | 5km/h | 27784m | -40m/s | -47.1°C | 2.8% | 17.7hPa | 2.6V | 03:03:14 | 02:14:29 | 00:00:00 | |
| BIOWL1-15 | 2026-09-03 06:44:24 | 49.22349 | 8.41744 | 309° | 5km/h | 27705m | -40.2m/s | -47.4°C | 0% | 17.9hPa | 2.6V | 03:03:25 | 02:14:31 | 00:00:00 | |
| DL1XH-west | 2026-09-03 06:44:24 | 49.22348 | 8.41746 | 325° | 4km/h | 27744m | -39.9m/s | -47.2°C | 0% | 17.8hPa | 2.6V | 03:03:25 | 02:14:30 | 00:00:00 | |
| DK7TD | 2026-09-03 06:44:24 | 49.22345 | 8.41747 | 359° | 5km/h | 27824m | -39.6m/s | -46.8°C | 0% | 17.6hPa | 2.7V | 03:03:25 | 02:14:28 | 00:00:00 | |
| BIOWL1-15 | 2026-09-03 06:44:21 | 49.22346 | 8.41748 | 198° | 5km/h | 28103m | -41m/s | -45.8°C | 0% | 16.9hPa | 2.7V | 03:03:25 | 02:14:21 | 00:00:00 | |
| DD1CC8 | 2026-09-03 06:44:20 | 49.22344 | 8.41747 | 27° | 0km/h | 27903m | -39.3m/s | -46.6°C | 0.3% | 17.4hPa | 2.7V | 00:00:00 | 00:00:00 | 00:00:00 | |
| AU51GT2 | 2026-09-03 06:44:19 | 49.22344 | 8.41747 | 27° | 0km/h | 27903m | -39.3m/s | -46.6°C | 0.3% | 17.4hPa | 2.7V | 00:00:00 | 00:00:00 | 00:00:00 | |
| DL1XH1-15 | 2026-09-03 06:44:18 | 49.22347 | 8.41749 | 218° | 5km/h | 28143m | -41.3m/s | -45.6°C | 2.5% | 16.8hPa | 2.7V | 03:03:23 | 02:14:20 | 00:00:00 | |
| DM0DOS-11 | 2026-09-03 06:44:17 | 49.22348 | 8.41750 | 254° | 4km/h | 28184m | -41.5m/s | -45.3°C | 2.5% | 16.7hPa | 2.7V | 03:03:24 | 02:14:19 | 00:00:00 | |
| DL1XH-west | 2026-09-03 06:44:13 | 49.22347 | 8.41749 | 219° | 5km/h | 28143m | -41.3m/s | -45.6°C | 0% | 16.8hPa | 2.7V | 03:03:25 | 02:14:20 | 00:00:00 | |
| DK7TD | 2026-09-03 06:44:11 | 49.22348 | 8.41751 | 285° | 4km/h | 28225m | -41.1m/s | -45.1°C | 0% | 16.6hPa | 2.7V | 03:03:25 | 02:14:18 | 00:00:00 | |
| AZAK | 2026-09-03 06:44:11 | 49.22347 | 8.41751 | 286° | 4km/h | 28226m | -41.1m/s | -45.1°C | 0.2% | 16.6hPa | 2.6V | 03:03:00 | 00:00:00 | 00:00:00 | |
| IW2NTF | 2026-09-03 06:44:10 | 49.22342 | 8.41746 | 71° | 9km/h | 28474m | -41.9m/s | -44.3°C | 2.3% | 16hPa | 2.7V | 03:03:31 | 02:14:12 | 00:00:00 | |
| DB0ND-19 | 2026-09-03 06:44:09 | 49.22345 | 8.41753 | 38° | 4km/h | 28349m | -41.7m/s | -44.7°C | 0.2% | 16.3hPa | 2.6V | 00:00:00 | 00:00:00 | 00:00:00 | |
| DL1XH1-15 | 2026-09-03 06:44:08 | 49.22340 | 8.41740 | 74° | 7km/h | 28557m | -41.9m/s | -44°C | 2.2% | 15.8hPa | 2.6V | 03:03:33 | 02:14:10 | 00:00:00 | |
| DB0UT-7 | 2026-09-03 06:44:08 | 49.22345 | 8.41753 | 39° | 9km/h | 28349m | -41.6m/s | -44.7°C | 2.3% | 16.3hPa | 2.6V | 00:00:00 | 00:00:00 | 00:00:00 | |
| DM0DOS-11 | 2026-09-03 06:44:07 | 49.22339 | 8.41737 | 69° | 7km/h | 28599m | -41.9m/s | -43.9°C | 2.2% | 15.7hPa | 2.6V | 03:03:34 | 02:14:09 | 00:00:00 | |
| BIOWL1-15 | 2026-09-03 06:44:05 | 49.22340 | 8.41740 | 75° | 7km/h | 28557m | -41.9m/s | -44°C | 0% | 15.8hPa | 2.6V | 03:04:16 | 02:14:10 | 00:00:00 | |
| OE5DXL-15 | 2026-09-03 06:44:04 | 49.22341 | 8.41743 | 69° | 9km/h | 28516m | -41.9m/s | -44.1°C | 2.3% | 15.8hPa | 2.7V | 03:03:00 | 00:00:00 | 00:00:00 | |
| DL1XH-15 | 2026-09-03 06:44:03 | 49.22340 | 8.41730 | 132° | 5km/h | 28765m | -42.1m/s | -43.8°C | 2.2% | 15.3hPa | 2.7V | 03:03:38 | 02:14:05 | 00:00:00 | |
| DL1XH-west | 2026-09-03 06:44:02 | 49.22339 | 8.41737 | 70° | 7km/h | 28599m | -41.9m/s | -43.9°C | 0% | 15.7hPa | 2.6V | 03:04:16 | 02:14:09 | 00:00:00 | |
| DK7TD | 2026-09-03 06:44:00 | 49.22339 | 8.41733 | 103° | 5km/h | 28682m | -41.6m/s | -43.9°C | 0% | 15.5hPa | 2.7V | 03:04:16 | 02:14:07 | 00:00:00 | |
| DJ2KF-10 | 2026-09-03 06:44:00 | 49.22339 | 8.41733 | 103° | 9km/h | 28682m | -41.5m/s | -43.8°C | 2.2% | 15.4hPa | 2.7V | 00:00:00 | 02:14:07 | 00:00:00 | |
| DM7RM-13 | 2026-09-03 06:43:59 | 49.22339 | 8.41733 | 104° | 5km/h | 28682m | -41.6m/s | -43.9°C | 0.3% | 15.5hPa | 2.7V | 03:04:00 | 00:00:00 | 00:00:00 | |
| DL1XH1-15 | 2026-09-03 06:43:58 | 49.22350 | 8.41723 | 145° | 11km/h | 28979m | -43m/s | -43.7°C | 2.2% | 14.8hPa | 2.7V | 03:03:43 | 02:14:00 | 00:00:00 | |
| DM0DOS-11 | 2026-09-03 06:43:57 | 49.22352 | 8.41721 | 137° | 9km/h | 29022m | -43.2m/s | -43.6°C | 2.2% | 14.7hPa | 2.7V | 03:03:44 | 02:13:59 | 00:00:00 | |
| AA1-15 | 2026-09-03 06:43:56 | 49.22343 | 8.41728 | 165° | 9km/h | 28850m | -42.9m/s | -43.8°C | 0% | 15.1hPa | 2.6V | 03:05:07 | 02:14:03 | 00:00:00 | |
| BIOWL1-15 | 2026-09-03 06:43:55 | 49.22350 | 8.41723 | 146° | 11km/h | 28979m | -43m/s | -43.7°C | 0% | 14.8hPa | 2.7V | 03:04:16 | 02:14:00 | 00:00:00 | |
| HSKMA3-T | 2026-09-03 06:43:54 | 49.22348 | 8.41725 | 158° | 11km/h | 28936m | -43.1m/s | -43.8°C | 0% | 14.9hPa | 2.6V | 03:05:07 | 02:14:01 | 00:00:00 | |
| DL1XH-west | 2026-09-03 06:43:51 | 49.22353 | 8.41718 | 112° | 7km/h | 29065m | -43.7m/s | -43.6°C | 0% | 14.6hPa | 2.7V | 03:04:16 | 02:13:58 | 00:00:00 | |
| SONCRA | 2026-09-03 06:43:49 | 49.22353 | 8.41711 | 72° | 9km/h | 29152m | -42.7m/s | -43.5°C | 0.2% | 14.4hPa | 2.7V | 00:00:00 | 00:00:00 | 00:00:00 | |
| DL1XH1-15 | 2026-09-03 06:43:48 | 49.22337 | 8.41693 | 46° | 7km/h | 29390m | -36.5m/s | -42.9°C | 2.1% | 13.9hPa | 2.7V | 03:03:53 | 02:13:50 | 00:00:00 | |
| DM0DOS-11 | 2026-09-03 06:43:47 | 49.22336 | 8.41690 | 75° | 5km/h | 29424m | -33.3m/s | -43°C | 2.1% | 13.8hPa | 2.6V | 03:03:54 | 02:13:49 | 00:00:00 | |
| DK7TD | 2026-09-03 06:43:46 | 49.22346 | 8.41701 | 34° | 15km/h | 29278m | -42.1m/s | -43.1°C | 0% | 14.2hPa | 2.7V | 03:04:16 | 02:13:53 | 00:00:00 | |
| AA1-15 | 2026-09-03 06:43:45 | 49.22343 | 8.41698 | 25° | 16km/h | 29318m | -38.5m/s | -43°C | 0% | 14.1hPa | 2.7V | 03:05:07 | 02:13:52 | 00:00:00 | |
| BIOWL1-15 | 2026-09-03 06:43:44 | 49.22336 | 8.41690 | 76° | 5km/h | 29424m | -33.3m/s | -43°C | 0% | 13.8hPa | 2.6V | 03:04:16 | 02:13:49 | 00:00:00 | |
| DL1XH-west | 2026-09-03 06:43:40 | 49.22336 | 8.41687 | 146° | 4km/h | 29493m | -35.6m/s | -43.1°C | 0% | 13.7hPa | 2.6V | 03:04:16 | 02:13:47 | 00:00:00 | |
| DM7RM-13 | 2026-09-03 06:43:39 | 49.22336 | 8.41687 | 147° | 4km/h | 29493m | -35.6m/s | -43.1°C | 0.2% | 13.7hPa | 2.6V | 03:04:00 | 00:00:00 | 00:00:00 | |
| DL1XH1-15 | 2026-09-03 06:43:38 | 49.22346 | 8.41681 | 134° | 11km/h | 29737m | -35.2m/s | -42.9°C | 2.1% | 13.2hPa | 2.6V | 03:04:03 | 02:13:40 | 00:00:00 | |
| DB0ND-19 | 2026-09-03 06:43:38 | 49.22340 | 8.41686 | 177° | 7km/h | 29598m | -35.0m/s | -43.2°C | 0.2% | 13.4hPa | 2.7V | 00:00:00 | 00:00:00 | 00:00:00 | |
| DM0DOS-11 | 2026-09-03 06:43:37 | 49.22348 | 8.41678 | 136° | 11km/h | 29773m | -35.7m/s | -42.7°C | 2.1% | 13.1hPa | 2.7V | 03:04:04 | 02:13:39 | 00:00:00 | |
| AA1-15 | 2026-09-03 06:43:35 | 49.22344 | 8.41685 | 159° | 5km/h | 29668m | -37.3m/s | -43.1°C | 0% | 13.3hPa | 2.6V | 03:05:07 | 02:13:42 | 00:00:00 | |
| DK7TD | 2026-09-03 06:43:34 | 49.22345 | 8.41684 | 143° | 7km/h | 29703m | -33.5m/s | -43°C | 0% | 13.2hPa | 2.6V | 03:04:16 | 02:13:41 | 00:00:00 | |
| OE5DXL-15 | 2026-09-03 06:43:34 | 49.22345 | 8.41684 | 143° | 9km/h | 29703m | -33.5m/s | -43.0°C | 2.2% | 13.2hPa | 2.6V | 00:00:00 | 00:00:00 | 00:00:00 | |
| DB0UT-9 | 2026-09-03 06:43:33 | 49.22345 | 8.41684 | 144° | 7km/h | 29703m | -33.5m/s | -43.0°C | 0.2% | 13.2hPa | 2.6V | 03:04:00 | 00:00:00 | 00:00:00 | |
| DL1XH-15 | 2026-09-03 06:43:32 | 49.22355 | 8.41667 | 117° | 4km/h | 29950m | -36.2m/s | -42.1°C | 2% | 12.8hPa | 2.6V | 03:04:09 | 02:13:34 | 00:00:00 | |
| BIOWL1-15 | 2026-09-03 06:43:32 | 49.22348 | 8.41678 | 137° | 11km/h | 29773m | -35.7m/s | -42.7°C | 0% | 13.1hPa | 2.7V | 03:04:16 | 02:13:39 | 00:00:00 | |
| DL1XH-west | 2026-09-03 06:43:30 | 49.22352 | 8.41672 | 133° | 9km/h | 29843m | -37m/s | -42.4°C | 0% | 13hPa | 2.7V | 03:04:16 | 02:13:37 | 00:00:00 | |
| DJ2KF-10 | 2026-09-03 06:43:30 | 49.22352 | 8.41672 | 134° | 9km/h | 29843m | -37.0m/s | -42.3°C | 2.1% | 12.9hPa | 2.7V | 00:00:00 | 02:13:37 | 00:00:00 | |
| DL1XH1-15 | 2026-09-03 06:43:28 | 49.22360 | 8.41665 | 199° | 7km/h | 30089m | -36.8m/s | -42°C | 2% | 12.5hPa | 2.7V | 03:04:13 | 02:13:30 | 00:00:00 | |
| DM0DOS-11 | 2026-09-03 06:43:28 | 49.22362 | 8.41666 | 212° | 9km/h | 30124m | -34.1m/s | -42°C | 2% | 12.4hPa | 2.7V | 03:04:14 | 02:13:29 | 00:00:00 | |
| DL4BBY-15 | 2026-09-03 06:43:28 | 49.22355 | 8.41667 | 118° | 9km/h | 29950m | -36.1m/s | -42.9°C | 0% | 0hPa | 2.7V | 00:00:00 | 00:00:00 | 00:00:00 | |
| DL3AQ-11 | 2026-09-03 06:43:26 | 49.22357 | 8.41665 | 165° | 4km/h | 30018m | -33.5m/s | -42.1°C | 0.2% | 12.6hPa | 2.7V | 00:00:00 | 00:00:00 | 00:00:00 | |
| HARRO8 | 2026-09-03 06:43:25 | 49.22357 | 8.41665 | 165° | 4km/h | 30018m | -33.5m/s | -42.1°C | 0.2% | 12.6hPa | 2.7V | 00:00:00 | 00:00:00 | 00:00:00 | |
| BIOWL7-15 | 2026-09-03 06:43:23 | 49.22358 | 8.41664 | 176° | 7km/h | 30053m | -36.4m/s | -42.1°C | 0.2% | 12.6hPa | 2.7V | 00:00:00 | 00:00:00 | 00:00:00 | |
| DL1XH-15 | 2026-09-03 06:43:22 | 49.22378 | 8.41677 | 210° | 15km/h | 30303m | -35.8m/s | -42.2°C | 2.1% | 12.1hPa | 2.7V | 03:04:19 | 02:13:24 | 00:00:00 | |
| BIOWL1-15 | 2026-09-03 06:43:21 | 49.22364 | 8.41668 | 200° | 13km/h | 30160m | -37.7m/s | -42.1°C | 0% | 12.4hPa | 2.6V | 03:04:16 | 02:13:28 | 00:00:00 | |
| DK7TD | 2026-09-03 06:43:20 | 49.22368 | 8.41670 | 200° | 15km/h | 30197m | -36.5m/s | -42.2°C | 0% | 12.3hPa | 2.6V | 03:04:16 | 02:13:27 | 00:00:00 | |
| DL1XH-west | 2026-09-03 06:43:19 | 49.22371 | 8.41672 | 205° | 15km/h | 30232m | -34.6m/s | -42.3°C | 0% | 12.2hPa | 2.6V | 03:05:07 | 02:13:26 | 00:00:00 | |
| SONCRA | 2026-09-03 06:43:18 | 49.22378 | 8.41677 | 210° | 15km/h | 30304m | -35.8m/s | -42.2°C | 0.2% | 12.1hPa | 2.6V | 00:00:00 | 00:00:00 | 00:00:00 | |
| DM0DOS-11 | 2026-09-03 06:43:17 | 49.22387 | 8.41691 | 271° | 11km/h | 30483m | -38.3m/s | -42.1°C | 2.1% | 11.8hPa | 2.6V | 03:04:24 | 02:13:19 | 00:00:00 | |
| AA1-15 | 2026-09-03 06:43:16 | 49.22381 | 8.41680 | 212° | 15km/h | 30339m | -36.6m/s | -42.1°C | 0% | 12hPa | 2.7V | 03:05:07 | 02:13:23 | 00:00:00 | |
| DO3MHA-11 | 2026-09-03 06:43:16 | 49.22381 | 8.41680 | 213° | 9km/h | 30339m | -36.5m/s | -42.1°C | 2.1% | 12.0hPa | 2.7V | 03:04:00 | 02:13:23 | 00:00:00 | |
| DJ2DS-15 | 2026-09-03 06:43:15 | 49.22384 | 8.41682 | 203° | 9km/h | 30376m | -36.2m/s | -42.0°C | 2.1% | 11.9hPa | 2.6V | 03:04:00 | 02:13:22 | 00:00:00 | |
| DL8DAS-14 | 2026-09-03 06:43:14 | 49.22386 | 8.41685 | 218° | 9km/h | 30411m | -35.0m/s | -42.1°C | 0.2% | 11.9hPa | 2.6V | 00:00:00 | 00:00:00 | 00:00:00 | |
| SSTOLZ84 | 2026-09-03 06:43:13 | 49.22387 | 8.41687 | 258° | 7km/h | 30447m | -36.1m/s | -42.2°C | 0.2% | 11.8hPa | 2.6V | 00:00:00 | 00:00:00 | 00:00:00 | |
| DL1XH-15 | 2026-09-03 06:43:12 | 49.22384 | 8.41702 | 324° | 2km/h | 30667m | -36.5m/s | -42°C | 2.2% | 11.4hPa | 2.6V | 03:04:29 | 02:13:14 | 00:00:00 | |
| BIOWL1-15 | 2026-09-03 06:43:11 | 49.22387 | 8.41695 | 269° | 9km/h | 30520m | -36m/s | -42.1°C | 0% | 11.7hPa | 2.7V | 03:05:07 | 02:13:18 | 00:00:00 | |
| DL1XH-west | 2026-09-03 06:43:09 | 49.22386 | 8.41700 | 298° | 5km/h | 30593m | -38.1m/s | -42.2°C | 0% | 11.6hPa | 2.7V | 03:05:07 | 02:13:16 | 00:00:00 | |
| DL1XH1-15 | 2026-09-03 06:43:08 | 49.22384 | 8.41693 | 79° | 9km/h | 30820m | -39.2m/s | -40.9°C | 2% | 11.2hPa | 2.7V | 03:04:33 | 02:13:10 | 00:00:00 | |
| AA1-15 | 2026-09-03 06:43:05 | 49.22384 | 8.41699 | 97° | 7km/h | 30741m | -37.9m/s | -41.6°C | 0% | 11.3hPa | 2.6V | 03:05:07 | 02:13:12 | 00:00:00 | |
| DB0NH | 2026-09-03 06:43:04 | 49.22384 | 8.41696 | 104° | 11km/h | 30781m | -40.9m/s | -41.2°C | 2.0% | 11.2hPa | 2.7V | 03:04:00 | 02:13:11 | 00:00:00 | |
| DJ2DS-15 | 2026-09-03 06:43:03 | 49.22384 | 8.41693 | 79° | 7km/h | 30820m | -39.2m/s | -40.9°C | 0.2% | 11.2hPa | 2.7V | 00:00:00 | 00:00:00 | 00:00:00 | |
| DL1XH-15 | 2026-09-03 06:43:02 | 49.22379 | 8.41669 | 57° | 15km/h | 31061m | -40.3m/s | -40.5°C | 1.9% | 10.8hPa | 2.7V | 03:04:39 | 02:13:04 | 00:00:00 | |
| BIOWL1-15 | 2026-09-03 06:43:01 | 49.22384 | 8.41686 | 93° | 9km/h | 30899m | -41.9m/s | -40.6°C | 0% | 11.1hPa | 2.7V | 03:05:07 | 02:13:08 | 00:00:00 | |
| DL1XH-west | 2026-09-03 06:42:58 | 49.22381 | 8.41674 | 73° | 13km/h | 31020m | -42.3m/s | -40.5°C | 0% | 10.9hPa | 2.6V | 03:05:07 | 02:13:05 | 00:00:00 | |
| AA1-15 | 2026-09-03 06:42:54 | 49.22371 | 8.41650 | 55° | 18km/h | 31193m | -44.8m/s | -40.2°C | 0% | 10.6hPa | 2.7V | 03:05:07 | 02:13:01 | 00:00:00 | |
| BIOWL1-15 | 2026-09-03 06:42:50 | 49.22365 | 8.41627 | 101° | 11km/h | 31348m | -35.9m/s | -40.2°C | 0% | 10.3hPa | 2.7V | 03:05:07 | 02:12:57 | 00:00:00 | |
| DF3TZ-5 | 2026-09-03 06:42:49 | 49.22369 | 8.41616 | 128° | 11km/h | 31464m | -40.1m/s | -39.9°C | 0.1% | 10.2hPa | 2.7V | 00:00:00 | 00:00:00 | 00:00:00 | |
| DL1XH1-15 | 2026-09-03 06:42:48 | 49.22377 | 8.41604 | 128° | 11km/h | 31626m | -41.7m/s | -39.6°C | 1.9% | 9.9hPa | 2.7V | 03:04:53 | 02:12:50 | 00:00:00 | |
| DL1XH-west | 2026-09-03 06:42:47 | 49.22369 | 8.41616 | 128° | 11km/h | 31464m | -40.1m/s | -39.9°C | 0% | 10.2hPa | 2.7V | 03:05:07 | 02:12:54 | 00:00:00 | |
| SONCRA | 2026-09-03 06:42:47 | 49.22371 | 8.41613 | 134° | 11km/h | 31504m | -40.5m/s | -39.9°C | 0.1% | 10.1hPa | 2.7V | 00:00:00 | 00:00:00 | 00:00:00 | |
| AU51GT2 | 2026-09-03 06:42:46 | 49.22371 | 8.41613 | 134° | 11km/h | 31504m | -40.5m/s | -39.9°C | -1.0% | 10.1hPa | 2.7V | 00:00:00 | 00:00:00 | 00:00:00 | |
| DL3AQ-11 | 2026-09-03 06:42:45 | 49.22373 | 8.41610 | 134° | 11km/h | 31545m | -42.6m/s | -39.9°C | 0.1% | 10.0hPa | 2.7V | 00:00:00 | 00:00:00 | 00:00:00 | |
| AA1-15 | 2026-09-03 06:42:43 | 49.22377 | 8.41604 | 129° | 11km/h | 31626m | -41.7m/s | -39.6°C | 0% | 9.9hPa | 2.7V | 03:05:07 | 02:12:50 | 00:00:00 | |
| CB1BUN | 2026-09-03 06:42:43 | 49.22377 | 8.41603 | 130° | 11km/h | 31626m | -41.7m/s | -39.6°C | 0.1% | 9.9hPa | 2.7V | 03:05:00 | 00:00:00 | 00:00:00 | |
| OE5DRO-10 | 2026-09-03 06:42:42 | 49.22378 | 8.41601 | 139° | 15km/h | 31667m | -41.4m/s | -39.4°C | 1.9% | 9.8hPa | 2.7V | 00:00:00 | 00:00:00 | 00:00:00 | |
| DL1XH-15 | 2026-09-03 06:42:41 | 49.22394 | 8.41593 | 201° | 9km/h | 31915m | -41.5m/s | -37.9°C | 1.7% | 9.5hPa | 2.7V | 03:05:00 | 02:12:43 | 00:00:00 | |
| BIOWL1-15 | 2026-09-03 06:42:39 | 49.22386 | 8.41593 | 157° | 11km/h | 31790m | -41.2m/s | -38.7°C | 0% | 9.7hPa | 2.6V | 03:05:07 | 02:12:46 | 00:00:00 | |
| DO1YAY-16 | 2026-09-03 06:42:39 | 49.22389 | 8.41592 | 179° | 9km/h | 31831m | -42.0m/s | -38.3°C | 0.1% | 9.6hPa | 2.7V | 00:00:00 | 00:00:00 | 00:00:00 | |
| DL1XH1-15 | 2026-09-03 06:42:38 | 49.22400 | 8.41600 | 226° | 9km/h | 32045m | -42.4m/s | -37.8°C | 1.7% | 9.3hPa | 2.7V | 03:05:03 | 02:12:40 | 00:00:00 | |
| HSKMA3-T | 2026-09-03 06:42:38 | 49.22389 | 8.41592 | 180° | 11km/h | 31831m | -42m/s | -38.3°C | 0% | 9.6hPa | 2.6V | 03:05:07 | 02:12:45 | 00:00:00 | |
| DB0UT-7 | 2026-09-03 06:42:38 | 49.22389 | 8.41592 | 180° | 11km/h | 31831m | -42.0m/s | -38.3°C | 1.7% | 9.6hPa | 2.6V | 00:00:00 | 02:12:45 | 00:00:00 | |
| DM0DOS-11 | 2026-09-03 06:42:37 | 49.22401 | 8.41602 | 226° | 9km/h | 32088m | -44.2m/s | -37.8°C | 1.7% | 9.3hPa | 2.6V | 03:05:04 | 02:12:39 | 00:00:00 | |
| DL1XH-west | 2026-09-03 06:42:37 | 49.22391 | 8.41592 | 197° | 11km/h | 31874m | -43.7m/s | -38°C | 0% | 9.6hPa | 2.6V | 03:05:07 | 02:12:44 | 00:00:00 | |
| AA1-15 | 2026-09-03 06:42:32 | 49.22401 | 8.41602 | 226° | 9km/h | 32088m | -44.2m/s | -37.8°C | 0% | 9.3hPa | 2.6V | 03:05:07 | 02:12:39 | 00:00:00 | |
| BIOWL1-15 | 2026-09-03 06:42:29 | 49.22401 | 8.41609 | 318° | 9km/h | 32221m | -45.8m/s | -38°C | 0% | 9.1hPa | 2.7V | 03:05:07 | 02:12:36 | 00:00:00 | |
| NBG1-10 | 2026-09-03 06:42:29 | 49.22401 | 8.41609 | 318° | 7km/h | 32221m | -45.8m/s | -38.0°C | 1.7% | 9.1hPa | 2.7V | 00:00:00 | 02:12:36 | 00:00:00 | |
| HTAHTA | 2026-09-03 06:42:28 | 49.22394 | 8.41611 | 23° | 4km/h | 32397m | -43.1m/s | -37.6°C | 0.1% | 8.8hPa | 2.7V | 00:00:00 | 00:00:00 | 00:00:00 | |
| DM0DOS-11 | 2026-09-03 06:42:27 | 49.22393 | 8.41612 | 235° | 5km/h | 32526m | -40.3m/s | -37.3°C | 1.6% | 8.7hPa | 2.7V | 03:05:14 | 02:12:29 | 00:00:00 | |
| DL1XH-west | 2026-09-03 06:42:27 | 49.22398 | 8.41612 | 352° | 7km/h | 32309m | -43.3m/s | -37.8°C | 0% | 9hPa | 2.7V | 03:05:58 | 02:12:34 | 00:00:00 | |
| AA1-15 | 2026-09-03 06:42:22 | 49.22392 | 8.41612 | 236° | 5km/h | 32526m | -40.3m/s | -37.3°C | 0% | 8.7hPa | 2.7V | 03:05:58 | 02:12:29 | 00:00:00 | |
| CB1BUN | 2026-09-03 06:42:21 | 49.22392 | 8.41612 | 237° | 5km/h | 32526m | -40.3m/s | -37.3°C | 0.1% | 8.7hPa | 2.7V | 03:05:00 | 00:00:00 | 00:00:00 | |
| DL1XH-15 | 2026-09-03 06:42:20 | 49.22419 | 8.41626 | 181° | 18km/h | 32835m | -43.7m/s | -36.5°C | 1.6% | 8.3hPa | 2.7V | 03:05:21 | 02:12:22 | 00:00:00 | |
| HSKMA3-T | 2026-09-03 06:42:20 | 49.22397 | 8.41617 | 210° | 16km/h | 32615m | -45.8m/s | -37°C | 0% | 8.6hPa | 2.7V | 03:05:58 | 02:12:27 | 00:00:00 | |
| BIOWL1-15 | 2026-09-03 06:42:19 | 49.22400 | 8.41619 | 210° | 16km/h | 32659m | -43.6m/s | -36.8°C | 0% | 8.5hPa | 2.7V | 03:05:58 | 02:12:26 | 00:00:00 | |
| DL6DJ-15 | 2026-09-03 06:42:19 | 49.22404 | 8.41622 | 194° | 18km/h | 32704m | -46.3m/s | -36.7°C | 0.1% | 8.5hPa | 2.7V | 00:00:00 | 00:00:00 | 00:00:00 | |
| DF3TZ-5 | 2026-09-03 06:42:18 | 49.22404 | 8.41622 | 194° | 18km/h | 32704m | -46.3m/s | -36.7°C | 0.1% | 8.5hPa | 2.7V | 00:00:00 | 00:00:00 | 00:00:00 | |
| DM0DOS-11 | 2026-09-03 06:42:17 | 49.22430 | 8.41628 | 223° | 9km/h | 32971m | -47m/s | -36.2°C | 1.5% | 8.1hPa | 2.7V | 03:05:24 | 02:12:19 | 00:00:00 | |
| DL1XH-west | 2026-09-03 06:42:17 | 49.22414 | 8.41625 | 181° | 20km/h | 32791m | -44.6m/s | -36.6°C | 0% | 8.4hPa | 2.6V | 03:05:58 | 02:12:23 | 00:00:00 | |
| DL3AQ-11 | 2026-09-03 06:42:17 | 49.22414 | 8.41625 | 180° | 20km/h | 32792m | -44.6m/s | -36.6°C | 0.0% | 8.4hPa | 2.7V | 00:00:00 | 00:00:00 | 00:00:00 | |
| SONCRA | 2026-09-03 06:42:16 | 49.22419 | 8.41626 | 181° | 16km/h | 32836m | -43.7m/s | -36.5°C | 0.1% | 8.3hPa | 2.7V | 00:00:00 | 00:00:00 | 00:00:00 | |
| DJ2DS-15 | 2026-09-03 06:42:15 | 49.22419 | 8.41626 | 182° | 16km/h | 32836m | -43.6m/s | -36.5°C | 1.6% | 8.3hPa | 2.7V | 00:00:00 | 02:12:22 | 00:00:00 | |
| IW2NTF | 2026-09-03 06:42:13 | 49.22419 | 8.41657 | 319° | 27km/h | 33200m | -47.6m/s | -36°C | 1.5% | 7.9hPa | 2.7V | 03:05:29 | 02:12:14 | 00:00:00 | |
| AA1-15 | 2026-09-03 06:42:11 | 49.22432 | 8.41631 | 259° | 9km/h | 33017m | -46.1m/s | -36.2°C | 0% | 8.1hPa | 2.6V | 03:05:58 | 02:12:18 | 00:00:00 | |
| DK5PH-5 | 2026-09-03 06:42:11 | 49.22432 | 8.41631 | 260° | 22km/h | 33018m | -46.1m/s | -36.2°C | 1.6% | 8.0hPa | 2.7V | 00:00:00 | 02:12:18 | 00:00:00 | |
| DL1XH-15 | 2026-09-03 06:42:10 | 49.22408 | 8.41671 | 324° | 27km/h | 33293m | -44.2m/s | -36°C | 1.5% | 7.8hPa | 2.7V | 03:05:31 | 02:12:12 | 00:00:00 | |
| BIOWL1-15 | 2026-09-03 06:42:09 | 49.22429 | 8.41642 | 304° | 20km/h | 33108m | -45.3m/s | -36.1°C | 0% | 8hPa | 2.6V | 03:05:58 | 02:12:16 | 00:00:00 | |
| HSKMA3-T | 2026-09-03 06:42:08 | 49.22425 | 8.41650 | 313° | 29km/h | 33153m | -46.3m/s | -36°C | 0% | 7.9hPa | 2.7V | 03:05:58 | 02:12:15 | 00:00:00 | |
| DO1YAY-16 | 2026-09-03 06:42:08 | 49.22419 | 8.41657 | 319° | 26km/h | 33201m | -47.7m/s | -36.0°C | 0.1% | 7.9hPa | 2.6V | 00:00:00 | 00:00:00 | 00:00:00 | |
| DM0DOS-11 | 2026-09-03 06:42:07 | 49.22396 | 8.41682 | 334° | 9km/h | 33431m | -51.2m/s | -36°C | 1.5% | 7.6hPa | 2.6V | 03:05:34 | 02:12:09 | 00:00:00 | |
| DL1XH-west | 2026-09-03 06:42:06 | 49.22414 | 8.41664 | 322° | 29km/h | 33248m | -46.6m/s | -36°C | 0% | 7.8hPa | 2.7V | 03:05:58 | 02:12:13 | 00:00:00 | |
| BIOWL1-15 | 2026-09-03 06:42:02 | 49.22395 | 8.41686 | 3° | 2km/h | 33661m | -63.2m/s | -35.8°C | 0% | 7.5hPa | 2.7V | 03:05:58 | 02:12:05 | 00:00:00 | |
| CB1BUN | 2026-09-03 06:42:01 | 49.22396 | 8.41682 | 336° | 9km/h | 33431m | -51.3m/s | -36.0°C | 0.0% | 7.6hPa | 2.6V | 03:05:00 | 00:00:00 | 00:00:00 | |
| DL1XH-15 | 2026-09-03 06:42:00 | 49.22388 | 8.41688 | 334° | 18km/h | 33850m | -61.9m/s | -35°C | 1.4% | 7.2hPa | 2.6V | 03:05:41 | 02:12:02 | 00:00:00 | |
| AA1-15 | 2026-09-03 06:41:59 | 49.22395 | 8.41686 | 164° | 2km/h | 33600m | -58.1m/s | -36°C | 0% | 7.5hPa | 2.7V | 03:05:58 | 02:12:06 | 00:00:00 | |
| DL1XH-west | 2026-09-03 06:41:55 | 49.22388 | 8.41688 | 335° | 18km/h | 33850m | -61.9m/s | -35.1°C | 0% | 7.2hPa | 2.6V | 03:05:58 | 02:12:02 | 00:00:00 | |
| IW2NTF | 2026-09-03 06:41:54 | 49.22334 | 8.41722 | 337° | 38km/h | 34280m | -46.5m/s | -35.4°C | 1.4% | 6.7hPa | 2.6V | 03:05:48 | 02:11:55 | 00:00:00 | |
| AA1-15 | 2026-09-03 06:41:49 | 49.22343 | 8.41716 | 337° | 38km/h | 34230m | -52.9m/s | -35.4°C | 0% | 6.8hPa | 2.6V | 03:05:58 | 02:11:56 | 00:00:00 | |
| BIOWL1-15 | 2026-09-03 06:41:48 | 49.22334 | 8.41722 | 338° | 38km/h | 34280m | -46.5m/s | -35.4°C | 0% | 6.7hPa | 2.6V | 03:05:58 | 02:11:55 | 00:00:00 | |
| DL1XH-west | 2026-09-03 06:41:45 | 49.22311 | 8.41734 | 356° | 20km/h | 34387m | -24.6m/s | -35.4°C | 0% | 6.5hPa | 2.7V | 03:05:58 | 02:11:52 | 00:00:00 | |
| SONCRA | 2026-09-03 06:41:45 | 49.22307 | 8.41734 | 13° | 11km/h | 34408m | -17.1m/s | -35.5°C | 0.1% | 6.5hPa | 2.7V | 00:00:00 | 00:00:00 | 00:00:00 | |
| DL1XH-15 | 2026-09-03 06:41:43 | 49.22292 | 8.41728 | 15° | 13km/h | 34403m | 3.9m/s | -35.5°C | 1.4% | 6.5hPa | 2.7V | 03:05:58 | 02:11:45 | 00:00:00 | |
| BIOWL1-15 | 2026-09-03 06:41:39 | 49.22289 | 8.41725 | 41° | 16km/h | 34398m | 5m/s | -35.6°C | 0% | 6.5hPa | 2.7V | 03:06:49 | 02:11:44 | 00:00:00 | |
| HSKMA3-T | 2026-09-03 06:41:38 | 49.22292 | 8.41728 | 16° | 13km/h | 34403m | 3.9m/s | -35.5°C | 0% | 6.5hPa | 2.7V | 03:05:58 | 02:11:45 | 00:00:00 | |
| DL1XH-west | 2026-09-03 06:41:35 | 49.22282 | 8.41710 | 64° | 29km/h | 34388m | 5.2m/s | -35.7°C | 0% | 6.5hPa | 2.6V | 03:06:49 | 02:11:42 | 00:00:00 | |
| DK7TD | 2026-09-03 06:41:32 | 49.22271 | 8.41676 | 59° | 33km/h | 34374m | 4.2m/s | -35.6°C | 0% | 6.5hPa | 2.7V | 03:11:55 | 02:11:39 | 00:00:00 | |
| EDDB2-11 | 2026-09-03 06:41:31 | 49.22262 | 8.41660 | 32° | 24km/h | 34365m | 5.4m/s | -35.8°C | 0.1% | 6.6hPa | 2.7V | 00:00:00 | 00:00:00 | 00:00:00 | |
| DL1XH-15 | 2026-09-03 06:41:30 | 49.22235 | 8.41657 | 7° | 18km/h | 34340m | 5.2m/s | -35.9°C | 1.5% | 6.6hPa | 2.7V | 03:06:11 | 02:11:32 | 00:00:00 | |
| BIOWL1-15 | 2026-09-03 06:41:29 | 49.22245 | 8.41656 | 353° | 22km/h | 34350m | 4.5m/s | -35.9°C | 0% | 6.6hPa | 2.6V | 03:06:49 | 02:11:34 | 00:00:00 | |
| AA1-15 | 2026-09-03 06:41:28 | 49.22251 | 8.41656 | 359° | 22km/h | 34354m | 4.7m/s | -35.8°C | 0% | 6.6hPa | 2.6V | 03:06:49 | 02:11:35 | 00:00:00 | |
| DB0NH | 2026-09-03 06:41:28 | 49.22251 | 8.41656 | 359° | 18km/h | 34355m | 4.6m/s | -35.7°C | 1.4% | 6.5hPa | 2.6V | 00:00:00 | 02:11:35 | 00:00:00 | |
| DL1XH1-15 | 2026-09-03 06:41:27 | 49.22225 | 8.41645 | 59° | 20km/h | 34325m | 4.8m/s | -36°C | 1.5% | 6.6hPa | 2.6V | 03:06:14 | 02:11:29 | 00:00:00 | |
| HSKMA3-T | 2026-09-03 06:41:26 | 49.22240 | 8.41657 | 355° | 22km/h | 34345m | 4.7m/s | -35.9°C | 0% | 6.5hPa | 2.7V | 03:07:40 | 02:11:33 | 00:00:00 | |
| DL1XH-west | 2026-09-03 06:41:25 | 49.22235 | 8.41657 | 8° | 18km/h | 34340m | 5.2m/s | -35.9°C | 0% | 6.6hPa | 2.7V | 03:06:49 | 02:11:32 | 00:00:00 | |
| OE5DRO-10 | 2026-09-03 06:41:24 | 49.22231 | 8.41655 | 29° | 15km/h | 34335m | 5.2m/s | -35.9°C | 1.5% | 6.5hPa | 2.6V | 00:00:00 | 00:00:00 | 00:00:00 | |
| DL0LBS | 2026-09-03 06:41:23 | 49.22231 | 8.41655 | 29° | 16km/h | 34335m | 5.3m/s | -35.9°C | 0.1% | 6.6hPa | 2.6V | 03:06:00 | 00:00:00 | 00:00:00 | |
| GOEST3-10 | 2026-09-03 06:41:22 | 49.22225 | 8.41645 | 60° | 20km/h | 34325m | 4.7m/s | 0°C | 0% | 0hPa | 2.6V | 00:00:00 | 00:00:00 | 00:00:00 | |
| KANTATE | 2026-09-03 06:41:21 | 49.22225 | 8.41645 | 61° | 20km/h | 34325m | 4.8m/s | -36.0°C | 0.1% | 6.6hPa | 2.6V | 03:06:00 | 00:00:00 | 00:00:00 | |
| DL1XH-15 | 2026-09-03 06:41:20 | 49.22205 | 8.41612 | 26° | 15km/h | 34291m | 4.4m/s | -36.1°C | 1.5% | 6.6hPa | 2.6V | 03:06:21 | 02:11:22 | 00:00:00 | |
| CB1BUN | 2026-09-03 06:41:19 | 49.22220 | 8.41631 | 62° | 20km/h | 34316m | 4.8m/s | -36.0°C | 0.1% | 6.6hPa | 2.7V | 03:06:00 | 00:00:00 | 00:00:00 | |
| EDDB2-12 | 2026-09-03 06:41:18 | 49.22211 | 8.41617 | 29° | 13km/h | 34300m | 4.9m/s | -36.0°C | 0.1% | 6.6hPa | 2.7V | 00:00:00 | 00:00:00 | 00:00:00 | |
| DL1XH1-15 | 2026-09-03 06:41:17 | 49.22197 | 8.41602 | 54° | 15km/h | 34276m | 4.8m/s | -36.1°C | 1.5% | 6.7hPa | 2.7V | 03:06:24 | 02:11:19 | 00:00:00 | |
| AA1-15 | 2026-09-03 06:41:17 | 49.22211 | 8.41617 | 29° | 15km/h | 34300m | 4.9m/s | -36°C | 0% | 6.6hPa | 2.7V | 03:06:49 | 02:11:24 | 00:00:00 | |
| HSKMA3-T | 2026-09-03 06:41:16 | 49.22208 | 8.41615 | 24° | 15km/h | 34295m | 4.5m/s | -36°C | 0% | 6.6hPa | 2.7V | 03:07:40 | 02:11:23 | 00:00:00 | |
| DL1XH-west | 2026-09-03 06:41:15 | 49.22205 | 8.41612 | 27° | 15km/h | 34291m | 4.4m/s | -36.1°C | 0% | 6.6hPa | 2.6V | 03:06:49 | 02:11:22 | 00:00:00 | |
| SFWM-10 | 2026-09-03 06:41:15 | 49.22205 | 8.41612 | 28° | 15km/h | 34291m | 4.4m/s | -36.1°C | 0.1% | 6.6hPa | 2.7V | 00:00:00 | 00:00:00 | 00:00:00 | |
| DJTTGO | 2026-09-03 06:41:14 | 49.22202 | 8.41609 | 36° | 15km/h | 34286m | 5.2m/s | -36.2°C | 0.1% | 6.6hPa | 2.7V | 00:00:00 | 00:00:00 | 00:00:00 | |
| DD1CC8 | 2026-09-03 06:41:13 | 49.22199 | 8.41606 | 46° | 13km/h | 34281m | 5.4m/s | -36.1°C | 0.1% | 6.6hPa | 2.7V | 00:00:00 | 00:00:00 | 00:00:00 | |
| OE9MKV-15 | 2026-09-03 06:41:12 | 49.22197 | 8.41601 | 55° | 15km/h | 34276m | 4.7m/s | -36.0°C | 1.5% | 6.6hPa | 2.7V | 00:00:00 | 02:11:19 | 00:00:00 | |
| DK5PH-5 | 2026-09-03 06:41:11 | 49.22195 | 8.41597 | 56° | 16km/h | 34271m | 4.3m/s | -36.1°C | 1.5% | 6.6hPa | 2.7V | 03:06:00 | 02:11:18 | 00:00:00 | |
| DL1XH-15 | 2026-09-03 06:41:10 | 49.22179 | 8.41585 | 6° | 13km/h | 34242m | 4.1m/s | -36.1°C | 1.5% | 6.7hPa | 2.7V | 03:06:31 | 02:11:12 | 00:00:00 | |
| DK7TD | 2026-09-03 06:41:08 | 49.22188 | 8.41587 | 23° | 13km/h | 34257m | 5.5m/s | -36.2°C | 0% | 6.7hPa | 2.6V | 03:11:55 | 02:11:15 | 00:00:00 | |
| DB0UT-7 | 2026-09-03 06:41:08 | 49.22188 | 8.41586 | 23° | 20km/h | 34258m | 5.4m/s | -36.2°C | 1.5% | 6.6hPa | 2.6V | 00:00:00 | 00:00:00 | 00:00:00 | |
| DL1XH1-15 | 2026-09-03 06:41:07 | 49.22172 | 8.41575 | 77° | 18km/h | 34228m | 5.7m/s | -36.1°C | 1.5% | 6.7hPa | 2.7V | 03:06:34 | 02:11:09 | 00:00:00 | |
| DM0DOS-11 | 2026-09-03 06:41:06 | 49.22171 | 8.41567 | 87° | 24km/h | 34223m | 6.2m/s | -36.1°C | 1.5% | 6.7hPa | 2.7V | 03:06:35 | 02:11:08 | 00:00:00 | |
| BIOWL1-15 | 2026-09-03 06:41:06 | 49.22182 | 8.41585 | 360° | 13km/h | 34246m | 5m/s | -36.1°C | 0% | 6.7hPa | 2.7V | 03:06:49 | 02:11:13 | 00:00:00 | |
| DO1YAY-16 | 2026-09-03 06:41:05 | 49.22179 | 8.41585 | 6° | 11km/h | 34242m | 4.1m/s | -36.1°C | 0.1% | 6.7hPa | 2.6V | 00:00:00 | 00:00:00 | 00:00:00 | |
| IW2NTF | 2026-09-03 06:41:04 | 49.22172 | 8.41548 | 94° | 26km/h | 34212m | 3.9m/s | -36.1°C | 1.5% | 6.7hPa | 2.6V | 03:06:37 | 02:11:06 | 00:00:00 | |
| DL1XH-west | 2026-09-03 06:41:04 | 49.22176 | 8.41584 | 28° | 11km/h | 34238m | 3.9m/s | -36.2°C | 0% | 6.7hPa | 2.6V | 03:06:49 | 02:11:11 | 00:00:00 | |
| OE5DXL-15 | 2026-09-03 06:41:04 | 49.22176 | 8.41584 | 28° | 20km/h | 34238m | 3.9m/s | -36.1°C | 1.5% | 6.7hPa | 2.6V | 00:00:00 | 00:00:00 | 00:00:00 | |
| BIOWL7-15 | 2026-09-03 06:41:03 | 49.22176 | 8.41584 | 29° | 11km/h | 34238m | 3.9m/s | -36.2°C | 0.1% | 6.7hPa | 2.7V | 00:00:00 | 00:00:00 | 00:00:00 | |
| DL0LBS | 2026-09-03 06:41:02 | 49.22174 | 8.41580 | 57° | 13km/h | 34234m | 4.4m/s | -36.2°C | 0.1% | 6.7hPa | 2.7V | 03:06:00 | 00:00:00 | 00:00:00 | |
| DL1XH-15 | 2026-09-03 06:41:00 | 49.22168 | 8.41533 | 319° | 15km/h | 34194m | 7.1m/s | -36.1°C | 1.5% | 6.7hPa | 2.7V | 03:06:41 | 02:11:02 | 00:00:00 | |
| EDDB2-11 | 2026-09-03 06:41:00 | 49.22172 | 8.41548 | 94° | 26km/h | 34212m | 3.9m/s | -36.1°C | 0.1% | 6.7hPa | 2.6V | 00:00:00 | 00:00:00 | 00:00:00 | |
| CB1BUN | 2026-09-03 06:40:59 | 49.22172 | 8.41558 | 95° | 27km/h | 34217m | 5.4m/s | -36.1°C | 0.1% | 6.7hPa | 2.6V | 03:06:00 | 00:00:00 | 00:00:00 | |
| HEMX73-11 | 2026-09-03 06:40:58 | 49.22172 | 8.41548 | 96° | 26km/h | 34213m | 3.9m/s | -36.1°C | 0.1% | 6.7hPa | 2.6V | 03:06:00 | 00:00:00 | 00:00:00 | |
| DL1XH1-15 | 2026-09-03 06:40:57 | 49.22158 | 8.41556 | 302° | 26km/h | 34178m | 3.3m/s | -36.1°C | 1.5% | 6.8hPa | 2.6V | 03:06:44 | 02:10:59 | 00:00:00 | |
| DL4BBY-15 | 2026-09-03 06:40:57 | 49.22172 | 8.41533 | 73° | 20km/h | 34206m | 3.7m/s | -36.9°C | 0% | 0hPa | 2.6V | 00:00:00 | 00:00:00 | 00:00:00 | |
| DM0DOS-11 | 2026-09-03 06:40:56 | 49.22155 | 8.41562 | 304° | 16km/h | 34174m | 3m/s | -36.1°C | 1.5% | 6.7hPa | 2.6V | 03:06:45 | 02:10:58 | 00:00:00 | |
| AA1-15 | 2026-09-03 06:40:56 | 49.22171 | 8.41531 | 4° | 7km/h | 34201m | 5.6m/s | -36.1°C | 0% | 6.7hPa | 2.7V | 03:06:49 | 02:11:03 | 00:00:00 | |
| BIOWL1-15 | 2026-09-03 06:40:55 | 49.22168 | 8.41533 | 319° | 15km/h | 34194m | 7.1m/s | -36.1°C | 0% | 6.7hPa | 2.7V | 03:06:49 | 02:11:02 | 00:00:00 | |
| DL1XH-west | 2026-09-03 06:40:54 | 49.22165 | 8.41539 | 308° | 24km/h | 34187m | 6.7m/s | -36.1°C | 0% | 6.8hPa | 2.7V | 03:06:49 | 02:11:01 | 00:00:00 | |
| DK7TD | 2026-09-03 06:40:53 | 49.22161 | 8.41547 | 304° | 29km/h | 34181m | 5m/s | -36.1°C | 0% | 6.7hPa | 2.7V | 03:11:55 | 02:11:00 | 00:00:00 | |
| HARRO8 | 2026-09-03 06:40:50 | 49.22153 | 8.41566 | 319° | 5km/h | 34171m | 4.9m/s | -36.1°C | 0.1% | 6.8hPa | 2.6V | 00:00:00 | 00:00:00 | 00:00:00 | |
| DL1XH-15 | 2026-09-03 06:40:49 | 49.22160 | 8.41518 | 96° | 18km/h | 34141m | 3.1m/s | -36°C | 1.5% | 6.8hPa | 2.6V | 03:06:52 | 02:10:51 | 00:00:00 | |
| IW2NTF | 2026-09-03 06:40:48 | 49.22160 | 8.41514 | 60° | 7km/h | 34136m | 5.1m/s | -36.1°C | 1.5% | 6.8hPa | 2.6V | 03:06:53 | 02:10:50 | 00:00:00 | |
| NBG1-10 | 2026-09-03 06:40:48 | 49.22153 | 8.41560 | 106° | 20km/h | 34158m | 7.1m/s | -36.0°C | 1.5% | 6.7hPa | 2.7V | 00:00:00 | 02:10:55 | 00:00:00 | |
| DL1XH1-15 | 2026-09-03 06:40:47 | 49.22158 | 8.41514 | 318° | 11km/h | 34130m | 7m/s | -36.2°C | 1.5% | 6.8hPa | 2.7V | 03:06:54 | 02:10:49 | 00:00:00 | |
| DM0DOS-11 | 2026-09-03 06:40:46 | 49.22156 | 8.41520 | 302° | 26km/h | 34123m | 7.4m/s | -36.2°C | 1.5% | 6.8hPa | 2.7V | 03:06:55 | 02:10:48 | 00:00:00 | |
| BIOWL1-15 | 2026-09-03 06:40:45 | 49.22159 | 8.41527 | 103° | 27km/h | 34143m | 2.4m/s | -35.9°C | 0% | 6.8hPa | 2.6V | 03:07:40 | 02:10:52 | 00:00:00 | |
| DL1XH-west | 2026-09-03 06:40:43 | 49.22160 | 8.41514 | 60° | 7km/h | 34137m | 5.1m/s | -36.1°C | 0% | 6.8hPa | 2.6V | 03:07:40 | 02:10:50 | 00:00:00 | |
| SONCRA | 2026-09-03 06:40:43 | 49.22159 | 8.41514 | 318° | 11km/h | 34131m | 7.0m/s | -36.2°C | 0.1% | 6.8hPa | 2.7V | 00:00:00 | 00:00:00 | 00:00:00 | |
| OE9MKV-15 | 2026-09-03 06:40:42 | 49.22158 | 8.41514 | 319° | 22km/h | 34131m | 6.9m/s | -36.1°C | 1.5% | 6.7hPa | 2.7V | 00:00:00 | 02:10:49 | 00:00:00 | |
| DK5PH-5 | 2026-09-03 06:40:41 | 49.22156 | 8.41520 | 303° | 20km/h | 34124m | 7.4m/s | -36.2°C | 1.5% | 6.8hPa | 2.7V | 00:00:00 | 02:10:48 | 00:00:00 | |
| KANTATE | 2026-09-03 06:40:40 | 49.22156 | 8.41520 | 303° | 26km/h | 34124m | 7.4m/s | -36.2°C | 0.1% | 6.8hPa | 2.7V | 03:07:00 | 00:00:00 | 00:00:00 | |
| CB1BUN | 2026-09-03 06:40:39 | 49.22148 | 8.41543 | 295° | 38km/h | 34112m | 4.3m/s | -36.1°C | 0.1% | 6.8hPa | 2.7V | 03:07:00 | 00:00:00 | 00:00:00 | |
| SSTOLZ84 | 2026-09-03 06:40:38 | 49.22142 | 8.41566 | 288° | 22km/h | 34104m | 3.6m/s | -36.0°C | 0.1% | 6.8hPa | 2.7V | 00:00:00 | 00:00:00 | 00:00:00 | |
| DL1XH1-15 | 2026-09-03 06:40:37 | 49.22151 | 8.41556 | 127° | 27km/h | 34077m | 5.2m/s | -36°C | 1.5% | 6.8hPa | 2.7V | 03:07:04 | 02:10:39 | 00:00:00 | |
| DM0DOS-11 | 2026-09-03 06:40:36 | 49.22155 | 8.41548 | 132° | 26km/h | 34072m | 4.7m/s | -36°C | 1.5% | 6.9hPa | 2.6V | 03:07:05 | 02:10:38 | 00:00:00 | |
| AA1-15 | 2026-09-03 06:40:35 | 49.22142 | 8.41573 | 155° | 5km/h | 34095m | 5.7m/s | -36°C | 0% | 6.8hPa | 2.7V | 03:07:40 | 02:10:42 | 00:00:00 | |
| BIOWL1-15 | 2026-09-03 06:40:34 | 49.22144 | 8.41571 | 128° | 16km/h | 34089m | 6.2m/s | -36°C | 0% | 6.8hPa | 2.7V | 03:07:40 | 02:10:41 | 00:00:00 | |
| DL1XH-west | 2026-09-03 06:40:32 | 49.22151 | 8.41556 | 128° | 27km/h | 34077m | 5.2m/s | -36°C | 0% | 6.8hPa | 2.7V | 03:07:40 | 02:10:39 | 00:00:00 | |
| DJTTGO | 2026-09-03 06:40:31 | 49.22151 | 8.41556 | 129° | 29km/h | 34078m | 5.2m/s | -36.0°C | 0.1% | 6.8hPa | 2.6V | 03:07:00 | 00:00:00 | 00:00:00 | |
| DJ2KF-10 | 2026-09-03 06:40:30 | 49.22159 | 8.41542 | 144° | 16km/h | 34068m | 4.3m/s | -36.0°C | 1.5% | 6.8hPa | 2.6V | 03:07:00 | 02:10:37 | 00:00:00 | |
| DL3AQ-11 | 2026-09-03 06:40:29 | 49.22163 | 8.41540 | 171° | 11km/h | 34064m | 4.7m/s | -36.1°C | 0.1% | 6.9hPa | 2.7V | 00:00:00 | 00:00:00 | 00:00:00 | |
| DB0UT-9 | 2026-09-03 06:40:28 | 49.22162 | 8.41540 | 172° | 11km/h | 34064m | 4.7m/s | -36.1°C | 0.1% | 6.9hPa | 2.7V | 03:07:00 | 00:00:00 | 00:00:00 | |
| DL1XH1-15 | 2026-09-03 06:40:27 | 49.22150 | 8.41577 | 351° | 16km/h | 34027m | 5.1m/s | -35.7°C | 1.5% | 6.9hPa | 2.7V | 03:07:14 | 02:10:29 | 00:00:00 | |
| DL4BBY-15 | 2026-09-03 06:40:27 | 49.22166 | 8.41545 | 273° | 16km/h | 34053m | 5.7m/s | -36.8°C | 0% | 0hPa | 2.7V | 00:00:00 | 00:00:00 | 00:00:00 | |
| DM0DOS-11 | 2026-09-03 06:40:26 | 49.22147 | 8.41576 | 29° | 13km/h | 34022m | 5.1m/s | -35.7°C | 1.5% | 6.9hPa | 2.7V | 03:07:15 | 02:10:28 | 00:00:00 | |
| DO3MHA-11 | 2026-09-03 06:40:26 | 49.22164 | 8.41552 | 289° | 18km/h | 34048m | 5.4m/s | -35.9°C | 1.5% | 6.8hPa | 2.6V | 00:00:00 | 02:10:33 | 00:00:00 | |
| IW2NTF | 2026-09-03 06:40:25 | 49.22145 | 8.41573 | 67° | 13km/h | 34017m | 4.8m/s | -35.6°C | 1.5% | 6.9hPa | 2.6V | 03:07:16 | 02:10:27 | 00:00:00 | |
| AA1-15 | 2026-09-03 06:40:25 | 49.22162 | 8.41561 | 300° | 26km/h | 34042m | 5m/s | -35.8°C | 0% | 6.9hPa | 2.6V | 03:07:40 | 02:10:32 | 00:00:00 | |
| BIOWL1-15 | 2026-09-03 06:40:23 | 49.22154 | 8.41574 | 326° | 20km/h | 34032m | 4.9m/s | -35.8°C | 0% | 6.9hPa | 2.7V | 03:07:40 | 02:10:30 | 00:00:00 | |
| DL1XH-west | 2026-09-03 06:40:21 | 49.22147 | 8.41576 | 29° | 13km/h | 34022m | 5.1m/s | -35.7°C | 0% | 6.9hPa | 2.7V | 03:07:40 | 02:10:28 | 00:00:00 | |
| DL0LBS | 2026-09-03 06:40:20 | 49.22147 | 8.41576 | 30° | 13km/h | 34022m | 5.1m/s | -35.7°C | 0.1% | 6.9hPa | 2.7V | 03:07:00 | 00:00:00 | 00:00:00 | |
| HARRO8 | 2026-09-03 06:40:19 | 49.22145 | 8.41568 | 99° | 13km/h | 34013m | 4.5m/s | -35.6°C | 0.1% | 6.9hPa | 2.7V | 00:00:00 | 00:00:00 | 00:00:00 | |
| DL1XH1-15 | 2026-09-03 06:40:17 | 49.22170 | 8.41576 | 244° | 16km/h | 33975m | 5.3m/s | -35.6°C | 1.5% | 7hPa | 2.7V | 03:07:24 | 02:10:19 | 00:00:00 | |
| DL3AQ-11 | 2026-09-03 06:40:17 | 49.22154 | 8.41558 | 183° | 18km/h | 33996m | 6.1m/s | -35.6°C | 0.1% | 6.9hPa | 2.7V | 00:00:00 | 00:00:00 | 00:00:00 | |
| DO3MHA-11 | 2026-09-03 06:40:16 | 49.22154 | 8.41558 | 184° | 15km/h | 33997m | 6.0m/s | -35.5°C | 1.5% | 6.9hPa | 2.7V | 00:00:00 | 02:10:23 | 00:00:00 | |
| DM0DOS-11 | 2026-09-03 06:40:15 | 49.22171 | 8.41584 | 312° | 7km/h | 33964m | 5.9m/s | -35.6°C | 1.4% | 7hPa | 2.7V | 03:07:26 | 02:10:17 | 00:00:00 | |
| AA1-15 | 2026-09-03 06:40:14 | 49.22164 | 8.41564 | 218° | 22km/h | 33985m | 4.8m/s | -35.7°C | 0% | 6.9hPa | 2.6V | 03:07:40 | 02:10:21 | 00:00:00 | |
| HSKMA3-T | 2026-09-03 06:40:13 | 49.22167 | 8.41570 | 230° | 20km/h | 33981m | 4.5m/s | -35.7°C | 0% | 6.9hPa | 2.6V | 03:07:40 | 02:10:20 | 00:00:00 | |
| BIOWL1-15 | 2026-09-03 06:40:12 | 49.22170 | 8.41576 | 244° | 16km/h | 33976m | 5.3m/s | -35.6°C | 0% | 7hPa | 2.7V | 03:07:40 | 02:10:19 | 00:00:00 | |
| DL1XH-west | 2026-09-03 06:40:10 | 49.22171 | 8.41584 | 313° | 7km/h | 33964m | 5.9m/s | -35.6°C | 0% | 7hPa | 2.7V | 03:07:40 | 02:10:17 | 00:00:00 | |
| DB0UT-7 | 2026-09-03 06:40:08 | 49.22166 | 8.41584 | 17° | 15km/h | 33954m | 4.5m/s | -35.7°C | 1.4% | 6.9hPa | 2.7V | 00:00:00 | 00:00:00 | 00:00:00 | |
| DL1XH1-15 | 2026-09-03 06:40:07 | 49.22177 | 8.41589 | 197° | 29km/h | 33922m | 5.4m/s | -35.9°C | 1.5% | 7hPa | 2.7V | 03:07:34 | 02:10:09 | 00:00:00 | |
| SSTOLZ84 | 2026-09-03 06:40:07 | 49.22163 | 8.41582 | 54° | 2km/h | 33945m | 4.7m/s | -35.9°C | 0.1% | 7.0hPa | 2.6V | 00:00:00 | 00:00:00 | 00:00:00 | |
| DL3AQ-11 | 2026-09-03 06:40:06 | 49.22164 | 8.41582 | 188° | 5km/h | 33940m | 5.5m/s | -36.0°C | 0.1% | 7.0hPa | 2.6V | 00:00:00 | 00:00:00 | 00:00:00 | |
| DM0DOS-11 | 2026-09-03 06:40:05 | 49.22192 | 8.41595 | 191° | 27km/h | 33912m | 4.6m/s | -36.1°C | 1.5% | 7hPa | 2.6V | 03:07:36 | 02:10:07 | 00:00:00 | |
| AA1-15 | 2026-09-03 06:40:03 | 49.22171 | 8.41585 | 199° | 24km/h | 33928m | 5.8m/s | -35.9°C | 0% | 7hPa | 2.7V | 03:07:40 | 02:10:10 | 00:00:00 | |
| HSKMA3-T | 2026-09-03 06:40:02 | 49.22177 | 8.41589 | 198° | 29km/h | 33922m | 5.4m/s | -36°C | 0% | 7hPa | 2.7V | 03:07:40 | 02:10:09 | 00:00:00 | |
| BIOWL1-15 | 2026-09-03 06:40:01 | 49.22184 | 8.41592 | 196° | 31km/h | 33917m | 4.8m/s | -36°C | 0% | 7hPa | 2.6V | 03:07:40 | 02:10:08 | 00:00:00 | |
| DL1XH-west | 2026-09-03 06:39:59 | 49.22198 | 8.41596 | 184° | 22km/h | 33907m | 5.4m/s | -36.2°C | 0% | 7hPa | 2.6V | 03:07:40 | 02:10:06 | 00:00:00 | |
| EDDB2-11 | 2026-09-03 06:39:58 | 49.22205 | 8.41595 | 149° | 7km/h | 33896m | 5.8m/s | -36.2°C | 0.1% | 7.0hPa | 2.6V | 00:00:00 | 00:00:00 | 00:00:00 | |
| DL1XH1-15 | 2026-09-03 06:39:57 | 49.22205 | 8.41596 | 245° | 9km/h | 33869m | 5.2m/s | -36.5°C | 1.5% | 7hPa | 2.6V | 03:07:44 | 02:09:59 | 00:00:00 | |
| DL4BBY-15 | 2026-09-03 06:39:57 | 49.22205 | 8.41595 | 150° | 15km/h | 33897m | 5.8m/s | -36.9°C | 0% | 0hPa | 2.7V | 00:00:00 | 00:00:00 | 00:00:00 | |
| DO3MHA-11 | 2026-09-03 06:39:56 | 49.22206 | 8.41593 | 96° | 13km/h | 33891m | 5.3m/s | -36.1°C | 1.5% | 7.0hPa | 2.7V | 03:07:00 | 02:10:03 | 00:00:00 | |
| DM0DOS-11 | 2026-09-03 06:39:55 | 49.22209 | 8.41602 | 202° | 16km/h | 33859m | 4.9m/s | -36.6°C | 1.6% | 7.1hPa | 2.7V | 03:07:46 | 02:09:57 | 00:00:00 | |
| AA1-15 | 2026-09-03 06:39:53 | 49.22204 | 8.41593 | 281° | 5km/h | 33874m | 5.7m/s | -36.5°C | 0% | 7.1hPa | 2.6V | 03:08:31 | 02:10:00 | 00:00:00 | |
| HSKMA3-T | 2026-09-03 06:39:52 | 49.22205 | 8.41596 | 246° | 9km/h | 33869m | 5.2m/s | -36.5°C | 0% | 7hPa | 2.6V | 03:09:22 | 02:09:59 | 00:00:00 | |
| BIOWL1-15 | 2026-09-03 06:39:52 | 49.22209 | 8.41602 | 203° | 16km/h | 33859m | 4.9m/s | -36.6°C | 0% | 7.1hPa | 2.7V | 03:08:31 | 02:09:57 | 00:00:00 | |
| IW2NTF | 2026-09-03 06:39:50 | 49.22236 | 8.41590 | 148° | 27km/h | 33831m | 4.7m/s | -36.6°C | 1.6% | 7.1hPa | 2.7V | 03:07:51 | 02:09:52 | 00:00:00 | |
| DL1XH-west | 2026-09-03 06:39:49 | 49.22214 | 8.41603 | 184° | 18km/h | 33854m | 5.6m/s | -36.6°C | 0% | 7.1hPa | 2.7V | 03:08:31 | 02:09:56 | 00:00:00 | |
| OE5DRO-10 | 2026-09-03 06:39:48 | 49.22219 | 8.41603 | 169° | 18km/h | 33848m | 6.3m/s | -36.5°C | 1.5% | 7.0hPa | 2.6V | 00:00:00 | 00:00:00 | 00:00:00 | |
| DL1XH1-15 | 2026-09-03 06:39:47 | 49.22250 | 8.41580 | 175° | 11km/h | 33816m | 5.8m/s | -36.7°C | 1.6% | 7.1hPa | 2.6V | 03:07:54 | 02:09:49 | 00:00:00 | |
| DO3MHA-11 | 2026-09-03 06:39:46 | 49.22230 | 8.41596 | 151° | 16km/h | 33837m | 5.2m/s | -36.6°C | 1.5% | 7.0hPa | 2.7V | 00:00:00 | 02:09:53 | 00:00:00 | |
| DM0DOS-11 | 2026-09-03 06:39:45 | 49.22253 | 8.41584 | 271° | 9km/h | 33804m | 5.3m/s | -36.5°C | 1.5% | 7.1hPa | 2.7V | 03:07:56 | 02:09:47 | 00:00:00 | |
| AA1-15 | 2026-09-03 06:39:43 | 49.22246 | 8.41582 | 158° | 18km/h | 33822m | 5.4m/s | -36.7°C | 0% | 7.1hPa | 2.6V | 03:08:31 | 02:09:50 | 00:00:00 | |
| HSKMA3-T | 2026-09-03 06:39:42 | 49.22250 | 8.41581 | 176° | 13km/h | 33816m | 5.8m/s | -36.7°C | 0% | 7.1hPa | 2.6V | 03:09:22 | 02:09:49 | 00:00:00 | |
| NBG1-10 | 2026-09-03 06:39:42 | 49.22250 | 8.41580 | 176° | 18km/h | 33816m | 5.8m/s | -36.7°C | 1.6% | 7.1hPa | 2.6V | 03:07:00 | 02:09:49 | 00:00:00 | |
| DK5PH-5 | 2026-09-03 06:39:41 | 49.22252 | 8.41581 | 218° | 20km/h | 33811m | 5.6m/s | -36.5°C | 1.5% | 7.1hPa | 2.7V | 00:00:00 | 02:09:48 | 00:00:00 | |
| IW2NTF | 2026-09-03 06:39:40 | 49.22241 | 8.41587 | 50° | 15km/h | 33777m | 5.8m/s | -36.6°C | 1.6% | 7.1hPa | 2.7V | 03:08:01 | 02:09:42 | 00:00:00 | |
| DL1XH-west | 2026-09-03 06:39:39 | 49.22252 | 8.41587 | 305° | 11km/h | 33799m | 5m/s | -36.6°C | 0% | 7.1hPa | 2.6V | 03:08:31 | 02:09:46 | 00:00:00 | |
| DB0UT-7 | 2026-09-03 06:39:38 | 49.22250 | 8.41590 | 331° | 20km/h | 33795m | 4.9m/s | -36.6°C | 1.6% | 7.1hPa | 2.6V | 03:07:00 | 02:09:45 | 00:00:00 | |
| DL3AQ-11 | 2026-09-03 06:39:37 | 49.22244 | 8.41590 | 24° | 13km/h | 33783m | 6.1m/s | -36.7°C | 0.1% | 7.2hPa | 2.7V | 00:00:00 | 00:00:00 | 00:00:00 | |
| SSTOLZ84 | 2026-09-03 06:39:36 | 49.22241 | 8.41587 | 50° | 15km/h | 33778m | 5.8m/s | -36.7°C | 0.1% | 7.1hPa | 2.7V | 00:00:00 | 00:00:00 | 00:00:00 | |
| DM0DOS-11 | 2026-09-03 06:39:35 | 49.22248 | 8.41570 | 200° | 20km/h | 33752m | 6.6m/s | -36.7°C | 1.5% | 7.2hPa | 2.7V | 03:08:06 | 02:09:37 | 00:00:00 | |
| AA1-15 | 2026-09-03 06:39:32 | 49.22241 | 8.41571 | 135° | 13km/h | 33763m | 4.3m/s | -36.7°C | 0% | 7.2hPa | 2.7V | 03:08:31 | 02:09:39 | 00:00:00 | |
| DL1XH-west | 2026-09-03 06:39:28 | 49.22257 | 8.41582 | 234° | 27km/h | 33740m | 5.1m/s | -36.8°C | 0% | 7.2hPa | 2.6V | 03:08:31 | 02:09:35 | 00:00:00 | |
| EDDB2-11 | 2026-09-03 06:39:27 | 49.22262 | 8.41599 | 265° | 18km/h | 33732m | 3.5m/s | -36.8°C | 0.1% | 7.2hPa | 2.6V | 00:00:00 | 00:00:00 | 00:00:00 | |
| DL3AQ-11 | 2026-09-03 06:39:26 | 49.22261 | 8.41605 | 297° | 13km/h | 33728m | 4.8m/s | -36.8°C | 0.1% | 7.2hPa | 2.6V | 00:00:00 | 00:00:00 | 00:00:00 | |
| DM0DOS-11 | 2026-09-03 06:39:25 | 49.22243 | 8.41581 | 76° | 26km/h | 33700m | 2.6m/s | -36.9°C | 1.6% | 7.2hPa | 2.6V | 03:08:16 | 02:09:27 | 00:00:00 | |
| DK7TD | 2026-09-03 06:39:22 | 49.22250 | 8.41600 | 47° | 27km/h | 33708m | 6m/s | -36.8°C | 0% | 7.2hPa | 2.6V | 03:11:55 | 02:09:29 | 00:00:00 | |
| AA1-15 | 2026-09-03 06:39:21 | 49.22246 | 8.41591 | 61° | 29km/h | 33703m | 3.8m/s | -36.8°C | 0% | 7.2hPa | 2.6V | 03:08:31 | 02:09:28 | 00:00:00 | |
| BIOWL1-15 | 2026-09-03 06:39:21 | 49.22249 | 8.41567 | 188° | 22km/h | 33686m | 7.1m/s | -36.9°C | 0% | 7.2hPa | 2.7V | 03:08:31 | 02:09:24 | 00:00:00 | |
| DL1XH-west | 2026-09-03 06:39:18 | 49.22245 | 8.41568 | 144° | 15km/h | 33692m | 5.9m/s | -36.8°C | 0% | 7.2hPa | 2.7V | 03:08:31 | 02:09:25 | 00:00:00 | |
| HARRO8 | 2026-09-03 06:39:17 | 49.22256 | 8.41570 | 207° | 31km/h | 33679m | 6.8m/s | -36.9°C | 0.1% | 7.3hPa | 2.7V | 00:00:00 | 00:00:00 | 00:00:00 | |
| DO3MHA-11 | 2026-09-03 06:39:16 | 49.22256 | 8.41570 | 208° | 24km/h | 33679m | 6.8m/s | -36.9°C | 1.6% | 7.2hPa | 2.7V | 03:08:00 | 02:09:23 | 00:00:00 | |
| DM0DOS-11 | 2026-09-03 06:39:15 | 49.22284 | 8.41609 | 45° | 5km/h | 33649m | 6.5m/s | -37°C | 1.6% | 7.3hPa | 2.7V | 03:08:26 | 02:09:17 | 00:00:00 | |
| AA1-15 | 2026-09-03 06:39:11 | 49.22284 | 8.41609 | 235° | 7km/h | 33655m | 5.6m/s | -36.9°C | 0% | 7.3hPa | 2.7V | 03:08:31 | 02:09:18 | 00:00:00 | |
| HSKMA3-T | 2026-09-03 06:39:10 | 49.22284 | 8.41609 | 46° | 5km/h | 33649m | 6.5m/s | -37°C | 0% | 7.3hPa | 2.7V | 03:09:22 | 02:09:17 | 00:00:00 | |
| BIOWL1-15 | 2026-09-03 06:39:07 | 49.22275 | 8.41591 | 57° | 24km/h | 33631m | 5m/s | -36.9°C | 0% | 7.3hPa | 2.7V | 03:08:31 | 02:09:14 | 00:00:00 | |
| OE9MKV-15 | 2026-09-03 06:39:07 | 49.22275 | 8.41591 | 58° | 15km/h | 33631m | 5.0m/s | 0°C | 0% | 0hPa | 2.6V | 00:00:00 | 02:09:14 | 00:00:00 | |
| DO3MHA-11 | 2026-09-03 06:39:06 | 49.22272 | 8.41584 | 62° | 16km/h | 33626m | 4.5m/s | -36.8°C | 1.6% | 7.3hPa | 2.6V | 00:00:00 | 02:09:13 | 00:00:00 | |
| DM0DOS-11 | 2026-09-03 06:39:05 | 49.22284 | 8.41594 | 222° | 26km/h | 33594m | 5.4m/s | -37°C | 1.6% | 7.3hPa | 2.6V | 03:08:36 | 02:09:07 | 00:00:00 | |
| AA1-15 | 2026-09-03 06:39:01 | 49.22280 | 8.41588 | 223° | 26km/h | 33600m | 5.6m/s | -37.1°C | 0% | 7.3hPa | 2.7V | 03:09:22 | 02:09:08 | 00:00:00 | |
| HSKMA3-T | 2026-09-03 06:39:00 | 49.22284 | 8.41594 | 223° | 26km/h | 33594m | 5.4m/s | -37°C | 0% | 7.4hPa | 2.6V | 03:09:22 | 02:09:07 | 00:00:00 | |
| DJ2KF-10 | 2026-09-03 06:39:00 | 49.22284 | 8.41594 | 223° | 13km/h | 33594m | 5.3m/s | -37.0°C | 1.6% | 7.3hPa | 2.6V | 00:00:00 | 02:09:07 | 00:00:00 | |
| IW2NTF | 2026-09-03 06:38:58 | 49.22290 | 8.41609 | 346° | 9km/h | 33558m | 5m/s | -37°C | 1.6% | 7.4hPa | 2.7V | 03:08:43 | 02:09:00 | 00:00:00 | |
| BIOWL1-15 | 2026-09-03 06:38:58 | 49.22295 | 8.41609 | 281° | 0km/h | 33573m | 5m/s | -36.9°C | 0% | 7.4hPa | 2.7V | 03:09:22 | 02:09:03 | 00:00:00 | |
| DL1XH-west | 2026-09-03 06:38:57 | 49.22294 | 8.41608 | 221° | 7km/h | 33578m | 5.3m/s | -37°C | 0% | 7.4hPa | 2.7V | 03:09:22 | 02:09:04 | 00:00:00 | |
| AA1-15 | 2026-09-03 06:38:51 | 49.22287 | 8.41615 | 291° | 15km/h | 33547m | 5.9m/s | -36.8°C | 0% | 7.4hPa | 2.7V | 03:09:22 | 02:08:58 | 00:00:00 | |
| HSKMA3-T | 2026-09-03 06:38:49 | 49.22286 | 8.41628 | 263° | 20km/h | 33536m | 5.1m/s | -36.8°C | 0% | 7.4hPa | 2.6V | 03:09:22 | 02:08:56 | 00:00:00 | |
| DB0NH | 2026-09-03 06:38:49 | 49.22286 | 8.41628 | 263° | 16km/h | 33537m | 5.0m/s | -36.8°C | 1.6% | 7.4hPa | 2.6V | 00:00:00 | 02:08:56 | 00:00:00 | |
| DL1XH-15 | 2026-09-03 06:38:48 | 49.22299 | 8.41647 | 145° | 9km/h | 33505m | 4.5m/s | -36.6°C | 1.6% | 7.5hPa | 2.6V | 03:08:53 | 02:08:50 | 00:00:00 | |
| DL1XH1-15 | 2026-09-03 06:38:47 | 49.22300 | 8.41645 | 149° | 7km/h | 33501m | 4.1m/s | -36.5°C | 1.6% | 7.5hPa | 2.6V | 03:08:54 | 02:08:49 | 00:00:00 | |
| DK7TD | 2026-09-03 06:38:47 | 49.22289 | 8.41642 | 239° | 16km/h | 33527m | 4.5m/s | -36.8°C | 0% | 7.4hPa | 2.7V | 03:11:55 | 02:08:54 | 00:00:00 | |
| SONDE2-11 | 2026-09-03 06:38:47 | 49.22291 | 8.41647 | 219° | 13km/h | 33522m | 5.4m/s | -36.8°C | 0.1% | 7.4hPa | 2.7V | 00:00:00 | 00:00:00 | 00:00:00 | |
| BIOWL1-15 | 2026-09-03 06:38:47 | 49.22291 | 8.41647 | 220° | 15km/h | 33522m | 5.4m/s | -36.8°C | 0% | 7.4hPa | 2.7V | 03:09:22 | 02:08:53 | 00:00:00 | |
| HARRO8 | 2026-09-03 06:38:46 | 49.22291 | 8.41647 | 219° | 13km/h | 33522m | 5.4m/s | -36.8°C | 0.1% | 7.4hPa | 2.7V | 00:00:00 | 00:00:00 | 00:00:00 | |
| DL3AQ-11 | 2026-09-03 06:38:45 | 49.22294 | 8.41649 | 193° | 9km/h | 33516m | 6.2m/s | -36.7°C | 0.1% | 7.5hPa | 2.7V | 00:00:00 | 00:00:00 | 00:00:00 | |
| IW2NTF | 2026-09-03 06:38:44 | 49.22303 | 8.41652 | 266° | 16km/h | 33485m | 6.3m/s | -36.6°C | 1.6% | 7.5hPa | 2.7V | 03:08:57 | 02:08:46 | 00:00:00 | |
| AA1-15 | 2026-09-03 06:38:40 | 49.22302 | 8.41647 | 256° | 9km/h | 33491m | 6m/s | -36.6°C | 0% | 7.5hPa | 2.7V | 03:09:22 | 02:08:47 | 00:00:00 | |
| DL8DAS-15 | 2026-09-03 06:38:39 | 49.22302 | 8.41647 | 257° | 9km/h | 33491m | 6.0m/s | -36.6°C | 0.1% | 7.5hPa | 2.7V | 00:00:00 | 00:00:00 | 00:00:00 | |
| DL1XH-15 | 2026-09-03 06:38:38 | 49.22305 | 8.41694 | 196° | 5km/h | 33455m | 6m/s | -36.5°C | 1.6% | 7.5hPa | 2.7V | 03:09:03 | 02:08:40 | 00:00:00 | |
| BIOWL1-15 | 2026-09-03 06:38:38 | 49.22303 | 8.41678 | 267° | 24km/h | 33470m | 3.8m/s | -36.5°C | 0% | 7.5hPa | 2.6V | 03:09:22 | 02:08:43 | 00:00:00 | |
| DB0UT-7 | 2026-09-03 06:38:38 | 49.22303 | 8.41659 | 270° | 18km/h | 33480m | 5.5m/s | -36.6°C | 1.6% | 7.4hPa | 2.7V | 00:00:00 | 02:08:45 | 00:00:00 | |
| DL1XH1-15 | 2026-09-03 06:38:37 | 49.22307 | 8.41693 | 136° | 9km/h | 33449m | 5.6m/s | -36.4°C | 1.6% | 7.5hPa | 2.7V | 03:09:04 | 02:08:39 | 00:00:00 | |
| DK7TD | 2026-09-03 06:38:37 | 49.22303 | 8.41669 | 268° | 26km/h | 33474m | 4.4m/s | -36.5°C | 0% | 7.5hPa | 2.7V | 03:11:55 | 02:08:44 | 00:00:00 | |
| DL1XH-west | 2026-09-03 06:38:35 | 49.22304 | 8.41686 | 262° | 18km/h | 33466m | 4.2m/s | -36.5°C | 0% | 7.5hPa | 2.6V | 03:09:22 | 02:08:42 | 00:00:00 | |
| DJ2DS-15 | 2026-09-03 06:38:35 | 49.22303 | 8.41686 | 263° | 15km/h | 33466m | 4.2m/s | -36.5°C | 1.6% | 7.4hPa | 2.6V | 00:00:00 | 02:08:42 | 00:00:00 | |
| IW2NTF | 2026-09-03 06:38:34 | 49.22314 | 8.41684 | 161° | 13km/h | 33436m | 4.4m/s | -36.5°C | 1.6% | 7.5hPa | 2.6V | 03:09:07 | 02:08:36 | 00:00:00 | |
| AA1-15 | 2026-09-03 06:38:30 | 49.22311 | 8.41686 | 140° | 15km/h | 33440m | 3.8m/s | -36.4°C | 0% | 7.5hPa | 2.6V | 03:09:22 | 02:08:37 | 00:00:00 | |
| DJ2KF-10 | 2026-09-03 06:38:30 | 49.22311 | 8.41686 | 140° | 16km/h | 33440m | 3.8m/s | -36.4°C | 1.6% | 7.5hPa | 2.7V | 03:09:00 | 02:08:37 | 00:00:00 | |
| DL3AQ-11 | 2026-09-03 06:38:29 | 49.22314 | 8.41684 | 161° | 11km/h | 33436m | 4.4m/s | -36.5°C | 0.1% | 7.5hPa | 2.7V | 00:00:00 | 00:00:00 | 00:00:00 | |
| DL8DAS-15 | 2026-09-03 06:38:28 | 49.22314 | 8.41684 | 163° | 13km/h | 33436m | 4.4m/s | -36.5°C | 0.1% | 7.5hPa | 2.7V | 00:00:00 | 00:00:00 | 00:00:00 | |
| DL1XH1-15 | 2026-09-03 06:38:27 | 49.22330 | 8.41728 | 256° | 15km/h | 33401m | 5.4m/s | -36.3°C | 1.5% | 7.6hPa | 2.7V | 03:09:14 | 02:08:29 | 00:00:00 | |
| DL1XH-west | 2026-09-03 06:38:25 | 49.22326 | 8.41702 | 251° | 27km/h | 33415m | 4.7m/s | -36.4°C | 0% | 7.6hPa | 2.6V | 03:09:22 | 02:08:32 | 00:00:00 | |
| IW2NTF | 2026-09-03 06:38:24 | 49.22334 | 8.41730 | 141° | 13km/h | 33384m | 4.6m/s | -36.2°C | 1.5% | 7.6hPa | 2.7V | 03:09:17 | 02:08:26 | 00:00:00 | |
| DK7TD | 2026-09-03 06:38:23 | 49.22329 | 8.41721 | 259° | 22km/h | 33405m | 4.6m/s | -36.3°C | 0% | 7.5hPa | 2.6V | 03:11:55 | 02:08:30 | 00:00:00 | |
| AA1-15 | 2026-09-03 06:38:19 | 49.22334 | 8.41730 | 141° | 13km/h | 33384m | 4.6m/s | -36.2°C | 0% | 7.6hPa | 2.7V | 03:09:22 | 02:08:26 | 00:00:00 | |
| DB0NH | 2026-09-03 06:38:19 | 49.22334 | 8.41730 | 142° | 18km/h | 33385m | 4.5m/s | -36.2°C | 1.5% | 7.5hPa | 2.7V | 03:09:00 | 02:08:26 | 00:00:00 | |
| DL1XH1-15 | 2026-09-03 06:38:17 | 49.22367 | 8.41748 | 236° | 29km/h | 33350m | 4.2m/s | -36.3°C | 1.5% | 7.6hPa | 2.7V | 03:09:24 | 02:08:19 | 00:00:00 | |
| DL3AQ-11 | 2026-09-03 06:38:17 | 49.22346 | 8.41723 | 182° | 20km/h | 33372m | 5.5m/s | -36.3°C | 0.1% | 7.6hPa | 2.6V | 00:00:00 | 00:00:00 | 00:00:00 | |
| DO3MHA-11 | 2026-09-03 06:38:16 | 49.22346 | 8.41723 | 183° | 20km/h | 33372m | 5.5m/s | -36.3°C | 1.5% | 7.6hPa | 2.6V | 00:00:00 | 02:08:23 | 00:00:00 | |
| DM0DOS-11 | 2026-09-03 06:38:15 | 49.22373 | 8.41764 | 248° | 16km/h | 33341m | 5.2m/s | -36.4°C | 1.5% | 7.6hPa | 2.6V | 03:09:26 | 02:08:17 | 00:00:00 | |
| BIOWL1-15 | 2026-09-03 06:38:15 | 49.22351 | 8.41725 | 203° | 24km/h | 33366m | 6.1m/s | -36.3°C | 0% | 7.6hPa | 2.7V | 03:09:22 | 02:08:22 | 00:00:00 | |
| DK7TD | 2026-09-03 06:38:11 | 49.22371 | 8.41757 | 243° | 24km/h | 33346m | 4m/s | -36.4°C | 0% | 7.6hPa | 2.6V | 03:11:55 | 02:08:18 | 00:00:00 | |
| HSKMA3-T | 2026-09-03 06:38:09 | 49.22374 | 8.41768 | 261° | 7km/h | 33335m | 6.1m/s | -36.4°C | 0% | 7.7hPa | 2.6V | 03:10:13 | 02:08:16 | 00:00:00 | |
| AA1-15 | 2026-09-03 06:38:08 | 49.22374 | 8.41769 | 29° | 4km/h | 33329m | 5.8m/s | -36.4°C | 0% | 7.6hPa | 2.7V | 03:10:13 | 02:08:15 | 00:00:00 | |
| DB0UT-7 | 2026-09-03 06:38:08 | 49.22373 | 8.41769 | 30° | 20km/h | 33330m | 5.7m/s | -36.4°C | 1.6% | 7.6hPa | 2.7V | 00:00:00 | 00:00:00 | 00:00:00 | |
| DL1XH1-15 | 2026-09-03 06:38:07 | 49.22377 | 8.41762 | 216° | 20km/h | 33300m | 5.7m/s | -36.3°C | 1.5% | 7.7hPa | 2.7V | 03:09:34 | 02:08:09 | 00:00:00 | |
| DD1CC8 | 2026-09-03 06:38:07 | 49.22372 | 8.41764 | 73° | 9km/h | 33320m | 3.9m/s | -36.3°C | 0.1% | 7.7hPa | 2.6V | 00:00:00 | 00:00:00 | 00:00:00 | |
| DO3MHA-11 | 2026-09-03 06:38:06 | 49.22372 | 8.41764 | 74° | 20km/h | 33320m | 3.8m/s | -36.3°C | 1.5% | 7.6hPa | 2.6V | 00:00:00 | 02:08:13 | 00:00:00 | |
| DM0DOS-11 | 2026-09-03 06:38:05 | 49.22388 | 8.41775 | 215° | 33km/h | 33290m | 4.6m/s | -36.3°C | 1.5% | 7.7hPa | 2.6V | 03:09:36 | 02:08:07 | 00:00:00 | |
| BIOWL1-15 | 2026-09-03 06:38:05 | 49.22371 | 8.41760 | 88° | 7km/h | 33316m | 3.8m/s | -36.4°C | 0% | 7.7hPa | 2.6V | 03:10:13 | 02:08:12 | 00:00:00 | |
| IW2NTF | 2026-09-03 06:38:04 | 49.22395 | 8.41782 | 210° | 33km/h | 33286m | 4m/s | -36.4°C | 1.5% | 7.7hPa | 2.6V | 03:09:37 | 02:08:06 | 00:00:00 | |
| HSKMA3-T | 2026-09-03 06:37:59 | 49.22395 | 8.41782 | 211° | 33km/h | 33286m | 4m/s | -36.4°C | 0% | 7.7hPa | 2.6V | 03:10:13 | 02:08:06 | 00:00:00 | |
| DL1XH-15 | 2026-09-03 06:37:58 | 49.22422 | 8.41781 | 96° | 7km/h | 33257m | 4.2m/s | -36.4°C | 1.6% | 7.7hPa | 2.6V | 03:09:43 | 02:08:00 | 00:00:00 | |
| AA1-15 | 2026-09-03 06:37:58 | 49.22402 | 8.41787 | 203° | 31km/h | 33281m | 4.3m/s | -36.4°C | 0% | 7.7hPa | 2.6V | 03:10:13 | 02:08:05 | 00:00:00 | |
| DL4BBY-15 | 2026-09-03 06:37:57 | 49.22409 | 8.41790 | 191° | 22km/h | 33277m | 5.4m/s | -37.2°C | 0% | 0hPa | 2.7V | 00:00:00 | 00:00:00 | 00:00:00 | |
| DO3MHA-11 | 2026-09-03 06:37:56 | 49.22415 | 8.41791 | 172° | 15km/h | 33271m | 5.5m/s | -36.4°C | 1.5% | 7.7hPa | 2.7V | 03:09:00 | 02:08:03 | 00:00:00 | |
| DL0LBS | 2026-09-03 06:37:55 | 49.22415 | 8.41791 | 172° | 18km/h | 33271m | 5.5m/s | -36.4°C | 0.1% | 7.7hPa | 2.7V | 03:10:00 | 00:00:00 | 00:00:00 | |
| IW2NTF | 2026-09-03 06:37:54 | 49.22424 | 8.41789 | 237° | 20km/h | 33237m | 4.7m/s | -36.5°C | 1.5% | 7.8hPa | 2.7V | 03:09:47 | 02:07:56 | 00:00:00 | |
| DL1XH-west | 2026-09-03 06:37:54 | 49.22421 | 8.41785 | 117° | 11km/h | 33261m | 4.6m/s | -36.4°C | 0% | 7.7hPa | 2.7V | 03:10:13 | 02:08:01 | 00:00:00 | |
| DK7TD | 2026-09-03 06:37:53 | 49.22421 | 8.41781 | 97° | 7km/h | 33257m | 4.2m/s | -36.4°C | 0% | 7.7hPa | 2.6V | 03:11:55 | 02:08:00 | 00:00:00 | |
| DL3AQ-11 | 2026-09-03 06:37:50 | 49.22424 | 8.41789 | 237° | 20km/h | 33237m | 4.7m/s | -36.5°C | 0.1% | 7.8hPa | 2.7V | 00:00:00 | 00:00:00 | 00:00:00 | |
| HTAHTA | 2026-09-03 06:37:49 | 49.22433 | 8.41802 | 211° | 29km/h | 33228m | 4.3m/s | -36.7°C | -1.0% | 7.7hPa | 2.7V | 00:00:00 | 00:00:00 | 00:00:00 | |
| DL1XH-15 | 2026-09-03 06:37:48 | 49.22467 | 8.41803 | 156° | 38km/h | 33207m | 4.8m/s | -36.7°C | 1.6% | 7.8hPa | 2.7V | 03:09:53 | 02:07:50 | 00:00:00 | |
| AA1-15 | 2026-09-03 06:37:48 | 49.22428 | 8.41795 | 225° | 26km/h | 33232m | 4.3m/s | -36.6°C | 0% | 7.8hPa | 2.7V | 03:10:13 | 02:07:55 | 00:00:00 | |
| DL1XH1-15 | 2026-09-03 06:37:47 | 49.22475 | 8.41796 | 150° | 35km/h | 33202m | 3.7m/s | -36.7°C | 1.6% | 7.8hPa | 2.6V | 03:09:54 | 02:07:49 | 00:00:00 | |
| HSKMA3-T | 2026-09-03 06:37:46 | 49.22440 | 8.41807 | 197° | 33km/h | 33223m | 5.1m/s | -36.7°C | 0% | 7.8hPa | 2.6V | 03:10:13 | 02:07:53 | 00:00:00 | |
| DO3MHA-11 | 2026-09-03 06:37:46 | 49.22440 | 8.41806 | 197° | 27km/h | 33224m | 5.0m/s | -36.6°C | 1.5% | 7.7hPa | 2.6V | 00:00:00 | 02:07:53 | 00:00:00 | |
| DM0DOS-11 | 2026-09-03 06:37:45 | 49.22488 | 8.41786 | 156° | 20km/h | 33195m | 4.6m/s | -36.6°C | 1.6% | 7.8hPa | 2.6V | 03:09:56 | 02:07:47 | 00:00:00 | |
| IW2NTF | 2026-09-03 06:37:44 | 49.22491 | 8.41785 | 184° | 13km/h | 33190m | 5.9m/s | -36.7°C | 1.6% | 7.8hPa | 2.7V | 03:09:57 | 02:07:46 | 00:00:00 | |
| DL1XH-west | 2026-09-03 06:37:43 | 49.22467 | 8.41803 | 157° | 38km/h | 33207m | 4.8m/s | -36.7°C | 0% | 7.8hPa | 2.7V | 03:10:13 | 02:07:50 | 00:00:00 | |
| DK5PH-5 | 2026-09-03 06:37:41 | 49.22482 | 8.41790 | 150° | 20km/h | 33199m | 3.3m/s | -36.5°C | 1.6% | 7.7hPa | 2.6V | 00:00:00 | 02:07:48 | 00:00:00 | |
| EDDB2-12 | 2026-09-03 06:37:40 | 49.22487 | 8.41786 | 156° | 18km/h | 33195m | 4.6m/s | -36.6°C | 0.1% | 7.8hPa | 2.6V | 00:00:00 | 00:00:00 | 00:00:00 | |
| DF3TZ-5 | 2026-09-03 06:37:39 | 49.22494 | 8.41787 | 241° | 11km/h | 33184m | 6.2m/s | -36.7°C | 0.1% | 7.8hPa | 2.6V | 00:00:00 | 00:00:00 | 00:00:00 | |
| DL1XH-15 | 2026-09-03 06:37:38 | 49.22498 | 8.41823 | 225° | 16km/h | 33159m | 5.3m/s | -36.8°C | 1.5% | 7.8hPa | 2.6V | 03:10:03 | 02:07:40 | 00:00:00 | |
| DB0UT-7 | 2026-09-03 06:37:38 | 49.22493 | 8.41787 | 242° | 18km/h | 33184m | 6.1m/s | -36.6°C | 1.6% | 7.8hPa | 2.7V | 03:09:00 | 02:07:45 | 00:00:00 | |
| DL1XH1-15 | 2026-09-03 06:37:37 | 49.22502 | 8.41826 | 193° | 18km/h | 33154m | 5.3m/s | -36.8°C | 1.5% | 7.8hPa | 2.7V | 03:10:04 | 02:07:39 | 00:00:00 | |
| AA1-15 | 2026-09-03 06:37:37 | 49.22495 | 8.41793 | 265° | 18km/h | 33178m | 5.5m/s | -36.6°C | 0% | 7.8hPa | 2.7V | 03:10:13 | 02:07:44 | 00:00:00 | |
| DL3AQ-11 | 2026-09-03 06:37:37 | 49.22495 | 8.41801 | 269° | 22km/h | 33174m | 4.5m/s | -36.6°C | 0.1% | 7.8hPa | 2.7V | 00:00:00 | 00:00:00 | 00:00:00 | |
| DD1CC8 | 2026-09-03 06:37:36 | 49.22495 | 8.41809 | 265° | 22km/h | 33169m | 3.9m/s | -36.7°C | 0.1% | 7.8hPa | 2.7V | 00:00:00 | 00:00:00 | 00:00:00 | |
| DM0DOS-11 | 2026-09-03 06:37:35 | 49.22514 | 8.41826 | 172° | 29km/h | 33144m | 4.7m/s | -36.9°C | 1.6% | 7.8hPa | 2.7V | 03:10:06 | 02:07:37 | 00:00:00 | |
| HSKMA3-T | 2026-09-03 06:37:35 | 49.22495 | 8.41809 | 266° | 22km/h | 33169m | 3.9m/s | -36.7°C | 0% | 7.8hPa | 2.6V | 03:10:13 | 02:07:42 | 00:00:00 | |
| DJ2DS-15 | 2026-09-03 06:37:35 | 49.22495 | 8.41809 | 266° | 18km/h | 33169m | 3.8m/s | -36.7°C | 1.5% | 7.8hPa | 2.6V | 00:00:00 | 02:07:42 | 00:00:00 | |
| IW2NTF | 2026-09-03 06:37:34 | 49.22521 | 8.41824 | 173° | 31km/h | 33139m | 4.8m/s | -36.9°C | 1.6% | 7.9hPa | 2.6V | 03:10:07 | 02:07:36 | 00:00:00 | |
| DL1XH-west | 2026-09-03 06:37:32 | 49.22502 | 8.41826 | 193° | 18km/h | 33154m | 5.3m/s | -36.8°C | 0% | 7.8hPa | 2.7V | 03:10:13 | 02:07:39 | 00:00:00 | |
| SSTOLZ84 | 2026-09-03 06:37:31 | 49.22514 | 8.41826 | 172° | 27km/h | 33144m | 4.7m/s | -36.9°C | 0.1% | 7.8hPa | 2.7V | 00:00:00 | 00:00:00 | 00:00:00 | |
| DJ2KF-10 | 2026-09-03 06:37:30 | 49.22514 | 8.41826 | 173° | 18km/h | 33145m | 4.7m/s | -36.8°C | 1.6% | 7.8hPa | 2.7V | 00:00:00 | 02:07:37 | 00:00:00 | |
| DO1YAY-16 | 2026-09-03 06:37:28 | 49.22529 | 8.41824 | 180° | 27km/h | 33135m | 4.8m/s | -36.9°C | 0.1% | 7.9hPa | 2.6V | 00:00:00 | 00:00:00 | 00:00:00 | |
| DL1XH1-15 | 2026-09-03 06:37:27 | 49.22546 | 8.41849 | 295° | 15km/h | 33105m | 5.9m/s | -37°C | 1.6% | 7.9hPa | 2.6V | 03:10:14 | 02:07:29 | 00:00:00 | |
| AA1-15 | 2026-09-03 06:37:26 | 49.22541 | 8.41828 | 210° | 22km/h | 33125m | 4.6m/s | -36.9°C | 0% | 7.9hPa | 2.7V | 03:10:13 | 02:07:33 | 00:00:00 | |
| DL3AQ-11 | 2026-09-03 06:37:26 | 49.22545 | 8.41833 | 232° | 16km/h | 33121m | 4.5m/s | -36.9°C | 0.1% | 7.9hPa | 2.7V | 00:00:00 | 00:00:00 | 00:00:00 | |
| DB0ND-19 | 2026-09-03 06:37:25 | 49.22545 | 8.41833 | 232° | 16km/h | 33121m | 4.5m/s | -36.9°C | 0.1% | 7.9hPa | 2.7V | 00:00:00 | 00:00:00 | 00:00:00 | |
| IW2NTF | 2026-09-03 06:37:24 | 49.22541 | 8.41861 | 286° | 11km/h | 33090m | 3.7m/s | -37°C | 1.6% | 7.9hPa | 2.7V | 03:10:17 | 02:07:26 | 00:00:00 | |
| HSKMA3-T | 2026-09-03 06:37:23 | 49.22547 | 8.41844 | 278° | 15km/h | 33111m | 5.5m/s | -37°C | 0% | 7.9hPa | 2.6V | 03:10:13 | 02:07:30 | 00:00:00 | |
| DL1XH-west | 2026-09-03 06:37:22 | 49.22546 | 8.41849 | 296° | 15km/h | 33105m | 5.9m/s | -37°C | 0% | 7.9hPa | 2.6V | 03:11:04 | 02:07:29 | 00:00:00 | |
| DK7TD | 2026-09-03 06:37:21 | 49.22544 | 8.41854 | 306° | 13km/h | 33099m | 5.4m/s | -37°C | 0% | 7.9hPa | 2.7V | 03:11:55 | 02:07:28 | 00:00:00 | |
| KANTATE | 2026-09-03 06:37:20 | 49.22544 | 8.41854 | 307° | 13km/h | 33099m | 5.4m/s | -37.0°C | 0.1% | 7.9hPa | 2.7V | 03:11:00 | 00:00:00 | 00:00:00 | |
| DL1XH-15 | 2026-09-03 06:37:18 | 49.22554 | 8.41901 | 227° | 24km/h | 33061m | 3.7m/s | -36.9°C | 1.5% | 8hPa | 2.7V | 03:10:23 | 02:07:20 | 00:00:00 | |
| HTAHTA | 2026-09-03 06:37:18 | 49.22542 | 8.41870 | 250° | 16km/h | 33081m | 5.4m/s | -37.1°C | -1.0% | 7.9hPa | 2.7V | 00:00:00 | 00:00:00 | 00:00:00 | |
| DL1XH1-15 | 2026-09-03 06:37:17 | 49.22559 | 8.41907 | 218° | 18km/h | 33057m | 4.1m/s | -36.9°C | 1.6% | 8hPa | 2.7V | 03:10:24 | 02:07:19 | 00:00:00 | |
| AA1-15 | 2026-09-03 06:37:16 | 49.22544 | 8.41877 | 242° | 22km/h | 33076m | 5.7m/s | -37.1°C | 0% | 7.9hPa | 2.6V | 03:11:04 | 02:07:23 | 00:00:00 | |
| DL1XH-west | 2026-09-03 06:37:12 | 49.22559 | 8.41907 | 219° | 18km/h | 33058m | 4.1m/s | -36.9°C | 0% | 8hPa | 2.7V | 03:11:04 | 02:07:19 | 00:00:00 | |
| DK5PH-5 | 2026-09-03 06:37:11 | 49.22562 | 8.41910 | 203° | 15km/h | 33053m | 5.7m/s | -36.9°C | 1.6% | 7.9hPa | 2.7V | 03:10:00 | 02:07:18 | 00:00:00 | |
| DL3AQ-11 | 2026-09-03 06:37:10 | 49.22567 | 8.41909 | 130° | 7km/h | 33041m | 5.4m/s | -36.8°C | 0.1% | 8.0hPa | 2.7V | 00:00:00 | 00:00:00 | 00:00:00 | |
| EDDB2-12 | 2026-09-03 06:37:09 | 49.22567 | 8.41909 | 130° | 7km/h | 33041m | 5.4m/s | -36.8°C | 0.1% | 8.0hPa | 2.7V | 00:00:00 | 00:00:00 | 00:00:00 | |
| DL1XH-15 | 2026-09-03 06:37:08 | 49.22565 | 8.41924 | 262° | 26km/h | 33011m | 4.6m/s | -37.1°C | 1.6% | 8hPa | 2.7V | 03:10:33 | 02:07:10 | 00:00:00 | |
| DK7TD | 2026-09-03 06:37:08 | 49.22568 | 8.41907 | 99° | 7km/h | 33036m | 4.4m/s | -36.7°C | 0% | 8hPa | 2.7V | 03:11:55 | 02:07:15 | 00:00:00 | |
| DB0UT-7 | 2026-09-03 06:37:08 | 49.22568 | 8.41907 | 100° | 15km/h | 33036m | 4.4m/s | -36.7°C | 1.5% | 7.9hPa | 2.7V | 00:00:00 | 00:00:00 | 00:00:00 | |
| DL1XH1-15 | 2026-09-03 06:37:07 | 49.22567 | 8.41934 | 251° | 26km/h | 33007m | 3.9m/s | -37.2°C | 1.6% | 8hPa | 2.7V | 03:10:34 | 02:07:09 | 00:00:00 | |
| HSKMA3-T | 2026-09-03 06:37:06 | 49.22567 | 8.41906 | 310° | 5km/h | 33028m | 4.6m/s | -36.8°C | 0% | 8hPa | 2.6V | 03:13:37 | 02:07:13 | 00:00:00 | |
| AA1-15 | 2026-09-03 06:37:05 | 49.22566 | 8.41909 | 286° | 13km/h | 33022m | 6m/s | -36.9°C | 0% | 8hPa | 2.6V | 03:11:04 | 02:07:12 | 00:00:00 | |
| AU51GT2 | 2026-09-03 06:37:05 | 49.22565 | 8.41915 | 273° | 20km/h | 33017m | 5.6m/s | -37.0°C | -1.0% | -1.0hPa | 2.6V | 00:00:00 | 00:00:00 | 00:00:00 | |
| IW2NTF | 2026-09-03 06:37:04 | 49.22578 | 8.41952 | 188° | 18km/h | 32992m | 5.6m/s | -37.2°C | 1.6% | 8hPa | 2.6V | 03:10:37 | 02:07:06 | 00:00:00 | |
| BIOWL1-15 | 2026-09-03 06:37:01 | 49.22570 | 8.41943 | 237° | 24km/h | 33003m | 4.4m/s | -37.3°C | 0% | 8hPa | 2.7V | 03:11:04 | 02:07:08 | 00:00:00 | |
| DJ2KF-10 | 2026-09-03 06:37:00 | 49.22573 | 8.41949 | 217° | 16km/h | 32998m | 5.3m/s | -37.2°C | 1.6% | 8.0hPa | 2.6V | 00:00:00 | 02:07:07 | 00:00:00 | |
| DL1XH1-15 | 2026-09-03 06:36:57 | 49.22601 | 8.41934 | 227° | 9km/h | 32956m | 5.3m/s | -37.4°C | 1.6% | 8.1hPa | 2.6V | 03:10:44 | 02:06:59 | 00:00:00 | |
| HSKMA3-T | 2026-09-03 06:36:55 | 49.22595 | 8.41938 | 137° | 16km/h | 32972m | 4.9m/s | -37.2°C | 0% | 8.1hPa | 2.7V | 03:13:37 | 02:07:02 | 00:00:00 | |
| DJ2DS-15 | 2026-09-03 06:36:55 | 49.22595 | 8.41938 | 138° | 13km/h | 32973m | 4.8m/s | -37.2°C | 1.6% | 8.0hPa | 2.7V | 00:00:00 | 02:07:02 | 00:00:00 | |
| IW2NTF | 2026-09-03 06:36:54 | 49.22606 | 8.41945 | 224° | 11km/h | 32943m | 4.3m/s | -37.3°C | 1.6% | 8.1hPa | 2.7V | 03:10:47 | 02:06:56 | 00:00:00 | |
| AA1-15 | 2026-09-03 06:36:54 | 49.22598 | 8.41934 | 147° | 11km/h | 32967m | 5.3m/s | -37.2°C | 0% | 8.1hPa | 2.7V | 03:11:04 | 02:07:01 | 00:00:00 | |
| DM0DOS-11 | 2026-09-03 06:36:53 | 49.22608 | 8.41947 | 192° | 9km/h | 32938m | 5.4m/s | -37.3°C | 1.6% | 8.1hPa | 2.6V | 03:10:48 | 02:06:55 | 00:00:00 | |
| BIOWL1-15 | 2026-09-03 06:36:53 | 49.22603 | 8.41938 | 243° | 11km/h | 32951m | 4.7m/s | -37.4°C | 0% | 8.1hPa | 2.7V | 03:11:04 | 02:06:58 | 00:00:00 | |
| DL1XH-15 | 2026-09-03 06:36:52 | 49.22610 | 8.41947 | 155° | 11km/h | 32932m | 5.7m/s | -37.3°C | 1.6% | 8.1hPa | 2.6V | 03:10:49 | 02:06:54 | 00:00:00 | |
| DL1XH-west | 2026-09-03 06:36:50 | 49.22604 | 8.41942 | 239° | 13km/h | 32947m | 4.2m/s | -37.3°C | 0% | 8.1hPa | 2.7V | 03:11:04 | 02:06:57 | 00:00:00 | |
| AZAK | 2026-09-03 06:36:49 | 49.22604 | 8.41942 | 240° | 13km/h | 32947m | 4.2m/s | -37.3°C | 0.1% | 8.1hPa | 2.7V | 00:00:00 | 00:00:00 | 00:00:00 | |
| DJTTGO | 2026-09-03 06:36:48 | 49.22606 | 8.41945 | 226° | 11km/h | 32943m | 4.4m/s | -37.3°C | 0.1% | 8.1hPa | 2.7V | 03:11:00 | 00:00:00 | 00:00:00 | |
| DL1XH1-15 | 2026-09-03 06:36:47 | 49.22628 | 8.41925 | 161° | 16km/h | 32908m | 5.5m/s | -37.5°C | 1.6% | 8.1hPa | 2.7V | 03:10:54 | 02:06:49 | 00:00:00 | |
| HSKMA3-T | 2026-09-03 06:36:45 | 49.22617 | 8.41939 | 133° | 20km/h | 32921m | 4.8m/s | -37.3°C | 0% | 8.1hPa | 2.7V | 03:13:37 | 02:06:52 | 00:00:00 | |
| IW2NTF | 2026-09-03 06:36:44 | 49.22638 | 8.41930 | 219° | 15km/h | 32892m | 4.6m/s | -37.5°C | 1.6% | 8.1hPa | 2.6V | 03:10:57 | 02:06:46 | 00:00:00 | |
| DM0DOS-11 | 2026-09-03 06:36:43 | 49.22641 | 8.41933 | 217° | 13km/h | 32887m | 4.4m/s | -37.5°C | 1.6% | 8.2hPa | 2.7V | 03:10:58 | 02:06:45 | 00:00:00 | |
| DL1XH-15 | 2026-09-03 06:36:42 | 49.22644 | 8.41935 | 198° | 9km/h | 32882m | 5.4m/s | -37.5°C | 1.6% | 8.2hPa | 2.7V | 03:10:59 | 02:06:44 | 00:00:00 | |
| BIOWL1-15 | 2026-09-03 06:36:41 | 49.22632 | 8.41925 | 187° | 15km/h | 32902m | 5.9m/s | -37.6°C | 0% | 8.1hPa | 2.6V | 03:11:04 | 02:06:48 | 00:00:00 | |
| DL1XH-west | 2026-09-03 06:36:39 | 49.22638 | 8.41930 | 219° | 15km/h | 32892m | 4.6m/s | -37.6°C | 0% | 8.1hPa | 2.6V | 03:11:04 | 02:06:46 | 00:00:00 | |
| DB0UT-7 | 2026-09-03 06:36:38 | 49.22641 | 8.41933 | 218° | 18km/h | 32887m | 4.4m/s | -37.4°C | 1.6% | 8.1hPa | 2.7V | 00:00:00 | 02:06:45 | 00:00:00 | |
| DL1XH1-15 | 2026-09-03 06:36:37 | 49.22660 | 8.41913 | 140° | 27km/h | 32857m | 5.5m/s | -37.5°C | 1.6% | 8.2hPa | 2.7V | 03:11:04 | 02:06:39 | 00:00:00 | |
| DF3TZ-5 | 2026-09-03 06:36:37 | 49.22646 | 8.41935 | 155° | 9km/h | 32877m | 5.8m/s | -37.5°C | 0.1% | 8.2hPa | 2.6V | 00:00:00 | 00:00:00 | 00:00:00 | |
| DO3MHA-11 | 2026-09-03 06:36:36 | 49.22646 | 8.41935 | 156° | 24km/h | 32877m | 5.7m/s | -37.4°C | 1.6% | 8.1hPa | 2.6V | 03:11:00 | 02:06:43 | 00:00:00 | |
| DJ2DS-15 | 2026-09-03 06:36:35 | 49.22648 | 8.41932 | 133° | 18km/h | 32871m | 5.3m/s | -37.4°C | 1.6% | 8.1hPa | 2.6V | 03:11:00 | 02:06:42 | 00:00:00 | |
| IW2NTF | 2026-09-03 06:36:34 | 49.22679 | 8.41899 | 166° | 29km/h | 32840m | 4.6m/s | -37.6°C | 1.6% | 8.2hPa | 2.6V | 03:11:07 | 02:06:36 | 00:00:00 | |
| OE5DXL-15 | 2026-09-03 06:36:34 | 49.22651 | 8.41927 | 128° | 20km/h | 32866m | 4.7m/s | -37.4°C | 1.6% | 8.1hPa | 2.6V | 00:00:00 | 00:00:00 | 00:00:00 | |
| DM0DOS-11 | 2026-09-03 06:36:33 | 49.22686 | 8.41897 | 169° | 27km/h | 32836m | 4.3m/s | -37.6°C | 1.6% | 8.2hPa | 2.6V | 03:11:08 | 02:06:35 | 00:00:00 | |
| DL1XH-15 | 2026-09-03 06:36:31 | 49.22698 | 8.41893 | 167° | 20km/h | 32825m | 5.5m/s | -37.5°C | 1.6% | 8.2hPa | 2.7V | 03:11:10 | 02:06:33 | 00:00:00 | |
| AA1-15 | 2026-09-03 06:36:30 | 49.22672 | 8.41903 | 160° | 29km/h | 32845m | 5.4m/s | -37.6°C | 0% | 8.2hPa | 2.6V | 03:12:46 | 02:06:37 | 00:00:00 | |
| DL1XH-west | 2026-09-03 06:36:29 | 49.22679 | 8.41899 | 166° | 29km/h | 32840m | 4.6m/s | -37.6°C | 0% | 8.2hPa | 2.6V | 03:11:55 | 02:06:36 | 00:00:00 | |
| HSKMA3-T | 2026-09-03 06:36:28 | 49.22686 | 8.41897 | 169° | 27km/h | 32836m | 4.3m/s | -37.6°C | 0% | 8.2hPa | 2.6V | 03:13:37 | 02:06:35 | 00:00:00 | |
| DB0NH | 2026-09-03 06:36:28 | 49.22686 | 8.41897 | 170° | 16km/h | 32836m | 4.3m/s | -37.6°C | 1.6% | 8.2hPa | 2.6V | 00:00:00 | 02:06:35 | 00:00:00 | |
| DL1XH1-15 | 2026-09-03 06:36:27 | 49.22707 | 8.41894 | 240° | 7km/h | 32804m | 6.2m/s | -37.5°C | 1.6% | 8.3hPa | 2.7V | 03:11:14 | 02:06:29 | 00:00:00 | |
| DL4BBY-15 | 2026-09-03 06:36:27 | 49.22692 | 8.41895 | 169° | 20km/h | 32831m | 5.2m/s | -38.3°C | 0% | 0hPa | 2.6V | 00:00:00 | 00:00:00 | 00:00:00 | |
| DO1YAY-16 | 2026-09-03 06:36:26 | 49.22702 | 8.41892 | 168° | 13km/h | 32821m | 5.1m/s | -37.4°C | 0.1% | 8.2hPa | 2.6V | 00:00:00 | 00:00:00 | 00:00:00 | |
| OE9MKV-15 | 2026-09-03 06:36:25 | 49.22702 | 8.41892 | 169° | 18km/h | 32821m | 5.1m/s | 0°C | 0% | 0hPa | 2.6V | 00:00:00 | 02:06:32 | 00:00:00 | |
| IW2NTF | 2026-09-03 06:36:24 | 49.22711 | 8.41901 | 188° | 7km/h | 32789m | 4m/s | -37.6°C | 1.6% | 8.3hPa | 2.6V | 03:11:17 | 02:06:26 | 00:00:00 | |
| DM0DOS-11 | 2026-09-03 06:36:23 | 49.22713 | 8.41900 | 151° | 11km/h | 32785m | 4.4m/s | -37.6°C | 1.6% | 8.3hPa | 2.6V | 03:11:18 | 02:06:25 | 00:00:00 | |
| AA1-15 | 2026-09-03 06:36:19 | 49.22711 | 8.41901 | 189° | 7km/h | 32789m | 4m/s | -37.6°C | 0% | 8.3hPa | 2.6V | 03:12:46 | 02:06:26 | 00:00:00 | |
| DL1XH-west | 2026-09-03 06:36:18 | 49.22713 | 8.41900 | 152° | 13km/h | 32785m | 4.4m/s | -37.6°C | 0% | 8.3hPa | 2.6V | 03:11:55 | 02:06:25 | 00:00:00 | |
| DL1XH1-15 | 2026-09-03 06:36:17 | 49.22738 | 8.41860 | 160° | 18km/h | 32755m | 4.5m/s | -37.7°C | 1.6% | 8.3hPa | 2.6V | 03:11:24 | 02:06:19 | 00:00:00 | |
| DK7TD | 2026-09-03 06:36:16 | 49.22720 | 8.41890 | 127° | 26km/h | 32773m | 6.8m/s | -37.7°C | 0% | 8.3hPa | 2.7V | 03:11:55 | 02:06:23 | 00:00:00 | |
| DO3MHA-11 | 2026-09-03 06:36:16 | 49.22720 | 8.41890 | 128° | 24km/h | 32774m | 6.8m/s | -37.7°C | 1.6% | 8.3hPa | 2.7V | 00:00:00 | 02:06:23 | 00:00:00 | |
| DL1XH-15 | 2026-09-03 06:36:15 | 49.22745 | 8.41864 | 235° | 20km/h | 32743m | 6.5m/s | -37.9°C | 1.6% | 8.3hPa | 2.6V | 03:11:26 | 02:06:17 | 00:00:00 | |
| DJ2DS-15 | 2026-09-03 06:36:15 | 49.22724 | 8.41881 | 126° | 20km/h | 32768m | 5.4m/s | -37.7°C | 1.6% | 8.3hPa | 2.7V | 00:00:00 | 02:06:22 | 00:00:00 | |
| IW2NTF | 2026-09-03 06:36:14 | 49.22747 | 8.41872 | 257° | 26km/h | 32737m | 5.5m/s | -38°C | 1.6% | 8.3hPa | 2.7V | 03:11:27 | 02:06:16 | 00:00:00 | |
| DM0DOS-11 | 2026-09-03 06:36:13 | 49.22747 | 8.41882 | 273° | 26km/h | 32732m | 4.5m/s | -38°C | 1.6% | 8.3hPa | 2.7V | 03:11:28 | 02:06:15 | 00:00:00 | |
| BIOWL1-15 | 2026-09-03 06:36:11 | 49.22747 | 8.41872 | 258° | 26km/h | 32737m | 5.5m/s | -38°C | 0% | 8.3hPa | 2.7V | 03:11:55 | 02:06:16 | 00:00:00 | |
| HSKMA3-T | 2026-09-03 06:36:10 | 49.22745 | 8.41864 | 235° | 20km/h | 32743m | 6.5m/s | -37.9°C | 0% | 8.3hPa | 2.6V | 03:13:37 | 02:06:17 | 00:00:00 | |
| DL1XH-west | 2026-09-03 06:36:08 | 49.22748 | 8.41882 | 273° | 26km/h | 32732m | 4.5m/s | -38°C | 0% | 8.3hPa | 2.7V | 03:11:55 | 02:06:15 | 00:00:00 | |
| DK7TD | 2026-09-03 06:36:05 | 49.22741 | 8.41902 | 342° | 15km/h | 32718m | 5.8m/s | -38°C | 0% | 8.4hPa | 2.6V | 03:11:55 | 02:06:12 | 00:00:00 | |
| DL1XH-15 | 2026-09-03 06:36:05 | 49.22737 | 8.41878 | 132° | 18km/h | 32691m | 5.9m/s | -38.1°C | 1.6% | 8.4hPa | 2.6V | 03:11:36 | 02:06:07 | 00:00:00 | |
| OE5DXL-15 | 2026-09-03 06:36:04 | 49.22738 | 8.41901 | 29° | 16km/h | 32712m | 5.4m/s | -38.0°C | 1.7% | 8.3hPa | 2.7V | 03:11:00 | 00:00:00 | 00:00:00 | |
| DM0DOS-11 | 2026-09-03 06:36:03 | 49.22746 | 8.41873 | 187° | 22km/h | 32679m | 5.8m/s | -38.3°C | 1.7% | 8.4hPa | 2.7V | 03:11:38 | 02:06:05 | 00:00:00 | |
| BIOWL1-15 | 2026-09-03 06:35:59 | 49.22741 | 8.41874 | 161° | 20km/h | 32685m | 6.1m/s | -38.2°C | 0% | 8.4hPa | 2.6V | 03:11:55 | 02:06:06 | 00:00:00 | |
| DL1XH-west | 2026-09-03 06:35:58 | 49.22746 | 8.41873 | 187° | 22km/h | 32679m | 5.8m/s | -38.3°C | 0% | 8.4hPa | 2.7V | 03:11:55 | 02:06:05 | 00:00:00 | |
| DJTTGO | 2026-09-03 06:35:58 | 49.22745 | 8.41873 | 188° | 22km/h | 32679m | 5.8m/s | -38.3°C | 0.1% | 8.4hPa | 2.6V | 03:11:00 | 00:00:00 | 00:00:00 | |
| DL8DAS-15 | 2026-09-03 06:35:57 | 49.22745 | 8.41873 | 188° | 22km/h | 32679m | 5.8m/s | -38.3°C | 0.1% | 8.4hPa | 2.6V | 00:00:00 | 00:00:00 | 00:00:00 | |
| DO3MHA-11 | 2026-09-03 06:35:56 | 49.22755 | 8.41880 | 227° | 16km/h | 32669m | 4.4m/s | -38.1°C | 1.7% | 8.4hPa | 2.6V | 03:11:00 | 02:06:03 | 00:00:00 | |
| DL1XH-15 | 2026-09-03 06:35:55 | 49.22747 | 8.41893 | 39° | 22km/h | 32637m | 4.6m/s | -38.1°C | 1.7% | 8.5hPa | 2.6V | 03:11:46 | 02:05:57 | 00:00:00 | |
| DO1YAY-16 | 2026-09-03 06:35:55 | 49.22759 | 8.41893 | 272° | 13km/h | 32660m | 4.7m/s | -38.3°C | 0.1% | 8.4hPa | 2.6V | 00:00:00 | 00:00:00 | 00:00:00 | |
| DM0DOS-11 | 2026-09-03 06:35:53 | 49.22741 | 8.41883 | 67° | 13km/h | 32629m | 4.1m/s | -38.2°C | 1.6% | 8.5hPa | 2.6V | 03:11:48 | 02:05:55 | 00:00:00 | |
| IW2NTF | 2026-09-03 06:35:52 | 49.22741 | 8.41880 | 118° | 5km/h | 32624m | 5m/s | -38.2°C | 1.7% | 8.5hPa | 2.7V | 03:11:49 | 02:05:54 | 00:00:00 | |
| DK7TD | 2026-09-03 06:35:51 | 49.22751 | 8.41897 | 24° | 18km/h | 32643m | 5.8m/s | -38.2°C | 0% | 8.4hPa | 2.7V | 03:11:55 | 02:05:58 | 00:00:00 | |
| BIOWL1-15 | 2026-09-03 06:35:48 | 49.22741 | 8.41883 | 67° | 13km/h | 32629m | 4.1m/s | -38.2°C | 0% | 8.5hPa | 2.6V | 03:11:55 | 02:05:55 | 00:00:00 | |
| DL1XH1-15 | 2026-09-03 06:35:47 | 49.22753 | 8.41910 | 256° | 26km/h | 32597m | 3.9m/s | -38.3°C | 1.8% | 8.5hPa | 2.6V | 03:11:54 | 02:05:49 | 00:00:00 | |
| DL1XH-west | 2026-09-03 06:35:47 | 49.22741 | 8.41880 | 119° | 5km/h | 32625m | 5.1m/s | -38.3°C | 0% | 8.5hPa | 2.7V | 03:11:55 | 02:05:54 | 00:00:00 | |
| AA1-15 | 2026-09-03 06:35:44 | 49.22748 | 8.41891 | 239° | 26km/h | 32607m | 5.7m/s | -38.2°C | 0% | 8.5hPa | 2.7V | 03:12:46 | 02:05:51 | 00:00:00 | |
| AZAK | 2026-09-03 06:35:44 | 49.22748 | 8.41891 | 240° | 26km/h | 32607m | 5.7m/s | -38.2°C | 0.1% | 8.5hPa | 2.6V | 00:00:00 | 00:00:00 | 00:00:00 | |
| DN1GJH-1 | 2026-09-03 06:35:43 | 49.22748 | 8.41891 | 240° | 26km/h | 32607m | 5.7m/s | -38.2°C | 0.2% | 8.5hPa | 2.6V | 03:11:00 | 00:00:00 | 00:00:00 | |
| DM0DOS-11 | 2026-09-03 06:35:42 | 49.22748 | 8.41914 | 69° | 22km/h | 32570m | 5.6m/s | -38.4°C | 1.7% | 8.5hPa | 2.6V | 03:11:59 | 02:05:44 | 00:00:00 | |
| DK7TD | 2026-09-03 06:35:40 | 49.22753 | 8.41923 | 294° | 9km/h | 32589m | 5.2m/s | -38.3°C | 0% | 8.5hPa | 2.7V | 03:12:46 | 02:05:47 | 00:00:00 | |
| HSKMA3-T | 2026-09-03 06:35:38 | 49.22750 | 8.41921 | 59° | 15km/h | 32576m | 6.5m/s | -38.4°C | 0% | 8.5hPa | 2.7V | 03:13:37 | 02:05:45 | 00:00:00 | |
| DB0UT-7 | 2026-09-03 06:35:38 | 49.22750 | 8.41921 | 59° | 22km/h | 32577m | 6.5m/s | -38.4°C | 1.7% | 8.5hPa | 2.6V | 03:11:00 | 02:05:45 | 00:00:00 | |
| DL1XH1-15 | 2026-09-03 06:35:37 | 49.22744 | 8.41900 | 274° | 16km/h | 32546m | 6.8m/s | -38.5°C | 1.7% | 8.6hPa | 2.6V | 03:12:04 | 02:05:39 | 00:00:00 | |
| BIOWL1-15 | 2026-09-03 06:35:37 | 49.22748 | 8.41914 | 70° | 22km/h | 32570m | 5.6m/s | -38.4°C | 0% | 8.5hPa | 2.6V | 03:12:46 | 02:05:44 | 00:00:00 | |
| DL1XH-west | 2026-09-03 06:35:36 | 49.22747 | 8.41907 | 74° | 22km/h | 32565m | 4.2m/s | -38.5°C | 0% | 8.6hPa | 2.6V | 03:12:46 | 02:05:43 | 00:00:00 | |
| AA1-15 | 2026-09-03 06:35:34 | 49.22745 | 8.41896 | 67° | 7km/h | 32558m | 4.7m/s | -38.5°C | 0% | 8.6hPa | 2.7V | 03:12:46 | 02:05:41 | 00:00:00 | |
| OE5DXL-15 | 2026-09-03 06:35:34 | 49.22745 | 8.41895 | 67° | 20km/h | 32558m | 4.6m/s | -38.5°C | 1.7% | 8.5hPa | 2.7V | 00:00:00 | 00:00:00 | 00:00:00 | |
| DM0DOS-11 | 2026-09-03 06:35:32 | 49.22747 | 8.41948 | 232° | 16km/h | 32521m | 5.4m/s | -38.3°C | 1.7% | 8.6hPa | 2.7V | 03:12:09 | 02:05:34 | 00:00:00 | |
| SONCRA | 2026-09-03 06:35:32 | 49.22744 | 8.41900 | 274° | 16km/h | 32546m | 6.8m/s | -38.5°C | 0.1% | 8.6hPa | 2.6V | 00:00:00 | 00:00:00 | 00:00:00 | |
| IW2NTF | 2026-09-03 06:35:31 | 49.22750 | 8.41951 | 183° | 13km/h | 32515m | 6.5m/s | -38.3°C | 1.7% | 8.6hPa | 2.6V | 03:12:10 | 02:05:33 | 00:00:00 | |
| DD1CC8 | 2026-09-03 06:35:31 | 49.22743 | 8.41908 | 271° | 26km/h | 32540m | 6.3m/s | -38.5°C | 0.2% | 8.6hPa | 2.6V | 00:00:00 | 00:00:00 | 00:00:00 | |
| DL1XH-15 | 2026-09-03 06:35:30 | 49.22753 | 8.41949 | 143° | 18km/h | 32508m | 6.8m/s | -38.3°C | 1.7% | 8.6hPa | 2.6V | 03:12:11 | 02:05:32 | 00:00:00 | |
| BIOWL1-15 | 2026-09-03 06:35:30 | 49.22750 | 8.41951 | 183° | 13km/h | 32515m | 6.5m/s | -38.3°C | 0% | 8.6hPa | 2.6V | 03:12:46 | 02:05:33 | 00:00:00 | |
| DK7TD | 2026-09-03 06:35:30 | 49.22743 | 8.41920 | 269° | 31km/h | 32534m | 4.8m/s | -38.4°C | 0% | 8.6hPa | 2.6V | 03:12:46 | 02:05:37 | 00:00:00 | |
| DJ2KF-10 | 2026-09-03 06:35:30 | 49.22743 | 8.41919 | 270° | 22km/h | 32534m | 4.8m/s | -38.4°C | 1.7% | 8.5hPa | 2.7V | 00:00:00 | 02:05:37 | 00:00:00 | |
| DL8DAS-14 | 2026-09-03 06:35:29 | 49.22744 | 8.41931 | 264° | 29km/h | 32529m | 3.8m/s | -38.3°C | 0.1% | 8.6hPa | 2.7V | 00:00:00 | 00:00:00 | 00:00:00 | |
| CB1BUN | 2026-09-03 06:35:28 | 49.22743 | 8.41931 | 266° | 29km/h | 32530m | 3.8m/s | -38.3°C | 0.1% | 8.6hPa | 2.7V | 03:12:00 | 00:00:00 | 00:00:00 | |
| DL1XH1-15 | 2026-09-03 06:35:27 | 49.22762 | 8.41924 | 102° | 24km/h | 32492m | 3.6m/s | -38.5°C | 1.7% | 8.7hPa | 2.7V | 03:12:14 | 02:05:29 | 00:00:00 | |
| DL1XH-west | 2026-09-03 06:35:25 | 49.22753 | 8.41949 | 143° | 18km/h | 32508m | 6.8m/s | -38.3°C | 0% | 8.6hPa | 2.6V | 03:12:46 | 02:05:32 | 00:00:00 | |
| HSKMA3-T | 2026-09-03 06:35:24 | 49.22757 | 8.41942 | 125° | 26km/h | 32502m | 6m/s | -38.4°C | 0% | 8.6hPa | 2.7V | 03:13:37 | 02:05:31 | 00:00:00 | |
| DL4BBY-15 | 2026-09-03 06:35:24 | 49.22757 | 8.41942 | 126° | 20km/h | 32502m | 6.0m/s | -39.1°C | 0% | 0hPa | 2.7V | 00:00:00 | 00:00:00 | 00:00:00 | |
| DN1GJH-1 | 2026-09-03 06:35:23 | 49.22757 | 8.41942 | 126° | 26km/h | 32502m | 6.0m/s | -38.4°C | 0.2% | 8.6hPa | 2.7V | 03:12:00 | 00:00:00 | 00:00:00 | |
| DB0NH | 2026-09-03 06:35:22 | 49.22762 | 8.41924 | 103° | 18km/h | 32493m | 3.6m/s | -38.5°C | 1.7% | 8.6hPa | 2.7V | 00:00:00 | 02:05:29 | 00:00:00 | |
| IW2NTF | 2026-09-03 06:35:21 | 49.22750 | 8.41933 | 281° | 26km/h | 32461m | 3.5m/s | -38.5°C | 1.7% | 8.7hPa | 2.7V | 03:12:20 | 02:05:23 | 00:00:00 | |
| AA1-15 | 2026-09-03 06:35:21 | 49.22763 | 8.41917 | 84° | 16km/h | 32488m | 4.1m/s | -38.6°C | 0% | 8.7hPa | 2.6V | 03:12:46 | 02:05:28 | 00:00:00 | |
| DB0UT-9 | 2026-09-03 06:35:21 | 49.22763 | 8.41917 | 85° | 16km/h | 32489m | 4.1m/s | -38.6°C | 0.2% | 8.7hPa | 2.7V | 03:12:00 | 00:00:00 | 00:00:00 | |
| LOEBOVI | 2026-09-03 06:35:19 | 49.22762 | 8.41912 | 40° | 11km/h | 32484m | 5.9m/s | -38.6°C | 0% | 0hPa | 2.7V | 00:00:00 | 00:00:00 | 00:00:00 | |
| EDDB2-11 | 2026-09-03 06:35:18 | 49.22755 | 8.41916 | 314° | 22km/h | 32471m | 6.2m/s | -38.5°C | 0.1% | 8.7hPa | 2.7V | 00:00:00 | 00:00:00 | 00:00:00 | |
| DL1XH1-15 | 2026-09-03 06:35:17 | 49.22763 | 8.41949 | 160° | 31km/h | 32440m | 6.5m/s | -38.5°C | 1.7% | 8.7hPa | 2.7V | 03:12:24 | 02:05:19 | 00:00:00 | |
| DL1XH-15 | 2026-09-03 06:35:16 | 49.22771 | 8.41943 | 148° | 38km/h | 32434m | 5.6m/s | -38.5°C | 1.8% | 8.7hPa | 2.7V | 03:12:25 | 02:05:18 | 00:00:00 | |
| DK7TD | 2026-09-03 06:35:16 | 49.22750 | 8.41933 | 281° | 26km/h | 32461m | 3.5m/s | -38.6°C | 0% | 8.7hPa | 2.7V | 03:12:46 | 02:05:23 | 00:00:00 | |
| DL1XH-west | 2026-09-03 06:35:15 | 49.22749 | 8.41942 | 258° | 22km/h | 32457m | 4.3m/s | -38.5°C | 0% | 8.7hPa | 2.6V | 03:12:46 | 02:05:22 | 00:00:00 | |
| HSKMA3-T | 2026-09-03 06:35:13 | 49.22757 | 8.41951 | 183° | 24km/h | 32446m | 6.4m/s | -38.5°C | 0% | 8.7hPa | 2.7V | 03:13:37 | 02:05:20 | 00:00:00 | |
| DM0DOS-11 | 2026-09-03 06:35:12 | 49.22793 | 8.41911 | 115° | 13km/h | 32414m | 6m/s | -38.5°C | 1.7% | 8.7hPa | 2.7V | 03:12:29 | 02:05:14 | 00:00:00 | |
| IW2NTF | 2026-09-03 06:35:11 | 49.22794 | 8.41908 | 34° | 4km/h | 32408m | 6.5m/s | -38.6°C | 1.7% | 8.8hPa | 2.7V | 03:12:30 | 02:05:13 | 00:00:00 | |
| AA1-15 | 2026-09-03 06:35:09 | 49.22786 | 8.41925 | 133° | 33km/h | 32424m | 4.4m/s | -38.4°C | 0% | 8.8hPa | 2.6V | 03:12:46 | 02:05:16 | 00:00:00 | |
| HARRO8 | 2026-09-03 06:35:09 | 49.22791 | 8.41916 | 126° | 24km/h | 32420m | 5.2m/s | -38.5°C | 0.1% | 8.8hPa | 2.6V | 00:00:00 | 00:00:00 | 00:00:00 | |
| DB0UT-7 | 2026-09-03 06:35:08 | 49.22790 | 8.41916 | 127° | 15km/h | 32420m | 5.1m/s | -38.4°C | 1.7% | 8.7hPa | 2.6V | 00:00:00 | 00:00:00 | 00:00:00 | |
| DL1XH1-15 | 2026-09-03 06:35:07 | 49.22787 | 8.41925 | 262° | 15km/h | 32386m | 5.1m/s | -38.6°C | 1.7% | 8.8hPa | 2.6V | 03:12:34 | 02:05:09 | 00:00:00 | |
| BIOWL1-15 | 2026-09-03 06:35:06 | 49.22790 | 8.41913 | 303° | 16km/h | 32396m | 5.1m/s | -38.7°C | 0% | 8.8hPa | 2.7V | 03:12:46 | 02:05:11 | 00:00:00 | |
| DL1XH-west | 2026-09-03 06:35:05 | 49.22792 | 8.41909 | 317° | 11km/h | 32401m | 6m/s | -38.7°C | 0% | 8.8hPa | 2.7V | 03:12:46 | 02:05:12 | 00:00:00 | |
| BIOWL9-15 | 2026-09-03 06:35:04 | 49.22788 | 8.41919 | 289° | 16km/h | 32391m | 4.9m/s | -38.6°C | 0.2% | 8.8hPa | 2.6V | 00:00:00 | 00:00:00 | 00:00:00 | |
| DL9PN | 2026-09-03 06:35:03 | 49.22793 | 8.41931 | 188° | 18km/h | 32375m | 6.3m/s | -38.6°C | 0.1% | 8.8hPa | 2.6V | 00:00:00 | 00:00:00 | 00:00:00 | |
| DM0DOS-11 | 2026-09-03 06:35:02 | 49.22813 | 8.41924 | 155° | 31km/h | 32358m | 4.4m/s | -38.7°C | 1.7% | 8.8hPa | 2.6V | 03:12:39 | 02:05:04 | 00:00:00 | |
| HSKMA3-T | 2026-09-03 06:35:02 | 49.22788 | 8.41925 | 263° | 15km/h | 32386m | 5.1m/s | -38.6°C | 0% | 8.8hPa | 2.6V | 03:13:37 | 02:05:09 | 00:00:00 | |
| IW2NTF | 2026-09-03 06:35:01 | 49.22820 | 8.41919 | 151° | 27km/h | 32353m | 5m/s | -38.6°C | 1.8% | 8.8hPa | 2.6V | 03:12:40 | 02:05:03 | 00:00:00 | |
| AA1-15 | 2026-09-03 06:34:59 | 49.22799 | 8.41931 | 171° | 27km/h | 32368m | 6.1m/s | -38.7°C | 0% | 8.8hPa | 2.7V | 03:12:46 | 02:05:06 | 00:00:00 | |
| DK7TD | 2026-09-03 06:34:55 | 49.22825 | 8.41914 | 147° | 18km/h | 32348m | 5.8m/s | -38.6°C | 0% | 8.8hPa | 2.7V | 03:12:46 | 02:05:02 | 00:00:00 | |
| DL1XH-west | 2026-09-03 06:34:54 | 49.22828 | 8.41911 | 143° | 9km/h | 32342m | 6m/s | -38.6°C | 0% | 8.8hPa | 2.7V | 03:12:46 | 02:05:01 | 00:00:00 | |
| DF7PN | 2026-09-03 06:34:54 | 49.22829 | 8.41910 | 296° | 0km/h | 32336m | 6.0m/s | -38.7°C | 0.2% | 8.9hPa | 2.7V | 00:00:00 | 00:00:00 | 00:00:00 | |
| DL1XH-15 | 2026-09-03 06:34:53 | 49.22829 | 8.41928 | 217° | 16km/h | 32307m | 5.5m/s | -38.7°C | 1.7% | 8.9hPa | 2.7V | 03:12:48 | 02:04:55 | 00:00:00 | |
| BIOWL1-15 | 2026-09-03 06:34:53 | 49.22829 | 8.41910 | 296° | 0km/h | 32336m | 6m/s | -38.7°C | 0% | 8.9hPa | 2.7V | 03:12:46 | 02:05:00 | 00:00:00 | |
| DO1YAY-16 | 2026-09-03 06:34:53 | 49.22828 | 8.41912 | 305° | 7km/h | 32330m | 5.8m/s | -38.8°C | 0.2% | 8.8hPa | 2.6V | 00:00:00 | 00:00:00 | 00:00:00 | |
| IW2NTF | 2026-09-03 06:34:52 | 49.22838 | 8.41932 | 186° | 20km/h | 32297m | 4.7m/s | -38.7°C | 1.7% | 8.9hPa | 2.6V | 03:12:50 | 02:04:53 | 00:00:00 | |
| AA1-15 | 2026-09-03 06:34:48 | 49.22829 | 8.41928 | 217° | 16km/h | 32307m | 5.5m/s | -38.7°C | 0% | 8.9hPa | 2.7V | 18:12:15 | 02:04:55 | 00:00:00 | |
| EDDB2-11 | 2026-09-03 06:34:47 | 49.22833 | 8.41931 | 199° | 18km/h | 32302m | 5.1m/s | -38.7°C | 0.2% | 8.9hPa | 2.7V | 00:00:00 | 00:00:00 | 00:00:00 | |
| DL3AQ-11 | 2026-09-03 06:34:45 | 49.22843 | 8.41933 | 178° | 18km/h | 32292m | 5.3m/s | -38.8°C | 0.2% | 8.9hPa | 2.7V | 00:00:00 | 00:00:00 | 00:00:00 | |
| DK7TD | 2026-09-03 06:34:44 | 49.22847 | 8.41932 | 169° | 16km/h | 32287m | 6.1m/s | -38.8°C | 0% | 8.9hPa | 2.7V | 03:14:28 | 02:04:51 | 00:00:00 | |
| DL1XH-15 | 2026-09-03 06:34:44 | 49.22861 | 8.41923 | 175° | 13km/h | 32252m | 6.4m/s | -38.5°C | 1.8% | 9hPa | 2.7V | 03:12:58 | 02:04:45 | 00:00:00 | |
| BIOWL1-15 | 2026-09-03 06:34:43 | 49.22851 | 8.41931 | 159° | 13km/h | 32280m | 6.1m/s | -38.6°C | 0% | 8.9hPa | 2.7V | 03:13:37 | 02:04:50 | 00:00:00 | |
| DK5PH-5 | 2026-09-03 06:34:41 | 49.22855 | 8.41927 | 140° | 11km/h | 32269m | 5.1m/s | -38.5°C | 1.8% | 8.9hPa | 2.6V | 00:00:00 | 02:04:48 | 00:00:00 | |
| NBG1-10 | 2026-09-03 06:34:40 | 49.22857 | 8.41925 | 149° | 11km/h | 32265m | 4.9m/s | -38.5°C | 1.7% | 8.9hPa | 2.6V | 00:00:00 | 02:04:47 | 00:00:00 | |
| DJ2DS-15 | 2026-09-03 06:34:39 | 49.22861 | 8.41923 | 175° | 11km/h | 32252m | 6.4m/s | -38.5°C | 0.2% | 9.0hPa | 2.7V | 00:00:00 | 00:00:00 | 00:00:00 | |
| HARRO8 | 2026-09-03 06:34:38 | 49.22865 | 8.41923 | 186° | 15km/h | 32246m | 5.6m/s | -38.6°C | 0.1% | 9.0hPa | 2.7V | 00:00:00 | 00:00:00 | 00:00:00 | |
| DL1XH1-15 | 2026-09-03 06:34:37 | 49.22878 | 8.41932 | 232° | 5km/h | 32219m | 5.7m/s | -38.5°C | 1.8% | 9hPa | 2.7V | 03:13:04 | 02:04:39 | 00:00:00 | |
| HSKMA3-T | 2026-09-03 06:34:37 | 49.22865 | 8.41923 | 186° | 15km/h | 32246m | 5.6m/s | -38.6°C | 0% | 9hPa | 2.7V | 03:13:37 | 02:04:44 | 00:00:00 | |
| DK7TD | 2026-09-03 06:34:34 | 49.22875 | 8.41928 | 211° | 13km/h | 32230m | 5.8m/s | -38.7°C | 0% | 9hPa | 2.6V | 03:14:28 | 02:04:41 | 00:00:00 | |
| DL1XH-west | 2026-09-03 06:34:32 | 49.22878 | 8.41932 | 233° | 5km/h | 32219m | 5.7m/s | -38.5°C | 0% | 9hPa | 2.7V | 03:13:37 | 02:04:39 | 00:00:00 | |
| DL9PN | 2026-09-03 06:34:32 | 49.22879 | 8.41933 | 190° | 2km/h | 32213m | 5.2m/s | -38.5°C | 0.2% | 9.0hPa | 2.7V | 00:00:00 | 00:00:00 | 00:00:00 | |
| IW2NTF | 2026-09-03 06:34:31 | 49.22893 | 8.41920 | 146° | 20km/h | 32185m | 4.4m/s | -38.3°C | 1.7% | 9.1hPa | 2.7V | 03:13:10 | 02:04:33 | 00:00:00 | |
| DJ2KF-10 | 2026-09-03 06:34:30 | 49.22880 | 8.41933 | 153° | 13km/h | 32208m | 5.2m/s | -38.4°C | 1.7% | 9.0hPa | 2.6V | 03:13:00 | 02:04:37 | 00:00:00 | |
| DL0LBS | 2026-09-03 06:34:29 | 49.22882 | 8.41931 | 149° | 11km/h | 32202m | 6.3m/s | -38.4°C | 0.2% | 9.0hPa | 2.7V | 03:13:00 | 00:00:00 | 00:00:00 | |
| CB1BUN | 2026-09-03 06:34:28 | 49.22882 | 8.41931 | 149° | 11km/h | 32202m | 6.3m/s | -38.4°C | 0.1% | 9.0hPa | 2.7V | 03:13:00 | 00:00:00 | 00:00:00 | |
| DL1XH1-15 | 2026-09-03 06:34:27 | 49.22903 | 8.41912 | 222° | 4km/h | 32163m | 5.4m/s | -38.4°C | 1.7% | 9.1hPa | 2.7V | 03:13:14 | 02:04:29 | 00:00:00 | |
| AA1-15 | 2026-09-03 06:34:27 | 49.22889 | 8.41924 | 146° | 20km/h | 32190m | 5.1m/s | -38.3°C | 0% | 9.1hPa | 2.7V | 18:12:15 | 02:04:34 | 00:00:00 | |
| HSKMA3-T | 2026-09-03 06:34:25 | 49.22897 | 8.41916 | 147° | 16km/h | 32180m | 5m/s | -38.3°C | 0% | 9.1hPa | 2.7V | 03:13:37 | 02:04:32 | 00:00:00 | |
| DK7TD | 2026-09-03 06:34:24 | 49.22900 | 8.41913 | 147° | 13km/h | 32175m | 6.2m/s | -38.3°C | 0% | 9.1hPa | 2.6V | 03:14:28 | 02:04:31 | 00:00:00 | |
| DL1XH-west | 2026-09-03 06:34:22 | 49.22903 | 8.41912 | 222° | 4km/h | 32163m | 5.4m/s | -38.4°C | 0% | 9.1hPa | 2.7V | 03:13:37 | 02:04:29 | 00:00:00 | |
| BIOWL1-15 | 2026-09-03 06:34:21 | 49.22904 | 8.41914 | 243° | 7km/h | 32158m | 5.1m/s | -38.4°C | 0% | 9.1hPa | 2.7V | 03:13:37 | 02:04:28 | 00:00:00 | |
| AA1-15 | 2026-09-03 06:34:16 | 49.22918 | 8.41930 | 197° | 16km/h | 32131m | 4.5m/s | -38.2°C | 0% | 9.1hPa | 2.7V | 18:12:15 | 02:04:23 | 00:00:00 | |
| DK7TD | 2026-09-03 06:34:13 | 49.22925 | 8.41930 | 119° | 5km/h | 32114m | 6.1m/s | -38.3°C | 0% | 9.1hPa | 2.6V | 03:14:28 | 02:04:20 | 00:00:00 | |
| DL1XH-west | 2026-09-03 06:34:12 | 49.22926 | 8.41928 | 93° | 7km/h | 32108m | 5m/s | -38.3°C | 0% | 9.2hPa | 2.6V | 03:13:37 | 02:04:19 | 00:00:00 | |
| BIOWL1-15 | 2026-09-03 06:34:10 | 49.22927 | 8.41923 | 132° | 7km/h | 32099m | 4.5m/s | -38.3°C | 0% | 9.2hPa | 2.7V | 03:13:37 | 02:04:17 | 00:00:00 | |
| OE5DRO-10 | 2026-09-03 06:34:09 | 49.22929 | 8.41921 | 162° | 20km/h | 32094m | 6.0m/s | -38.3°C | 1.7% | 9.2hPa | 2.6V | 03:13:00 | 00:00:00 | 00:00:00 | |
| DB0UT-7 | 2026-09-03 06:34:08 | 49.22932 | 8.41920 | 181° | 20km/h | 32088m | 6.5m/s | -38.2°C | 1.7% | 9.2hPa | 2.6V | 00:00:00 | 00:00:00 | 00:00:00 | |
| DL1XH1-15 | 2026-09-03 06:34:07 | 49.22959 | 8.41941 | 261° | 9km/h | 32056m | 6.3m/s | -38.2°C | 1.7% | 9.2hPa | 2.6V | 03:13:34 | 02:04:09 | 00:00:00 | |
| AA1-15 | 2026-09-03 06:34:06 | 49.22943 | 8.41924 | 198° | 27km/h | 32076m | 4.9m/s | -38.1°C | 0% | 9.2hPa | 2.6V | 18:12:15 | 02:04:13 | 00:00:00 | |
| DK7TD | 2026-09-03 06:34:02 | 49.22959 | 8.41941 | 261° | 9km/h | 32056m | 6.3m/s | -38.2°C | 0% | 9.2hPa | 2.6V | 03:14:28 | 02:04:09 | 00:00:00 | |
| BIOWL1-15 | 2026-09-03 06:34:01 | 49.22956 | 8.41942 | 81° | 7km/h | 32040m | 4.9m/s | -38.5°C | 0% | 9.3hPa | 2.7V | 03:13:37 | 02:04:06 | 00:00:00 | |
| DL1XH-west | 2026-09-03 06:34:01 | 49.22958 | 8.41943 | 315° | 5km/h | 32050m | 5.3m/s | -38.3°C | 0% | 9.2hPa | 2.6V | 03:13:37 | 02:04:08 | 00:00:00 | |
| DL9PN | 2026-09-03 06:34:01 | 49.22957 | 8.41944 | 19° | 4km/h | 32045m | 4.6m/s | -38.4°C | 0.2% | 9.3hPa | 2.7V | 00:00:00 | 00:00:00 | 00:00:00 | |
| DJ2KF-10 | 2026-09-03 06:34:00 | 49.22957 | 8.41944 | 20° | 22km/h | 32045m | 4.5m/s | -38.3°C | 1.7% | 9.2hPa | 2.7V | 00:00:00 | 02:04:07 | 00:00:00 | |
| DL1XH-15 | 2026-09-03 06:33:59 | 49.22975 | 8.41921 | 166° | 26km/h | 32012m | 5.8m/s | -38.7°C | 1.7% | 9.3hPa | 2.7V | 03:13:42 | 02:04:01 | 00:00:00 | |
| SONCRA | 2026-09-03 06:33:59 | 49.22957 | 8.41939 | 114° | 11km/h | 32035m | 6.2m/s | -38.6°C | 0.2% | 9.3hPa | 2.7V | 00:00:00 | 00:00:00 | 00:00:00 | |
| DD1CC8 | 2026-09-03 06:33:58 | 49.22957 | 8.41939 | 114° | 11km/h | 32035m | 6.2m/s | -38.6°C | 0.2% | 9.3hPa | 2.7V | 00:00:00 | 00:00:00 | 00:00:00 | |
| DL1XH1-15 | 2026-09-03 06:33:57 | 49.22987 | 8.41921 | 194° | 24km/h | 32001m | 5.5m/s | -38.7°C | 1.7% | 9.3hPa | 2.7V | 03:13:44 | 02:03:59 | 00:00:00 | |
| HSKMA3-T | 2026-09-03 06:33:57 | 49.22959 | 8.41934 | 134° | 18km/h | 32029m | 6.1m/s | -38.6°C | 0% | 9.3hPa | 2.6V | 03:17:01 | 02:04:04 | 00:00:00 | |
| DL8DAS-14 | 2026-09-03 06:33:56 | 49.22969 | 8.41924 | 156° | 26km/h | 32018m | 5.3m/s | -38.7°C | 0.1% | 9.3hPa | 2.7V | 00:00:00 | 00:00:00 | 00:00:00 | |
| AA1-15 | 2026-09-03 06:33:56 | 49.22963 | 8.41929 | 147° | 24km/h | 32023m | 5.7m/s | 0°C | 0% | 9.3hPa | 2.6V | 18:12:15 | 02:04:03 | 00:00:00 | |
| SSTOLZ84 | 2026-09-03 06:33:54 | 49.22975 | 8.41921 | 166° | 26km/h | 32012m | 5.8m/s | -38.7°C | 0.2% | 9.3hPa | 2.7V | 00:00:00 | 00:00:00 | 00:00:00 | |
| DM0DOS-11 | 2026-09-03 06:33:52 | 49.23012 | 8.41948 | 221° | 16km/h | 31974m | 4m/s | -38.5°C | 1.7% | 9.3hPa | 2.7V | 03:13:49 | 02:03:54 | 00:00:00 | |
| DK7TD | 2026-09-03 06:33:52 | 49.22987 | 8.41921 | 195° | 24km/h | 32001m | 5.5m/s | -38.7°C | 0% | 9.3hPa | 2.7V | 03:14:28 | 02:03:59 | 00:00:00 | |
| DL1XH-west | 2026-09-03 06:33:51 | 49.22993 | 8.41925 | 208° | 26km/h | 31995m | 5.7m/s | -38.6°C | 0% | 9.3hPa | 2.6V | 03:14:28 | 02:03:58 | 00:00:00 | |
| BIOWL1-15 | 2026-09-03 06:33:51 | 49.23004 | 8.41936 | 220° | 26km/h | 31983m | 5.9m/s | -38.6°C | 0% | 9.3hPa | 2.7V | 03:14:28 | 02:03:56 | 00:00:00 | |
| AA1-15 | 2026-09-03 06:33:46 | 49.23015 | 8.41951 | 216° | 9km/h | 31970m | 4m/s | 0°C | 0% | 0hPa | 2.6V | 18:12:15 | 02:03:53 | 00:00:00 | |
| EDDB2-11 | 2026-09-03 06:33:45 | 49.23016 | 8.41952 | 159° | 2km/h | 31965m | 5.4m/s | -38.5°C | 0.1% | 9.3hPa | 2.7V | 00:00:00 | 00:00:00 | 00:00:00 | |
| KANTATE | 2026-09-03 06:33:44 | 49.23016 | 8.41952 | 160° | 2km/h | 31965m | 5.4m/s | -38.5°C | 0.1% | 9.3hPa | 2.7V | 00:00:00 | 00:00:00 | 00:00:00 | |
| DM0DOS-11 | 2026-09-03 06:33:42 | 49.23049 | 8.41903 | 176° | 44km/h | 31921m | 4.1m/s | -38.6°C | 1.7% | 9.4hPa | 2.7V | 03:13:59 | 02:03:44 | 00:00:00 | |
| DK7TD | 2026-09-03 06:33:42 | 49.23016 | 8.41938 | 99° | 22km/h | 31947m | 4.5m/s | -38.4°C | 0% | 9.4hPa | 2.7V | 03:14:28 | 02:03:49 | 00:00:00 | |
| DL1XH-west | 2026-09-03 06:33:41 | 49.23018 | 8.41930 | 117° | 27km/h | 31943m | 4.1m/s | -38.4°C | 0% | 9.4hPa | 2.7V | 03:14:28 | 02:03:48 | 00:00:00 | |
| HSKMA3-T | 2026-09-03 06:33:40 | 49.23022 | 8.41920 | 134° | 33km/h | 31938m | 5.1m/s | -38.4°C | 0% | 9.4hPa | 2.6V | 03:17:01 | 02:03:47 | 00:00:00 | |
| BIOWL1-15 | 2026-09-03 06:33:38 | 49.23039 | 8.41906 | 163° | 44km/h | 31926m | 5.9m/s | -38.6°C | 0% | 9.4hPa | 2.7V | 03:14:28 | 02:03:45 | 00:00:00 | |
| AA1-15 | 2026-09-03 06:33:35 | 49.23069 | 8.41906 | 197° | 33km/h | 31914m | 3.6m/s | 0°C | 0% | 0hPa | 2.6V | 18:12:15 | 02:03:42 | 00:00:00 | |
| DL1XH-west | 2026-09-03 06:33:31 | 49.23075 | 8.41912 | 34° | 18km/h | 31892m | 5.3m/s | -38.8°C | 0% | 9.5hPa | 2.7V | 03:14:28 | 02:03:38 | 00:00:00 | |
| DK7TD | 2026-09-03 06:33:28 | 49.23066 | 8.41885 | 92° | 33km/h | 31877m | 5.1m/s | -39°C | 0% | 9.5hPa | 2.6V | 03:14:28 | 02:03:35 | 00:00:00 | |
| BIOWL1-15 | 2026-09-03 06:33:27 | 49.23068 | 8.41873 | 114° | 35km/h | 31872m | 5.6m/s | -39°C | 0% | 9.5hPa | 2.7V | 03:14:28 | 02:03:34 | 00:00:00 | |
| HSKMA3-T | 2026-09-03 06:33:23 | 49.23100 | 8.41841 | 174° | 37km/h | 31852m | 5m/s | -39.5°C | 0% | 9.5hPa | 2.6V | 03:17:01 | 02:03:30 | 00:00:00 | |
| DL1XH-west | 2026-09-03 06:33:20 | 49.23116 | 8.41846 | 246° | 5km/h | 31836m | 5.3m/s | -39.6°C | 0% | 9.5hPa | 2.7V | 03:14:28 | 02:03:27 | 00:00:00 | |
| BIOWL1-15 | 2026-09-03 06:33:19 | 49.23109 | 8.41840 | 50° | 22km/h | 31821m | 5m/s | -39.7°C | 0% | 9.6hPa | 2.6V | 03:14:28 | 02:03:24 | 00:00:00 | |
| DL1XH1-15 | 2026-09-03 06:33:18 | 49.23111 | 8.41784 | 123° | 33km/h | 31795m | 4.2m/s | -39.9°C | 1.8% | 9.6hPa | 2.7V | 03:14:24 | 02:03:19 | 00:00:00 | |
| DB0ND-19 | 2026-09-03 06:33:17 | 49.23109 | 8.41840 | 49° | 22km/h | 31821m | 5.0m/s | -39.7°C | 0.2% | 9.6hPa | 2.7V | 00:00:00 | 00:00:00 | 00:00:00 | |
| DO3MHA-11 | 2026-09-03 06:33:16 | 49.23106 | 8.41832 | 69° | 24km/h | 31816m | 5.3m/s | -39.7°C | 1.8% | 9.5hPa | 2.7V | 03:14:00 | 02:03:23 | 00:00:00 | |
| DL1XH-15 | 2026-09-03 06:33:15 | 49.23120 | 8.41769 | 147° | 22km/h | 31785m | 5.5m/s | -40°C | 1.8% | 9.6hPa | 2.7V | 03:14:26 | 02:03:17 | 00:00:00 | |
| DK7TD | 2026-09-03 06:33:13 | 49.23107 | 8.41795 | 112° | 37km/h | 31800m | 4.5m/s | -39.8°C | 0% | 9.6hPa | 2.6V | 03:14:28 | 02:03:20 | 00:00:00 | |
| HSKMA3-T | 2026-09-03 06:33:12 | 49.23111 | 8.41784 | 124° | 33km/h | 31796m | 4.2m/s | -39.9°C | 0% | 9.6hPa | 2.7V | 03:17:01 | 02:03:19 | 00:00:00 | |
| DL1XH-west | 2026-09-03 06:33:10 | 49.23120 | 8.41769 | 148° | 22km/h | 31785m | 5.5m/s | -40°C | 0% | 9.6hPa | 2.7V | 03:14:28 | 02:03:17 | 00:00:00 | |
| BIOWL1-15 | 2026-09-03 06:33:09 | 49.23129 | 8.41767 | 230° | 5km/h | 31769m | 4.8m/s | -40°C | 0% | 9.6hPa | 2.6V | 03:15:19 | 02:03:14 | 00:00:00 | |
| DB0UT-7 | 2026-09-03 06:33:08 | 49.23127 | 8.41766 | 195° | 16km/h | 31774m | 5.4m/s | -40.0°C | 1.9% | 9.6hPa | 2.6V | 00:00:00 | 00:00:00 | 00:00:00 | |
| DL1XH1-15 | 2026-09-03 06:33:07 | 49.23132 | 8.41755 | 104° | 24km/h | 31744m | 5.6m/s | -39.8°C | 1.8% | 9.7hPa | 2.6V | 03:14:34 | 02:03:09 | 00:00:00 | |
| DO3MHA-11 | 2026-09-03 06:33:06 | 49.23129 | 8.41768 | 255° | 18km/h | 31765m | 4.2m/s | -39.9°C | 1.9% | 9.6hPa | 2.7V | 00:00:00 | 02:03:13 | 00:00:00 | |
| SONDE2-11 | 2026-09-03 06:33:05 | 49.23130 | 8.41769 | 106° | 0km/h | 31760m | 4.4m/s | -39.9°C | 0.2% | 9.7hPa | 2.7V | 00:00:00 | 00:00:00 | 00:00:00 | |
| DL1XH-15 | 2026-09-03 06:33:05 | 49.23135 | 8.41734 | 103° | 31km/h | 31735m | 4.2m/s | -39.8°C | 1.8% | 9.7hPa | 2.6V | 03:14:36 | 02:03:07 | 00:00:00 | |
| OE5DXL-15 | 2026-09-03 06:33:04 | 49.23130 | 8.41767 | 102° | 16km/h | 31756m | 5.1m/s | -39.8°C | 1.9% | 9.6hPa | 2.7V | 00:00:00 | 00:00:00 | 00:00:00 | |
| DH7VM-15 | 2026-09-03 06:33:03 | 49.23130 | 8.41767 | 103° | 7km/h | 31756m | 5.1m/s | -39.9°C | 0.2% | 9.7hPa | 2.7V | 00:00:00 | 00:00:00 | 00:00:00 | |
| DM0DOS-11 | 2026-09-03 06:33:02 | 49.23138 | 8.41703 | 84° | 20km/h | 31720m | 5.8m/s | -39.9°C | 1.8% | 9.7hPa | 2.7V | 03:14:39 | 02:03:04 | 00:00:00 | |
| AA1-15 | 2026-09-03 06:33:02 | 49.23132 | 8.41755 | 105° | 24km/h | 31744m | 5.6m/s | 0°C | 0% | 0hPa | 2.6V | 18:12:15 | 02:03:09 | 00:00:00 | |
| HSKMA3-T | 2026-09-03 06:33:01 | 49.23133 | 8.41745 | 106° | 29km/h | 31739m | 4.8m/s | -39.8°C | 0% | 9.7hPa | 2.6V | 03:17:01 | 02:03:08 | 00:00:00 | |
| DL1XH-west | 2026-09-03 06:32:59 | 49.23137 | 8.41722 | 100° | 31km/h | 31730m | 4.2m/s | -39.8°C | 0% | 9.7hPa | 2.7V | 03:15:19 | 02:03:06 | 00:00:00 | |
| BIOWL1-15 | 2026-09-03 06:32:56 | 49.23137 | 8.41696 | 71° | 16km/h | 31714m | 5.8m/s | -39.9°C | 0% | 9.7hPa | 2.6V | 03:15:19 | 02:03:03 | 00:00:00 | |
| DO3MHA-11 | 2026-09-03 06:32:56 | 49.23137 | 8.41696 | 71° | 16km/h | 31715m | 5.7m/s | -39.8°C | 1.8% | 9.7hPa | 2.7V | 00:00:00 | 02:03:03 | 00:00:00 | |
| DJ2DS-15 | 2026-09-03 06:32:55 | 49.23136 | 8.41691 | 59° | 16km/h | 31709m | 5.1m/s | -39.9°C | 1.9% | 9.7hPa | 2.7V | 00:00:00 | 02:03:02 | 00:00:00 | |
| DL1XH-15 | 2026-09-03 06:32:54 | 49.23143 | 8.41664 | 125° | 24km/h | 31678m | 4.1m/s | -39.9°C | 1.8% | 9.7hPa | 2.7V | 03:14:47 | 02:02:56 | 00:00:00 | |
| DM0DOS-11 | 2026-09-03 06:32:52 | 49.23148 | 8.41649 | 109° | 18km/h | 31669m | 5.6m/s | -39.9°C | 1.8% | 9.8hPa | 2.6V | 03:14:49 | 02:02:54 | 00:00:00 | |
| DK7TD | 2026-09-03 06:32:52 | 49.23135 | 8.41682 | 118° | 11km/h | 31694m | 5.8m/s | -40°C | 0% | 9.7hPa | 2.6V | 03:15:19 | 02:02:59 | 00:00:00 | |
| AA1-15 | 2026-09-03 06:32:48 | 49.23146 | 8.41656 | 119° | 22km/h | 31674m | 4.4m/s | 0°C | 0% | 0hPa | 2.7V | 18:12:15 | 02:02:55 | 00:00:00 | |
| BIOWL1-15 | 2026-09-03 06:32:46 | 49.23149 | 8.41643 | 90° | 15km/h | 31664m | 5.9m/s | -40°C | 0% | 9.8hPa | 2.6V | 03:15:19 | 02:02:53 | 00:00:00 | |
| DO3MHA-11 | 2026-09-03 06:32:46 | 49.23149 | 8.41643 | 91° | 15km/h | 31664m | 5.8m/s | -39.9°C | 1.8% | 9.7hPa | 2.6V | 00:00:00 | 02:02:53 | 00:00:00 | |
| CB1BUN | 2026-09-03 06:32:45 | 49.23149 | 8.41643 | 91° | 15km/h | 31664m | 5.9m/s | -40.0°C | 0.2% | 9.8hPa | 2.7V | 03:15:00 | 00:00:00 | 00:00:00 | |
| DL8DAS-15 | 2026-09-03 06:32:44 | 49.23147 | 8.41633 | 55° | 15km/h | 31653m | 4.8m/s | -40.1°C | 0.2% | 9.8hPa | 2.7V | 00:00:00 | 00:00:00 | 00:00:00 | |
| EDDB2-11 | 2026-09-03 06:32:43 | 49.23145 | 8.41629 | 53° | 13km/h | 31648m | 4.7m/s | -40.0°C | 0.2% | 9.8hPa | 2.7V | 00:00:00 | 00:00:00 | 00:00:00 | |
| DM0DOS-11 | 2026-09-03 06:32:42 | 49.23147 | 8.41599 | 117° | 13km/h | 31618m | 5.3m/s | -40.3°C | 1.9% | 9.8hPa | 2.7V | 03:14:59 | 02:02:44 | 00:00:00 | |
| DK7TD | 2026-09-03 06:32:41 | 49.23142 | 8.41619 | 84° | 13km/h | 31637m | 5.6m/s | -40.1°C | 0% | 9.8hPa | 2.6V | 03:15:19 | 02:02:48 | 00:00:00 | |
| DL1XH-west | 2026-09-03 06:32:38 | 49.23145 | 8.41604 | 121° | 15km/h | 31623m | 4.5m/s | -40.3°C | 0% | 9.9hPa | 2.7V | 03:15:19 | 02:02:45 | 00:00:00 | |
| DB0UT-7 | 2026-09-03 06:32:38 | 49.23145 | 8.41603 | 121° | 13km/h | 31624m | 4.5m/s | -40.3°C | 1.9% | 9.8hPa | 2.7V | 00:00:00 | 02:02:45 | 00:00:00 | |
| DL1XH1-15 | 2026-09-03 06:32:37 | 49.23145 | 8.41580 | 77° | 13km/h | 31593m | 5.1m/s | -40.2°C | 1.9% | 9.9hPa | 2.7V | 03:15:04 | 02:02:39 | 00:00:00 | |
| AA1-15 | 2026-09-03 06:32:37 | 49.23147 | 8.41599 | 117° | 13km/h | 31618m | 5.3m/s | 0°C | 0% | 0hPa | 2.7V | 18:12:15 | 02:02:44 | 00:00:00 | |
| HSKMA3-T | 2026-09-03 06:32:36 | 49.23148 | 8.41595 | 104° | 9km/h | 31613m | 5.7m/s | -40.3°C | 0% | 9.9hPa | 2.6V | 03:17:01 | 02:02:43 | 00:00:00 | |
| BIOWL1-15 | 2026-09-03 06:32:35 | 49.23148 | 8.41592 | 80° | 9km/h | 31607m | 5.4m/s | -40.2°C | 0% | 9.8hPa | 2.6V | 03:15:19 | 02:02:42 | 00:00:00 | |
| DJ2DS-15 | 2026-09-03 06:32:35 | 49.23148 | 8.41592 | 81° | 11km/h | 31608m | 5.3m/s | -40.2°C | 1.9% | 9.8hPa | 2.6V | 03:15:00 | 02:02:42 | 00:00:00 | |
| OE5DXL-15 | 2026-09-03 06:32:34 | 49.23147 | 8.41588 | 63° | 11km/h | 31603m | 4.7m/s | -40.1°C | 1.8% | 9.8hPa | 2.7V | 00:00:00 | 00:00:00 | 00:00:00 | |
| HARRO8 | 2026-09-03 06:32:33 | 49.23146 | 8.41585 | 67° | 11km/h | 31598m | 4.5m/s | -40.2°C | 0.2% | 9.9hPa | 2.7V | 00:00:00 | 00:00:00 | 00:00:00 | |
| DM0DOS-11 | 2026-09-03 06:32:32 | 49.23152 | 8.41551 | 125° | 11km/h | 31567m | 4m/s | -40°C | 1.9% | 9.9hPa | 2.7V | 03:15:09 | 02:02:34 | 00:00:00 | |
| DK7TD | 2026-09-03 06:32:31 | 49.23145 | 8.41575 | 93° | 16km/h | 31587m | 6.4m/s | -40.2°C | 0% | 9.9hPa | 2.7V | 03:15:19 | 02:02:38 | 00:00:00 | |
| DL3AQ-11 | 2026-09-03 06:32:30 | 49.23148 | 8.41562 | 115° | 18km/h | 31575m | 4.7m/s | -40.1°C | 0.2% | 9.9hPa | 2.7V | 00:00:00 | 00:00:00 | 00:00:00 | |
| NBG1-10 | 2026-09-03 06:32:28 | 49.23150 | 8.41555 | 122° | 11km/h | 31571m | 3.7m/s | -40.0°C | 1.9% | 9.9hPa | 2.7V | 00:00:00 | 02:02:35 | 00:00:00 | |
| DL1XH1-15 | 2026-09-03 06:32:27 | 49.23148 | 8.41556 | 314° | 15km/h | 31541m | 3.9m/s | -40.1°C | 1.8% | 10hPa | 2.7V | 03:15:14 | 02:02:29 | 00:00:00 | |
| DL1XH-west | 2026-09-03 06:32:27 | 49.23152 | 8.41551 | 126° | 11km/h | 31567m | 4m/s | -40°C | 0% | 9.9hPa | 2.7V | 03:15:19 | 02:02:34 | 00:00:00 | |
| BIOWL1-15 | 2026-09-03 06:32:24 | 49.23152 | 8.41549 | 315° | 9km/h | 31551m | 6.1m/s | -40°C | 0% | 9.9hPa | 2.6V | 03:15:19 | 02:02:31 | 00:00:00 | |
| DL4BBY-15 | 2026-09-03 06:32:24 | 49.23152 | 8.41549 | 315° | 9km/h | 31551m | 6.1m/s | -40.8°C | 0% | 0hPa | 2.7V | 00:00:00 | 00:00:00 | 00:00:00 | |
| DL8DAS-14 | 2026-09-03 06:32:23 | 49.23147 | 8.41556 | 314° | 13km/h | 31541m | 3.9m/s | -40.1°C | 0.2% | 10.0hPa | 2.7V | 00:00:00 | 00:00:00 | 00:00:00 | |
| DM0DOS-11 | 2026-09-03 06:32:22 | 49.23148 | 8.41554 | 119° | 16km/h | 31515m | 4.6m/s | -39.9°C | 1.9% | 10hPa | 2.7V | 03:15:19 | 02:02:24 | 00:00:00 | |
| HSKMA3-T | 2026-09-03 06:32:20 | 49.23144 | 8.41562 | 314° | 4km/h | 31532m | 5.4m/s | -40°C | 0% | 10hPa | 2.7V | 03:17:01 | 02:02:27 | 00:00:00 | |
| AA1-15 | 2026-09-03 06:32:18 | 49.23146 | 8.41559 | 126° | 13km/h | 31521m | 5.5m/s | 0°C | 0% | 0hPa | 2.6V | 18:12:15 | 02:02:25 | 00:00:00 | |
| DL1XH-west | 2026-09-03 06:32:16 | 49.23149 | 8.41548 | 110° | 18km/h | 31511m | 4.2m/s | -39.9°C | 0% | 10hPa | 2.7V | 03:16:10 | 02:02:23 | 00:00:00 | |
| DO3MHA-11 | 2026-09-03 06:32:16 | 49.23149 | 8.41548 | 110° | 13km/h | 31511m | 4.1m/s | -39.9°C | 1.9% | 10.0hPa | 2.7V | 00:00:00 | 02:02:23 | 00:00:00 | |
| DL1XH-15 | 2026-09-03 06:32:15 | 49.23132 | 8.41531 | 351° | 11km/h | 31475m | 5.6m/s | -40.1°C | 1.8% | 10.1hPa | 2.7V | 03:15:27 | 02:02:16 | 00:00:00 | |
| DJ2DS-15 | 2026-09-03 06:32:14 | 49.23149 | 8.41537 | 65° | 13km/h | 31502m | 5.9m/s | -40.0°C | 0.2% | 10.1hPa | 2.6V | 00:00:00 | 00:00:00 | 00:00:00 | |
| BIOWL1-15 | 2026-09-03 06:32:14 | 49.23149 | 8.41537 | 66° | 15km/h | 31501m | 5.9m/s | -40°C | 0% | 10.1hPa | 2.6V | 03:16:10 | 02:02:21 | 00:00:00 | |
| DM0DOS-11 | 2026-09-03 06:32:12 | 49.23129 | 8.41532 | 324° | 0km/h | 31464m | 5.1m/s | -40°C | 1.8% | 10.1hPa | 2.6V | 03:15:29 | 02:02:14 | 00:00:00 | |
| DK7TD | 2026-09-03 06:32:09 | 49.23132 | 8.41531 | 351° | 11km/h | 31475m | 5.6m/s | -40.1°C | 0% | 10.1hPa | 2.7V | 03:16:10 | 02:02:16 | 00:00:00 | |
| DL1XH-west | 2026-09-03 06:32:06 | 49.23129 | 8.41532 | 170° | 2km/h | 31459m | 4.9m/s | -40.1°C | 0% | 10.1hPa | 2.7V | 03:16:10 | 02:02:13 | 00:00:00 | |
| BIOWL1-15 | 2026-09-03 06:32:05 | 49.23131 | 8.41531 | 170° | 2km/h | 31449m | 6.1m/s | -40.1°C | 0% | 10.1hPa | 2.7V | 03:16:10 | 02:02:11 | 00:00:00 | |
| DL1XH-15 | 2026-09-03 06:32:04 | 49.23127 | 8.41523 | 75° | 13km/h | 31423m | 6.1m/s | -40°C | 1.9% | 10.1hPa | 2.7V | 03:15:37 | 02:02:06 | 00:00:00 | |
| OE5DXL-15 | 2026-09-03 06:32:04 | 49.23131 | 8.41531 | 171° | 7km/h | 31449m | 6.0m/s | -40.0°C | 1.8% | 10.1hPa | 2.7V | 03:15:00 | 00:00:00 | 00:00:00 | |
| SONDE2-11 | 2026-09-03 06:32:03 | 49.23130 | 8.41531 | 23° | 4km/h | 31438m | 4.8m/s | -39.9°C | 0.2% | 10.1hPa | 2.6V | 00:00:00 | 00:00:00 | 00:00:00 | |
| DM0DOS-11 | 2026-09-03 06:32:02 | 49.23127 | 8.41512 | 93° | 16km/h | 31411m | 5.2m/s | -40°C | 1.9% | 10.2hPa | 2.6V | 03:15:39 | 02:02:04 | 00:00:00 | |
| DJ2KF-10 | 2026-09-03 06:32:00 | 49.23128 | 8.41527 | 63° | 9km/h | 31428m | 4.6m/s | -39.9°C | 1.9% | 10.1hPa | 2.6V | 00:00:00 | 02:02:07 | 00:00:00 | |
| KANTATE | 2026-09-03 06:31:59 | 49.23128 | 8.41527 | 64° | 9km/h | 31428m | 4.6m/s | -39.9°C | 0.2% | 10.1hPa | 2.6V | 00:00:00 | 00:00:00 | 00:00:00 | |
| IW2NTF | 2026-09-03 06:31:58 | 49.23125 | 8.41499 | 328° | 7km/h | 31390m | 6.4m/s | -40.3°C | 1.9% | 10.2hPa | 2.6V | 03:15:43 | 02:02:00 | 00:00:00 | |
| DK7TD | 2026-09-03 06:31:58 | 49.23127 | 8.41518 | 88° | 16km/h | 31416m | 6.4m/s | -40°C | 0% | 10.2hPa | 2.7V | 03:16:10 | 02:02:05 | 00:00:00 | |
| DL1XH1-15 | 2026-09-03 06:31:57 | 49.23124 | 8.41501 | 309° | 11km/h | 31384m | 5.3m/s | -40.2°C | 1.9% | 10.2hPa | 2.6V | 03:15:44 | 02:01:59 | 00:00:00 | |
| HSKMA3-T | 2026-09-03 06:31:57 | 49.23127 | 8.41512 | 94° | 16km/h | 31411m | 5.2m/s | -40°C | 0% | 10.2hPa | 2.6V | 03:17:01 | 02:02:04 | 00:00:00 | |
| BIOWL1-15 | 2026-09-03 06:31:55 | 49.23126 | 8.41499 | 329° | 7km/h | 31390m | 6.4m/s | -40.3°C | 0% | 10.2hPa | 2.6V | 03:16:10 | 02:02:00 | 00:00:00 | |
| DL1XH-west | 2026-09-03 06:31:55 | 49.23127 | 8.41501 | 84° | 9km/h | 31401m | 4.4m/s | -40.1°C | 0% | 10.2hPa | 2.7V | 03:16:10 | 02:02:02 | 00:00:00 | |
| DD1CC8 | 2026-09-03 06:31:54 | 49.23127 | 8.41499 | 45° | 4km/h | 31397m | 6.0m/s | -40.2°C | 0.2% | 10.2hPa | 2.6V | 00:00:00 | 00:00:00 | 00:00:00 | |
| DL8DAS-14 | 2026-09-03 06:31:52 | 49.23123 | 8.41504 | 299° | 9km/h | 31379m | 4.4m/s | -40.2°C | 0.2% | 10.2hPa | 2.6V | 00:00:00 | 00:00:00 | 00:00:00 | |
| DL3AQ-11 | 2026-09-03 06:31:50 | 49.23122 | 8.41508 | 217° | 2km/h | 31370m | 5.9m/s | -40.2°C | 0.2% | 10.2hPa | 2.6V | 00:00:00 | 00:00:00 | 00:00:00 | |
| DL1XH1-15 | 2026-09-03 06:31:47 | 49.23132 | 8.41485 | 115° | 4km/h | 31331m | 4.9m/s | -40°C | 1.9% | 10.3hPa | 2.6V | 03:15:54 | 02:01:49 | 00:00:00 | |
| DK7TD | 2026-09-03 06:31:47 | 49.23124 | 8.41505 | 129° | 13km/h | 31358m | 5.7m/s | -40.2°C | 0% | 10.2hPa | 2.6V | 03:16:10 | 02:01:54 | 00:00:00 | |
| DO1YAY-16 | 2026-09-03 06:31:46 | 49.23127 | 8.41500 | 124° | 15km/h | 31353m | 5.1m/s | -40.2°C | 0.2% | 10.3hPa | 2.7V | 00:00:00 | 00:00:00 | 00:00:00 | |
| BIOWL1-15 | 2026-09-03 06:31:45 | 49.23132 | 8.41487 | 117° | 7km/h | 31336m | 5.5m/s | -40°C | 0% | 10.3hPa | 2.7V | 03:16:10 | 02:01:50 | 00:00:00 | |
| DL1XH-west | 2026-09-03 06:31:45 | 49.23129 | 8.41495 | 122° | 16km/h | 31347m | 5.3m/s | -40.2°C | 0% | 10.2hPa | 2.7V | 03:16:10 | 02:01:52 | 00:00:00 | |
| DN1GJH-1 | 2026-09-03 06:31:45 | 49.23129 | 8.41495 | 123° | 16km/h | 31347m | 5.3m/s | -40.1°C | 0.2% | 10.3hPa | 2.7V | 03:16:00 | 00:00:00 | 00:00:00 | |
| DL1XH-15 | 2026-09-03 06:31:44 | 49.23134 | 8.41482 | 140° | 4km/h | 31315m | 6.3m/s | -40.2°C | 1.9% | 10.3hPa | 2.7V | 03:15:57 | 02:01:46 | 00:00:00 | |
| DL0LBS | 2026-09-03 06:31:43 | 49.23132 | 8.41487 | 118° | 7km/h | 31336m | 5.5m/s | -40.0°C | 0.2% | 10.3hPa | 2.6V | 03:16:00 | 00:00:00 | 00:00:00 | |
| DM0DOS-11 | 2026-09-03 06:31:42 | 49.23136 | 8.41480 | 159° | 5km/h | 31303m | 5.2m/s | -40.3°C | 1.9% | 10.3hPa | 2.6V | 03:15:59 | 02:01:44 | 00:00:00 | |
| EDDB2-11 | 2026-09-03 06:31:42 | 49.23133 | 8.41484 | 123° | 2km/h | 31326m | 4.7m/s | -40.1°C | 0.2% | 10.3hPa | 2.7V | 00:00:00 | 00:00:00 | 00:00:00 | |
| DK5PH-5 | 2026-09-03 06:31:41 | 49.23133 | 8.41484 | 124° | 9km/h | 31326m | 4.7m/s | -40.0°C | 1.9% | 10.3hPa | 2.7V | 00:00:00 | 02:01:48 | 00:00:00 | |
| DB0UT-7 | 2026-09-03 06:31:38 | 49.23135 | 8.41481 | 147° | 9km/h | 31309m | 5.7m/s | -40.1°C | 1.9% | 10.3hPa | 2.7V | 03:15:00 | 02:01:45 | 00:00:00 | |
| DL1XH1-15 | 2026-09-03 06:31:37 | 49.23141 | 8.41487 | 237° | 5km/h | 31276m | 4.4m/s | -40.3°C | 1.9% | 10.4hPa | 2.7V | 03:16:04 | 02:01:39 | 00:00:00 | |
| DK7TD | 2026-09-03 06:31:36 | 49.23138 | 8.41480 | 184° | 5km/h | 31298m | 4.9m/s | -40.4°C | 0% | 10.3hPa | 2.6V | 03:16:10 | 02:01:43 | 00:00:00 | |
| DO3MHA-11 | 2026-09-03 06:31:36 | 49.23138 | 8.41480 | 185° | 9km/h | 31298m | 4.8m/s | -40.3°C | 1.9% | 10.3hPa | 2.7V | 00:00:00 | 02:01:43 | 00:00:00 | |
| DL1XH-15 | 2026-09-03 06:31:35 | 49.23145 | 8.41483 | 118° | 15km/h | 31259m | 6.8m/s | -40.4°C | 1.9% | 10.4hPa | 2.7V | 03:16:07 | 02:01:36 | 00:00:00 | |
| BIOWL1-15 | 2026-09-03 06:31:35 | 49.23141 | 8.41487 | 238° | 5km/h | 31276m | 4.4m/s | -40.3°C | 0% | 10.4hPa | 2.7V | 03:16:10 | 02:01:39 | 00:00:00 | |
| DL1XH-west | 2026-09-03 06:31:34 | 49.23140 | 8.41483 | 243° | 7km/h | 31287m | 6.4m/s | -40.3°C | 0% | 10.3hPa | 2.7V | 03:16:10 | 02:01:41 | 00:00:00 | |
| OE5DXL-15 | 2026-09-03 06:31:34 | 49.23140 | 8.41482 | 243° | 9km/h | 31287m | 6.4m/s | -40.3°C | 1.9% | 10.3hPa | 2.7V | 00:00:00 | 00:00:00 | 00:00:00 | |
| IW2NTF | 2026-09-03 06:31:33 | 49.23147 | 8.41477 | 115° | 20km/h | 31253m | 5.8m/s | -40.4°C | 1.9% | 10.4hPa | 2.7V | 03:16:08 | 02:01:35 | 00:00:00 | |
| DM7RM-13 | 2026-09-03 06:31:33 | 49.23140 | 8.41482 | 244° | 7km/h | 31287m | 6.4m/s | -40.3°C | 0.2% | 10.4hPa | 2.6V | 03:16:00 | 00:00:00 | 00:00:00 | |
| LOEBOVI | 2026-09-03 06:31:32 | 49.23141 | 8.41485 | 253° | 7km/h | 31281m | 5.3m/s | -40.3°C | 0% | 0hPa | 2.6V | 00:00:00 | 00:00:00 | 00:00:00 | |
| DJ2KF-10 | 2026-09-03 06:31:30 | 49.23143 | 8.41486 | 130° | 9km/h | 31266m | 6.4m/s | -40.3°C | 1.9% | 10.3hPa | 2.6V | 00:00:00 | 02:01:37 | 00:00:00 | |
| OE5DRO-10 | 2026-09-03 06:31:29 | 49.23145 | 8.41482 | 119° | 11km/h | 31259m | 6.7m/s | -40.3°C | 1.9% | 10.3hPa | 2.6V | 00:00:00 | 00:00:00 | 00:00:00 | |
| DL1XH1-15 | 2026-09-03 06:31:27 | 49.23154 | 8.41458 | 237° | 5km/h | 31220m | 4.8m/s | -40.3°C | 1.9% | 10.5hPa | 2.6V | 03:16:14 | 02:01:29 | 00:00:00 | |
| DK7TD | 2026-09-03 06:31:26 | 49.23151 | 8.41463 | 114° | 16km/h | 31242m | 5.1m/s | -40.5°C | 0% | 10.4hPa | 2.6V | 03:16:10 | 02:01:33 | 00:00:00 | |
| DO3MHA-11 | 2026-09-03 06:31:26 | 49.23151 | 8.41463 | 115° | 9km/h | 31243m | 5.0m/s | -40.4°C | 1.9% | 10.4hPa | 2.7V | 00:00:00 | 02:01:33 | 00:00:00 | |
| DL9PN | 2026-09-03 06:31:25 | 49.23154 | 8.41458 | 237° | 5km/h | 31221m | 4.8m/s | -40.3°C | 0.2% | 10.5hPa | 2.7V | 00:00:00 | 00:00:00 | 00:00:00 | |
| DL1XH-15 | 2026-09-03 06:31:24 | 49.23159 | 8.41460 | 158° | 9km/h | 31203m | 5.8m/s | -40.2°C | 1.9% | 10.5hPa | 2.7V | 03:16:17 | 02:01:26 | 00:00:00 | |
| IW2NTF | 2026-09-03 06:31:23 | 49.23161 | 8.41458 | 142° | 11km/h | 31198m | 5.2m/s | -40.1°C | 1.9% | 10.5hPa | 2.7V | 03:16:18 | 02:01:25 | 00:00:00 | |
| DL1XH-west | 2026-09-03 06:31:23 | 49.23154 | 8.41457 | 227° | 4km/h | 31225m | 5.1m/s | -40.4°C | 0% | 10.4hPa | 2.7V | 03:17:01 | 02:01:30 | 00:00:00 | |
| BIOWL1-15 | 2026-09-03 06:31:21 | 49.23155 | 8.41460 | 224° | 5km/h | 31215m | 5.6m/s | -40.3°C | 0% | 10.5hPa | 2.6V | 03:17:01 | 02:01:28 | 00:00:00 | |
| HSKMA3-T | 2026-09-03 06:31:20 | 49.23157 | 8.41461 | 190° | 7km/h | 31209m | 6.2m/s | -40.3°C | 0% | 10.5hPa | 2.6V | 03:17:01 | 02:01:27 | 00:00:00 | |
| SSTOLZ84 | 2026-09-03 06:31:19 | 49.23161 | 8.41458 | 142° | 11km/h | 31198m | 5.2m/s | -40.1°C | 0.2% | 10.5hPa | 2.7V | 00:00:00 | 00:00:00 | 00:00:00 | |
| DL1XH1-15 | 2026-09-03 06:31:17 | 49.23165 | 8.41440 | 68° | 9km/h | 31165m | 5.2m/s | -40.4°C | 1.9% | 10.6hPa | 2.7V | 03:16:24 | 02:01:19 | 00:00:00 | |
| DK7TD | 2026-09-03 06:31:15 | 49.23166 | 8.41449 | 108° | 9km/h | 31182m | 6.3m/s | -40.2°C | 0% | 10.5hPa | 2.6V | 03:17:01 | 02:01:22 | 00:00:00 | |
| DJ2DS-15 | 2026-09-03 06:31:15 | 49.23166 | 8.41449 | 108° | 9km/h | 31182m | 6.3m/s | -40.1°C | 1.9% | 10.5hPa | 2.6V | 03:16:00 | 02:01:22 | 00:00:00 | |
| DL1XH-15 | 2026-09-03 06:31:14 | 49.23164 | 8.41427 | 95° | 13km/h | 31147m | 5.4m/s | -40.4°C | 1.8% | 10.6hPa | 2.6V | 03:16:27 | 02:01:16 | 00:00:00 | |
| IW2NTF | 2026-09-03 06:31:13 | 49.23164 | 8.41423 | 100° | 11km/h | 31142m | 4.9m/s | -40.4°C | 1.9% | 10.6hPa | 2.7V | 03:16:28 | 02:01:15 | 00:00:00 | |
| BIOWL1-15 | 2026-09-03 06:31:13 | 49.23164 | 8.41437 | 77° | 11km/h | 31159m | 6.1m/s | -40.4°C | 0% | 10.6hPa | 2.6V | 03:17:01 | 02:01:18 | 00:00:00 | |
| DM0DOS-11 | 2026-09-03 06:31:12 | 49.23164 | 8.41420 | 106° | 5km/h | 31137m | 5.4m/s | -40.4°C | 1.9% | 10.6hPa | 2.7V | 03:16:29 | 02:01:14 | 00:00:00 | |
| DL1XH-west | 2026-09-03 06:31:12 | 49.23165 | 8.41440 | 68° | 9km/h | 31165m | 5.2m/s | -40.4°C | 0% | 10.6hPa | 2.7V | 03:17:01 | 02:01:19 | 00:00:00 | |
| HSKMA3-T | 2026-09-03 06:31:09 | 49.23163 | 8.41427 | 95° | 13km/h | 31147m | 5.4m/s | -40.4°C | 0% | 10.6hPa | 2.6V | 03:17:01 | 02:01:16 | 00:00:00 | |
| DB0UT-7 | 2026-09-03 06:31:08 | 49.23164 | 8.41423 | 101° | 9km/h | 31142m | 4.8m/s | -40.3°C | 1.9% | 10.5hPa | 2.7V | 00:00:00 | 00:00:00 | 00:00:00 | |
| DL1XH1-15 | 2026-09-03 06:31:07 | 49.23165 | 8.41426 | 211° | 2km/h | 31108m | 5.3m/s | -40.6°C | 2% | 10.7hPa | 2.7V | 03:16:34 | 02:01:09 | 00:00:00 | |
| DK7TD | 2026-09-03 06:31:05 | 49.23165 | 8.41420 | 270° | 5km/h | 31124m | 6.5m/s | -40.6°C | 0% | 10.6hPa | 2.6V | 03:17:01 | 02:01:12 | 00:00:00 | |
| BIOWL1-15 | 2026-09-03 06:31:03 | 49.23166 | 8.41425 | 116° | 5km/h | 31102m | 6.6m/s | -40.6°C | 0% | 10.7hPa | 2.6V | 03:17:01 | 02:01:08 | 00:00:00 | |
| DM0DOS-11 | 2026-09-03 06:31:02 | 49.23167 | 8.41405 | 79° | 15km/h | 31079m | 5.7m/s | -40.7°C | 1.9% | 10.7hPa | 2.7V | 03:16:39 | 02:01:04 | 00:00:00 | |
| DL1XH-west | 2026-09-03 06:31:02 | 49.23165 | 8.41426 | 212° | 2km/h | 31108m | 5.4m/s | -40.6°C | 0% | 10.7hPa | 2.7V | 03:17:01 | 02:01:09 | 00:00:00 | |
| SONDE2-11 | 2026-09-03 06:31:01 | 49.23166 | 8.41422 | 102° | 11km/h | 31096m | 6.1m/s | -40.6°C | 0.2% | 10.7hPa | 2.7V | 00:00:00 | 00:00:00 | 00:00:00 | |
| DJ2KF-10 | 2026-09-03 06:31:00 | 49.23166 | 8.41422 | 103° | 11km/h | 31096m | 6.1m/s | -40.6°C | 2.0% | 10.6hPa | 2.7V | 00:00:00 | 02:01:07 | 00:00:00 | |
| KANTATE | 2026-09-03 06:30:58 | 49.23167 | 8.41417 | 96° | 16km/h | 31090m | 5.4m/s | -40.6°C | 0.2% | 10.7hPa | 2.7V | 00:00:00 | 00:00:00 | 00:00:00 | |
| DL1XH1-15 | 2026-09-03 06:30:57 | 49.23161 | 8.41399 | 269° | 2km/h | 31051m | 5.7m/s | -40.4°C | 1.9% | 10.7hPa | 2.7V | 03:16:44 | 02:00:59 | 00:00:00 | |
| HSKMA3-T | 2026-09-03 06:30:56 | 49.23166 | 8.41400 | 64° | 11km/h | 31073m | 6.4m/s | -40.6°C | 0% | 10.7hPa | 2.6V | 03:17:01 | 02:01:03 | 00:00:00 | |
| DK7TD | 2026-09-03 06:30:55 | 49.23164 | 8.41398 | 29° | 7km/h | 31067m | 5.7m/s | -40.5°C | 0% | 10.7hPa | 2.6V | 03:17:01 | 02:01:02 | 00:00:00 | |
| DJ2DS-15 | 2026-09-03 06:30:55 | 49.23164 | 8.41398 | 30° | 11km/h | 31067m | 5.7m/s | -40.4°C | 1.9% | 10.7hPa | 2.6V | 00:00:00 | 02:01:02 | 00:00:00 | |
| DL1XH-15 | 2026-09-03 06:30:54 | 49.23166 | 8.41397 | 148° | 13km/h | 31033m | 5.6m/s | -40.4°C | 1.9% | 10.8hPa | 2.6V | 03:16:47 | 02:00:56 | 00:00:00 | |
| DL1XH-west | 2026-09-03 06:30:51 | 49.23162 | 8.41400 | 177° | 5km/h | 31045m | 6.2m/s | -40.4°C | 0% | 10.7hPa | 2.7V | 03:17:01 | 02:00:58 | 00:00:00 | |
| DB0NH | 2026-09-03 06:30:50 | 49.23164 | 8.41399 | 158° | 13km/h | 31040m | 6.0m/s | -40.3°C | 1.9% | 10.7hPa | 2.7V | 00:00:00 | 02:00:57 | 00:00:00 | |
| NBG1-10 | 2026-09-03 06:30:49 | 49.23166 | 8.41397 | 149° | 13km/h | 31034m | 5.5m/s | -40.4°C | 1.9% | 10.7hPa | 2.7V | 00:00:00 | 02:00:56 | 00:00:00 | |
| DL1XH1-15 | 2026-09-03 06:30:47 | 49.23168 | 8.41376 | 53° | 11km/h | 30995m | 5.2m/s | -40.5°C | 1.9% | 10.8hPa | 2.7V | 03:16:54 | 02:00:49 | 00:00:00 | |
| DL3AQ-11 | 2026-09-03 06:30:46 | 49.23173 | 8.41384 | 70° | 5km/h | 31012m | 6.6m/s | -40.4°C | 0.2% | 10.8hPa | 2.6V | 00:00:00 | 00:00:00 | 00:00:00 | |
| DF7PN | 2026-09-03 06:30:45 | 49.23173 | 8.41384 | 70° | 5km/h | 31012m | 6.6m/s | -40.4°C | 0.2% | 10.8hPa | 2.6V | 00:00:00 | 00:00:00 | 00:00:00 | |
| DK7TD | 2026-09-03 06:30:44 | 49.23172 | 8.41381 | 41° | 9km/h | 31005m | 5.9m/s | -40.4°C | 0% | 10.8hPa | 2.6V | 03:17:01 | 02:00:51 | 00:00:00 | |
| DL1XH-west | 2026-09-03 06:30:41 | 49.23166 | 8.41372 | 76° | 13km/h | 30989m | 6.3m/s | -40.6°C | 0% | 10.8hPa | 2.7V | 03:17:01 | 02:00:48 | 00:00:00 | |
| BIOWL1-15 | 2026-09-03 06:30:40 | 49.23166 | 8.41366 | 100° | 15km/h | 30983m | 6.4m/s | -40.6°C | 0% | 10.9hPa | 2.7V | 03:17:01 | 02:00:47 | 00:00:00 | |
| EDDB2-11 | 2026-09-03 06:30:39 | 49.23168 | 8.41360 | 115° | 16km/h | 30977m | 5.7m/s | -40.6°C | 0.2% | 10.8hPa | 2.6V | 00:00:00 | 00:00:00 | 00:00:00 | |
| DB0UT-7 | 2026-09-03 06:30:38 | 49.23170 | 8.41354 | 126° | 13km/h | 30971m | 5.0m/s | -40.5°C | 1.9% | 10.8hPa | 2.6V | 00:00:00 | 02:00:45 | 00:00:00 | |
| DL1XH1-15 | 2026-09-03 06:30:37 | 49.23179 | 8.41335 | 79° | 7km/h | 30938m | 5.3m/s | -40.5°C | 1.9% | 10.9hPa | 2.7V | 03:17:04 | 02:00:39 | 00:00:00 | |
| BIOWL1-15 | 2026-09-03 06:30:34 | 49.23179 | 8.41326 | 92° | 16km/h | 30925m | 6.7m/s | -40.5°C | 0% | 10.9hPa | 2.6V | 03:17:52 | 02:00:37 | 00:00:00 | |
| OE5DXL-15 | 2026-09-03 06:30:34 | 49.23179 | 8.41339 | 121° | 11km/h | 30948m | 5.4m/s | -40.6°C | 1.9% | 10.8hPa | 2.6V | 00:00:00 | 02:00:41 | 00:00:00 | |
| DL1XH-15 | 2026-09-03 06:30:33 | 49.23179 | 8.41310 | 92° | 22km/h | 30913m | 5.2m/s | -40.5°C | 1.9% | 11hPa | 2.6V | 03:17:08 | 02:00:35 | 00:00:00 | |
| DK7TD | 2026-09-03 06:30:33 | 49.23179 | 8.41338 | 83° | 5km/h | 30943m | 4.8m/s | -40.6°C | 0% | 10.9hPa | 2.7V | 03:17:52 | 02:00:40 | 00:00:00 | |
| HSKMA3-T | 2026-09-03 06:30:32 | 49.23179 | 8.41335 | 79° | 7km/h | 30938m | 5.3m/s | -40.5°C | 0% | 10.9hPa | 2.7V | 03:19:34 | 02:00:39 | 00:00:00 | |
| OE5DRO-10 | 2026-09-03 06:30:32 | 49.23179 | 8.41335 | 80° | 13km/h | 30938m | 5.2m/s | -40.5°C | 1.9% | 10.9hPa | 2.7V | 00:00:00 | 00:00:00 | 00:00:00 | |
| DL1XH-west | 2026-09-03 06:30:32 | 49.23179 | 8.41332 | 86° | 11km/h | 30932m | 6.6m/s | -40.5°C | 0% | 10.9hPa | 2.7V | 03:17:52 | 02:00:38 | 00:00:00 | |
| SONDE2-11 | 2026-09-03 06:30:30 | 49.23179 | 8.41319 | 93° | 20km/h | 30919m | 5.9m/s | -40.5°C | 0.2% | 10.9hPa | 2.7V | 00:00:00 | 00:00:00 | 00:00:00 | |
| HARRO8 | 2026-09-03 06:30:29 | 49.23179 | 8.41319 | 93° | 20km/h | 30919m | 5.9m/s | -40.5°C | 0.2% | 10.9hPa | 2.7V | 00:00:00 | 00:00:00 | 00:00:00 | |
| BIOWL7-15 | 2026-09-03 06:30:28 | 49.23179 | 8.41319 | 94° | 20km/h | 30919m | 5.9m/s | -40.5°C | 0.2% | 11.0hPa | 2.7V | 00:00:00 | 00:00:00 | 00:00:00 | |
| DL1XH1-15 | 2026-09-03 06:30:27 | 49.23177 | 8.41279 | 104° | 7km/h | 30879m | 6.3m/s | -40.5°C | 1.9% | 11hPa | 2.7V | 03:17:14 | 02:00:29 | 00:00:00 | |
| DO3MHA-11 | 2026-09-03 06:30:26 | 49.23179 | 8.41295 | 83° | 11km/h | 30903m | 6.3m/s | -40.5°C | 1.9% | 10.9hPa | 2.7V | 00:00:00 | 02:00:33 | 00:00:00 | |
| DF3TZ-5 | 2026-09-03 06:30:24 | 49.23177 | 8.41285 | 69° | 9km/h | 30890m | 5.7m/s | -40.6°C | 0.2% | 11.0hPa | 2.7V | 00:00:00 | 00:00:00 | 00:00:00 | |
| DL1XH-15 | 2026-09-03 06:30:23 | 49.23182 | 8.41263 | 101° | 13km/h | 30856m | 5.1m/s | -40.4°C | 1.8% | 11hPa | 2.7V | 03:17:18 | 02:00:25 | 00:00:00 | |
| DK7TD | 2026-09-03 06:30:23 | 49.23177 | 8.41282 | 80° | 7km/h | 30884m | 5.3m/s | -40.5°C | 0% | 11hPa | 2.6V | 03:17:52 | 02:00:30 | 00:00:00 | |
| DM0DOS-11 | 2026-09-03 06:30:22 | 49.23182 | 8.41258 | 80° | 11km/h | 30850m | 6.5m/s | -40.4°C | 1.8% | 11.1hPa | 2.7V | 03:17:19 | 02:00:24 | 00:00:00 | |
| HSKMA3-T | 2026-09-03 06:30:22 | 49.23177 | 8.41279 | 104° | 7km/h | 30879m | 6.3m/s | -40.5°C | 0% | 11hPa | 2.7V | 03:19:34 | 02:00:29 | 00:00:00 | |
| BIOWL1-15 | 2026-09-03 06:30:21 | 49.23181 | 8.41268 | 116° | 13km/h | 30861m | 4.9m/s | -40.4°C | 0% | 11hPa | 2.6V | 03:17:52 | 02:00:26 | 00:00:00 | |
| DL1XH-west | 2026-09-03 06:30:21 | 49.23178 | 8.41276 | 119° | 11km/h | 30872m | 6.5m/s | -40.4°C | 0% | 11hPa | 2.7V | 03:17:52 | 02:00:28 | 00:00:00 | |
| DD1CC8 | 2026-09-03 06:30:21 | 49.23178 | 8.41276 | 118° | 9km/h | 30873m | 6.5m/s | -40.4°C | 0.2% | 11.0hPa | 2.6V | 00:00:00 | 00:00:00 | 00:00:00 | |
| DB0NH | 2026-09-03 06:30:20 | 49.23179 | 8.41272 | 123° | 11km/h | 30867m | 5.3m/s | -40.4°C | 1.9% | 11.0hPa | 2.6V | 03:17:00 | 02:00:27 | 00:00:00 | |
| DL8DAS-14 | 2026-09-03 06:30:19 | 49.23182 | 8.41263 | 101° | 11km/h | 30856m | 5.1m/s | -40.4°C | 0.2% | 11.1hPa | 2.7V | 00:00:00 | 00:00:00 | 00:00:00 | |
| DL3AQ-11 | 2026-09-03 06:30:17 | 49.23181 | 8.41254 | 56° | 11km/h | 30844m | 6.7m/s | -40.4°C | 0.2% | 11.1hPa | 2.7V | 00:00:00 | 00:00:00 | 00:00:00 | |
| DO3MHA-11 | 2026-09-03 06:30:16 | 49.23181 | 8.41254 | 57° | 11km/h | 30844m | 6.6m/s | -40.4°C | 1.8% | 11.0hPa | 2.7V | 00:00:00 | 02:00:23 | 00:00:00 | |
| DJ2DS-15 | 2026-09-03 06:30:15 | 49.23179 | 8.41250 | 44° | 7km/h | 30838m | 5.9m/s | -40.4°C | 1.8% | 11.0hPa | 2.6V | 00:00:00 | 02:00:22 | 00:00:00 | |
| DF7PN | 2026-09-03 06:30:14 | 49.23174 | 8.41242 | 53° | 13km/h | 30826m | 5.8m/s | -40.6°C | 0.2% | 11.1hPa | 2.6V | 00:00:00 | 00:00:00 | 00:00:00 | |
| OE5DRO-10 | 2026-09-03 06:30:13 | 49.23174 | 8.41242 | 54° | 7km/h | 30826m | 5.7m/s | -40.6°C | 1.8% | 11.0hPa | 2.6V | 00:00:00 | 00:00:00 | 00:00:00 | |
| DM0DOS-11 | 2026-09-03 06:30:12 | 49.23174 | 8.41224 | 343° | 2km/h | 30790m | 6.6m/s | -41°C | 1.9% | 11.2hPa | 2.7V | 03:17:29 | 02:00:14 | 00:00:00 | |
| DK7TD | 2026-09-03 06:30:12 | 49.23172 | 8.41238 | 71° | 11km/h | 30820m | 6.6m/s | -40.7°C | 0% | 11.1hPa | 2.7V | 03:17:52 | 02:00:19 | 00:00:00 | |
| HSKMA3-T | 2026-09-03 06:30:11 | 49.23172 | 8.41234 | 93° | 11km/h | 30813m | 5.9m/s | -40.8°C | 0% | 11.1hPa | 2.7V | 03:19:34 | 02:00:18 | 00:00:00 | |
| DL1XH-west | 2026-09-03 06:30:10 | 49.23172 | 8.41230 | 109° | 11km/h | 30808m | 5.1m/s | -40.8°C | 0% | 11.1hPa | 2.7V | 03:17:52 | 02:00:17 | 00:00:00 | |
| BIOWL1-15 | 2026-09-03 06:30:08 | 49.23174 | 8.41224 | 111° | 4km/h | 30797m | 6.5m/s | -41°C | 0% | 11.1hPa | 2.6V | 03:17:52 | 02:00:15 | 00:00:00 | |
| HSKMA3-T | 2026-09-03 06:30:01 | 49.23170 | 8.41223 | 118° | 9km/h | 30755m | 5.8m/s | -41.4°C | 0% | 11.2hPa | 2.7V | 03:19:34 | 02:00:08 | 00:00:00 | |
| DL1XH-west | 2026-09-03 06:30:00 | 49.23171 | 8.41220 | 118° | 9km/h | 30749m | 5m/s | -41.5°C | 0% | 11.2hPa | 2.6V | 03:17:52 | 02:00:07 | 00:00:00 | |
| BIOWL1-15 | 2026-09-03 06:29:57 | 49.23172 | 8.41215 | 333° | 4km/h | 30732m | 6.3m/s | -41.8°C | 0% | 11.3hPa | 2.7V | 03:17:52 | 02:00:04 | 00:00:00 | |
| DF3TZ-5 | 2026-09-03 06:29:53 | 49.23171 | 8.41228 | 248° | 15km/h | 30710m | 6.6m/s | -41.9°C | 0.2% | 11.3hPa | 2.7V | 00:00:00 | 00:00:00 | 00:00:00 | |
| DM0DOS-11 | 2026-09-03 06:29:52 | 49.23185 | 8.41261 | 270° | 15km/h | 30674m | 6.2m/s | -42.3°C | 2.1% | 11.3hPa | 2.7V | 03:17:49 | 01:59:54 | 00:00:00 | |
| DL4BBY-15 | 2026-09-03 06:29:52 | 49.23173 | 8.41234 | 235° | 16km/h | 30703m | 6.2m/s | -42.7°C | 0% | 0hPa | 2.6V | 00:00:00 | 00:00:00 | 00:00:00 | |
| DL1XH-15 | 2026-09-03 06:29:50 | 49.23183 | 8.41271 | 290° | 11km/h | 30663m | 4.9m/s | -42.3°C | 2.2% | 11.3hPa | 2.6V | 03:17:51 | 01:59:52 | 00:00:00 | |
| DK7TD | 2026-09-03 06:29:50 | 49.23179 | 8.41245 | 228° | 20km/h | 30692m | 4.9m/s | -42.1°C | 0% | 11.3hPa | 2.6V | 03:17:52 | 01:59:57 | 00:00:00 | |
| DL1XH-west | 2026-09-03 06:29:49 | 49.23182 | 8.41250 | 236° | 18km/h | 30687m | 5.9m/s | -42.2°C | 0% | 11.3hPa | 2.6V | 03:17:52 | 01:59:56 | 00:00:00 | |
| DL8DAS-14 | 2026-09-03 06:29:48 | 49.23185 | 8.41262 | 270° | 13km/h | 30674m | 6.3m/s | -42.3°C | 0.2% | 11.4hPa | 2.7V | 00:00:00 | 00:00:00 | 00:00:00 | |
| DL1XH1-15 | 2026-09-03 06:29:47 | 49.23185 | 8.41274 | 158° | 9km/h | 30646m | 7.2m/s | -42.3°C | 2.1% | 11.4hPa | 2.7V | 03:17:54 | 01:59:49 | 00:00:00 | |
| BIOWL1-15 | 2026-09-03 06:29:47 | 49.23185 | 8.41262 | 271° | 15km/h | 30674m | 6.3m/s | -42.3°C | 0% | 11.4hPa | 2.7V | 03:17:52 | 01:59:54 | 00:00:00 | |
| SSTOLZ84 | 2026-09-03 06:29:45 | 49.23183 | 8.41271 | 290° | 9km/h | 30663m | 4.9m/s | -42.3°C | 0.3% | 11.3hPa | 2.7V | 00:00:00 | 00:00:00 | 00:00:00 | |
| BIOWL7-15 | 2026-09-03 06:29:44 | 49.23183 | 8.41271 | 291° | 11km/h | 30663m | 4.9m/s | -42.3°C | 0.3% | 11.3hPa | 2.7V | 00:00:00 | 00:00:00 | 00:00:00 | |
| DF7PN | 2026-09-03 06:29:43 | 49.23185 | 8.41274 | 158° | 9km/h | 30646m | 7.2m/s | -42.3°C | 0.3% | 11.4hPa | 2.7V | 00:00:00 | 00:00:00 | 00:00:00 | |
| DM0DOS-11 | 2026-09-03 06:29:42 | 49.23203 | 8.41280 | 240° | 20km/h | 30616m | 6.2m/s | -42.5°C | 2.1% | 11.4hPa | 2.7V | 03:17:59 | 01:59:44 | 00:00:00 | |
| DF8AY | 2026-09-03 06:29:42 | 49.23185 | 8.41274 | 159° | 9km/h | 30646m | 7.2m/s | 0°C | 0% | 0hPa | 2.7V | 18:12:15 | 01:59:49 | 00:00:00 | |
| DK5PH-5 | 2026-09-03 06:29:41 | 49.23188 | 8.41273 | 164° | 16km/h | 30639m | 6.2m/s | -42.3°C | 2.1% | 11.4hPa | 2.6V | 00:00:00 | 01:59:48 | 00:00:00 | |
| DL1XH-15 | 2026-09-03 06:29:40 | 49.23206 | 8.41295 | 263° | 22km/h | 30605m | 4.7m/s | -42.3°C | 2.1% | 11.5hPa | 2.6V | 03:18:01 | 01:59:42 | 00:00:00 | |
| HSKMA3-T | 2026-09-03 06:29:40 | 49.23192 | 8.41271 | 176° | 18km/h | 30633m | 5.3m/s | -42.4°C | 0% | 11.4hPa | 2.7V | 03:19:34 | 01:59:47 | 00:00:00 | |
| DK7TD | 2026-09-03 06:29:39 | 49.23196 | 8.41272 | 193° | 18km/h | 30628m | 5.3m/s | -42.4°C | 0% | 11.4hPa | 2.6V | 03:18:43 | 01:59:46 | 00:00:00 | |
| DL1XH-west | 2026-09-03 06:29:38 | 49.23200 | 8.41275 | 216° | 18km/h | 30622m | 6.7m/s | -42.5°C | 0% | 11.4hPa | 2.6V | 03:18:43 | 01:59:45 | 00:00:00 | |
| BIOWL1-15 | 2026-09-03 06:29:37 | 49.23203 | 8.41280 | 241° | 20km/h | 30616m | 6.2m/s | -42.5°C | 0% | 11.4hPa | 2.7V | 03:18:43 | 01:59:44 | 00:00:00 | |
| DL3AQ-11 | 2026-09-03 06:29:37 | 49.23205 | 8.41287 | 256° | 20km/h | 30610m | 5.4m/s | -42.4°C | 0.2% | 11.5hPa | 2.7V | 00:00:00 | 00:00:00 | 00:00:00 | |
| IW2NTF | 2026-09-03 06:29:36 | 49.23211 | 8.41315 | 188° | 9km/h | 30582m | 5.9m/s | -42.3°C | 2.1% | 11.5hPa | 2.7V | 03:18:05 | 01:59:38 | 00:00:00 | |
| DO3MHA-11 | 2026-09-03 06:29:36 | 49.23205 | 8.41287 | 257° | 15km/h | 30610m | 5.3m/s | -42.3°C | 2.1% | 11.4hPa | 2.6V | 00:00:00 | 01:59:43 | 00:00:00 | |
| DJ2DS-15 | 2026-09-03 06:29:35 | 49.23206 | 8.41295 | 264° | 16km/h | 30605m | 4.6m/s | -42.2°C | 2.1% | 11.4hPa | 2.6V | 00:00:00 | 01:59:42 | 00:00:00 | |
| OE5DXL-15 | 2026-09-03 06:29:34 | 49.23207 | 8.41303 | 265° | 16km/h | 30600m | 5.0m/s | -42.2°C | 2.1% | 11.4hPa | 2.7V | 00:00:00 | 00:00:00 | 00:00:00 | |
| KANTATE | 2026-09-03 06:29:33 | 49.23207 | 8.41303 | 266° | 18km/h | 30600m | 5.0m/s | -42.3°C | 0.2% | 11.5hPa | 2.7V | 00:00:00 | 00:00:00 | 00:00:00 | |
| DB0UT-9 | 2026-09-03 06:29:32 | 49.23207 | 8.41309 | 258° | 15km/h | 30595m | 6.3m/s | -42.2°C | 0.3% | 11.5hPa | 2.7V | 03:18:00 | 00:00:00 | 00:00:00 | |
| DL1XH-15 | 2026-09-03 06:29:30 | 49.23228 | 8.41318 | 230° | 13km/h | 30548m | 5.1m/s | -42.2°C | 2.1% | 11.6hPa | 2.7V | 03:18:11 | 01:59:32 | 00:00:00 | |
| DK7TD | 2026-09-03 06:29:29 | 49.23217 | 8.41314 | 165° | 15km/h | 30571m | 5m/s | -42.3°C | 0% | 11.5hPa | 2.6V | 03:18:43 | 01:59:36 | 00:00:00 | |
| DL1XH-west | 2026-09-03 06:29:28 | 49.23220 | 8.41313 | 173° | 13km/h | 30566m | 5.8m/s | -42.3°C | 0% | 11.5hPa | 2.6V | 03:18:43 | 01:59:35 | 00:00:00 | |
| SONDE2-11 | 2026-09-03 06:29:28 | 49.23223 | 8.41313 | 191° | 11km/h | 30560m | 6.2m/s | -42.3°C | 0.2% | 11.5hPa | 2.7V | 00:00:00 | 00:00:00 | 00:00:00 | |
| HARRO8 | 2026-09-03 06:29:27 | 49.23223 | 8.41313 | 191° | 11km/h | 30560m | 6.2m/s | -42.3°C | 0.2% | 11.5hPa | 2.7V | 00:00:00 | 00:00:00 | 00:00:00 | |
| IW2NTF | 2026-09-03 06:29:26 | 49.23241 | 8.41333 | 192° | 22km/h | 30527m | 6.3m/s | -42.1°C | 2.1% | 11.6hPa | 2.7V | 03:18:15 | 01:59:28 | 00:00:00 | |
| BIOWL1-15 | 2026-09-03 06:29:26 | 49.23226 | 8.41314 | 216° | 11km/h | 30554m | 6m/s | -42.2°C | 0% | 11.6hPa | 2.7V | 03:18:43 | 01:59:33 | 00:00:00 | |
| HSKMA3-T | 2026-09-03 06:29:24 | 49.23230 | 8.41322 | 230° | 15km/h | 30543m | 4.5m/s | -42.1°C | 0% | 11.6hPa | 2.6V | 03:19:34 | 01:59:31 | 00:00:00 | |
| BIOWL7-15 | 2026-09-03 06:29:24 | 49.23230 | 8.41322 | 231° | 15km/h | 30544m | 4.5m/s | -42.1°C | 0.3% | 11.6hPa | 2.7V | 03:18:00 | 00:00:00 | 00:00:00 | |
| DL8DAS-15 | 2026-09-03 06:29:23 | 49.23230 | 8.41322 | 231° | 15km/h | 30544m | 4.5m/s | -42.1°C | 0.3% | 11.6hPa | 2.7V | 03:18:00 | 00:00:00 | 00:00:00 | |
| DL4BBY-15 | 2026-09-03 06:29:22 | 49.23237 | 8.41330 | 207° | 18km/h | 30533m | 6.1m/s | -42.8°C | 0% | 0hPa | 2.7V | 00:00:00 | 00:00:00 | 00:00:00 | |
| DM0DOS-11 | 2026-09-03 06:29:21 | 49.23269 | 8.41338 | 201° | 15km/h | 30499m | 6.1m/s | -42°C | 2% | 11.7hPa | 2.7V | 03:18:20 | 01:59:23 | 00:00:00 | |
| DL9PN | 2026-09-03 06:29:21 | 49.23253 | 8.41335 | 183° | 24km/h | 30516m | 4.9m/s | -41.9°C | 0.2% | 11.6hPa | 2.6V | 00:00:00 | 00:00:00 | 00:00:00 | |
| DL1XH-15 | 2026-09-03 06:29:20 | 49.23272 | 8.41341 | 212° | 11km/h | 30493m | 5.3m/s | -42.1°C | 2.1% | 11.6hPa | 2.6V | 03:18:21 | 01:59:22 | 00:00:00 | |
| DK7TD | 2026-09-03 06:29:18 | 49.23260 | 8.41335 | 185° | 24km/h | 30510m | 5m/s | -41.9°C | 0% | 11.6hPa | 2.7V | 03:18:43 | 01:59:25 | 00:00:00 | |
| DL1XH-west | 2026-09-03 06:29:17 | 49.23265 | 8.41336 | 191° | 20km/h | 30505m | 6.3m/s | -42°C | 0% | 11.6hPa | 2.7V | 03:18:43 | 01:59:24 | 00:00:00 | |
| IW2NTF | 2026-09-03 06:29:16 | 49.23278 | 8.41340 | 129° | 11km/h | 30471m | 6.3m/s | -42.2°C | 2.1% | 11.7hPa | 2.7V | 03:18:25 | 01:59:18 | 00:00:00 | |
| BIOWL1-15 | 2026-09-03 06:29:15 | 49.23272 | 8.41341 | 213° | 11km/h | 30493m | 5.3m/s | -42.1°C | 0% | 11.7hPa | 2.6V | 03:18:43 | 01:59:22 | 00:00:00 | |
| HSKMA3-T | 2026-09-03 06:29:12 | 49.23277 | 8.41343 | 145° | 7km/h | 30478m | 6m/s | -42.2°C | 0% | 11.7hPa | 2.7V | 03:19:34 | 01:59:19 | 00:00:00 | |
| DF7PN | 2026-09-03 06:29:12 | 49.23278 | 8.41340 | 129° | 11km/h | 30472m | 6.3m/s | -42.2°C | 0.3% | 11.7hPa | 2.7V | 00:00:00 | 00:00:00 | 00:00:00 | |
| DM0DOS-11 | 2026-09-03 06:29:11 | 49.23296 | 8.41326 | 195° | 18km/h | 30444m | 6.7m/s | -42.1°C | 2.1% | 11.7hPa | 2.7V | 03:18:30 | 01:59:13 | 00:00:00 | |
| DK5PH-5 | 2026-09-03 06:29:11 | 49.23278 | 8.41340 | 130° | 18km/h | 30472m | 6.3m/s | -42.2°C | 2.1% | 11.6hPa | 2.7V | 03:18:00 | 01:59:18 | 00:00:00 | |
| DL1XH-15 | 2026-09-03 06:29:10 | 49.23301 | 8.41329 | 214° | 20km/h | 30437m | 6.3m/s | -42.1°C | 2.1% | 11.8hPa | 2.6V | 03:18:31 | 01:59:12 | 00:00:00 | |
| DK7TD | 2026-09-03 06:29:08 | 49.23288 | 8.41327 | 153° | 18km/h | 30455m | 4.9m/s | -42.1°C | 0% | 11.7hPa | 2.6V | 03:18:43 | 01:59:15 | 00:00:00 | |
| DB0UT-7 | 2026-09-03 06:29:08 | 49.23288 | 8.41327 | 154° | 18km/h | 30455m | 4.9m/s | -42.1°C | 2.1% | 11.7hPa | 2.6V | 00:00:00 | 00:00:00 | 00:00:00 | |
| DL1XH1-15 | 2026-09-03 06:29:07 | 49.23311 | 8.41343 | 209° | 15km/h | 30421m | 5.1m/s | -42.1°C | 2.1% | 11.8hPa | 2.7V | 03:18:34 | 01:59:09 | 00:00:00 | |
| DL1XH-west | 2026-09-03 06:29:07 | 49.23292 | 8.41325 | 173° | 18km/h | 30450m | 5.4m/s | -42.1°C | 0% | 11.7hPa | 2.7V | 03:18:43 | 01:59:14 | 00:00:00 | |
| BIOWL1-15 | 2026-09-03 06:29:07 | 49.23300 | 8.41329 | 215° | 20km/h | 30437m | 6.3m/s | -42.2°C | 0% | 11.8hPa | 2.6V | 03:18:43 | 01:59:12 | 00:00:00 | |
| DO3MHA-11 | 2026-09-03 06:29:06 | 49.23296 | 8.41326 | 196° | 20km/h | 30444m | 6.7m/s | -42.1°C | 2.1% | 11.7hPa | 2.6V | 00:00:00 | 01:59:13 | 00:00:00 | |
| OE5DXL-15 | 2026-09-03 06:29:04 | 49.23304 | 8.41334 | 224° | 18km/h | 30432m | 5.0m/s | -42.2°C | 2.1% | 11.7hPa | 2.6V | 00:00:00 | 00:00:00 | 00:00:00 | |
| DJTTGO | 2026-09-03 06:29:03 | 49.23304 | 8.41334 | 225° | 20km/h | 30432m | 5.1m/s | -42.2°C | 0.2% | 11.8hPa | 2.7V | 03:18:00 | 00:00:00 | 00:00:00 | |
| BIOWL7-15 | 2026-09-03 06:29:02 | 49.23311 | 8.41343 | 210° | 15km/h | 30422m | 5.1m/s | -42.1°C | 0.2% | 11.8hPa | 2.7V | 03:18:00 | 00:00:00 | 00:00:00 | |
| DF1GD-15 | 2026-09-03 06:29:01 | 49.23311 | 8.41343 | 210° | 15km/h | 30422m | 5.1m/s | -42.1°C | 0.3% | 11.8hPa | 2.7V | 03:18:00 | 00:00:00 | 00:00:00 | |
| DM0DOS-11 | 2026-09-03 06:29:01 | 49.23338 | 8.41326 | 160° | 22km/h | 30387m | 5.7m/s | -42°C | 2.1% | 11.8hPa | 2.7V | 03:18:40 | 01:59:03 | 00:00:00 | |
| DL1XH-15 | 2026-09-03 06:29:00 | 49.23343 | 8.41324 | 171° | 20km/h | 30382m | 5.3m/s | -42°C | 2.1% | 11.9hPa | 2.7V | 03:18:41 | 01:59:02 | 00:00:00 | |
| DJ2KF-10 | 2026-09-03 06:29:00 | 49.23318 | 8.41343 | 158° | 18km/h | 30410m | 6.1m/s | -42.1°C | 2.0% | 11.8hPa | 2.7V | 00:00:00 | 01:59:07 | 00:00:00 | |
| CB1BUN | 2026-09-03 06:28:59 | 49.23323 | 8.41339 | 148° | 22km/h | 30404m | 5.6m/s | -42.1°C | 0.2% | 11.8hPa | 2.7V | 03:18:00 | 00:00:00 | 00:00:00 | |
| DL1XH1-15 | 2026-09-03 06:28:57 | 49.23358 | 8.41324 | 181° | 16km/h | 30365m | 6.3m/s | -42.1°C | 2.1% | 11.9hPa | 2.7V | 03:18:44 | 01:58:59 | 00:00:00 | |
| DL1XH-west | 2026-09-03 06:28:57 | 49.23333 | 8.41330 | 151° | 24km/h | 30393m | 6m/s | -42°C | 0% | 11.8hPa | 2.7V | 03:18:43 | 01:59:04 | 00:00:00 | |
| SONDE2-11 | 2026-09-03 06:28:57 | 49.23338 | 8.41326 | 160° | 22km/h | 30387m | 5.7m/s | -42.0°C | 0.2% | 11.8hPa | 2.7V | 00:00:00 | 00:00:00 | 00:00:00 | |
| IW2NTF | 2026-09-03 06:28:56 | 49.23362 | 8.41324 | 178° | 16km/h | 30359m | 6m/s | -42.1°C | 2.1% | 11.9hPa | 2.7V | 03:18:45 | 01:58:58 | 00:00:00 | |
| BIOWL1-15 | 2026-09-03 06:28:54 | 49.23348 | 8.41324 | 180° | 20km/h | 30376m | 5.2m/s | -42.1°C | 0% | 11.9hPa | 2.6V | 03:18:43 | 01:59:01 | 00:00:00 | |
| DF3TZ-5 | 2026-09-03 06:28:51 | 49.23362 | 8.41324 | 178° | 15km/h | 30359m | 6.0m/s | -42.1°C | 0.2% | 11.9hPa | 2.7V | 00:00:00 | 00:00:00 | 00:00:00 | |
| DL9PN | 2026-09-03 06:28:50 | 49.23375 | 8.41328 | 211° | 13km/h | 30337m | 6.5m/s | -42.2°C | 0.2% | 11.9hPa | 2.7V | 00:00:00 | 00:00:00 | 00:00:00 | |
| DD1CC8 | 2026-09-03 06:28:48 | 49.23375 | 8.41328 | 211° | 13km/h | 30337m | 6.5m/s | -42.2°C | 0.2% | 11.9hPa | 2.7V | 00:00:00 | 00:00:00 | 00:00:00 | |
| DL1XH1-15 | 2026-09-03 06:28:47 | 49.23393 | 8.41330 | 145° | 20km/h | 30309m | 6.5m/s | -42.4°C | 2.1% | 12hPa | 2.7V | 03:18:54 | 01:58:49 | 00:00:00 | |
| IW2NTF | 2026-09-03 06:28:46 | 49.23397 | 8.41325 | 140° | 22km/h | 30303m | 5.4m/s | -42.4°C | 2.1% | 12hPa | 2.7V | 03:18:55 | 01:58:48 | 00:00:00 | |
| DL1XH-west | 2026-09-03 06:28:46 | 49.23378 | 8.41331 | 212° | 15km/h | 30331m | 5.1m/s | -42.2°C | 0% | 12hPa | 2.7V | 03:19:34 | 01:58:53 | 00:00:00 | |
| HSKMA3-T | 2026-09-03 06:28:45 | 49.23382 | 8.41334 | 199° | 15km/h | 30326m | 4.5m/s | -42.3°C | 0% | 12hPa | 2.6V | 03:19:34 | 01:58:52 | 00:00:00 | |
| DK7TD | 2026-09-03 06:28:44 | 49.23385 | 8.41334 | 179° | 15km/h | 30322m | 5m/s | -42.3°C | 0% | 12hPa | 2.6V | 03:23:49 | 01:58:51 | 00:00:00 | |
| BIOWL1-15 | 2026-09-03 06:28:43 | 49.23389 | 8.41333 | 159° | 16km/h | 30316m | 6.6m/s | -42.4°C | 0% | 12hPa | 2.6V | 03:19:34 | 01:58:50 | 00:00:00 | |
| DM0DOS-11 | 2026-09-03 06:28:41 | 49.23419 | 8.41321 | 219° | 18km/h | 30276m | 4.9m/s | -42.5°C | 2.2% | 12.1hPa | 2.7V | 03:19:00 | 01:58:43 | 00:00:00 | |
| DF7PN | 2026-09-03 06:28:41 | 49.23402 | 8.41320 | 147° | 20km/h | 30298m | 4.7m/s | -42.4°C | 0.2% | 12.0hPa | 2.7V | 00:00:00 | 00:00:00 | 00:00:00 | |
| DO1YAY-16 | 2026-09-03 06:28:40 | 49.23406 | 8.41317 | 160° | 18km/h | 30293m | 5.4m/s | -42.3°C | 0.2% | 12.0hPa | 2.7V | 00:00:00 | 00:00:00 | 00:00:00 | |
| DB0UT-7 | 2026-09-03 06:28:38 | 49.23411 | 8.41315 | 182° | 16km/h | 30288m | 6.3m/s | -42.3°C | 2.1% | 12.0hPa | 2.7V | 00:00:00 | 01:58:45 | 00:00:00 | |
| DL1XH1-15 | 2026-09-03 06:28:37 | 49.23431 | 8.41335 | 194° | 11km/h | 30254m | 5.4m/s | -42.5°C | 2.1% | 12.1hPa | 2.7V | 03:19:04 | 01:58:39 | 00:00:00 | |
| IW2NTF | 2026-09-03 06:28:36 | 49.23433 | 8.41336 | 182° | 11km/h | 30249m | 5.1m/s | -42.4°C | 2.1% | 12.1hPa | 2.7V | 03:19:05 | 01:58:38 | 00:00:00 | |
| DL1XH-west | 2026-09-03 06:28:35 | 49.23422 | 8.41326 | 225° | 18km/h | 30271m | 4.7m/s | -42.4°C | 0% | 12hPa | 2.6V | 03:19:34 | 01:58:42 | 00:00:00 | |
| BIOWL1-15 | 2026-09-03 06:28:35 | 49.23428 | 8.41333 | 213° | 13km/h | 30260m | 5.9m/s | -42.5°C | 0% | 12.1hPa | 2.7V | 03:19:34 | 01:58:40 | 00:00:00 | |
| DK7TD | 2026-09-03 06:28:31 | 49.23433 | 8.41336 | 183° | 11km/h | 30249m | 5.1m/s | -42.4°C | 0% | 12.1hPa | 2.7V | 03:23:49 | 01:58:38 | 00:00:00 | |
| DM0DOS-11 | 2026-09-03 06:28:31 | 49.23453 | 8.41336 | 172° | 22km/h | 30222m | 4.6m/s | -42.4°C | 2.1% | 12.1hPa | 2.7V | 03:19:10 | 01:58:33 | 00:00:00 | |
| DL1XH-15 | 2026-09-03 06:28:30 | 49.23459 | 8.41335 | 164° | 24km/h | 30216m | 6m/s | -42.4°C | 2.1% | 12.2hPa | 2.7V | 03:19:11 | 01:58:32 | 00:00:00 | |
| HSKMA3-T | 2026-09-03 06:28:30 | 49.23436 | 8.41336 | 181° | 11km/h | 30243m | 5.7m/s | -42.5°C | 0% | 12.1hPa | 2.6V | 03:19:34 | 01:58:37 | 00:00:00 | |
| DL3AQ-11 | 2026-09-03 06:28:30 | 49.23440 | 8.41336 | 184° | 13km/h | 30238m | 6.2m/s | -42.5°C | 0.3% | 12.1hPa | 2.7V | 00:00:00 | 00:00:00 | 00:00:00 | |
| OE5DXL-15 | 2026-09-03 06:28:29 | 49.23440 | 8.41336 | 185° | 16km/h | 30238m | 6.2m/s | -42.4°C | 2.1% | 12.1hPa | 2.7V | 00:00:00 | 00:00:00 | 00:00:00 | |
| DM7RM-13 | 2026-09-03 06:28:28 | 49.23439 | 8.41336 | 185° | 15km/h | 30238m | 6.2m/s | -42.5°C | 0.3% | 12.1hPa | 2.7V | 03:19:00 | 00:00:00 | 00:00:00 | |
| DL1XH1-15 | 2026-09-03 06:28:27 | 49.23476 | 8.41324 | 162° | 22km/h | 30200m | 4.3m/s | -42.2°C | 2.1% | 12.2hPa | 2.7V | 03:19:14 | 01:58:29 | 00:00:00 | |
| DB0DAN | 2026-09-03 06:28:25 | 49.23459 | 8.41335 | 165° | 24km/h | 30217m | 6m/s | -42.4°C | 0% | 12.16hPa | 2.7V | 00:00:00 | 00:00:00 | 00:00:00 | |
| DL1XH-west | 2026-09-03 06:28:24 | 49.23465 | 8.41331 | 159° | 26km/h | 30210m | 6.3m/s | -42.4°C | 0% | 12.2hPa | 2.6V | 03:19:34 | 01:58:31 | 00:00:00 | |
| BIOWL1-15 | 2026-09-03 06:28:22 | 49.23477 | 8.41324 | 162° | 22km/h | 30200m | 4.3m/s | -42.2°C | 0% | 12.2hPa | 2.7V | 03:19:34 | 01:58:29 | 00:00:00 | |
| DL4BBY-15 | 2026-09-03 06:28:22 | 49.23477 | 8.41325 | 163° | 15km/h | 30201m | 4.2m/s | -43.0°C | 0% | 0hPa | 2.7V | 00:00:00 | 00:00:00 | 00:00:00 | |
| DM0DOS-11 | 2026-09-03 06:28:21 | 49.23492 | 8.41339 | 244° | 7km/h | 30168m | 5.2m/s | -42.2°C | 2.1% | 12.2hPa | 2.7V | 03:19:20 | 01:58:23 | 00:00:00 | |
| DL1XH-15 | 2026-09-03 06:28:20 | 49.23493 | 8.41340 | 168° | 5km/h | 30162m | 6.2m/s | -42.2°C | 2.1% | 12.3hPa | 2.6V | 03:19:21 | 01:58:22 | 00:00:00 | |
| HSKMA3-T | 2026-09-03 06:28:20 | 49.23485 | 8.41324 | 198° | 15km/h | 30190m | 6.7m/s | -42.2°C | 0% | 12.2hPa | 2.6V | 03:19:34 | 01:58:27 | 00:00:00 | |
| DK7TD | 2026-09-03 06:28:19 | 49.23488 | 8.41326 | 229° | 15km/h | 30183m | 6.2m/s | -42.3°C | 0% | 12.2hPa | 2.6V | 03:23:49 | 01:58:26 | 00:00:00 | |
| DL8DAS-15 | 2026-09-03 06:28:18 | 49.23488 | 8.41326 | 230° | 15km/h | 30183m | 6.2m/s | -42.3°C | 0.3% | 12.2hPa | 2.7V | 00:00:00 | 00:00:00 | 00:00:00 | |
| DL1XH1-15 | 2026-09-03 06:28:17 | 49.23500 | 8.41329 | 138° | 20km/h | 30146m | 5.2m/s | -42.2°C | 2% | 12.3hPa | 2.7V | 03:19:24 | 01:58:19 | 00:00:00 | |
| DL1XH-west | 2026-09-03 06:28:13 | 49.23497 | 8.41334 | 133° | 16km/h | 30151m | 5m/s | -42.2°C | 0% | 12.3hPa | 2.6V | 03:19:34 | 01:58:20 | 00:00:00 | |
| BIOWL1-15 | 2026-09-03 06:28:12 | 49.23500 | 8.41329 | 139° | 20km/h | 30146m | 5.2m/s | -42.2°C | 0% | 12.3hPa | 2.7V | 03:19:34 | 01:58:19 | 00:00:00 | |
| DM0DOS-11 | 2026-09-03 06:28:11 | 49.23529 | 8.41317 | 181° | 15km/h | 30114m | 5.9m/s | -42.4°C | 2.1% | 12.3hPa | 2.7V | 03:19:30 | 01:58:13 | 00:00:00 | |
| DB0DAN | 2026-09-03 06:28:10 | 49.23510 | 8.41321 | 161° | 20km/h | 30134m | 5.5m/s | -42.4°C | 0% | 12.3hPa | 2.7V | 00:00:00 | 00:00:00 | 00:00:00 | |
| DL1XH-15 | 2026-09-03 06:28:10 | 49.23532 | 8.41318 | 191° | 11km/h | 30108m | 5.2m/s | -42.5°C | 2.1% | 12.3hPa | 2.7V | 03:19:31 | 01:58:12 | 00:00:00 | |
| DK7TD | 2026-09-03 06:28:09 | 49.23515 | 8.41319 | 171° | 22km/h | 30129m | 4.8m/s | -42.4°C | 0% | 12.3hPa | 2.6V | 03:23:49 | 01:58:16 | 00:00:00 | |
| DO1YAY-16 | 2026-09-03 06:28:09 | 49.23520 | 8.41318 | 176° | 20km/h | 30125m | 4.6m/s | -42.4°C | 0.2% | 12.3hPa | 2.6V | 00:00:00 | 00:00:00 | 00:00:00 | |
| DB0UT-7 | 2026-09-03 06:28:08 | 49.23520 | 8.41318 | 177° | 13km/h | 30125m | 4.6m/s | -42.3°C | 2.0% | 12.3hPa | 2.6V | 00:00:00 | 00:00:00 | 00:00:00 | |
| DL1XH1-15 | 2026-09-03 06:28:07 | 49.23539 | 8.41327 | 244° | 15km/h | 30092m | 6.4m/s | -42.4°C | 2.1% | 12.4hPa | 2.6V | 03:19:34 | 01:58:09 | 00:00:00 | |
| HSKMA3-T | 2026-09-03 06:28:06 | 49.23529 | 8.41318 | 181° | 15km/h | 30114m | 5.9m/s | -42.4°C | 0% | 12.4hPa | 2.7V | 03:19:34 | 01:58:13 | 00:00:00 | |
| DL1XH-west | 2026-09-03 06:28:03 | 49.23537 | 8.41323 | 234° | 13km/h | 30098m | 5.6m/s | -42.4°C | 0% | 12.4hPa | 2.6V | 03:19:34 | 01:58:10 | 00:00:00 | |
| BIOWL1-15 | 2026-09-03 06:28:02 | 49.23539 | 8.41327 | 245° | 15km/h | 30092m | 6.4m/s | -42.4°C | 0% | 12.4hPa | 2.6V | 03:19:34 | 01:58:09 | 00:00:00 | |
| BIOWL7-15 | 2026-09-03 06:28:02 | 49.23539 | 8.41327 | 246° | 15km/h | 30092m | 6.4m/s | -42.4°C | 0.2% | 12.4hPa | 2.7V | 03:19:00 | 00:00:00 | 00:00:00 | |
| DF1GD-15 | 2026-09-03 06:28:01 | 49.23539 | 8.41327 | 246° | 15km/h | 30092m | 6.4m/s | -42.4°C | 0.3% | 12.4hPa | 2.7V | 03:19:00 | 00:00:00 | 00:00:00 | |
| DL1XH-15 | 2026-09-03 06:28:00 | 49.23549 | 8.41335 | 128° | 15km/h | 30055m | 4.2m/s | -42.6°C | 2.1% | 12.4hPa | 2.7V | 03:19:41 | 01:58:02 | 00:00:00 | |
| DJ2KF-10 | 2026-09-03 06:28:00 | 49.23542 | 8.41338 | 248° | 13km/h | 30081m | 4.3m/s | -42.4°C | 2.1% | 12.3hPa | 2.6V | 00:00:00 | 01:58:07 | 00:00:00 | |
| DL1XH1-15 | 2026-09-03 06:27:57 | 49.23559 | 8.41331 | 202° | 16km/h | 30039m | 5.8m/s | -42.6°C | 2.1% | 12.5hPa | 2.6V | 03:19:44 | 01:57:59 | 00:00:00 | |
| IW2NTF | 2026-09-03 06:27:56 | 49.23563 | 8.41334 | 218° | 20km/h | 30033m | 5m/s | -42.7°C | 2.1% | 12.5hPa | 2.6V | 03:19:45 | 01:57:58 | 00:00:00 | |
| DK7TD | 2026-09-03 06:27:56 | 49.23547 | 8.41339 | 122° | 13km/h | 30059m | 4.9m/s | -42.6°C | 0% | 12.4hPa | 2.6V | 03:23:49 | 01:58:03 | 00:00:00 | |
| DB0DAN | 2026-09-03 06:27:55 | 49.23549 | 8.41335 | 129° | 13km/h | 30055m | 4.2m/s | 0°C | 0% | 12.46hPa | 2.7V | 00:00:00 | 00:00:00 | 00:00:00 | |
| HSKMA3-T | 2026-09-03 06:27:53 | 49.23555 | 8.41330 | 174° | 15km/h | 30045m | 6.3m/s | -42.6°C | 0% | 12.5hPa | 2.7V | 18:12:15 | 01:58:00 | 00:00:00 | |
| DL1XH-west | 2026-09-03 06:27:52 | 49.23559 | 8.41330 | 203° | 16km/h | 30039m | 5.8m/s | -42.6°C | 0% | 12.5hPa | 2.6V | 03:20:25 | 01:57:59 | 00:00:00 | |
| DF3TZ-5 | 2026-09-03 06:27:49 | 49.23573 | 8.41350 | 225° | 15km/h | 30019m | 5.9m/s | -42.7°C | 0.2% | 12.5hPa | 2.7V | 00:00:00 | 00:00:00 | 00:00:00 | |
| DL9PN | 2026-09-03 06:27:48 | 49.23579 | 8.41353 | 132° | 5km/h | 30002m | 4.7m/s | -42.7°C | 0.2% | 12.6hPa | 2.7V | 00:00:00 | 00:00:00 | 00:00:00 | |
| DL1XH1-15 | 2026-09-03 06:27:47 | 49.23583 | 8.41347 | 150° | 7km/h | 29986m | 5.7m/s | -42.6°C | 2.1% | 12.6hPa | 2.7V | 03:19:54 | 01:57:49 | 00:00:00 | |
| IW2NTF | 2026-09-03 06:27:46 | 49.23585 | 8.41345 | 161° | 9km/h | 29981m | 4.9m/s | -42.7°C | 2.1% | 12.6hPa | 2.6V | 03:19:55 | 01:57:48 | 00:00:00 | |
| DK7TD | 2026-09-03 06:27:46 | 49.23577 | 8.41354 | 170° | 5km/h | 30007m | 5.1m/s | -42.7°C | 0% | 12.5hPa | 2.6V | 03:23:49 | 01:57:53 | 00:00:00 | |
| DD1CC8 | 2026-09-03 06:27:46 | 49.23579 | 8.41353 | 132° | 5km/h | 30002m | 4.7m/s | -42.7°C | 0.2% | 12.6hPa | 2.6V | 00:00:00 | 00:00:00 | 00:00:00 | |
| DL1XH-west | 2026-09-03 06:27:41 | 49.23585 | 8.41345 | 161° | 9km/h | 29981m | 4.9m/s | -42.7°C | 0% | 12.6hPa | 2.6V | 03:20:25 | 01:57:48 | 00:00:00 | |
| DB0DAN | 2026-09-03 06:27:40 | 49.23587 | 8.41344 | 162° | 11km/h | 29976m | 4.4m/s | 0°C | 0% | 0hPa | 2.6V | 00:00:00 | 00:00:00 | 00:00:00 | |
| BIOWL7-15 | 2026-09-03 06:27:39 | 49.23587 | 8.41344 | 163° | 11km/h | 29976m | 4.4m/s | -42.7°C | 0.3% | 12.6hPa | 2.7V | 03:20:00 | 00:00:00 | 00:00:00 | |
| DO1YAY-16 | 2026-09-03 06:27:38 | 49.23597 | 8.41336 | 142° | 16km/h | 29960m | 6.0m/s | -42.7°C | 0.2% | 12.6hPa | 2.7V | 00:00:00 | 00:00:00 | 00:00:00 | |
| DL1XH1-15 | 2026-09-03 06:27:37 | 49.23618 | 8.41323 | 182° | 16km/h | 29932m | 4.8m/s | -42.7°C | 2.2% | 12.7hPa | 2.7V | 03:20:04 | 01:57:39 | 00:00:00 | |
| DL3AQ-11 | 2026-09-03 06:27:37 | 49.23601 | 8.41332 | 142° | 18km/h | 29954m | 5.2m/s | -42.6°C | 0.2% | 12.6hPa | 2.7V | 00:00:00 | 00:00:00 | 00:00:00 | |
| IW2NTF | 2026-09-03 06:27:36 | 49.23622 | 8.41323 | 178° | 15km/h | 29927m | 4.3m/s | -42.9°C | 2.2% | 12.7hPa | 2.7V | 03:20:05 | 01:57:38 | 00:00:00 | |
| DB0ND-19 | 2026-09-03 06:27:36 | 49.23604 | 8.41328 | 150° | 18km/h | 29949m | 4.8m/s | -42.6°C | 0.3% | 12.7hPa | 2.6V | 00:00:00 | 00:00:00 | 00:00:00 | |
| DJ2DS-15 | 2026-09-03 06:27:35 | 49.23604 | 8.41328 | 151° | 16km/h | 29949m | 4.8m/s | -42.5°C | 2.1% | 12.6hPa | 2.6V | 00:00:00 | 01:57:42 | 00:00:00 | |
| DL0LBS | 2026-09-03 06:27:34 | 49.23605 | 8.41328 | 152° | 18km/h | 29949m | 4.8m/s | -42.6°C | 0.3% | 12.7hPa | 2.6V | 03:20:00 | 00:00:00 | 00:00:00 | |
| DL1XH-15 | 2026-09-03 06:27:33 | 49.23627 | 8.41316 | 96° | 15km/h | 29911m | 6m/s | -43°C | 2.1% | 12.7hPa | 2.6V | 03:20:08 | 01:57:35 | 00:00:00 | |
| HSKMA3-T | 2026-09-03 06:27:32 | 49.23618 | 8.41323 | 182° | 16km/h | 29932m | 4.9m/s | -42.7°C | 0% | 12.7hPa | 2.7V | 18:12:15 | 01:57:39 | 00:00:00 | |
| DM0DOS-11 | 2026-09-03 06:27:31 | 49.23627 | 8.41303 | 90° | 18km/h | 29901m | 3.8m/s | -43.1°C | 2.1% | 12.7hPa | 2.7V | 03:20:10 | 01:57:33 | 00:00:00 | |
| BIOWL1-15 | 2026-09-03 06:27:31 | 49.23622 | 8.41323 | 179° | 15km/h | 29927m | 4.3m/s | -42.9°C | 0% | 12.7hPa | 2.7V | 03:20:25 | 01:57:38 | 00:00:00 | |
| DK7TD | 2026-09-03 06:27:30 | 49.23625 | 8.41322 | 158° | 11km/h | 29923m | 4.8m/s | -42.9°C | 0% | 12.7hPa | 2.7V | 03:23:49 | 01:57:37 | 00:00:00 | |
| DJ2KF-10 | 2026-09-03 06:27:30 | 49.23625 | 8.41322 | 159° | 13km/h | 29923m | 4.7m/s | -42.8°C | 2.2% | 12.7hPa | 2.7V | 00:00:00 | 01:57:37 | 00:00:00 | |
| DL1XH1-15 | 2026-09-03 06:27:27 | 49.23635 | 8.41289 | 187° | 15km/h | 29880m | 5.5m/s | -43.1°C | 2.2% | 12.8hPa | 2.7V | 03:20:14 | 01:57:29 | 00:00:00 | |
| DL3AQ-11 | 2026-09-03 06:27:26 | 49.23628 | 8.41296 | 101° | 15km/h | 29897m | 4.8m/s | -43.3°C | 0.3% | 12.8hPa | 2.6V | 00:00:00 | 00:00:00 | 00:00:00 | |
| IW2NTF | 2026-09-03 06:27:25 | 49.23643 | 8.41292 | 190° | 18km/h | 29869m | 4.6m/s | -43.3°C | 2.2% | 12.8hPa | 2.6V | 03:20:16 | 01:57:27 | 00:00:00 | |
| OE5DRO-10 | 2026-09-03 06:27:25 | 49.23628 | 8.41296 | 102° | 16km/h | 29898m | 4.8m/s | -43.2°C | 2.2% | 12.7hPa | 2.6V | 00:00:00 | 00:00:00 | 00:00:00 | |
| SONDE2-11 | 2026-09-03 06:27:24 | 49.23631 | 8.41290 | 164° | 11km/h | 29886m | 6.1m/s | -43.2°C | 0.3% | 12.8hPa | 2.6V | 00:00:00 | 00:00:00 | 00:00:00 | |
| DL1XH-15 | 2026-09-03 06:27:23 | 49.23652 | 8.41292 | 161° | 16km/h | 29859m | 5.8m/s | -43.2°C | 2.2% | 12.8hPa | 2.6V | 03:20:18 | 01:57:25 | 00:00:00 | |
| BIOWL1-15 | 2026-09-03 06:27:22 | 49.23643 | 8.41292 | 190° | 18km/h | 29869m | 4.6m/s | -43.3°C | 0% | 12.8hPa | 2.6V | 03:20:25 | 01:57:27 | 00:00:00 | |
| DL4BBY-15 | 2026-09-03 06:27:22 | 49.23635 | 8.41289 | 188° | 15km/h | 29880m | 5.5m/s | -43.9°C | 0% | 0hPa | 2.7V | 00:00:00 | 00:00:00 | 00:00:00 | |
| DM0DOS-11 | 2026-09-03 06:27:21 | 49.23658 | 8.41284 | 124° | 16km/h | 29848m | 4.8m/s | -43.3°C | 2.2% | 12.9hPa | 2.7V | 03:20:20 | 01:57:23 | 00:00:00 | |
| DL1XH-west | 2026-09-03 06:27:21 | 49.23639 | 8.41291 | 193° | 18km/h | 29874m | 5m/s | -43.2°C | 0% | 12.8hPa | 2.7V | 03:20:25 | 01:57:28 | 00:00:00 | |
| HSKMA3-T | 2026-09-03 06:27:19 | 49.23648 | 8.41293 | 180° | 18km/h | 29864m | 5.7m/s | -43.3°C | 0% | 12.8hPa | 2.6V | 18:12:15 | 01:57:26 | 00:00:00 | |
| DF3TZ-5 | 2026-09-03 06:27:18 | 49.23655 | 8.41289 | 139° | 15km/h | 29853m | 5.1m/s | -43.3°C | 0.3% | 12.8hPa | 2.7V | 00:00:00 | 00:00:00 | 00:00:00 | |
| DL1XH1-15 | 2026-09-03 06:27:17 | 49.23667 | 8.41265 | 136° | 15km/h | 29826m | 5m/s | -43.4°C | 2.2% | 12.9hPa | 2.7V | 03:20:24 | 01:57:19 | 00:00:00 | |
| DL9PN | 2026-09-03 06:27:17 | 49.23658 | 8.41284 | 124° | 15km/h | 29848m | 4.8m/s | -43.3°C | 0.3% | 12.9hPa | 2.7V | 00:00:00 | 00:00:00 | 00:00:00 | |
| DO3MHA-11 | 2026-09-03 06:27:16 | 49.23658 | 8.41284 | 125° | 16km/h | 29848m | 4.8m/s | -43.3°C | 2.2% | 12.8hPa | 2.7V | 03:20:00 | 01:57:23 | 00:00:00 | |
| IW2NTF | 2026-09-03 06:27:15 | 49.23672 | 8.41257 | 126° | 15km/h | 29817m | 4.7m/s | -43.5°C | 2.2% | 12.9hPa | 2.6V | 03:20:26 | 01:57:17 | 00:00:00 | |
| DJ2DS-15 | 2026-09-03 06:27:15 | 49.23660 | 8.41279 | 121° | 13km/h | 29843m | 5.5m/s | -43.3°C | 2.2% | 12.8hPa | 2.7V | 03:20:00 | 01:57:22 | 00:00:00 | |
| DL0LBS | 2026-09-03 06:27:14 | 49.23660 | 8.41279 | 122° | 16km/h | 29843m | 5.5m/s | -43.4°C | 0.3% | 12.9hPa | 2.7V | 03:20:00 | 00:00:00 | 00:00:00 | |
| DL1XH-15 | 2026-09-03 06:27:13 | 49.23676 | 8.41246 | 110° | 16km/h | 29805m | 6.2m/s | -43.6°C | 2.2% | 12.9hPa | 2.7V | 03:20:28 | 01:57:15 | 00:00:00 | |
| DL8DAS-14 | 2026-09-03 06:27:13 | 49.23667 | 8.41265 | 136° | 15km/h | 29827m | 5.0m/s | -43.4°C | 0.3% | 12.9hPa | 2.7V | 00:00:00 | 00:00:00 | 00:00:00 | |
| NBG1-10 | 2026-09-03 06:27:12 | 49.23667 | 8.41265 | 137° | 11km/h | 29827m | 4.9m/s | -43.3°C | 2.2% | 12.8hPa | 2.7V | 00:00:00 | 01:57:19 | 00:00:00 | |
| DM0DOS-11 | 2026-09-03 06:27:11 | 49.23679 | 8.41235 | 114° | 13km/h | 29795m | 4.8m/s | -43.4°C | 2.2% | 12.9hPa | 2.7V | 03:20:30 | 01:57:13 | 00:00:00 | |
| DL1XH-west | 2026-09-03 06:27:10 | 49.23672 | 8.41257 | 126° | 15km/h | 29817m | 4.7m/s | -43.5°C | 0% | 12.9hPa | 2.6V | 03:21:16 | 01:57:17 | 00:00:00 | |
| HSKMA3-T | 2026-09-03 06:27:09 | 49.23674 | 8.41251 | 118° | 16km/h | 29812m | 6.2m/s | 0°C | 0% | 12.9hPa | 2.6V | 18:12:15 | 01:57:16 | 00:00:00 | |
| DB0UT-7 | 2026-09-03 06:27:08 | 49.23676 | 8.41245 | 111° | 11km/h | 29805m | 6.2m/s | -43.5°C | 2.2% | 12.9hPa | 2.7V | 00:00:00 | 00:00:00 | 00:00:00 | |
| DL1XH1-15 | 2026-09-03 06:27:07 | 49.23684 | 8.41231 | 238° | 4km/h | 29772m | 4.6m/s | -43.6°C | 2.2% | 13hPa | 2.7V | 03:20:34 | 01:57:09 | 00:00:00 | |
| DO1YAY-16 | 2026-09-03 06:27:07 | 49.23679 | 8.41235 | 114° | 11km/h | 29795m | 4.8m/s | -43.4°C | 0.3% | 12.9hPa | 2.7V | 00:00:00 | 00:00:00 | 00:00:00 | |
| DO3MHA-11 | 2026-09-03 06:27:06 | 49.23679 | 8.41234 | 115° | 9km/h | 29795m | 4.7m/s | -43.4°C | 2.2% | 12.9hPa | 2.7V | 00:00:00 | 01:57:13 | 00:00:00 | |
| DB0ND-19 | 2026-09-03 06:27:05 | 49.23681 | 8.41229 | 160° | 5km/h | 29783m | 6.5m/s | -43.5°C | 0.3% | 13.0hPa | 2.7V | 00:00:00 | 00:00:00 | 00:00:00 | |
| DL8DAS-15 | 2026-09-03 06:27:03 | 49.23681 | 8.41230 | 162° | 5km/h | 29784m | 6.5m/s | -43.5°C | 0.3% | 13.0hPa | 2.7V | 00:00:00 | 00:00:00 | 00:00:00 | |
| EDDB2-11 | 2026-09-03 06:27:02 | 49.23684 | 8.41231 | 347° | 0km/h | 29768m | 5.3m/s | -43.7°C | 0.3% | 13.0hPa | 2.7V | 00:00:00 | 00:00:00 | 00:00:00 | |
| DM0DOS-11 | 2026-09-03 06:27:01 | 49.23677 | 8.41208 | 84° | 18km/h | 29741m | 5.4m/s | -43.8°C | 2.3% | 13.1hPa | 2.7V | 03:20:40 | 01:57:03 | 00:00:00 | |
| BIOWL1-15 | 2026-09-03 06:26:59 | 49.23681 | 8.41227 | 56° | 13km/h | 29755m | 5.8m/s | -43.7°C | 0% | 13hPa | 2.6V | 03:21:16 | 01:57:06 | 00:00:00 | |
| HSKMA3-T | 2026-09-03 06:26:56 | 49.23677 | 8.41207 | 85° | 18km/h | 29741m | 5.4m/s | 0°C | 0% | 13.1hPa | 2.7V | 18:12:15 | 01:57:03 | 00:00:00 | |
| DO3MHA-11 | 2026-09-03 06:26:56 | 49.23677 | 8.41207 | 85° | 11km/h | 29741m | 5.4m/s | -43.8°C | 2.3% | 13.0hPa | 2.7V | 00:00:00 | 01:57:03 | 00:00:00 | |
| DJ2DS-15 | 2026-09-03 06:26:55 | 49.23677 | 8.41201 | 104° | 9km/h | 29735m | 6.0m/s | -43.9°C | 2.3% | 13.0hPa | 2.7V | 00:00:00 | 01:57:02 | 00:00:00 | |
| DL0LBS | 2026-09-03 06:26:54 | 49.23677 | 8.41201 | 105° | 16km/h | 29735m | 6.1m/s | -43.9°C | 0.3% | 13.1hPa | 2.7V | 03:21:00 | 00:00:00 | 00:00:00 | |
| DL4BBY-15 | 2026-09-03 06:26:52 | 49.23683 | 8.41191 | 166° | 11km/h | 29718m | 5.1m/s | -44.5°C | 0% | 0hPa | 2.7V | 00:00:00 | 00:00:00 | 00:00:00 | |
| DL1XH-15 | 2026-09-03 06:26:51 | 49.23678 | 8.41197 | 326° | 9km/h | 29684m | 6.3m/s | -43.6°C | 2.2% | 13.2hPa | 2.7V | 03:20:50 | 01:56:53 | 00:00:00 | |
| DL1XH-west | 2026-09-03 06:26:49 | 49.23685 | 8.41192 | 339° | 7km/h | 29701m | 5.6m/s | -43.9°C | 0% | 13.1hPa | 2.6V | 03:21:16 | 01:56:56 | 00:00:00 | |
| DK7TD | 2026-09-03 06:26:48 | 49.23683 | 8.41193 | 337° | 11km/h | 29695m | 5.1m/s | -43.8°C | 0% | 13.1hPa | 2.6V | 03:23:49 | 01:56:55 | 00:00:00 | |
| DL1XH1-15 | 2026-09-03 06:26:47 | 49.23673 | 8.41195 | 69° | 9km/h | 29661m | 6.7m/s | -43.6°C | 2.3% | 13.2hPa | 2.6V | 03:20:54 | 01:56:49 | 00:00:00 | |
| DF3TZ-5 | 2026-09-03 06:26:47 | 49.23678 | 8.41197 | 326° | 9km/h | 29684m | 6.3m/s | -43.6°C | 0.3% | 13.2hPa | 2.7V | 00:00:00 | 00:00:00 | 00:00:00 | |
| DL3AQ-11 | 2026-09-03 06:26:46 | 49.23676 | 8.41198 | 329° | 5km/h | 29678m | 5.3m/s | -43.6°C | 0.3% | 13.2hPa | 2.7V | 00:00:00 | 00:00:00 | 00:00:00 | |
| IW2NTF | 2026-09-03 06:26:45 | 49.23671 | 8.41186 | 86° | 13km/h | 29650m | 4.3m/s | -43.6°C | 2.3% | 13.2hPa | 2.7V | 03:20:56 | 01:56:47 | 00:00:00 | |
| HSKMA3-T | 2026-09-03 06:26:45 | 49.23676 | 8.41198 | 330° | 7km/h | 29678m | 5.3m/s | 0°C | 0% | 13.2hPa | 2.7V | 18:12:15 | 01:56:52 | 00:00:00 | |
| SONCRA | 2026-09-03 06:26:44 | 49.23675 | 8.41199 | 4° | 4km/h | 29673m | 4.9m/s | -43.7°C | 0.3% | 13.2hPa | 2.6V | 00:00:00 | 00:00:00 | 00:00:00 | |
| DD1CC8 | 2026-09-03 06:26:43 | 49.23674 | 8.41198 | 49° | 5km/h | 29667m | 5.9m/s | -43.7°C | 0.3% | 13.2hPa | 2.6V | 00:00:00 | 00:00:00 | 00:00:00 | |
| DL8DAS-15 | 2026-09-03 06:26:42 | 49.23673 | 8.41198 | 51° | 5km/h | 29668m | 5.9m/s | -43.7°C | 0.3% | 13.2hPa | 2.6V | 00:00:00 | 00:00:00 | 00:00:00 | |
| DL1XH-15 | 2026-09-03 06:26:41 | 49.23676 | 8.41181 | 228° | 11km/h | 29628m | 5.9m/s | -43.7°C | 2.2% | 13.3hPa | 2.6V | 03:21:00 | 01:56:43 | 00:00:00 | |
| DL1XH-west | 2026-09-03 06:26:39 | 49.23672 | 8.41182 | 102° | 9km/h | 29646m | 4.3m/s | -43.6°C | 0% | 13.3hPa | 2.7V | 03:21:16 | 01:56:46 | 00:00:00 | |
| BIOWL1-15 | 2026-09-03 06:26:37 | 49.23674 | 8.41179 | 196° | 7km/h | 29634m | 6.4m/s | -43.7°C | 0% | 13.3hPa | 2.6V | 03:21:16 | 01:56:44 | 00:00:00 | |
| HSKMA3-T | 2026-09-03 06:26:35 | 49.23677 | 8.41185 | 251° | 11km/h | 29623m | 4.8m/s | 0°C | 0% | 13.3hPa | 2.7V | 18:12:15 | 01:56:42 | 00:00:00 | |
| DJ2DS-15 | 2026-09-03 06:26:35 | 49.23677 | 8.41185 | 251° | 13km/h | 29623m | 4.8m/s | -43.5°C | 2.2% | 13.2hPa | 2.7V | 00:00:00 | 01:56:42 | 00:00:00 | |
| IW2NTF | 2026-09-03 06:26:34 | 49.23665 | 8.41187 | 51° | 13km/h | 29589m | 6.2m/s | -43.6°C | 2.3% | 13.3hPa | 2.7V | 03:21:07 | 01:56:36 | 00:00:00 | |
| DK7TD | 2026-09-03 06:26:33 | 49.23676 | 8.41192 | 315° | 9km/h | 29612m | 6.3m/s | -43.6°C | 0% | 13.3hPa | 2.7V | 03:23:49 | 01:56:40 | 00:00:00 | |
| DL1XH-west | 2026-09-03 06:26:28 | 49.23664 | 8.41183 | 83° | 11km/h | 29583m | 6.4m/s | -43.6°C | 0% | 13.4hPa | 2.6V | 03:21:16 | 01:56:35 | 00:00:00 | |
| BIOWL1-15 | 2026-09-03 06:26:28 | 49.23666 | 8.41174 | 123° | 16km/h | 29572m | 5.2m/s | -43.6°C | 0% | 13.4hPa | 2.7V | 03:21:16 | 01:56:33 | 00:00:00 | |
| DL1XH1-15 | 2026-09-03 06:26:27 | 49.23674 | 8.41155 | 119° | 5km/h | 29549m | 5.1m/s | -43.5°C | 2.2% | 13.4hPa | 2.6V | 03:21:14 | 01:56:29 | 00:00:00 | |
| HSKMA3-T | 2026-09-03 06:26:22 | 49.23674 | 8.41155 | 119° | 5km/h | 29549m | 5.1m/s | 0°C | 0% | 13.4hPa | 2.6V | 18:12:15 | 01:56:29 | 00:00:00 | |
| HARRO8 | 2026-09-03 06:26:21 | 49.23674 | 8.41154 | 236° | 0km/h | 29544m | 5.7m/s | -43.5°C | 0.3% | 13.4hPa | 2.7V | 00:00:00 | 00:00:00 | 00:00:00 | |
| OE5DXL-15 | 2026-09-03 06:26:19 | 49.23673 | 8.41159 | 300° | 15km/h | 29531m | 5.7m/s | -43.3°C | 2.3% | 13.4hPa | 2.7V | 00:00:00 | 00:00:00 | 00:00:00 | |
| DL1XH1-15 | 2026-09-03 06:26:17 | 49.23644 | 8.41146 | 75° | 24km/h | 29493m | 5.2m/s | -43.2°C | 2.2% | 13.6hPa | 2.7V | 03:21:24 | 01:56:19 | 00:00:00 | |
| DL1XH-west | 2026-09-03 06:26:17 | 49.23667 | 8.41167 | 336° | 18km/h | 29521m | 4.6m/s | -43.3°C | 0% | 13.5hPa | 2.6V | 03:22:07 | 01:56:24 | 00:00:00 | |
| DL6DJ-15 | 2026-09-03 06:26:16 | 49.23656 | 8.41168 | 19° | 22km/h | 29510m | 6.3m/s | -43.4°C | 0.3% | 13.5hPa | 2.6V | 00:00:00 | 00:00:00 | 00:00:00 | |
| DL1XH-15 | 2026-09-03 06:26:15 | 49.23645 | 8.41131 | 120° | 16km/h | 29481m | 6m/s | -43.1°C | 2.2% | 13.6hPa | 2.6V | 03:21:26 | 01:56:17 | 00:00:00 | |
| BIOWL1-15 | 2026-09-03 06:26:15 | 49.23656 | 8.41168 | 19° | 24km/h | 29510m | 6.3m/s | -43.4°C | 0% | 13.5hPa | 2.6V | 03:22:07 | 01:56:22 | 00:00:00 | |
| DK7TD | 2026-09-03 06:26:11 | 49.23644 | 8.41138 | 95° | 22km/h | 29488m | 6.5m/s | -43.2°C | 0% | 13.6hPa | 2.6V | 03:23:49 | 01:56:18 | 00:00:00 | |
| DL8DAS-14 | 2026-09-03 06:26:11 | 49.23645 | 8.41131 | 120° | 16km/h | 29481m | 6.0m/s | -43.1°C | 0.3% | 13.6hPa | 2.7V | 00:00:00 | 00:00:00 | 00:00:00 | |
| IW2NTF | 2026-09-03 06:26:10 | 49.23652 | 8.41126 | 348° | 9km/h | 29453m | 5.9m/s | -43.3°C | 2.2% | 13.7hPa | 2.7V | 03:21:31 | 01:56:12 | 00:00:00 | |
| HSKMA3-T | 2026-09-03 06:26:08 | 49.23650 | 8.41125 | 171° | 11km/h | 29471m | 4.9m/s | 0°C | 0% | 0hPa | 2.7V | 18:12:15 | 01:56:15 | 00:00:00 | |
| DB0UT-7 | 2026-09-03 06:26:08 | 49.23650 | 8.41125 | 172° | 13km/h | 29471m | 4.9m/s | -43.1°C | 2.2% | 13.5hPa | 2.7V | 00:00:00 | 00:00:00 | 00:00:00 | |
| DL1XH1-15 | 2026-09-03 06:26:07 | 49.23638 | 8.41125 | 9° | 22km/h | 29437m | 5.7m/s | -43.2°C | 2.2% | 13.7hPa | 2.6V | 03:21:34 | 01:56:09 | 00:00:00 | |
| DL1XH-west | 2026-09-03 06:26:06 | 49.23653 | 8.41125 | 296° | 4km/h | 29460m | 6.1m/s | -43.3°C | 0% | 13.6hPa | 2.6V | 03:22:07 | 01:56:13 | 00:00:00 | |
| BIOWL1-15 | 2026-09-03 06:26:05 | 49.23652 | 8.41126 | 348° | 9km/h | 29453m | 5.9m/s | -43.3°C | 0% | 13.7hPa | 2.7V | 03:22:07 | 01:56:12 | 00:00:00 | |
| NBG1-10 | 2026-09-03 06:26:05 | 49.23652 | 8.41126 | 349° | 15km/h | 29454m | 5.9m/s | -43.2°C | 2.2% | 13.6hPa | 2.6V | 00:00:00 | 01:56:12 | 00:00:00 | |
| DO1YAY-16 | 2026-09-03 06:26:04 | 49.23648 | 8.41127 | 0° | 16km/h | 29448m | 5.6m/s | -43.3°C | 0.3% | 13.6hPa | 2.6V | 00:00:00 | 00:00:00 | 00:00:00 | |
| DB0ND-19 | 2026-09-03 06:26:03 | 49.23638 | 8.41125 | 9° | 20km/h | 29437m | 5.7m/s | -43.2°C | 0.3% | 13.7hPa | 2.6V | 00:00:00 | 00:00:00 | 00:00:00 | |
| DM0DOS-11 | 2026-09-03 06:26:01 | 49.23621 | 8.41111 | 64° | 11km/h | 29402m | 6.2m/s | -43.2°C | 2.2% | 13.7hPa | 2.6V | 03:21:40 | 01:56:03 | 00:00:00 | |
| DK7TD | 2026-09-03 06:26:01 | 49.23633 | 8.41124 | 14° | 20km/h | 29431m | 6.1m/s | -43.1°C | 0% | 13.7hPa | 2.6V | 03:23:49 | 01:56:08 | 00:00:00 | |
| EDDB2-11 | 2026-09-03 06:26:00 | 49.23626 | 8.41120 | 29° | 11km/h | 29419m | 5.7m/s | -43.2°C | 0.3% | 13.7hPa | 2.7V | 00:00:00 | 00:00:00 | 00:00:00 | |
| DL8DAS-15 | 2026-09-03 06:25:59 | 49.23629 | 8.41122 | 20° | 16km/h | 29425m | 6.0m/s | -43.1°C | 0.3% | 13.7hPa | 2.7V | 03:22:00 | 00:00:00 | 00:00:00 | |
| DL1XH1-15 | 2026-09-03 06:25:57 | 49.23613 | 8.41092 | 53° | 13km/h | 29379m | 5m/s | -43.2°C | 2.2% | 13.8hPa | 2.7V | 03:21:44 | 01:55:59 | 00:00:00 | |
| DL1XH-west | 2026-09-03 06:25:56 | 49.23621 | 8.41111 | 65° | 11km/h | 29402m | 6.2m/s | -43.2°C | 0% | 13.7hPa | 2.6V | 03:22:07 | 01:56:03 | 00:00:00 | |
| BIOWL1-15 | 2026-09-03 06:25:54 | 49.23617 | 8.41101 | 57° | 16km/h | 29389m | 6m/s | -43.1°C | 0% | 13.8hPa | 2.6V | 03:22:07 | 01:56:01 | 00:00:00 | |
| DN1GJH-1 | 2026-09-03 06:25:53 | 49.23618 | 8.41101 | 58° | 16km/h | 29390m | 6.0m/s | -43.1°C | 0.3% | 13.8hPa | 2.6V | 03:22:00 | 00:00:00 | 00:00:00 | |
| DL4BBY-15 | 2026-09-03 06:25:52 | 49.23613 | 8.41092 | 54° | 15km/h | 29379m | 4.9m/s | -43.9°C | 0% | 0hPa | 2.6V | 00:00:00 | 00:00:00 | 00:00:00 | |
| DM0DOS-11 | 2026-09-03 06:25:51 | 49.23606 | 8.41089 | 352° | 13km/h | 29345m | 6.3m/s | -43.2°C | 2.2% | 13.8hPa | 2.6V | 03:21:50 | 01:55:53 | 00:00:00 | |
| DK7TD | 2026-09-03 06:25:51 | 49.23611 | 8.41089 | 50° | 9km/h | 29374m | 5.3m/s | -43.2°C | 0% | 13.8hPa | 2.7V | 03:23:49 | 01:55:58 | 00:00:00 | |
| IW2NTF | 2026-09-03 06:25:50 | 49.23602 | 8.41089 | 4° | 18km/h | 29338m | 6.6m/s | -43.3°C | 2.2% | 13.9hPa | 2.6V | 03:21:51 | 01:55:52 | 00:00:00 | |
| HARRO8 | 2026-09-03 06:25:50 | 49.23610 | 8.41087 | 51° | 4km/h | 29367m | 6.9m/s | -43.3°C | 0.3% | 13.8hPa | 2.7V | 00:00:00 | 00:00:00 | 00:00:00 | |
| DL1XH-15 | 2026-09-03 06:25:49 | 49.23597 | 8.41088 | 14° | 24km/h | 29332m | 5.6m/s | -43.3°C | 2.2% | 13.9hPa | 2.7V | 03:21:52 | 01:55:51 | 00:00:00 | |
| BIOWL9-15 | 2026-09-03 06:25:45 | 49.23602 | 8.41089 | 4° | 18km/h | 29339m | 6.6m/s | -43.3°C | 0.3% | 13.9hPa | 2.7V | 00:00:00 | 00:00:00 | 00:00:00 | |
| DL1XH-west | 2026-09-03 06:25:45 | 49.23602 | 8.41089 | 4° | 18km/h | 29338m | 6.6m/s | -43.3°C | 0% | 13.9hPa | 2.6V | 03:22:07 | 01:55:52 | 00:00:00 | |
| BIOWL1-15 | 2026-09-03 06:25:43 | 49.23591 | 8.41084 | 27° | 24km/h | 29327m | 4.8m/s | -43.4°C | 0% | 13.9hPa | 2.7V | 03:22:07 | 01:55:50 | 00:00:00 | |
| SONCRA | 2026-09-03 06:25:42 | 49.23582 | 8.41073 | 57° | 18km/h | 29316m | 6.8m/s | -43.4°C | 0.3% | 13.9hPa | 2.7V | 00:00:00 | 00:00:00 | 00:00:00 | |
| DM0DOS-11 | 2026-09-03 06:25:41 | 49.23586 | 8.41050 | 145° | 4km/h | 29285m | 6m/s | -43.4°C | 2.2% | 14hPa | 2.7V | 03:22:00 | 01:55:43 | 00:00:00 | |
| DK5PH-5 | 2026-09-03 06:25:41 | 49.23582 | 8.41073 | 58° | 15km/h | 29316m | 6.8m/s | -43.3°C | 2.2% | 13.9hPa | 2.6V | 00:00:00 | 01:55:48 | 00:00:00 | |
| IW2NTF | 2026-09-03 06:25:40 | 49.23586 | 8.41050 | 286° | 4km/h | 29280m | 5.4m/s | -43.5°C | 2.2% | 14hPa | 2.6V | 03:22:01 | 01:55:42 | 00:00:00 | |
| DK7TD | 2026-09-03 06:25:40 | 49.23581 | 8.41067 | 83° | 16km/h | 29309m | 6.6m/s | -43.4°C | 0% | 13.9hPa | 2.6V | 03:23:49 | 01:55:47 | 00:00:00 | |
| DJTTGO | 2026-09-03 06:25:39 | 49.23581 | 8.41067 | 84° | 16km/h | 29310m | 6.6m/s | -43.4°C | 0.3% | 13.9hPa | 2.6V | 03:22:00 | 00:00:00 | 00:00:00 | |
| DL1XH-15 | 2026-09-03 06:25:38 | 49.23584 | 8.41056 | 296° | 11km/h | 29268m | 6.6m/s | -43.5°C | 2.2% | 14hPa | 2.6V | 03:22:03 | 01:55:40 | 00:00:00 | |
| DB0UT-7 | 2026-09-03 06:25:38 | 49.23583 | 8.41055 | 122° | 15km/h | 29298m | 5.3m/s | -43.3°C | 2.2% | 13.9hPa | 2.7V | 03:21:00 | 01:55:45 | 00:00:00 | |
| DL1XH1-15 | 2026-09-03 06:25:37 | 49.23582 | 8.41060 | 306° | 11km/h | 29262m | 6.1m/s | -43.5°C | 2.2% | 14hPa | 2.7V | 03:22:04 | 01:55:39 | 00:00:00 | |
| DL1XH-west | 2026-09-03 06:25:35 | 49.23586 | 8.41050 | 287° | 4km/h | 29280m | 5.4m/s | -43.5°C | 0% | 14hPa | 2.6V | 03:22:07 | 01:55:42 | 00:00:00 | |
| BIOWL1-15 | 2026-09-03 06:25:34 | 49.23582 | 8.41060 | 306° | 11km/h | 29262m | 6.1m/s | -43.5°C | 0% | 14hPa | 2.7V | 03:22:07 | 01:55:39 | 00:00:00 | |
| DF8AY | 2026-09-03 06:25:33 | 49.23584 | 8.41056 | 296° | 11km/h | 29268m | 6.6m/s | 0°C | 0% | 0hPa | 2.6V | 18:12:15 | 01:55:40 | 00:00:00 | |
| BIOWL1-15 | 2026-09-03 06:25:28 | 49.23562 | 8.41021 | 175° | 18km/h | 29204m | 5.5m/s | -43.7°C | 0% | 14.2hPa | 2.7V | 03:22:58 | 01:55:29 | 00:00:00 | |
| DL1XH1-15 | 2026-09-03 06:25:27 | 49.23562 | 8.41021 | 175° | 18km/h | 29204m | 5.5m/s | -43.6°C | 2.2% | 14.2hPa | 2.7V | 03:22:14 | 01:55:29 | 00:00:00 | |
| DK7TD | 2026-09-03 06:25:27 | 49.23563 | 8.41052 | 44° | 29km/h | 29232m | 5m/s | -43.6°C | 0% | 14.1hPa | 2.7V | 03:23:49 | 01:55:34 | 00:00:00 | |
| DL1XH-west | 2026-09-03 06:25:24 | 49.23556 | 8.41028 | 101° | 16km/h | 29217m | 6.7m/s | -43.6°C | 0% | 14.1hPa | 2.6V | 03:22:58 | 01:55:31 | 00:00:00 | |
| DL1XH-15 | 2026-09-03 06:25:23 | 49.23573 | 8.41030 | 293° | 5km/h | 29182m | 6.1m/s | -43.7°C | 2.3% | 14.2hPa | 2.6V | 03:22:18 | 01:55:25 | 00:00:00 | |
| DL4BBY-15 | 2026-09-03 06:25:22 | 49.23562 | 8.41021 | 176° | 13km/h | 29205m | 5.5m/s | -44.4°C | 0% | 0hPa | 2.6V | 00:00:00 | 00:00:00 | 00:00:00 | |
| DM7RM-13 | 2026-09-03 06:25:21 | 49.23562 | 8.41021 | 176° | 18km/h | 29205m | 5.5m/s | -43.6°C | 0.3% | 14.2hPa | 2.6V | 03:22:00 | 00:00:00 | 00:00:00 | |
| HARRO8 | 2026-09-03 06:25:19 | 49.23573 | 8.41030 | 293° | 5km/h | 29182m | 6.1m/s | -43.7°C | 0.3% | 14.2hPa | 2.6V | 00:00:00 | 00:00:00 | 00:00:00 | |
| OE5DXL-15 | 2026-09-03 06:25:18 | 49.23573 | 8.41030 | 294° | 11km/h | 29182m | 6.0m/s | -43.6°C | 2.3% | 14.1hPa | 2.6V | 00:00:00 | 00:00:00 | 00:00:00 | |
| DL1XH1-15 | 2026-09-03 06:25:17 | 49.23564 | 8.41010 | 111° | 18km/h | 29146m | 5.9m/s | -43.7°C | 2.2% | 14.3hPa | 2.6V | 03:22:24 | 01:55:19 | 00:00:00 | |
| DK7TD | 2026-09-03 06:25:15 | 49.23566 | 8.41027 | 42° | 16km/h | 29164m | 6.2m/s | -43.8°C | 0% | 14.2hPa | 2.7V | 03:23:49 | 01:55:22 | 00:00:00 | |
| DL1XH-west | 2026-09-03 06:25:13 | 49.23563 | 8.41016 | 88° | 16km/h | 29152m | 6.1m/s | -43.7°C | 0% | 14.3hPa | 2.6V | 03:22:58 | 01:55:20 | 00:00:00 | |
| HSKMA3-T | 2026-09-03 06:25:11 | 49.23566 | 8.41003 | 130° | 22km/h | 29140m | 5.5m/s | 0°C | 0% | 0hPa | 2.7V | 18:12:15 | 01:55:18 | 00:00:00 | |
| SONCRA | 2026-09-03 06:25:11 | 49.23570 | 8.40997 | 142° | 22km/h | 29135m | 5.4m/s | -43.8°C | 0.3% | 14.3hPa | 2.6V | 00:00:00 | 00:00:00 | 00:00:00 | |
| DL3AQ-11 | 2026-09-03 06:25:10 | 49.23575 | 8.40993 | 152° | 20km/h | 29130m | 5.5m/s | -43.7°C | 0.3% | 14.3hPa | 2.6V | 00:00:00 | 00:00:00 | 00:00:00 | |
| DL1XH-15 | 2026-09-03 06:25:09 | 49.23591 | 8.40989 | 179° | 13km/h | 29102m | 5.3m/s | -43.7°C | 2.3% | 14.3hPa | 2.6V | 03:22:32 | 01:55:11 | 00:00:00 | |
| DB0UT-7 | 2026-09-03 06:25:08 | 49.23579 | 8.40990 | 161° | 9km/h | 29124m | 5.9m/s | -43.6°C | 2.2% | 14.3hPa | 2.7V | 00:00:00 | 00:00:00 | 00:00:00 | |
| DL1XH1-15 | 2026-09-03 06:25:07 | 49.23598 | 8.40987 | 166° | 16km/h | 29091m | 5.4m/s | -43.7°C | 2.3% | 14.4hPa | 2.7V | 03:22:34 | 01:55:09 | 00:00:00 | |
| BIOWL1-15 | 2026-09-03 06:25:02 | 49.23606 | 8.40985 | 166° | 13km/h | 29081m | 5.1m/s | -43.8°C | 0% | 14.4hPa | 2.6V | 03:22:58 | 01:55:07 | 00:00:00 | |
| DL1XH-west | 2026-09-03 06:25:02 | 49.23599 | 8.40988 | 167° | 16km/h | 29091m | 5.4m/s | -43.7°C | 0% | 14.4hPa | 2.7V | 03:22:58 | 01:55:09 | 00:00:00 | |
| DK7TD | 2026-09-03 06:25:01 | 49.23603 | 8.40986 | 166° | 16km/h | 29086m | 4.9m/s | -43.7°C | 0% | 14.4hPa | 2.7V | 03:23:49 | 01:55:08 | 00:00:00 | |
| DJ2KF-10 | 2026-09-03 06:25:00 | 49.23606 | 8.40984 | 166° | 7km/h | 29081m | 5.0m/s | -43.8°C | 2.3% | 14.4hPa | 2.7V | 00:00:00 | 01:55:07 | 00:00:00 | |
| DL1XH1-15 | 2026-09-03 06:24:57 | 49.23613 | 8.40966 | 90° | 11km/h | 29035m | 4.5m/s | -43.8°C | 2.3% | 14.5hPa | 2.7V | 03:22:44 | 01:54:59 | 00:00:00 | |
| DL1XH-west | 2026-09-03 06:24:52 | 49.23612 | 8.40966 | 91° | 11km/h | 29035m | 4.5m/s | -43.8°C | 0% | 14.5hPa | 2.7V | 03:22:58 | 01:54:59 | 00:00:00 | |
| DK7TD | 2026-09-03 06:24:51 | 49.23612 | 8.40962 | 74° | 7km/h | 29030m | 5.2m/s | -43.8°C | 0% | 14.5hPa | 2.7V | 03:23:49 | 01:54:58 | 00:00:00 | |
| BIOWL1-15 | 2026-09-03 06:24:50 | 49.23612 | 8.40961 | 20° | 4km/h | 29024m | 6.7m/s | -43.7°C | 0% | 14.5hPa | 2.7V | 03:22:58 | 01:54:57 | 00:00:00 | |
| HARRO8 | 2026-09-03 06:24:48 | 49.23607 | 8.40966 | 314° | 9km/h | 29007m | 5.3m/s | -43.8°C | 0.3% | 14.6hPa | 2.6V | 00:00:00 | 00:00:00 | 00:00:00 | |
| DL1XH1-15 | 2026-09-03 06:24:47 | 49.23606 | 8.40964 | 113° | 7km/h | 28978m | 4.9m/s | -43.8°C | 2.3% | 14.6hPa | 2.6V | 03:22:54 | 01:54:49 | 00:00:00 | |
| DL3AQ-11 | 2026-09-03 06:24:46 | 49.23604 | 8.40969 | 343° | 0km/h | 28995m | 6.5m/s | -43.8°C | 0.3% | 14.6hPa | 2.7V | 00:00:00 | 00:00:00 | 00:00:00 | |
| DL1XH-15 | 2026-09-03 06:24:45 | 49.23606 | 8.40961 | 68° | 2km/h | 28967m | 6m/s | -43.9°C | 2.3% | 14.7hPa | 2.7V | 03:22:56 | 01:54:47 | 00:00:00 | |
| OE5DXL-15 | 2026-09-03 06:24:45 | 49.23604 | 8.40969 | 344° | 9km/h | 28995m | 6.4m/s | -43.7°C | 2.3% | 14.6hPa | 2.6V | 00:00:00 | 00:00:00 | 00:00:00 | |
| IW2NTF | 2026-09-03 06:24:44 | 49.23606 | 8.40960 | 359° | 2km/h | 28961m | 5.2m/s | -43.8°C | 2.3% | 14.7hPa | 2.6V | 03:22:57 | 01:54:46 | 00:00:00 | |
| DF3TZ-5 | 2026-09-03 06:24:43 | 49.23606 | 8.40964 | 113° | 5km/h | 28978m | 4.9m/s | -43.8°C | 0.3% | 14.6hPa | 2.7V | 00:00:00 | 00:00:00 | 00:00:00 | |
| DL6DJ-15 | 2026-09-03 06:24:42 | 49.23606 | 8.40964 | 113° | 5km/h | 28978m | 4.9m/s | -43.8°C | 0.3% | 14.6hPa | 2.7V | 00:00:00 | 00:00:00 | 00:00:00 | |
| DM0DOS-11 | 2026-09-03 06:24:41 | 49.23606 | 8.40960 | 152° | 5km/h | 28946m | 6.5m/s | -43.9°C | 2.3% | 14.7hPa | 2.7V | 03:23:00 | 01:54:43 | 00:00:00 | |
| DL1XH-west | 2026-09-03 06:24:41 | 49.23606 | 8.40962 | 104° | 5km/h | 28973m | 5.9m/s | -43.9°C | 0% | 14.6hPa | 2.7V | 03:22:58 | 01:54:48 | 00:00:00 | |
| BIOWL1-15 | 2026-09-03 06:24:40 | 49.23606 | 8.40961 | 68° | 2km/h | 28967m | 6m/s | -43.9°C | 0% | 14.7hPa | 2.7V | 03:22:58 | 01:54:47 | 00:00:00 | |
| SONCRA | 2026-09-03 06:24:40 | 49.23606 | 8.40960 | 359° | 2km/h | 28961m | 5.2m/s | -43.8°C | 0.3% | 14.7hPa | 2.6V | 00:00:00 | 00:00:00 | 00:00:00 | |
| DD1CC8 | 2026-09-03 06:24:39 | 49.23606 | 8.40960 | 359° | 2km/h | 28961m | 5.2m/s | -43.8°C | 0.3% | 14.7hPa | 2.6V | 00:00:00 | 00:00:00 | 00:00:00 | |
| DB0UT-7 | 2026-09-03 06:24:38 | 49.23606 | 8.40960 | 345° | 11km/h | 28957m | 4.4m/s | -43.8°C | 2.3% | 14.6hPa | 2.6V | 00:00:00 | 01:54:45 | 00:00:00 | |
| DL1XH1-15 | 2026-09-03 06:24:37 | 49.23617 | 8.40954 | 175° | 11km/h | 28924m | 5.7m/s | -43.9°C | 2.3% | 14.8hPa | 2.7V | 03:23:04 | 01:54:39 | 00:00:00 | |
| DB0NH | 2026-09-03 06:24:37 | 49.23605 | 8.40960 | 155° | 9km/h | 28952m | 5.1m/s | -43.9°C | 2.3% | 14.7hPa | 2.6V | 00:00:00 | 01:54:44 | 00:00:00 | |
| DO3MHA-11 | 2026-09-03 06:24:36 | 49.23606 | 8.40960 | 153° | 11km/h | 28946m | 6.4m/s | -43.9°C | 2.3% | 14.7hPa | 2.6V | 03:23:00 | 01:54:43 | 00:00:00 | |
| DL1XH-15 | 2026-09-03 06:24:35 | 49.23622 | 8.40955 | 214° | 9km/h | 28911m | 5.5m/s | -44°C | 2.3% | 14.8hPa | 2.6V | 03:23:06 | 01:54:37 | 00:00:00 | |
| SSTOLZ84 | 2026-09-03 06:24:35 | 49.23611 | 8.40956 | 157° | 13km/h | 28934m | 5.1m/s | -43.9°C | -1.0% | 14.7hPa | 2.6V | 00:00:00 | 00:00:00 | 00:00:00 | |
| IW2NTF | 2026-09-03 06:24:34 | 49.23624 | 8.40957 | 213° | 9km/h | 28906m | 5.2m/s | -44°C | 2.3% | 14.8hPa | 2.6V | 03:23:07 | 01:54:36 | 00:00:00 | |
| BIOWL1-15 | 2026-09-03 06:24:33 | 49.23624 | 8.40957 | 213° | 9km/h | 28906m | 5.2m/s | -44°C | 0% | 14.8hPa | 2.6V | 03:23:49 | 01:54:36 | 00:00:00 | |
| DF7PN | 2026-09-03 06:24:32 | 49.23617 | 8.40954 | 175° | 11km/h | 28924m | 5.7m/s | -43.9°C | 0.3% | 14.8hPa | 2.7V | 00:00:00 | 00:00:00 | 00:00:00 | |
| DM0DOS-11 | 2026-09-03 06:24:31 | 49.23632 | 8.40959 | 165° | 15km/h | 28889m | 5.7m/s | -44°C | 2.4% | 14.8hPa | 2.7V | 03:23:10 | 01:54:33 | 00:00:00 | |
| HSKMA3-T | 2026-09-03 06:24:31 | 49.23620 | 8.40954 | 193° | 9km/h | 28918m | 6.5m/s | 0°C | 0% | 0hPa | 2.7V | 18:12:15 | 01:54:38 | 00:00:00 | |
| DL1XH-west | 2026-09-03 06:24:30 | 49.23622 | 8.40955 | 215° | 9km/h | 28911m | 5.5m/s | -44°C | 0% | 14.8hPa | 2.6V | 03:23:49 | 01:54:37 | 00:00:00 | |
| DB0ND-19 | 2026-09-03 06:24:30 | 49.23624 | 8.40957 | 213° | 9km/h | 28907m | 5.2m/s | -44.0°C | 0.3% | 14.8hPa | 2.7V | 00:00:00 | 00:00:00 | 00:00:00 | |
| BIOWL7-15 | 2026-09-03 06:24:27 | 49.23626 | 8.40959 | 199° | 11km/h | 28901m | 5.3m/s | -44.0°C | 0.3% | 14.8hPa | 2.7V | 00:00:00 | 00:00:00 | 00:00:00 | |
| DO3MHA-11 | 2026-09-03 06:24:26 | 49.23632 | 8.40959 | 166° | 11km/h | 28889m | 5.6m/s | -43.9°C | 2.4% | 14.8hPa | 2.7V | 00:00:00 | 01:54:33 | 00:00:00 | |
| DL1XH-15 | 2026-09-03 06:24:25 | 49.23647 | 8.40949 | 158° | 5km/h | 28857m | 4.5m/s | -43.9°C | 2.3% | 14.9hPa | 2.7V | 03:23:16 | 01:54:27 | 00:00:00 | |
| IW2NTF | 2026-09-03 06:24:24 | 49.23648 | 8.40948 | 154° | 9km/h | 28853m | 4.5m/s | -43.9°C | 2.3% | 14.9hPa | 2.7V | 03:23:17 | 01:54:26 | 00:00:00 | |
| DL4BBY-15 | 2026-09-03 06:24:22 | 49.23643 | 8.40951 | 156° | 11km/h | 28868m | 6.0m/s | -44.6°C | 0% | 0hPa | 2.6V | 00:00:00 | 00:00:00 | 00:00:00 | |
| DM0DOS-11 | 2026-09-03 06:24:21 | 49.23658 | 8.40939 | 146° | 22km/h | 28836m | 5.2m/s | -43.9°C | 2.3% | 15hPa | 2.6V | 03:23:20 | 01:54:23 | 00:00:00 | |
| HSKMA3-T | 2026-09-03 06:24:20 | 49.23646 | 8.40949 | 159° | 5km/h | 28858m | 4.5m/s | 0°C | 0% | 0hPa | 2.7V | 18:12:15 | 01:54:27 | 00:00:00 | |
| DL1XH-west | 2026-09-03 06:24:19 | 49.23648 | 8.40948 | 155° | 9km/h | 28853m | 4.5m/s | -43.9°C | 0% | 14.9hPa | 2.7V | 03:23:49 | 01:54:26 | 00:00:00 | |
| BIOWL1-15 | 2026-09-03 06:24:18 | 49.23651 | 8.40946 | 150° | 13km/h | 28848m | 6m/s | -43.9°C | 0% | 14.9hPa | 2.6V | 03:23:49 | 01:54:25 | 00:00:00 | |
| DL1XH1-15 | 2026-09-03 06:24:17 | 49.23672 | 8.40923 | 130° | 5km/h | 28815m | 6m/s | -43.8°C | 2.3% | 15hPa | 2.6V | 03:23:24 | 01:54:19 | 00:00:00 | |
| DL3AQ-11 | 2026-09-03 06:24:17 | 49.23658 | 8.40939 | 146° | 22km/h | 28836m | 5.2m/s | -43.9°C | 0.3% | 15.0hPa | 2.6V | 00:00:00 | 00:00:00 | 00:00:00 | |
| DO3MHA-11 | 2026-09-03 06:24:16 | 49.23658 | 8.40939 | 147° | 11km/h | 28836m | 5.2m/s | -43.8°C | 2.3% | 14.9hPa | 2.6V | 00:00:00 | 01:54:23 | 00:00:00 | |
| DJ2DS-15 | 2026-09-03 06:24:15 | 49.23663 | 8.40934 | 147° | 9km/h | 28831m | 4.6m/s | -43.7°C | 2.3% | 14.9hPa | 2.7V | 00:00:00 | 01:54:22 | 00:00:00 | |
| OE5DXL-15 | 2026-09-03 06:24:14 | 49.23667 | 8.40930 | 145° | 13km/h | 28826m | 5.1m/s | -43.7°C | 2.3% | 14.9hPa | 2.7V | 00:00:00 | 00:00:00 | 00:00:00 | |
| DF1GD-15 | 2026-09-03 06:24:13 | 49.23667 | 8.40930 | 145° | 20km/h | 28826m | 5.1m/s | -43.8°C | 0.4% | 15.0hPa | 2.7V | 03:23:00 | 00:00:00 | 00:00:00 | |
| DF3TZ-5 | 2026-09-03 06:24:12 | 49.23673 | 8.40922 | 69° | 2km/h | 28809m | 5.7m/s | -43.7°C | 0.3% | 15.0hPa | 2.7V | 00:00:00 | 00:00:00 | 00:00:00 | |
| DM0DOS-11 | 2026-09-03 06:24:11 | 49.23673 | 8.40914 | 117° | 13km/h | 28782m | 5.3m/s | -43.7°C | 2.3% | 15.1hPa | 2.7V | 03:23:30 | 01:54:13 | 00:00:00 | |
| HSKMA3-T | 2026-09-03 06:24:10 | 49.23672 | 8.40922 | 10° | 4km/h | 28803m | 5m/s | 0°C | 0% | 0hPa | 2.7V | 18:12:15 | 01:54:17 | 00:00:00 | |
| DL1XH-west | 2026-09-03 06:24:09 | 49.23671 | 8.40921 | 23° | 4km/h | 28798m | 5m/s | -43.8°C | 0% | 15hPa | 2.7V | 03:23:49 | 01:54:16 | 00:00:00 | |
| DK7TD | 2026-09-03 06:24:08 | 49.23671 | 8.40920 | 109° | 4km/h | 28793m | 6m/s | -43.7°C | 0% | 15.1hPa | 2.6V | 03:23:49 | 01:54:15 | 00:00:00 | |
| DB0UT-7 | 2026-09-03 06:24:08 | 49.23671 | 8.40920 | 110° | 13km/h | 28793m | 5.9m/s | -43.7°C | 2.3% | 15.0hPa | 2.7V | 00:00:00 | 00:00:00 | 00:00:00 | |
| DL1XH1-15 | 2026-09-03 06:24:07 | 49.23677 | 8.40891 | 89° | 15km/h | 28759m | 4.7m/s | -43.8°C | 2.3% | 15.2hPa | 2.7V | 03:23:34 | 01:54:09 | 00:00:00 | |
| BIOWL1-15 | 2026-09-03 06:24:07 | 49.23672 | 8.40918 | 119° | 9km/h | 28787m | 5.5m/s | -43.7°C | 0% | 15.1hPa | 2.6V | 03:23:49 | 01:54:14 | 00:00:00 | |
| DB0NH | 2026-09-03 06:24:07 | 49.23672 | 8.40918 | 119° | 11km/h | 28787m | 5.4m/s | -43.7°C | 2.3% | 15.0hPa | 2.6V | 03:23:00 | 01:54:14 | 00:00:00 | |
| DO3MHA-11 | 2026-09-03 06:24:06 | 49.23673 | 8.40914 | 118° | 13km/h | 28782m | 5.2m/s | -43.7°C | 2.3% | 15.0hPa | 2.6V | 00:00:00 | 01:54:13 | 00:00:00 | |
| HEMX73-11 | 2026-09-03 06:24:05 | 49.23673 | 8.40914 | 118° | 13km/h | 28782m | 5.3m/s | -43.7°C | 0.3% | 15.1hPa | 2.6V | 03:23:00 | 00:00:00 | 00:00:00 | |
| HEMX73-6 | 2026-09-03 06:24:03 | 49.23676 | 8.40897 | 95° | 22km/h | 28765m | 5.7m/s | -43.7°C | 2.3% | 15.1hPa | 2.6V | 00:00:00 | 01:54:10 | 00:00:00 | |
| DM0DOS-11 | 2026-09-03 06:24:01 | 49.23682 | 8.40869 | 43° | 2km/h | 28728m | 5.5m/s | -44°C | 2.3% | 15.2hPa | 2.7V | 03:23:40 | 01:54:03 | 00:00:00 | |
| IW2NTF | 2026-09-03 06:24:00 | 49.23680 | 8.40869 | 349° | 5km/h | 28722m | 6.4m/s | -43.9°C | 2.3% | 15.2hPa | 2.7V | 03:23:41 | 01:54:02 | 00:00:00 | |
| DL1XH-west | 2026-09-03 06:23:59 | 49.23678 | 8.40875 | 119° | 13km/h | 28743m | 5.9m/s | -43.9°C | 0% | 15.2hPa | 2.6V | 03:23:49 | 01:54:06 | 00:00:00 | |
| DL8OAI-8 | 2026-09-03 06:23:58 | 49.23678 | 8.40875 | 120° | 13km/h | 28744m | 5.9m/s | 0°C | 0% | 0hPa | 2.6V | 00:00:00 | 00:00:00 | 00:00:00 | |
| DL1XH1-15 | 2026-09-03 06:23:57 | 49.23672 | 8.40868 | 22° | 11km/h | 28708m | 4.3m/s | -44°C | 2.4% | 15.2hPa | 2.6V | 03:23:44 | 01:53:59 | 00:00:00 | |
| BIOWL1-15 | 2026-09-03 06:23:56 | 49.23681 | 8.40869 | 44° | 2km/h | 28728m | 5.5m/s | -44°C | 0% | 15.2hPa | 2.7V | 03:23:49 | 01:54:03 | 00:00:00 | |
| DK7TD | 2026-09-03 06:23:55 | 49.23681 | 8.40869 | 350° | 5km/h | 28722m | 6.4m/s | -43.9°C | 0% | 15.2hPa | 2.7V | 03:23:49 | 01:54:02 | 00:00:00 | |
| DJ2DS-15 | 2026-09-03 06:23:55 | 49.23680 | 8.40869 | 350° | 15km/h | 28723m | 6.3m/s | -43.8°C | 2.3% | 15.2hPa | 2.7V | 00:00:00 | 01:54:02 | 00:00:00 | |
| DL1XH-15 | 2026-09-03 06:23:54 | 49.23669 | 8.40856 | 98° | 18km/h | 28691m | 5.1m/s | -44°C | 2.3% | 15.3hPa | 2.7V | 03:23:47 | 01:53:56 | 00:00:00 | |
| HSKMA3-T | 2026-09-03 06:23:54 | 49.23678 | 8.40869 | 353° | 11km/h | 28717m | 5m/s | 0°C | 0% | 0hPa | 2.7V | 18:12:15 | 01:54:01 | 00:00:00 | |
| DF1GD-15 | 2026-09-03 06:23:53 | 49.23678 | 8.40869 | 354° | 11km/h | 28717m | 5.0m/s | -43.9°C | 0.3% | 15.2hPa | 2.6V | 03:23:00 | 00:00:00 | 00:00:00 | |
| DL4BBY-15 | 2026-09-03 06:23:52 | 49.23673 | 8.40869 | 23° | 13km/h | 28709m | 4.3m/s | -44.8°C | 0% | 0hPa | 2.6V | 00:00:00 | 00:00:00 | 00:00:00 | |
| DM0DOS-11 | 2026-09-03 06:23:51 | 49.23670 | 8.40831 | 79° | 22km/h | 28676m | 5.8m/s | -44°C | 2.3% | 15.3hPa | 2.6V | 03:23:50 | 01:53:53 | 00:00:00 | |
| DL1XH-west | 2026-09-03 06:23:49 | 49.23669 | 8.40856 | 99° | 18km/h | 28692m | 5.1m/s | -44°C | 0% | 15.3hPa | 2.7V | 03:23:49 | 01:53:56 | 00:00:00 | |
| CB1BUN | 2026-09-03 06:23:48 | 49.23669 | 8.40856 | 100° | 18km/h | 28692m | 5.1m/s | -44.0°C | 0.3% | 15.3hPa | 2.7V | 03:23:00 | 00:00:00 | 00:00:00 | |
| DL1XH1-15 | 2026-09-03 06:23:47 | 49.23659 | 8.40808 | 27° | 15km/h | 28656m | 5.8m/s | -43.9°C | 2.2% | 15.4hPa | 2.7V | 03:23:54 | 01:53:49 | 00:00:00 | |
| BIOWL1-15 | 2026-09-03 06:23:46 | 49.23670 | 8.40831 | 79° | 22km/h | 28676m | 5.8m/s | -44°C | 0% | 15.3hPa | 2.6V | 03:24:40 | 01:53:53 | 00:00:00 | |
| HARRO8 | 2026-09-03 06:23:46 | 49.23668 | 8.40823 | 63° | 20km/h | 28671m | 5.0m/s | -44.1°C | 0.3% | 15.4hPa | 2.7V | 00:00:00 | 00:00:00 | 00:00:00 | |
| HSKMA3-T | 2026-09-03 06:23:44 | 49.23666 | 8.40817 | 49° | 20km/h | 28666m | 4.5m/s | 0°C | 0% | 0hPa | 2.7V | 18:12:15 | 01:53:51 | 00:00:00 | |
| DM0DOS-11 | 2026-09-03 06:23:41 | 49.23643 | 8.40804 | 20° | 15km/h | 28623m | 5.2m/s | -44.1°C | 2.3% | 15.4hPa | 2.6V | 03:24:00 | 01:53:43 | 00:00:00 | |
| DL1XH-west | 2026-09-03 06:23:38 | 49.23649 | 8.40806 | 2° | 11km/h | 28635m | 5m/s | -44°C | 0% | 15.4hPa | 2.7V | 03:24:40 | 01:53:45 | 00:00:00 | |
| BIOWL1-15 | 2026-09-03 06:23:38 | 49.23643 | 8.40804 | 20° | 15km/h | 28623m | 5.2m/s | -44.1°C | 0% | 15.4hPa | 2.6V | 03:24:40 | 01:53:43 | 00:00:00 | |
| SONCRA | 2026-09-03 06:23:38 | 49.23646 | 8.40805 | 10° | 13km/h | 28630m | 6.3m/s | -44.0°C | 0.3% | 15.4hPa | 2.6V | 00:00:00 | 00:00:00 | 00:00:00 | |
| DL1XH1-15 | 2026-09-03 06:23:37 | 49.23634 | 8.40791 | 84° | 9km/h | 28603m | 5.4m/s | -44.2°C | 2.3% | 15.5hPa | 2.6V | 03:24:04 | 01:53:39 | 00:00:00 | |
| DL3AQ-11 | 2026-09-03 06:23:37 | 49.23643 | 8.40804 | 20° | 15km/h | 28624m | 5.2m/s | -44.1°C | 0.3% | 15.4hPa | 2.7V | 00:00:00 | 00:00:00 | 00:00:00 | |
| DO3MHA-11 | 2026-09-03 06:23:36 | 49.23643 | 8.40804 | 21° | 11km/h | 28624m | 5.2m/s | -44.0°C | 2.3% | 15.4hPa | 2.7V | 00:00:00 | 01:53:43 | 00:00:00 | |
| DJ2DS-15 | 2026-09-03 06:23:35 | 49.23640 | 8.40801 | 31° | 9km/h | 28619m | 4.1m/s | -44.1°C | 2.3% | 15.4hPa | 2.7V | 00:00:00 | 01:53:42 | 00:00:00 | |
| IW2NTF | 2026-09-03 06:23:34 | 49.23631 | 8.40779 | 28° | 11km/h | 28582m | 5.2m/s | -44.2°C | 2.3% | 15.5hPa | 2.6V | 03:24:08 | 01:53:35 | 00:00:00 | |
| DB0NH | 2026-09-03 06:23:34 | 49.23637 | 8.40798 | 45° | 7km/h | 28615m | 4.7m/s | -44.2°C | 2.3% | 15.4hPa | 2.6V | 00:00:00 | 01:53:41 | 00:00:00 | |
| DF1GD-15 | 2026-09-03 06:23:32 | 49.23635 | 8.40794 | 64° | 11km/h | 28609m | 6.2m/s | -44.2°C | 0.4% | 15.5hPa | 2.6V | 03:24:00 | 00:00:00 | 00:00:00 | |
| DM0DOS-11 | 2026-09-03 06:23:31 | 49.23625 | 8.40776 | 5° | 11km/h | 28573m | 4.9m/s | -44.4°C | 2.3% | 15.6hPa | 2.6V | 03:24:10 | 01:53:33 | 00:00:00 | |
| DK7TD | 2026-09-03 06:23:30 | 49.23634 | 8.40784 | 73° | 9km/h | 28593m | 5m/s | -44.2°C | 0% | 15.6hPa | 2.7V | 03:25:31 | 01:53:37 | 00:00:00 | |
| DL1XH-west | 2026-09-03 06:23:28 | 49.23631 | 8.40779 | 29° | 11km/h | 28582m | 5.2m/s | -44.3°C | 0% | 15.5hPa | 2.6V | 03:24:40 | 01:53:35 | 00:00:00 | |
| BIOWL1-15 | 2026-09-03 06:23:26 | 49.23625 | 8.40776 | 5° | 11km/h | 28573m | 4.9m/s | -44.4°C | 0% | 15.6hPa | 2.6V | 03:24:40 | 01:53:33 | 00:00:00 | |
| DO3MHA-11 | 2026-09-03 06:23:26 | 49.23625 | 8.40776 | 6° | 7km/h | 28573m | 4.8m/s | -44.4°C | 2.3% | 15.5hPa | 2.7V | 00:00:00 | 01:53:33 | 00:00:00 | |
| BIOWL7-15 | 2026-09-03 06:23:25 | 49.23625 | 8.40776 | 6° | 11km/h | 28573m | 4.9m/s | -44.4°C | 0.3% | 15.6hPa | 2.7V | 00:00:00 | 00:00:00 | 00:00:00 | |
| IW2NTF | 2026-09-03 06:23:23 | 49.23614 | 8.40770 | 62° | 7km/h | 28531m | 4.6m/s | -44.5°C | 2.3% | 15.7hPa | 2.7V | 03:24:18 | 01:53:25 | 00:00:00 | |
| DL4BBY-15 | 2026-09-03 06:23:22 | 49.23620 | 8.40777 | 13° | 7km/h | 28552m | 4.8m/s | -45.1°C | 0% | 0hPa | 2.6V | 00:00:00 | 00:00:00 | 00:00:00 | |
| DL1XH-15 | 2026-09-03 06:23:21 | 49.23615 | 8.40766 | 141° | 5km/h | 28520m | 5.8m/s | -44.6°C | 2.3% | 15.7hPa | 2.6V | 03:24:20 | 01:53:23 | 00:00:00 | |
| DL1XH-west | 2026-09-03 06:23:18 | 49.23614 | 8.40770 | 63° | 7km/h | 28531m | 4.6m/s | -44.5°C | 0% | 15.7hPa | 2.7V | 03:24:40 | 01:53:25 | 00:00:00 | |
| DL1XH1-15 | 2026-09-03 06:23:17 | 49.23616 | 8.40769 | 320° | 9km/h | 28499m | 5.9m/s | -44.8°C | 2.4% | 15.8hPa | 2.7V | 03:24:24 | 01:53:19 | 00:00:00 | |
| BIOWL1-15 | 2026-09-03 06:23:16 | 49.23614 | 8.40766 | 142° | 5km/h | 28520m | 5.8m/s | -44.7°C | 0% | 15.7hPa | 2.6V | 03:24:40 | 01:53:23 | 00:00:00 | |
| NBG1-10 | 2026-09-03 06:23:16 | 49.23614 | 8.40766 | 142° | 5km/h | 28520m | 5.7m/s | -44.6°C | 2.3% | 15.6hPa | 2.7V | 00:00:00 | 01:53:23 | 00:00:00 | |
| HARRO8 | 2026-09-03 06:23:15 | 49.23616 | 8.40766 | 222° | 2km/h | 28511m | 4.3m/s | -44.7°C | 0.3% | 15.7hPa | 2.7V | 00:00:00 | 00:00:00 | 00:00:00 | |
| DJ2DS-15 | 2026-09-03 06:23:14 | 49.23617 | 8.40767 | 292° | 4km/h | 28506m | 5.9m/s | -44.7°C | 0.3% | 15.7hPa | 2.7V | 00:00:00 | 00:00:00 | 00:00:00 | |
| IW2NTF | 2026-09-03 06:23:13 | 49.23607 | 8.40783 | 293° | 13km/h | 28479m | 5.8m/s | -45°C | 2.5% | 15.8hPa | 2.7V | 03:24:28 | 01:53:15 | 00:00:00 | |
| DK7TD | 2026-09-03 06:23:12 | 49.23615 | 8.40769 | 320° | 9km/h | 28500m | 5.9m/s | -44.8°C | 0% | 15.8hPa | 2.7V | 03:25:31 | 01:53:19 | 00:00:00 | |
| DM0DOS-11 | 2026-09-03 06:23:11 | 49.23605 | 8.40790 | 289° | 7km/h | 28469m | 4.1m/s | -45°C | 2.4% | 15.8hPa | 2.6V | 03:24:30 | 01:53:13 | 00:00:00 | |
| BIOWL9-15 | 2026-09-03 06:23:10 | 49.23609 | 8.40778 | 306° | 13km/h | 28484m | 5.7m/s | -45.0°C | 0.3% | 15.8hPa | 2.7V | 00:00:00 | 00:00:00 | 00:00:00 | |
| DL6DJ-15 | 2026-09-03 06:23:09 | 49.23609 | 8.40778 | 306° | 13km/h | 28484m | 5.7m/s | -45.0°C | 0.3% | 15.8hPa | 2.7V | 00:00:00 | 00:00:00 | 00:00:00 | |
| DB0UT-7 | 2026-09-03 06:23:08 | 49.23607 | 8.40782 | 294° | 9km/h | 28479m | 5.8m/s | -45.0°C | 2.5% | 15.7hPa | 2.7V | 00:00:00 | 00:00:00 | 00:00:00 | |
| DL1XH1-15 | 2026-09-03 06:23:07 | 49.23602 | 8.40791 | 61° | 4km/h | 28449m | 4.6m/s | -45.2°C | 2.4% | 15.9hPa | 2.6V | 03:24:34 | 01:53:09 | 00:00:00 | |
| DL1XH-west | 2026-09-03 06:23:07 | 49.23606 | 8.40787 | 284° | 11km/h | 28474m | 4.4m/s | -45°C | 0% | 15.8hPa | 2.7V | 03:24:40 | 01:53:14 | 00:00:00 | |
| BIOWL1-15 | 2026-09-03 06:23:06 | 49.23605 | 8.40790 | 289° | 7km/h | 28469m | 4.1m/s | -45°C | 0% | 15.8hPa | 2.6V | 03:24:40 | 01:53:13 | 00:00:00 | |
| DK7TD | 2026-09-03 06:23:02 | 49.23601 | 8.40791 | 62° | 4km/h | 28449m | 4.6m/s | -45.2°C | 0% | 15.9hPa | 2.6V | 03:25:31 | 01:53:09 | 00:00:00 | |
| DM0DOS-11 | 2026-09-03 06:23:01 | 49.23606 | 8.40801 | 283° | 11km/h | 28417m | 5.6m/s | -44.9°C | 2.4% | 15.9hPa | 2.7V | 03:24:40 | 01:53:03 | 00:00:00 | |
| DJ2KF-10 | 2026-09-03 06:23:00 | 49.23602 | 8.40790 | 195° | 11km/h | 28438m | 5.4m/s | -45.0°C | 2.4% | 15.8hPa | 2.7V | 00:00:00 | 01:53:07 | 00:00:00 | |
| DL1XH-15 | 2026-09-03 06:22:59 | 49.23604 | 8.40810 | 286° | 15km/h | 28407m | 4.6m/s | -45°C | 2.4% | 16hPa | 2.7V | 03:24:42 | 01:53:01 | 00:00:00 | |
| DF7PN | 2026-09-03 06:22:59 | 49.23605 | 8.40794 | 237° | 7km/h | 28428m | 4.6m/s | -44.9°C | 0.3% | 15.9hPa | 2.6V | 00:00:00 | 00:00:00 | 00:00:00 | |
| DO1YAY-16 | 2026-09-03 06:22:58 | 49.23605 | 8.40794 | 237° | 7km/h | 28428m | 4.6m/s | -44.9°C | 0.3% | 15.9hPa | 2.6V | 00:00:00 | 00:00:00 | 00:00:00 | |
| DL1XH1-15 | 2026-09-03 06:22:57 | 49.23604 | 8.40820 | 257° | 13km/h | 28396m | 5.3m/s | -45.1°C | 2.4% | 16hPa | 2.6V | 03:24:44 | 01:52:59 | 00:00:00 | |
| BIOWL1-15 | 2026-09-03 06:22:57 | 49.23605 | 8.40805 | 290° | 13km/h | 28412m | 4.6m/s | -45°C | 0% | 16hPa | 2.7V | 03:25:31 | 01:53:02 | 00:00:00 | |
| DL1XH-west | 2026-09-03 06:22:56 | 49.23606 | 8.40801 | 283° | 11km/h | 28417m | 5.6m/s | -44.9°C | 0% | 15.9hPa | 2.7V | 03:24:40 | 01:53:03 | 00:00:00 | |
| DO3MHA-11 | 2026-09-03 06:22:56 | 49.23606 | 8.40801 | 284° | 9km/h | 28417m | 5.5m/s | -44.9°C | 2.4% | 15.9hPa | 2.7V | 00:00:00 | 01:53:03 | 00:00:00 | |
| DJ2DS-15 | 2026-09-03 06:22:55 | 49.23605 | 8.40805 | 291° | 9km/h | 28412m | 4.6m/s | -44.9°C | 2.4% | 15.9hPa | 2.7V | 00:00:00 | 01:53:02 | 00:00:00 | |
| DL4BBY-15 | 2026-09-03 06:22:52 | 49.23604 | 8.40820 | 258° | 11km/h | 28397m | 5.3m/s | -45.8°C | 0% | 0hPa | 2.7V | 00:00:00 | 00:00:00 | 00:00:00 | |
| DF1GD-15 | 2026-09-03 06:22:51 | 49.23604 | 8.40820 | 259° | 13km/h | 28397m | 5.3m/s | -45.1°C | 0.4% | 16.0hPa | 2.7V | 03:25:00 | 00:00:00 | 00:00:00 | |
| DL1XH-15 | 2026-09-03 06:22:49 | 49.23614 | 8.40827 | 199° | 13km/h | 28357m | 6.1m/s | -45.3°C | 2.4% | 0hPa | 2.7V | 03:24:52 | 01:52:51 | 00:00:00 | |
| BIOWL1-15 | 2026-09-03 06:22:49 | 49.23612 | 8.40826 | 185° | 9km/h | 28363m | 5.2m/s | -45.3°C | 0% | 16.1hPa | 2.6V | 03:25:31 | 01:52:52 | 00:00:00 | |
| DN1GJH-1 | 2026-09-03 06:22:48 | 49.23607 | 8.40828 | 199° | 4km/h | 28383m | 5.7m/s | -45.2°C | 0.4% | 16.0hPa | 2.7V | 03:25:00 | 00:00:00 | 00:00:00 | |
| DL1XH1-15 | 2026-09-03 06:22:47 | 49.23621 | 8.40833 | 218° | 18km/h | 28347m | 4.5m/s | -45.4°C | 2.4% | 16.1hPa | 2.7V | 03:24:54 | 01:52:49 | 00:00:00 | |
| DL1XH-west | 2026-09-03 06:22:46 | 49.23610 | 8.40826 | 162° | 5km/h | 28367m | 4m/s | -45.4°C | 0% | 16.1hPa | 2.6V | 03:25:31 | 01:52:53 | 00:00:00 | |
| DL3AQ-11 | 2026-09-03 06:22:45 | 49.23612 | 8.40826 | 185° | 7km/h | 28363m | 5.2m/s | -45.3°C | 0.3% | 16.1hPa | 2.7V | 00:00:00 | 00:00:00 | 00:00:00 | |
| DK7TD | 2026-09-03 06:22:42 | 49.23621 | 8.40833 | 218° | 18km/h | 28347m | 4.5m/s | -45.4°C | 0% | 16.1hPa | 2.7V | 03:25:31 | 01:52:49 | 00:00:00 | |
| DK5PH-5 | 2026-09-03 06:22:41 | 49.23624 | 8.40837 | 227° | 9km/h | 28342m | 5.2m/s | -45.4°C | 2.5% | 16.1hPa | 2.6V | 00:00:00 | 01:52:48 | 00:00:00 | |
| DL1XH-15 | 2026-09-03 06:22:39 | 49.23637 | 8.40850 | 167° | 13km/h | 28306m | 4.1m/s | -45.5°C | 2.4% | 0hPa | 2.6V | 03:25:02 | 01:52:41 | 00:00:00 | |
| DJ2DS-15 | 2026-09-03 06:22:38 | 49.23629 | 8.40849 | 216° | 5km/h | 28322m | 5.3m/s | -45.5°C | 0.4% | 16.2hPa | 2.7V | 00:00:00 | 00:00:00 | 00:00:00 | |
| DL1XH1-15 | 2026-09-03 06:22:37 | 49.23643 | 8.40846 | 148° | 11km/h | 28297m | 6m/s | -45.5°C | 2.5% | 16.2hPa | 2.7V | 03:25:04 | 01:52:39 | 00:00:00 | |
| BIOWL1-15 | 2026-09-03 06:22:36 | 49.23636 | 8.40850 | 167° | 13km/h | 28306m | 4.1m/s | -45.5°C | 0% | 16.2hPa | 2.6V | 03:25:31 | 01:52:41 | 00:00:00 | |
| DL1XH-west | 2026-09-03 06:22:36 | 49.23631 | 8.40850 | 193° | 9km/h | 28317m | 5.8m/s | -45.5°C | 0% | 16.2hPa | 2.7V | 03:25:31 | 01:52:43 | 00:00:00 | |
| DK7TD | 2026-09-03 06:22:31 | 49.23645 | 8.40844 | 144° | 9km/h | 28291m | 5.4m/s | -45.6°C | 0% | 16.2hPa | 2.7V | 03:25:31 | 01:52:38 | 00:00:00 | |
| IW2NTF | 2026-09-03 06:22:30 | 49.23660 | 8.40855 | 222° | 16km/h | 28261m | 4m/s | -45.8°C | 2.4% | 16.3hPa | 2.6V | 03:25:11 | 01:52:32 | 00:00:00 | |
| DJ2KF-10 | 2026-09-03 06:22:30 | 49.23646 | 8.40842 | 161° | 7km/h | 28286m | 4.6m/s | -45.6°C | 2.5% | 16.2hPa | 2.7V | 03:25:00 | 01:52:37 | 00:00:00 | |
| DL3AQ-11 | 2026-09-03 06:22:29 | 49.23648 | 8.40842 | 196° | 7km/h | 28281m | 4.8m/s | -45.6°C | 0.4% | 16.2hPa | 2.7V | 00:00:00 | 00:00:00 | 00:00:00 | |
| DF7PN | 2026-09-03 06:22:28 | 49.23653 | 8.40847 | 217° | 15km/h | 28270m | 5.5m/s | -45.8°C | 0.4% | 16.3hPa | 2.7V | 00:00:00 | 00:00:00 | 00:00:00 | |
| DL1XH1-15 | 2026-09-03 06:22:27 | 49.23664 | 8.40862 | 14° | 2km/h | 28245m | 5m/s | -45.8°C | 2.5% | 16.4hPa | 2.7V | 03:25:14 | 01:52:29 | 00:00:00 | |
| DO3MHA-11 | 2026-09-03 06:22:26 | 49.23656 | 8.40851 | 221° | 7km/h | 28266m | 4.1m/s | -45.7°C | 2.4% | 16.3hPa | 2.6V | 00:00:00 | 01:52:33 | 00:00:00 | |
| DL1XH-15 | 2026-09-03 06:22:25 | 49.23662 | 8.40860 | 60° | 5km/h | 28236m | 4.9m/s | -45.9°C | 0% | 0hPa | 2.6V | 03:25:16 | 01:52:27 | 00:00:00 | |
| DL1XH-west | 2026-09-03 06:22:25 | 49.23660 | 8.40855 | 222° | 16km/h | 28261m | 4m/s | -45.8°C | 0% | 16.3hPa | 2.6V | 03:25:31 | 01:52:32 | 00:00:00 | |
| DO2KSM | 2026-09-03 06:22:24 | 49.23660 | 8.40855 | 223° | 16km/h | 28262m | 4.0m/s | -45.8°C | 0.3% | 16.3hPa | 2.6V | 03:25:00 | 00:00:00 | 00:00:00 | |
| HEMX73-11 | 2026-09-03 06:22:23 | 49.23663 | 8.40861 | 233° | 5km/h | 28251m | 5.8m/s | -45.8°C | 0.4% | 16.3hPa | 2.6V | 03:25:00 | 00:00:00 | 00:00:00 | |
| BIOWL1-15 | 2026-09-03 06:22:23 | 49.23663 | 8.40861 | 232° | 5km/h | 28251m | 5.8m/s | -45.8°C | 0% | 16.3hPa | 2.7V | 03:25:31 | 01:52:30 | 00:00:00 | |
| DL4BBY-15 | 2026-09-03 06:22:22 | 49.23663 | 8.40862 | 15° | 5km/h | 28246m | 4.9m/s | -46.5°C | 0% | 0hPa | 2.6V | 00:00:00 | 00:00:00 | 00:00:00 | |
| DM0DOS-11 | 2026-09-03 06:22:21 | 49.23664 | 8.40857 | 222° | 2km/h | 28215m | 4.3m/s | -46.1°C | 2.5% | 16.4hPa | 2.6V | 03:25:20 | 01:52:23 | 00:00:00 | |
| DK7TD | 2026-09-03 06:22:21 | 49.23663 | 8.40861 | 46° | 4km/h | 28240m | 4.4m/s | -45.8°C | 0% | 16.4hPa | 2.6V | 03:25:31 | 01:52:28 | 00:00:00 | |
| IW2NTF | 2026-09-03 06:22:20 | 49.23664 | 8.40858 | 289° | 4km/h | 28210m | 6.1m/s | -46.1°C | 2.5% | 16.4hPa | 2.7V | 03:25:21 | 01:52:22 | 00:00:00 | |
| DB0UT-9 | 2026-09-03 06:22:18 | 49.23662 | 8.40858 | 92° | 4km/h | 28231m | 5.8m/s | -45.9°C | 0.4% | 16.4hPa | 2.6V | 03:25:00 | 00:00:00 | 00:00:00 | |
| DL3AQ-11 | 2026-09-03 06:22:17 | 49.23664 | 8.40857 | 222° | 2km/h | 28216m | 4.3m/s | -46.1°C | 0.4% | 16.4hPa | 2.6V | 00:00:00 | 00:00:00 | 00:00:00 | |
| DO3MHA-11 | 2026-09-03 06:22:16 | 49.23664 | 8.40857 | 223° | 9km/h | 28216m | 4.3m/s | -46.1°C | 2.5% | 16.4hPa | 2.6V | 00:00:00 | 01:52:23 | 00:00:00 | |
| DL1XH-15 | 2026-09-03 06:22:15 | 49.23662 | 8.40868 | 218° | 9km/h | 28185m | 6.2m/s | -46.4°C | 0% | 0hPa | 2.6V | 03:25:26 | 01:52:17 | 00:00:00 | |
| DL1XH-west | 2026-09-03 06:22:15 | 49.23664 | 8.40858 | 289° | 4km/h | 28210m | 6.1m/s | -46.1°C | 0% | 16.4hPa | 2.7V | 03:25:31 | 01:52:22 | 00:00:00 | |
| BIOWL1-15 | 2026-09-03 06:22:13 | 49.23662 | 8.40861 | 313° | 7km/h | 28199m | 4.3m/s | -46.1°C | 0% | 16.5hPa | 2.7V | 03:25:31 | 01:52:20 | 00:00:00 | |
| DK7TD | 2026-09-03 06:22:11 | 49.23661 | 8.40866 | 257° | 7km/h | 28191m | 4.5m/s | -46.3°C | 0% | 16.5hPa | 2.6V | 03:25:31 | 01:52:18 | 00:00:00 | |
| DK5PH-5 | 2026-09-03 06:22:11 | 49.23661 | 8.40866 | 257° | 9km/h | 28191m | 4.5m/s | -46.3°C | 2.5% | 16.4hPa | 2.6V | 00:00:00 | 01:52:18 | 00:00:00 | |
| IW2NTF | 2026-09-03 06:22:10 | 49.23678 | 8.40869 | 140° | 9km/h | 28158m | 6m/s | -46.4°C | 2.6% | 16.6hPa | 2.6V | 03:25:31 | 01:52:12 | 00:00:00 | |
| BIOWL9-15 | 2026-09-03 06:22:08 | 49.23672 | 8.40871 | 177° | 15km/h | 28169m | 4.4m/s | -46.4°C | 0.4% | 16.6hPa | 2.6V | 00:00:00 | 00:00:00 | 00:00:00 | |
| DL6DJ-15 | 2026-09-03 06:22:07 | 49.23672 | 8.40871 | 177° | 15km/h | 28169m | 4.4m/s | -46.4°C | 0.4% | 16.6hPa | 2.6V | 00:00:00 | 00:00:00 | 00:00:00 | |
| DO3MHA-11 | 2026-09-03 06:22:06 | 49.23676 | 8.40871 | 167° | 5km/h | 28164m | 5.7m/s | -46.3°C | 2.6% | 16.5hPa | 2.6V | 00:00:00 | 01:52:13 | 00:00:00 | |
| DL1XH-15 | 2026-09-03 06:22:05 | 49.23677 | 8.40863 | 281° | 4km/h | 28132m | 5m/s | -46.3°C | 0% | 0hPa | 2.6V | 03:25:36 | 01:52:07 | 00:00:00 | |
| DL1XH-west | 2026-09-03 06:22:04 | 49.23679 | 8.40867 | 95° | 7km/h | 28153m | 5.2m/s | -46.4°C | 0% | 16.6hPa | 2.6V | 03:26:22 | 01:52:11 | 00:00:00 | |
| BIOWL1-15 | 2026-09-03 06:22:02 | 49.23678 | 8.40863 | 39° | 5km/h | 28143m | 4.9m/s | -46.4°C | 0% | 16.6hPa | 2.7V | 03:26:22 | 01:52:09 | 00:00:00 | |
| DJ2DS-15 | 2026-09-03 06:22:02 | 49.23677 | 8.40862 | 2° | 2km/h | 28138m | 5.8m/s | -46.3°C | 0.4% | 16.6hPa | 2.7V | 00:00:00 | 00:00:00 | 00:00:00 | |
| DM0DOS-11 | 2026-09-03 06:22:01 | 49.23675 | 8.40870 | 316° | 5km/h | 28112m | 5.8m/s | -46.4°C | 2.5% | 16.7hPa | 2.7V | 03:25:40 | 01:52:03 | 00:00:00 | |
| DK7TD | 2026-09-03 06:21:57 | 49.23676 | 8.40869 | 294° | 5km/h | 28118m | 6.1m/s | -46.4°C | 0% | 16.7hPa | 2.7V | 03:26:22 | 01:52:04 | 00:00:00 | |
| DL1XH1-15 | 2026-09-03 06:21:57 | 49.23674 | 8.40875 | 224° | 5km/h | 28090m | 5.8m/s | -46.5°C | 2.6% | 16.8hPa | 2.6V | 03:25:44 | 01:51:59 | 00:00:00 | |
| DF7PN | 2026-09-03 06:21:57 | 49.23675 | 8.40870 | 316° | 5km/h | 28112m | 5.8m/s | -46.4°C | 0.4% | 16.7hPa | 2.7V | 00:00:00 | 00:00:00 | 00:00:00 | |
| DO3MHA-11 | 2026-09-03 06:21:56 | 49.23675 | 8.40870 | 317° | 5km/h | 28113m | 5.7m/s | -46.4°C | 2.5% | 16.7hPa | 2.7V | 03:25:00 | 01:52:03 | 00:00:00 | |
| DL1XH-15 | 2026-09-03 06:21:55 | 49.23675 | 8.40877 | 257° | 4km/h | 28081m | 4.2m/s | -46.5°C | 0% | 0hPa | 2.7V | 03:25:46 | 01:51:57 | 00:00:00 | |
| DL1XH-west | 2026-09-03 06:21:53 | 49.23673 | 8.40874 | 259° | 4km/h | 28096m | 5.9m/s | -46.6°C | 0% | 16.7hPa | 2.6V | 03:26:22 | 01:52:00 | 00:00:00 | |
| DL4BBY-15 | 2026-09-03 06:21:52 | 49.23674 | 8.40875 | 225° | 9km/h | 28091m | 5.8m/s | -47.3°C | 0% | 0hPa | 2.6V | 00:00:00 | 00:00:00 | 00:00:00 | |
| DM0DOS-11 | 2026-09-03 06:21:51 | 49.23666 | 8.40881 | 347° | 18km/h | 28058m | 5.4m/s | -46.6°C | 2.6% | 16.8hPa | 2.6V | 03:25:50 | 01:51:53 | 00:00:00 | |
| BIOWL1-15 | 2026-09-03 06:21:51 | 49.23675 | 8.40876 | 224° | 5km/h | 28085m | 4.4m/s | -46.6°C | 0% | 16.8hPa | 2.7V | 03:26:22 | 01:51:58 | 00:00:00 | |
| DF1GD-15 | 2026-09-03 06:21:49 | 49.23675 | 8.40877 | 259° | 4km/h | 28082m | 4.2m/s | -46.5°C | 0.4% | 16.8hPa | 2.6V | 03:26:00 | 00:00:00 | 00:00:00 | |
| DL1XH1-15 | 2026-09-03 06:21:47 | 49.23651 | 8.40894 | 315° | 16km/h | 28037m | 4.2m/s | -46.5°C | 2.5% | 16.9hPa | 2.6V | 03:25:54 | 01:51:49 | 00:00:00 | |
| DK7TD | 2026-09-03 06:21:47 | 49.23670 | 8.40880 | 353° | 15km/h | 28064m | 5.7m/s | -46.7°C | 0% | 16.9hPa | 2.6V | 03:26:22 | 01:51:54 | 00:00:00 | |
| SFWM-10 | 2026-09-03 06:21:46 | 49.23666 | 8.40881 | 349° | 18km/h | 28059m | 5.4m/s | -46.6°C | 0.4% | 16.8hPa | 2.6V | 00:00:00 | 00:00:00 | 00:00:00 | |
| DN1GJH-1 | 2026-09-03 06:21:45 | 49.23666 | 8.40881 | 349° | 18km/h | 28059m | 5.4m/s | -46.6°C | 0.4% | 16.8hPa | 2.6V | 03:26:00 | 00:00:00 | 00:00:00 | |
| DL1XH-15 | 2026-09-03 06:21:43 | 49.23637 | 8.40907 | 339° | 13km/h | 28016m | 4.7m/s | -46.7°C | 0% | 0hPa | 2.6V | 03:25:58 | 01:51:45 | 00:00:00 | |
| DL1XH-west | 2026-09-03 06:21:42 | 49.23651 | 8.40894 | 315° | 16km/h | 28037m | 4.2m/s | -46.5°C | 0% | 16.9hPa | 2.6V | 03:26:22 | 01:51:49 | 00:00:00 | |
| DM0DOS-11 | 2026-09-03 06:21:41 | 49.23633 | 8.40910 | 312° | 5km/h | 28005m | 6.7m/s | -46.8°C | 2.6% | 17hPa | 2.7V | 03:26:00 | 01:51:43 | 00:00:00 | |
| DK5PH-5 | 2026-09-03 06:21:41 | 49.23647 | 8.40899 | 321° | 7km/h | 28032m | 5.3m/s | -46.4°C | 2.5% | 16.8hPa | 2.6V | 00:00:00 | 01:51:48 | 00:00:00 | |
| IW2NTF | 2026-09-03 06:21:40 | 49.23632 | 8.40912 | 263° | 5km/h | 27999m | 5.8m/s | -46.7°C | 2.6% | 17hPa | 2.7V | 03:26:01 | 01:51:42 | 00:00:00 | |
| BIOWL1-15 | 2026-09-03 06:21:40 | 49.23644 | 8.40902 | 330° | 16km/h | 28026m | 6.1m/s | -46.5°C | 0% | 16.9hPa | 2.7V | 03:26:22 | 01:51:47 | 00:00:00 | |
| NBG1-10 | 2026-09-03 06:21:40 | 49.23644 | 8.40902 | 330° | 7km/h | 28027m | 6.0m/s | -46.5°C | 2.5% | 16.9hPa | 2.6V | 00:00:00 | 01:51:47 | 00:00:00 | |
| DB0UT-7 | 2026-09-03 06:21:38 | 49.23637 | 8.40907 | 340° | 5km/h | 28016m | 4.6m/s | -46.7°C | 2.6% | 16.9hPa | 2.6V | 03:25:00 | 01:51:45 | 00:00:00 | |
| DL1XH1-15 | 2026-09-03 06:21:37 | 49.23633 | 8.40917 | 317° | 4km/h | 27982m | 6.5m/s | -46.7°C | 2.6% | 17hPa | 2.7V | 03:26:04 | 01:51:39 | 00:00:00 | |
| DK7TD | 2026-09-03 06:21:36 | 49.23633 | 8.40910 | 312° | 5km/h | 28005m | 6.7m/s | -46.8°C | 0% | 17hPa | 2.7V | 03:26:22 | 01:51:43 | 00:00:00 | |
| BIOWL1-15 | 2026-09-03 06:21:32 | 49.23630 | 8.40917 | 4° | 9km/h | 27971m | 4.9m/s | -46.7°C | 0% | 17.1hPa | 2.6V | 03:26:22 | 01:51:37 | 00:00:00 | |
| DL1XH-west | 2026-09-03 06:21:32 | 49.23633 | 8.40917 | 318° | 4km/h | 27982m | 6.5m/s | -46.7°C | 0% | 17.1hPa | 2.7V | 03:26:22 | 01:51:39 | 00:00:00 | |
| DL8DAS-14 | 2026-09-03 06:21:31 | 49.23632 | 8.40917 | 358° | 5km/h | 27977m | 5.8m/s | -46.7°C | 0.4% | 17.0hPa | 2.6V | 00:00:00 | 00:00:00 | 00:00:00 | |
| IW2NTF | 2026-09-03 06:21:30 | 49.23624 | 8.40922 | 233° | 5km/h | 27945m | 4.6m/s | -46.8°C | 2.6% | 17.1hPa | 2.6V | 03:26:11 | 01:51:32 | 00:00:00 | |
| DJ2KF-10 | 2026-09-03 06:21:30 | 49.23630 | 8.40917 | 4° | 7km/h | 27971m | 4.8m/s | -46.7°C | 2.6% | 17.0hPa | 2.7V | 00:00:00 | 01:51:37 | 00:00:00 | |
| SSTOLZ84 | 2026-09-03 06:21:28 | 49.23626 | 8.40917 | 344° | 7km/h | 27962m | 5.3m/s | -46.9°C | -1.0% | 17.1hPa | 2.7V | 00:00:00 | 00:00:00 | 00:00:00 | |
| DL1XH1-15 | 2026-09-03 06:21:27 | 49.23625 | 8.40923 | 21° | 5km/h | 27929m | 6m/s | -47°C | 2.6% | 17.1hPa | 2.7V | 03:26:14 | 01:51:29 | 00:00:00 | |
| DL1XH-west | 2026-09-03 06:21:22 | 49.23625 | 8.40923 | 22° | 5km/h | 27929m | 6.1m/s | -47°C | 0% | 17.2hPa | 2.7V | 03:26:22 | 01:51:29 | 00:00:00 | |
| BIOWL1-15 | 2026-09-03 06:21:19 | 49.23618 | 8.40922 | 343° | 9km/h | 27915m | 4.8m/s | -47.1°C | 0% | 17.2hPa | 2.6V | 03:26:22 | 01:51:26 | 00:00:00 | |
| DL1XH1-15 | 2026-09-03 06:21:17 | 49.23618 | 8.40938 | 94° | 4km/h | 27876m | 5.6m/s | -47°C | 2.6% | 17.3hPa | 2.6V | 03:26:24 | 01:51:19 | 00:00:00 | |
| DK7TD | 2026-09-03 06:21:12 | 49.23618 | 8.40938 | 94° | 4km/h | 27877m | 5.6m/s | -47°C | 0% | 17.3hPa | 2.6V | 03:27:13 | 01:51:19 | 00:00:00 | |
| DM0DOS-11 | 2026-09-03 06:21:11 | 49.23619 | 8.40942 | 241° | 11km/h | 27843m | 4.7m/s | -47°C | 2.6% | 17.4hPa | 2.6V | 03:26:30 | 01:51:13 | 00:00:00 | |
| DL1XH-west | 2026-09-03 06:21:11 | 49.23618 | 8.40937 | 71° | 5km/h | 27871m | 5.2m/s | -47°C | 0% | 17.4hPa | 2.6V | 03:27:13 | 01:51:18 | 00:00:00 | |
| BIOWL1-15 | 2026-09-03 06:21:09 | 49.23617 | 8.40935 | 346° | 2km/h | 27860m | 6.2m/s | -47°C | 0% | 17.4hPa | 2.7V | 03:27:13 | 01:51:16 | 00:00:00 | |
| DB0UT-7 | 2026-09-03 06:21:08 | 49.23617 | 8.40936 | 261° | 9km/h | 27854m | 6.3m/s | -46.9°C | 2.6% | 17.3hPa | 2.7V | 00:00:00 | 00:00:00 | 00:00:00 | |
| DL1XH1-15 | 2026-09-03 06:21:07 | 49.23625 | 8.40950 | 205° | 9km/h | 27821m | 4.7m/s | -47.2°C | 2.6% | 17.5hPa | 2.7V | 03:26:34 | 01:51:09 | 00:00:00 | |
| DO3MHA-11 | 2026-09-03 06:21:06 | 49.23619 | 8.40942 | 242° | 9km/h | 27844m | 4.6m/s | -47.0°C | 2.6% | 17.3hPa | 2.7V | 00:00:00 | 01:51:13 | 00:00:00 | |
| DF3TZ-5 | 2026-09-03 06:21:05 | 49.23620 | 8.40945 | 232° | 9km/h | 27838m | 6.4m/s | -47.1°C | 0.4% | 17.4hPa | 2.7V | 00:00:00 | 00:00:00 | 00:00:00 | |
| DL0LBS | 2026-09-03 06:21:04 | 49.23620 | 8.40945 | 233° | 9km/h | 27838m | 6.4m/s | -47.1°C | 0.4% | 17.4hPa | 2.7V | 03:27:00 | 00:00:00 | 00:00:00 | |
| DN1GJH-1 | 2026-09-03 06:21:03 | 49.23621 | 8.40947 | 219° | 7km/h | 27832m | 6.3m/s | -47.2°C | 0.4% | 17.4hPa | 2.7V | 03:27:00 | 00:00:00 | 00:00:00 | |
| DD1CC8 | 2026-09-03 06:21:02 | 49.23625 | 8.40950 | 205° | 7km/h | 27821m | 4.7m/s | -47.2°C | 0.4% | 17.5hPa | 2.7V | 00:00:00 | 00:00:00 | 00:00:00 | |
| DM0DOS-11 | 2026-09-03 06:21:01 | 49.23627 | 8.40961 | 12° | 9km/h | 27786m | 6.4m/s | -47.6°C | 2.7% | 17.5hPa | 2.7V | 03:26:40 | 01:51:03 | 00:00:00 | |
| DK7TD | 2026-09-03 06:21:01 | 49.23627 | 8.40952 | 216° | 9km/h | 27815m | 6.1m/s | -47.4°C | 0% | 17.5hPa | 2.6V | 03:27:13 | 01:51:08 | 00:00:00 | |
| BIOWL1-15 | 2026-09-03 06:21:01 | 49.23630 | 8.40957 | 255° | 7km/h | 27804m | 4.9m/s | -47.3°C | 0% | 17.5hPa | 2.6V | 03:27:13 | 01:51:06 | 00:00:00 | |
| DL1XH-west | 2026-09-03 06:21:00 | 49.23629 | 8.40954 | 232° | 9km/h | 27809m | 6.1m/s | -47.4°C | 0% | 17.5hPa | 2.6V | 03:27:13 | 01:51:07 | 00:00:00 | |
| SSTOLZ84 | 2026-09-03 06:20:57 | 49.23629 | 8.40961 | 342° | 5km/h | 27793m | 6.4m/s | -47.5°C | -1.0% | -1.0hPa | 2.6V | 00:00:00 | 00:00:00 | 00:00:00 | |
| DL1XH1-15 | 2026-09-03 06:20:57 | 49.23616 | 8.40960 | 306° | 9km/h | 27765m | 6.4m/s | -47.7°C | 2.8% | 17.6hPa | 2.7V | 03:26:44 | 01:50:59 | 00:00:00 | |
| DL3AQ-11 | 2026-09-03 06:20:56 | 49.23624 | 8.40960 | 18° | 11km/h | 27781m | 5.0m/s | -47.6°C | 0.4% | 17.6hPa | 2.6V | 00:00:00 | 00:00:00 | 00:00:00 | |
| DO1YAY-16 | 2026-09-03 06:20:54 | 49.23621 | 8.40959 | 12° | 11km/h | 27776m | 4.6m/s | -47.7°C | 0.4% | 17.6hPa | 2.6V | 00:00:00 | 00:00:00 | 00:00:00 | |
| DL4BBY-15 | 2026-09-03 06:20:52 | 49.23616 | 8.40960 | 307° | 11km/h | 27765m | 6.4m/s | -48.5°C | 0% | 0hPa | 2.6V | 00:00:00 | 00:00:00 | 00:00:00 | |
| DM0DOS-11 | 2026-09-03 06:20:51 | 49.23623 | 8.40988 | 228° | 9km/h | 27731m | 5m/s | -47.7°C | 2.6% | 17.7hPa | 2.6V | 03:26:50 | 01:50:53 | 00:00:00 | |
| IW2NTF | 2026-09-03 06:20:50 | 49.23625 | 8.40991 | 234° | 7km/h | 27725m | 5.5m/s | -47.7°C | 2.7% | 17.7hPa | 2.7V | 03:26:51 | 01:50:52 | 00:00:00 | |
| DK7TD | 2026-09-03 06:20:50 | 49.23616 | 8.40969 | 255° | 16km/h | 27753m | 5.2m/s | -47.7°C | 0% | 17.6hPa | 2.6V | 03:27:13 | 01:50:57 | 00:00:00 | |
| BIOWL1-15 | 2026-09-03 06:20:50 | 49.23620 | 8.40981 | 238° | 16km/h | 27742m | 6.5m/s | -47.7°C | 0% | 17.7hPa | 2.7V | 03:27:13 | 01:50:55 | 00:00:00 | |
| DL1XH-west | 2026-09-03 06:20:49 | 49.23618 | 8.40975 | 246° | 16km/h | 27748m | 5.4m/s | -47.7°C | 0% | 17.6hPa | 2.7V | 03:27:13 | 01:50:56 | 00:00:00 | |
| DL3AQ-11 | 2026-09-03 06:20:45 | 49.23625 | 8.40991 | 234° | 7km/h | 27726m | 5.5m/s | -47.7°C | 0.4% | 17.7hPa | 2.7V | 00:00:00 | 00:00:00 | 00:00:00 | |
| DL8DAS-15 | 2026-09-03 06:20:44 | 49.23625 | 8.40991 | 236° | 7km/h | 27726m | 5.5m/s | -47.7°C | 0.5% | 17.7hPa | 2.7V | 00:00:00 | 00:00:00 | 00:00:00 | |
| DN1GJH-1 | 2026-09-03 06:20:42 | 49.23626 | 8.40996 | 260° | 5km/h | 27714m | 5.9m/s | -47.6°C | 0.5% | 17.8hPa | 2.7V | 03:27:00 | 00:00:00 | 00:00:00 | |
| DM0DOS-11 | 2026-09-03 06:20:41 | 49.23628 | 8.40983 | 157° | 7km/h | 27676m | 5.3m/s | -47.7°C | 2.7% | 17.8hPa | 2.7V | 03:27:00 | 01:50:43 | 00:00:00 | |
| DK5PH-5 | 2026-09-03 06:20:41 | 49.23626 | 8.40998 | 55° | 13km/h | 27704m | 4.5m/s | -47.6°C | 2.8% | 17.7hPa | 2.7V | 00:00:00 | 01:50:48 | 00:00:00 | |
| IW2NTF | 2026-09-03 06:20:40 | 49.23631 | 8.40983 | 199° | 11km/h | 27670m | 6.8m/s | -47.8°C | 2.7% | 17.9hPa | 2.7V | 03:27:01 | 01:50:42 | 00:00:00 | |
| DK7TD | 2026-09-03 06:20:40 | 49.23626 | 8.40997 | 84° | 5km/h | 27699m | 5.6m/s | -47.7°C | 0% | 17.8hPa | 2.7V | 03:27:13 | 01:50:47 | 00:00:00 | |
| BIOWL1-15 | 2026-09-03 06:20:38 | 49.23626 | 8.40990 | 98° | 13km/h | 27686m | 5.4m/s | -47.6°C | 0% | 17.8hPa | 2.6V | 03:27:13 | 01:50:45 | 00:00:00 | |
| DB0UT-7 | 2026-09-03 06:20:38 | 49.23626 | 8.40990 | 99° | 15km/h | 27687m | 5.4m/s | -47.6°C | 2.8% | 17.8hPa | 2.6V | 00:00:00 | 01:50:45 | 00:00:00 | |
| DO3MHA-11 | 2026-09-03 06:20:36 | 49.23628 | 8.40983 | 158° | 16km/h | 27677m | 5.2m/s | -47.6°C | 2.7% | 17.8hPa | 2.6V | 03:27:00 | 01:50:43 | 00:00:00 | |
| DB0UT-9 | 2026-09-03 06:20:35 | 49.23628 | 8.40983 | 158° | 7km/h | 27677m | 5.3m/s | -47.7°C | 0.5% | 17.8hPa | 2.6V | 03:27:00 | 00:00:00 | 00:00:00 | |
| DJ2DS-15 | 2026-09-03 06:20:34 | 49.23634 | 8.40986 | 216° | 15km/h | 27664m | 6.2m/s | -47.8°C | 2.7% | 17.8hPa | 2.6V | 03:27:00 | 01:50:41 | 00:00:00 | |
| DM7RM-13 | 2026-09-03 06:20:33 | 49.23634 | 8.40986 | 217° | 18km/h | 27664m | 6.2m/s | -47.9°C | 0.5% | 17.9hPa | 2.6V | 03:27:00 | 00:00:00 | 00:00:00 | |
| DM0DOS-11 | 2026-09-03 06:20:31 | 49.23660 | 8.41001 | 47° | 5km/h | 27621m | 6.6m/s | -48.1°C | 2.7% | 18hPa | 2.6V | 03:27:10 | 01:50:33 | 00:00:00 | |
| OE5DXL-15 | 2026-09-03 06:20:31 | 49.23648 | 8.41002 | 210° | 13km/h | 27649m | 5.4m/s | -47.8°C | 2.7% | 17.9hPa | 2.7V | 03:27:00 | 00:00:00 | 00:00:00 | |
| IW2NTF | 2026-09-03 06:20:30 | 49.23658 | 8.41000 | 2° | 7km/h | 27615m | 6m/s | -48.2°C | 2.8% | 18hPa | 2.7V | 03:27:11 | 01:50:32 | 00:00:00 | |
| DK7TD | 2026-09-03 06:20:29 | 49.23656 | 8.41006 | 176° | 13km/h | 27638m | 5.1m/s | -47.8°C | 0% | 18hPa | 2.7V | 03:27:13 | 01:50:36 | 00:00:00 | |
| DL1XH-west | 2026-09-03 06:20:28 | 49.23659 | 8.41005 | 143° | 7km/h | 27633m | 5.1m/s | -47.9°C | 0% | 17.9hPa | 2.6V | 03:27:13 | 01:50:35 | 00:00:00 | |
| BIOWL1-15 | 2026-09-03 06:20:27 | 49.23660 | 8.41003 | 99° | 5km/h | 27627m | 5.6m/s | -47.9°C | 0% | 18hPa | 2.6V | 03:27:13 | 01:50:34 | 00:00:00 | |
| DO3MHA-11 | 2026-09-03 06:20:26 | 49.23659 | 8.41001 | 48° | 11km/h | 27622m | 6.5m/s | -48.0°C | 2.7% | 17.9hPa | 2.6V | 00:00:00 | 01:50:33 | 00:00:00 | |
| DL0LBS | 2026-09-03 06:20:24 | 49.23656 | 8.41001 | 341° | 11km/h | 27610m | 4.7m/s | -48.2°C | 0.5% | 18.0hPa | 2.6V | 03:27:00 | 00:00:00 | 00:00:00 | |
| DO1YAY-16 | 2026-09-03 06:20:23 | 49.23650 | 8.41005 | 326° | 11km/h | 27600m | 5.7m/s | -48.1°C | 0.5% | 18.1hPa | 2.6V | 00:00:00 | 00:00:00 | 00:00:00 | |
| NBG1-10 | 2026-09-03 06:20:22 | 49.23650 | 8.41005 | 327° | 11km/h | 27600m | 5.6m/s | -48.1°C | 2.8% | 18.0hPa | 2.6V | 00:00:00 | 01:50:29 | 00:00:00 | |
| DM0DOS-11 | 2026-09-03 06:20:21 | 49.23655 | 8.41028 | 220° | 22km/h | 27565m | 5.2m/s | -48.2°C | 2.8% | 18.1hPa | 2.6V | 03:27:20 | 01:50:23 | 00:00:00 | |
| OE5DRO-10 | 2026-09-03 06:20:21 | 49.23648 | 8.41008 | 318° | 11km/h | 27594m | 5.8m/s | 0°C | 0% | 0hPa | 2.6V | 00:00:00 | 00:00:00 | 00:00:00 | |
| IW2NTF | 2026-09-03 06:20:20 | 49.23659 | 8.41032 | 205° | 20km/h | 27560m | 4.1m/s | -48.2°C | 2.8% | 18.2hPa | 2.6V | 03:27:21 | 01:50:22 | 00:00:00 | |
| DK7TD | 2026-09-03 06:20:18 | 49.23648 | 8.41017 | 239° | 15km/h | 27577m | 5.9m/s | -48.2°C | 0% | 18.2hPa | 2.7V | 03:28:04 | 01:50:25 | 00:00:00 | |
| DL1XH-west | 2026-09-03 06:20:17 | 49.23651 | 8.41022 | 230° | 18km/h | 27571m | 6.7m/s | -48.3°C | 0% | 18.1hPa | 2.7V | 03:28:04 | 01:50:24 | 00:00:00 | |
| BIOWL1-15 | 2026-09-03 06:20:16 | 49.23655 | 8.41028 | 220° | 22km/h | 27565m | 5.2m/s | -48.2°C | 0% | 18.1hPa | 2.6V | 03:28:04 | 01:50:23 | 00:00:00 | |
| DO3MHA-11 | 2026-09-03 06:20:16 | 49.23655 | 8.41028 | 221° | 16km/h | 27566m | 5.1m/s | -48.2°C | 2.8% | 18.1hPa | 2.6V | 00:00:00 | 01:50:23 | 00:00:00 | |
| DJ2DS-15 | 2026-09-03 06:20:14 | 49.23668 | 8.41034 | 161° | 16km/h | 27550m | 6.8m/s | -48.3°C | 0.4% | 18.2hPa | 2.7V | 00:00:00 | 00:00:00 | 00:00:00 | |
| DO2KSM | 2026-09-03 06:20:12 | 49.23668 | 8.41034 | 162° | 18km/h | 27550m | 6.8m/s | -48.3°C | 0.4% | 18.2hPa | 2.7V | 03:28:00 | 00:00:00 | 00:00:00 | |
| DM0DOS-11 | 2026-09-03 06:20:11 | 49.23671 | 8.41012 | 297° | 9km/h | 27511m | 4.6m/s | -48.3°C | 2.9% | 18.3hPa | 2.7V | 03:27:30 | 01:50:13 | 00:00:00 | |
| DK5PH-5 | 2026-09-03 06:20:11 | 49.23674 | 8.41024 | 111° | 9km/h | 27538m | 4.8m/s | -48.4°C | 2.8% | 18.2hPa | 2.7V | 00:00:00 | 01:50:18 | 00:00:00 | |
| IW2NTF | 2026-09-03 06:20:10 | 49.23670 | 8.41015 | 274° | 9km/h | 27506m | 5m/s | -48.4°C | 2.9% | 18.3hPa | 2.7V | 03:27:31 | 01:50:12 | 00:00:00 | |
| DK7TD | 2026-09-03 06:20:08 | 49.23674 | 8.41010 | 34° | 7km/h | 27522m | 5.9m/s | -48.3°C | 0% | 18.3hPa | 2.6V | 03:28:04 | 01:50:15 | 00:00:00 | |
| DL1XH-west | 2026-09-03 06:20:07 | 49.23672 | 8.41010 | 331° | 7km/h | 27516m | 5.2m/s | -48.3°C | 0% | 18.3hPa | 2.7V | 03:28:04 | 01:50:14 | 00:00:00 | |
| BIOWL1-15 | 2026-09-03 06:20:05 | 49.23670 | 8.41015 | 274° | 9km/h | 27507m | 5m/s | -48.4°C | 0% | 18.3hPa | 2.7V | 03:28:04 | 01:50:12 | 00:00:00 | |
| DB0NH | 2026-09-03 06:20:05 | 49.23670 | 8.41015 | 275° | 9km/h | 27507m | 5.0m/s | -48.3°C | 2.9% | 18.3hPa | 2.6V | 00:00:00 | 01:50:12 | 00:00:00 | |
| DL6DJ-15 | 2026-09-03 06:20:03 | 49.23675 | 8.41021 | 182° | 11km/h | 27489m | 5.4m/s | -48.4°C | 0.4% | 18.4hPa | 2.6V | 00:00:00 | 00:00:00 | 00:00:00 | |
| DL9PN | 2026-09-03 06:20:02 | 49.23685 | 8.41020 | 179° | 11km/h | 27474m | 6.0m/s | 0°C | -1.0% | -1.0hPa | 2.6V | 00:00:00 | 00:00:00 | 00:00:00 | |
| IW2NTF | 2026-09-03 06:20:01 | 49.23686 | 8.41025 | 341° | 9km/h | 27451m | 5.9m/s | -48.5°C | 2.8% | 18.5hPa | 2.6V | 03:27:41 | 01:50:02 | 00:00:00 | |
| SONCRA | 2026-09-03 06:20:01 | 49.23681 | 8.41020 | 172° | 13km/h | 27479m | 4.7m/s | 0°C | -1.0% | -1.0hPa | 2.6V | 00:00:00 | 00:00:00 | 00:00:00 | |
| DJ2KF-10 | 2026-09-03 06:20:00 | 49.23681 | 8.41020 | 173° | 9km/h | 27480m | 4.7m/s | -48.4°C | 2.8% | 18.3hPa | 2.6V | 00:00:00 | 01:50:07 | 00:00:00 | |
| OE5DRO-10 | 2026-09-03 06:19:58 | 49.23687 | 8.41021 | 203° | 9km/h | 27468m | 6.0m/s | 0°C | 0% | 0hPa | 2.6V | 00:00:00 | 00:00:00 | 00:00:00 | |
| DL1XH1-15 | 2026-09-03 06:19:57 | 49.23679 | 8.41024 | 11° | 9km/h | 27435m | 4.2m/s | -48.6°C | 2.9% | 18.5hPa | 2.6V | 03:27:44 | 01:49:59 | 00:00:00 | |
| DL1XH-west | 2026-09-03 06:19:57 | 49.23688 | 8.41022 | 254° | 5km/h | 27462m | 5.4m/s | -48.6°C | 0% | 18.5hPa | 2.7V | 03:28:04 | 01:50:04 | 00:00:00 | |
| BIOWL1-15 | 2026-09-03 06:19:55 | 49.23686 | 8.41025 | 342° | 9km/h | 27451m | 5.9m/s | -48.5°C | 0% | 18.5hPa | 2.6V | 03:28:04 | 01:50:02 | 00:00:00 | |
| DK7TD | 2026-09-03 06:19:54 | 49.23684 | 8.41026 | 2° | 11km/h | 27445m | 6m/s | -48.5°C | 0% | 18.5hPa | 2.7V | 03:28:04 | 01:50:01 | 00:00:00 | |
| DO1YAY-16 | 2026-09-03 06:19:52 | 49.23677 | 8.41024 | 341° | 4km/h | 27430m | 4.6m/s | -48.7°C | 0.5% | 18.6hPa | 2.7V | 00:00:00 | 00:00:00 | 00:00:00 | |
| SFWM-10 | 2026-09-03 06:19:51 | 49.23679 | 8.41024 | 13° | 9km/h | 27435m | 4.2m/s | -48.6°C | 0.5% | 18.5hPa | 2.7V | 00:00:00 | 00:00:00 | 00:00:00 | |
| IW2NTF | 2026-09-03 06:19:50 | 49.23681 | 8.41049 | 236° | 7km/h | 27397m | 6.2m/s | -48.4°C | 2.8% | 18.6hPa | 2.7V | 03:27:51 | 01:49:52 | 00:00:00 | |
| DB0ND-19 | 2026-09-03 06:19:50 | 49.23676 | 8.41026 | 284° | 5km/h | 27425m | 5.9m/s | -48.7°C | 0.4% | 18.6hPa | 2.6V | 00:00:00 | 00:00:00 | 00:00:00 | |
| NBG1-10 | 2026-09-03 06:19:49 | 49.23676 | 8.41030 | 262° | 15km/h | 27419m | 6.8m/s | -48.6°C | 2.9% | 18.5hPa | 2.6V | 03:27:00 | 01:49:56 | 00:00:00 | |
| DL1XH1-15 | 2026-09-03 06:19:48 | 49.23680 | 8.41049 | 28° | 7km/h | 27380m | 5.4m/s | -48.4°C | 2.7% | 18.7hPa | 2.6V | 03:27:54 | 01:49:49 | 00:00:00 | |
| BIOWL1-15 | 2026-09-03 06:19:47 | 49.23681 | 8.41049 | 237° | 7km/h | 27397m | 6.2m/s | -48.4°C | 0% | 18.6hPa | 2.7V | 03:28:04 | 01:49:52 | 00:00:00 | |
| DL1XH-west | 2026-09-03 06:19:47 | 49.23678 | 8.41041 | 246° | 16km/h | 27407m | 4.6m/s | -48.4°C | 0% | 18.6hPa | 2.6V | 03:28:04 | 01:49:54 | 00:00:00 | |
| DO3MHA-11 | 2026-09-03 06:19:46 | 49.23680 | 8.41046 | 241° | 9km/h | 27403m | 5.0m/s | -48.3°C | 2.8% | 18.6hPa | 2.7V | 00:00:00 | 01:49:53 | 00:00:00 | |
| DL0LBS | 2026-09-03 06:19:42 | 49.23682 | 8.41050 | 44° | 4km/h | 27386m | 5.2m/s | -48.4°C | 0.5% | 18.7hPa | 2.6V | 03:28:00 | 00:00:00 | 00:00:00 | |
| DM0DOS-11 | 2026-09-03 06:19:41 | 49.23669 | 8.41058 | 297° | 5km/h | 27348m | 6m/s | -48.5°C | 2.9% | 18.8hPa | 2.6V | 03:28:00 | 01:49:43 | 00:00:00 | |
| DK7TD | 2026-09-03 06:19:41 | 49.23678 | 8.41048 | 7° | 9km/h | 27375m | 5.9m/s | -48.4°C | 0% | 18.7hPa | 2.6V | 03:28:04 | 01:49:48 | 00:00:00 | |
| DK5PH-5 | 2026-09-03 06:19:41 | 49.23678 | 8.41048 | 7° | 15km/h | 27375m | 5.8m/s | -48.3°C | 2.8% | 18.6hPa | 2.6V | 00:00:00 | 01:49:48 | 00:00:00 | |
| IW2NTF | 2026-09-03 06:19:40 | 49.23669 | 8.41060 | 286° | 5km/h | 27342m | 5m/s | -48.5°C | 2.9% | 18.8hPa | 2.6V | 03:28:01 | 01:49:42 | 00:00:00 | |
| DB0UT-7 | 2026-09-03 06:19:38 | 49.23671 | 8.41053 | 313° | 15km/h | 27359m | 4.5m/s | -48.4°C | 2.8% | 18.7hPa | 2.7V | 03:27:00 | 01:49:45 | 00:00:00 | |
| DL1XH1-15 | 2026-09-03 06:19:37 | 49.23667 | 8.41070 | 283° | 15km/h | 27327m | 6.6m/s | -48.4°C | 2.8% | 18.8hPa | 2.7V | 03:28:04 | 01:49:39 | 00:00:00 | |
| DL1XH-west | 2026-09-03 06:19:36 | 49.23669 | 8.41058 | 298° | 5km/h | 27348m | 6m/s | -48.5°C | 0% | 18.8hPa | 2.6V | 03:28:04 | 01:49:43 | 00:00:00 | |
| BIOWL1-15 | 2026-09-03 06:19:36 | 49.23668 | 8.41062 | 279° | 7km/h | 27338m | 4.5m/s | -48.4°C | 0% | 18.8hPa | 2.7V | 03:28:04 | 01:49:41 | 00:00:00 | |
| DO3MHA-11 | 2026-09-03 06:19:36 | 49.23669 | 8.41058 | 298° | 11km/h | 27348m | 5.9m/s | -48.4°C | 2.9% | 18.7hPa | 2.6V | 00:00:00 | 01:49:43 | 00:00:00 | |
| DB0NH | 2026-09-03 06:19:35 | 49.23668 | 8.41060 | 287° | 18km/h | 27343m | 5.0m/s | -48.4°C | 2.9% | 18.8hPa | 2.6V | 00:00:00 | 01:49:42 | 00:00:00 | |
| DJ2DS-15 | 2026-09-03 06:19:34 | 49.23668 | 8.41062 | 279° | 15km/h | 27338m | 4.4m/s | -48.4°C | 2.9% | 18.8hPa | 2.7V | 00:00:00 | 01:49:41 | 00:00:00 | |
| DL6DJ-15 | 2026-09-03 06:19:32 | 49.23666 | 8.41076 | 285° | 16km/h | 27321m | 6.1m/s | -48.5°C | 0.4% | 18.9hPa | 2.7V | 00:00:00 | 00:00:00 | 00:00:00 | |
| DM0DOS-11 | 2026-09-03 06:19:31 | 49.23662 | 8.41100 | 259° | 5km/h | 27293m | 5m/s | -48.6°C | 2.9% | 18.9hPa | 2.7V | 03:28:10 | 01:49:33 | 00:00:00 | |
| DK7TD | 2026-09-03 06:19:31 | 49.23666 | 8.41076 | 286° | 18km/h | 27321m | 6.1m/s | -48.5°C | 0% | 18.9hPa | 2.6V | 03:28:55 | 01:49:38 | 00:00:00 | |
| DL9PN | 2026-09-03 06:19:31 | 49.23664 | 8.41089 | 286° | 15km/h | 27310m | 4.9m/s | -48.6°C | 0.5% | 18.9hPa | 2.6V | 00:00:00 | 00:00:00 | 00:00:00 | |
| IW2NTF | 2026-09-03 06:19:30 | 49.23663 | 8.41102 | 250° | 7km/h | 27288m | 4.7m/s | -48.7°C | 2.9% | 18.9hPa | 2.6V | 03:28:11 | 01:49:32 | 00:00:00 | |
| DJ2KF-10 | 2026-09-03 06:19:30 | 49.23665 | 8.41082 | 288° | 20km/h | 27316m | 4.8m/s | -48.5°C | 2.8% | 18.8hPa | 2.6V | 00:00:00 | 01:49:37 | 00:00:00 | |
| OE5DXL-15 | 2026-09-03 06:19:29 | 49.23664 | 8.41089 | 287° | 18km/h | 27310m | 4.8m/s | -48.5°C | 2.8% | 18.8hPa | 2.7V | 00:00:00 | 00:00:00 | 00:00:00 | |
| DO2KSM | 2026-09-03 06:19:28 | 49.23664 | 8.41089 | 288° | 16km/h | 27310m | 4.9m/s | -48.6°C | 0.5% | 18.9hPa | 2.7V | 00:00:00 | 00:00:00 | 00:00:00 | |
| DL1XH1-15 | 2026-09-03 06:19:27 | 49.23663 | 8.41116 | 270° | 18km/h | 27271m | 4.6m/s | -48.8°C | 2.9% | 19hPa | 2.7V | 03:28:14 | 01:49:29 | 00:00:00 | |
| DL1XH-west | 2026-09-03 06:19:25 | 49.23663 | 8.41102 | 251° | 7km/h | 27288m | 4.7m/s | -48.7°C | 0% | 18.9hPa | 2.6V | 03:28:55 | 01:49:32 | 00:00:00 | |
| BIOWL1-15 | 2026-09-03 06:19:23 | 49.23663 | 8.41110 | 267° | 15km/h | 27277m | 5.8m/s | -48.8°C | 0% | 19hPa | 2.6V | 03:28:55 | 01:49:30 | 00:00:00 | |
| DL4BBY-15 | 2026-09-03 06:19:22 | 49.23663 | 8.41116 | 271° | 24km/h | 27272m | 4.6m/s | -49.5°C | 0% | 0hPa | 2.7V | 00:00:00 | 00:00:00 | 00:00:00 | |
| DM0DOS-11 | 2026-09-03 06:19:21 | 49.23658 | 8.41158 | 293° | 24km/h | 27241m | 5.7m/s | -49°C | 3% | 19.1hPa | 2.7V | 03:28:20 | 01:49:23 | 00:00:00 | |
| DO1YAY-16 | 2026-09-03 06:19:21 | 49.23663 | 8.41130 | 274° | 16km/h | 27262m | 5.9m/s | -48.8°C | 0.5% | 19.0hPa | 2.7V | 00:00:00 | 00:00:00 | 00:00:00 | |
| IW2NTF | 2026-09-03 06:19:20 | 49.23656 | 8.41167 | 292° | 26km/h | 27235m | 6.5m/s | -48.9°C | 3% | 19.1hPa | 2.7V | 03:28:21 | 01:49:22 | 00:00:00 | |
| DB0ND-19 | 2026-09-03 06:19:19 | 49.23663 | 8.41137 | 277° | 16km/h | 27256m | 5.6m/s | -48.9°C | 0.5% | 19.0hPa | 2.6V | 00:00:00 | 00:00:00 | 00:00:00 | |
| DL1XH1-15 | 2026-09-03 06:19:17 | 49.23650 | 8.41194 | 278° | 22km/h | 27220m | 6.1m/s | -49°C | 3% | 19.1hPa | 2.6V | 03:28:24 | 01:49:19 | 00:00:00 | |
| DK7TD | 2026-09-03 06:19:16 | 49.23658 | 8.41158 | 294° | 24km/h | 27241m | 5.7m/s | -49°C | 0% | 19.1hPa | 2.7V | 03:28:55 | 01:49:23 | 00:00:00 | |
| DL1XH-west | 2026-09-03 06:19:14 | 49.23653 | 8.41176 | 291° | 27km/h | 27230m | 4.9m/s | -48.9°C | 0% | 19.1hPa | 2.7V | 03:28:55 | 01:49:21 | 00:00:00 | |
| BIOWL1-15 | 2026-09-03 06:19:13 | 49.23651 | 8.41186 | 286° | 26km/h | 27225m | 4.2m/s | -49°C | 0% | 19.1hPa | 2.6V | 03:28:55 | 01:49:20 | 00:00:00 | |
| DK5PH-5 | 2026-09-03 06:19:11 | 49.23650 | 8.41202 | 263° | 24km/h | 27214m | 6.0m/s | -48.9°C | 3.0% | 19.1hPa | 2.6V | 03:28:00 | 01:49:18 | 00:00:00 | |
| DM0DOS-11 | 2026-09-03 06:19:10 | 49.23665 | 8.41256 | 259° | 33km/h | 27181m | 4.8m/s | -48.9°C | 2.9% | 19.2hPa | 2.6V | 03:28:31 | 01:49:12 | 00:00:00 | |
| DL3AQ-11 | 2026-09-03 06:19:10 | 49.23654 | 8.41216 | 236° | 20km/h | 27203m | 4.7m/s | -48.9°C | 0.5% | 19.2hPa | 2.7V | 00:00:00 | 00:00:00 | 00:00:00 | |
| DB0UT-7 | 2026-09-03 06:19:08 | 49.23657 | 8.41223 | 239° | 24km/h | 27198m | 5.4m/s | -48.8°C | 3.0% | 19.1hPa | 2.7V | 00:00:00 | 00:00:00 | 00:00:00 | |
| DL1XH1-15 | 2026-09-03 06:19:07 | 49.23666 | 8.41289 | 281° | 24km/h | 27165m | 4.8m/s | -48.8°C | 3% | 19.3hPa | 2.7V | 03:28:34 | 01:49:09 | 00:00:00 | |
| DK7TD | 2026-09-03 06:19:06 | 49.23663 | 8.41244 | 252° | 33km/h | 27186m | 5.1m/s | -48.9°C | 0% | 19.2hPa | 2.6V | 03:28:55 | 01:49:13 | 00:00:00 | |
| DL1XH-west | 2026-09-03 06:19:03 | 49.23666 | 8.41279 | 275° | 27km/h | 27170m | 5.8m/s | -48.8°C | 0% | 19.3hPa | 2.7V | 03:28:55 | 01:49:10 | 00:00:00 | |
| DL6DJ-15 | 2026-09-03 06:19:01 | 49.23663 | 8.41306 | 282° | 22km/h | 27156m | 4.8m/s | -48.8°C | 0.5% | 19.3hPa | 2.6V | 00:00:00 | 00:00:00 | 00:00:00 | |
| DM0DOS-11 | 2026-09-03 06:19:00 | 49.23665 | 8.41357 | 250° | 24km/h | 27130m | 6.1m/s | -48.6°C | 2.9% | 19.4hPa | 2.6V | 03:28:41 | 01:49:02 | 00:00:00 | |
| AU51GT2 | 2026-09-03 06:18:59 | 49.23661 | 8.41326 | 268° | 27km/h | 27145m | 5.3m/s | -48.6°C | 0.5% | 19.4hPa | 2.7V | 00:00:00 | 00:00:00 | 00:00:00 | |
| DD1CC8 | 2026-09-03 06:18:58 | 49.23662 | 8.41337 | 262° | 27km/h | 27140m | 4.6m/s | -48.6°C | 0.5% | 19.4hPa | 2.7V | 00:00:00 | 00:00:00 | 00:00:00 | |
| DL1XH1-15 | 2026-09-03 06:18:57 | 49.23673 | 8.41378 | 237° | 20km/h | 27113m | 4.8m/s | -48.5°C | 2.8% | 19.4hPa | 2.7V | 03:28:44 | 01:48:59 | 00:00:00 | |
| DK7TD | 2026-09-03 06:18:55 | 49.23665 | 8.41357 | 251° | 24km/h | 27130m | 6.1m/s | -48.6°C | 0% | 19.4hPa | 2.6V | 03:28:55 | 01:49:02 | 00:00:00 | |
| BIOWL1-15 | 2026-09-03 06:18:52 | 49.23673 | 8.41378 | 238° | 20km/h | 27114m | 4.8m/s | -48.5°C | 0% | 19.4hPa | 2.7V | 03:28:55 | 01:48:59 | 00:00:00 | |
| DO1YAY-16 | 2026-09-03 06:18:50 | 49.23681 | 8.41403 | 250° | 26km/h | 27097m | 4.8m/s | -48.4°C | 0.5% | 19.5hPa | 2.6V | 00:00:00 | 00:00:00 | 00:00:00 | |
| DB0ND-19 | 2026-09-03 06:18:48 | 49.23683 | 8.41413 | 254° | 24km/h | 27093m | 4.3m/s | -48.4°C | 0.5% | 19.5hPa | 2.6V | 00:00:00 | 00:00:00 | 00:00:00 | |
| DL1XH1-15 | 2026-09-03 06:18:47 | 49.23689 | 8.41454 | 251° | 20km/h | 27062m | 5.6m/s | -48.3°C | 2.9% | 19.6hPa | 2.6V | 03:28:54 | 01:48:49 | 00:00:00 | |
| DK7TD | 2026-09-03 06:18:45 | 49.23686 | 8.41435 | 263° | 15km/h | 27077m | 4.4m/s | -48.3°C | 0% | 19.6hPa | 2.7V | 03:28:55 | 01:48:52 | 00:00:00 | |
| DL1XH-west | 2026-09-03 06:18:41 | 49.23690 | 8.41462 | 251° | 24km/h | 27056m | 5.1m/s | -48.3°C | 0% | 19.6hPa | 2.6V | 03:28:55 | 01:48:48 | 00:00:00 | |
| DK5PH-5 | 2026-09-03 06:18:41 | 49.23690 | 8.41462 | 251° | 18km/h | 27057m | 5.0m/s | -48.3°C | 2.8% | 19.6hPa | 2.6V | 00:00:00 | 01:48:48 | 00:00:00 | |
| CB1BUN | 2026-09-03 06:18:40 | 49.23692 | 8.41470 | 252° | 24km/h | 27052m | 4.5m/s | -48.3°C | 0.5% | 19.7hPa | 2.7V | 03:29:00 | 00:00:00 | 00:00:00 | |
| DN1GJH-1 | 2026-09-03 06:18:39 | 49.23692 | 8.41470 | 252° | 24km/h | 27052m | 4.5m/s | -48.3°C | 0.5% | 19.7hPa | 2.7V | 03:29:00 | 00:00:00 | 00:00:00 | |
| IW2NTF | 2026-09-03 06:18:38 | 49.23704 | 8.41519 | 231° | 22km/h | 27015m | 5m/s | -48.3°C | 2.8% | 19.7hPa | 2.7V | 03:29:03 | 01:48:40 | 00:00:00 | |
| DB0UT-7 | 2026-09-03 06:18:38 | 49.23695 | 8.41487 | 258° | 16km/h | 27042m | 6.1m/s | -48.3°C | 2.9% | 19.6hPa | 2.7V | 00:00:00 | 01:48:45 | 00:00:00 | |
| DL1XH1-15 | 2026-09-03 06:18:37 | 49.23707 | 8.41525 | 228° | 20km/h | 27010m | 4.7m/s | -48.4°C | 2.8% | 19.8hPa | 2.7V | 03:29:04 | 01:48:39 | 00:00:00 | |
| DK7TD | 2026-09-03 06:18:35 | 49.23698 | 8.41506 | 247° | 18km/h | 27026m | 5.6m/s | -48.3°C | 0% | 19.7hPa | 2.6V | 03:29:46 | 01:48:42 | 00:00:00 | |
| DB0NH | 2026-09-03 06:18:35 | 49.23698 | 8.41506 | 247° | 16km/h | 27027m | 5.5m/s | -48.3°C | 2.8% | 19.7hPa | 2.7V | 03:29:00 | 01:48:42 | 00:00:00 | |
| DJ2DS-15 | 2026-09-03 06:18:34 | 49.23701 | 8.41512 | 237° | 18km/h | 27021m | 5.8m/s | -48.3°C | 2.9% | 19.7hPa | 2.7V | 00:00:00 | 01:48:41 | 00:00:00 | |
| DB0UT-9 | 2026-09-03 06:18:31 | 49.23707 | 8.41525 | 230° | 20km/h | 27010m | 4.7m/s | -48.4°C | 0.5% | 19.8hPa | 2.6V | 03:29:00 | 00:00:00 | 00:00:00 | |
| DM0DOS-11 | 2026-09-03 06:18:30 | 49.23727 | 8.41557 | 223° | 22km/h | 26973m | 4.9m/s | -48.3°C | 2.8% | 19.9hPa | 2.6V | 03:29:11 | 01:48:32 | 00:00:00 | |
| DL1XH-west | 2026-09-03 06:18:30 | 49.23713 | 8.41535 | 230° | 15km/h | 26999m | 6.1m/s | -48.4°C | 0% | 19.8hPa | 2.6V | 03:29:46 | 01:48:37 | 00:00:00 | |
| DJ2KF-10 | 2026-09-03 06:18:30 | 49.23713 | 8.41535 | 230° | 15km/h | 26999m | 6.0m/s | -48.3°C | 2.8% | 19.8hPa | 2.7V | 03:29:00 | 01:48:37 | 00:00:00 | |
| BIOWL7-15 | 2026-09-03 06:18:29 | 49.23713 | 8.41535 | 231° | 15km/h | 26999m | 6.1m/s | -48.4°C | 0.5% | 19.8hPa | 2.7V | 00:00:00 | 00:00:00 | 00:00:00 | |
| AU51GT2 | 2026-09-03 06:18:28 | 49.23720 | 8.41547 | 223° | 15km/h | 26984m | 5.4m/s | -48.4°C | 0.5% | 19.9hPa | 2.7V | 00:00:00 | 00:00:00 | 00:00:00 | |
| DL1XH1-15 | 2026-09-03 06:18:27 | 49.23737 | 8.41575 | 240° | 18km/h | 26957m | 6m/s | -48.5°C | 2.9% | 19.9hPa | 2.7V | 03:29:14 | 01:48:29 | 00:00:00 | |
| DK7TD | 2026-09-03 06:18:23 | 49.23734 | 8.41569 | 232° | 20km/h | 26963m | 5.7m/s | -48.4°C | 0% | 19.9hPa | 2.6V | 03:29:46 | 01:48:30 | 00:00:00 | |
| DL4BBY-15 | 2026-09-03 06:18:22 | 49.23737 | 8.41575 | 241° | 13km/h | 26957m | 5.9m/s | -49.3°C | 0% | 0hPa | 2.7V | 00:00:00 | 00:00:00 | 00:00:00 | |
| DM0DOS-11 | 2026-09-03 06:18:20 | 49.23760 | 8.41605 | 202° | 15km/h | 26920m | 6m/s | -48.6°C | 2.9% | 20hPa | 2.7V | 03:29:21 | 01:48:22 | 00:00:00 | |
| DL1XH-west | 2026-09-03 06:18:20 | 49.23741 | 8.41586 | 237° | 16km/h | 26947m | 4.6m/s | -48.5°C | 0% | 19.9hPa | 2.7V | 03:29:46 | 01:48:27 | 00:00:00 | |
| BIOWL1-15 | 2026-09-03 06:18:19 | 49.23744 | 8.41591 | 227° | 18km/h | 26942m | 5.9m/s | -48.5°C | 0% | 20hPa | 2.6V | 03:29:46 | 01:48:26 | 00:00:00 | |
| DO1YAY-16 | 2026-09-03 06:18:19 | 49.23747 | 8.41596 | 215° | 18km/h | 26936m | 5.7m/s | -48.5°C | 0.5% | 20.0hPa | 2.6V | 00:00:00 | 00:00:00 | 00:00:00 | |
| DL1XH1-15 | 2026-09-03 06:18:17 | 49.23767 | 8.41610 | 201° | 9km/h | 26903m | 5m/s | -48.6°C | 2.9% | 20.1hPa | 2.6V | 03:29:24 | 01:48:19 | 00:00:00 | |
| DK7TD | 2026-09-03 06:18:13 | 49.23765 | 8.41609 | 202° | 7km/h | 26908m | 5.1m/s | -48.6°C | 0% | 20.1hPa | 2.6V | 03:29:46 | 01:48:20 | 00:00:00 | |
| DK5PH-5 | 2026-09-03 06:18:11 | 49.23769 | 8.41611 | 199° | 13km/h | 26898m | 6.1m/s | -48.6°C | 2.8% | 20.1hPa | 2.6V | 00:00:00 | 01:48:18 | 00:00:00 | |
| DM0DOS-11 | 2026-09-03 06:18:10 | 49.23785 | 8.41625 | 222° | 9km/h | 26866m | 4.3m/s | -48.5°C | 3% | 20.2hPa | 2.6V | 03:29:31 | 01:48:12 | 00:00:00 | |
| DL1XH-west | 2026-09-03 06:18:09 | 49.23775 | 8.41615 | 203° | 15km/h | 26887m | 4.4m/s | -48.5°C | 0% | 20.1hPa | 2.7V | 03:29:46 | 01:48:16 | 00:00:00 | |
| BIOWL1-15 | 2026-09-03 06:18:08 | 49.23779 | 8.41617 | 210° | 15km/h | 26882m | 4.7m/s | -48.5°C | 0% | 20.2hPa | 2.7V | 03:29:46 | 01:48:15 | 00:00:00 | |
| DK7TD | 2026-09-03 06:18:03 | 49.23790 | 8.41629 | 195° | 13km/h | 26857m | 5.9m/s | -48.5°C | 0% | 20.2hPa | 2.7V | 03:29:46 | 01:48:10 | 00:00:00 | |
| DM0DOS-11 | 2026-09-03 06:18:00 | 49.23814 | 8.41640 | 221° | 11km/h | 26816m | 5.6m/s | -48.3°C | 2.8% | 20.4hPa | 2.6V | 03:29:41 | 01:48:02 | 00:00:00 | |
| BIOWL1-15 | 2026-09-03 06:17:58 | 49.23808 | 8.41633 | 204° | 11km/h | 26830m | 5.5m/s | -48.4°C | 0% | 20.3hPa | 2.7V | 03:29:46 | 01:48:05 | 00:00:00 | |
| DL1XH1-15 | 2026-09-03 06:17:57 | 49.23824 | 8.41649 | 205° | 16km/h | 26800m | 4.7m/s | -48.3°C | 2.8% | 20.4hPa | 2.7V | 03:29:44 | 01:47:59 | 00:00:00 | |
| DK7TD | 2026-09-03 06:17:52 | 49.23823 | 8.41649 | 206° | 16km/h | 26800m | 4.7m/s | -48.3°C | 0% | 20.4hPa | 2.7V | 03:29:46 | 01:47:59 | 00:00:00 | |
| DL4BBY-15 | 2026-09-03 06:17:52 | 49.23823 | 8.41649 | 206° | 13km/h | 26800m | 4.6m/s | -49.1°C | 0% | 0hPa | 2.7V | 00:00:00 | 00:00:00 | 00:00:00 | |
| DB0UT-9 | 2026-09-03 06:17:51 | 49.23823 | 8.41649 | 207° | 16km/h | 26800m | 4.7m/s | -48.3°C | 0.5% | 20.4hPa | 2.7V | 03:29:00 | 00:00:00 | 00:00:00 | |
| DM0DOS-11 | 2026-09-03 06:17:50 | 49.23841 | 8.41658 | 195° | 15km/h | 26762m | 5m/s | -48.4°C | 2.9% | 20.5hPa | 2.7V | 03:29:51 | 01:47:52 | 00:00:00 | |
| DJ2DS-15 | 2026-09-03 06:17:49 | 49.23832 | 8.41654 | 200° | 5km/h | 26783m | 5.3m/s | -48.4°C | 0.5% | 20.5hPa | 2.6V | 00:00:00 | 00:00:00 | 00:00:00 | |
| IW2NTF | 2026-09-03 06:17:48 | 49.23848 | 8.41662 | 205° | 13km/h | 26752m | 6m/s | -48.4°C | 2.8% | 20.6hPa | 2.6V | 03:29:53 | 01:47:50 | 00:00:00 | |
| DL1XH-west | 2026-09-03 06:17:48 | 49.23833 | 8.41655 | 194° | 7km/h | 26778m | 4.3m/s | -48.4°C | 0% | 20.5hPa | 2.6V | 03:30:37 | 01:47:55 | 00:00:00 | |
| BIOWL1-15 | 2026-09-03 06:17:47 | 49.23835 | 8.41656 | 191° | 9km/h | 26773m | 5.4m/s | -48.4°C | 0% | 20.5hPa | 2.6V | 03:30:37 | 01:47:54 | 00:00:00 | |
| DB0ND-19 | 2026-09-03 06:17:46 | 49.23838 | 8.41657 | 191° | 11km/h | 26768m | 6.3m/s | -48.4°C | 0.5% | 20.5hPa | 2.6V | 00:00:00 | 00:00:00 | 00:00:00 | |
| DK7TD | 2026-09-03 06:17:42 | 49.23851 | 8.41664 | 217° | 11km/h | 26746m | 6m/s | -48.4°C | 0% | 20.6hPa | 2.6V | 03:31:28 | 01:47:49 | 00:00:00 | |
| DK5PH-5 | 2026-09-03 06:17:41 | 49.23853 | 8.41667 | 226° | 15km/h | 26741m | 4.8m/s | -48.4°C | 2.8% | 20.6hPa | 2.6V | 00:00:00 | 01:47:48 | 00:00:00 | |
| DM0DOS-11 | 2026-09-03 06:17:40 | 49.23868 | 8.41687 | 220° | 7km/h | 26708m | 6.1m/s | -48.4°C | 2.8% | 20.7hPa | 2.6V | 03:30:01 | 01:47:42 | 00:00:00 | |
| DL0LBS | 2026-09-03 06:17:39 | 49.23855 | 8.41670 | 227° | 13km/h | 26736m | 5.0m/s | -48.5°C | 0.5% | 20.6hPa | 2.7V | 03:30:00 | 00:00:00 | 00:00:00 | |
| IW2NTF | 2026-09-03 06:17:38 | 49.23871 | 8.41690 | 203° | 9km/h | 26698m | 4.7m/s | -48.3°C | 2.8% | 20.7hPa | 2.7V | 03:30:03 | 01:47:40 | 00:00:00 | |
| DL1XH-west | 2026-09-03 06:17:38 | 49.23861 | 8.41678 | 219° | 16km/h | 26724m | 5.2m/s | -48.3°C | 0% | 20.6hPa | 2.7V | 03:30:37 | 01:47:45 | 00:00:00 | |
| BIOWL1-15 | 2026-09-03 06:17:36 | 49.23866 | 8.41684 | 221° | 11km/h | 26714m | 5.7m/s | -48.4°C | 0% | 20.7hPa | 2.6V | 03:30:37 | 01:47:43 | 00:00:00 | |
| DK7TD | 2026-09-03 06:17:31 | 49.23877 | 8.41693 | 199° | 18km/h | 26686m | 5.9m/s | -48.4°C | 0% | 20.8hPa | 2.6V | 03:31:28 | 01:47:38 | 00:00:00 | |
| DJ2KF-10 | 2026-09-03 06:17:30 | 49.23882 | 8.41696 | 200° | 16km/h | 26681m | 4.3m/s | -48.4°C | 2.9% | 20.8hPa | 2.6V | 00:00:00 | 01:47:37 | 00:00:00 | |
| SFWM-10 | 2026-09-03 06:17:29 | 49.23882 | 8.41696 | 200° | 20km/h | 26681m | 4.3m/s | -48.5°C | 0.5% | 20.8hPa | 2.6V | 03:30:00 | 00:00:00 | 00:00:00 | |
| IW2NTF | 2026-09-03 06:17:28 | 49.23906 | 8.41724 | 229° | 18km/h | 26644m | 5m/s | -48.4°C | 2.8% | 20.9hPa | 2.6V | 03:30:13 | 01:47:30 | 00:00:00 | |
| DL1XH1-15 | 2026-09-03 06:17:28 | 49.23909 | 8.41729 | 225° | 16km/h | 26639m | 4.2m/s | -48.4°C | 2.8% | 20.9hPa | 2.7V | 03:30:14 | 01:47:29 | 00:00:00 | |
| HSKMA3-T | 2026-09-03 06:17:27 | 49.23894 | 8.41705 | 216° | 15km/h | 26665m | 5.6m/s | 0°C | 0% | 0hPa | 2.7V | 18:12:15 | 01:47:34 | 00:00:00 | |
| BIOWL1-15 | 2026-09-03 06:17:26 | 49.23897 | 8.41708 | 226° | 15km/h | 26660m | 5m/s | -48.3°C | 0% | 20.9hPa | 2.7V | 03:30:37 | 01:47:33 | 00:00:00 | |
| DK7TD | 2026-09-03 06:17:21 | 49.23911 | 8.41733 | 221° | 13km/h | 26635m | 5m/s | -48.5°C | 0% | 20.9hPa | 2.7V | 03:31:28 | 01:47:28 | 00:00:00 | |
| BIOWL7-15 | 2026-09-03 06:17:20 | 49.23911 | 8.41732 | 222° | 13km/h | 26635m | 5.0m/s | -48.5°C | 0.5% | 20.9hPa | 2.6V | 03:30:00 | 00:00:00 | 00:00:00 | |
| IW2NTF | 2026-09-03 06:17:18 | 49.23941 | 8.41747 | 192° | 24km/h | 26593m | 4.9m/s | -48.6°C | 2.8% | 21.1hPa | 2.6V | 03:30:23 | 01:47:20 | 00:00:00 | |
| DL1XH1-15 | 2026-09-03 06:17:17 | 49.23947 | 8.41749 | 188° | 22km/h | 26588m | 5.6m/s | -48.7°C | 2.9% | 21.1hPa | 2.6V | 03:30:24 | 01:47:19 | 00:00:00 | |
| DL1XH-west | 2026-09-03 06:17:17 | 49.23921 | 8.41739 | 192° | 13km/h | 26615m | 4.8m/s | -48.6°C | 0% | 21hPa | 2.6V | 03:30:37 | 01:47:24 | 00:00:00 | |
| BIOWL1-15 | 2026-09-03 06:17:15 | 49.23930 | 8.41742 | 196° | 22km/h | 26604m | 5.6m/s | -48.5°C | 0% | 21hPa | 2.7V | 03:30:37 | 01:47:22 | 00:00:00 | |
| DK7TD | 2026-09-03 06:17:10 | 49.23956 | 8.41750 | 191° | 13km/h | 26579m | 4.2m/s | -48.8°C | 0% | 21.1hPa | 2.7V | 03:31:28 | 01:47:17 | 00:00:00 | |
| DM0DOS-11 | 2026-09-03 06:17:09 | 49.23973 | 8.41768 | 191° | 11km/h | 26547m | 6.7m/s | -48.7°C | 2.9% | 21.2hPa | 2.7V | 03:30:32 | 01:47:11 | 00:00:00 | |
| DL1XH1-15 | 2026-09-03 06:17:07 | 49.23980 | 8.41766 | 159° | 18km/h | 26535m | 5.1m/s | -48.7°C | 2.8% | 21.2hPa | 2.7V | 03:30:34 | 01:47:09 | 00:00:00 | |
| DL1XH-west | 2026-09-03 06:17:06 | 49.23967 | 8.41763 | 225° | 16km/h | 26558m | 4.1m/s | -48.8°C | 0% | 21.2hPa | 2.6V | 03:30:37 | 01:47:13 | 00:00:00 | |
| BIOWL1-15 | 2026-09-03 06:17:05 | 49.23970 | 8.41767 | 212° | 13km/h | 26553m | 4.6m/s | -48.7°C | 0% | 21.2hPa | 2.6V | 03:30:37 | 01:47:12 | 00:00:00 | |
| DK7TD | 2026-09-03 06:17:00 | 49.23989 | 8.41762 | 169° | 22km/h | 26524m | 6.3m/s | -48.7°C | 0% | 21.3hPa | 2.6V | 03:31:28 | 01:47:07 | 00:00:00 | |
| DJ2KF-10 | 2026-09-03 06:17:00 | 49.23989 | 8.41762 | 169° | 11km/h | 26524m | 6.2m/s | -48.7°C | 2.8% | 21.3hPa | 2.6V | 00:00:00 | 01:47:07 | 00:00:00 | |
| DM0DOS-11 | 2026-09-03 06:16:59 | 49.24010 | 8.41757 | 187° | 5km/h | 26493m | 4.9m/s | -48.8°C | 2.9% | 21.4hPa | 2.6V | 03:30:42 | 01:47:01 | 00:00:00 | |
| NBG1-10 | 2026-09-03 06:16:59 | 49.23994 | 8.41761 | 175° | 15km/h | 26519m | 4.7m/s | -48.7°C | 2.8% | 21.3hPa | 2.6V | 00:00:00 | 01:47:06 | 00:00:00 | |
| SFWM-10 | 2026-09-03 06:16:58 | 49.23994 | 8.41760 | 175° | 20km/h | 26519m | 4.7m/s | -48.8°C | 0.5% | 21.3hPa | 2.7V | 03:30:00 | 00:00:00 | 00:00:00 | |
| DL1XH1-15 | 2026-09-03 06:16:57 | 49.24013 | 8.41760 | 228° | 7km/h | 26481m | 5.4m/s | -48.8°C | 2.9% | 21.4hPa | 2.7V | 03:30:44 | 01:46:59 | 00:00:00 | |
| DL1XH-west | 2026-09-03 06:16:55 | 49.24009 | 8.41757 | 168° | 7km/h | 26497m | 4.9m/s | -48.7°C | 0% | 21.4hPa | 2.6V | 03:31:28 | 01:47:02 | 00:00:00 | |
| DD1CC8 | 2026-09-03 06:16:53 | 49.24012 | 8.41758 | 215° | 5km/h | 26487m | 6.3m/s | -48.8°C | 0.5% | 21.4hPa | 2.7V | 00:00:00 | 00:00:00 | 00:00:00 | |
| DL4BBY-15 | 2026-09-03 06:16:52 | 49.24013 | 8.41760 | 229° | 11km/h | 26481m | 5.3m/s | -49.6°C | 0% | 0hPa | 2.7V | 00:00:00 | 00:00:00 | 00:00:00 | |
| DM0DOS-11 | 2026-09-03 06:16:49 | 49.24024 | 8.41747 | 157° | 9km/h | 26438m | 5.1m/s | -49°C | 2.9% | 21.6hPa | 2.7V | 03:30:52 | 01:46:51 | 00:00:00 | |
| DK7TD | 2026-09-03 06:16:48 | 49.24017 | 8.41760 | 118° | 9km/h | 26459m | 5.6m/s | -48.8°C | 0% | 21.5hPa | 2.6V | 03:31:28 | 01:46:55 | 00:00:00 | |
| DL1XH1-15 | 2026-09-03 06:16:47 | 49.24028 | 8.41745 | 160° | 7km/h | 26429m | 4m/s | -49°C | 2.9% | 21.6hPa | 2.6V | 03:30:54 | 01:46:49 | 00:00:00 | |
| DF7PN | 2026-09-03 06:16:46 | 49.24020 | 8.41753 | 121° | 11km/h | 26449m | 5.3m/s | -48.8°C | 0.5% | 21.6hPa | 2.7V | 00:00:00 | 00:00:00 | 00:00:00 | |
| DO1YAY-16 | 2026-09-03 06:16:45 | 49.24022 | 8.41749 | 138° | 9km/h | 26444m | 5.8m/s | -48.9°C | 0.5% | 21.6hPa | 2.7V | 00:00:00 | 00:00:00 | 00:00:00 | |
| BIOWL1-15 | 2026-09-03 06:16:45 | 49.24022 | 8.41749 | 138° | 11km/h | 26444m | 5.8m/s | -48.9°C | 0% | 21.6hPa | 2.7V | 03:31:28 | 01:46:52 | 00:00:00 | |
| DL1XH-west | 2026-09-03 06:16:44 | 49.24024 | 8.41747 | 158° | 9km/h | 26438m | 5.1m/s | -49°C | 0% | 21.6hPa | 2.7V | 03:31:28 | 01:46:51 | 00:00:00 | |
| DK5PH-5 | 2026-09-03 06:16:41 | 49.24030 | 8.41744 | 140° | 9km/h | 26424m | 5.9m/s | -49.0°C | 2.9% | 21.6hPa | 2.7V | 00:00:00 | 01:46:48 | 00:00:00 | |
| DF1GD-15 | 2026-09-03 06:16:40 | 49.24030 | 8.41744 | 140° | 7km/h | 26424m | 5.9m/s | -49.0°C | 0.5% | 21.6hPa | 2.7V | 03:31:00 | 00:00:00 | 00:00:00 | |
| DM0DOS-11 | 2026-09-03 06:16:39 | 49.24035 | 8.41724 | 134° | 7km/h | 26386m | 5m/s | -49.2°C | 2.9% | 21.8hPa | 2.7V | 03:31:02 | 01:46:41 | 00:00:00 | |
| IW2NTF | 2026-09-03 06:16:38 | 49.24036 | 8.41722 | 126° | 11km/h | 26380m | 6.2m/s | -49.2°C | 2.9% | 21.8hPa | 2.7V | 03:31:03 | 01:46:40 | 00:00:00 | |
| DK7TD | 2026-09-03 06:16:38 | 49.24032 | 8.41734 | 98° | 9km/h | 26408m | 5m/s | -49.2°C | 0% | 21.7hPa | 2.7V | 03:31:28 | 01:46:45 | 00:00:00 | |
| BIOWL1-15 | 2026-09-03 06:16:36 | 49.24035 | 8.41724 | 134° | 9km/h | 26386m | 5m/s | -49.2°C | 0% | 21.8hPa | 2.7V | 03:31:28 | 01:46:41 | 00:00:00 | |
| DL1XH-west | 2026-09-03 06:16:33 | 49.24036 | 8.41722 | 127° | 11km/h | 26380m | 6.3m/s | -49.2°C | 0% | 21.8hPa | 2.7V | 03:31:28 | 01:46:40 | 00:00:00 | |
| HARRO8 | 2026-09-03 06:16:31 | 49.24040 | 8.41712 | 120° | 16km/h | 26369m | 4.7m/s | -49.2°C | 0.5% | 21.8hPa | 2.6V | 00:00:00 | 00:00:00 | 00:00:00 | |
| DJ2KF-10 | 2026-09-03 06:16:30 | 49.24042 | 8.41706 | 120° | 9km/h | 26364m | 5.3m/s | -49.2°C | 2.9% | 21.8hPa | 2.6V | 03:31:00 | 01:46:37 | 00:00:00 | |
| DM0DOS-11 | 2026-09-03 06:16:29 | 49.24046 | 8.41678 | 89° | 16km/h | 26331m | 4.7m/s | -49.5°C | 3% | 21.9hPa | 2.6V | 03:31:12 | 01:46:31 | 00:00:00 | |
| IW2NTF | 2026-09-03 06:16:28 | 49.24047 | 8.41672 | 95° | 15km/h | 26326m | 4.3m/s | -49.6°C | 2.9% | 21.9hPa | 2.6V | 03:31:13 | 01:46:30 | 00:00:00 | |
| DK7TD | 2026-09-03 06:16:28 | 49.24046 | 8.41698 | 113° | 11km/h | 26352m | 5.2m/s | -49.5°C | 0% | 21.9hPa | 2.7V | 03:31:28 | 01:46:35 | 00:00:00 | |
| BIOWL1-15 | 2026-09-03 06:16:23 | 49.24049 | 8.41663 | 168° | 5km/h | 26310m | 4.9m/s | -49.6°C | 0% | 22hPa | 2.7V | 03:31:28 | 01:46:27 | 00:00:00 | |
| DL1XH-west | 2026-09-03 06:16:23 | 49.24047 | 8.41672 | 95° | 15km/h | 26326m | 4.3m/s | -49.6°C | 0% | 22hPa | 2.6V | 03:31:28 | 01:46:30 | 00:00:00 | |
| DK7TD | 2026-09-03 06:16:17 | 49.24052 | 8.41663 | 147° | 4km/h | 26294m | 5.5m/s | -49.7°C | 0% | 22.1hPa | 2.6V | 03:31:28 | 01:46:24 | 00:00:00 | |
| DL3AQ-11 | 2026-09-03 06:16:17 | 49.24053 | 8.41662 | 157° | 4km/h | 26289m | 4.4m/s | -49.6°C | 0.5% | 22.1hPa | 2.6V | 00:00:00 | 00:00:00 | 00:00:00 | |
| IW2NTF | 2026-09-03 06:16:16 | 49.24062 | 8.41662 | 152° | 9km/h | 26262m | 5.4m/s | -49.8°C | 3% | 22.2hPa | 2.6V | 03:31:25 | 01:46:18 | 00:00:00 | |
| BIOWL1-15 | 2026-09-03 06:16:13 | 49.24062 | 8.41662 | 152° | 9km/h | 26262m | 5.4m/s | -49.8°C | 0% | 22.2hPa | 2.6V | 03:31:28 | 01:46:18 | 00:00:00 | |
| DL1XH-west | 2026-09-03 06:16:12 | 49.24060 | 8.41662 | 176° | 9km/h | 26268m | 4.9m/s | -49.9°C | 0% | 22.1hPa | 2.6V | 03:31:28 | 01:46:19 | 00:00:00 | |
| DK7TD | 2026-09-03 06:16:07 | 49.24067 | 8.41652 | 155° | 5km/h | 26241m | 6.1m/s | -49.9°C | 0% | 22.3hPa | 2.6V | 03:33:10 | 01:46:14 | 00:00:00 | |
| IW2NTF | 2026-09-03 06:16:06 | 49.24076 | 8.41672 | 241° | 11km/h | 26208m | 4.8m/s | -49.9°C | 3.1% | 22.4hPa | 2.6V | 03:31:35 | 01:46:08 | 00:00:00 | |
| DL1XH-west | 2026-09-03 06:16:01 | 49.24076 | 8.41672 | 241° | 11km/h | 26208m | 4.8m/s | -49.9°C | 0% | 22.4hPa | 2.6V | 03:32:19 | 01:46:08 | 00:00:00 | |
| BIOWL1-15 | 2026-09-03 06:16:00 | 49.24077 | 8.41675 | 229° | 11km/h | 26203m | 4.6m/s | -50°C | 0% | 22.4hPa | 2.6V | 03:32:19 | 01:46:07 | 00:00:00 | |
| DK7TD | 2026-09-03 06:15:57 | 49.24087 | 8.41685 | 207° | 20km/h | 26186m | 5.7m/s | -50°C | 0% | 22.5hPa | 2.7V | 03:33:10 | 01:46:04 | 00:00:00 | |
| DF3TZ-5 | 2026-09-03 06:15:55 | 49.24098 | 8.41695 | 217° | 11km/h | 26170m | 6.3m/s | -50.0°C | 0.5% | 22.5hPa | 2.7V | 00:00:00 | 00:00:00 | 00:00:00 | |
| DL6DJ-15 | 2026-09-03 06:15:54 | 49.24098 | 8.41695 | 217° | 11km/h | 26170m | 6.3m/s | -50.0°C | 0.5% | 22.5hPa | 2.7V | 00:00:00 | 00:00:00 | 00:00:00 | |
| DM0DOS-11 | 2026-09-03 06:15:53 | 49.24101 | 8.41701 | 256° | 11km/h | 26159m | 4.7m/s | -49.8°C | 3% | 22.5hPa | 2.7V | 03:31:44 | 01:45:59 | 00:00:00 | |
| BIOWL1-15 | 2026-09-03 06:15:50 | 49.24105 | 8.41717 | 237° | 18km/h | 26143m | 5.4m/s | -49.9°C | 0% | 22.6hPa | 2.6V | 03:32:19 | 01:45:56 | 00:00:00 | |
| DL1XH-west | 2026-09-03 06:15:50 | 49.24103 | 8.41711 | 248° | 16km/h | 26149m | 6.1m/s | -49.9°C | 0% | 22.6hPa | 2.7V | 03:32:19 | 01:45:57 | 00:00:00 | |
| DL3AQ-11 | 2026-09-03 06:15:50 | 49.24105 | 8.41717 | 237° | 16km/h | 26143m | 5.4m/s | -49.9°C | 0.5% | 22.6hPa | 2.6V | 00:00:00 | 00:00:00 | 00:00:00 | |
| DM0DOS-11 | 2026-09-03 06:15:48 | 49.24128 | 8.41726 | 182° | 13km/h | 26104m | 5.8m/s | -50°C | 3.1% | 22.7hPa | 2.6V | 03:31:54 | 01:45:49 | 00:00:00 | |
| DK7TD | 2026-09-03 06:15:47 | 49.24111 | 8.41726 | 212° | 16km/h | 26133m | 5.3m/s | -50°C | 0% | 22.6hPa | 2.6V | 03:33:10 | 01:45:54 | 00:00:00 | |
| DL1XH-west | 2026-09-03 06:15:40 | 49.24132 | 8.41729 | 241° | 7km/h | 26094m | 4.7m/s | -50.1°C | 0% | 22.8hPa | 2.7V | 03:32:19 | 01:45:47 | 00:00:00 | |
| DM3KS-11 | 2026-09-03 06:15:39 | 49.24132 | 8.41735 | 304° | 9km/h | 26082m | 6.2m/s | -50.2°C | 0.6% | 22.8hPa | 2.7V | 00:00:00 | 00:00:00 | 00:00:00 | |
| DB0UT-7 | 2026-09-03 06:15:38 | 49.24132 | 8.41734 | 305° | 15km/h | 26082m | 6.1m/s | -50.2°C | 3.1% | 22.7hPa | 2.7V | 03:31:00 | 01:45:45 | 00:00:00 | |
| IW2NTF | 2026-09-03 06:15:36 | 49.24135 | 8.41764 | 191° | 15km/h | 26044m | 6.5m/s | -50.2°C | 3% | 22.9hPa | 2.6V | 03:32:05 | 01:45:38 | 00:00:00 | |
| DK7TD | 2026-09-03 06:15:36 | 49.24129 | 8.41742 | 296° | 13km/h | 26072m | 4.1m/s | -50.2°C | 0% | 22.8hPa | 2.6V | 03:33:10 | 01:45:43 | 00:00:00 | |
| DL1XH-west | 2026-09-03 06:15:30 | 49.24138 | 8.41764 | 167° | 15km/h | 26038m | 6m/s | -50.2°C | 0% | 22.9hPa | 2.6V | 03:32:19 | 01:45:37 | 00:00:00 | |
| BIOWL1-15 | 2026-09-03 06:15:29 | 49.24142 | 8.41762 | 155° | 16km/h | 26032m | 4.2m/s | -50.2°C | 0% | 22.9hPa | 2.6V | 03:32:19 | 01:45:36 | 00:00:00 | |
| DK7TD | 2026-09-03 06:15:26 | 49.24154 | 8.41756 | 183° | 15km/h | 26018m | 5.9m/s | -50.2°C | 0% | 23hPa | 2.7V | 03:33:10 | 01:45:33 | 00:00:00 | |
| DJ2DS-15 | 2026-09-03 06:15:25 | 49.24157 | 8.41758 | 210° | 13km/h | 26012m | 4.9m/s | -50.2°C | 0.6% | 23.1hPa | 2.7V | 00:00:00 | 00:00:00 | 00:00:00 | |
| DL8DAS-15 | 2026-09-03 06:15:24 | 49.24157 | 8.41758 | 211° | 13km/h | 26013m | 4.9m/s | -50.2°C | 0.6% | 23.1hPa | 2.7V | 00:00:00 | 00:00:00 | 00:00:00 | |
| DM0DOS-11 | 2026-09-03 06:15:23 | 49.24160 | 8.41770 | 282° | 13km/h | 25995m | 6.3m/s | -50.3°C | 3.1% | 23.1hPa | 2.7V | 03:32:14 | 01:45:29 | 00:00:00 | |
| BIOWL1-15 | 2026-09-03 06:15:19 | 49.24163 | 8.41799 | 221° | 18km/h | 25968m | 5.1m/s | -50.3°C | 0% | 23.2hPa | 2.6V | 03:32:19 | 01:45:24 | 00:00:00 | |
| DL1XH-west | 2026-09-03 06:15:19 | 49.24159 | 8.41788 | 260° | 16km/h | 25980m | 6.2m/s | -50.4°C | 0% | 23.2hPa | 2.6V | 03:32:19 | 01:45:26 | 00:00:00 | |
| DK7TD | 2026-09-03 06:15:15 | 49.24171 | 8.41805 | 189° | 16km/h | 25957m | 6.5m/s | -50.4°C | 0% | 23.2hPa | 2.7V | 03:33:10 | 01:45:22 | 00:00:00 | |
| BIOWL1-15 | 2026-09-03 06:15:08 | 49.24196 | 8.41834 | 265° | 16km/h | 25909m | 6.1m/s | -50.4°C | 0% | 23.4hPa | 2.6V | 03:33:10 | 01:45:13 | 00:00:00 | |
| DL1XH-west | 2026-09-03 06:15:08 | 49.24194 | 8.41820 | 249° | 20km/h | 25920m | 4.9m/s | -50.4°C | 0% | 23.4hPa | 2.7V | 03:33:10 | 01:45:15 | 00:00:00 | |
| DK7TD | 2026-09-03 06:15:05 | 49.24196 | 8.41839 | 266° | 13km/h | 25903m | 5.3m/s | -50.4°C | 0% | 23.4hPa | 2.6V | 03:33:10 | 01:45:12 | 00:00:00 | |
| BIOWL1-15 | 2026-09-03 06:14:57 | 49.24222 | 8.41867 | 219° | 15km/h | 25844m | 5.7m/s | -50.2°C | 0% | 23.7hPa | 2.6V | 03:33:10 | 01:45:01 | 00:00:00 | |
| DL1XH-west | 2026-09-03 06:14:57 | 49.24214 | 8.41863 | 179° | 9km/h | 25860m | 5m/s | -50.2°C | 0% | 23.6hPa | 2.7V | 03:33:10 | 01:45:04 | 00:00:00 | |
| DK7TD | 2026-09-03 06:14:55 | 49.24219 | 8.41864 | 205° | 11km/h | 25849m | 6.2m/s | -50.2°C | 0% | 23.6hPa | 2.6V | 03:33:10 | 01:45:02 | 00:00:00 | |
| DN1GJH-1 | 2026-09-03 06:14:54 | 49.24219 | 8.41864 | 206° | 11km/h | 25850m | 6.2m/s | -50.2°C | 0.6% | 23.6hPa | 2.7V | 03:33:00 | 00:00:00 | 00:00:00 | |
| DM0DOS-11 | 2026-09-03 06:14:53 | 49.24227 | 8.41877 | 242° | 16km/h | 25833m | 4.9m/s | -50.4°C | 3.2% | 23.7hPa | 2.7V | 03:32:44 | 01:44:59 | 00:00:00 | |
| DF3TZ-5 | 2026-09-03 06:14:53 | 49.24227 | 8.41877 | 242° | 16km/h | 25833m | 4.9m/s | -50.4°C | 0.6% | 23.7hPa | 2.6V | 00:00:00 | 00:00:00 | 00:00:00 | |
| DL6DJ-15 | 2026-09-03 06:14:52 | 49.24227 | 8.41877 | 242° | 16km/h | 25833m | 4.9m/s | -50.4°C | 0.6% | 23.7hPa | 2.6V | 00:00:00 | 00:00:00 | 00:00:00 | |
| DL9PN | 2026-09-03 06:14:51 | 49.24229 | 8.41883 | 255° | 15km/h | 25828m | 6.4m/s | -50.4°C | 0.5% | 23.7hPa | 2.6V | 00:00:00 | 00:00:00 | 00:00:00 | |
| DJ2DS-15 | 2026-09-03 06:14:49 | 49.24229 | 8.41894 | 280° | 11km/h | 25816m | 5.2m/s | -50.2°C | 0.6% | 23.8hPa | 2.6V | 00:00:00 | 00:00:00 | 00:00:00 | |
| DL8DAS-14 | 2026-09-03 06:14:48 | 49.24228 | 8.41898 | 275° | 9km/h | 25811m | 5.0m/s | -50.2°C | 0.6% | 23.8hPa | 2.6V | 00:00:00 | 00:00:00 | 00:00:00 | |
| DM0DOS-11 | 2026-09-03 06:14:47 | 49.24243 | 8.41905 | 161° | 11km/h | 25780m | 5.9m/s | -50.2°C | 3.1% | 23.9hPa | 2.6V | 03:32:54 | 01:44:49 | 00:00:00 | |
| DL1XH-west | 2026-09-03 06:14:47 | 49.24229 | 8.41902 | 249° | 9km/h | 25806m | 5.3m/s | -50.3°C | 0% | 23.8hPa | 2.6V | 03:33:10 | 01:44:54 | 00:00:00 | |
| BIOWL1-15 | 2026-09-03 06:14:46 | 49.24230 | 8.41904 | 215° | 11km/h | 25800m | 6.5m/s | -50.3°C | 0% | 23.8hPa | 2.7V | 03:33:10 | 01:44:53 | 00:00:00 | |
| DK7TD | 2026-09-03 06:14:44 | 49.24236 | 8.41906 | 178° | 15km/h | 25789m | 4.4m/s | -50.2°C | 0% | 23.8hPa | 2.7V | 03:33:10 | 01:44:51 | 00:00:00 | |
| DL1XH-west | 2026-09-03 06:14:36 | 49.24244 | 8.41910 | 257° | 9km/h | 25747m | 4.9m/s | -50.2°C | 0% | 24hPa | 2.6V | 03:33:10 | 01:44:43 | 00:00:00 | |
| DM0DOS-11 | 2026-09-03 06:14:35 | 49.24246 | 8.41915 | 75° | 5km/h | 25727m | 5.8m/s | -50.1°C | 3.1% | 24.1hPa | 2.7V | 03:33:04 | 01:44:39 | 00:00:00 | |
| DK7TD | 2026-09-03 06:14:34 | 49.24245 | 8.41915 | 227° | 5km/h | 25738m | 5.1m/s | -50.2°C | 0% | 24hPa | 2.7V | 03:33:10 | 01:44:41 | 00:00:00 | |
| DL1XH-west | 2026-09-03 06:14:26 | 49.24242 | 8.41908 | 182° | 2km/h | 25695m | 5m/s | -50.1°C | 0% | 24.2hPa | 2.7V | 03:33:10 | 01:44:33 | 00:00:00 | |
| BIOWL1-15 | 2026-09-03 06:14:25 | 49.24242 | 8.41908 | 143° | 2km/h | 25690m | 6.1m/s | -50.1°C | 0% | 24.2hPa | 2.6V | 03:34:01 | 01:44:32 | 00:00:00 | |
| DK7TD | 2026-09-03 06:14:24 | 49.24243 | 8.41907 | 149° | 4km/h | 25684m | 5m/s | -50.1°C | 0% | 24.2hPa | 2.6V | 03:34:01 | 01:44:31 | 00:00:00 | |
| DM0DOS-11 | 2026-09-03 06:14:23 | 49.24244 | 8.41908 | 240° | 4km/h | 25675m | 5.3m/s | -50.2°C | 3.1% | 24.3hPa | 2.7V | 03:33:14 | 01:44:29 | 00:00:00 | |
| DF3TZ-5 | 2026-09-03 06:14:22 | 49.24244 | 8.41910 | 251° | 7km/h | 25669m | 6.6m/s | -50.2°C | 0.6% | 24.3hPa | 2.6V | 00:00:00 | 00:00:00 | 00:00:00 | |
| DL6DJ-15 | 2026-09-03 06:14:21 | 49.24244 | 8.41910 | 251° | 7km/h | 25669m | 6.6m/s | -50.2°C | 0.6% | 24.3hPa | 2.6V | 00:00:00 | 00:00:00 | 00:00:00 | |
| DL9PN | 2026-09-03 06:14:20 | 49.24246 | 8.41919 | 265° | 4km/h | 25652m | 6.3m/s | -50.5°C | 0.6% | 24.4hPa | 2.6V | 00:00:00 | 00:00:00 | 00:00:00 | |
| OE5DXL-15 | 2026-09-03 06:14:18 | 49.24245 | 8.41919 | 266° | 13km/h | 25652m | 6.3m/s | -50.5°C | 3.1% | 24.3hPa | 2.6V | 00:00:00 | 00:00:00 | 00:00:00 | |
| DL1XH1-15 | 2026-09-03 06:14:17 | 49.24256 | 8.41921 | 190° | 15km/h | 25620m | 4.6m/s | -50.4°C | 3% | 24.5hPa | 2.7V | 03:33:24 | 01:44:19 | 00:00:00 | |
| DL1XH-west | 2026-09-03 06:14:16 | 49.24246 | 8.41920 | 149° | 4km/h | 25641m | 4.2m/s | -50.4°C | 0% | 24.4hPa | 2.7V | 03:34:01 | 01:44:23 | 00:00:00 | |
| BIOWL1-15 | 2026-09-03 06:14:15 | 49.24249 | 8.41919 | 181° | 9km/h | 25631m | 6.1m/s | -50.4°C | 0% | 24.4hPa | 2.6V | 03:34:01 | 01:44:21 | 00:00:00 | |
| DK7TD | 2026-09-03 06:14:13 | 49.24252 | 8.41920 | 191° | 13km/h | 25625m | 5.8m/s | -50.4°C | 0% | 24.5hPa | 2.6V | 03:34:01 | 01:44:20 | 00:00:00 | |
| CB1BUN | 2026-09-03 06:14:12 | 49.24252 | 8.41919 | 191° | 13km/h | 25626m | 5.8m/s | -50.4°C | 0.5% | 24.5hPa | 2.6V | 03:34:00 | 00:00:00 | 00:00:00 | |
| DF7PN | 2026-09-03 06:14:11 | 49.24263 | 8.41922 | 178° | 13km/h | 25610m | 6.4m/s | -50.6°C | 0.6% | 24.5hPa | 2.6V | 00:00:00 | 00:00:00 | 00:00:00 | |
| DO1YAY-16 | 2026-09-03 06:14:10 | 49.24263 | 8.41922 | 178° | 13km/h | 25610m | 6.4m/s | -50.6°C | 0.6% | 24.5hPa | 2.6V | 00:00:00 | 00:00:00 | 00:00:00 | |
| DB0ND-19 | 2026-09-03 06:14:09 | 49.24266 | 8.41921 | 175° | 13km/h | 25604m | 4.9m/s | -50.7°C | 0.6% | 24.5hPa | 2.6V | 00:00:00 | 00:00:00 | 00:00:00 | |
| SFWM-10 | 2026-09-03 06:14:06 | 49.24273 | 8.41923 | 205° | 13km/h | 25595m | 5.4m/s | -50.9°C | 0.6% | 24.6hPa | 2.6V | 00:00:00 | 00:00:00 | 00:00:00 | |
| DM0DOS-11 | 2026-09-03 06:14:05 | 49.24284 | 8.41940 | 221° | 7km/h | 25567m | 5.6m/s | -50.7°C | 3.3% | 24.7hPa | 2.6V | 03:33:34 | 01:44:09 | 00:00:00 | |
| DL1XH-west | 2026-09-03 06:14:05 | 49.24278 | 8.41929 | 229° | 15km/h | 25583m | 5.2m/s | -50.8°C | 0% | 24.6hPa | 2.6V | 03:34:01 | 01:44:12 | 00:00:00 | |
| BIOWL1-15 | 2026-09-03 06:14:04 | 49.24287 | 8.41943 | 208° | 7km/h | 25556m | 5.5m/s | -50.7°C | 0% | 24.7hPa | 2.7V | 03:34:01 | 01:44:07 | 00:00:00 | |
| DK7TD | 2026-09-03 06:14:02 | 49.24284 | 8.41940 | 222° | 7km/h | 25567m | 5.6m/s | -50.7°C | 0% | 24.7hPa | 2.6V | 03:34:01 | 01:44:09 | 00:00:00 | |
| DL1XH-west | 2026-09-03 06:13:54 | 49.24306 | 8.41950 | 178° | 15km/h | 25523m | 4.2m/s | -50.7°C | 0% | 24.9hPa | 2.6V | 03:34:01 | 01:44:01 | 00:00:00 | |
| DM0DOS-11 | 2026-09-03 06:13:53 | 49.24313 | 8.41951 | 199° | 15km/h | 25514m | 6.1m/s | -50.7°C | 3.2% | 24.9hPa | 2.7V | 03:33:44 | 01:43:59 | 00:00:00 | |
| BIOWL1-15 | 2026-09-03 06:13:53 | 49.24310 | 8.41950 | 186° | 15km/h | 25519m | 4.2m/s | -50.7°C | 0% | 24.9hPa | 2.6V | 03:34:01 | 01:44:00 | 00:00:00 | |
| DK7TD | 2026-09-03 06:13:51 | 49.24317 | 8.41954 | 215° | 16km/h | 25507m | 6.2m/s | -50.7°C | 0% | 24.9hPa | 2.7V | 03:34:01 | 01:43:58 | 00:00:00 | |
| DF3TZ-5 | 2026-09-03 06:13:51 | 49.24320 | 8.41958 | 220° | 16km/h | 25502m | 5.1m/s | -50.7°C | 0.6% | 24.9hPa | 2.6V | 00:00:00 | 00:00:00 | 00:00:00 | |
| DL3AQ-11 | 2026-09-03 06:13:50 | 49.24324 | 8.41962 | 219° | 15km/h | 25497m | 4.5m/s | -50.6°C | 0.6% | 25.0hPa | 2.6V | 00:00:00 | 00:00:00 | 00:00:00 | |
| DL9PN | 2026-09-03 06:13:49 | 49.24327 | 8.41966 | 212° | 13km/h | 25492m | 6.3m/s | -50.6°C | 0.6% | 25.0hPa | 2.6V | 00:00:00 | 00:00:00 | 00:00:00 | |
| OE5DXL-15 | 2026-09-03 06:13:48 | 49.24327 | 8.41966 | 213° | 15km/h | 25492m | 6.3m/s | -50.5°C | 3.2% | 24.9hPa | 2.6V | 00:00:00 | 00:00:00 | 00:00:00 | |
| DL1XH1-15 | 2026-09-03 06:13:47 | 49.24348 | 8.41974 | 193° | 20km/h | 25459m | 4.3m/s | -50.4°C | 3.1% | 25.1hPa | 2.6V | 03:33:54 | 01:43:49 | 00:00:00 | |
| DL8DAS-14 | 2026-09-03 06:13:46 | 49.24332 | 8.41969 | 187° | 11km/h | 25480m | 4.9m/s | -50.6°C | 0.6% | 25.0hPa | 2.6V | 00:00:00 | 00:00:00 | 00:00:00 | |
| BIOWL1-15 | 2026-09-03 06:13:44 | 49.24348 | 8.41974 | 193° | 20km/h | 25459m | 4.3m/s | -50.4°C | 0% | 25.1hPa | 2.6V | 03:34:01 | 01:43:49 | 00:00:00 | |
| DL1XH-west | 2026-09-03 06:13:43 | 49.24343 | 8.41972 | 196° | 18km/h | 25464m | 5.1m/s | -50.5°C | 0% | 25.1hPa | 2.6V | 03:34:01 | 01:43:50 | 00:00:00 | |
| DK7TD | 2026-09-03 06:13:40 | 49.24359 | 8.41976 | 183° | 22km/h | 25448m | 6.1m/s | -50.3°C | 0% | 25.1hPa | 2.7V | 03:34:01 | 01:43:47 | 00:00:00 | |
| DF7PN | 2026-09-03 06:13:40 | 49.24364 | 8.41977 | 181° | 20km/h | 25443m | 4.7m/s | -50.3°C | 0.6% | 25.2hPa | 2.6V | 00:00:00 | 00:00:00 | 00:00:00 | |
| DO1YAY-16 | 2026-09-03 06:13:39 | 49.24364 | 8.41977 | 181° | 20km/h | 25443m | 4.7m/s | -50.3°C | 0.6% | 25.2hPa | 2.6V | 00:00:00 | 00:00:00 | 00:00:00 | |
| DB0UT-7 | 2026-09-03 06:13:38 | 49.24369 | 8.41977 | 188° | 15km/h | 25439m | 3.9m/s | -50.3°C | 3.2% | 25.1hPa | 2.6V | 03:33:00 | 01:43:45 | 00:00:00 | |
| DJ2DS-15 | 2026-09-03 06:13:37 | 49.24373 | 8.41979 | 199° | 16km/h | 25434m | 5.6m/s | -50.4°C | 0.6% | 25.2hPa | 2.6V | 00:00:00 | 00:00:00 | 00:00:00 | |
| DF1GD-15 | 2026-09-03 06:13:36 | 49.24377 | 8.41982 | 216° | 18km/h | 25428m | 6.3m/s | -50.4°C | 0.6% | 25.2hPa | 2.6V | 03:34:00 | 00:00:00 | 00:00:00 | |
| DM0DOS-11 | 2026-09-03 06:13:35 | 49.24386 | 8.41998 | 224° | 5km/h | 25407m | 6.2m/s | -50.5°C | 3.2% | 25.3hPa | 2.6V | 03:34:04 | 01:43:39 | 00:00:00 | |
| DL1XH-west | 2026-09-03 06:13:32 | 49.24386 | 8.41998 | 224° | 5km/h | 25407m | 6.2m/s | -50.5°C | 0% | 25.3hPa | 2.6V | 03:34:52 | 01:43:39 | 00:00:00 | |
| DK7TD | 2026-09-03 06:13:29 | 49.24389 | 8.41995 | 137° | 9km/h | 25392m | 4.5m/s | -50.5°C | 0% | 25.4hPa | 2.7V | 03:34:52 | 01:43:36 | 00:00:00 | |
| HEMX73-11 | 2026-09-03 06:13:27 | 49.24391 | 8.41993 | 157° | 9km/h | 25387m | 5.5m/s | -50.6°C | 0.6% | 25.4hPa | 2.7V | 03:34:00 | 00:00:00 | 00:00:00 | |
| DO2KSM | 2026-09-03 06:13:26 | 49.24393 | 8.41992 | 183° | 9km/h | 25382m | 5.5m/s | -50.6°C | 0.6% | 25.4hPa | 2.7V | 00:00:00 | 00:00:00 | 00:00:00 | |
| HARRO8 | 2026-09-03 06:13:25 | 49.24399 | 8.41994 | 196° | 15km/h | 25372m | 4.8m/s | -50.5°C | 0.6% | 25.4hPa | 2.7V | 00:00:00 | 00:00:00 | 00:00:00 | |
| DM0DOS-11 | 2026-09-03 06:13:23 | 49.24411 | 8.41997 | 181° | 18km/h | 25355m | 5.3m/s | -50.4°C | 3.2% | 25.5hPa | 2.7V | 03:34:14 | 01:43:29 | 00:00:00 | |
| DL1XH-west | 2026-09-03 06:13:22 | 49.24411 | 8.41997 | 182° | 18km/h | 25355m | 5.3m/s | -50.4°C | 0% | 25.5hPa | 2.7V | 03:34:52 | 01:43:29 | 00:00:00 | |
| BIOWL1-15 | 2026-09-03 06:13:20 | 49.24424 | 8.42000 | 196° | 15km/h | 25339m | 5m/s | -50.5°C | 0% | 25.6hPa | 2.6V | 03:34:52 | 01:43:26 | 00:00:00 | |
| DK7TD | 2026-09-03 06:13:18 | 49.24427 | 8.42001 | 196° | 13km/h | 25334m | 4m/s | -50.5°C | 0% | 0hPa | 2.6V | 03:34:52 | 01:43:25 | 00:00:00 | |
| DL1XH-west | 2026-09-03 06:13:11 | 49.24451 | 8.41994 | 196° | 18km/h | 25297m | 5.7m/s | -50.6°C | 0% | 25.7hPa | 2.7V | 03:34:52 | 01:43:18 | 00:00:00 | |
| BIOWL1-15 | 2026-09-03 06:13:08 | 49.24469 | 8.42002 | 171° | 9km/h | 25266m | 5.5m/s | -50.7°C | 0% | 25.9hPa | 2.7V | 03:34:52 | 01:43:12 | 00:00:00 | |
| DK7TD | 2026-09-03 06:13:08 | 49.24462 | 8.42001 | 200° | 13km/h | 25282m | 6.1m/s | -50.6°C | 0% | 0hPa | 2.6V | 03:34:52 | 01:43:15 | 00:00:00 | |
| DB0UT-7 | 2026-09-03 06:13:08 | 49.24462 | 8.42001 | 200° | 11km/h | 25282m | 6.1m/s | -50.6°C | 3.2% | 25.7hPa | 2.6V | 00:00:00 | 00:00:00 | 00:00:00 | |
| HEMX73-11 | 2026-09-03 06:13:07 | 49.24465 | 8.42002 | 187° | 9km/h | 25276m | 5.3m/s | -50.6°C | 0.6% | 25.8hPa | 2.6V | 03:34:00 | 00:00:00 | 00:00:00 | |
| DO2KSM | 2026-09-03 06:13:06 | 49.24465 | 8.42002 | 187° | 9km/h | 25276m | 5.3m/s | -50.6°C | 0.6% | 25.8hPa | 2.6V | 00:00:00 | 00:00:00 | 00:00:00 | |
| DM0DOS-11 | 2026-09-03 06:13:05 | 49.24477 | 8.41998 | 149° | 15km/h | 25250m | 5.1m/s | -50.8°C | 3.3% | 25.9hPa | 2.6V | 03:34:34 | 01:43:09 | 00:00:00 | |
| DL1XH-west | 2026-09-03 06:13:01 | 49.24480 | 8.41995 | 141° | 16km/h | 25245m | 6.2m/s | -50.8°C | 0% | 25.9hPa | 2.6V | 03:34:52 | 01:43:08 | 00:00:00 | |
| DK7TD | 2026-09-03 06:12:57 | 49.24490 | 8.41981 | 171° | 7km/h | 25224m | 6m/s | -50.8°C | 0% | 0hPa | 2.7V | 03:34:52 | 01:43:04 | 00:00:00 | |
| BIOWL1-15 | 2026-09-03 06:12:55 | 49.24491 | 8.41992 | 296° | 7km/h | 25204m | 5.5m/s | -50.7°C | 0% | 26.1hPa | 2.7V | 03:34:52 | 01:43:00 | 00:00:00 | |
| SONDE2-11 | 2026-09-03 06:12:55 | 49.24492 | 8.41989 | 277° | 9km/h | 25209m | 5.0m/s | -50.7°C | 0.6% | 26.1hPa | 2.7V | 00:00:00 | 00:00:00 | 00:00:00 | |
| HARRO8 | 2026-09-03 06:12:54 | 49.24492 | 8.41989 | 277° | 9km/h | 25209m | 5.0m/s | -50.7°C | 0.6% | 26.1hPa | 2.7V | 00:00:00 | 00:00:00 | 00:00:00 | |
| DM0DOS-11 | 2026-09-03 06:12:53 | 49.24490 | 8.41994 | 334° | 4km/h | 25198m | 5.6m/s | -50.7°C | 3.2% | 26.1hPa | 2.7V | 03:34:44 | 01:42:59 | 00:00:00 | |
| DL1XH-west | 2026-09-03 06:12:50 | 49.24489 | 8.41993 | 96° | 4km/h | 25188m | 4.5m/s | -50.7°C | 0% | 26.2hPa | 2.6V | 03:34:52 | 01:42:57 | 00:00:00 | |
| BIOWL9-15 | 2026-09-03 06:12:49 | 49.24491 | 8.41991 | 179° | 7km/h | 25177m | 6.0m/s | -50.6°C | 0.6% | 26.2hPa | 2.6V | 00:00:00 | 00:00:00 | 00:00:00 | |
| DL6DJ-15 | 2026-09-03 06:12:48 | 49.24494 | 8.41991 | 185° | 11km/h | 25172m | 4.6m/s | -50.7°C | 0.6% | 26.2hPa | 2.6V | 00:00:00 | 00:00:00 | 00:00:00 | |
| DM0DOS-11 | 2026-09-03 06:12:47 | 49.24508 | 8.41996 | 224° | 13km/h | 25147m | 5m/s | -50.5°C | 3.2% | 26.4hPa | 2.6V | 03:34:54 | 01:42:49 | 00:00:00 | |
| DK7TD | 2026-09-03 06:12:46 | 49.24497 | 8.41992 | 183° | 13km/h | 25167m | 4.9m/s | 0°C | 0% | 0hPa | 2.7V | 03:34:52 | 01:42:53 | 00:00:00 | |
| DL3AQ-11 | 2026-09-03 06:12:46 | 49.24501 | 8.41992 | 180° | 11km/h | 25162m | 6.1m/s | -50.6°C | 0.6% | 26.3hPa | 2.6V | 00:00:00 | 00:00:00 | 00:00:00 | |
| BIOWL1-15 | 2026-09-03 06:12:43 | 49.24506 | 8.41993 | 206° | 11km/h | 25152m | 4.3m/s | -50.5°C | 0% | 26.3hPa | 2.6V | 03:35:43 | 01:42:50 | 00:00:00 | |
| DL1XH-west | 2026-09-03 06:12:39 | 49.24514 | 8.42011 | 251° | 15km/h | 25131m | 4.3m/s | -50.7°C | 0% | 26.4hPa | 2.6V | 03:35:43 | 01:42:46 | 00:00:00 | |
| DK7TD | 2026-09-03 06:12:35 | 49.24517 | 8.42020 | 153° | 5km/h | 25112m | 4.7m/s | 0°C | 0% | 0hPa | 2.6V | 03:35:43 | 01:42:42 | 00:00:00 | |
| BIOWL1-15 | 2026-09-03 06:12:32 | 49.24528 | 8.42018 | 186° | 15km/h | 25091m | 4.8m/s | -50.7°C | 0% | 26.6hPa | 2.6V | 03:35:43 | 01:42:38 | 00:00:00 | |
| DL1XH-west | 2026-09-03 06:12:28 | 49.24538 | 8.42018 | 164° | 9km/h | 25074m | 5.6m/s | -50.9°C | 0% | 26.6hPa | 2.7V | 03:35:43 | 01:42:35 | 00:00:00 | |
| DK7TD | 2026-09-03 06:12:24 | 49.24546 | 8.42018 | 215° | 11km/h | 25054m | 5.6m/s | 0°C | 0% | 0hPa | 2.7V | 03:35:43 | 01:42:31 | 00:00:00 | |
| BIOWL1-15 | 2026-09-03 06:12:22 | 49.24550 | 8.42024 | 244° | 9km/h | 25044m | 4.6m/s | -51°C | 0% | 26.8hPa | 2.6V | 03:35:43 | 01:42:29 | 00:00:00 | |
| DL4BBY-15 | 2026-09-03 06:12:22 | 49.24549 | 8.42024 | 245° | 11km/h | 25044m | 4.5m/s | -51.7°C | 0% | 0hPa | 2.6V | 00:00:00 | 00:00:00 | 00:00:00 | |
| DB0UT-9 | 2026-09-03 06:12:21 | 49.24550 | 8.42024 | 245° | 9km/h | 25044m | 4.6m/s | -51.0°C | 0.6% | 26.8hPa | 2.6V | 03:35:00 | 00:00:00 | 00:00:00 | |
| DF3TZ-5 | 2026-09-03 06:12:18 | 49.24551 | 8.42035 | 227° | 7km/h | 25018m | 6.3m/s | -50.9°C | 0.6% | 26.9hPa | 2.6V | 00:00:00 | 00:00:00 | 00:00:00 | |
| DM0DOS-11 | 2026-09-03 06:12:17 | 49.24564 | 8.42039 | 175° | 7km/h | 24987m | 4.2m/s | -51°C | 3.3% | 27hPa | 2.6V | 03:35:25 | 01:42:18 | 00:00:00 | |
| DL1XH-west | 2026-09-03 06:12:17 | 49.24551 | 8.42035 | 227° | 7km/h | 25018m | 6.3m/s | -50.9°C | 0% | 26.9hPa | 2.6V | 03:35:43 | 01:42:24 | 00:00:00 | |
| DK7TD | 2026-09-03 06:12:12 | 49.24562 | 8.42039 | 165° | 9km/h | 24991m | 4.5m/s | 0°C | 0% | 0hPa | 2.7V | 03:35:43 | 01:42:19 | 00:00:00 | |
| BIOWL1-15 | 2026-09-03 06:12:12 | 49.24566 | 8.42039 | 197° | 9km/h | 24983m | 5.1m/s | -51.1°C | 0% | 27hPa | 2.6V | 03:35:43 | 01:42:17 | 00:00:00 | |
| DL1XH-west | 2026-09-03 06:12:07 | 49.24573 | 8.42049 | 238° | 15km/h | 24967m | 4.5m/s | -51°C | 0% | 27.1hPa | 2.7V | 03:35:43 | 01:42:14 | 00:00:00 | |
| DF7PN | 2026-09-03 06:12:07 | 49.24574 | 8.42054 | 249° | 13km/h | 24963m | 5.0m/s | -51.0°C | 0.6% | 27.1hPa | 2.7V | 00:00:00 | 00:00:00 | 00:00:00 | |
| DM0DOS-11 | 2026-09-03 06:12:06 | 49.24575 | 8.42065 | 248° | 4km/h | 24942m | 4.5m/s | -51°C | 3.2% | 27.2hPa | 2.7V | 03:35:34 | 01:42:09 | 00:00:00 | |
| BIOWL1-15 | 2026-09-03 06:12:04 | 49.24578 | 8.42069 | 218° | 11km/h | 24932m | 5m/s | -50.8°C | 0% | 27.2hPa | 2.7V | 03:35:43 | 01:42:07 | 00:00:00 | |
| DK7TD | 2026-09-03 06:12:01 | 49.24576 | 8.42067 | 223° | 7km/h | 24937m | 6.2m/s | 0°C | 0% | 0hPa | 2.7V | 03:35:43 | 01:42:08 | 00:00:00 | |
| OE5DRO-10 | 2026-09-03 06:12:01 | 49.24576 | 8.42067 | 223° | 16km/h | 24938m | 6.1m/s | 0°C | 0% | 0hPa | 2.7V | 03:35:00 | 00:00:00 | 00:00:00 | |
| DJ2KF-10 | 2026-09-03 06:12:00 | 49.24578 | 8.42069 | 218° | 15km/h | 24932m | 4.9m/s | -50.8°C | 3.2% | 27.2hPa | 2.7V | 00:00:00 | 01:42:07 | 00:00:00 | |
| DM7RM-13 | 2026-09-03 06:11:57 | 49.24583 | 8.42075 | 223° | 13km/h | 24923m | 5.8m/s | -50.9°C | 0.6% | 27.3hPa | 2.6V | 03:35:00 | 00:00:00 | 00:00:00 | |
| DM0DOS-11 | 2026-09-03 06:11:56 | 49.24601 | 8.42096 | 210° | 16km/h | 24891m | 4.1m/s | -50.8°C | 3.2% | 27.4hPa | 2.6V | 03:35:44 | 01:41:59 | 00:00:00 | |
| DL1XH-west | 2026-09-03 06:11:56 | 49.24587 | 8.42081 | 219° | 13km/h | 24911m | 4.2m/s | -50.8°C | 0% | 27.3hPa | 2.7V | 03:35:43 | 01:42:03 | 00:00:00 | |
| BIOWL1-15 | 2026-09-03 06:11:49 | 49.24610 | 8.42102 | 205° | 9km/h | 24875m | 4.3m/s | -50.9°C | 0% | 27.5hPa | 2.7V | 03:36:34 | 01:41:56 | 00:00:00 | |
| DF3TZ-5 | 2026-09-03 06:11:47 | 49.24618 | 8.42108 | 203° | 16km/h | 24859m | 5.1m/s | -51.0°C | 0.6% | 27.5hPa | 2.6V | 00:00:00 | 00:00:00 | 00:00:00 | |
| DL6DJ-15 | 2026-09-03 06:11:46 | 49.24622 | 8.42111 | 200° | 16km/h | 24855m | 4.9m/s | -51.0°C | 0.6% | 27.6hPa | 2.6V | 00:00:00 | 00:00:00 | 00:00:00 | |
| DL1XH-west | 2026-09-03 06:11:46 | 49.24618 | 8.42108 | 204° | 16km/h | 24859m | 5.1m/s | -51°C | 0% | 27.5hPa | 2.6V | 03:36:34 | 01:41:53 | 00:00:00 | |
| DK7TD | 2026-09-03 06:11:39 | 49.24647 | 8.42129 | 218° | 24km/h | 24822m | 4.4m/s | 0°C | 0% | 0hPa | 2.6V | 18:12:15 | 01:41:46 | 00:00:00 | |
| DL1XH-west | 2026-09-03 06:11:36 | 49.24659 | 8.42143 | 218° | 15km/h | 24808m | 5.9m/s | -51°C | 0% | 27.8hPa | 2.6V | 03:36:34 | 01:41:43 | 00:00:00 | |
| BIOWL1-15 | 2026-09-03 06:11:32 | 49.24686 | 8.42160 | 179° | 15km/h | 24767m | 5m/s | -51.2°C | 0% | 27.9hPa | 2.6V | 03:36:34 | 01:41:35 | 00:00:00 | |
| DK7TD | 2026-09-03 06:11:27 | 49.24690 | 8.42160 | 183° | 15km/h | 24763m | 4.4m/s | 0°C | 0% | 0hPa | 2.6V | 18:12:15 | 01:41:34 | 00:00:00 | |
| DL1XH-west | 2026-09-03 06:11:25 | 49.24696 | 8.42163 | 215° | 15km/h | 24753m | 6.2m/s | -51.3°C | 0% | 28hPa | 2.7V | 03:36:34 | 01:41:32 | 00:00:00 | |
| BIOWL1-15 | 2026-09-03 06:11:20 | 49.24712 | 8.42186 | 169° | 11km/h | 24719m | 4.7m/s | -51.3°C | 0% | 28.1hPa | 2.6V | 03:36:34 | 01:41:25 | 00:00:00 | |
| DK7TD | 2026-09-03 06:11:17 | 49.24715 | 8.42185 | 171° | 16km/h | 24713m | 5.7m/s | 0°C | 0% | 0hPa | 2.7V | 18:12:15 | 01:41:24 | 00:00:00 | |
| DL1XH-west | 2026-09-03 06:11:15 | 49.24725 | 8.42184 | 179° | 22km/h | 24703m | 4.2m/s | -51.4°C | 0% | 28.2hPa | 2.7V | 03:36:34 | 01:41:22 | 00:00:00 | |
| BIOWL1-15 | 2026-09-03 06:11:08 | 49.24757 | 8.42185 | 181° | 22km/h | 24669m | 4.8m/s | -51.7°C | 0% | 28.4hPa | 2.6V | 03:36:34 | 01:41:15 | 00:00:00 | |
| DK7TD | 2026-09-03 06:11:07 | 49.24762 | 8.42185 | 177° | 20km/h | 24664m | 4.7m/s | 0°C | 0% | 0hPa | 2.6V | 18:12:15 | 01:41:14 | 00:00:00 | |
| DM0DOS-11 | 2026-09-03 06:11:06 | 49.24789 | 8.42181 | 181° | 26km/h | 24638m | 5.7m/s | -51.8°C | 3.4% | 28.5hPa | 2.6V | 03:36:34 | 01:41:09 | 00:00:00 | |
| DL1XH-west | 2026-09-03 06:11:04 | 49.24777 | 8.42182 | 172° | 20km/h | 24649m | 4.4m/s | -51.8°C | 0% | 28.5hPa | 2.7V | 03:36:34 | 01:41:11 | 00:00:00 | |
| BIOWL1-15 | 2026-09-03 06:10:59 | 49.24819 | 8.42186 | 182° | 16km/h | 24614m | 4.4m/s | -51.7°C | 0% | 28.6hPa | 2.7V | 03:37:25 | 01:41:04 | 00:00:00 | |
| DL3AQ-11 | 2026-09-03 06:10:57 | 49.24823 | 8.42186 | 176° | 15km/h | 24610m | 4.0m/s | -51.7°C | 0.6% | 28.6hPa | 2.7V | 00:00:00 | 00:00:00 | 00:00:00 | |
| DM0DOS-11 | 2026-09-03 06:10:56 | 49.24847 | 8.42180 | 168° | 31km/h | 24591m | 4.1m/s | -51.6°C | 3.3% | 28.7hPa | 2.7V | 03:36:44 | 01:40:59 | 00:00:00 | |
| DL1XH-west | 2026-09-03 06:10:54 | 49.24833 | 8.42184 | 172° | 24km/h | 24601m | 5.4m/s | -51.7°C | 0% | 28.7hPa | 2.6V | 03:37:25 | 01:41:01 | 00:00:00 | |
| DO3MHA-11 | 2026-09-03 06:10:54 | 49.24833 | 8.42184 | 173° | 29km/h | 24601m | 5.3m/s | -51.7°C | 3.4% | 28.6hPa | 2.6V | 00:00:00 | 01:41:01 | 00:00:00 | |
| DL4BBY-15 | 2026-09-03 06:10:52 | 49.24847 | 8.42180 | 169° | 29km/h | 24592m | 4.0m/s | -52.4°C | 0% | 0hPa | 2.6V | 00:00:00 | 00:00:00 | 00:00:00 | |
| DF1GD-15 | 2026-09-03 06:10:51 | 49.24847 | 8.42180 | 169° | 31km/h | 24592m | 4.1m/s | -51.6°C | 0.7% | 28.7hPa | 2.6V | 03:37:00 | 00:00:00 | 00:00:00 | |
| NBG1-10 | 2026-09-03 06:10:50 | 49.24862 | 8.42174 | 164° | 29km/h | 24583m | 5.1m/s | -51.5°C | 3.2% | 28.7hPa | 2.6V | 00:00:00 | 01:40:57 | 00:00:00 | |
| DL0LBS | 2026-09-03 06:10:49 | 49.24862 | 8.42175 | 164° | 29km/h | 24583m | 5.2m/s | -51.6°C | 0.6% | 28.8hPa | 2.6V | 03:37:00 | 00:00:00 | 00:00:00 | |
| SFWM-10 | 2026-09-03 06:10:47 | 49.24876 | 8.42167 | 161° | 27km/h | 24573m | 4.4m/s | -51.7°C | 0.6% | 28.8hPa | 2.6V | 00:00:00 | 00:00:00 | 00:00:00 | |
| DL1XH1-15 | 2026-09-03 06:10:46 | 49.24917 | 8.42147 | 149° | 27km/h | 24543m | 6.1m/s | -51.8°C | 3.4% | 28.9hPa | 2.6V | 03:36:54 | 01:40:49 | 00:00:00 | |
| BIOWL1-15 | 2026-09-03 06:10:46 | 49.24889 | 8.42161 | 165° | 29km/h | 24563m | 6m/s | -51.8°C | 0% | 28.9hPa | 2.7V | 03:37:25 | 01:40:53 | 00:00:00 | |
| DL3AQ-11 | 2026-09-03 06:10:46 | 49.24896 | 8.42158 | 167° | 29km/h | 24558m | 5.3m/s | -51.8°C | 0.6% | 28.9hPa | 2.6V | 00:00:00 | 00:00:00 | 00:00:00 | |
| DL1XH-west | 2026-09-03 06:10:44 | 49.24903 | 8.42155 | 165° | 29km/h | 24553m | 4.3m/s | -51.8°C | 0% | 28.9hPa | 2.6V | 03:37:25 | 01:40:51 | 00:00:00 | |
| BIOWL1-15 | 2026-09-03 06:10:38 | 49.24955 | 8.42099 | 146° | 37km/h | 24515m | 4.1m/s | -52.1°C | 0% | 29hPa | 2.6V | 03:37:25 | 01:40:43 | 00:00:00 | |
| DB0UT-7 | 2026-09-03 06:10:38 | 49.24940 | 8.42116 | 142° | 27km/h | 24524m | 5.7m/s | -51.9°C | 3.3% | 28.9hPa | 2.7V | 00:00:00 | 01:40:45 | 00:00:00 | |
| DJ2DS-15 | 2026-09-03 06:10:37 | 49.24955 | 8.42099 | 146° | 35km/h | 24515m | 4.1m/s | -52.1°C | 0.6% | 29.0hPa | 2.7V | 00:00:00 | 00:00:00 | 00:00:00 | |
| IW2NTF | 2026-09-03 06:10:36 | 49.24984 | 8.42066 | 141° | 26km/h | 24489m | 5.9m/s | -52.2°C | 3.4% | 29.2hPa | 2.7V | 03:37:05 | 01:40:38 | 00:00:00 | |
| DM0DOS-11 | 2026-09-03 06:10:36 | 49.24979 | 8.42072 | 139° | 26km/h | 24495m | 4.4m/s | -52.1°C | 3.4% | 29.1hPa | 2.6V | 03:37:04 | 01:40:39 | 00:00:00 | |
| DL1XH-west | 2026-09-03 06:10:33 | 49.24974 | 8.42078 | 140° | 26km/h | 24499m | 4.7m/s | -52°C | 0% | 29.1hPa | 2.6V | 03:37:25 | 01:40:40 | 00:00:00 | |
| DK7TD | 2026-09-03 06:10:31 | 49.24984 | 8.42066 | 141° | 26km/h | 24489m | 5.9m/s | 0°C | 0% | 0hPa | 2.7V | 18:12:15 | 01:40:38 | 00:00:00 | |
| DL3AQ-11 | 2026-09-03 06:10:30 | 49.24994 | 8.42053 | 136° | 26km/h | 24480m | 4.0m/s | -52.1°C | 0.7% | 29.2hPa | 2.6V | 00:00:00 | 00:00:00 | 00:00:00 | |
| DB0NH | 2026-09-03 06:10:29 | 49.24993 | 8.42053 | 137° | 24km/h | 24480m | 3.9m/s | -52.1°C | 3.4% | 29.1hPa | 2.6V | 03:37:00 | 01:40:36 | 00:00:00 | |
| DH7VM-15 | 2026-09-03 06:10:28 | 49.24993 | 8.42053 | 137° | 26km/h | 24480m | 4.0m/s | -52.1°C | 0.7% | 29.2hPa | 2.7V | 00:00:00 | 00:00:00 | 00:00:00 | |
| DN1GJH-1 | 2026-09-03 06:10:27 | 49.24998 | 8.42045 | 131° | 27km/h | 24476m | 4.5m/s | -52.1°C | 0.7% | 29.2hPa | 2.7V | 03:37:00 | 00:00:00 | 00:00:00 | |
| DL1XH1-15 | 2026-09-03 06:10:26 | 49.25021 | 8.41986 | 130° | 31km/h | 24445m | 3.6m/s | -52.5°C | 3.5% | 29.4hPa | 2.7V | 03:37:14 | 01:40:29 | 00:00:00 | |
| BIOWL1-15 | 2026-09-03 06:10:25 | 49.25009 | 8.42017 | 115° | 31km/h | 24460m | 4.5m/s | -52.2°C | 0% | 29.3hPa | 2.6V | 03:37:25 | 01:40:32 | 00:00:00 | |
| DL1XH-west | 2026-09-03 06:10:23 | 49.25017 | 8.41995 | 126° | 33km/h | 24450m | 4.9m/s | -52.4°C | 0% | 29.3hPa | 2.7V | 03:37:25 | 01:40:30 | 00:00:00 | |
| DL4BBY-15 | 2026-09-03 06:10:22 | 49.25021 | 8.41986 | 131° | 18km/h | 24446m | 3.6m/s | -53.2°C | 0% | 0hPa | 2.6V | 00:00:00 | 00:00:00 | 00:00:00 | |
| DJTTGO | 2026-09-03 06:10:20 | 49.25026 | 8.41977 | 133° | 29km/h | 24442m | 4.0m/s | -52.5°C | 0.7% | 29.4hPa | 2.6V | 03:37:00 | 00:00:00 | 00:00:00 | |
| SONDE2-11 | 2026-09-03 06:10:19 | 49.25034 | 8.41962 | 124° | 20km/h | 24432m | 5.4m/s | -52.5°C | 0.7% | 29.4hPa | 2.6V | 00:00:00 | 00:00:00 | 00:00:00 | |
| DB0UT-9 | 2026-09-03 06:10:18 | 49.25034 | 8.41962 | 125° | 22km/h | 24432m | 5.4m/s | -52.5°C | 0.7% | 29.4hPa | 2.6V | 03:37:00 | 00:00:00 | 00:00:00 | |
| DL3AQ-11 | 2026-09-03 06:10:17 | 49.25043 | 8.41945 | 134° | 18km/h | 24418m | 5.7m/s | -52.5°C | 0.7% | 29.5hPa | 2.6V | 00:00:00 | 00:00:00 | 00:00:00 | |
| DL1XH1-15 | 2026-09-03 06:10:16 | 49.25060 | 8.41921 | 129° | 22km/h | 24398m | 6m/s | -52.5°C | 3.5% | 29.6hPa | 2.6V | 03:37:24 | 01:40:19 | 00:00:00 | |
| BIOWL1-15 | 2026-09-03 06:10:15 | 49.25047 | 8.41939 | 141° | 22km/h | 24412m | 5.3m/s | -52.5°C | 0% | 29.5hPa | 2.7V | 03:37:25 | 01:40:22 | 00:00:00 | |
| DL1XH-west | 2026-09-03 06:10:12 | 49.25060 | 8.41921 | 129° | 24km/h | 24398m | 6m/s | -52.5°C | 0% | 29.6hPa | 2.6V | 03:37:25 | 01:40:19 | 00:00:00 | |
| DK5PH-5 | 2026-09-03 06:10:11 | 49.25063 | 8.41914 | 120° | 18km/h | 24393m | 4.9m/s | -52.5°C | 3.5% | 29.5hPa | 2.7V | 00:00:00 | 01:40:18 | 00:00:00 | |
| DD1CC8 | 2026-09-03 06:10:10 | 49.25068 | 8.41898 | 117° | 24km/h | 24383m | 5.6m/s | -52.6°C | 0.7% | 29.6hPa | 2.7V | 00:00:00 | 00:00:00 | 00:00:00 | |
| DL8DAS-14 | 2026-09-03 06:10:09 | 49.25071 | 8.41889 | 120° | 24km/h | 24377m | 5.4m/s | -52.5°C | 0.7% | 29.7hPa | 2.7V | 00:00:00 | 00:00:00 | 00:00:00 | |
| DB0UT-7 | 2026-09-03 06:10:08 | 49.25071 | 8.41889 | 121° | 18km/h | 24378m | 5.4m/s | -52.5°C | 3.5% | 29.6hPa | 2.7V | 00:00:00 | 00:00:00 | 00:00:00 | |
| DM0DOS-11 | 2026-09-03 06:10:06 | 49.25082 | 8.41851 | 118° | 13km/h | 24349m | 5m/s | -52.5°C | 3.5% | 29.8hPa | 2.7V | 03:37:34 | 01:40:09 | 00:00:00 | |
| BIOWL1-15 | 2026-09-03 06:10:06 | 49.25080 | 8.41861 | 100° | 15km/h | 24357m | 4.6m/s | -52.4°C | 0% | 29.8hPa | 2.7V | 03:38:16 | 01:40:11 | 00:00:00 | |
| DK7TD | 2026-09-03 06:10:02 | 49.25082 | 8.41851 | 118° | 13km/h | 24349m | 5m/s | 0°C | 0% | 0hPa | 2.7V | 18:12:15 | 01:40:09 | 00:00:00 | |
| DL1XH-west | 2026-09-03 06:10:01 | 49.25084 | 8.41847 | 136° | 15km/h | 24343m | 5.6m/s | -52.4°C | 0% | 29.8hPa | 2.6V | 03:38:16 | 01:40:08 | 00:00:00 | |
| DB0ND-19 | 2026-09-03 06:10:01 | 49.25087 | 8.41844 | 147° | 15km/h | 24339m | 4.7m/s | -52.5°C | 0.7% | 29.9hPa | 2.6V | 00:00:00 | 00:00:00 | 00:00:00 | |
| IW2NTF | 2026-09-03 06:10:00 | 49.25098 | 8.41825 | 109° | 15km/h | 24315m | 4.3m/s | -52.6°C | 3.6% | 30hPa | 2.6V | 03:37:41 | 01:40:02 | 00:00:00 | |
| DM3KS-11 | 2026-09-03 06:09:57 | 49.25095 | 8.41834 | 126° | 11km/h | 24324m | 5.7m/s | -52.5°C | 0.7% | 29.9hPa | 2.7V | 00:00:00 | 00:00:00 | 00:00:00 | |
| DL1XH1-15 | 2026-09-03 06:09:56 | 49.25105 | 8.41806 | 124° | 22km/h | 24299m | 4.7m/s | -52.5°C | 3.5% | 30hPa | 2.7V | 03:37:44 | 01:39:59 | 00:00:00 | |
| BIOWL1-15 | 2026-09-03 06:09:56 | 49.25100 | 8.41819 | 114° | 16km/h | 24310m | 5.6m/s | -52.6°C | 0% | 30hPa | 2.6V | 03:38:16 | 01:40:01 | 00:00:00 | |
| DJ2DS-15 | 2026-09-03 06:09:54 | 49.25099 | 8.41819 | 114° | 22km/h | 24310m | 5.5m/s | -52.5°C | 3.5% | 29.9hPa | 2.7V | 03:37:00 | 01:40:01 | 00:00:00 | |
| DL4BBY-15 | 2026-09-03 06:09:52 | 49.25105 | 8.41806 | 125° | 24km/h | 24299m | 4.6m/s | -53.3°C | 0% | 0hPa | 2.7V | 00:00:00 | 00:00:00 | 00:00:00 | |
| IW2NTF | 2026-09-03 06:09:50 | 49.25125 | 8.41763 | 139° | 24km/h | 24264m | 5m/s | -52.4°C | 3.5% | 30.2hPa | 2.7V | 03:37:51 | 01:39:52 | 00:00:00 | |
| DL1XH-west | 2026-09-03 06:09:50 | 49.25111 | 8.41792 | 122° | 22km/h | 24289m | 5.5m/s | -52.5°C | 0% | 30.1hPa | 2.7V | 03:38:16 | 01:39:57 | 00:00:00 | |
| DL3AQ-11 | 2026-09-03 06:09:49 | 49.25113 | 8.41786 | 119° | 18km/h | 24284m | 5.3m/s | -52.5°C | 0.7% | 30.1hPa | 2.6V | 00:00:00 | 00:00:00 | 00:00:00 | |
| HARRO8 | 2026-09-03 06:09:48 | 49.25118 | 8.41774 | 126° | 16km/h | 24274m | 4.9m/s | -52.5°C | 0.7% | 30.1hPa | 2.6V | 00:00:00 | 00:00:00 | 00:00:00 | |
| DL8DAS-15 | 2026-09-03 06:09:47 | 49.25116 | 8.41779 | 121° | 16km/h | 24279m | 4.6m/s | -52.5°C | 0.7% | 30.1hPa | 2.6V | 00:00:00 | 00:00:00 | 00:00:00 | |
| DM0DOS-11 | 2026-09-03 06:09:46 | 49.25139 | 8.41742 | 127° | 24km/h | 24250m | 5.6m/s | -52.4°C | 3.5% | 30.3hPa | 2.6V | 03:37:54 | 01:39:49 | 00:00:00 | |
| BIOWL1-15 | 2026-09-03 06:09:45 | 49.25135 | 8.41749 | 134° | 26km/h | 24255m | 4.1m/s | -52.4°C | 0% | 30.2hPa | 2.6V | 03:38:16 | 01:39:50 | 00:00:00 | |
| NBG1-10 | 2026-09-03 06:09:44 | 49.25130 | 8.41756 | 138° | 27km/h | 24259m | 4.1m/s | -52.4°C | 3.5% | 30.2hPa | 2.6V | 03:37:00 | 01:39:51 | 00:00:00 | |
| BIOWL9-15 | 2026-09-03 06:09:43 | 49.25139 | 8.41742 | 127° | 24km/h | 24250m | 5.6m/s | -52.4°C | 0.7% | 30.3hPa | 2.6V | 00:00:00 | 00:00:00 | 00:00:00 | |
| HEMX73-11 | 2026-09-03 06:09:42 | 49.25139 | 8.41742 | 128° | 24km/h | 24250m | 5.6m/s | -52.4°C | 0.7% | 30.3hPa | 2.6V | 03:38:00 | 00:00:00 | 00:00:00 | |
| DK5PH-5 | 2026-09-03 06:09:41 | 49.25142 | 8.41734 | 121° | 27km/h | 24245m | 5.1m/s | -52.4°C | 3.5% | 30.2hPa | 2.6V | 00:00:00 | 01:39:48 | 00:00:00 | |
| IW2NTF | 2026-09-03 06:09:40 | 49.25165 | 8.41698 | 142° | 22km/h | 24214m | 6m/s | -52.5°C | 3.6% | 30.4hPa | 2.6V | 03:38:01 | 01:39:42 | 00:00:00 | |
| DL1XH-west | 2026-09-03 06:09:39 | 49.25148 | 8.41720 | 127° | 22km/h | 24236m | 4.7m/s | -52.4°C | 0% | 30.3hPa | 2.7V | 03:38:16 | 01:39:46 | 00:00:00 | |
| DF8AY | 2026-09-03 06:09:38 | 49.25152 | 8.41714 | 136° | 22km/h | 24230m | 6.1m/s | 0°C | 0% | 0hPa | 2.7V | 18:12:15 | 01:39:45 | 00:00:00 | |
| DB0UT-7 | 2026-09-03 06:09:38 | 49.25151 | 8.41714 | 136° | 27km/h | 24231m | 6.1m/s | -52.4°C | 3.6% | 30.3hPa | 2.7V | 03:37:00 | 01:39:45 | 00:00:00 | |
| DL3AQ-11 | 2026-09-03 06:09:37 | 49.25161 | 8.41703 | 144° | 22km/h | 24220m | 4.9m/s | -52.5°C | 0.7% | 30.4hPa | 2.7V | 00:00:00 | 00:00:00 | 00:00:00 | |
| DL1XH1-15 | 2026-09-03 06:09:36 | 49.25177 | 8.41679 | 134° | 26km/h | 24199m | 5m/s | -52.4°C | 3.5% | 30.5hPa | 2.7V | 03:38:04 | 01:39:39 | 00:00:00 | |
| BIOWL1-15 | 2026-09-03 06:09:34 | 49.25178 | 8.41680 | 135° | 26km/h | 24199m | 5m/s | -52.4°C | 0% | 30.5hPa | 2.7V | 03:38:16 | 01:39:39 | 00:00:00 | |
| DJ2DS-15 | 2026-09-03 06:09:34 | 49.25169 | 8.41692 | 137° | 27km/h | 24209m | 5.2m/s | -52.4°C | 3.6% | 30.4hPa | 2.7V | 00:00:00 | 01:39:41 | 00:00:00 | |
| DM7RM-13 | 2026-09-03 06:09:32 | 49.25173 | 8.41686 | 134° | 22km/h | 24204m | 4.2m/s | -52.4°C | 0.7% | 30.5hPa | 2.6V | 03:38:00 | 00:00:00 | 00:00:00 | |
| DF7PN | 2026-09-03 06:09:31 | 49.25182 | 8.41672 | 135° | 27km/h | 24194m | 5.9m/s | -52.5°C | 0.7% | 30.5hPa | 2.6V | 00:00:00 | 00:00:00 | 00:00:00 | |
| IW2NTF | 2026-09-03 06:09:30 | 49.25208 | 8.41621 | 121° | 26km/h | 24164m | 4.5m/s | -52.4°C | 3.4% | 30.7hPa | 2.6V | 03:38:11 | 01:39:32 | 00:00:00 | |
| DL1XH-west | 2026-09-03 06:09:28 | 49.25197 | 8.41647 | 126° | 29km/h | 24179m | 5.6m/s | -52.4°C | 0% | 30.6hPa | 2.7V | 03:38:16 | 01:39:35 | 00:00:00 | |
| BIOWL1-15 | 2026-09-03 06:09:22 | 49.25221 | 8.41597 | 135° | 27km/h | 24148m | 4.1m/s | -52.4°C | 0% | 30.8hPa | 2.6V | 03:38:16 | 01:39:29 | 00:00:00 | |
| DF8AY | 2026-09-03 06:09:21 | 49.25226 | 8.41589 | 131° | 27km/h | 24144m | 5m/s | 0°C | 0% | 0hPa | 2.6V | 18:12:15 | 01:39:28 | 00:00:00 | |
| DL1XH-west | 2026-09-03 06:09:18 | 49.25236 | 8.41563 | 113° | 29km/h | 24128m | 4.4m/s | -52.4°C | 0% | 30.9hPa | 2.6V | 03:39:07 | 01:39:25 | 00:00:00 | |
| HARRO8 | 2026-09-03 06:09:17 | 49.25243 | 8.41541 | 117° | 33km/h | 24118m | 5.7m/s | -52.5°C | 0.7% | 30.9hPa | 2.7V | 00:00:00 | 00:00:00 | 00:00:00 | |
| DM0DOS-11 | 2026-09-03 06:09:16 | 49.25261 | 8.41496 | 114° | 31km/h | 24097m | 5.9m/s | -52.6°C | 3.5% | 31hPa | 2.7V | 03:38:24 | 01:39:19 | 00:00:00 | |
| BIOWL1-15 | 2026-09-03 06:09:11 | 49.25263 | 8.41486 | 106° | 27km/h | 24092m | 5.6m/s | -52.6°C | 0% | 31.1hPa | 2.7V | 03:39:07 | 01:39:18 | 00:00:00 | |
| DK5PH-5 | 2026-09-03 06:09:11 | 49.25263 | 8.41486 | 106° | 27km/h | 24092m | 5.6m/s | -52.5°C | 3.5% | 31.0hPa | 2.7V | 03:38:00 | 01:39:18 | 00:00:00 | |
| IW2NTF | 2026-09-03 06:09:10 | 49.25270 | 8.41427 | 99° | 27km/h | 24062m | 4.7m/s | -52.8°C | 3.5% | 31.1hPa | 2.7V | 03:38:31 | 01:39:12 | 00:00:00 | |
| DL1XH-west | 2026-09-03 06:09:07 | 49.25268 | 8.41447 | 105° | 26km/h | 24071m | 4.9m/s | -52.7°C | 0% | 31.1hPa | 2.7V | 03:39:07 | 01:39:14 | 00:00:00 | |
| DL8DAS-14 | 2026-09-03 06:09:07 | 49.25269 | 8.41437 | 104° | 26km/h | 24067m | 4.3m/s | -52.7°C | 0.7% | 31.1hPa | 2.6V | 00:00:00 | 00:00:00 | 00:00:00 | |
| DL1XH1-15 | 2026-09-03 06:09:06 | 49.25272 | 8.41392 | 93° | 33km/h | 24046m | 4.6m/s | -52.9°C | 3.5% | 31.3hPa | 2.6V | 03:38:34 | 01:39:09 | 00:00:00 | |
| BIOWL1-15 | 2026-09-03 06:09:02 | 49.25275 | 8.41367 | 104° | 33km/h | 24035m | 5.8m/s | -52.9°C | 0% | 31.3hPa | 2.7V | 03:39:07 | 01:39:07 | 00:00:00 | |
| DJTTGO | 2026-09-03 06:09:01 | 49.25272 | 8.41392 | 95° | 33km/h | 24047m | 4.6m/s | -52.9°C | 0.7% | 31.3hPa | 2.7V | 00:00:00 | 00:00:00 | 00:00:00 | |
| IW2NTF | 2026-09-03 06:09:00 | 49.25282 | 8.41308 | 86° | 27km/h | 24010m | 4.7m/s | -53.1°C | 3.6% | 31.4hPa | 2.7V | 03:38:41 | 01:39:02 | 00:00:00 | |
| DF7PN | 2026-09-03 06:09:00 | 49.25275 | 8.41367 | 104° | 33km/h | 24036m | 5.8m/s | -52.9°C | 0.7% | 31.3hPa | 2.6V | 00:00:00 | 00:00:00 | 00:00:00 | |
| DO1YAY-16 | 2026-09-03 06:08:59 | 49.25277 | 8.41355 | 106° | 33km/h | 24030m | 4.5m/s | -52.9°C | 0.7% | 31.3hPa | 2.6V | 00:00:00 | 00:00:00 | 00:00:00 | |
| DB0ND-19 | 2026-09-03 06:08:58 | 49.25280 | 8.41342 | 105° | 31km/h | 24026m | 4.1m/s | -53.0°C | 0.7% | 31.3hPa | 2.6V | 00:00:00 | 00:00:00 | 00:00:00 | |
| DL3AQ-11 | 2026-09-03 06:08:57 | 49.25282 | 8.41308 | 86° | 27km/h | 24011m | 4.7m/s | -53.1°C | 0.7% | 31.4hPa | 2.6V | 00:00:00 | 00:00:00 | 00:00:00 | |
| DM0DOS-11 | 2026-09-03 06:08:56 | 49.25280 | 8.41280 | 90° | 22km/h | 23995m | 5.5m/s | -53.1°C | 3.6% | 31.5hPa | 2.6V | 03:38:44 | 01:38:59 | 00:00:00 | |
| DL1XH-west | 2026-09-03 06:08:56 | 49.25282 | 8.41319 | 93° | 29km/h | 24015m | 5.4m/s | -53.1°C | 0% | 31.4hPa | 2.6V | 03:39:07 | 01:39:03 | 00:00:00 | |
| BIOWL1-15 | 2026-09-03 06:08:53 | 49.25282 | 8.41254 | 95° | 26km/h | 23981m | 5.4m/s | -53.2°C | 0% | 31.6hPa | 2.7V | 03:39:07 | 01:38:56 | 00:00:00 | |
| DL4BBY-15 | 2026-09-03 06:08:52 | 49.25280 | 8.41280 | 91° | 22km/h | 23996m | 5.5m/s | -53.9°C | 0% | 0hPa | 2.6V | 00:00:00 | 00:00:00 | 00:00:00 | |
| IW2NTF | 2026-09-03 06:08:51 | 49.25280 | 8.41209 | 78° | 27km/h | 23962m | 5.1m/s | -53.1°C | 3.7% | 31.6hPa | 2.6V | 03:38:51 | 01:38:52 | 00:00:00 | |
| HTAHTA | 2026-09-03 06:08:50 | 49.25282 | 8.41263 | 97° | 22km/h | 23986m | 4.3m/s | -53.2°C | 0.7% | 31.5hPa | 2.7V | 00:00:00 | 00:00:00 | 00:00:00 | |
| DJ2DS-15 | 2026-09-03 06:08:49 | 49.25283 | 8.41243 | 88° | 27km/h | 23976m | 5.4m/s | -53.1°C | 0.7% | 31.6hPa | 2.7V | 00:00:00 | 00:00:00 | 00:00:00 | |
| DL1XH1-15 | 2026-09-03 06:08:46 | 49.25276 | 8.41182 | 74° | 22km/h | 23947m | 4.4m/s | -53.1°C | 3.6% | 31.7hPa | 2.7V | 03:38:54 | 01:38:49 | 00:00:00 | |
| DL1XH-west | 2026-09-03 06:08:46 | 49.25281 | 8.41220 | 80° | 31km/h | 23967m | 3.7m/s | -53.1°C | 0% | 31.6hPa | 2.6V | 03:39:07 | 01:38:53 | 00:00:00 | |
| HARRO8 | 2026-09-03 06:08:46 | 49.25280 | 8.41209 | 78° | 27km/h | 23962m | 5.1m/s | -53.2°C | 0.7% | 31.6hPa | 2.7V | 00:00:00 | 00:00:00 | 00:00:00 | |
| DO2KSM | 2026-09-03 06:08:45 | 49.25281 | 8.41220 | 81° | 31km/h | 23967m | 3.7m/s | -53.1°C | 0% | 0hPa | 2.7V | 00:00:00 | 00:00:00 | 00:00:00 | |
| OE5DXL-15 | 2026-09-03 06:08:43 | 49.25277 | 8.41190 | 79° | 18km/h | 23952m | 5.2m/s | 0°C | 0% | 0hPa | 2.7V | 00:00:00 | 00:00:00 | 00:00:00 | |
| DN1GJH-1 | 2026-09-03 06:08:42 | 49.25277 | 8.41190 | 79° | 22km/h | 23952m | 5.2m/s | -53.0°C | 0.8% | 31.7hPa | 2.7V | 03:39:00 | 00:00:00 | 00:00:00 | |
| BIOWL9-15 | 2026-09-03 06:08:41 | 49.25272 | 8.41166 | 65° | 24km/h | 23937m | 6.1m/s | -53.1°C | 0.7% | 31.8hPa | 2.7V | 00:00:00 | 00:00:00 | 00:00:00 | |
| IW2NTF | 2026-09-03 06:08:40 | 49.25260 | 8.41128 | 66° | 16km/h | 23910m | 4.5m/s | -53.1°C | 3.6% | 31.9hPa | 2.7V | 03:39:01 | 01:38:42 | 00:00:00 | |
| BIOWL1-15 | 2026-09-03 06:08:39 | 49.25269 | 8.41157 | 63° | 26km/h | 23931m | 4.9m/s | -53.1°C | 0% | 31.8hPa | 2.6V | 03:39:07 | 01:38:46 | 00:00:00 | |
| DB0UT-7 | 2026-09-03 06:08:38 | 49.25266 | 8.41149 | 64° | 18km/h | 23926m | 4.8m/s | -53.1°C | 3.6% | 31.8hPa | 2.6V | 00:00:00 | 01:38:45 | 00:00:00 | |
| DM0DOS-11 | 2026-09-03 06:08:36 | 49.25254 | 8.41110 | 66° | 20km/h | 23894m | 4.8m/s | -53.1°C | 3.6% | 32hPa | 2.6V | 03:39:04 | 01:38:39 | 00:00:00 | |
| DL1XH-west | 2026-09-03 06:08:35 | 49.25260 | 8.41128 | 66° | 16km/h | 23910m | 4.5m/s | -53.1°C | 0% | 31.9hPa | 2.7V | 03:39:07 | 01:38:42 | 00:00:00 | |
| DJ2DS-15 | 2026-09-03 06:08:34 | 49.25258 | 8.41122 | 66° | 18km/h | 23905m | 4.8m/s | -53.0°C | 3.7% | 31.9hPa | 2.6V | 03:39:00 | 01:38:41 | 00:00:00 | |
| IW2NTF | 2026-09-03 06:08:30 | 49.25250 | 8.41061 | 71° | 20km/h | 23858m | 5.6m/s | -52.9°C | 3.6% | 32.2hPa | 2.7V | 03:39:11 | 01:38:32 | 00:00:00 | |
| BIOWL1-15 | 2026-09-03 06:08:29 | 49.25251 | 8.41088 | 91° | 16km/h | 23879m | 6.1m/s | -53.1°C | 0% | 32.1hPa | 2.7V | 03:39:07 | 01:38:36 | 00:00:00 | |
| DO1YAY-16 | 2026-09-03 06:08:28 | 49.25251 | 8.41082 | 96° | 16km/h | 23874m | 4.6m/s | -53.1°C | 0.7% | 32.1hPa | 2.6V | 00:00:00 | 00:00:00 | 00:00:00 | |
| DB0ND-19 | 2026-09-03 06:08:27 | 49.25252 | 8.41075 | 92° | 16km/h | 23869m | 4.4m/s | -53.1°C | 0.7% | 32.1hPa | 2.6V | 00:00:00 | 00:00:00 | 00:00:00 | |
| DM0DOS-11 | 2026-09-03 06:08:26 | 49.25243 | 8.41043 | 46° | 16km/h | 23842m | 5.8m/s | -52.9°C | 3.7% | 32.2hPa | 2.6V | 03:39:14 | 01:38:29 | 00:00:00 | |
| DL1XH-west | 2026-09-03 06:08:25 | 49.25250 | 8.41061 | 72° | 20km/h | 23858m | 5.6m/s | -52.9°C | 0% | 32.2hPa | 2.7V | 03:39:58 | 01:38:32 | 00:00:00 | |
| DM3KS-11 | 2026-09-03 06:08:24 | 49.25248 | 8.41054 | 61° | 18km/h | 23853m | 4.8m/s | -52.9°C | 0.7% | 32.2hPa | 2.6V | 00:00:00 | 00:00:00 | 00:00:00 | |
| SFWM-10 | 2026-09-03 06:08:23 | 49.25248 | 8.41054 | 62° | 20km/h | 23853m | 4.8m/s | -52.9°C | 0.7% | 32.2hPa | 2.6V | 03:39:00 | 00:00:00 | 00:00:00 | |
| DL4BBY-15 | 2026-09-03 06:08:22 | 49.25243 | 8.41042 | 47° | 15km/h | 23843m | 5.7m/s | -53.6°C | 0% | 0hPa | 2.6V | 00:00:00 | 00:00:00 | 00:00:00 | |
| DN1GJH-1 | 2026-09-03 06:08:21 | 49.25243 | 8.41042 | 47° | 16km/h | 23843m | 5.8m/s | -52.9°C | 0.8% | 32.2hPa | 2.6V | 03:39:00 | 00:00:00 | 00:00:00 | |
| IW2NTF | 2026-09-03 06:08:20 | 49.25217 | 8.41012 | 41° | 15km/h | 23805m | 6.2m/s | -52.8°C | 3.5% | 32.5hPa | 2.6V | 03:39:21 | 01:38:22 | 00:00:00 | |
| BIOWL1-15 | 2026-09-03 06:08:18 | 49.25228 | 8.41026 | 38° | 22km/h | 23821m | 5.6m/s | -52.9°C | 0% | 32.4hPa | 2.6V | 03:39:58 | 01:38:25 | 00:00:00 | |
| DL1XH-west | 2026-09-03 06:08:14 | 49.25215 | 8.41009 | 42° | 11km/h | 23800m | 4.9m/s | -52.8°C | 0% | 32.5hPa | 2.6V | 03:39:58 | 01:38:21 | 00:00:00 | |
| DJ2DS-15 | 2026-09-03 06:08:14 | 49.25215 | 8.41009 | 43° | 15km/h | 23800m | 4.9m/s | -52.8°C | 3.6% | 32.4hPa | 2.6V | 00:00:00 | 01:38:21 | 00:00:00 | |
| OE5DXL-15 | 2026-09-03 06:08:13 | 49.25213 | 8.41006 | 44° | 13km/h | 23795m | 4.8m/s | 0°C | 0% | 0hPa | 2.6V | 03:39:00 | 00:00:00 | 00:00:00 | |
| BIOWL7-15 | 2026-09-03 06:08:12 | 49.25211 | 8.41003 | 45° | 13km/h | 23789m | 6.2m/s | -52.7°C | 0.7% | 32.5hPa | 2.6V | 03:39:00 | 00:00:00 | 00:00:00 | |
| DK5PH-5 | 2026-09-03 06:08:11 | 49.25208 | 8.40999 | 42° | 15km/h | 23784m | 5.2m/s | -52.6°C | 3.5% | 32.5hPa | 2.6V | 00:00:00 | 01:38:18 | 00:00:00 | |
| IW2NTF | 2026-09-03 06:08:10 | 49.25190 | 8.40983 | 19° | 18km/h | 23752m | 6.2m/s | -52.9°C | 3.5% | 32.7hPa | 2.7V | 03:39:31 | 01:38:12 | 00:00:00 | |
| BIOWL1-15 | 2026-09-03 06:08:08 | 49.25200 | 8.40989 | 28° | 13km/h | 23768m | 6.3m/s | -52.8°C | 0% | 32.6hPa | 2.7V | 03:39:58 | 01:38:15 | 00:00:00 | |
| DB0UT-7 | 2026-09-03 06:08:08 | 49.25200 | 8.40989 | 29° | 13km/h | 23768m | 6.2m/s | -52.7°C | 3.5% | 32.6hPa | 2.7V | 00:00:00 | 00:00:00 | 00:00:00 | |
| DJTTGO | 2026-09-03 06:08:07 | 49.25200 | 8.40989 | 29° | 13km/h | 23768m | 6.3m/s | -52.8°C | 0.7% | 32.6hPa | 2.6V | 00:00:00 | 00:00:00 | 00:00:00 | |
| DM0DOS-11 | 2026-09-03 06:08:06 | 49.25175 | 8.40974 | 23° | 20km/h | 23737m | 4.5m/s | -53.1°C | 3.6% | 32.8hPa | 2.6V | 03:39:34 | 01:38:09 | 00:00:00 | |
| DL1XH-west | 2026-09-03 06:08:04 | 49.25185 | 8.40980 | 23° | 22km/h | 23746m | 5.8m/s | -52.9°C | 0% | 32.7hPa | 2.7V | 03:39:58 | 01:38:11 | 00:00:00 | |
| CB1BUN | 2026-09-03 06:08:01 | 49.25171 | 8.40971 | 23° | 16km/h | 23732m | 6.3m/s | -53.1°C | 0.7% | 32.8hPa | 2.6V | 03:39:00 | 00:00:00 | 00:00:00 | |
| IW2NTF | 2026-09-03 06:08:00 | 49.25155 | 8.40964 | 11° | 13km/h | 23699m | 5m/s | -53.2°C | 3.6% | 33hPa | 2.6V | 03:39:41 | 01:38:02 | 00:00:00 | |
| BIOWL1-15 | 2026-09-03 06:07:57 | 49.25161 | 8.40966 | 19° | 11km/h | 23710m | 6.1m/s | -53.1°C | 0% | 32.9hPa | 2.6V | 03:39:58 | 01:38:04 | 00:00:00 | |
| DB0UT-9 | 2026-09-03 06:07:56 | 49.25160 | 8.40966 | 19° | 11km/h | 23710m | 6.1m/s | -53.1°C | 0.8% | 32.9hPa | 2.7V | 03:39:00 | 00:00:00 | 00:00:00 | |
| DL1XH1-15 | 2026-09-03 06:07:55 | 49.25144 | 8.40965 | 346° | 16km/h | 23682m | 4.6m/s | -53.3°C | 3.7% | 33.1hPa | 2.7V | 03:39:44 | 01:37:59 | 00:00:00 | |
| DL1XH-west | 2026-09-03 06:07:54 | 49.25151 | 8.40963 | 360° | 13km/h | 23693m | 6.2m/s | -53.3°C | 0% | 33hPa | 2.7V | 03:39:58 | 01:38:01 | 00:00:00 | |
| DM3KS-11 | 2026-09-03 06:07:53 | 49.25125 | 8.40962 | 22° | 20km/h | 23660m | 4.3m/s | -53.3°C | 0.7% | 33.2hPa | 2.6V | 00:00:00 | 00:00:00 | 00:00:00 | |
| DL4BBY-15 | 2026-09-03 06:07:52 | 49.25145 | 8.40965 | 347° | 9km/h | 23683m | 4.5m/s | -54.1°C | 0% | 0hPa | 2.6V | 00:00:00 | 00:00:00 | 00:00:00 | |
| IW2NTF | 2026-09-03 06:07:50 | 49.25116 | 8.40955 | 32° | 5km/h | 23644m | 5.7m/s | -53.3°C | 3.7% | 33.2hPa | 2.6V | 03:39:51 | 01:37:52 | 00:00:00 | |
| BIOWL1-15 | 2026-09-03 06:07:46 | 49.25118 | 8.40957 | 26° | 11km/h | 23650m | 6.3m/s | -53.3°C | 0% | 33.2hPa | 2.7V | 03:39:58 | 01:37:53 | 00:00:00 | |
| DL1XH1-15 | 2026-09-03 06:07:45 | 49.25115 | 8.40951 | 105° | 5km/h | 23627m | 5.3m/s | -53.2°C | 3.6% | 33.3hPa | 2.7V | 03:39:54 | 01:37:49 | 00:00:00 | |
| DL1XH-west | 2026-09-03 06:07:43 | 49.25115 | 8.40953 | 103° | 4km/h | 23633m | 6.3m/s | -53.2°C | 0% | 33.3hPa | 2.6V | 03:39:58 | 01:37:50 | 00:00:00 | |
| DK5PH-5 | 2026-09-03 06:07:41 | 49.25116 | 8.40949 | 109° | 9km/h | 23622m | 4.6m/s | -53.2°C | 3.7% | 33.3hPa | 2.6V | 00:00:00 | 01:37:48 | 00:00:00 | |
| DO3MHA-11 | 2026-09-03 06:07:40 | 49.25116 | 8.40948 | 96° | 9km/h | 23617m | 5.1m/s | -53.3°C | 3.7% | 33.4hPa | 2.6V | 00:00:00 | 01:37:47 | 00:00:00 | |
| BIOWL9-15 | 2026-09-03 06:07:39 | 49.25115 | 8.40948 | 341° | 4km/h | 23606m | 4.9m/s | -53.2°C | 0.8% | 33.5hPa | 2.6V | 00:00:00 | 00:00:00 | 00:00:00 | |
| IW2NTF | 2026-09-03 06:07:38 | 49.25102 | 8.40935 | 43° | 18km/h | 23579m | 4.5m/s | -53.3°C | 3.6% | 33.6hPa | 2.6V | 03:40:03 | 01:37:40 | 00:00:00 | |
| BIOWL1-15 | 2026-09-03 06:07:38 | 49.25112 | 8.40947 | 25° | 11km/h | 23595m | 6.2m/s | -53.2°C | 0% | 33.5hPa | 2.7V | 03:40:49 | 01:37:43 | 00:00:00 | |
| DB0UT-7 | 2026-09-03 06:07:38 | 49.25115 | 8.40948 | 342° | 9km/h | 23606m | 4.9m/s | -53.1°C | 3.7% | 33.4hPa | 2.6V | 03:39:00 | 01:37:45 | 00:00:00 | |
| DL3AQ-11 | 2026-09-03 06:07:37 | 49.25112 | 8.40947 | 24° | 11km/h | 23595m | 6.2m/s | -53.2°C | 0.7% | 33.5hPa | 2.6V | 00:00:00 | 00:00:00 | 00:00:00 | |
| DJ2DS-15 | 2026-09-03 06:07:36 | 49.25112 | 8.40947 | 24° | 11km/h | 23595m | 6.2m/s | -53.2°C | 0.7% | 33.5hPa | 2.6V | 00:00:00 | 00:00:00 | 00:00:00 | |
| DL1XH1-15 | 2026-09-03 06:07:35 | 49.25099 | 8.40931 | 43° | 13km/h | 23574m | 5.8m/s | -53.2°C | 3.6% | 33.6hPa | 2.6V | 03:40:04 | 01:37:39 | 00:00:00 | |
| DL1XH-west | 2026-09-03 06:07:32 | 49.25099 | 8.40931 | 43° | 13km/h | 23574m | 5.8m/s | -53.2°C | 0% | 33.6hPa | 2.6V | 03:40:49 | 01:37:39 | 00:00:00 | |
| BIOWL1-15 | 2026-09-03 06:07:26 | 49.25097 | 8.40923 | 149° | 4km/h | 23542m | 4.7m/s | -53.2°C | 0% | 33.8hPa | 2.6V | 03:40:49 | 01:37:33 | 00:00:00 | |
| DL3AQ-11 | 2026-09-03 06:07:26 | 49.25098 | 8.40923 | 192° | 0km/h | 23537m | 5.9m/s | -53.2°C | 0.8% | 33.8hPa | 2.6V | 00:00:00 | 00:00:00 | 00:00:00 | |
| DM0DOS-11 | 2026-09-03 06:07:25 | 49.25097 | 8.40922 | 41° | 7km/h | 23521m | 5.1m/s | -53.3°C | 3.7% | 33.9hPa | 2.6V | 03:40:14 | 01:37:29 | 00:00:00 | |
| DL1XH-west | 2026-09-03 06:07:21 | 49.25095 | 8.40920 | 47° | 13km/h | 23515m | 6.5m/s | -53.3°C | 0% | 33.9hPa | 2.6V | 03:40:49 | 01:37:28 | 00:00:00 | |
| DB0NH | 2026-09-03 06:07:20 | 49.25092 | 8.40915 | 51° | 15km/h | 23509m | 5.2m/s | -53.2°C | 3.6% | 33.9hPa | 2.7V | 00:00:00 | 01:37:27 | 00:00:00 | |
| CB1BUN | 2026-09-03 06:07:19 | 49.25092 | 8.40915 | 51° | 18km/h | 23509m | 5.3m/s | -53.3°C | 0.7% | 34.0hPa | 2.7V | 03:40:00 | 00:00:00 | 00:00:00 | |
| HTAHTA | 2026-09-03 06:07:17 | 49.25083 | 8.40899 | 47° | 13km/h | 23494m | 5.8m/s | -53.2°C | 0.7% | 34.1hPa | 2.7V | 00:00:00 | 00:00:00 | 00:00:00 | |
| DO8TBO-1 | 2026-09-03 06:07:16 | 49.25081 | 8.40895 | 49° | 15km/h | 23488m | 4.9m/s | -53.2°C | 3.7% | 34.0hPa | 2.7V | 03:40:00 | 01:37:23 | 00:00:00 | |
| DM0DOS-11 | 2026-09-03 06:07:15 | 49.25079 | 8.40885 | 81° | 9km/h | 23467m | 5.3m/s | -53.2°C | 3.6% | 34.2hPa | 2.7V | 03:40:24 | 01:37:19 | 00:00:00 | |
| BIOWL1-15 | 2026-09-03 06:07:15 | 49.25080 | 8.40893 | 58° | 7km/h | 23484m | 4.2m/s | -53.3°C | 0% | 34.1hPa | 2.7V | 03:40:49 | 01:37:22 | 00:00:00 | |
| DL1XH-west | 2026-09-03 06:07:10 | 49.25078 | 8.40879 | 77° | 7km/h | 23457m | 5.7m/s | -53.2°C | 0% | 34.3hPa | 2.6V | 03:40:49 | 01:37:17 | 00:00:00 | |
| BIOWL1-15 | 2026-09-03 06:07:08 | 49.25069 | 8.40843 | 71° | 29km/h | 23426m | 3.2m/s | -53.1°C | 0% | 34.4hPa | 2.6V | 03:40:49 | 01:37:11 | 00:00:00 | |
| DB0UT-7 | 2026-09-03 06:07:08 | 49.25077 | 8.40873 | 68° | 16km/h | 23446m | 4.6m/s | -53.1°C | 3.6% | 34.3hPa | 2.7V | 00:00:00 | 00:00:00 | 00:00:00 | |
| DF3TZ-5 | 2026-09-03 06:07:07 | 49.25075 | 8.40868 | 67° | 15km/h | 23442m | 4.9m/s | -53.1°C | 0.7% | 34.3hPa | 2.7V | 00:00:00 | 00:00:00 | 00:00:00 | |
| DL6DJ-15 | 2026-09-03 06:07:06 | 49.25073 | 8.40862 | 67° | 20km/h | 23436m | 6.3m/s | -53.1°C | 0.7% | 34.4hPa | 2.7V | 00:00:00 | 00:00:00 | 00:00:00 | |
| DM0DOS-11 | 2026-09-03 06:07:05 | 49.25065 | 8.40824 | 75° | 22km/h | 23416m | 6m/s | -53.1°C | 3.6% | 34.4hPa | 2.7V | 03:40:34 | 01:37:09 | 00:00:00 | |
| DL1XH-west | 2026-09-03 06:07:00 | 49.25063 | 8.40812 | 81° | 11km/h | 23405m | 5.3m/s | -53.3°C | 0% | 34.5hPa | 2.6V | 03:40:49 | 01:37:07 | 00:00:00 | |
| DL3AQ-11 | 2026-09-03 06:06:57 | 49.25060 | 8.40798 | 53° | 9km/h | 23383m | 5.6m/s | -53.2°C | 0.7% | 34.6hPa | 2.6V | 00:00:00 | 00:00:00 | 00:00:00 | |
| DF7PN | 2026-09-03 06:06:56 | 49.25058 | 8.40796 | 53° | 7km/h | 23377m | 6.6m/s | -53.2°C | 0.8% | 34.7hPa | 2.6V | 00:00:00 | 00:00:00 | 00:00:00 | |
| DL1XH1-15 | 2026-09-03 06:06:55 | 49.25054 | 8.40782 | 71° | 20km/h | 23361m | 6.2m/s | -53.4°C | 3.6% | 34.8hPa | 2.6V | 03:40:44 | 01:36:59 | 00:00:00 | |
| BIOWL1-15 | 2026-09-03 06:06:53 | 49.25056 | 8.40788 | 68° | 15km/h | 23366m | 4.1m/s | -53.3°C | 0% | 34.7hPa | 2.6V | 03:40:49 | 01:37:00 | 00:00:00 | |
| DL1XH-west | 2026-09-03 06:06:49 | 49.25050 | 8.40754 | 85° | 26km/h | 23345m | 5.3m/s | -53.5°C | 0% | 34.9hPa | 2.7V | 03:40:49 | 01:36:56 | 00:00:00 | |
| HTAHTA | 2026-09-03 06:06:46 | 49.25050 | 8.40729 | 87° | 15km/h | 23330m | 4.2m/s | -53.5°C | 0.7% | 35.0hPa | 2.6V | 00:00:00 | 00:00:00 | 00:00:00 | |
| BIOWL1-15 | 2026-09-03 06:06:42 | 49.25043 | 8.40710 | 34° | 13km/h | 23309m | 5.2m/s | -53.5°C | 0% | 35hPa | 2.6V | 03:41:40 | 01:36:49 | 00:00:00 | |
| DL1XH-west | 2026-09-03 06:06:38 | 49.25031 | 8.40702 | 28° | 18km/h | 23287m | 6.3m/s | -53.6°C | 0% | 35.2hPa | 2.7V | 03:41:40 | 01:36:45 | 00:00:00 | |
| DB0UT-7 | 2026-09-03 06:06:38 | 49.25031 | 8.40702 | 28° | 16km/h | 23287m | 6.2m/s | -53.6°C | 3.8% | 35.1hPa | 2.7V | 00:00:00 | 01:36:45 | 00:00:00 | |
| DF3TZ-5 | 2026-09-03 06:06:36 | 49.25022 | 8.40693 | 39° | 22km/h | 23276m | 4.4m/s | -53.6°C | 0.8% | 35.2hPa | 2.7V | 00:00:00 | 00:00:00 | 00:00:00 | |
| DM0DOS-11 | 2026-09-03 06:06:35 | 49.25010 | 8.40677 | 29° | 11km/h | 23256m | 4.4m/s | -53.5°C | 3.7% | 35.3hPa | 2.7V | 03:41:04 | 01:36:39 | 00:00:00 | |
| BIOWL1-15 | 2026-09-03 06:06:31 | 49.25007 | 8.40675 | 24° | 11km/h | 23251m | 5.7m/s | -53.5°C | 0% | 35.4hPa | 2.6V | 03:41:40 | 01:36:38 | 00:00:00 | |
| DL1XH-west | 2026-09-03 06:06:27 | 49.24996 | 8.40671 | 356° | 9km/h | 23231m | 5.7m/s | -53.6°C | 0% | 35.5hPa | 2.6V | 03:41:40 | 01:36:34 | 00:00:00 | |
| DM0DOS-11 | 2026-09-03 06:06:25 | 49.24981 | 8.40673 | 3° | 22km/h | 23203m | 5.2m/s | -53.6°C | 3.8% | 35.6hPa | 2.6V | 03:41:14 | 01:36:29 | 00:00:00 | |
| BIOWL1-15 | 2026-09-03 06:06:20 | 49.24969 | 8.40673 | 355° | 26km/h | 23193m | 5.9m/s | -53.6°C | 0% | 35.7hPa | 2.7V | 03:41:40 | 01:36:27 | 00:00:00 | |
| DL1XH-west | 2026-09-03 06:06:16 | 49.24946 | 8.40685 | 337° | 24km/h | 23173m | 5.9m/s | -53.4°C | 0% | 35.8hPa | 2.7V | 03:41:40 | 01:36:23 | 00:00:00 | |
| DL1XH1-15 | 2026-09-03 06:06:15 | 49.24930 | 8.40701 | 305° | 16km/h | 23153m | 5.9m/s | -53.3°C | 3.7% | 35.9hPa | 2.6V | 03:41:24 | 01:36:19 | 00:00:00 | |
| BIOWL1-15 | 2026-09-03 06:06:11 | 49.24923 | 8.40714 | 322° | 15km/h | 23137m | 6m/s | -53.2°C | 0% | 36hPa | 2.7V | 03:41:40 | 01:36:16 | 00:00:00 | |
| SONDE2-11 | 2026-09-03 06:06:11 | 49.24926 | 8.40710 | 306° | 13km/h | 23143m | 4.5m/s | -53.2°C | 0.7% | 36.0hPa | 2.7V | 00:00:00 | 00:00:00 | 00:00:00 | |
| DO3MHA-11 | 2026-09-03 06:06:10 | 49.24926 | 8.40710 | 307° | 13km/h | 23143m | 4.5m/s | -53.2°C | 3.7% | 35.9hPa | 2.7V | 03:41:00 | 01:36:17 | 00:00:00 | |
| DB0UT-7 | 2026-09-03 06:06:08 | 49.24920 | 8.40717 | 340° | 11km/h | 23132m | 5.1m/s | -53.1°C | 3.7% | 36.0hPa | 2.7V | 00:00:00 | 00:00:00 | 00:00:00 | |
| DL4BBY-15 | 2026-09-03 06:06:07 | 49.24916 | 8.40718 | 350° | 9km/h | 23127m | 4.6m/s | -53.9°C | 0% | 0hPa | 2.7V | 00:00:00 | 00:00:00 | 00:00:00 | |
| DM0DOS-11 | 2026-09-03 06:06:05 | 49.24902 | 8.40720 | 356° | 13km/h | 23100m | 5.5m/s | -53.3°C | 3.7% | 36.2hPa | 2.7V | 03:41:34 | 01:36:09 | 00:00:00 | |
| DL1XH-west | 2026-09-03 06:06:05 | 49.24910 | 8.40719 | 359° | 11km/h | 23116m | 6.1m/s | -53.1°C | 0% | 36.1hPa | 2.6V | 03:41:40 | 01:36:12 | 00:00:00 | |
| BIOWL1-15 | 2026-09-03 06:05:58 | 49.24888 | 8.40726 | 319° | 13km/h | 23080m | 6.1m/s | -53.4°C | 0% | 36.3hPa | 2.7V | 03:41:40 | 01:36:05 | 00:00:00 | |
| DL1XH-west | 2026-09-03 06:05:54 | 49.24882 | 8.40739 | 317° | 9km/h | 23059m | 5.8m/s | -53.2°C | 0% | 36.4hPa | 2.6V | 03:42:31 | 01:36:01 | 00:00:00 | |
| BIOWL1-15 | 2026-09-03 06:05:48 | 49.24874 | 8.40741 | 53° | 2km/h | 23028m | 4.5m/s | -53.1°C | 0% | 36.6hPa | 2.7V | 03:42:31 | 01:35:55 | 00:00:00 | |
| BIOWL7-15 | 2026-09-03 06:05:47 | 49.24874 | 8.40741 | 54° | 2km/h | 23028m | 4.5m/s | -53.1°C | 0.7% | 36.6hPa | 2.6V | 00:00:00 | 00:00:00 | 00:00:00 | |
| DM0DOS-11 | 2026-09-03 06:05:44 | 49.24867 | 8.40751 | 268° | 13km/h | 22997m | 5.7m/s | -53°C | 3.7% | 36.8hPa | 2.6V | 03:41:54 | 01:35:49 | 00:00:00 | |
| DL1XH-west | 2026-09-03 06:05:44 | 49.24869 | 8.40743 | 307° | 9km/h | 23008m | 4.1m/s | -53°C | 0% | 36.7hPa | 2.7V | 03:42:31 | 01:35:51 | 00:00:00 | |
| BIOWL1-15 | 2026-09-03 06:05:39 | 49.24867 | 8.40770 | 353° | 5km/h | 22972m | 5.2m/s | -52.8°C | 0% | 36.9hPa | 2.6V | 03:42:31 | 01:35:44 | 00:00:00 | |
| DB0UT-7 | 2026-09-03 06:05:38 | 49.24868 | 8.40769 | 302° | 9km/h | 22978m | 6.0m/s | -52.8°C | 3.7% | 36.9hPa | 2.6V | 03:41:00 | 01:35:45 | 00:00:00 | |
| DL4BBY-15 | 2026-09-03 06:05:37 | 49.24867 | 8.40769 | 354° | 11km/h | 22973m | 5.1m/s | -53.5°C | 0% | 0hPa | 2.6V | 00:00:00 | 00:00:00 | 00:00:00 | |
| CB1BUN | 2026-09-03 06:05:36 | 49.24867 | 8.40770 | 354° | 5km/h | 22972m | 5.2m/s | -52.8°C | 0.7% | 36.9hPa | 2.6V | 03:42:00 | 00:00:00 | 00:00:00 | |
| DM0DOS-11 | 2026-09-03 06:05:34 | 49.24868 | 8.40767 | 202° | 11km/h | 22946m | 5m/s | -52.7°C | 3.6% | 37.1hPa | 2.6V | 03:42:04 | 01:35:39 | 00:00:00 | |
| DL1XH-west | 2026-09-03 06:05:34 | 49.24865 | 8.40767 | 136° | 4km/h | 22957m | 5.5m/s | -52.7°C | 0% | 37hPa | 2.7V | 03:42:31 | 01:35:41 | 00:00:00 | |
| BIOWL1-15 | 2026-09-03 06:05:26 | 49.24877 | 8.40794 | 244° | 11km/h | 22917m | 5.5m/s | -52.5°C | 0% | 37.3hPa | 2.6V | 03:42:31 | 01:35:33 | 00:00:00 | |
| DL3AQ-11 | 2026-09-03 06:05:26 | 49.24879 | 8.40797 | 213° | 7km/h | 22911m | 5.5m/s | -52.5°C | 0.7% | 37.3hPa | 2.7V | 00:00:00 | 00:00:00 | 00:00:00 | |
| DL1XH1-15 | 2026-09-03 06:05:25 | 49.24884 | 8.40795 | 133° | 9km/h | 22896m | 6m/s | -52.5°C | 3.7% | 37.4hPa | 2.7V | 03:42:14 | 01:35:29 | 00:00:00 | |
| DL1XH-west | 2026-09-03 06:05:24 | 49.24881 | 8.40798 | 177° | 7km/h | 22906m | 4.8m/s | -52.4°C | 0% | 37.3hPa | 2.6V | 03:42:31 | 01:35:31 | 00:00:00 | |
| BIOWL1-15 | 2026-09-03 06:05:17 | 49.24896 | 8.40788 | 248° | 9km/h | 22859m | 6.2m/s | -52.4°C | 0% | 37.6hPa | 2.7V | 03:42:31 | 01:35:22 | 00:00:00 | |
| DN1GJH-1 | 2026-09-03 06:05:17 | 49.24893 | 8.40784 | 187° | 9km/h | 22870m | 4.1m/s | -52.3°C | 0.8% | 37.5hPa | 2.6V | 03:42:00 | 00:00:00 | 00:00:00 | |
| CB1BUN | 2026-09-03 06:05:16 | 49.24895 | 8.40785 | 218° | 9km/h | 22865m | 5.3m/s | -52.3°C | 0.7% | 37.6hPa | 2.6V | 03:42:00 | 00:00:00 | 00:00:00 | |
| DM0DOS-11 | 2026-09-03 06:05:14 | 49.24898 | 8.40802 | 253° | 13km/h | 22846m | 4.3m/s | -52.3°C | 3.4% | 37.7hPa | 2.6V | 03:42:24 | 01:35:19 | 00:00:00 | |
| DL1XH-west | 2026-09-03 06:05:13 | 49.24897 | 8.40797 | 263° | 13km/h | 22850m | 3.5m/s | -52.3°C | 0% | 37.6hPa | 2.6V | 03:42:31 | 01:35:20 | 00:00:00 | |
| BIOWL1-15 | 2026-09-03 06:05:07 | 49.24911 | 8.40785 | 108° | 22km/h | 22810m | 5.1m/s | -52.2°C | 0% | 37.9hPa | 2.6V | 03:42:31 | 01:35:12 | 00:00:00 | |
| DL4BBY-15 | 2026-09-03 06:05:07 | 49.24908 | 8.40799 | 111° | 16km/h | 22821m | 5.5m/s | -53.0°C | 0% | 0hPa | 2.7V | 00:00:00 | 00:00:00 | 00:00:00 | |
| DM0DOS-11 | 2026-09-03 06:05:04 | 49.24918 | 8.40767 | 142° | 11km/h | 22795m | 4.6m/s | -52.3°C | 3.5% | 38hPa | 2.7V | 03:42:34 | 01:35:09 | 00:00:00 | |
| DL1XH-west | 2026-09-03 06:05:03 | 49.24915 | 8.40771 | 127° | 16km/h | 22800m | 4.8m/s | -52.4°C | 0% | 37.9hPa | 2.7V | 03:43:22 | 01:35:10 | 00:00:00 | |
| DF3TZ-5 | 2026-09-03 06:05:03 | 49.24915 | 8.40771 | 126° | 16km/h | 22800m | 4.8m/s | -52.4°C | 0.7% | 37.9hPa | 2.7V | 00:00:00 | 00:00:00 | 00:00:00 | |
| DL6DJ-15 | 2026-09-03 06:05:02 | 49.24918 | 8.40767 | 142° | 11km/h | 22795m | 4.6m/s | -52.3°C | 0.7% | 38.0hPa | 2.7V | 00:00:00 | 00:00:00 | 00:00:00 | |
| DL8DAS-14 | 2026-09-03 06:04:59 | 49.24924 | 8.40772 | 231° | 11km/h | 22775m | 4.9m/s | -52.4°C | 0.7% | 38.1hPa | 2.7V | 00:00:00 | 00:00:00 | 00:00:00 | |
| DL3AQ-11 | 2026-09-03 06:04:57 | 49.24937 | 8.40760 | 102° | 24km/h | 22750m | 6.3m/s | -52.5°C | -1.0% | 38.2hPa | 2.7V | 00:00:00 | 00:00:00 | 00:00:00 | |
| DN1GJH-1 | 2026-09-03 06:04:55 | 49.24929 | 8.40776 | 173° | 13km/h | 22765m | 4.3m/s | -52.5°C | 0.8% | 38.2hPa | 2.7V | 03:43:00 | 00:00:00 | 00:00:00 | |
| DL1XH1-15 | 2026-09-03 06:04:54 | 49.24938 | 8.40750 | 93° | 29km/h | 22744m | 5.3m/s | -52.5°C | 3.5% | 38.3hPa | 2.7V | 03:42:44 | 01:34:59 | 00:00:00 | |
| BIOWL1-15 | 2026-09-03 06:04:54 | 49.24935 | 8.40768 | 118° | 20km/h | 22755m | 5.6m/s | -52.5°C | 0% | 38.2hPa | 2.7V | 03:43:22 | 01:35:01 | 00:00:00 | |
| DL1XH-west | 2026-09-03 06:04:52 | 49.24938 | 8.40750 | 94° | 29km/h | 22744m | 5.4m/s | -52.5°C | 0% | 38.3hPa | 2.7V | 03:43:22 | 01:34:59 | 00:00:00 | |
| DB0ND-19 | 2026-09-03 06:04:50 | 49.24938 | 8.40726 | 91° | 31km/h | 22734m | 4.3m/s | -52.5°C | 0.7% | 38.3hPa | 2.7V | 00:00:00 | 00:00:00 | 00:00:00 | |
| DM3KS-11 | 2026-09-03 06:04:47 | 49.24943 | 8.40696 | 124° | 20km/h | 22719m | 4.9m/s | -52.6°C | 0.7% | 38.4hPa | 2.7V | 00:00:00 | 00:00:00 | 00:00:00 | |
| DM0DOS-11 | 2026-09-03 06:04:44 | 49.24953 | 8.40685 | 109° | 5km/h | 22695m | 4m/s | -52.5°C | 3.5% | 38.5hPa | 2.7V | 03:42:54 | 01:34:49 | 00:00:00 | |
| DL1XH-west | 2026-09-03 06:04:41 | 49.24953 | 8.40682 | 105° | 9km/h | 22691m | 4.5m/s | -52.6°C | 0% | 38.6hPa | 2.7V | 03:43:22 | 01:34:48 | 00:00:00 | |
| DK5PH-5 | 2026-09-03 06:04:41 | 49.24953 | 8.40682 | 105° | 18km/h | 22691m | 4.4m/s | -52.6°C | 3.5% | 38.5hPa | 2.7V | 00:00:00 | 01:34:48 | 00:00:00 | |
| DO3MHA-11 | 2026-09-03 06:04:40 | 49.24954 | 8.40677 | 109° | 24km/h | 22686m | 5.5m/s | -52.7°C | 3.5% | 38.6hPa | 2.7V | 00:00:00 | 01:34:47 | 00:00:00 | |
| DB0UT-7 | 2026-09-03 06:04:38 | 49.24957 | 8.40662 | 104° | 18km/h | 22676m | 4.3m/s | -52.8°C | 3.5% | 38.6hPa | 2.7V | 00:00:00 | 01:34:45 | 00:00:00 | |
| DL4BBY-15 | 2026-09-03 06:04:37 | 49.24959 | 8.40651 | 99° | 18km/h | 22671m | 5.4m/s | -53.6°C | 0% | 0hPa | 2.7V | 00:00:00 | 00:00:00 | 00:00:00 | |
| DL1XH1-15 | 2026-09-03 06:04:36 | 49.24963 | 8.40597 | 121° | 16km/h | 22641m | 5m/s | -53.2°C | 3.6% | 38.9hPa | 2.7V | 03:43:05 | 01:34:38 | 00:00:00 | |
| NBG1-10 | 2026-09-03 06:04:36 | 49.24959 | 8.40640 | 93° | 16km/h | 22666m | 5.5m/s | -52.8°C | 3.5% | 38.7hPa | 2.7V | 00:00:00 | 01:34:43 | 00:00:00 | |
| DN1GJH-1 | 2026-09-03 06:04:35 | 49.24960 | 8.40640 | 94° | 29km/h | 22666m | 5.5m/s | -52.9°C | 0.7% | 38.7hPa | 2.7V | 03:43:00 | 00:00:00 | 00:00:00 | |
| DM0DOS-11 | 2026-09-03 06:04:34 | 49.24961 | 8.40604 | 108° | 18km/h | 22646m | 5.6m/s | -53.2°C | 3.5% | 38.9hPa | 2.7V | 03:43:04 | 01:34:39 | 00:00:00 | |
| BIOWL1-15 | 2026-09-03 06:04:33 | 49.24960 | 8.40611 | 98° | 20km/h | 22652m | 4.7m/s | -53°C | 0% | 38.8hPa | 2.6V | 03:43:22 | 01:34:40 | 00:00:00 | |
| DL1XH-west | 2026-09-03 06:04:30 | 49.24965 | 8.40593 | 128° | 15km/h | 22636m | 4.3m/s | -53.2°C | 0% | 38.9hPa | 2.6V | 03:43:22 | 01:34:37 | 00:00:00 | |
| DO3MHA-11 | 2026-09-03 06:04:30 | 49.24965 | 8.40592 | 128° | 16km/h | 22637m | 4.3m/s | -53.2°C | 3.6% | 38.8hPa | 2.6V | 00:00:00 | 01:34:37 | 00:00:00 | |
| DL3AQ-11 | 2026-09-03 06:04:29 | 49.24967 | 8.40589 | 120° | 11km/h | 22632m | 4.7m/s | -53.3°C | -1.0% | 38.9hPa | 2.6V | 00:00:00 | 00:00:00 | 00:00:00 | |
| DL8DAS-14 | 2026-09-03 06:04:28 | 49.24968 | 8.40581 | 81° | 11km/h | 22621m | 4.9m/s | -53.3°C | 0.8% | 39.0hPa | 2.6V | 00:00:00 | 00:00:00 | 00:00:00 | |
| DL1XH1-15 | 2026-09-03 06:04:26 | 49.24968 | 8.40540 | 93° | 18km/h | 22594m | 4.2m/s | -53.5°C | 3.7% | 39.2hPa | 2.6V | 03:43:15 | 01:34:28 | 00:00:00 | |
| DM0DOS-11 | 2026-09-03 06:04:24 | 49.24967 | 8.40547 | 98° | 20km/h | 22598m | 3.8m/s | -53.4°C | 3.7% | 39.1hPa | 2.6V | 03:43:14 | 01:34:29 | 00:00:00 | |
| DL1XH-west | 2026-09-03 06:04:20 | 49.24967 | 8.40533 | 83° | 16km/h | 22589m | 5.6m/s | -53.5°C | 0% | 39.2hPa | 2.6V | 03:43:22 | 01:34:27 | 00:00:00 | |
| DO1YAY-16 | 2026-09-03 06:04:20 | 49.24966 | 8.40527 | 66° | 15km/h | 22583m | 5.6m/s | -53.5°C | 0.8% | 39.2hPa | 2.7V | 00:00:00 | 00:00:00 | 00:00:00 | |
| DB0ND-19 | 2026-09-03 06:04:19 | 49.24966 | 8.40527 | 66° | 15km/h | 22583m | 5.6m/s | -53.5°C | 0.8% | 39.2hPa | 2.7V | 00:00:00 | 00:00:00 | 00:00:00 | |
| DL8DAS-15 | 2026-09-03 06:04:18 | 49.24966 | 8.40526 | 68° | 16km/h | 22583m | 5.6m/s | -53.5°C | 0.8% | 39.2hPa | 2.7V | 03:43:00 | 00:00:00 | 00:00:00 | |
| DL3AQ-11 | 2026-09-03 06:04:17 | 49.24961 | 8.40509 | 70° | 18km/h | 22568m | 5.9m/s | 0°C | -1.0% | 39.3hPa | 2.7V | 00:00:00 | 00:00:00 | 00:00:00 | |
| DL1XH1-15 | 2026-09-03 06:04:16 | 49.24958 | 8.40478 | 82° | 11km/h | 22542m | 4.9m/s | -53.3°C | 3.7% | 39.5hPa | 2.7V | 03:43:25 | 01:34:18 | 00:00:00 | |
| DM0DOS-11 | 2026-09-03 06:04:14 | 49.24958 | 8.40482 | 82° | 13km/h | 22548m | 6.2m/s | -53.4°C | 3.8% | 39.5hPa | 2.7V | 03:43:24 | 01:34:19 | 00:00:00 | |
| DL1XH-west | 2026-09-03 06:04:10 | 49.24957 | 8.40474 | 86° | 11km/h | 22538m | 4.9m/s | -53.3°C | 0% | 39.5hPa | 2.6V | 03:44:13 | 01:34:17 | 00:00:00 | |
| DO3MHA-11 | 2026-09-03 06:04:10 | 49.24957 | 8.40473 | 86° | 11km/h | 22538m | 4.9m/s | -53.3°C | 3.8% | 39.5hPa | 2.7V | 03:43:00 | 01:34:17 | 00:00:00 | |
| DJTTGO | 2026-09-03 06:04:09 | 49.24957 | 8.40473 | 87° | 11km/h | 22538m | 4.9m/s | -53.3°C | 0.8% | 39.5hPa | 2.7V | 03:44:00 | 00:00:00 | 00:00:00 | |
| DB0UT-7 | 2026-09-03 06:04:08 | 49.24957 | 8.40465 | 93° | 9km/h | 22527m | 4.2m/s | -53.3°C | 3.8% | 39.5hPa | 2.7V | 00:00:00 | 00:00:00 | 00:00:00 | |
| DL4BBY-15 | 2026-09-03 06:04:07 | 49.24957 | 8.40460 | 84° | 9km/h | 22523m | 4.1m/s | -54.0°C | 0% | 0hPa | 2.7V | 00:00:00 | 00:00:00 | 00:00:00 | |
| DL3AQ-11 | 2026-09-03 06:04:06 | 49.24955 | 8.40454 | 46° | 7km/h | 22512m | 5.3m/s | 0°C | -1.0% | 39.7hPa | 2.7V | 00:00:00 | 00:00:00 | 00:00:00 | |
| DL1XH1-15 | 2026-09-03 06:04:05 | 49.24950 | 8.40436 | 78° | 11km/h | 22488m | 4.3m/s | -53°C | 3.7% | 39.8hPa | 2.7V | 03:43:36 | 01:34:07 | 00:00:00 | |
| DM0DOS-11 | 2026-09-03 06:04:04 | 49.24952 | 8.40445 | 75° | 11km/h | 22497m | 5.4m/s | -53.1°C | 3.8% | 39.8hPa | 2.6V | 03:43:34 | 01:34:09 | 00:00:00 | |
| BIOWL1-15 | 2026-09-03 06:04:01 | 49.24951 | 8.40440 | 82° | 11km/h | 22492m | 3.9m/s | -53°C | 0% | 39.8hPa | 2.7V | 03:44:13 | 01:34:08 | 00:00:00 | |
| DL1XH-west | 2026-09-03 06:04:00 | 49.24950 | 8.40436 | 78° | 11km/h | 22488m | 4.3m/s | -53°C | 0% | 39.8hPa | 2.7V | 03:44:13 | 01:34:07 | 00:00:00 | |
| DL6DJ-15 | 2026-09-03 06:04:00 | 49.24950 | 8.40432 | 67° | 9km/h | 22483m | 6.0m/s | -53.0°C | 0.8% | 39.9hPa | 2.7V | 00:00:00 | 00:00:00 | 00:00:00 | |
| DL8DAS-14 | 2026-09-03 06:03:57 | 49.24945 | 8.40423 | 61° | 9km/h | 22468m | 5.3m/s | -53.0°C | 0.7% | 40.0hPa | 2.7V | 00:00:00 | 00:00:00 | 00:00:00 | |
| DM0DOS-11 | 2026-09-03 06:03:54 | 49.24941 | 8.40406 | 59° | 11km/h | 22448m | 5.9m/s | -52.9°C | 3.6% | 40hPa | 2.7V | 03:43:44 | 01:33:59 | 00:00:00 | |
| BIOWL1-15 | 2026-09-03 06:03:51 | 49.24940 | 8.40403 | 50° | 9km/h | 22443m | 5m/s | -52.9°C | 0% | 40.1hPa | 2.6V | 03:44:13 | 01:33:58 | 00:00:00 | |
| DL1XH-west | 2026-09-03 06:03:49 | 49.24938 | 8.40397 | 77° | 9km/h | 22433m | 5.4m/s | -52.7°C | 0% | 40.2hPa | 2.7V | 03:44:13 | 01:33:56 | 00:00:00 | |
| DO1YAY-16 | 2026-09-03 06:03:49 | 49.24937 | 8.40394 | 94° | 9km/h | 22428m | 5.1m/s | -52.7°C | 0.8% | 40.2hPa | 2.6V | 00:00:00 | 00:00:00 | 00:00:00 | |
| DB0ND-19 | 2026-09-03 06:03:48 | 49.24937 | 8.40394 | 94° | 9km/h | 22428m | 5.1m/s | -52.7°C | 0.8% | 40.2hPa | 2.6V | 00:00:00 | 00:00:00 | 00:00:00 | |
| DB0UT-9 | 2026-09-03 06:03:47 | 49.24937 | 8.40394 | 96° | 9km/h | 22428m | 5.1m/s | -52.7°C | 0.8% | 40.2hPa | 2.6V | 03:44:00 | 00:00:00 | 00:00:00 | |
| DL1XH1-15 | 2026-09-03 06:03:46 | 49.24934 | 8.40377 | 89° | 7km/h | 22393m | 5.5m/s | -52.8°C | 3.7% | 40.4hPa | 2.6V | 03:43:55 | 01:33:48 | 00:00:00 | |
| DM0DOS-11 | 2026-09-03 06:03:44 | 49.24935 | 8.40380 | 64° | 7km/h | 22399m | 5.5m/s | -52.8°C | 3.6% | 40.4hPa | 2.7V | 03:43:54 | 01:33:49 | 00:00:00 | |
| BIOWL1-15 | 2026-09-03 06:03:40 | 49.24935 | 8.40374 | 101° | 9km/h | 22388m | 4m/s | -52.8°C | 0% | 40.5hPa | 2.6V | 03:44:13 | 01:33:47 | 00:00:00 | |
| DL1XH-west | 2026-09-03 06:03:39 | 49.24935 | 8.40371 | 104° | 7km/h | 22384m | 4.6m/s | -52.7°C | 0% | 40.5hPa | 2.6V | 03:44:13 | 01:33:46 | 00:00:00 | |
| DB0UT-7 | 2026-09-03 06:03:38 | 49.24935 | 8.40368 | 99° | 9km/h | 22379m | 5.7m/s | -52.6°C | 3.6% | 40.4hPa | 2.7V | 03:43:00 | 01:33:45 | 00:00:00 | |
| DL4BBY-15 | 2026-09-03 06:03:37 | 49.24936 | 8.40366 | 80° | 9km/h | 22374m | 4.9m/s | -53.3°C | 0% | 0hPa | 2.7V | 00:00:00 | 00:00:00 | 00:00:00 | |
| HARRO8 | 2026-09-03 06:03:35 | 49.24934 | 8.40361 | 74° | 7km/h | 22364m | 5.4m/s | -52.5°C | 0.8% | 40.6hPa | 2.7V | 00:00:00 | 00:00:00 | 00:00:00 | |
| DM0DOS-11 | 2026-09-03 06:03:34 | 49.24933 | 8.40349 | 82° | 9km/h | 22350m | 3.9m/s | -52.4°C | 3.6% | 40.7hPa | 2.7V | 03:44:04 | 01:33:39 | 00:00:00 | |
| BIOWL1-15 | 2026-09-03 06:03:30 | 49.24933 | 8.40344 | 93° | 4km/h | 22340m | 5m/s | -52.3°C | 0% | 40.8hPa | 2.7V | 03:44:13 | 01:33:37 | 00:00:00 | |
| DL1XH-west | 2026-09-03 06:03:28 | 49.24934 | 8.40342 | 161° | 5km/h | 22331m | 4.8m/s | -52.4°C | 0% | 40.8hPa | 2.6V | 03:44:13 | 01:33:35 | 00:00:00 | |
| DB0UT-9 | 2026-09-03 06:03:27 | 49.24934 | 8.40342 | 162° | 5km/h | 22331m | 4.8m/s | -52.4°C | 0.8% | 40.8hPa | 2.6V | 03:44:00 | 00:00:00 | 00:00:00 | |
| DL3AQ-11 | 2026-09-03 06:03:26 | 49.24939 | 8.40337 | 145° | 9km/h | 22317m | 4.4m/s | 0°C | -1.0% | -1.0hPa | 2.6V | 00:00:00 | 00:00:00 | 00:00:00 | |
| DL8DAS-14 | 2026-09-03 06:03:25 | 49.24939 | 8.40337 | 145° | 9km/h | 22317m | 4.4m/s | -52.3°C | 0.7% | 40.9hPa | 2.6V | 00:00:00 | 00:00:00 | 00:00:00 | |
| DL1XH1-15 | 2026-09-03 06:03:24 | 49.24946 | 8.40328 | 107° | 9km/h | 22287m | 4.8m/s | -52.5°C | 3.5% | 41.1hPa | 2.6V | 03:44:17 | 01:33:26 | 00:00:00 | |
| DL1XH-west | 2026-09-03 06:03:18 | 49.24947 | 8.40325 | 99° | 7km/h | 22283m | 4.3m/s | -52.5°C | 0% | 41.1hPa | 2.7V | 03:45:04 | 01:33:25 | 00:00:00 | |
| DB0ND-19 | 2026-09-03 06:03:17 | 49.24947 | 8.40322 | 94° | 5km/h | 22278m | 5.0m/s | -52.5°C | 0.7% | 41.1hPa | 2.7V | 00:00:00 | 00:00:00 | 00:00:00 | |
| DJTTGO | 2026-09-03 06:03:15 | 49.24947 | 8.40320 | 103° | 2km/h | 22273m | 5.5m/s | -52.6°C | 0.7% | 41.2hPa | 2.7V | 03:45:00 | 00:00:00 | 00:00:00 | |
| DM0DOS-11 | 2026-09-03 06:03:14 | 49.24955 | 8.40318 | 170° | 16km/h | 22254m | 5.3m/s | -52.8°C | 3.5% | 41.3hPa | 2.7V | 03:44:24 | 01:33:19 | 00:00:00 | |
| DL1XH1-15 | 2026-09-03 06:03:14 | 49.24968 | 8.40315 | 172° | 18km/h | 22239m | 4.8m/s | -52.9°C | 3.5% | 41.4hPa | 2.6V | 03:44:27 | 01:33:16 | 00:00:00 | |
| DL1XH-west | 2026-09-03 06:03:08 | 49.24973 | 8.40314 | 169° | 18km/h | 22234m | 4.2m/s | -52.9°C | 0% | 41.4hPa | 2.6V | 03:45:04 | 01:33:15 | 00:00:00 | |
| BIOWL1-15 | 2026-09-03 06:03:07 | 49.24977 | 8.40313 | 161° | 18km/h | 22230m | 4.9m/s | -53°C | 0% | 41.5hPa | 2.7V | 03:45:04 | 01:33:14 | 00:00:00 | |
| DL4BBY-15 | 2026-09-03 06:03:07 | 49.24977 | 8.40312 | 161° | 13km/h | 22230m | 4.9m/s | -53.8°C | 0% | 0hPa | 2.7V | 00:00:00 | 00:00:00 | 00:00:00 | |
| DB0UT-9 | 2026-09-03 06:03:06 | 49.24977 | 8.40312 | 162° | 18km/h | 22230m | 4.9m/s | -53.0°C | 0.8% | 41.5hPa | 2.7V | 03:45:00 | 00:00:00 | 00:00:00 | |
| DL1XH1-15 | 2026-09-03 06:03:04 | 49.25003 | 8.40294 | 163° | 18km/h | 22192m | 5.6m/s | -53.2°C | 3.7% | 41.7hPa | 2.7V | 03:44:37 | 01:33:06 | 00:00:00 | |
| DL1XH-west | 2026-09-03 06:02:58 | 49.25008 | 8.40291 | 158° | 22km/h | 22187m | 4.8m/s | -53.2°C | 0% | 41.7hPa | 2.6V | 03:45:04 | 01:33:05 | 00:00:00 | |
| BIOWL1-15 | 2026-09-03 06:02:56 | 49.25019 | 8.40284 | 160° | 24km/h | 22178m | 4.6m/s | -53.4°C | 0% | 41.8hPa | 2.6V | 03:45:04 | 01:33:03 | 00:00:00 | |
| DD1CC8 | 2026-09-03 06:02:55 | 49.25025 | 8.40282 | 162° | 22km/h | 22173m | 5.4m/s | -53.4°C | 0.8% | 41.8hPa | 2.6V | 00:00:00 | 00:00:00 | 00:00:00 | |
| DL1XH1-15 | 2026-09-03 06:02:54 | 49.25041 | 8.40269 | 82° | 4km/h | 22144m | 5.6m/s | -53.3°C | 3.7% | 42hPa | 2.6V | 03:44:47 | 01:32:56 | 00:00:00 | |
| DK7TD | 2026-09-03 06:02:52 | 49.25037 | 8.40275 | 151° | 13km/h | 22159m | 5.3m/s | -53.4°C | 0% | 41.9hPa | 2.6V | 03:45:55 | 01:32:59 | 00:00:00 | |
| BIOWL1-15 | 2026-09-03 06:02:48 | 49.25040 | 8.40266 | 82° | 5km/h | 22130m | 4.6m/s | -53.3°C | 0% | 42.1hPa | 2.7V | 03:45:04 | 01:32:53 | 00:00:00 | |
| DL1XH-west | 2026-09-03 06:02:47 | 49.25040 | 8.40267 | 41° | 4km/h | 22135m | 3.6m/s | -53.3°C | 0% | 42.1hPa | 2.7V | 03:45:04 | 01:32:54 | 00:00:00 | |
| DB0ND-19 | 2026-09-03 06:02:46 | 49.25040 | 8.40266 | 81° | 4km/h | 22131m | 4.6m/s | -53.3°C | 0.8% | 42.1hPa | 2.7V | 00:00:00 | 00:00:00 | 00:00:00 | |
| DM0DOS-11 | 2026-09-03 06:02:44 | 49.25046 | 8.40247 | 131° | 18km/h | 22110m | 5m/s | -53.3°C | 3.7% | 42.2hPa | 2.7V | 03:44:54 | 01:32:49 | 00:00:00 | |
| DK7TD | 2026-09-03 06:02:41 | 49.25049 | 8.40243 | 139° | 15km/h | 22106m | 5.3m/s | -53.2°C | 0% | 42.2hPa | 2.7V | 03:45:55 | 01:32:48 | 00:00:00 | |
| BIOWL1-15 | 2026-09-03 06:02:38 | 49.25053 | 8.40228 | 55° | 9km/h | 22082m | 4.4m/s | -53.1°C | 0% | 42.4hPa | 2.7V | 03:45:04 | 01:32:43 | 00:00:00 | |
| DL1XH-west | 2026-09-03 06:02:37 | 49.25054 | 8.40231 | 79° | 9km/h | 22087m | 5m/s | -53.1°C | 0% | 42.4hPa | 2.6V | 03:45:04 | 01:32:44 | 00:00:00 | |
| DL4BBY-15 | 2026-09-03 06:02:37 | 49.25054 | 8.40231 | 79° | 11km/h | 22087m | 4.9m/s | -53.8°C | 0% | 0hPa | 2.6V | 00:00:00 | 00:00:00 | 00:00:00 | |
| DL8DAS-15 | 2026-09-03 06:02:36 | 49.25053 | 8.40228 | 56° | 9km/h | 22082m | 4.4m/s | -53.1°C | 0.8% | 42.4hPa | 2.6V | 03:45:00 | 00:00:00 | 00:00:00 | |
| DM0DOS-11 | 2026-09-03 06:02:34 | 49.25046 | 8.40223 | 30° | 7km/h | 22062m | 4.5m/s | -52.9°C | 3.6% | 42.5hPa | 2.6V | 03:45:04 | 01:32:39 | 00:00:00 | |
| DL1XH1-15 | 2026-09-03 06:02:34 | 49.25043 | 8.40213 | 87° | 13km/h | 22047m | 4.2m/s | -53°C | 3.6% | 42.7hPa | 2.7V | 03:45:07 | 01:32:36 | 00:00:00 | |
| DL1XH-west | 2026-09-03 06:02:26 | 49.25044 | 8.40200 | 95° | 11km/h | 22033m | 4.4m/s | -53.3°C | 0% | 42.8hPa | 2.6V | 03:45:55 | 01:32:33 | 00:00:00 | |
| BIOWL1-15 | 2026-09-03 06:02:25 | 49.25044 | 8.40190 | 83° | 15km/h | 22023m | 5.5m/s | -53.3°C | 0% | 42.8hPa | 2.7V | 03:45:55 | 01:32:31 | 00:00:00 | |
| DM0DOS-11 | 2026-09-03 06:02:24 | 49.25042 | 8.40180 | 57° | 13km/h | 22013m | 4.7m/s | -53.3°C | 3.6% | 42.9hPa | 2.6V | 03:45:14 | 01:32:29 | 00:00:00 | |
| NBG1-10 | 2026-09-03 06:02:24 | 49.25044 | 8.40190 | 83° | 9km/h | 22023m | 5.5m/s | -53.2°C | 3.6% | 42.7hPa | 2.7V | 00:00:00 | 01:32:31 | 00:00:00 | |
| DL8DAS-14 | 2026-09-03 06:02:23 | 49.25043 | 8.40185 | 71° | 13km/h | 22018m | 4.4m/s | -53.3°C | 0.8% | 42.9hPa | 2.7V | 00:00:00 | 00:00:00 | 00:00:00 | |
| DJTTGO | 2026-09-03 06:02:22 | 49.25043 | 8.40184 | 73° | 15km/h | 22018m | 4.4m/s | -53.3°C | 0.8% | 42.8hPa | 2.7V | 03:45:00 | 00:00:00 | 00:00:00 | |
| DO3MHA-11 | 2026-09-03 06:02:20 | 49.25037 | 8.40174 | 20° | 11km/h | 22003m | 5.0m/s | -53.2°C | 3.6% | 42.9hPa | 2.7V | 00:00:00 | 01:32:27 | 00:00:00 | |
| DL1XH1-15 | 2026-09-03 06:02:18 | 49.25030 | 8.40160 | 95° | 13km/h | 21979m | 4.5m/s | -53.5°C | 3.7% | 43.1hPa | 2.7V | 03:45:21 | 01:32:22 | 00:00:00 | |
| DK7TD | 2026-09-03 06:02:16 | 49.25030 | 8.40165 | 80° | 13km/h | 21983m | 4.4m/s | -53.5°C | 0% | 43.1hPa | 2.7V | 03:45:55 | 01:32:23 | 00:00:00 | |
| DL1XH-west | 2026-09-03 06:02:15 | 49.25030 | 8.40160 | 96° | 13km/h | 21979m | 4.5m/s | -53.5°C | 0% | 43.1hPa | 2.7V | 03:45:55 | 01:32:22 | 00:00:00 | |
| DM0DOS-11 | 2026-09-03 06:02:14 | 49.25032 | 8.40147 | 104° | 9km/h | 21963m | 4.3m/s | -53.6°C | 3.8% | 43.2hPa | 2.6V | 03:45:24 | 01:32:19 | 00:00:00 | |
| DJ2DS-15 | 2026-09-03 06:02:14 | 49.25030 | 8.40155 | 106° | 7km/h | 21974m | 5.7m/s | -53.5°C | 3.8% | 43.1hPa | 2.7V | 00:00:00 | 01:32:21 | 00:00:00 | |
| DM3KS-11 | 2026-09-03 06:02:12 | 49.25033 | 8.40144 | 87° | 9km/h | 21959m | 5.2m/s | -53.6°C | 0.8% | 43.2hPa | 2.7V | 00:00:00 | 00:00:00 | 00:00:00 | |
| DK5PH-5 | 2026-09-03 06:02:11 | 49.25032 | 8.40143 | 88° | 5km/h | 21959m | 5.1m/s | -53.6°C | 3.8% | 43.2hPa | 2.7V | 00:00:00 | 01:32:18 | 00:00:00 | |
| DO3MHA-11 | 2026-09-03 06:02:10 | 49.25032 | 8.40140 | 71° | 7km/h | 21954m | 5.1m/s | -53.6°C | 3.8% | 43.2hPa | 2.7V | 03:45:00 | 01:32:17 | 00:00:00 | |
| DB0NH | 2026-09-03 06:02:09 | 49.25031 | 8.40136 | 55° | 5km/h | 21949m | 4.3m/s | -53.5°C | 3.8% | 43.2hPa | 2.7V | 03:45:00 | 01:32:16 | 00:00:00 | |
| DL1XH1-15 | 2026-09-03 06:02:08 | 49.25026 | 8.40131 | 34° | 0km/h | 21929m | 3.5m/s | -53.6°C | 3.8% | 43.4hPa | 2.7V | 03:45:31 | 01:32:12 | 00:00:00 | |
| DB0UT-7 | 2026-09-03 06:02:08 | 49.25029 | 8.40133 | 41° | 5km/h | 21944m | 4.9m/s | -53.5°C | 3.7% | 43.3hPa | 2.6V | 00:00:00 | 00:00:00 | 00:00:00 | |
| DM0DOS-11 | 2026-09-03 06:02:07 | 49.25028 | 8.40125 | 111° | 13km/h | 21915m | 4.3m/s | -53.7°C | 3.9% | 43.5hPa | 2.6V | 03:45:34 | 01:32:09 | 00:00:00 | |
| BIOWL1-15 | 2026-09-03 06:02:04 | 49.25026 | 8.40131 | 120° | 4km/h | 21925m | 5.1m/s | -53.7°C | 0% | 43.5hPa | 2.7V | 03:45:55 | 01:32:11 | 00:00:00 | |
| HARRO8 | 2026-09-03 06:02:02 | 49.25028 | 8.40125 | 111° | 11km/h | 21915m | 4.3m/s | -53.7°C | 0.9% | 43.5hPa | 2.6V | 00:00:00 | 00:00:00 | 00:00:00 | |
| DL8DAS-15 | 2026-09-03 06:02:01 | 49.25028 | 8.40125 | 112° | 13km/h | 21915m | 4.3m/s | -53.7°C | 0.9% | 43.5hPa | 2.6V | 00:00:00 | 00:00:00 | 00:00:00 | |
| DO3MHA-11 | 2026-09-03 06:02:00 | 49.25030 | 8.40116 | 116° | 7km/h | 21907m | 4.9m/s | -53.6°C | 3.8% | 43.5hPa | 2.6V | 00:00:00 | 01:32:07 | 00:00:00 | |
| DL1XH1-15 | 2026-09-03 06:01:58 | 49.25032 | 8.40105 | 40° | 7km/h | 21881m | 5.9m/s | -53.5°C | 3.8% | 43.8hPa | 2.6V | 03:45:41 | 01:32:02 | 00:00:00 | |
| BIOWL9-15 | 2026-09-03 06:01:57 | 49.25033 | 8.40108 | 100° | 2km/h | 21891m | 4.8m/s | -53.5°C | 0.8% | 43.7hPa | 2.7V | 00:00:00 | 00:00:00 | 00:00:00 | |
| DF3TZ-5 | 2026-09-03 06:01:56 | 49.25033 | 8.40106 | 51° | 4km/h | 21887m | 4.5m/s | -53.5°C | 0.8% | 43.7hPa | 2.7V | 00:00:00 | 00:00:00 | 00:00:00 | |
| DL6DJ-15 | 2026-09-03 06:01:55 | 49.25032 | 8.40105 | 40° | 5km/h | 21882m | 5.9m/s | -53.5°C | 0.8% | 43.8hPa | 2.7V | 00:00:00 | 00:00:00 | 00:00:00 | |
| DM0DOS-11 | 2026-09-03 06:01:54 | 49.25027 | 8.40100 | 19° | 7km/h | 21867m | 5.3m/s | -53.5°C | 3.8% | 43.9hPa | 2.7V | 03:45:44 | 01:31:59 | 00:00:00 | |
| BIOWL1-15 | 2026-09-03 06:01:54 | 49.25031 | 8.40103 | 35° | 9km/h | 21876m | 4.6m/s | -53.5°C | 0% | 43.8hPa | 2.6V | 03:45:55 | 01:32:01 | 00:00:00 | |
| DL1XH-west | 2026-09-03 06:01:53 | 49.25029 | 8.40101 | 30° | 9km/h | 21872m | 4.3m/s | -53.5°C | 0% | 43.9hPa | 2.7V | 03:45:55 | 01:32:00 | 00:00:00 | |
| DD1CC8 | 2026-09-03 06:01:53 | 49.25027 | 8.40100 | 19° | 5km/h | 21867m | 5.3m/s | -53.5°C | 0.8% | 43.9hPa | 2.6V | 00:00:00 | 00:00:00 | 00:00:00 | |
| DL8DAS-14 | 2026-09-03 06:01:52 | 49.25027 | 8.40100 | 19° | 5km/h | 21867m | 5.3m/s | -53.5°C | 0.8% | 43.9hPa | 2.6V | 00:00:00 | 00:00:00 | 00:00:00 | |
| NBG1-10 | 2026-09-03 06:01:51 | 49.25025 | 8.40100 | 352° | 18km/h | 21862m | 5.8m/s | -53.3°C | 3.8% | 43.8hPa | 2.6V | 00:00:00 | 01:31:58 | 00:00:00 | |
| DO3MHA-11 | 2026-09-03 06:01:50 | 49.25025 | 8.40100 | 293° | 4km/h | 21856m | 4.8m/s | -53.2°C | 3.7% | 43.9hPa | 2.6V | 00:00:00 | 01:31:57 | 00:00:00 | |
| DL1XH1-15 | 2026-09-03 06:01:48 | 49.25027 | 8.40099 | 174° | 4km/h | 21831m | 5.1m/s | -53.3°C | 3.8% | 44.1hPa | 2.7V | 03:45:51 | 01:31:52 | 00:00:00 | |
| DF7PN | 2026-09-03 06:01:45 | 49.25027 | 8.40099 | 174° | 2km/h | 21831m | 5.1m/s | -53.3°C | 0.8% | 44.1hPa | 2.6V | 00:00:00 | 00:00:00 | 00:00:00 | |
| DM0DOS-11 | 2026-09-03 06:01:44 | 49.25029 | 8.40102 | 277° | 4km/h | 21816m | 4.7m/s | -53.1°C | 3.7% | 44.2hPa | 2.6V | 03:45:54 | 01:31:49 | 00:00:00 | |
| BIOWL1-15 | 2026-09-03 06:01:44 | 49.25028 | 8.40100 | 217° | 4km/h | 21826m | 5.7m/s | -53.2°C | 0.1% | 44.1hPa | 2.7V | 03:45:55 | 01:31:51 | 00:00:00 | |
| DL1XH-west | 2026-09-03 06:01:42 | 49.25029 | 8.40102 | 277° | 4km/h | 21816m | 4.7m/s | -53.2°C | 0% | 44.2hPa | 2.6V | 03:45:55 | 01:31:49 | 00:00:00 | |
| DM3KS-11 | 2026-09-03 06:01:41 | 49.25027 | 8.40103 | 4° | 5km/h | 21805m | 4.6m/s | -53.1°C | 0.8% | 44.3hPa | 2.6V | 00:00:00 | 00:00:00 | 00:00:00 | |
| DO3MHA-11 | 2026-09-03 06:01:40 | 49.25027 | 8.40103 | 5° | 5km/h | 21806m | 4.6m/s | -53.1°C | 3.7% | 44.2hPa | 2.6V | 00:00:00 | 01:31:47 | 00:00:00 | |
| DB0NH | 2026-09-03 06:01:39 | 49.25025 | 8.40103 | 358° | 9km/h | 21801m | 4.2m/s | -53.1°C | 3.6% | 44.3hPa | 2.6V | 00:00:00 | 01:31:46 | 00:00:00 | |
| DL1XH1-15 | 2026-09-03 06:01:38 | 49.25020 | 8.40108 | 311° | 4km/h | 21780m | 5.4m/s | -53°C | 3.6% | 44.5hPa | 2.6V | 03:46:01 | 01:31:42 | 00:00:00 | |
| DK7TD | 2026-09-03 06:01:38 | 49.25024 | 8.40104 | 342° | 7km/h | 21796m | 5.6m/s | -53.1°C | 0% | 44.4hPa | 2.7V | 03:47:37 | 01:31:45 | 00:00:00 | |
| DB0UT-7 | 2026-09-03 06:01:38 | 49.25023 | 8.40103 | 343° | 9km/h | 21796m | 5.5m/s | -53.1°C | 3.6% | 44.3hPa | 2.7V | 03:45:00 | 01:31:45 | 00:00:00 | |
| DF1GD-15 | 2026-09-03 06:01:37 | 49.25023 | 8.40103 | 343° | 7km/h | 21796m | 5.6m/s | -53.1°C | 0.8% | 44.4hPa | 2.7V | 03:46:00 | 00:00:00 | 00:00:00 | |
| DL0LBS | 2026-09-03 06:01:35 | 49.25021 | 8.40107 | 312° | 5km/h | 21786m | 4.4m/s | -53.0°C | 0.8% | 44.4hPa | 2.7V | 03:46:00 | 00:00:00 | 00:00:00 | |
| DM0DOS-11 | 2026-09-03 06:01:34 | 49.25021 | 8.40109 | 182° | 7km/h | 21766m | 4.6m/s | -52.9°C | 3.6% | 44.6hPa | 2.7V | 03:46:04 | 01:31:39 | 00:00:00 | |
| BIOWL1-15 | 2026-09-03 06:01:33 | 49.25024 | 8.40109 | 189° | 11km/h | 21761m | 6.1m/s | -53°C | 0% | 44.6hPa | 2.6V | 03:46:46 | 01:31:38 | 00:00:00 | |
| DL1XH-west | 2026-09-03 06:01:32 | 49.25021 | 8.40109 | 182° | 7km/h | 21766m | 4.6m/s | -52.9°C | 0% | 44.6hPa | 2.7V | 03:46:46 | 01:31:39 | 00:00:00 | |
| HARRO8 | 2026-09-03 06:01:31 | 49.25024 | 8.40109 | 189° | 9km/h | 21761m | 6.1m/s | -53.0°C | 0.8% | 44.6hPa | 2.6V | 00:00:00 | 00:00:00 | 00:00:00 | |
| DJ2KF-10 | 2026-09-03 06:01:30 | 49.25027 | 8.40110 | 192° | 11km/h | 21756m | 4.8m/s | -52.9°C | 3.6% | 44.6hPa | 2.6V | 00:00:00 | 01:31:37 | 00:00:00 | |
| DN1GJH-1 | 2026-09-03 06:01:29 | 49.25027 | 8.40110 | 192° | 13km/h | 21756m | 4.8m/s | -53.0°C | 0.8% | 44.6hPa | 2.7V | 03:46:00 | 00:00:00 | 00:00:00 | |
| CB1BUN | 2026-09-03 06:01:28 | 49.25033 | 8.40111 | 178° | 11km/h | 21746m | 5.5m/s | -52.9°C | 0.8% | 44.7hPa | 2.7V | 03:46:00 | 00:00:00 | 00:00:00 | |
| DM7RM-13 | 2026-09-03 06:01:27 | 49.25033 | 8.40111 | 178° | 11km/h | 21746m | 5.5m/s | -52.9°C | 0.8% | 44.7hPa | 2.7V | 03:46:00 | 00:00:00 | 00:00:00 | |
| IW2NTF | 2026-09-03 06:01:26 | 49.25037 | 8.40116 | 280° | 7km/h | 21712m | 4.6m/s | -53.2°C | 0% | 45hPa | 2.7V | 03:46:15 | 01:31:28 | 00:00:00 | |
| DK7TD | 2026-09-03 06:01:25 | 49.25038 | 8.40108 | 140° | 4km/h | 21732m | 4.4m/s | -53.1°C | 0% | 44.8hPa | 2.6V | 03:47:37 | 01:31:32 | 00:00:00 | |
| DM0DOS-11 | 2026-09-03 06:01:24 | 49.25038 | 8.40113 | 277° | 9km/h | 21716m | 4.2m/s | -53.1°C | 3.7% | 44.9hPa | 2.7V | 03:46:14 | 01:31:29 | 00:00:00 | |
| BIOWL1-15 | 2026-09-03 06:01:24 | 49.25038 | 8.40113 | 278° | 9km/h | 21716m | 4.2m/s | -53.1°C | 0% | 44.9hPa | 2.7V | 03:46:46 | 01:31:29 | 00:00:00 | |
| DL1XH-west | 2026-09-03 06:01:21 | 49.25038 | 8.40116 | 281° | 7km/h | 21712m | 4.6m/s | -53.2°C | 0% | 45hPa | 2.7V | 03:46:46 | 01:31:28 | 00:00:00 | |
| DO3MHA-11 | 2026-09-03 06:01:20 | 49.25037 | 8.40118 | 281° | 9km/h | 21707m | 5.3m/s | -53.2°C | 3.7% | 44.9hPa | 2.6V | 00:00:00 | 01:31:27 | 00:00:00 | |
| DL1XH1-15 | 2026-09-03 06:01:18 | 49.25043 | 8.40125 | 205° | 13km/h | 21680m | 4.7m/s | -53.1°C | 3.8% | 45.2hPa | 2.6V | 03:46:21 | 01:31:22 | 00:00:00 | |
| DK7TD | 2026-09-03 06:01:14 | 49.25046 | 8.40127 | 204° | 15km/h | 21676m | 4.8m/s | -53.1°C | 0% | 45.2hPa | 2.7V | 03:47:37 | 01:31:21 | 00:00:00 | |
| DM0DOS-11 | 2026-09-03 06:01:14 | 49.25052 | 8.40131 | 203° | 13km/h | 21665m | 5.2m/s | -53°C | 3.7% | 45.2hPa | 2.6V | 03:46:24 | 01:31:19 | 00:00:00 | |
| BIOWL1-15 | 2026-09-03 06:01:12 | 49.25052 | 8.40131 | 204° | 13km/h | 21665m | 5.2m/s | -53°C | 0% | 45.3hPa | 2.6V | 03:46:46 | 01:31:19 | 00:00:00 | |
| DL1XH-west | 2026-09-03 06:01:10 | 49.25057 | 8.40137 | 229° | 15km/h | 21656m | 4.5m/s | -52.8°C | 0% | 45.3hPa | 2.6V | 03:46:46 | 01:31:17 | 00:00:00 | |
| DM3KS-11 | 2026-09-03 06:01:10 | 49.25060 | 8.40142 | 236° | 16km/h | 21651m | 6.2m/s | -52.8°C | 0.8% | 45.4hPa | 2.7V | 00:00:00 | 00:00:00 | 00:00:00 | |
| DB0NH | 2026-09-03 06:01:09 | 49.25060 | 8.40142 | 237° | 20km/h | 21651m | 6.2m/s | -52.7°C | 3.6% | 45.3hPa | 2.7V | 00:00:00 | 01:31:16 | 00:00:00 | |
| DB0UT-7 | 2026-09-03 06:01:08 | 49.25062 | 8.40148 | 240° | 20km/h | 21645m | 4.9m/s | -52.7°C | 3.7% | 45.4hPa | 2.7V | 00:00:00 | 00:00:00 | 00:00:00 | |
| CB1BUN | 2026-09-03 06:01:06 | 49.25065 | 8.40155 | 241° | 20km/h | 21641m | 4.1m/s | -52.8°C | 0.8% | 45.4hPa | 2.7V | 03:46:00 | 00:00:00 | 00:00:00 | |
| DM7RM-13 | 2026-09-03 06:01:05 | 49.25068 | 8.40161 | 238° | 18km/h | 21636m | 5.8m/s | -52.8°C | 0.9% | 45.5hPa | 2.7V | 03:46:00 | 00:00:00 | 00:00:00 | |
| DM0DOS-11 | 2026-09-03 06:01:04 | 49.25080 | 8.40176 | 202° | 20km/h | 21616m | 6.2m/s | -52.6°C | 3.7% | 45.6hPa | 2.7V | 03:46:34 | 01:31:09 | 00:00:00 | |
| BIOWL1-15 | 2026-09-03 06:01:03 | 49.25086 | 8.40179 | 198° | 22km/h | 21610m | 4.5m/s | -52.5°C | 0% | 45.6hPa | 2.7V | 03:46:46 | 01:31:08 | 00:00:00 | |
| DL1XH-west | 2026-09-03 06:00:59 | 49.25097 | 8.40183 | 185° | 22km/h | 21600m | 6m/s | -52.5°C | 0% | 45.7hPa | 2.6V | 03:46:46 | 01:31:06 | 00:00:00 | |
| IW2NTF | 2026-09-03 06:00:56 | 49.25128 | 8.40200 | 208° | 15km/h | 21560m | 4.5m/s | -52.3°C | 0% | 46hPa | 2.7V | 03:46:45 | 01:30:58 | 00:00:00 | |
| BIOWL9-15 | 2026-09-03 06:00:55 | 49.25115 | 8.40186 | 206° | 16km/h | 21579m | 5.2m/s | -52.5°C | 0.8% | 45.9hPa | 2.6V | 00:00:00 | 00:00:00 | 00:00:00 | |
| DM0DOS-11 | 2026-09-03 06:00:54 | 49.25125 | 8.40197 | 217° | 15km/h | 21565m | 5.4m/s | -52.3°C | 3.6% | 46hPa | 2.6V | 03:46:44 | 01:30:59 | 00:00:00 | |
| BIOWL1-15 | 2026-09-03 06:00:52 | 49.25132 | 8.40203 | 202° | 18km/h | 21556m | 3.8m/s | -52.2°C | 0% | 46hPa | 2.7V | 03:46:46 | 01:30:57 | 00:00:00 | |
| DL1XH-west | 2026-09-03 06:00:49 | 49.25136 | 8.40206 | 199° | 22km/h | 21552m | 4.7m/s | -52.2°C | 0% | 46.1hPa | 2.6V | 03:47:37 | 01:30:56 | 00:00:00 | |
| DL1XH1-15 | 2026-09-03 06:00:48 | 49.25164 | 8.40222 | 202° | 29km/h | 21532m | 4.1m/s | -52.1°C | 3.5% | 46.2hPa | 2.6V | 03:46:51 | 01:30:52 | 00:00:00 | |
| IW2NTF | 2026-09-03 06:00:46 | 49.25183 | 8.40231 | 189° | 15km/h | 21512m | 4.3m/s | -52.2°C | 0% | 46.3hPa | 2.6V | 03:46:55 | 01:30:48 | 00:00:00 | |
| BIOWL1-15 | 2026-09-03 06:00:42 | 49.25187 | 8.40233 | 192° | 18km/h | 21508m | 5.4m/s | -52.3°C | 0% | 46.4hPa | 2.6V | 03:47:37 | 01:30:47 | 00:00:00 | |
| DK5PH-5 | 2026-09-03 06:00:41 | 49.25183 | 8.40231 | 190° | 27km/h | 21513m | 4.2m/s | -52.1°C | 3.5% | 46.3hPa | 2.6V | 00:00:00 | 01:30:48 | 00:00:00 | |
| DO3MHA-11 | 2026-09-03 06:00:40 | 49.25187 | 8.40232 | 193° | 26km/h | 21508m | 5.4m/s | -52.2°C | 3.5% | 46.3hPa | 2.6V | 00:00:00 | 01:30:47 | 00:00:00 | |
| DL1XH1-15 | 2026-09-03 06:00:39 | 49.25214 | 8.40248 | 200° | 24km/h | 21482m | 5.6m/s | -52.2°C | 3.5% | 46.5hPa | 2.6V | 03:47:01 | 01:30:42 | 00:00:00 | |
| DL1XH-west | 2026-09-03 06:00:38 | 49.25197 | 8.40237 | 201° | 24km/h | 21497m | 4.9m/s | -52.2°C | 0% | 46.5hPa | 2.7V | 03:47:37 | 01:30:45 | 00:00:00 | |
| DB0UT-7 | 2026-09-03 06:00:38 | 49.25197 | 8.40237 | 201° | 27km/h | 21497m | 4.9m/s | -52.2°C | 3.5% | 46.4hPa | 2.7V | 00:00:00 | 01:30:45 | 00:00:00 | |
| DJTTGO | 2026-09-03 06:00:37 | 49.25197 | 8.40237 | 202° | 24km/h | 21497m | 4.9m/s | -52.2°C | 0.8% | 46.5hPa | 2.7V | 03:47:00 | 00:00:00 | 00:00:00 | |
| DF1GD-15 | 2026-09-03 06:00:35 | 49.25208 | 8.40244 | 203° | 26km/h | 21487m | 5.3m/s | -52.2°C | 0.8% | 46.5hPa | 2.7V | 03:47:00 | 00:00:00 | 00:00:00 | |
| DM0DOS-11 | 2026-09-03 06:00:34 | 49.25233 | 8.40257 | 194° | 29km/h | 21468m | 5.7m/s | -52.2°C | 3.5% | 46.6hPa | 2.7V | 03:47:04 | 01:30:39 | 00:00:00 | |
| DK7TD | 2026-09-03 06:00:31 | 49.25241 | 8.40259 | 192° | 31km/h | 21462m | 5.3m/s | -52.2°C | 0% | 46.7hPa | 2.7V | 03:47:37 | 01:30:38 | 00:00:00 | |
| DO3MHA-11 | 2026-09-03 06:00:30 | 49.25249 | 8.40261 | 189° | 27km/h | 21458m | 4.1m/s | -52.2°C | 3.5% | 46.7hPa | 2.7V | 00:00:00 | 01:30:37 | 00:00:00 | |
| HARRO8 | 2026-09-03 06:00:29 | 49.25256 | 8.40263 | 183° | 27km/h | 21453m | 4.3m/s | -52.2°C | 0.8% | 46.8hPa | 2.7V | 00:00:00 | 00:00:00 | 00:00:00 | |
| DL1XH1-15 | 2026-09-03 06:00:28 | 49.25282 | 8.40257 | 165° | 26km/h | 21433m | 5.9m/s | -52.1°C | 3.5% | 46.9hPa | 2.7V | 03:47:11 | 01:30:32 | 00:00:00 | |
| DL1XH-west | 2026-09-03 06:00:27 | 49.25269 | 8.40262 | 170° | 24km/h | 21443m | 4.6m/s | -52.2°C | 0% | 46.9hPa | 2.6V | 03:47:37 | 01:30:34 | 00:00:00 | |
| DM0DOS-11 | 2026-09-03 06:00:24 | 49.25302 | 8.40251 | 170° | 26km/h | 21418m | 5.4m/s | -52.1°C | 3.5% | 47hPa | 2.7V | 03:47:14 | 01:30:29 | 00:00:00 | |
| DJ2DS-15 | 2026-09-03 06:00:24 | 49.25295 | 8.40253 | 168° | 27km/h | 21423m | 4.2m/s | -52.1°C | 0.7% | 47.0hPa | 2.7V | 00:00:00 | 00:00:00 | 00:00:00 | |
| DF3TZ-5 | 2026-09-03 06:00:23 | 49.25295 | 8.40253 | 168° | 27km/h | 21423m | 4.2m/s | -52.1°C | 0.7% | 47.0hPa | 2.7V | 00:00:00 | 00:00:00 | 00:00:00 | |
| DL6DJ-15 | 2026-09-03 06:00:22 | 49.25302 | 8.40251 | 170° | 26km/h | 21418m | 5.4m/s | -52.1°C | 0.8% | 47.0hPa | 2.7V | 00:00:00 | 00:00:00 | 00:00:00 | |
| DB0UT-9 | 2026-09-03 06:00:21 | 49.25302 | 8.40251 | 172° | 26km/h | 21419m | 5.4m/s | -52.1°C | 0.8% | 47.0hPa | 2.7V | 03:47:00 | 00:00:00 | 00:00:00 | |
| DD1CC8 | 2026-09-03 06:00:20 | 49.25321 | 8.40249 | 181° | 27km/h | 21404m | 4.9m/s | -52.1°C | 0.7% | 47.1hPa | 2.7V | 00:00:00 | 00:00:00 | 00:00:00 | |
| DL1XH1-15 | 2026-09-03 06:00:19 | 49.25352 | 8.40248 | 172° | 29km/h | 21384m | 5.4m/s | -52.2°C | 3.5% | 47.3hPa | 2.7V | 03:47:21 | 01:30:22 | 00:00:00 | |
| DK7TD | 2026-09-03 06:00:18 | 49.25328 | 8.40249 | 182° | 31km/h | 21398m | 5.5m/s | -52.1°C | 0% | 47.2hPa | 2.6V | 03:47:37 | 01:30:25 | 00:00:00 | |
| DL1XH-west | 2026-09-03 06:00:16 | 49.25344 | 8.40249 | 177° | 31km/h | 21389m | 4.1m/s | -52.2°C | 0% | 47.2hPa | 2.7V | 03:47:37 | 01:30:23 | 00:00:00 | |
| BIOWL1-15 | 2026-09-03 06:00:08 | 49.25402 | 8.40210 | 148° | 29km/h | 21349m | 5.6m/s | -52.5°C | 0% | 47.5hPa | 2.6V | 03:47:37 | 01:30:15 | 00:00:00 | |
| DL1XH-west | 2026-09-03 06:00:06 | 49.25413 | 8.40201 | 157° | 26km/h | 21340m | 4.5m/s | -52.5°C | 0% | 47.6hPa | 2.6V | 03:47:37 | 01:30:13 | 00:00:00 | |
| DM0DOS-11 | 2026-09-03 06:00:04 | 49.25445 | 8.40189 | 165° | 24km/h | 21316m | 5.1m/s | -53°C | 3.7% | 47.8hPa | 2.6V | 03:47:35 | 01:30:08 | 00:00:00 | |
| DK7TD | 2026-09-03 06:00:02 | 49.25439 | 8.40191 | 169° | 24km/h | 21321m | 5.3m/s | -52.9°C | 0% | 47.8hPa | 2.6V | 03:47:37 | 01:30:09 | 00:00:00 | |
| DB0UT-9 | 2026-09-03 06:00:01 | 49.25439 | 8.40191 | 170° | 24km/h | 21321m | 5.3m/s | -52.9°C | 0.9% | 47.8hPa | 2.7V | 03:47:00 | 00:00:00 | 00:00:00 | |
| DL1XH1-15 | 2026-09-03 05:59:58 | 49.25462 | 8.40175 | 142° | 31km/h | 21300m | 5.9m/s | -52.9°C | 3.7% | 47.9hPa | 2.7V | 03:47:38 | 01:30:05 | 00:00:00 | |
| BIOWL1-15 | 2026-09-03 05:59:58 | 49.25462 | 8.40175 | 142° | 31km/h | 21301m | 5.9m/s | -52.9°C | 0% | 47.9hPa | 2.7V | 03:48:28 | 01:30:05 | 00:00:00 | |
| DL1XH-west | 2026-09-03 05:59:56 | 49.25474 | 8.40158 | 131° | 33km/h | 21291m | 4.5m/s | -52.8°C | 0% | 48hPa | 2.6V | 03:48:28 | 01:30:03 | 00:00:00 | |
| DM0DOS-11 | 2026-09-03 05:59:54 | 49.25497 | 8.40114 | 135° | 27km/h | 21264m | 4.8m/s | -52.7°C | 3.6% | 48.2hPa | 2.6V | 03:47:45 | 01:29:58 | 00:00:00 | |
| DL0LBS | 2026-09-03 05:59:54 | 49.25483 | 8.40139 | 125° | 29km/h | 21281m | 4.8m/s | -52.7°C | 0.8% | 48.1hPa | 2.7V | 03:48:00 | 00:00:00 | 00:00:00 | |
| DL1XH1-15 | 2026-09-03 05:59:53 | 49.25510 | 8.40096 | 141° | 20km/h | 21249m | 5m/s | -52.6°C | 3.6% | 48.3hPa | 2.7V | 03:47:48 | 01:29:55 | 00:00:00 | |
| DK7TD | 2026-09-03 05:59:52 | 49.25492 | 8.40122 | 130° | 27km/h | 21270m | 6.3m/s | -52.7°C | 0% | 48.1hPa | 2.6V | 03:49:19 | 01:29:59 | 00:00:00 | |
| BIOWL1-15 | 2026-09-03 05:59:47 | 49.25515 | 8.40091 | 144° | 22km/h | 21245m | 4.2m/s | -52.6°C | 0% | 48.4hPa | 2.6V | 03:48:28 | 01:29:54 | 00:00:00 | |
| DL1XH-west | 2026-09-03 05:59:45 | 49.25524 | 8.40080 | 144° | 27km/h | 21235m | 5.5m/s | -52.6°C | 0% | 48.4hPa | 2.6V | 03:48:28 | 01:29:52 | 00:00:00 | |
| DM7RM-13 | 2026-09-03 05:59:44 | 49.25525 | 8.40080 | 145° | 27km/h | 21235m | 5.5m/s | -52.6°C | 0.8% | 48.4hPa | 2.7V | 03:48:00 | 00:00:00 | 00:00:00 | |
| DL1XH1-15 | 2026-09-03 05:59:43 | 49.25558 | 8.40027 | 127° | 31km/h | 21200m | 5.8m/s | -52.7°C | 3.6% | 48.6hPa | 2.7V | 03:47:58 | 01:29:45 | 00:00:00 | |
| DK7TD | 2026-09-03 05:59:40 | 49.25550 | 8.40044 | 125° | 27km/h | 21210m | 4.3m/s | -52.7°C | 0% | 48.6hPa | 2.6V | 03:49:19 | 01:29:47 | 00:00:00 | |
| BIOWL1-15 | 2026-09-03 05:59:37 | 49.25563 | 8.40017 | 131° | 31km/h | 21195m | 4.7m/s | -52.7°C | 0% | 48.7hPa | 2.7V | 03:48:28 | 01:29:44 | 00:00:00 | |
| DM3KS-11 | 2026-09-03 05:59:36 | 49.25569 | 8.40009 | 135° | 31km/h | 21190m | 4.3m/s | -52.7°C | 0.8% | 48.7hPa | 2.7V | 00:00:00 | 00:00:00 | 00:00:00 | |
| DM0DOS-11 | 2026-09-03 05:59:35 | 49.25597 | 8.39977 | 147° | 31km/h | 21166m | 5.6m/s | -53°C | 3.6% | 48.9hPa | 2.7V | 03:48:05 | 01:29:38 | 00:00:00 | |
| DL1XH-west | 2026-09-03 05:59:34 | 49.25580 | 8.39994 | 143° | 27km/h | 21180m | 5.1m/s | -52.8°C | 0% | 48.8hPa | 2.6V | 03:48:28 | 01:29:41 | 00:00:00 | |
| DK7TD | 2026-09-03 05:59:29 | 49.25611 | 8.39962 | 143° | 35km/h | 21156m | 4.1m/s | -52.9°C | 0% | 49hPa | 2.6V | 03:49:19 | 01:29:36 | 00:00:00 | |
| HARRO8 | 2026-09-03 05:59:27 | 49.25623 | 8.39947 | 139° | 27km/h | 21147m | 5.9m/s | -53.0°C | 0.8% | 49.1hPa | 2.7V | 00:00:00 | 00:00:00 | 00:00:00 | |
| DM0DOS-11 | 2026-09-03 05:59:26 | 49.25655 | 8.39914 | 156° | 22km/h | 21116m | 5.7m/s | -53.2°C | 3.6% | 49.3hPa | 2.7V | 03:48:15 | 01:29:28 | 00:00:00 | |
| BIOWL1-15 | 2026-09-03 05:59:26 | 49.25629 | 8.39940 | 140° | 26km/h | 21142m | 4.7m/s | -53.1°C | 0% | 49.1hPa | 2.6V | 03:48:28 | 01:29:33 | 00:00:00 | |
| DL1XH-west | 2026-09-03 05:59:24 | 49.25639 | 8.39928 | 146° | 26km/h | 21131m | 5.8m/s | -53.2°C | 0% | 49.2hPa | 2.6V | 03:48:28 | 01:29:31 | 00:00:00 | |
| DL1XH1-15 | 2026-09-03 05:59:23 | 49.25671 | 8.39907 | 165° | 22km/h | 21101m | 5.4m/s | -53.4°C | 3.7% | 49.4hPa | 2.6V | 03:48:18 | 01:29:25 | 00:00:00 | |
| DK7TD | 2026-09-03 05:59:18 | 49.25670 | 8.39907 | 166° | 22km/h | 21101m | 5.4m/s | -53.4°C | 0% | 49.4hPa | 2.6V | 03:49:19 | 01:29:25 | 00:00:00 | |
| BIOWL1-15 | 2026-09-03 05:59:17 | 49.25690 | 8.39900 | 165° | 26km/h | 21087m | 4.4m/s | -53.8°C | 0% | 49.5hPa | 2.7V | 03:48:28 | 01:29:22 | 00:00:00 | |
| DM0DOS-11 | 2026-09-03 05:59:14 | 49.25711 | 8.39888 | 152° | 24km/h | 21067m | 6.1m/s | -53.7°C | 3.7% | 49.7hPa | 2.7V | 03:48:25 | 01:29:18 | 00:00:00 | |
| DL1XH-west | 2026-09-03 05:59:13 | 49.25701 | 8.39894 | 161° | 22km/h | 21076m | 4.3m/s | -53.8°C | 0% | 49.6hPa | 2.6V | 03:48:28 | 01:29:20 | 00:00:00 | |
| DK7TD | 2026-09-03 05:59:07 | 49.25730 | 8.39866 | 133° | 20km/h | 21047m | 5.5m/s | -53.5°C | 0% | 49.8hPa | 2.6V | 03:49:19 | 01:29:14 | 00:00:00 | |
| BIOWL1-15 | 2026-09-03 05:59:06 | 49.25741 | 8.39846 | 133° | 26km/h | 21031m | 5.7m/s | -53.5°C | 0% | 50hPa | 2.7V | 03:49:19 | 01:29:11 | 00:00:00 | |
| DL1XH-west | 2026-09-03 05:59:02 | 49.25750 | 8.39831 | 129° | 26km/h | 21021m | 4.8m/s | -53.5°C | 0% | 50hPa | 2.6V | 03:49:19 | 01:29:09 | 00:00:00 | |
| DL4BBY-15 | 2026-09-03 05:59:00 | 49.25756 | 8.39816 | 121° | 20km/h | 21011m | 4.7m/s | -54.2°C | 0% | 0hPa | 2.6V | 00:00:00 | 00:00:00 | 00:00:00 | |
| DL1XH1-15 | 2026-09-03 05:58:58 | 49.25765 | 8.39798 | 129° | 18km/h | 20996m | 4.7m/s | -53.6°C | 3.8% | 50.2hPa | 2.6V | 03:48:39 | 01:29:04 | 00:00:00 | |
| DK7TD | 2026-09-03 05:58:57 | 49.25765 | 8.39798 | 129° | 18km/h | 20996m | 4.7m/s | -53.6°C | 0% | 50.2hPa | 2.6V | 03:49:19 | 01:29:04 | 00:00:00 | |
| BIOWL1-15 | 2026-09-03 05:58:53 | 49.25774 | 8.39779 | 127° | 15km/h | 20977m | 3.7m/s | -53.8°C | 0% | 50.4hPa | 2.5V | 03:49:19 | 01:29:00 | 00:00:00 | |
| DL1XH-west | 2026-09-03 05:58:51 | 49.25780 | 8.39769 | 138° | 22km/h | 20967m | 6m/s | -53.8°C | 0.1% | 50.5hPa | 2.6V | 03:49:19 | 01:28:58 | 00:00:00 | |
| DK7TD | 2026-09-03 05:58:46 | 49.25806 | 8.39741 | 148° | 24km/h | 20941m | 4.5m/s | -53.8°C | 0.1% | 50.7hPa | 2.6V | 03:49:19 | 01:28:53 | 00:00:00 | |
| BIOWL1-15 | 2026-09-03 05:58:45 | 49.25822 | 8.39729 | 158° | 22km/h | 20925m | 4.3m/s | -53.8°C | 0% | 50.8hPa | 2.7V | 03:49:19 | 01:28:50 | 00:00:00 | |
| DM0DOS-11 | 2026-09-03 05:58:44 | 49.25832 | 8.39724 | 161° | 16km/h | 20915m | 5.8m/s | -53.7°C | 3.8% | 50.9hPa | 2.6V | 03:48:55 | 01:28:48 | 00:00:00 | |
| DL1XH-west | 2026-09-03 05:58:41 | 49.25832 | 8.39724 | 162° | 16km/h | 20915m | 5.8m/s | -53.7°C | 0% | 50.9hPa | 2.6V | 03:49:19 | 01:28:48 | 00:00:00 | |
| DK5PH-5 | 2026-09-03 05:58:41 | 49.25832 | 8.39723 | 162° | 22km/h | 20916m | 5.7m/s | -53.7°C | 3.8% | 50.8hPa | 2.7V | 00:00:00 | 01:28:48 | 00:00:00 | |
| DO3MHA-11 | 2026-09-03 05:58:40 | 49.25836 | 8.39721 | 162° | 22km/h | 20910m | 4.5m/s | -53.6°C | 3.7% | 50.9hPa | 2.7V | 00:00:00 | 01:28:47 | 00:00:00 | |
| HEMX73-11 | 2026-09-03 05:58:39 | 49.25836 | 8.39721 | 162° | 16km/h | 20910m | 4.5m/s | -53.7°C | 0.8% | 50.9hPa | 2.7V | 03:49:00 | 00:00:00 | 00:00:00 | |
| DL1XH1-15 | 2026-09-03 05:58:38 | 49.25849 | 8.39713 | 151° | 24km/h | 20895m | 4.7m/s | -53.5°C | 3.7% | 51hPa | 2.7V | 03:48:59 | 01:28:44 | 00:00:00 | |
| DK7TD | 2026-09-03 05:58:36 | 49.25854 | 8.39708 | 147° | 24km/h | 20890m | 4.5m/s | -53.5°C | 0% | 51.1hPa | 2.6V | 03:49:19 | 01:28:43 | 00:00:00 | |
| DJ2DS-15 | 2026-09-03 05:58:36 | 49.25859 | 8.39703 | 139° | 22km/h | 20885m | 5.7m/s | -53.6°C | 0.8% | 51.1hPa | 2.6V | 00:00:00 | 00:00:00 | 00:00:00 | |
| DM0DOS-11 | 2026-09-03 05:58:34 | 49.25874 | 8.39678 | 136° | 22km/h | 20864m | 5.8m/s | -53.7°C | 3.6% | 51.3hPa | 2.6V | 03:49:05 | 01:28:38 | 00:00:00 | |
| BIOWL1-15 | 2026-09-03 05:58:32 | 49.25870 | 8.39684 | 133° | 22km/h | 20870m | 5.2m/s | -53.6°C | 0% | 51.2hPa | 2.5V | 03:49:19 | 01:28:39 | 00:00:00 | |
| DL1XH-west | 2026-09-03 05:58:30 | 49.25878 | 8.39673 | 139° | 22km/h | 20860m | 4.6m/s | -53.8°C | 0% | 51.3hPa | 2.6V | 03:49:19 | 01:28:37 | 00:00:00 | |
| DO3MHA-11 | 2026-09-03 05:58:30 | 49.25878 | 8.39673 | 140° | 20km/h | 20860m | 4.5m/s | -53.7°C | 3.6% | 51.3hPa | 2.7V | 00:00:00 | 01:28:37 | 00:00:00 | |
| DL1XH1-15 | 2026-09-03 05:58:28 | 49.25888 | 8.39660 | 136° | 15km/h | 20844m | 4.7m/s | -53.9°C | 3.8% | 51.4hPa | 2.7V | 03:49:09 | 01:28:34 | 00:00:00 | |
| DK7TD | 2026-09-03 05:58:25 | 49.25894 | 8.39651 | 137° | 18km/h | 20835m | 5.9m/s | -54°C | 0% | 51.5hPa | 2.6V | 03:49:19 | 01:28:32 | 00:00:00 | |
| DM0DOS-11 | 2026-09-03 05:58:25 | 49.25911 | 8.39622 | 124° | 27km/h | 20814m | 5.5m/s | -54.2°C | 3.9% | 51.7hPa | 2.7V | 03:49:15 | 01:28:28 | 00:00:00 | |
| BIOWL1-15 | 2026-09-03 05:58:21 | 49.25911 | 8.39623 | 124° | 27km/h | 20814m | 5.5m/s | -54.2°C | 0.1% | 51.7hPa | 2.7V | 03:49:19 | 01:28:28 | 00:00:00 | |
| DL1XH-west | 2026-09-03 05:58:20 | 49.25915 | 8.39614 | 121° | 27km/h | 20809m | 4.2m/s | -54.3°C | 0.1% | 51.7hPa | 2.5V | 03:49:19 | 01:28:27 | 00:00:00 | |
| DO3MHA-11 | 2026-09-03 05:58:20 | 49.25914 | 8.39614 | 122° | 24km/h | 20809m | 4.2m/s | -54.2°C | 3.9% | 51.7hPa | 2.5V | 00:00:00 | 01:28:27 | 00:00:00 | |
| HEMX73-11 | 2026-09-03 05:58:19 | 49.25914 | 8.39614 | 122° | 27km/h | 20809m | 4.2m/s | -54.3°C | 0.9% | 51.7hPa | 2.7V | 03:49:00 | 00:00:00 | 00:00:00 | |
| DL1XH1-15 | 2026-09-03 05:58:18 | 49.25927 | 8.39587 | 131° | 29km/h | 20793m | 5.1m/s | -54.4°C | 3.9% | 51.8hPa | 2.7V | 03:49:19 | 01:28:24 | 00:00:00 | |
| DK7TD | 2026-09-03 05:58:15 | 49.25936 | 8.39572 | 131° | 24km/h | 20783m | 6m/s | -54.4°C | 0.1% | 51.9hPa | 2.7V | 03:50:10 | 01:28:22 | 00:00:00 | |
| DM0DOS-11 | 2026-09-03 05:58:14 | 49.25949 | 8.39550 | 136° | 22km/h | 20762m | 5.6m/s | -54.5°C | 3.9% | 52.1hPa | 2.7V | 03:49:25 | 01:28:18 | 00:00:00 | |
| BIOWL1-15 | 2026-09-03 05:58:11 | 49.25949 | 8.39550 | 136° | 22km/h | 20762m | 5.6m/s | -54.5°C | 0% | 52.1hPa | 2.7V | 03:50:10 | 01:28:18 | 00:00:00 | |
| DL1XH-west | 2026-09-03 05:58:10 | 49.25953 | 8.39544 | 133° | 22km/h | 20757m | 4.3m/s | -54.4°C | 0.1% | 52.1hPa | 2.7V | 03:50:10 | 01:28:17 | 00:00:00 | |
| DO3MHA-11 | 2026-09-03 05:58:10 | 49.25953 | 8.39544 | 133° | 20km/h | 20757m | 4.3m/s | -54.4°C | 4.0% | 52.1hPa | 2.7V | 03:49:00 | 01:28:17 | 00:00:00 | |
| DL1XH1-15 | 2026-09-03 05:58:08 | 49.25962 | 8.39521 | 114° | 24km/h | 20742m | 3.8m/s | -54.3°C | 4% | 52.3hPa | 2.7V | 03:49:29 | 01:28:14 | 00:00:00 | |
| DF7PN | 2026-09-03 05:58:08 | 49.25962 | 8.39521 | 114° | 22km/h | 20742m | 3.8m/s | -54.3°C | 0.9% | 52.3hPa | 2.6V | 00:00:00 | 00:00:00 | 00:00:00 | |
| DO1YAY-16 | 2026-09-03 05:58:07 | 49.25965 | 8.39513 | 114° | 22km/h | 20738m | 3.9m/s | -54.3°C | 0.9% | 52.3hPa | 2.6V | 00:00:00 | 00:00:00 | 00:00:00 | |
| DM0DOS-11 | 2026-09-03 05:58:04 | 49.25976 | 8.39479 | 107° | 15km/h | 20711m | 5.3m/s | -54.3°C | 4% | 52.5hPa | 2.6V | 03:49:35 | 01:28:08 | 00:00:00 | |
| DK7TD | 2026-09-03 05:58:04 | 49.25970 | 8.39497 | 118° | 22km/h | 20728m | 5.1m/s | -54.4°C | 0.2% | 52.4hPa | 2.6V | 03:50:10 | 01:28:11 | 00:00:00 | |
| BIOWL1-15 | 2026-09-03 05:58:01 | 49.25976 | 8.39479 | 108° | 15km/h | 20711m | 5.3m/s | -54.3°C | 0.1% | 52.5hPa | 2.6V | 03:50:10 | 01:28:08 | 00:00:00 | |
| DL1XH-west | 2026-09-03 05:57:59 | 49.25978 | 8.39467 | 113° | 18km/h | 20702m | 5.4m/s | -54.3°C | 0% | 52.6hPa | 2.6V | 03:50:10 | 01:28:06 | 00:00:00 | |
| HEMX73-11 | 2026-09-03 05:57:58 | 49.25978 | 8.39467 | 114° | 18km/h | 20702m | 5.4m/s | -54.3°C | 0.9% | 52.6hPa | 2.7V | 03:50:00 | 00:00:00 | 00:00:00 | |
| NBG1-10 | 2026-09-03 05:57:57 | 49.25983 | 8.39453 | 116° | 22km/h | 20691m | 4.6m/s | -54.2°C | 3.8% | 52.6hPa | 2.7V | 00:00:00 | 01:28:04 | 00:00:00 | |
| DO8TBO-1 | 2026-09-03 05:57:56 | 49.25986 | 8.39444 | 112° | 22km/h | 20686m | 4.5m/s | -54.1°C | 3.8% | 52.7hPa | 2.7V | 03:49:00 | 01:28:03 | 00:00:00 | |
| DM0DOS-11 | 2026-09-03 05:57:54 | 49.25988 | 8.39402 | 88° | 20km/h | 20661m | 5.3m/s | -54.1°C | 4% | 52.9hPa | 2.7V | 03:49:45 | 01:27:58 | 00:00:00 | |
| DK7TD | 2026-09-03 05:57:54 | 49.25989 | 8.39426 | 96° | 22km/h | 20676m | 5.4m/s | -54.1°C | 0% | 52.8hPa | 2.6V | 03:50:10 | 01:28:01 | 00:00:00 | |
| BIOWL1-15 | 2026-09-03 05:57:52 | 49.25988 | 8.39394 | 91° | 22km/h | 20656m | 5.1m/s | -54°C | 0.1% | 53hPa | 2.7V | 03:50:10 | 01:27:57 | 00:00:00 | |
| DL1XH-west | 2026-09-03 05:57:48 | 49.25988 | 8.39377 | 83° | 22km/h | 20647m | 4.8m/s | -53.9°C | 0.1% | 53hPa | 2.6V | 03:50:10 | 01:27:55 | 00:00:00 | |
| AU51GT2 | 2026-09-03 05:57:47 | 49.25985 | 8.39360 | 75° | 22km/h | 20635m | 4.9m/s | -53.9°C | 0.9% | 53.1hPa | 2.6V | 00:00:00 | 00:00:00 | 00:00:00 | |
| DM0DOS-11 | 2026-09-03 05:57:44 | 49.25986 | 8.39318 | 103° | 20km/h | 20611m | 5.8m/s | -53.8°C | 3.8% | 53.4hPa | 2.6V | 03:49:55 | 01:27:48 | 00:00:00 | |
| DK7TD | 2026-09-03 05:57:44 | 49.25984 | 8.39343 | 89° | 24km/h | 20626m | 5.9m/s | -53.8°C | 0% | 53.2hPa | 2.7V | 03:50:10 | 01:27:51 | 00:00:00 | |
| AZAK | 2026-09-03 05:57:42 | 49.25984 | 8.39334 | 100° | 24km/h | 20621m | 4.9m/s | -53.8°C | 0.9% | 53.3hPa | 2.6V | 03:50:00 | 00:00:00 | 00:00:00 | |
| DK5PH-5 | 2026-09-03 05:57:41 | 49.25986 | 8.39318 | 104° | 18km/h | 20611m | 5.8m/s | -53.8°C | 3.8% | 53.3hPa | 2.6V | 00:00:00 | 01:27:48 | 00:00:00 | |
| IW2NTF | 2026-09-03 05:57:40 | 49.25991 | 8.39281 | 83° | 15km/h | 20583m | 4.3m/s | -54.1°C | 0% | 53.6hPa | 2.7V | 03:50:01 | 01:27:42 | 00:00:00 | |
| BIOWL1-15 | 2026-09-03 05:57:39 | 49.25988 | 8.39304 | 102° | 16km/h | 20601m | 4m/s | -53.9°C | 0% | 53.4hPa | 2.7V | 03:50:10 | 01:27:46 | 00:00:00 | |
| DL1XH-west | 2026-09-03 05:57:38 | 49.25989 | 8.39298 | 105° | 16km/h | 20596m | 4.9m/s | -54°C | 0% | 53.5hPa | 2.5V | 03:50:10 | 01:27:45 | 00:00:00 | |
| DB0UT-7 | 2026-09-03 05:57:38 | 49.25989 | 8.39298 | 105° | 18km/h | 20597m | 4.8m/s | -53.9°C | 3.8% | 53.4hPa | 2.5V | 03:49:00 | 01:27:45 | 00:00:00 | |
| DF7PN | 2026-09-03 05:57:37 | 49.25991 | 8.39286 | 97° | 15km/h | 20587m | 4.1m/s | -54.1°C | 0.9% | 53.5hPa | 2.7V | 00:00:00 | 00:00:00 | 00:00:00 | |
| DO1YAY-16 | 2026-09-03 05:57:36 | 49.25991 | 8.39286 | 97° | 15km/h | 20587m | 4.1m/s | -54.1°C | 0.9% | 53.5hPa | 2.7V | 00:00:00 | 00:00:00 | 00:00:00 | |
| DM0DOS-11 | 2026-09-03 05:57:34 | 49.25981 | 8.39252 | 61° | 29km/h | 20561m | 6.1m/s | -54.2°C | 3.9% | 53.7hPa | 2.7V | 03:50:05 | 01:27:38 | 00:00:00 | |
| DK7TD | 2026-09-03 05:57:33 | 49.25988 | 8.39269 | 56° | 20km/h | 20572m | 5.5m/s | -54.2°C | 0% | 53.7hPa | 2.6V | 03:50:10 | 01:27:40 | 00:00:00 | |
| DJ2DS-15 | 2026-09-03 05:57:32 | 49.25984 | 8.39261 | 56° | 20km/h | 20567m | 5.2m/s | -54.2°C | 3.9% | 53.7hPa | 2.7V | 00:00:00 | 01:27:39 | 00:00:00 | |
| IW2NTF | 2026-09-03 05:57:30 | 49.25967 | 8.39191 | 70° | 18km/h | 20530m | 4.8m/s | 0°C | 0% | 0hPa | 2.7V | 03:50:11 | 01:27:32 | 00:00:00 | |
| BIOWL1-15 | 2026-09-03 05:57:29 | 49.25975 | 8.39230 | 72° | 31km/h | 20551m | 3.8m/s | -54°C | 0.1% | 53.8hPa | 2.6V | 03:50:10 | 01:27:36 | 00:00:00 | |
| DL1XH-west | 2026-09-03 05:57:28 | 49.25972 | 8.39219 | 74° | 29km/h | 20547m | 4.3m/s | -54°C | 0.1% | 53.9hPa | 2.6V | 03:50:10 | 01:27:35 | 00:00:00 | |
| DO8TBO-1 | 2026-09-03 05:57:26 | 49.25968 | 8.39199 | 71° | 11km/h | 20536m | 6.2m/s | -54.0°C | 4.0% | 53.9hPa | 2.7V | 00:00:00 | 01:27:33 | 00:00:00 | |
| NBG1-10 | 2026-09-03 05:57:24 | 49.25966 | 8.39185 | 80° | 11km/h | 20525m | 5.6m/s | -54.0°C | 4.1% | 54.0hPa | 2.7V | 00:00:00 | 01:27:31 | 00:00:00 | |
| DM0DOS-11 | 2026-09-03 05:57:23 | 49.25965 | 8.39166 | 92° | 16km/h | 20506m | 5m/s | -53.9°C | 3.9% | 54.2hPa | 2.7V | 03:50:15 | 01:27:28 | 00:00:00 | |
| DK7TD | 2026-09-03 05:57:22 | 49.25965 | 8.39172 | 93° | 16km/h | 20512m | 5.9m/s | -54°C | 0.2% | 54.2hPa | 2.6V | 03:51:01 | 01:27:29 | 00:00:00 | |
| IW2NTF | 2026-09-03 05:57:20 | 49.25954 | 8.39146 | 34° | 18km/h | 20469m | 6.4m/s | 0°C | 0% | 0hPa | 2.7V | 03:50:21 | 01:27:22 | 00:00:00 | |
| CB1BUN | 2026-09-03 05:57:20 | 49.25965 | 8.39161 | 86° | 13km/h | 20501m | 5.6m/s | -53.9°C | 0.9% | 54.3hPa | 2.6V | 03:51:00 | 00:00:00 | 00:00:00 | |
| DL1XH1-15 | 2026-09-03 05:57:18 | 49.25947 | 8.39136 | 54° | 18km/h | 20458m | 4.9m/s | -53.6°C | 0% | 54.6hPa | 2.6V | 03:50:23 | 01:27:20 | 00:00:00 | |
| DL1XH-west | 2026-09-03 05:57:18 | 49.25963 | 8.39153 | 36° | 9km/h | 20487m | 7.2m/s | -53.9°C | 0.1% | 54.4hPa | 2.5V | 03:51:01 | 01:27:25 | 00:00:00 | |
| BIOWL9-15 | 2026-09-03 05:57:18 | 49.25961 | 8.39151 | 22° | 11km/h | 20481m | 6.0m/s | -53.8°C | 0.9% | 54.5hPa | 2.7V | 00:00:00 | 00:00:00 | 00:00:00 | |
| DF3TZ-5 | 2026-09-03 05:57:17 | 49.25961 | 8.39151 | 22° | 11km/h | 20481m | 6.0m/s | -53.8°C | 0.9% | 54.5hPa | 2.7V | 00:00:00 | 00:00:00 | 00:00:00 | |
| DL6DJ-15 | 2026-09-03 05:57:16 | 49.25954 | 8.39146 | 34° | 16km/h | 20469m | 6.4m/s | -53.7°C | 0.9% | 54.5hPa | 2.7V | 00:00:00 | 00:00:00 | 00:00:00 | |
| DL8DAS-15 | 2026-09-03 05:57:13 | 49.25950 | 8.39141 | 46° | 18km/h | 20463m | 5.2m/s | -53.7°C | 0.9% | 54.6hPa | 2.7V | 00:00:00 | 00:00:00 | 00:00:00 | |
| DM0DOS-11 | 2026-09-03 05:57:12 | 49.25944 | 8.39127 | 70° | 9km/h | 20447m | 5.9m/s | -53.5°C | 3.8% | 54.7hPa | 2.7V | 03:50:25 | 01:27:18 | 00:00:00 | |
| DK7TD | 2026-09-03 05:57:12 | 49.25945 | 8.39131 | 62° | 15km/h | 20453m | 5.6m/s | -53.6°C | 0.1% | 54.7hPa | 2.6V | 03:51:01 | 01:27:19 | 00:00:00 | |
| DJ2DS-15 | 2026-09-03 05:57:12 | 49.25945 | 8.39131 | 62° | 7km/h | 20453m | 5.6m/s | -53.6°C | 3.9% | 54.6hPa | 2.5V | 00:00:00 | 01:27:19 | 00:00:00 | |
| DK5PH-5 | 2026-09-03 05:57:11 | 49.25944 | 8.39127 | 71° | 5km/h | 20448m | 5.9m/s | -53.5°C | 3.8% | 54.7hPa | 2.5V | 03:50:00 | 01:27:18 | 00:00:00 | |
| IW2NTF | 2026-09-03 05:57:10 | 49.25946 | 8.39111 | 92° | 15km/h | 20416m | 4.6m/s | 0°C | 0% | 0hPa | 2.5V | 03:50:31 | 01:27:12 | 00:00:00 | |
| DO3MHA-11 | 2026-09-03 05:57:10 | 49.25943 | 8.39124 | 92° | 9km/h | 20442m | 5.0m/s | -53.4°C | 3.8% | 54.7hPa | 2.6V | 00:00:00 | 01:27:17 | 00:00:00 | |
| DB0NH | 2026-09-03 05:57:09 | 49.25944 | 8.39123 | 128° | 5km/h | 20437m | 4.4m/s | -53.4°C | 3.8% | 54.7hPa | 2.6V | 00:00:00 | 01:27:16 | 00:00:00 | |
| DL1XH1-15 | 2026-09-03 05:57:08 | 49.25945 | 8.39100 | 66° | 13km/h | 20408m | 4.9m/s | -53.4°C | 0% | 55.1hPa | 2.6V | 03:50:33 | 01:27:10 | 00:00:00 | |
| DL1XH-west | 2026-09-03 05:57:08 | 49.25944 | 8.39121 | 127° | 5km/h | 20433m | 4.3m/s | -53.4°C | 0.1% | 54.9hPa | 2.6V | 03:51:01 | 01:27:15 | 00:00:00 | |
| BIOWL1-15 | 2026-09-03 05:57:07 | 49.25945 | 8.39119 | 114° | 7km/h | 20428m | 5.5m/s | -53.4°C | 0.1% | 54.9hPa | 2.7V | 03:51:01 | 01:27:14 | 00:00:00 | |
| DF7PN | 2026-09-03 05:57:06 | 49.25946 | 8.39111 | 92° | 13km/h | 20416m | 4.6m/s | -53.4°C | 0.9% | 55.0hPa | 2.7V | 00:00:00 | 00:00:00 | 00:00:00 | |
| DB0ND-19 | 2026-09-03 05:57:05 | 49.25946 | 8.39105 | 81° | 13km/h | 20412m | 4.0m/s | -53.4°C | 0.9% | 55.0hPa | 2.7V | 00:00:00 | 00:00:00 | 00:00:00 | |
| DM0DOS-11 | 2026-09-03 05:57:02 | 49.25942 | 8.39095 | 25° | 9km/h | 20397m | 4.6m/s | -53.2°C | 3.8% | 55.1hPa | 2.7V | 03:50:35 | 01:27:08 | 00:00:00 | |
| DK7TD | 2026-09-03 05:57:01 | 49.25942 | 8.39095 | 25° | 9km/h | 20398m | 4.6m/s | -53.2°C | 0.1% | 55.1hPa | 2.7V | 03:51:01 | 01:27:08 | 00:00:00 | |
| BIOWL1-15 | 2026-09-03 05:56:57 | 49.25940 | 8.39092 | 143° | 5km/h | 20379m | 3.9m/s | -53°C | 0.1% | 55.3hPa | 2.6V | 03:51:01 | 01:27:04 | 00:00:00 | |
| DK7TD | 2026-09-03 05:56:51 | 49.25939 | 8.39085 | 71° | 4km/h | 20351m | 5.4m/s | -52.8°C | 0% | 55.6hPa | 2.6V | 03:51:01 | 01:26:58 | 00:00:00 | |
| NBG1-10 | 2026-09-03 05:56:51 | 49.25939 | 8.39085 | 72° | 5km/h | 20351m | 5.3m/s | -52.8°C | 3.7% | 55.5hPa | 2.7V | 00:00:00 | 01:26:58 | 00:00:00 | |
| IW2NTF | 2026-09-03 05:56:50 | 49.25938 | 8.39090 | 274° | 7km/h | 20322m | 5m/s | 0°C | 0% | 0hPa | 2.7V | 03:50:51 | 01:26:52 | 00:00:00 | |
| DL1XH-west | 2026-09-03 05:56:47 | 49.25939 | 8.39085 | 296° | 5km/h | 20331m | 4.9m/s | -52.8°C | 0% | 55.7hPa | 2.6V | 03:51:01 | 01:26:54 | 00:00:00 | |
| BIOWL9-15 | 2026-09-03 05:56:47 | 49.25938 | 8.39087 | 285° | 5km/h | 20327m | 4.2m/s | -52.7°C | 0.9% | 55.8hPa | 2.6V | 00:00:00 | 00:00:00 | 00:00:00 | |
| DF3TZ-5 | 2026-09-03 05:56:46 | 49.25938 | 8.39087 | 285° | 5km/h | 20327m | 4.2m/s | -52.7°C | 0.9% | 55.8hPa | 2.6V | 00:00:00 | 00:00:00 | 00:00:00 | |
| DL6DJ-15 | 2026-09-03 05:56:45 | 49.25938 | 8.39093 | 261° | 7km/h | 20317m | 5.2m/s | -52.6°C | 0.9% | -1.0hPa | 2.6V | 00:00:00 | 00:00:00 | 00:00:00 | |
| DL1XH1-15 | 2026-09-03 05:56:44 | 49.25936 | 8.39097 | 48° | 7km/h | 20293m | 4.3m/s | 0°C | 0% | 0hPa | 2.6V | 03:50:57 | 01:26:46 | 00:00:00 | |
| DL8DAS-14 | 2026-09-03 05:56:42 | 49.25939 | 8.39097 | 269° | 4km/h | 20309m | 4.1m/s | -52.5°C | 0.9% | 55.9hPa | 2.7V | 00:00:00 | 00:00:00 | 00:00:00 | |
| DK5PH-5 | 2026-09-03 05:56:41 | 49.25938 | 8.39099 | 326° | 5km/h | 20304m | 5.7m/s | -52.4°C | 3.7% | 55.9hPa | 2.7V | 00:00:00 | 01:26:48 | 00:00:00 | |
| IW2NTF | 2026-09-03 05:56:40 | 49.25937 | 8.39084 | 124° | 11km/h | 20275m | 3.7m/s | 0°C | 0% | 0hPa | 2.7V | 03:51:01 | 01:26:42 | 00:00:00 | |
| DK7TD | 2026-09-03 05:56:40 | 49.25937 | 8.39099 | 22° | 5km/h | 20298m | 5.4m/s | -52.4°C | 0.1% | 56hPa | 2.5V | 03:51:01 | 01:26:47 | 00:00:00 | |
| BIOWL1-15 | 2026-09-03 05:56:36 | 49.25940 | 8.39078 | 169° | 2km/h | 20260m | 4.5m/s | -52.1°C | 0% | 56.3hPa | 2.6V | 03:51:52 | 01:26:39 | 00:00:00 | |
| DL1XH-west | 2026-09-03 05:56:36 | 49.25936 | 8.39087 | 117° | 11km/h | 20278m | 4m/s | -52.1°C | 0% | 56.2hPa | 2.7V | 03:51:01 | 01:26:43 | 00:00:00 | |
| DF7PN | 2026-09-03 05:56:35 | 49.25939 | 8.39081 | 124° | 7km/h | 20270m | 5.3m/s | -52.1°C | 0.8% | 56.3hPa | 2.7V | 00:00:00 | 00:00:00 | 00:00:00 | |
| DM0DOS-11 | 2026-09-03 05:56:34 | 49.25940 | 8.39078 | 231° | 2km/h | 20255m | 4.8m/s | -52°C | 3.6% | 56.4hPa | 2.7V | 03:51:05 | 01:26:38 | 00:00:00 | |
| DL1XH1-15 | 2026-09-03 05:56:34 | 49.25941 | 8.39080 | 220° | 4km/h | 20245m | 4.1m/s | 0°C | 0% | 0hPa | 2.7V | 00:00:00 | 01:26:36 | 00:00:00 | |
| DO1YAY-16 | 2026-09-03 05:56:34 | 49.25940 | 8.39079 | 122° | 4km/h | 20265m | 5.3m/s | -52.0°C | 0.8% | 56.3hPa | 2.6V | 00:00:00 | 00:00:00 | 00:00:00 | |
| DB0NH | 2026-09-03 05:56:33 | 49.25940 | 8.39079 | 123° | 9km/h | 20265m | 5.3m/s | -52.0°C | 3.6% | 56.3hPa | 2.6V | 00:00:00 | 01:26:40 | 00:00:00 | |
| DJ2DS-15 | 2026-09-03 05:56:32 | 49.25940 | 8.39078 | 169° | 5km/h | 20260m | 4.5m/s | -52.0°C | 3.6% | 56.3hPa | 2.6V | 03:51:00 | 01:26:39 | 00:00:00 | |
| AZAK | 2026-09-03 05:56:31 | 49.25940 | 8.39078 | 0° | 0km/h | 20260m | 4.5m/s | -52.1°C | 0.8% | 56.3hPa | 2.7V | 00:00:00 | 00:00:00 | 00:00:00 | |
| IW2NTF | 2026-09-03 05:56:30 | 49.25940 | 8.39080 | 47° | 5km/h | 20227m | 4.1m/s | 0°C | 0% | 0hPa | 2.7V | 00:00:00 | 01:26:32 | 00:00:00 | |
| DK7TD | 2026-09-03 05:56:29 | 49.25941 | 8.39080 | 221° | 4km/h | 20245m | 4.1m/s | -52°C | 0% | 56.5hPa | 2.7V | 03:51:52 | 01:26:36 | 00:00:00 | |
| BIOWL1-15 | 2026-09-03 05:56:26 | 49.25941 | 8.39081 | 17° | 4km/h | 20231m | 4.6m/s | -51.9°C | 0% | 56.6hPa | 2.6V | 03:51:52 | 01:26:33 | 00:00:00 | |
| DL1XH-west | 2026-09-03 05:56:25 | 49.25940 | 8.39080 | 48° | 5km/h | 20227m | 4.1m/s | -51.9°C | 0% | 56.6hPa | 2.7V | 03:51:52 | 01:26:32 | 00:00:00 | |
| DM0DOS-11 | 2026-09-03 05:56:23 | 49.25943 | 8.39071 | 142° | 11km/h | 20207m | 4.7m/s | -51.9°C | 3.7% | 56.8hPa | 2.7V | 03:51:15 | 01:26:28 | 00:00:00 | |
| HARRO8 | 2026-09-03 05:56:21 | 49.25945 | 8.39069 | 141° | 7km/h | 20202m | 5.8m/s | -51.9°C | 0.9% | 56.8hPa | 2.7V | 00:00:00 | 00:00:00 | 00:00:00 | |
| IW2NTF | 2026-09-03 05:56:20 | 49.25953 | 8.39065 | 170° | 7km/h | 20176m | 4m/s | 0°C | 0% | 0hPa | 2.7V | 00:00:00 | 01:26:22 | 00:00:00 | |
| DK7TD | 2026-09-03 05:56:18 | 49.25948 | 8.39066 | 162° | 5km/h | 20192m | 4.1m/s | -51.7°C | 0% | 56.9hPa | 2.6V | 03:51:52 | 01:26:25 | 00:00:00 | |
| NBG1-10 | 2026-09-03 05:56:18 | 49.25948 | 8.39066 | 162° | 16km/h | 20193m | 4.0m/s | -51.7°C | 3.5% | 56.9hPa | 2.6V | 03:51:00 | 01:26:25 | 00:00:00 | |
| CB1BUN | 2026-09-03 05:56:17 | 49.25948 | 8.39066 | 163° | 5km/h | 20193m | 4.1m/s | -51.7°C | 0.8% | 56.9hPa | 2.6V | 03:51:00 | 00:00:00 | 00:00:00 | |
| DM0DOS-11 | 2026-09-03 05:56:16 | 49.25954 | 8.39057 | 60° | 11km/h | 20156m | 4.4m/s | -51.4°C | 3.3% | 57.2hPa | 2.6V | 03:51:25 | 01:26:18 | 00:00:00 | |
| DL1XH-west | 2026-09-03 05:56:15 | 49.25953 | 8.39065 | 171° | 7km/h | 20176m | 4m/s | -51.6°C | 0% | 57.1hPa | 2.7V | 03:51:52 | 01:26:22 | 00:00:00 | |
| DL6DJ-15 | 2026-09-03 05:56:14 | 49.25956 | 8.39063 | 104° | 4km/h | 20167m | 6.3m/s | -51.6°C | -1.0% | -1.0hPa | 2.6V | 00:00:00 | 00:00:00 | 00:00:00 | |
| AU51GT2 | 2026-09-03 05:56:13 | 49.25956 | 8.39063 | 104° | 4km/h | 20167m | 6.3m/s | -51.6°C | 0.8% | 57.2hPa | 2.6V | 00:00:00 | 00:00:00 | 00:00:00 | |
| DJ2DS-15 | 2026-09-03 05:56:12 | 49.25956 | 8.39060 | 65° | 18km/h | 20161m | 6.3m/s | -51.5°C | 3.4% | 57.2hPa | 2.6V | 00:00:00 | 01:26:19 | 00:00:00 | |
| DK5PH-5 | 2026-09-03 05:56:11 | 49.25954 | 8.39057 | 61° | 22km/h | 20156m | 4.3m/s | -51.4°C | 3.3% | 57.2hPa | 2.6V | 00:00:00 | 01:26:18 | 00:00:00 | |
| IW2NTF | 2026-09-03 05:56:10 | 49.25970 | 8.39034 | 174° | 24km/h | 20125m | 5.8m/s | 0°C | 0% | 0hPa | 2.6V | 00:00:00 | 01:26:12 | 00:00:00 | |
| DK7TD | 2026-09-03 05:56:07 | 49.25959 | 8.39039 | 154° | 22km/h | 20136m | 5.2m/s | -51.5°C | 0% | 57.4hPa | 2.5V | 03:51:52 | 01:26:14 | 00:00:00 | |
| DM0DOS-11 | 2026-09-03 05:56:06 | 49.25992 | 8.39032 | 158° | 18km/h | 20106m | 5.1m/s | -51.8°C | 3.4% | 57.7hPa | 2.6V | 03:51:35 | 01:26:08 | 00:00:00 | |
| BIOWL1-15 | 2026-09-03 05:56:05 | 49.25971 | 8.39034 | 175° | 24km/h | 20125m | 5.8m/s | -51.5°C | 0% | 57.5hPa | 2.6V | 03:51:52 | 01:26:12 | 00:00:00 | |
| DL1XH-west | 2026-09-03 05:56:04 | 49.25976 | 8.39034 | 180° | 24km/h | 20120m | 4.5m/s | -51.6°C | 0% | 57.6hPa | 2.7V | 03:51:52 | 01:26:11 | 00:00:00 | |
| DK7TD | 2026-09-03 05:55:57 | 49.26003 | 8.39015 | 130° | 16km/h | 20085m | 5.9m/s | -52°C | 0% | 57.9hPa | 2.6V | 03:51:52 | 01:26:04 | 00:00:00 | |
| DM7RM-13 | 2026-09-03 05:55:57 | 49.26001 | 8.39019 | 126° | 16km/h | 20090m | 5.0m/s | -51.9°C | 0.8% | 57.8hPa | 2.7V | 03:51:00 | 00:00:00 | 00:00:00 | |
| DM0DOS-11 | 2026-09-03 05:55:56 | 49.26030 | 8.38987 | 149° | 24km/h | 20049m | 4.4m/s | -52.5°C | 3.6% | 58.2hPa | 2.7V | 03:51:45 | 01:25:58 | 00:00:00 | |
| BIOWL1-15 | 2026-09-03 05:55:56 | 49.26015 | 8.39001 | 150° | 22km/h | 20066m | 6.3m/s | -52.2°C | 0% | 58hPa | 2.5V | 03:51:52 | 01:26:01 | 00:00:00 | |
| DL1XH-west | 2026-09-03 05:55:53 | 49.26020 | 8.38997 | 149° | 24km/h | 20059m | 6.4m/s | -52.3°C | 0% | 58.1hPa | 2.5V | 03:51:52 | 01:26:00 | 00:00:00 | |
| DK7TD | 2026-09-03 05:55:47 | 49.26052 | 8.38970 | 150° | 26km/h | 20030m | 4.2m/s | -52.6°C | 0% | 58.4hPa | 2.6V | 03:51:52 | 01:25:54 | 00:00:00 | |
| DL0LBS | 2026-09-03 05:55:47 | 49.26052 | 8.38970 | 151° | 26km/h | 20031m | 4.2m/s | -52.6°C | 0.9% | 58.4hPa | 2.7V | 03:51:00 | 00:00:00 | 00:00:00 | |
| NBG1-10 | 2026-09-03 05:55:45 | 49.26063 | 8.38957 | 134° | 38km/h | 20019m | 5.7m/s | -52.6°C | 3.6% | 58.4hPa | 2.7V | 00:00:00 | 01:25:52 | 00:00:00 | |
| DM0DOS-11 | 2026-09-03 05:55:44 | 49.26096 | 8.38916 | 160° | 29km/h | 19990m | 4.7m/s | -52.7°C | 3.5% | 58.7hPa | 2.7V | 03:51:57 | 01:25:46 | 00:00:00 | |
| BIOWL1-15 | 2026-09-03 05:55:44 | 49.26068 | 8.38948 | 130° | 31km/h | 20014m | 4.6m/s | -52.7°C | 0% | 58.5hPa | 2.7V | 03:51:52 | 01:25:51 | 00:00:00 | |
| DL1XH-west | 2026-09-03 05:55:42 | 49.26078 | 8.38931 | 136° | 27km/h | 20004m | 5.3m/s | 0°C | 0% | 58.6hPa | 2.5V | 18:12:15 | 01:25:49 | 00:00:00 | |
| DK7TD | 2026-09-03 05:55:37 | 49.26112 | 8.38906 | 154° | 37km/h | 19980m | 4.4m/s | -52.8°C | 0% | 58.8hPa | 2.6V | 03:52:43 | 01:25:44 | 00:00:00 | |
| DO8TBO-1 | 2026-09-03 05:55:36 | 49.26120 | 8.38899 | 150° | 40km/h | 19977m | 4.0m/s | 0°C | 0% | 0hPa | 2.7V | 03:52:00 | 01:25:43 | 00:00:00 | |
| DJ2DS-15 | 2026-09-03 05:55:35 | 49.26128 | 8.38892 | 145° | 37km/h | 19972m | 4.8m/s | -52.9°C | 0.9% | 58.9hPa | 2.7V | 00:00:00 | 00:00:00 | 00:00:00 | |
| DL1XH1-15 | 2026-09-03 05:55:33 | 49.26177 | 8.38818 | 135° | 42km/h | 19938m | 3.6m/s | 0°C | 0% | 0hPa | 2.7V | 00:00:00 | 01:25:35 | 00:00:00 | |
| BIOWL1-15 | 2026-09-03 05:55:33 | 49.26142 | 8.38874 | 135° | 35km/h | 19961m | 4.8m/s | -52.9°C | 0% | 59hPa | 2.5V | 03:52:43 | 01:25:40 | 00:00:00 | |
| DL1XH-west | 2026-09-03 05:55:31 | 49.26155 | 8.38853 | 132° | 40km/h | 19952m | 5.4m/s | 0°C | 0% | 0hPa | 2.6V | 18:12:15 | 01:25:38 | 00:00:00 | |
| DM0DOS-11 | 2026-09-03 05:55:29 | 49.26169 | 8.38829 | 134° | 44km/h | 19942m | 4.4m/s | -53°C | 3.6% | 59.2hPa | 2.7V | 03:52:07 | 01:25:36 | 00:00:00 | |
| DK7TD | 2026-09-03 05:55:27 | 49.26184 | 8.38806 | 134° | 40km/h | 19934m | 4m/s | -53.1°C | 0% | 59.2hPa | 2.6V | 03:52:43 | 01:25:34 | 00:00:00 | |
| DL0LBS | 2026-09-03 05:55:26 | 49.26184 | 8.38806 | 135° | 40km/h | 19934m | 4.0m/s | -53.1°C | 0.9% | 59.2hPa | 2.6V | 03:52:00 | 00:00:00 | 00:00:00 | |
| DM0DOS-11 | 2026-09-03 05:55:24 | 49.26238 | 8.38721 | 135° | 46km/h | 19897m | 4.5m/s | -53.6°C | 3.6% | 59.6hPa | 2.6V | 03:52:17 | 01:25:26 | 00:00:00 | |
| BIOWL1-15 | 2026-09-03 05:55:24 | 49.26214 | 8.38754 | 135° | 38km/h | 19911m | 5.1m/s | -53.5°C | 0% | 59.5hPa | 2.7V | 03:52:43 | 01:25:29 | 00:00:00 | |
| DL1XH-west | 2026-09-03 05:55:21 | 49.26221 | 8.38744 | 138° | 42km/h | 19906m | 4.7m/s | 0°C | 0% | 0hPa | 2.5V | 18:12:15 | 01:25:28 | 00:00:00 | |
| DK7TD | 2026-09-03 05:55:17 | 49.26253 | 8.38694 | 124° | 47km/h | 19888m | 4.5m/s | -53.8°C | 0% | 59.7hPa | 2.7V | 03:52:43 | 01:25:24 | 00:00:00 | |
| CB1BUN | 2026-09-03 05:55:17 | 49.26253 | 8.38694 | 125° | 47km/h | 19888m | 4.5m/s | -53.8°C | 0.9% | 59.7hPa | 2.7V | 03:52:00 | 00:00:00 | 00:00:00 | |
| DM7RM-13 | 2026-09-03 05:55:16 | 49.26253 | 8.38694 | 125° | 47km/h | 19888m | 4.5m/s | -53.8°C | 0.9% | 59.7hPa | 2.7V | 03:52:00 | 00:00:00 | 00:00:00 | |
| DJTTGO | 2026-09-03 05:55:15 | 49.26259 | 8.38678 | 120° | 49km/h | 19883m | 4.6m/s | -53.9°C | 0.9% | 59.7hPa | 2.7V | 03:52:00 | 00:00:00 | 00:00:00 | |
| DM0DOS-11 | 2026-09-03 05:55:14 | 49.26288 | 8.38571 | 122° | 31km/h | 19852m | 4.5m/s | -55.1°C | 4.1% | 60hPa | 2.7V | 03:52:27 | 01:25:16 | 00:00:00 | |
| BIOWL1-15 | 2026-09-03 05:55:12 | 49.26278 | 8.38610 | 109° | 42km/h | 19865m | 5.2m/s | -54.7°C | 0.1% | 59.9hPa | 2.6V | 03:52:43 | 01:25:19 | 00:00:00 | |
| DL1XH-west | 2026-09-03 05:55:10 | 49.26285 | 8.38582 | 113° | 33km/h | 19856m | 3.8m/s | 0°C | 0% | 0hPa | 2.7V | 18:12:15 | 01:25:17 | 00:00:00 | |
| DK7TD | 2026-09-03 05:55:06 | 49.26307 | 8.38541 | 137° | 42km/h | 19838m | 4.1m/s | -55.1°C | 0.2% | 60.1hPa | 2.6V | 03:52:43 | 01:25:13 | 00:00:00 | |
| BIOWL1-15 | 2026-09-03 05:55:03 | 49.26341 | 8.38467 | 116° | 55km/h | 19816m | 5.3m/s | -55°C | 0.2% | 60.4hPa | 2.6V | 03:52:43 | 01:25:08 | 00:00:00 | |
| DL1XH-west | 2026-09-03 05:55:00 | 49.26347 | 8.38448 | 112° | 55km/h | 19812m | 3.7m/s | 0°C | 0% | 0hPa | 2.6V | 18:12:15 | 01:25:07 | 00:00:00 | |
| DK7TD | 2026-09-03 05:54:55 | 49.26360 | 8.38368 | 103° | 31km/h | 19790m | 3.7m/s | -54.9°C | 0.2% | 60.6hPa | 2.5V | 03:52:43 | 01:25:02 | 00:00:00 | |
| BIOWL1-15 | 2026-09-03 05:54:55 | 49.26377 | 8.38322 | 129° | 46km/h | 19772m | 4.5m/s | -54.9°C | 0.1% | 60.8hPa | 2.5V | 03:53:34 | 01:24:58 | 00:00:00 | |
| DM0DOS-11 | 2026-09-03 05:54:54 | 49.26392 | 8.38292 | 124° | 49km/h | 19764m | 4m/s | -55°C | 4% | 60.9hPa | 2.7V | 03:52:47 | 01:24:56 | 00:00:00 | |
| HARRO8 | 2026-09-03 05:54:48 | 49.26404 | 8.38261 | 115° | 44km/h | 19755m | 4.7m/s | -55.2°C | 1.0% | 60.9hPa | 2.6V | 00:00:00 | 00:00:00 | 00:00:00 | |
| KANTATE | 2026-09-03 05:54:47 | 49.26399 | 8.38276 | 122° | 47km/h | 19760m | 5.0m/s | -55.1°C | 1.0% | 60.9hPa | 2.6V | 00:00:00 | 00:00:00 | 00:00:00 | |
| DO8TBO-1 | 2026-09-03 05:54:46 | 49.26408 | 8.38246 | 113° | 33km/h | 19751m | 4.2m/s | 0°C | 0% | 0hPa | 2.6V | 00:00:00 | 01:24:53 | 00:00:00 | |
| DL0LBS | 2026-09-03 05:54:45 | 49.26409 | 8.38246 | 113° | 40km/h | 19751m | 4.3m/s | -55.3°C | 1.0% | 61.0hPa | 2.6V | 03:53:00 | 00:00:00 | 00:00:00 | |
| DM0DOS-11 | 2026-09-03 05:54:44 | 49.26436 | 8.38168 | 129° | 35km/h | 19716m | 4m/s | -55.4°C | 4.2% | 61.3hPa | 2.6V | 03:52:57 | 01:24:46 | 00:00:00 | |
| DK7TD | 2026-09-03 05:54:44 | 49.26415 | 8.38220 | 113° | 33km/h | 19741m | 5.1m/s | -55.4°C | 0.2% | 61.1hPa | 2.7V | 03:53:34 | 01:24:51 | 00:00:00 | |
| BIOWL1-15 | 2026-09-03 05:54:41 | 49.26427 | 8.38189 | 124° | 31km/h | 19726m | 5.1m/s | -55.4°C | 0.2% | 61.2hPa | 2.5V | 03:53:34 | 01:24:48 | 00:00:00 | |
| DK5PH-5 | 2026-09-03 05:54:41 | 49.26427 | 8.38189 | 124° | 33km/h | 19727m | 5.1m/s | -55.4°C | 4.2% | 61.2hPa | 2.5V | 00:00:00 | 01:24:48 | 00:00:00 | |
| DO3MHA-11 | 2026-09-03 05:54:40 | 49.26431 | 8.38179 | 126° | 35km/h | 19721m | 5.6m/s | -55.3°C | 4.2% | 61.2hPa | 2.6V | 00:00:00 | 01:24:47 | 00:00:00 | |
| NBG1-10 | 2026-09-03 05:54:39 | 49.26436 | 8.38168 | 130° | 33km/h | 19716m | 4.0m/s | -55.3°C | 4.2% | 61.3hPa | 2.6V | 00:00:00 | 01:24:46 | 00:00:00 | |
| DB0UT-7 | 2026-09-03 05:54:38 | 49.26442 | 8.38158 | 135° | 33km/h | 19712m | 4.2m/s | -55.4°C | 4.2% | 61.3hPa | 2.7V | 00:00:00 | 01:24:45 | 00:00:00 | |
| DN1GJH-1 | 2026-09-03 05:54:36 | 49.26449 | 8.38149 | 141° | 37km/h | 19707m | 5.8m/s | -55.4°C | 1.1% | 61.4hPa | 2.6V | 03:53:00 | 00:00:00 | 00:00:00 | |
| CB1BUN | 2026-09-03 05:54:35 | 49.26456 | 8.38140 | 146° | 37km/h | 19702m | 4.7m/s | -55.4°C | 1.0% | 61.5hPa | 2.6V | 03:53:00 | 00:00:00 | 00:00:00 | |
| DM0DOS-11 | 2026-09-03 05:54:34 | 49.26501 | 8.38077 | 140° | 35km/h | 19669m | 4.4m/s | -55.4°C | 4.2% | 61.8hPa | 2.6V | 03:53:07 | 01:24:36 | 00:00:00 | |
| DK7TD | 2026-09-03 05:54:33 | 49.26477 | 8.38115 | 135° | 35km/h | 19688m | 5.5m/s | -55.4°C | 0.2% | 61.6hPa | 2.6V | 03:53:34 | 01:24:40 | 00:00:00 | |
| BIOWL1-15 | 2026-09-03 05:54:32 | 49.26495 | 8.38086 | 136° | 35km/h | 19674m | 5.3m/s | -55.4°C | 0.2% | 61.7hPa | 2.5V | 03:53:34 | 01:24:37 | 00:00:00 | |
| DJ2DS-15 | 2026-09-03 05:54:32 | 49.26483 | 8.38106 | 131° | 33km/h | 19683m | 4.2m/s | -55.3°C | 4.2% | 61.6hPa | 2.7V | 00:00:00 | 01:24:39 | 00:00:00 | |
| DL8DAS-15 | 2026-09-03 05:54:31 | 49.26483 | 8.38106 | 132° | 35km/h | 19683m | 4.2m/s | -55.4°C | 1.1% | 61.7hPa | 2.7V | 00:00:00 | 00:00:00 | 00:00:00 | |
| DB0ND-19 | 2026-09-03 05:54:30 | 49.26501 | 8.38077 | 140° | 33km/h | 19669m | 4.4m/s | -55.4°C | 1.0% | 61.8hPa | 2.7V | 00:00:00 | 00:00:00 | 00:00:00 | |
| DO1YAY-16 | 2026-09-03 05:54:29 | 49.26501 | 8.38077 | 140° | 33km/h | 19669m | 4.4m/s | -55.4°C | 1.0% | 61.8hPa | 2.7V | 00:00:00 | 00:00:00 | 00:00:00 | |
| DM3KS-11 | 2026-09-03 05:54:26 | 49.26521 | 8.38052 | 139° | 33km/h | 19655m | 5.2m/s | -55.3°C | 1.0% | 61.9hPa | 2.7V | 00:00:00 | 00:00:00 | 00:00:00 | |
| DM0DOS-11 | 2026-09-03 05:54:24 | 49.26563 | 8.37991 | 124° | 35km/h | 19622m | 3.6m/s | -55.2°C | 4.1% | 62.2hPa | 2.7V | 03:53:17 | 01:24:26 | 00:00:00 | |
| DK7TD | 2026-09-03 05:54:23 | 49.26540 | 8.38027 | 141° | 33km/h | 19640m | 4.9m/s | -55.3°C | 0.3% | 62hPa | 2.7V | 03:53:34 | 01:24:30 | 00:00:00 | |
| BIOWL1-15 | 2026-09-03 05:54:19 | 49.26563 | 8.37991 | 124° | 35km/h | 19622m | 3.6m/s | -55.2°C | 0.2% | 62.2hPa | 2.7V | 03:53:34 | 01:24:26 | 00:00:00 | |
| HARRO8 | 2026-09-03 05:54:17 | 49.26579 | 8.37960 | 132° | 31km/h | 19608m | 4.8m/s | -55.2°C | 1.0% | 62.4hPa | 2.6V | 00:00:00 | 00:00:00 | 00:00:00 | |
| DN1GJH-1 | 2026-09-03 05:54:15 | 49.26579 | 8.37960 | 134° | 31km/h | 19609m | 4.8m/s | -55.2°C | 1.1% | 62.4hPa | 2.6V | 03:53:00 | 00:00:00 | 00:00:00 | |
| DM0DOS-11 | 2026-09-03 05:54:14 | 49.26608 | 8.37903 | 128° | 29km/h | 19575m | 3.6m/s | -55.1°C | 4.1% | 62.7hPa | 2.6V | 03:53:27 | 01:24:16 | 00:00:00 | |
| DK7TD | 2026-09-03 05:54:12 | 49.26596 | 8.37928 | 124° | 26km/h | 19589m | 4.1m/s | -55.2°C | 0.1% | 62.6hPa | 2.7V | 03:53:34 | 01:24:19 | 00:00:00 | |
| BIOWL1-15 | 2026-09-03 05:54:09 | 49.26608 | 8.37903 | 129° | 29km/h | 19575m | 3.6m/s | -55.1°C | 0.2% | 62.7hPa | 2.6V | 03:53:34 | 01:24:16 | 00:00:00 | |
| DB0UT-7 | 2026-09-03 05:54:08 | 49.26613 | 8.37893 | 126° | 33km/h | 19571m | 4.3m/s | -55.1°C | 4.1% | 62.7hPa | 2.7V | 00:00:00 | 00:00:00 | 00:00:00 | |
| DD1CC8 | 2026-09-03 05:54:07 | 49.26618 | 8.37882 | 121° | 35km/h | 19565m | 6.0m/s | -55.1°C | 1.0% | 62.8hPa | 2.7V | 00:00:00 | 00:00:00 | 00:00:00 | |
| NBG1-10 | 2026-09-03 05:54:06 | 49.26623 | 8.37870 | 120° | 33km/h | 19561m | 4.4m/s | -55.1°C | 4.1% | 62.8hPa | 2.7V | 03:53:00 | 01:24:13 | 00:00:00 | |
| KANTATE | 2026-09-03 05:54:05 | 49.26623 | 8.37870 | 121° | 38km/h | 19561m | 4.5m/s | -55.1°C | 1.0% | 62.8hPa | 2.7V | 00:00:00 | 00:00:00 | 00:00:00 | |
| DM0DOS-11 | 2026-09-03 05:54:04 | 49.26655 | 8.37787 | 115° | 29km/h | 19527m | 3.9m/s | -55.4°C | 4.2% | 63.1hPa | 2.7V | 03:53:37 | 01:24:06 | 00:00:00 | |
| DK7TD | 2026-09-03 05:54:02 | 49.26643 | 8.37821 | 122° | 35km/h | 19542m | 4.6m/s | -55.2°C | 0.3% | 63hPa | 2.7V | 03:53:34 | 01:24:09 | 00:00:00 | |
| BIOWL1-15 | 2026-09-03 05:53:58 | 49.26658 | 8.37778 | 119° | 27km/h | 19523m | 5.2m/s | -55.5°C | 0.3% | 63.2hPa | 2.7V | 03:54:25 | 01:24:05 | 00:00:00 | |
| DM3KS-11 | 2026-09-03 05:53:55 | 49.26675 | 8.37729 | 111° | 35km/h | 19499m | 4.4m/s | -55.3°C | 1.0% | 63.5hPa | 2.6V | 00:00:00 | 00:00:00 | 00:00:00 | |
| DM0DOS-11 | 2026-09-03 05:53:54 | 49.26690 | 8.37674 | 113° | 38km/h | 19481m | 4.2m/s | -55.3°C | 4.2% | 63.6hPa | 2.6V | 03:53:47 | 01:23:56 | 00:00:00 | |
| DK7TD | 2026-09-03 05:53:52 | 49.26682 | 8.37702 | 112° | 40km/h | 19490m | 5.1m/s | -55.2°C | 0.3% | 63.5hPa | 2.5V | 03:54:25 | 01:23:58 | 00:00:00 | |
| BIOWL1-15 | 2026-09-03 05:53:50 | 49.26694 | 8.37660 | 111° | 38km/h | 19477m | 3.9m/s | -55.2°C | 0.2% | 63.7hPa | 2.7V | 03:54:25 | 01:23:55 | 00:00:00 | |
| DJ2DS-15 | 2026-09-03 05:53:47 | 49.26697 | 8.37646 | 107° | 38km/h | 19472m | 4.7m/s | -55.2°C | 1.0% | 63.7hPa | 2.6V | 00:00:00 | 00:00:00 | 00:00:00 | |
| HARRO8 | 2026-09-03 05:53:46 | 49.26701 | 8.37618 | 101° | 35km/h | 19463m | 4.0m/s | -55.1°C | 1.0% | 63.8hPa | 2.6V | 00:00:00 | 00:00:00 | 00:00:00 | |
| KANTATE | 2026-09-03 05:53:45 | 49.26699 | 8.37632 | 104° | 38km/h | 19468m | 5.2m/s | -55.2°C | 1.0% | 63.7hPa | 2.6V | 03:54:00 | 00:00:00 | 00:00:00 | |
| DM0DOS-11 | 2026-09-03 05:53:44 | 49.26715 | 8.37558 | 109° | 24km/h | 19435m | 4.5m/s | -54.8°C | 4% | 64.1hPa | 2.6V | 03:53:57 | 01:23:46 | 00:00:00 | |
| DK7TD | 2026-09-03 05:53:40 | 49.26713 | 8.37567 | 111° | 24km/h | 19440m | 5.3m/s | -54.8°C | 0.2% | 64.1hPa | 2.6V | 03:54:25 | 01:23:47 | 00:00:00 | |
| BIOWL1-15 | 2026-09-03 05:53:37 | 49.26719 | 8.37541 | 117° | 26km/h | 19426m | 4.7m/s | -54.8°C | 0.2% | 64.1hPa | 2.7V | 03:54:25 | 01:23:44 | 00:00:00 | |
| DD1CC8 | 2026-09-03 05:53:36 | 49.26723 | 8.37532 | 122° | 26km/h | 19422m | 5.5m/s | -54.7°C | 1.0% | 64.2hPa | 2.6V | 00:00:00 | 00:00:00 | 00:00:00 | |
| DM0DOS-11 | 2026-09-03 05:53:34 | 49.26748 | 8.37458 | 117° | 29km/h | 19389m | 5.4m/s | -54.9°C | 4.1% | 64.5hPa | 2.6V | 03:54:07 | 01:23:36 | 00:00:00 | |
| DK7TD | 2026-09-03 05:53:30 | 49.26744 | 8.37468 | 113° | 31km/h | 19394m | 4.2m/s | -54.9°C | 0.2% | 64.5hPa | 2.5V | 03:54:25 | 01:23:37 | 00:00:00 | |
| BIOWL1-15 | 2026-09-03 05:53:26 | 49.26760 | 8.37430 | 125° | 29km/h | 19375m | 5.7m/s | -54.8°C | 0.1% | 64.7hPa | 2.7V | 03:54:25 | 01:23:33 | 00:00:00 | |
| DM0DOS-11 | 2026-09-03 05:53:24 | 49.26785 | 8.37373 | 113° | 27km/h | 19340m | 4.8m/s | -55°C | 4.1% | 65hPa | 2.5V | 03:54:17 | 01:23:26 | 00:00:00 | |
| DK7TD | 2026-09-03 05:53:20 | 49.26782 | 8.37382 | 120° | 24km/h | 19345m | 5.4m/s | -54.9°C | 0.2% | 65hPa | 2.7V | 03:54:25 | 01:23:27 | 00:00:00 | |
| BIOWL1-15 | 2026-09-03 05:53:16 | 49.26795 | 8.37342 | 122° | 33km/h | 19327m | 5.5m/s | -55°C | 0.2% | 65.2hPa | 2.7V | 03:54:25 | 01:23:23 | 00:00:00 | |
| DK7TD | 2026-09-03 05:53:09 | 49.26829 | 8.37263 | 120° | 24km/h | 19295m | 5.3m/s | -54.8°C | 0.1% | 65.5hPa | 2.6V | 03:55:16 | 01:23:16 | 00:00:00 | |
| BIOWL1-15 | 2026-09-03 05:53:07 | 49.26837 | 8.37234 | 104° | 22km/h | 19277m | 4.6m/s | -54.8°C | 0.2% | 65.7hPa | 2.5V | 03:55:16 | 01:23:12 | 00:00:00 | |
| DD1CC8 | 2026-09-03 05:53:05 | 49.26837 | 8.37234 | 104° | 22km/h | 19277m | 4.6m/s | -54.8°C | 0% | 65.7hPa | 2.5V | 00:00:00 | 00:00:00 | 00:00:00 | |
| DM0DOS-11 | 2026-09-03 05:53:04 | 49.26852 | 8.37173 | 109° | 33km/h | 19250m | 5.1m/s | -54.9°C | 4.1% | 66hPa | 2.5V | 03:54:37 | 01:23:06 | 00:00:00 | |
| DK7TD | 2026-09-03 05:52:59 | 49.26852 | 8.37173 | 109° | 33km/h | 19250m | 5.1m/s | -54.9°C | 0.2% | 66hPa | 2.5V | 03:55:16 | 01:23:06 | 00:00:00 | |
| DB0ND-19 | 2026-09-03 05:52:57 | 49.26858 | 8.37134 | 97° | 33km/h | 19236m | 4.3m/s | -54.8°C | 0.9% | 66.1hPa | 2.6V | 00:00:00 | 00:00:00 | 00:00:00 | |
| DO1YAY-16 | 2026-09-03 05:52:56 | 49.26858 | 8.37134 | 97° | 33km/h | 19236m | 4.3m/s | -54.8°C | 0.9% | 66.1hPa | 2.6V | 00:00:00 | 00:00:00 | 00:00:00 | |
| DM0DOS-11 | 2026-09-03 05:52:55 | 49.26862 | 8.37066 | 96° | 27km/h | 19203m | 4m/s | -54.6°C | 4.1% | 66.4hPa | 2.6V | 03:54:47 | 01:22:56 | 00:00:00 | |
| BIOWL1-15 | 2026-09-03 05:52:54 | 49.26860 | 8.37112 | 98° | 24km/h | 19226m | 4.8m/s | -54.7°C | 0.1% | 66.2hPa | 2.6V | 03:55:16 | 01:23:01 | 00:00:00 | |
| DK7TD | 2026-09-03 05:52:48 | 49.26863 | 8.37056 | 102° | 27km/h | 19198m | 5.7m/s | -54.6°C | 0.2% | 66.5hPa | 2.6V | 03:55:16 | 01:22:55 | 00:00:00 | |
| HTAHTA | 2026-09-03 05:52:47 | 49.26869 | 8.37025 | 103° | 27km/h | 19184m | 5.3m/s | -54.5°C | 1.0% | 66.7hPa | 2.7V | 00:00:00 | 00:00:00 | 00:00:00 | |
| DL8DAS-15 | 2026-09-03 05:52:46 | 49.26867 | 8.37035 | 107° | 27km/h | 19189m | 4.3m/s | -54.5°C | 1.0% | 66.6hPa | 2.7V | 00:00:00 | 00:00:00 | 00:00:00 | |
| DM0DOS-11 | 2026-09-03 05:52:44 | 49.26871 | 8.36974 | 81° | 15km/h | 19156m | 4.1m/s | -54.6°C | 3.9% | 66.9hPa | 2.7V | 03:54:57 | 01:22:46 | 00:00:00 | |
| BIOWL1-15 | 2026-09-03 05:52:43 | 49.26871 | 8.37003 | 96° | 26km/h | 19175m | 3.8m/s | -54.4°C | 0.1% | 66.7hPa | 2.5V | 03:55:16 | 01:22:50 | 00:00:00 | |
| DK7TD | 2026-09-03 05:52:38 | 49.26871 | 8.36968 | 78° | 16km/h | 19151m | 5.1m/s | -54.5°C | 0.1% | 67hPa | 2.6V | 03:55:16 | 01:22:45 | 00:00:00 | |
| BIOWL1-15 | 2026-09-03 05:52:32 | 49.26878 | 8.36920 | 121° | 26km/h | 19124m | 3.8m/s | -54.4°C | 0.1% | 67.3hPa | 2.6V | 03:55:16 | 01:22:39 | 00:00:00 | |
| CB1BUN | 2026-09-03 05:52:32 | 49.26877 | 8.36920 | 122° | 26km/h | 19124m | 3.8m/s | -54.4°C | 1.0% | 67.3hPa | 2.5V | 03:55:00 | 00:00:00 | 00:00:00 | |
| DM7RM-13 | 2026-09-03 05:52:31 | 49.26877 | 8.36920 | 122° | 26km/h | 19124m | 3.8m/s | -54.4°C | 1.0% | 67.3hPa | 2.5V | 00:00:00 | 00:00:00 | 00:00:00 | |
| DM0DOS-11 | 2026-09-03 05:52:30 | 49.26884 | 8.36895 | 100° | 20km/h | 19110m | 4.1m/s | -54.3°C | 3.9% | 67.4hPa | 2.5V | 03:55:07 | 01:22:36 | 00:00:00 | |
| DK7TD | 2026-09-03 05:52:28 | 49.26885 | 8.36888 | 96° | 16km/h | 19106m | 4.3m/s | -54.4°C | 0.1% | 67.5hPa | 2.6V | 03:55:16 | 01:22:35 | 00:00:00 | |
| BIOWL1-15 | 2026-09-03 05:52:24 | 49.26887 | 8.36860 | 101° | 16km/h | 19079m | 3.8m/s | -54.5°C | 0.2% | 67.8hPa | 2.7V | 03:55:16 | 01:22:29 | 00:00:00 | |
| DM0DOS-11 | 2026-09-03 05:52:20 | 49.26893 | 8.36840 | 121° | 22km/h | 19066m | 4.4m/s | -54.6°C | 4% | 67.9hPa | 2.5V | 03:55:17 | 01:22:26 | 00:00:00 | |
| DK7TD | 2026-09-03 05:52:17 | 49.26899 | 8.36824 | 120° | 27km/h | 19057m | 5.3m/s | -54.6°C | 0.2% | 68hPa | 2.6V | 03:56:07 | 01:22:24 | 00:00:00 | |
| BIOWL1-15 | 2026-09-03 05:52:11 | 49.26923 | 8.36776 | 135° | 24km/h | 19031m | 4.1m/s | -54.4°C | 0% | 68.3hPa | 2.6V | 03:56:07 | 01:22:18 | 00:00:00 | |
| DM0DOS-11 | 2026-09-03 05:52:10 | 49.26931 | 8.36762 | 123° | 24km/h | 19021m | 4.8m/s | -54.3°C | 3.8% | 68.3hPa | 2.7V | 03:55:27 | 01:22:16 | 00:00:00 | |
| DK7TD | 2026-09-03 05:52:06 | 49.26940 | 8.36740 | 127° | 20km/h | 19008m | 5.5m/s | -54.4°C | 0% | 68.5hPa | 2.7V | 03:56:07 | 01:22:13 | 00:00:00 | |
| BIOWL1-15 | 2026-09-03 05:52:01 | 49.26954 | 8.36709 | 112° | 22km/h | 18984m | 4.5m/s | -54.4°C | 0% | 68.8hPa | 2.7V | 03:56:07 | 01:22:08 | 00:00:00 | |
| DM0DOS-11 | 2026-09-03 05:52:00 | 49.26958 | 8.36694 | 115° | 20km/h | 18975m | 5.4m/s | -54.4°C | 4% | 68.9hPa | 2.7V | 03:55:37 | 01:22:06 | 00:00:00 | |
| DK7TD | 2026-09-03 05:51:57 | 49.26965 | 8.36675 | 117° | 20km/h | 18961m | 4.6m/s | -54.4°C | 0.1% | 69hPa | 2.6V | 03:56:07 | 01:22:03 | 00:00:00 | |
| DF7PN | 2026-09-03 05:51:55 | 49.26967 | 8.36668 | 110° | 20km/h | 18956m | 5.9m/s | -54.4°C | 1.0% | 69.1hPa | 2.6V | 00:00:00 | 00:00:00 | 00:00:00 | |
| DO1YAY-16 | 2026-09-03 05:51:54 | 49.26969 | 8.36660 | 107° | 22km/h | 18951m | 4.0m/s | -54.4°C | 1.0% | 69.1hPa | 2.6V | 00:00:00 | 00:00:00 | 00:00:00 | |
| DL1NUX | 2026-09-03 05:51:51 | 49.26984 | 8.36613 | 128° | 15km/h | 18913m | 5.2m/s | 0°C | 0% | 0hPa | 2.6V | 00:00:00 | 01:21:53 | 00:00:00 | |
| BIOWL1-15 | 2026-09-03 05:51:51 | 49.26974 | 8.36638 | 121° | 16km/h | 18937m | 4.5m/s | -54.6°C | 0.2% | 69.3hPa | 2.6V | 03:56:07 | 01:21:58 | 00:00:00 | |
| DM3KS-11 | 2026-09-03 05:51:51 | 49.26976 | 8.36633 | 122° | 15km/h | 18933m | 4.3m/s | -54.6°C | 1.0% | 69.3hPa | 2.7V | 00:00:00 | 00:00:00 | 00:00:00 | |
| DM0DOS-11 | 2026-09-03 05:51:50 | 49.26979 | 8.36628 | 119° | 16km/h | 18927m | 5.7m/s | -54.6°C | 4% | 69.4hPa | 2.7V | 03:55:47 | 01:21:56 | 00:00:00 | |
| DK7TD | 2026-09-03 05:51:45 | 49.26987 | 8.36608 | 136° | 15km/h | 18908m | 4.8m/s | -54.5°C | 0.1% | 69.6hPa | 2.7V | 03:56:07 | 01:21:52 | 00:00:00 | |
| BIOWL1-15 | 2026-09-03 05:51:42 | 49.26999 | 8.36584 | 128° | 22km/h | 18886m | 4.1m/s | -54.3°C | 0.1% | 69.8hPa | 2.7V | 03:56:07 | 01:21:47 | 00:00:00 | |
| SFWM-10 | 2026-09-03 05:51:41 | 49.26994 | 8.36596 | 122° | 16km/h | 18894m | 4.8m/s | -54.4°C | 0.9% | 69.8hPa | 2.7V | 00:00:00 | 00:00:00 | 00:00:00 | |
| DM0DOS-11 | 2026-09-03 05:51:40 | 49.27003 | 8.36577 | 135° | 24km/h | 18881m | 5.6m/s | -54.3°C | 3.9% | 69.9hPa | 2.7V | 03:55:57 | 01:21:46 | 00:00:00 | |
| DK7TD | 2026-09-03 05:51:35 | 49.27022 | 8.36552 | 135° | 22km/h | 18861m | 5.1m/s | -54.3°C | 0% | 70.1hPa | 2.6V | 03:56:07 | 01:21:42 | 00:00:00 | |
| DM0DOS-11 | 2026-09-03 05:51:34 | 49.27045 | 8.36529 | 150° | 18km/h | 18834m | 4.8m/s | -54.3°C | 3.9% | 70.4hPa | 2.6V | 03:56:07 | 01:21:36 | 00:00:00 | |
| BIOWL1-15 | 2026-09-03 05:51:30 | 49.27041 | 8.36532 | 157° | 18km/h | 18838m | 3.7m/s | -54.2°C | 0% | 70.3hPa | 2.6V | 03:56:07 | 01:21:37 | 00:00:00 | |
| DK7TD | 2026-09-03 05:51:25 | 49.27063 | 8.36507 | 144° | 27km/h | 18817m | 4.9m/s | -54.3°C | 0% | 70.6hPa | 2.6V | 03:56:58 | 01:21:32 | 00:00:00 | |
| DM0DOS-11 | 2026-09-03 05:51:24 | 49.27102 | 8.36471 | 149° | 27km/h | 18784m | 5.6m/s | -54.3°C | 3.9% | 71hPa | 2.7V | 03:56:18 | 01:21:25 | 00:00:00 | |
| BIOWL1-15 | 2026-09-03 05:51:23 | 49.27097 | 8.36476 | 148° | 26km/h | 18789m | 4.5m/s | -54.3°C | 0.1% | 70.9hPa | 2.7V | 03:56:58 | 01:21:26 | 00:00:00 | |
| DK7TD | 2026-09-03 05:51:15 | 49.27121 | 8.36453 | 144° | 29km/h | 18770m | 5.5m/s | -54.3°C | 0.1% | 71.1hPa | 2.6V | 03:56:58 | 01:21:22 | 00:00:00 | |
| BIOWL1-15 | 2026-09-03 05:51:09 | 49.27159 | 8.36416 | 155° | 29km/h | 18742m | 4.7m/s | -54.5°C | 0% | 71.4hPa | 2.6V | 03:56:58 | 01:21:16 | 00:00:00 | |
| DK7TD | 2026-09-03 05:51:04 | 49.27191 | 8.36391 | 151° | 35km/h | 18717m | 4.5m/s | -54.4°C | 0.2% | 71.7hPa | 2.6V | 03:56:58 | 01:21:11 | 00:00:00 | |
| BIOWL1-15 | 2026-09-03 05:50:59 | 49.27229 | 8.36346 | 139° | 38km/h | 18694m | 4.3m/s | -54.2°C | 0.1% | 72hPa | 2.6V | 03:56:58 | 01:21:06 | 00:00:00 | |
| DK7TD | 2026-09-03 05:50:53 | 49.27278 | 8.36293 | 143° | 42km/h | 18664m | 4.4m/s | -54.1°C | 0.1% | 72.3hPa | 2.6V | 03:56:58 | 01:21:00 | 00:00:00 | |
| DM0DOS-11 | 2026-09-03 05:50:53 | 49.27323 | 8.36241 | 137° | 44km/h | 18639m | 4.4m/s | -54.1°C | 4% | 72.6hPa | 2.6V | 03:56:48 | 01:20:55 | 00:00:00 | |
| BIOWL1-15 | 2026-09-03 05:50:51 | 49.27314 | 8.36253 | 140° | 46km/h | 18644m | 5.8m/s | -54.2°C | 0.1% | 72.5hPa | 2.5V | 03:56:58 | 01:20:56 | 00:00:00 | |
| DM3KS-11 | 2026-09-03 05:50:49 | 49.27331 | 8.36230 | 137° | 42km/h | 18635m | 3.6m/s | -54.1°C | 1.0% | 72.6hPa | 2.6V | 00:00:00 | 00:00:00 | 00:00:00 | |
| DJ2DS-15 | 2026-09-03 05:50:47 | 49.27331 | 8.36230 | 137° | 42km/h | 18635m | 3.6m/s | -54.1°C | 1.0% | 72.6hPa | 2.6V | 00:00:00 | 00:00:00 | 00:00:00 | |
| DK7TD | 2026-09-03 05:50:43 | 49.27363 | 8.36191 | 141° | 37km/h | 18616m | 4.5m/s | -54.1°C | 0% | 72.8hPa | 2.6V | 03:56:58 | 01:20:50 | 00:00:00 | |
| DM0DOS-11 | 2026-09-03 05:50:43 | 49.27396 | 8.36146 | 140° | 37km/h | 18592m | 4.2m/s | -54°C | 4% | 73.1hPa | 2.6V | 03:56:58 | 01:20:45 | 00:00:00 | |
| BIOWL1-15 | 2026-09-03 05:50:38 | 49.27395 | 8.36146 | 141° | 37km/h | 18592m | 4.2m/s | -54°C | 0.2% | 73.1hPa | 2.6V | 03:56:58 | 01:20:45 | 00:00:00 | |
| DB0UT-7 | 2026-09-03 05:50:38 | 49.27395 | 8.36146 | 141° | 46km/h | 18593m | 4.1m/s | -54.0°C | 4.0% | 73.1hPa | 2.6V | 00:00:00 | 01:20:45 | 00:00:00 | |
| DL0LBS | 2026-09-03 05:50:37 | 49.27395 | 8.36146 | 142° | 37km/h | 18593m | 4.2m/s | -54.0°C | 1.0% | 73.1hPa | 2.6V | 03:56:00 | 00:00:00 | 00:00:00 | |
| DF1GD-15 | 2026-09-03 05:50:35 | 49.27411 | 8.36125 | 137° | 44km/h | 18584m | 5.6m/s | -53.9°C | 1.0% | 73.2hPa | 2.6V | 03:57:00 | 00:00:00 | 00:00:00 | |
| DF3TZ-5 | 2026-09-03 05:50:34 | 49.27437 | 8.36086 | 136° | 51km/h | 18569m | 5.4m/s | -53.8°C | 0.9% | 73.4hPa | 2.6V | 00:00:00 | 00:00:00 | 00:00:00 | |
| DM0DOS-11 | 2026-09-03 05:50:33 | 49.27481 | 8.36016 | 127° | 47km/h | 18546m | 4.8m/s | -53.7°C | 3.9% | 73.6hPa | 2.6V | 03:57:08 | 01:20:35 | 00:00:00 | |
| DK7TD | 2026-09-03 05:50:32 | 49.27446 | 8.36072 | 138° | 53km/h | 18564m | 4.8m/s | 0°C | 0% | 73.4hPa | 2.6V | 03:57:49 | 01:20:39 | 00:00:00 | |
| BIOWL1-15 | 2026-09-03 05:50:28 | 49.27482 | 8.36016 | 128° | 47km/h | 18546m | 4.8m/s | -53.7°C | 0.1% | 73.6hPa | 2.6V | 03:57:49 | 01:20:35 | 00:00:00 | |
| DJTTGO | 2026-09-03 05:50:28 | 49.27481 | 8.36016 | 129° | 47km/h | 18546m | 4.8m/s | -53.7°C | 1.0% | 73.6hPa | 2.6V | 03:57:00 | 00:00:00 | 00:00:00 | |
| DL8DAS-15 | 2026-09-03 05:50:27 | 49.27481 | 8.36016 | 129° | 47km/h | 18546m | 4.8m/s | -53.7°C | 1.0% | 73.6hPa | 2.6V | 03:57:00 | 00:00:00 | 00:00:00 | |
| DM7RM-13 | 2026-09-03 05:50:26 | 49.27489 | 8.36001 | 128° | 47km/h | 18542m | 4.2m/s | -53.7°C | 1.0% | 73.7hPa | 2.6V | 03:57:00 | 00:00:00 | 00:00:00 | |
| DN1GJH-1 | 2026-09-03 05:50:25 | 49.27503 | 8.35975 | 135° | 44km/h | 18532m | 4.6m/s | -53.7°C | 1.0% | 73.8hPa | 2.6V | 03:57:00 | 00:00:00 | 00:00:00 | |
| DB0UT-9 | 2026-09-03 05:50:24 | 49.27503 | 8.35975 | 135° | 44km/h | 18532m | 4.6m/s | -53.7°C | 1.0% | 73.8hPa | 2.6V | 03:57:00 | 00:00:00 | 00:00:00 | |
| DM0DOS-11 | 2026-09-03 05:50:23 | 49.27556 | 8.35892 | 135° | 42km/h | 18500m | 5.2m/s | -53.6°C | 3.8% | 74.2hPa | 2.6V | 03:57:18 | 01:20:25 | 00:00:00 | |
| DK7TD | 2026-09-03 05:50:21 | 49.27534 | 8.35927 | 132° | 42km/h | 18514m | 4.9m/s | 0°C | 0% | 0hPa | 2.7V | 03:57:49 | 01:20:28 | 00:00:00 | |
| BIOWL1-15 | 2026-09-03 05:50:20 | 49.27556 | 8.35892 | 136° | 42km/h | 18500m | 5.2m/s | -53.6°C | 0.1% | 74.2hPa | 2.6V | 03:57:49 | 01:20:25 | 00:00:00 | |
| DO3MHA-11 | 2026-09-03 05:50:20 | 49.27541 | 8.35915 | 132° | 44km/h | 18510m | 4.1m/s | -53.5°C | 3.8% | 74.0hPa | 2.7V | 00:00:00 | 01:20:27 | 00:00:00 | |
| DL0LBS | 2026-09-03 05:50:17 | 49.27556 | 8.35892 | 137° | 42km/h | 18501m | 5.2m/s | -53.6°C | 1.0% | 74.2hPa | 2.7V | 03:57:00 | 00:00:00 | 00:00:00 | |
| DL8DAS-15 | 2026-09-03 05:50:16 | 49.27564 | 8.35880 | 139° | 44km/h | 18496m | 4.6m/s | -53.6°C | 1.0% | 74.2hPa | 2.7V | 03:57:00 | 00:00:00 | 00:00:00 | |
| DF1GD-15 | 2026-09-03 05:50:14 | 49.27580 | 8.35856 | 137° | 46km/h | 18487m | 4.3m/s | -53.6°C | 1.0% | 74.3hPa | 2.7V | 03:57:00 | 00:00:00 | 00:00:00 | |
| DM0DOS-11 | 2026-09-03 05:50:13 | 49.27632 | 8.35765 | 127° | 40km/h | 18456m | 5.1m/s | -53.8°C | 3.8% | 74.7hPa | 2.7V | 03:57:28 | 01:20:15 | 00:00:00 | |
| BIOWL1-15 | 2026-09-03 05:50:11 | 49.27667 | 8.35697 | 129° | 37km/h | 18429m | 4.9m/s | -53.7°C | 0.1% | 75hPa | 2.6V | 03:57:49 | 01:20:09 | 00:00:00 | |
| DK7TD | 2026-09-03 05:50:10 | 49.27618 | 8.35790 | 131° | 42km/h | 18464m | 4m/s | 0°C | 0% | 0hPa | 2.7V | 03:57:49 | 01:20:17 | 00:00:00 | |
| DO3MHA-11 | 2026-09-03 05:50:10 | 49.27618 | 8.35790 | 132° | 38km/h | 18464m | 3.9m/s | -53.5°C | 3.7% | 74.5hPa | 2.7V | 03:57:00 | 01:20:17 | 00:00:00 | |
| DJ2DS-15 | 2026-09-03 05:50:09 | 49.27625 | 8.35777 | 131° | 37km/h | 18461m | 3.9m/s | -53.6°C | 3.8% | 74.6hPa | 2.7V | 00:00:00 | 01:20:16 | 00:00:00 | |
| DB0UT-7 | 2026-09-03 05:50:08 | 49.27632 | 8.35765 | 128° | 35km/h | 18456m | 5.1m/s | -53.7°C | 3.8% | 74.6hPa | 2.7V | 00:00:00 | 00:00:00 | 00:00:00 | |
| DJTTGO | 2026-09-03 05:50:07 | 49.27638 | 8.35753 | 126° | 38km/h | 18451m | 5.1m/s | -53.8°C | 1.0% | 74.7hPa | 2.7V | 03:57:00 | 00:00:00 | 00:00:00 | |
| DM7RM-13 | 2026-09-03 05:50:06 | 49.27638 | 8.35753 | 126° | 38km/h | 18451m | 5.1m/s | -53.8°C | 1.0% | 74.7hPa | 2.7V | 03:57:00 | 00:00:00 | 00:00:00 | |
| NBG1-10 | 2026-09-03 05:50:05 | 49.27649 | 8.35729 | 129° | 35km/h | 18442m | 5.0m/s | -53.7°C | 3.9% | 74.8hPa | 2.7V | 03:57:00 | 01:20:12 | 00:00:00 | |
| DK5PH-5 | 2026-09-03 05:50:04 | 49.27655 | 8.35718 | 132° | 40km/h | 18437m | 4.2m/s | -53.6°C | 3.8% | 74.8hPa | 2.7V | 00:00:00 | 01:20:11 | 00:00:00 | |
| DM0DOS-11 | 2026-09-03 05:50:03 | 49.27691 | 8.35648 | 128° | 40km/h | 18410m | 4.7m/s | -53.6°C | 3.8% | 75.2hPa | 2.6V | 03:57:38 | 01:20:05 | 00:00:00 | |
| DK7TD | 2026-09-03 05:50:00 | 49.27679 | 8.35673 | 125° | 40km/h | 18419m | 4.2m/s | 0°C | 0% | 0hPa | 2.7V | 03:57:49 | 01:20:07 | 00:00:00 | |
| BIOWL1-15 | 2026-09-03 05:49:57 | 49.27708 | 8.35611 | 121° | 37km/h | 18397m | 5.1m/s | -53.6°C | 0% | 75.3hPa | 2.7V | 03:57:49 | 01:20:02 | 00:00:00 | |
| DF7PN | 2026-09-03 05:49:51 | 49.27723 | 8.35571 | 129° | 24km/h | 18380m | 4.6m/s | -53.8°C | 1.0% | 75.6hPa | 2.7V | 00:00:00 | 00:00:00 | 00:00:00 | |
| DO1YAY-16 | 2026-09-03 05:49:50 | 49.27732 | 8.35557 | 135° | 26km/h | 18372m | 4.3m/s | -53.8°C | 1.0% | 75.7hPa | 2.7V | 00:00:00 | 00:00:00 | 00:00:00 | |
| DM0DOS-11 | 2026-09-03 05:49:49 | 49.27737 | 8.35549 | 130° | 29km/h | 18367m | 5.3m/s | -53.8°C | 3.8% | 75.7hPa | 2.7V | 03:57:48 | 01:19:55 | 00:00:00 | |
| DK7TD | 2026-09-03 05:49:47 | 49.27742 | 8.35539 | 129° | 33km/h | 18362m | 4.1m/s | 0°C | 0% | 0hPa | 2.7V | 03:57:49 | 01:19:54 | 00:00:00 | |
| DM3KS-11 | 2026-09-03 05:49:47 | 49.27748 | 8.35529 | 129° | 35km/h | 18358m | 4.1m/s | -53.8°C | 1.0% | 75.8hPa | 2.7V | 00:00:00 | 00:00:00 | 00:00:00 | |
| DJTTGO | 2026-09-03 05:49:46 | 49.27742 | 8.35539 | 130° | 33km/h | 18363m | 4.1m/s | -53.8°C | 1.0% | 75.8hPa | 2.7V | 03:57:00 | 00:00:00 | 00:00:00 | |
| DM7RM-13 | 2026-09-03 05:49:45 | 49.27748 | 8.35529 | 130° | 37km/h | 18359m | 4.1m/s | -53.8°C | 1.0% | 75.9hPa | 2.7V | 03:58:00 | 00:00:00 | 00:00:00 | |
| BIOWL1-15 | 2026-09-03 05:49:45 | 49.27754 | 8.35518 | 131° | 37km/h | 18354m | 5.1m/s | -53.9°C | 0.1% | 75.9hPa | 2.6V | 03:58:40 | 01:19:52 | 00:00:00 | |
| KANTATE | 2026-09-03 05:49:44 | 49.27754 | 8.35518 | 132° | 37km/h | 18354m | 5.1m/s | -53.9°C | 1.0% | 75.9hPa | 2.7V | 00:00:00 | 00:00:00 | 00:00:00 | |
| DM0DOS-11 | 2026-09-03 05:49:43 | 49.27794 | 8.35440 | 132° | 33km/h | 18323m | 4.8m/s | -54°C | 3.8% | 76.2hPa | 2.7V | 03:57:58 | 01:19:45 | 00:00:00 | |
| DK7TD | 2026-09-03 05:49:35 | 49.27811 | 8.35415 | 133° | 31km/h | 18310m | 4.5m/s | 0°C | 0% | 0hPa | 2.6V | 18:12:15 | 01:19:42 | 00:00:00 | |
| DJ2DS-15 | 2026-09-03 05:49:35 | 49.27811 | 8.35415 | 133° | 31km/h | 18311m | 4.5m/s | -54.1°C | 1.0% | 76.4hPa | 2.7V | 00:00:00 | 00:00:00 | 00:00:00 | |
| NBG1-10 | 2026-09-03 05:49:32 | 49.27827 | 8.35382 | 123° | 44km/h | 18298m | 3.4m/s | -54.1°C | 3.9% | 76.5hPa | 2.7V | 00:00:00 | 01:19:39 | 00:00:00 | |
| DM0DOS-11 | 2026-09-03 05:49:31 | 49.27851 | 8.35329 | 125° | 42km/h | 18281m | 3.6m/s | -54.2°C | 3.9% | 76.7hPa | 2.7V | 03:58:08 | 01:19:35 | 00:00:00 | |
| BIOWL1-15 | 2026-09-03 05:49:27 | 49.27867 | 8.35288 | 113° | 42km/h | 18268m | 4m/s | -54.3°C | 0.1% | 76.9hPa | 2.6V | 03:58:40 | 01:19:32 | 00:00:00 | |
| DB0NH | 2026-09-03 05:49:27 | 49.27857 | 8.35316 | 122° | 42km/h | 18278m | 4.1m/s | -54.2°C | 3.9% | 76.8hPa | 2.7V | 00:00:00 | 01:19:34 | 00:00:00 | |
| DM7RM-13 | 2026-09-03 05:49:25 | 49.27862 | 8.35302 | 117° | 40km/h | 18273m | 5.2m/s | -54.3°C | 1.1% | 76.8hPa | 2.7V | 03:58:00 | 00:00:00 | 00:00:00 | |
| DM0DOS-11 | 2026-09-03 05:49:23 | 49.27903 | 8.35181 | 118° | 46km/h | 18239m | 4.4m/s | -54.5°C | 4% | 77.3hPa | 2.7V | 03:58:18 | 01:19:25 | 00:00:00 | |
| BIOWL1-15 | 2026-09-03 05:49:14 | 49.27925 | 8.35124 | 122° | 40km/h | 18222m | 3.3m/s | -54.5°C | 0.2% | 77.5hPa | 2.6V | 03:58:40 | 01:19:21 | 00:00:00 | |
| BIOWL1-15 | 2026-09-03 05:49:04 | 49.27965 | 8.34975 | 112° | 49km/h | 18180m | 3.8m/s | -54.6°C | 0.2% | 78hPa | 2.6V | 03:58:40 | 01:19:11 | 00:00:00 | |
| DM0DOS-11 | 2026-09-03 05:49:03 | 49.27996 | 8.34888 | 117° | 37km/h | 18154m | 4.1m/s | -54.7°C | 4.1% | 78.3hPa | 2.6V | 03:58:38 | 01:19:05 | 00:00:00 | |
| BIOWL1-15 | 2026-09-03 05:48:53 | 49.28016 | 8.34820 | 108° | 42km/h | 18133m | 3.5m/s | -54.7°C | 0.2% | 78.6hPa | 2.6V | 03:59:31 | 01:19:00 | 00:00:00 | |
| DK5PH-5 | 2026-09-03 05:48:51 | 49.28023 | 8.34788 | 116° | 42km/h | 18126m | 4.3m/s | -54.5°C | 4.1% | 78.6hPa | 2.6V | 03:58:00 | 01:18:58 | 00:00:00 | |
| DM0DOS-11 | 2026-09-03 05:48:50 | 49.28042 | 8.34749 | 131° | 40km/h | 18114m | 3.4m/s | -54.5°C | 4% | 78.8hPa | 2.6V | 03:58:48 | 01:18:55 | 00:00:00 | |
| DF7PN | 2026-09-03 05:48:49 | 49.28035 | 8.34761 | 129° | 40km/h | 18117m | 3.4m/s | -54.5°C | 1.1% | 78.7hPa | 2.6V | 00:00:00 | 00:00:00 | 00:00:00 | |
| DO1YAY-16 | 2026-09-03 05:48:48 | 49.28048 | 8.34737 | 131° | 37km/h | 18110m | 5.0m/s | -54.5°C | 1.1% | 78.8hPa | 2.6V | 00:00:00 | 00:00:00 | 00:00:00 | |
| BIOWL1-15 | 2026-09-03 05:48:46 | 49.28076 | 8.34683 | 125° | 38km/h | 18088m | 4m/s | -54.4°C | 0.2% | 79.1hPa | 2.6V | 03:59:31 | 01:18:49 | 00:00:00 | |
| CB1BUN | 2026-09-03 05:48:45 | 49.28054 | 8.34727 | 130° | 35km/h | 18105m | 4.4m/s | -54.5°C | 1.1% | 78.9hPa | 2.6V | 03:59:00 | 00:00:00 | 00:00:00 | |
| DM3KS-11 | 2026-09-03 05:48:44 | 49.28065 | 8.34705 | 126° | 35km/h | 18097m | 3.9m/s | -54.5°C | 1.1% | 79.0hPa | 2.6V | 00:00:00 | 00:00:00 | 00:00:00 | |
| DM7RM-13 | 2026-09-03 05:48:43 | 49.28065 | 8.34705 | 128° | 35km/h | 18097m | 3.9m/s | -54.5°C | 1.1% | 79.0hPa | 2.6V | 03:59:00 | 00:00:00 | 00:00:00 | |
| DB0UT-9 | 2026-09-03 05:48:42 | 49.28070 | 8.34694 | 128° | 37km/h | 18093m | 4.8m/s | -54.4°C | 1.1% | 79.1hPa | 2.6V | 03:59:00 | 00:00:00 | 00:00:00 | |
| KANTATE | 2026-09-03 05:48:41 | 49.28076 | 8.34682 | 126° | 38km/h | 18089m | 4.0m/s | -54.4°C | 1.0% | 79.1hPa | 2.6V | 00:00:00 | 00:00:00 | 00:00:00 | |
| DM0DOS-11 | 2026-09-03 05:48:40 | 49.28101 | 8.34615 | 122° | 44km/h | 18067m | 5.2m/s | -54.3°C | 4% | 79.3hPa | 2.6V | 03:58:59 | 01:18:44 | 00:00:00 | |
| BIOWL1-15 | 2026-09-03 05:48:34 | 49.28132 | 8.34548 | 123° | 40km/h | 18047m | 4m/s | -54.2°C | 0.1% | 79.6hPa | 2.6V | 03:59:31 | 01:18:39 | 00:00:00 | |
| DL0LBS | 2026-09-03 05:48:33 | 49.28120 | 8.34574 | 127° | 42km/h | 18055m | 4.0m/s | -54.3°C | 1.1% | 79.5hPa | 2.6V | 03:59:00 | 00:00:00 | 00:00:00 | |
| DM0DOS-11 | 2026-09-03 05:48:32 | 49.28160 | 8.34478 | 120° | 44km/h | 18024m | 3.7m/s | -54.2°C | 3.9% | 79.9hPa | 2.6V | 03:59:09 | 01:18:34 | 00:00:00 | |
| BIOWL1-15 | 2026-09-03 05:48:25 | 49.28202 | 8.34395 | 129° | 44km/h | 18000m | 3.9m/s | -54.3°C | 0.2% | 80.2hPa | 2.6V | 03:59:31 | 01:18:28 | 00:00:00 | |
| CB1BUN | 2026-09-03 05:48:24 | 49.28173 | 8.34449 | 127° | 46km/h | 18017m | 5.2m/s | -54.3°C | 1.1% | 80.0hPa | 2.6V | 03:59:00 | 00:00:00 | 00:00:00 | |
| DB0UT-9 | 2026-09-03 05:48:22 | 49.28187 | 8.34422 | 132° | 46km/h | 18008m | 3.4m/s | -54.3°C | 1.1% | 80.1hPa | 2.6V | 03:59:00 | 00:00:00 | 00:00:00 | |
| DK5PH-5 | 2026-09-03 05:48:21 | 49.28202 | 8.34395 | 130° | 49km/h | 18000m | 3.9m/s | -54.3°C | 4.0% | 80.1hPa | 2.6V | 00:00:00 | 01:18:28 | 00:00:00 | |
| DM0DOS-11 | 2026-09-03 05:48:20 | 49.28230 | 8.34346 | 132° | 42km/h | 17983m | 4.1m/s | -54.4°C | 3.9% | 80.4hPa | 2.6V | 03:59:19 | 01:18:24 | 00:00:00 | |
| BIOWL1-15 | 2026-09-03 05:48:12 | 49.28281 | 8.34255 | 139° | 49km/h | 17954m | 4m/s | -54.9°C | 0.2% | 80.8hPa | 2.7V | 03:59:31 | 01:18:17 | 00:00:00 | |
| DJTTGO | 2026-09-03 05:48:11 | 49.28264 | 8.34281 | 132° | 46km/h | 17964m | 4.7m/s | -54.7°C | 1.0% | 80.7hPa | 2.6V | 00:00:00 | 00:00:00 | 00:00:00 | |
| DM0DOS-11 | 2026-09-03 05:48:10 | 49.28309 | 8.34219 | 137° | 47km/h | 17941m | 5.3m/s | -55°C | 4% | 80.9hPa | 2.6V | 03:59:29 | 01:18:14 | 00:00:00 | |
| DO3MHA-11 | 2026-09-03 05:48:10 | 49.28281 | 8.34255 | 140° | 49km/h | 17955m | 4.0m/s | -54.8°C | 4.0% | 80.7hPa | 2.7V | 03:59:00 | 01:18:17 | 00:00:00 | |
| DJ2DS-15 | 2026-09-03 05:48:09 | 49.28290 | 8.34243 | 141° | 53km/h | 17951m | 3.4m/s | -54.8°C | 4.0% | 80.8hPa | 2.7V | 00:00:00 | 01:18:16 | 00:00:00 | |
| DB0UT-7 | 2026-09-03 05:48:08 | 49.28300 | 8.34231 | 141° | 51km/h | 17947m | 4.6m/s | -54.9°C | 4.0% | 80.8hPa | 2.7V | 00:00:00 | 00:00:00 | 00:00:00 | |
| HARRO8 | 2026-09-03 05:48:04 | 49.28335 | 8.34179 | 133° | 49km/h | 17929m | 4.3m/s | -55.1°C | 1.1% | 81.1hPa | 2.7V | 00:00:00 | 00:00:00 | 00:00:00 | |
| DM0DOS-11 | 2026-09-03 05:48:02 | 49.28397 | 8.34070 | 128° | 57km/h | 17899m | 4.6m/s | -55.2°C | 4.2% | 81.5hPa | 2.7V | 03:59:39 | 01:18:04 | 00:00:00 | |
| BIOWL1-15 | 2026-09-03 05:48:01 | 49.28380 | 8.34103 | 128° | 53km/h | 17908m | 4.1m/s | -55.3°C | 0.3% | 81.3hPa | 2.6V | 04:00:22 | 01:18:06 | 00:00:00 | |
| BIOWL1-15 | 2026-09-03 05:47:51 | 49.28456 | 8.33930 | 122° | 53km/h | 17866m | 4.3m/s | -55.2°C | 0.3% | 81.9hPa | 2.7V | 04:00:22 | 01:17:56 | 00:00:00 | |
| DK5PH-5 | 2026-09-03 05:47:51 | 49.28441 | 8.33964 | 123° | 49km/h | 17874m | 4.6m/s | -55.2°C | 4.2% | 81.8hPa | 2.6V | 00:00:00 | 01:17:58 | 00:00:00 | |
| DO3MHA-11 | 2026-09-03 05:47:50 | 49.28449 | 8.33947 | 123° | 51km/h | 17870m | 3.4m/s | -55.2°C | 4.2% | 81.8hPa | 2.6V | 00:00:00 | 01:17:57 | 00:00:00 | |
| DF1GD-15 | 2026-09-03 05:47:49 | 49.28448 | 8.33947 | 124° | 53km/h | 17870m | 3.5m/s | -55.3°C | 1.2% | 81.8hPa | 2.7V | 04:00:00 | 00:00:00 | 00:00:00 | |
| DM0DOS-11 | 2026-09-03 05:47:48 | 49.28469 | 8.33896 | 120° | 51km/h | 17856m | 4.3m/s | -55.2°C | 4.2% | 82hPa | 2.7V | 03:59:49 | 01:17:54 | 00:00:00 | |
| DF7PN | 2026-09-03 05:47:47 | 49.28476 | 8.33879 | 121° | 51km/h | 17852m | 4.4m/s | -55.2°C | 1.1% | 82.1hPa | 2.7V | 00:00:00 | 00:00:00 | 00:00:00 | |
| DO1YAY-16 | 2026-09-03 05:47:46 | 49.28483 | 8.33861 | 122° | 53km/h | 17847m | 4.8m/s | -55.2°C | 1.1% | 82.1hPa | 2.7V | 00:00:00 | 00:00:00 | 00:00:00 | |
| BIOWL7-15 | 2026-09-03 05:47:45 | 49.28475 | 8.33879 | 122° | 51km/h | 17852m | 4.4m/s | -55.2°C | 1.1% | 82.1hPa | 2.7V | 00:00:00 | 00:00:00 | 00:00:00 | |
| CB1BUN | 2026-09-03 05:47:44 | 49.28483 | 8.33861 | 124° | 53km/h | 17847m | 4.8m/s | -55.2°C | 1.1% | 82.1hPa | 2.7V | 04:00:00 | 00:00:00 | 00:00:00 | |
| DL8DAS-15 | 2026-09-03 05:47:43 | 49.28490 | 8.33844 | 124° | 53km/h | 17843m | 3.8m/s | -55.2°C | 1.2% | 82.2hPa | 2.7V | 04:00:00 | 00:00:00 | 00:00:00 | |
| DM0DOS-11 | 2026-09-03 05:47:42 | 49.28534 | 8.33726 | 116° | 51km/h | 17812m | 4.1m/s | -55.3°C | 4.1% | 82.6hPa | 2.7V | 03:59:59 | 01:17:44 | 00:00:00 | |
| BIOWL1-15 | 2026-09-03 05:47:40 | 49.28528 | 8.33743 | 118° | 49km/h | 17816m | 4.6m/s | -55.3°C | 0.3% | 82.5hPa | 2.6V | 04:00:22 | 01:17:45 | 00:00:00 | |
| HEMX73-11 | 2026-09-03 05:47:40 | 49.28516 | 8.33776 | 119° | 49km/h | 17826m | 3.8m/s | -55.2°C | 1.1% | 82.4hPa | 2.7V | 04:00:00 | 00:00:00 | 00:00:00 | |
| DB0UT-7 | 2026-09-03 05:47:38 | 49.28528 | 8.33743 | 119° | 44km/h | 17817m | 4.5m/s | -55.2°C | 4.1% | 82.5hPa | 2.7V | 03:59:00 | 01:17:45 | 00:00:00 | |
| HTAHTA | 2026-09-03 05:47:37 | 49.28534 | 8.33726 | 116° | 51km/h | 17812m | 4.1m/s | 0°C | -1.0% | -1.0hPa | 2.7V | 00:00:00 | 00:00:00 | 00:00:00 | |
| DN1GJH-1 | 2026-09-03 05:47:35 | 49.28539 | 8.33707 | 115° | 53km/h | 17808m | 5.5m/s | -55.3°C | 1.2% | 82.6hPa | 2.7V | 04:00:00 | 00:00:00 | 00:00:00 | |
| HARRO8 | 2026-09-03 05:47:33 | 49.28555 | 8.33649 | 115° | 53km/h | 17795m | 4.5m/s | -55.3°C | 1.1% | 82.8hPa | 2.7V | 00:00:00 | 00:00:00 | 00:00:00 | |
| DM0DOS-11 | 2026-09-03 05:47:32 | 49.28585 | 8.33560 | 111° | 38km/h | 17770m | 3.9m/s | -55.2°C | 4.2% | 83.2hPa | 2.7V | 04:00:09 | 01:17:34 | 00:00:00 | |
| BIOWL1-15 | 2026-09-03 05:47:30 | 49.28582 | 8.33573 | 114° | 38km/h | 17774m | 4.3m/s | -55.2°C | 0.3% | 83.1hPa | 2.7V | 04:00:22 | 01:17:35 | 00:00:00 | |
| DO3MHA-11 | 2026-09-03 05:47:30 | 49.28573 | 8.33600 | 122° | 44km/h | 17783m | 3.9m/s | -55.2°C | 4.2% | 82.9hPa | 2.6V | 04:00:00 | 01:17:37 | 00:00:00 | |
| DJ2DS-15 | 2026-09-03 05:47:29 | 49.28578 | 8.33587 | 118° | 42km/h | 17779m | 5.1m/s | -55.2°C | 4.2% | 83.0hPa | 2.6V | 04:00:00 | 01:17:36 | 00:00:00 | |
| BIOWL9-15 | 2026-09-03 05:47:28 | 49.28582 | 8.33573 | 113° | 37km/h | 17774m | 4.3m/s | -55.2°C | 1.1% | 83.1hPa | 2.6V | 00:00:00 | 00:00:00 | 00:00:00 | |
| DF3TZ-5 | 2026-09-03 05:47:27 | 49.28586 | 8.33560 | 111° | 38km/h | 17770m | 3.9m/s | -55.2°C | 1.1% | 83.2hPa | 2.6V | 00:00:00 | 00:00:00 | 00:00:00 | |
| AU51GT2 | 2026-09-03 05:47:26 | 49.28589 | 8.33546 | 111° | 38km/h | 17766m | 4.9m/s | -55.3°C | -1.0% | -1.0hPa | 2.6V | 00:00:00 | 00:00:00 | 00:00:00 | |
| BIOWL7-15 | 2026-09-03 05:47:25 | 49.28589 | 8.33546 | 112° | 40km/h | 17766m | 4.9m/s | -55.3°C | 1.1% | 83.2hPa | 2.6V | 00:00:00 | 00:00:00 | 00:00:00 | |
| DL9PN | 2026-09-03 05:47:24 | 49.28597 | 8.33515 | 109° | 46km/h | 17757m | 3.9m/s | -55.3°C | 1.1% | 83.3hPa | 2.6V | 00:00:00 | 00:00:00 | 00:00:00 | |
| SFWM-10 | 2026-09-03 05:47:23 | 49.28597 | 8.33515 | 111° | 46km/h | 17757m | 3.9m/s | -55.3°C | 1.1% | 83.3hPa | 2.6V | 00:00:00 | 00:00:00 | 00:00:00 | |
| DM0DOS-11 | 2026-09-03 05:47:22 | 49.28629 | 8.33396 | 120° | 40km/h | 17726m | 4.7m/s | -55.6°C | 4.2% | 83.7hPa | 2.6V | 04:00:19 | 01:17:24 | 00:00:00 | |
| BIOWL1-15 | 2026-09-03 05:47:19 | 49.28629 | 8.33396 | 121° | 40km/h | 17726m | 4.7m/s | -55.6°C | 0.3% | 83.7hPa | 2.6V | 04:00:22 | 01:17:24 | 00:00:00 | |
| DL8DAS-15 | 2026-09-03 05:47:18 | 49.28619 | 8.33425 | 119° | 47km/h | 17734m | 4.1m/s | -55.5°C | 1.2% | 83.6hPa | 2.6V | 04:00:00 | 00:00:00 | 00:00:00 | |
| DB0NH | 2026-09-03 05:47:17 | 49.28629 | 8.33396 | 121° | 40km/h | 17726m | 4.7m/s | -55.5°C | 4.2% | 83.7hPa | 2.6V | 00:00:00 | 01:17:24 | 00:00:00 | |
| DF7PN | 2026-09-03 05:47:16 | 49.28639 | 8.33372 | 119° | 33km/h | 17717m | 3.2m/s | -55.6°C | 1.1% | 83.8hPa | 2.7V | 00:00:00 | 00:00:00 | 00:00:00 | |
| DB0ND-19 | 2026-09-03 05:47:15 | 49.28639 | 8.33372 | 119° | 33km/h | 17717m | 3.2m/s | -55.6°C | 1.1% | 83.8hPa | 2.7V | 00:00:00 | 00:00:00 | 00:00:00 | |
| DO1YAY-16 | 2026-09-03 05:47:14 | 49.28643 | 8.33360 | 120° | 35km/h | 17714m | 4.2m/s | -55.6°C | 1.1% | 83.9hPa | 2.7V | 00:00:00 | 00:00:00 | 00:00:00 | |
| DM0DOS-11 | 2026-09-03 05:47:12 | 49.28675 | 8.33260 | 117° | 47km/h | 17681m | 4.9m/s | -55.7°C | 4.2% | 84.3hPa | 2.7V | 04:00:29 | 01:17:14 | 00:00:00 | |
| BIOWL1-15 | 2026-09-03 05:47:07 | 49.28675 | 8.33260 | 118° | 47km/h | 17682m | 4.9m/s | -55.7°C | 0.3% | 84.3hPa | 2.7V | 04:01:13 | 01:17:14 | 00:00:00 | |
| BIOWL7-15 | 2026-09-03 05:47:05 | 49.28681 | 8.33244 | 121° | 46km/h | 17677m | 4.1m/s | -55.7°C | 1.1% | 84.3hPa | 2.6V | 00:00:00 | 00:00:00 | 00:00:00 | |
| CB1BUN | 2026-09-03 05:47:03 | 49.28692 | 8.33214 | 121° | 42km/h | 17669m | 4.8m/s | -55.8°C | 1.2% | 84.5hPa | 2.6V | 04:01:00 | 00:00:00 | 00:00:00 | |
| DO3MHA-11 | 2026-09-03 05:47:00 | 49.28713 | 8.33165 | 127° | 44km/h | 17651m | 3.8m/s | -56.0°C | 4.4% | 84.7hPa | 2.6V | 00:00:00 | 01:17:07 | 00:00:00 | |
| DM0DOS-11 | 2026-09-03 05:46:58 | 49.28728 | 8.33125 | 114° | 44km/h | 17638m | 3.7m/s | -56.3°C | 4.4% | 84.9hPa | 2.6V | 04:00:39 | 01:17:04 | 00:00:00 | |
| BIOWL1-15 | 2026-09-03 05:46:56 | 49.28733 | 8.33110 | 114° | 46km/h | 17634m | 3.6m/s | -56.3°C | 0.3% | 84.9hPa | 2.6V | 04:01:13 | 01:17:03 | 00:00:00 | |
| DL8DAS-14 | 2026-09-03 05:46:53 | 49.28755 | 8.33048 | 121° | 44km/h | 17616m | 4.9m/s | -56.2°C | 1.2% | 85.2hPa | 2.6V | 00:00:00 | 00:00:00 | 00:00:00 | |
| DM0DOS-11 | 2026-09-03 05:46:52 | 49.28785 | 8.32986 | 129° | 35km/h | 17593m | 4.2m/s | -56.1°C | 4.4% | 85.5hPa | 2.6V | 04:00:49 | 01:16:54 | 00:00:00 | |
| BIOWL1-15 | 2026-09-03 05:46:46 | 49.28790 | 8.32976 | 126° | 33km/h | 17588m | 5m/s | -56.1°C | 0.4% | 85.5hPa | 2.7V | 04:01:13 | 01:16:53 | 00:00:00 | |
| DB0ND-19 | 2026-09-03 05:46:44 | 49.28799 | 8.32954 | 121° | 33km/h | 17580m | 4.0m/s | -56.1°C | 1.2% | 85.7hPa | 2.6V | 00:00:00 | 00:00:00 | 00:00:00 | |
| DO1YAY-16 | 2026-09-03 05:46:43 | 49.28804 | 8.32943 | 124° | 33km/h | 17575m | 5.4m/s | -56.1°C | 1.2% | 85.7hPa | 2.6V | 00:00:00 | 00:00:00 | 00:00:00 | |
| CB1BUN | 2026-09-03 05:46:42 | 49.28804 | 8.32943 | 125° | 35km/h | 17575m | 5.4m/s | -56.1°C | 1.2% | 85.7hPa | 2.6V | 04:01:00 | 00:00:00 | 00:00:00 | |
| DO3MHA-11 | 2026-09-03 05:46:40 | 49.28819 | 8.32908 | 122° | 37km/h | 17562m | 4.9m/s | -56.0°C | 4.4% | 85.8hPa | 2.6V | 04:00:00 | 01:16:47 | 00:00:00 | |
| DM0DOS-11 | 2026-09-03 05:46:38 | 49.28835 | 8.32868 | 124° | 40km/h | 17549m | 4.3m/s | -56°C | 4.4% | 86hPa | 2.6V | 04:00:59 | 01:16:44 | 00:00:00 | |
| BIOWL1-15 | 2026-09-03 05:46:38 | 49.28841 | 8.32856 | 129° | 38km/h | 17545m | 5m/s | -56.1°C | 0.4% | 86.1hPa | 2.6V | 04:01:13 | 01:16:43 | 00:00:00 | |
| DM7RM-13 | 2026-09-03 05:46:38 | 49.28830 | 8.32881 | 122° | 40km/h | 17553m | 3.0m/s | -56.0°C | 1.3% | 86.0hPa | 2.6V | 04:01:00 | 00:00:00 | 00:00:00 | |
| HEMX73-11 | 2026-09-03 05:46:37 | 49.28830 | 8.32881 | 122° | 40km/h | 17553m | 3.0m/s | -56.0°C | 1.2% | 86.0hPa | 2.6V | 04:01:00 | 00:00:00 | 00:00:00 | |
| DL8DAS-15 | 2026-09-03 05:46:34 | 49.28847 | 8.32845 | 134° | 37km/h | 17540m | 4.4m/s | -56.2°C | 1.3% | 86.2hPa | 2.6V | 00:00:00 | 00:00:00 | 00:00:00 | |
| DN1GJH-1 | 2026-09-03 05:46:33 | 49.28853 | 8.32835 | 135° | 35km/h | 17536m | 4.3m/s | -56.2°C | 1.2% | 86.3hPa | 2.6V | 04:01:00 | 00:00:00 | 00:00:00 | |
| DM0DOS-11 | 2026-09-03 05:46:32 | 49.28895 | 8.32765 | 131° | 42km/h | 17504m | 4.4m/s | -56.2°C | 4.4% | 86.7hPa | 2.6V | 04:01:09 | 01:16:34 | 00:00:00 | |
| BIOWL1-15 | 2026-09-03 05:46:27 | 49.28909 | 8.32740 | 127° | 42km/h | 17495m | 3.8m/s | -56.1°C | 0.4% | 86.8hPa | 2.7V | 04:01:13 | 01:16:32 | 00:00:00 | |
| BIOWL9-15 | 2026-09-03 05:46:26 | 49.28909 | 8.32740 | 126° | 42km/h | 17495m | 3.8m/s | -56.1°C | 1.2% | 86.8hPa | 2.7V | 00:00:00 | 00:00:00 | 00:00:00 | |
| DF3TZ-5 | 2026-09-03 05:46:25 | 49.28909 | 8.32740 | 126° | 42km/h | 17495m | 3.8m/s | -56.1°C | 1.2% | 86.8hPa | 2.7V | 00:00:00 | 00:00:00 | 00:00:00 | |
| BIOWL7-15 | 2026-09-03 05:46:24 | 49.28908 | 8.32740 | 128° | 42km/h | 17495m | 3.8m/s | -56.1°C | 1.2% | 86.8hPa | 2.7V | 00:00:00 | 00:00:00 | 00:00:00 | |
| DM0DOS-11 | 2026-09-03 05:46:22 | 49.28969 | 8.32648 | 137° | 42km/h | 17460m | 4.2m/s | -56°C | 4.4% | 87.3hPa | 2.7V | 04:01:19 | 01:16:24 | 00:00:00 | |
| BIOWL1-15 | 2026-09-03 05:46:17 | 49.28985 | 8.32627 | 142° | 40km/h | 17450m | 4.7m/s | -56°C | 0.4% | 87.4hPa | 2.6V | 04:02:04 | 01:16:22 | 00:00:00 | |
| DB0NH | 2026-09-03 05:46:16 | 49.28977 | 8.32637 | 141° | 47km/h | 17455m | 5.7m/s | -56.0°C | 4.4% | 87.3hPa | 2.6V | 00:00:00 | 01:16:23 | 00:00:00 | |
| DF7PN | 2026-09-03 05:46:14 | 49.29001 | 8.32607 | 138° | 40km/h | 17441m | 5.0m/s | -56.0°C | 1.2% | 87.5hPa | 2.6V | 00:00:00 | 00:00:00 | 00:00:00 | |
| DB0ND-19 | 2026-09-03 05:46:13 | 49.29001 | 8.32607 | 138° | 40km/h | 17441m | 5.0m/s | -56.0°C | 1.2% | 87.5hPa | 2.6V | 00:00:00 | 00:00:00 | 00:00:00 | |
| DM0DOS-11 | 2026-09-03 05:46:12 | 49.29053 | 8.32536 | 140° | 51km/h | 17412m | 5.5m/s | -56°C | 4.4% | 87.9hPa | 2.6V | 04:01:29 | 01:16:14 | 00:00:00 | |
| BIOWL1-15 | 2026-09-03 05:46:06 | 49.29084 | 8.32499 | 146° | 51km/h | 17398m | 5.4m/s | -56°C | 0.4% | 88.1hPa | 2.7V | 04:02:04 | 01:16:11 | 00:00:00 | |
| DJTTGO | 2026-09-03 05:46:05 | 49.29063 | 8.32523 | 142° | 51km/h | 17407m | 4.2m/s | -55.9°C | 1.2% | 88.0hPa | 2.7V | 04:02:00 | 00:00:00 | 00:00:00 | |
| BIOWL7-15 | 2026-09-03 05:46:04 | 49.29074 | 8.32511 | 144° | 51km/h | 17403m | 4.1m/s | -56.0°C | 1.2% | 88.0hPa | 2.7V | 00:00:00 | 00:00:00 | 00:00:00 | |
| DM0DOS-11 | 2026-09-03 05:46:02 | 49.29153 | 8.32428 | 144° | 47km/h | 17365m | 4.8m/s | -55.8°C | 4.4% | 88.6hPa | 2.7V | 04:01:39 | 01:16:04 | 00:00:00 | |
| BIOWL1-15 | 2026-09-03 05:45:53 | 49.29192 | 8.32379 | 137° | 55km/h | 17346m | 3.9m/s | -55.7°C | 0.4% | 88.9hPa | 2.6V | 04:02:04 | 01:16:00 | 00:00:00 | |
| DM0DOS-11 | 2026-09-03 05:45:52 | 49.29259 | 8.32292 | 137° | 57km/h | 17318m | 4.3m/s | -55.6°C | 4.3% | 89.2hPa | 2.7V | 04:01:49 | 01:15:54 | 00:00:00 | |
| DL8DAS-14 | 2026-09-03 05:45:51 | 49.29225 | 8.32336 | 141° | 58km/h | 17333m | 4.2m/s | -55.6°C | 1.2% | 89.0hPa | 2.7V | 00:00:00 | 00:00:00 | 00:00:00 | |
| DD1CC8 | 2026-09-03 05:45:50 | 49.29225 | 8.32336 | 141° | 58km/h | 17333m | 4.2m/s | -55.6°C | 1.2% | 89.0hPa | 2.7V | 00:00:00 | 00:00:00 | 00:00:00 | |
| BIOWL1-15 | 2026-09-03 05:45:43 | 49.29303 | 8.32235 | 139° | 57km/h | 17299m | 4.6m/s | -55.6°C | 0.4% | 89.5hPa | 2.7V | 04:02:04 | 01:15:50 | 00:00:00 | |
| BIOWL1-15 | 2026-09-03 05:45:35 | 49.29410 | 8.32086 | 138° | 62km/h | 17252m | 4.7m/s | -55.6°C | 0.4% | 90.2hPa | 2.6V | 04:02:04 | 01:15:40 | 00:00:00 | |
| DM0DOS-11 | 2026-09-03 05:45:32 | 49.29470 | 8.31992 | 132° | 53km/h | 17225m | 5.3m/s | -55.8°C | 4.4% | 90.6hPa | 2.7V | 04:02:09 | 01:15:34 | 00:00:00 | |
| BIOWL1-15 | 2026-09-03 05:45:24 | 49.29520 | 8.31906 | 130° | 69km/h | 17202m | 4.3m/s | -55.7°C | 0.6% | 90.9hPa | 2.7V | 04:02:55 | 01:15:29 | 00:00:00 | |
| BIOWL9-15 | 2026-09-03 05:45:24 | 49.29509 | 8.31926 | 130° | 64km/h | 17207m | 4.6m/s | -55.7°C | 1.3% | 90.8hPa | 2.6V | 00:00:00 | 00:00:00 | 00:00:00 | |
| DF3TZ-5 | 2026-09-03 05:45:23 | 49.29509 | 8.31926 | 130° | 64km/h | 17207m | 4.6m/s | -55.7°C | 1.3% | 90.8hPa | 2.6V | 00:00:00 | 00:00:00 | 00:00:00 | |
| DM0DOS-11 | 2026-09-03 05:45:22 | 49.29581 | 8.31804 | 132° | 71km/h | 17180m | 5.6m/s | -55.6°C | 4.3% | 91.2hPa | 2.6V | 04:02:19 | 01:15:24 | 00:00:00 | |
| BIOWL1-15 | 2026-09-03 05:45:13 | 49.29648 | 8.31686 | 131° | 64km/h | 17150m | 4.1m/s | -55.4°C | 0.4% | 91.6hPa | 2.6V | 04:02:55 | 01:15:18 | 00:00:00 | |
| DK7TD | 2026-09-03 05:45:05 | 49.29706 | 8.31557 | 124° | 71km/h | 17122m | 3.8m/s | -55.3°C | 0.4% | 92hPa | 2.7V | 04:02:55 | 01:15:12 | 00:00:00 | |
| DM0DOS-11 | 2026-09-03 05:45:02 | 49.29782 | 8.31386 | 125° | 68km/h | 17084m | 5.7m/s | -55.6°C | 4.3% | 92.6hPa | 2.6V | 04:02:39 | 01:15:04 | 00:00:00 | |
| BIOWL1-15 | 2026-09-03 05:45:02 | 49.29753 | 8.31447 | 125° | 64km/h | 17098m | 5.5m/s | -55.6°C | 0.5% | 92.4hPa | 2.7V | 04:02:55 | 01:15:07 | 00:00:00 | |
| DK7TD | 2026-09-03 05:44:52 | 49.29834 | 8.31269 | 123° | 78km/h | 17060m | 5m/s | -55.5°C | 0.5% | 92.9hPa | 2.6V | 04:02:55 | 01:14:59 | 00:00:00 | |
| DM0DOS-11 | 2026-09-03 05:44:52 | 49.29888 | 8.31145 | 126° | 75km/h | 17036m | 4m/s | -55.3°C | 4.3% | 93.3hPa | 2.6V | 04:02:49 | 01:14:54 | 00:00:00 | |
| BIOWL1-15 | 2026-09-03 05:44:50 | 49.29855 | 8.31218 | 122° | 77km/h | 17050m | 4m/s | -55.4°C | 0.5% | 93.1hPa | 2.6V | 04:02:55 | 01:14:57 | 00:00:00 | |
| DL8DAS-14 | 2026-09-03 05:44:49 | 49.29877 | 8.31169 | 125° | 75km/h | 17041m | 5.3m/s | -55.3°C | 1.2% | 93.2hPa | 2.6V | 00:00:00 | 00:00:00 | 00:00:00 | |
| DD1CC8 | 2026-09-03 05:44:48 | 49.29877 | 8.31169 | 125° | 75km/h | 17041m | 5.3m/s | -55.3°C | 1.2% | 93.2hPa | 2.6V | 00:00:00 | 00:00:00 | 00:00:00 | |
| DJ2DS-15 | 2026-09-03 05:44:47 | 49.29888 | 8.31145 | 127° | 71km/h | 17036m | 3.9m/s | -55.3°C | 4.3% | 93.3hPa | 2.6V | 00:00:00 | 01:14:54 | 00:00:00 | |
| DB0NH | 2026-09-03 05:44:46 | 49.29899 | 8.31122 | 127° | 71km/h | 17033m | 3.8m/s | -55.3°C | 4.2% | 93.3hPa | 2.6V | 00:00:00 | 01:14:53 | 00:00:00 | |
| DF1GD-15 | 2026-09-03 05:44:45 | 49.29899 | 8.31122 | 128° | 73km/h | 17033m | 3.8m/s | -55.3°C | 1.2% | 93.4hPa | 2.6V | 04:02:00 | 00:00:00 | 00:00:00 | |
| DM0DOS-11 | 2026-09-03 05:44:42 | 49.29985 | 8.30920 | 121° | 71km/h | 16989m | 5.4m/s | -55.6°C | 4.3% | 94hPa | 2.6V | 04:02:59 | 01:14:44 | 00:00:00 | |
| DK7TD | 2026-09-03 05:44:40 | 49.29956 | 8.30988 | 124° | 69km/h | 17003m | 5.1m/s | -55.4°C | 0.4% | 93.8hPa | 2.7V | 04:04:37 | 01:14:47 | 00:00:00 | |
| BIOWL1-15 | 2026-09-03 05:44:39 | 49.29966 | 8.30966 | 124° | 69km/h | 16998m | 4.5m/s | -55.4°C | 0.4% | 93.8hPa | 2.7V | 04:03:46 | 01:14:46 | 00:00:00 | |
| DB0UT-7 | 2026-09-03 05:44:38 | 49.29975 | 8.30943 | 124° | 71km/h | 16994m | 4.5m/s | -55.4°C | 4.2% | 93.9hPa | 2.7V | 04:02:00 | 01:14:45 | 00:00:00 | |
| DM3KS-11 | 2026-09-03 05:44:36 | 49.30003 | 8.30872 | 119° | 71km/h | 16979m | 4.6m/s | -55.8°C | 1.2% | 94.1hPa | 2.7V | 00:00:00 | 00:00:00 | 00:00:00 | |
| DM7RM-13 | 2026-09-03 05:44:34 | 49.30003 | 8.30872 | 121° | 71km/h | 16979m | 4.6m/s | -55.8°C | 1.3% | 94.1hPa | 2.7V | 04:03:00 | 00:00:00 | 00:00:00 | |
| DM0DOS-11 | 2026-09-03 05:44:32 | 49.30073 | 8.30681 | 115° | 69km/h | 16942m | 5.5m/s | -55.7°C | 4.4% | 94.7hPa | 2.7V | 04:03:09 | 01:14:34 | 00:00:00 | |
| BIOWL1-15 | 2026-09-03 05:44:30 | 49.30065 | 8.30705 | 115° | 71km/h | 16946m | 3.6m/s | -55.7°C | 0.5% | 94.6hPa | 2.7V | 04:03:46 | 01:14:35 | 00:00:00 | |
| DK7TD | 2026-09-03 05:44:29 | 49.30058 | 8.30730 | 116° | 71km/h | 16950m | 3.7m/s | -55.6°C | 0.4% | 94.6hPa | 2.6V | 04:04:37 | 01:14:36 | 00:00:00 | |
| DL4BBY-15 | 2026-09-03 05:44:28 | 49.30065 | 8.30705 | 115° | 73km/h | 16947m | 3.6m/s | 0°C | 0% | 0hPa | 2.7V | 00:00:00 | 00:00:00 | 00:00:00 | |
| DJ2DS-15 | 2026-09-03 05:44:27 | 49.30073 | 8.30680 | 116° | 71km/h | 16942m | 5.5m/s | -55.6°C | 4.4% | 94.6hPa | 2.7V | 00:00:00 | 01:14:34 | 00:00:00 | |
| KANTATE | 2026-09-03 05:44:24 | 49.30088 | 8.30633 | 117° | 69km/h | 16932m | 4.2m/s | -55.6°C | 1.3% | 94.8hPa | 2.7V | 04:03:00 | 00:00:00 | 00:00:00 | |
| DM0DOS-11 | 2026-09-03 05:44:22 | 49.30148 | 8.30425 | 111° | 75km/h | 16894m | 5m/s | -55.5°C | 4.3% | 95.4hPa | 2.7V | 04:03:19 | 01:14:24 | 00:00:00 | |
| DK7TD | 2026-09-03 05:44:19 | 49.30134 | 8.30477 | 114° | 73km/h | 16903m | 3.9m/s | -55.5°C | 0.5% | 95.2hPa | 2.7V | 04:04:37 | 01:14:26 | 00:00:00 | |
| BIOWL1-15 | 2026-09-03 05:44:18 | 49.30141 | 8.30451 | 113° | 73km/h | 16899m | 4.4m/s | -55.5°C | 0.5% | 95.3hPa | 2.7V | 04:03:46 | 01:14:25 | 00:00:00 | |
| DL8DAS-14 | 2026-09-03 05:44:18 | 49.30148 | 8.30425 | 111° | 73km/h | 16894m | 5.0m/s | -55.5°C | 1.3% | 95.4hPa | 2.6V | 00:00:00 | 00:00:00 | 00:00:00 | |
| DD1CC8 | 2026-09-03 05:44:17 | 49.30148 | 8.30425 | 111° | 73km/h | 16894m | 5.0m/s | -55.5°C | 1.3% | 95.4hPa | 2.6V | 00:00:00 | 00:00:00 | 00:00:00 | |
| DB0NH | 2026-09-03 05:44:16 | 49.30155 | 8.30398 | 113° | 68km/h | 16890m | 4.3m/s | -55.4°C | 4.3% | 95.4hPa | 2.6V | 00:00:00 | 01:14:23 | 00:00:00 | |
| HEMX73-11 | 2026-09-03 05:44:14 | 49.30163 | 8.30372 | 115° | 71km/h | 16885m | 4.6m/s | -55.4°C | 1.3% | 95.5hPa | 2.7V | 04:03:00 | 00:00:00 | 00:00:00 | |
| DM7RM-13 | 2026-09-03 05:44:13 | 49.30170 | 8.30347 | 117° | 69km/h | 16880m | 5.2m/s | -55.4°C | 1.3% | 95.6hPa | 2.7V | 04:03:00 | 00:00:00 | 00:00:00 | |
| DM0DOS-11 | 2026-09-03 05:44:12 | 49.30221 | 8.30180 | 112° | 66km/h | 16848m | 3.2m/s | -55.6°C | 4.3% | 96hPa | 2.7V | 04:03:29 | 01:14:14 | 00:00:00 | |
| BIOWL1-15 | 2026-09-03 05:44:08 | 49.30214 | 8.30203 | 114° | 66km/h | 16852m | 4.8m/s | -55.5°C | 0.5% | 96hPa | 2.6V | 04:03:46 | 01:14:15 | 00:00:00 | |
| DK7TD | 2026-09-03 05:44:07 | 49.30221 | 8.30180 | 113° | 66km/h | 16848m | 3.2m/s | -55.6°C | 0.5% | 96hPa | 2.7V | 04:04:37 | 01:14:14 | 00:00:00 | |
| DJ2DS-15 | 2026-09-03 05:44:07 | 49.30221 | 8.30180 | 113° | 64km/h | 16849m | 3.2m/s | -55.5°C | 4.3% | 96.0hPa | 2.7V | 04:03:00 | 01:14:14 | 00:00:00 | |
| DN1GJH-1 | 2026-09-03 05:44:06 | 49.30221 | 8.30180 | 114° | 66km/h | 16849m | 3.2m/s | -55.6°C | 1.3% | 96.0hPa | 2.7V | 04:03:00 | 00:00:00 | 00:00:00 | |
| DM3KS-11 | 2026-09-03 05:44:05 | 49.30233 | 8.30131 | 110° | 68km/h | 16840m | 5.4m/s | -55.7°C | 1.3% | 96.2hPa | 2.7V | 00:00:00 | 00:00:00 | 00:00:00 | |
| DM0DOS-11 | 2026-09-03 05:44:03 | 49.30276 | 8.29933 | 109° | 64km/h | 16803m | 4.4m/s | -55.7°C | 4.5% | 96.7hPa | 2.7V | 04:03:39 | 01:14:04 | 00:00:00 | |
| BIOWL1-15 | 2026-09-03 05:43:58 | 49.30271 | 8.29957 | 109° | 68km/h | 16808m | 4m/s | -55.7°C | 0.5% | 96.7hPa | 2.7V | 04:03:46 | 01:14:05 | 00:00:00 | |
| DK7TD | 2026-09-03 05:43:54 | 49.30292 | 8.29868 | 109° | 58km/h | 16791m | 4.1m/s | -55.7°C | 0.6% | 97hPa | 2.6V | 04:04:37 | 01:14:01 | 00:00:00 | |
| DO3MHA-11 | 2026-09-03 05:43:54 | 49.30292 | 8.29868 | 110° | 60km/h | 16791m | 4.1m/s | -55.6°C | 4.5% | 96.9hPa | 2.6V | 00:00:00 | 01:14:01 | 00:00:00 | |
| DM7RM-13 | 2026-09-03 05:43:53 | 49.30292 | 8.29868 | 110° | 58km/h | 16791m | 4.1m/s | -55.7°C | 1.4% | 97.0hPa | 2.6V | 04:03:00 | 00:00:00 | 00:00:00 | |
| DM0DOS-11 | 2026-09-03 05:43:52 | 49.30326 | 8.29710 | 109° | 60km/h | 16758m | 5.3m/s | -55.4°C | 4.5% | 97.5hPa | 2.6V | 04:03:49 | 01:13:54 | 00:00:00 | |
| BIOWL1-15 | 2026-09-03 05:43:47 | 49.30326 | 8.29710 | 109° | 60km/h | 16758m | 5.3m/s | -55.4°C | 0.6% | 97.5hPa | 2.6V | 04:04:37 | 01:13:54 | 00:00:00 | |
| DJ2DS-15 | 2026-09-03 05:43:47 | 49.30325 | 8.29710 | 110° | 57km/h | 16758m | 5.3m/s | -55.3°C | 4.5% | 97.4hPa | 2.7V | 00:00:00 | 01:13:54 | 00:00:00 | |
| DN1GJH-1 | 2026-09-03 05:43:46 | 49.30326 | 8.29710 | 110° | 60km/h | 16758m | 5.3m/s | -55.4°C | 1.4% | 97.5hPa | 2.7V | 04:04:00 | 00:00:00 | 00:00:00 | |
| KANTATE | 2026-09-03 05:43:44 | 49.30339 | 8.29647 | 109° | 53km/h | 16744m | 5.4m/s | -55.4°C | 1.3% | 97.7hPa | 2.7V | 00:00:00 | 00:00:00 | 00:00:00 | |
| DM0DOS-11 | 2026-09-03 05:43:42 | 49.30369 | 8.29504 | 107° | 64km/h | 16714m | 4.8m/s | -55.1°C | 4.3% | 98.1hPa | 2.7V | 04:03:59 | 01:13:44 | 00:00:00 | |
| DK7TD | 2026-09-03 05:43:41 | 49.30351 | 8.29592 | 108° | 51km/h | 16732m | 4.1m/s | -55.2°C | 0.5% | 97.8hPa | 2.7V | 04:04:37 | 01:13:48 | 00:00:00 | |
| BIOWL1-15 | 2026-09-03 05:43:36 | 49.30374 | 8.29481 | 107° | 62km/h | 16709m | 4.9m/s | -55.1°C | 0.5% | 98.2hPa | 2.7V | 04:04:37 | 01:13:43 | 00:00:00 | |
| HEMX73-11 | 2026-09-03 05:43:34 | 49.30383 | 8.29436 | 111° | 58km/h | 16701m | 4.6m/s | -55.0°C | 1.3% | 98.3hPa | 2.6V | 04:04:00 | 00:00:00 | 00:00:00 | |
| DM7RM-13 | 2026-09-03 05:43:33 | 49.30383 | 8.29436 | 111° | 58km/h | 16701m | 4.6m/s | -55.0°C | 1.4% | 98.3hPa | 2.6V | 04:04:00 | 00:00:00 | 00:00:00 | |
| DM0DOS-11 | 2026-09-03 05:43:32 | 49.30418 | 8.29298 | 108° | 53km/h | 16669m | 4.6m/s | -54.8°C | 4.4% | 98.8hPa | 2.6V | 04:04:09 | 01:13:34 | 00:00:00 | |
| DK7TD | 2026-09-03 05:43:31 | 49.30405 | 8.29355 | 112° | 53km/h | 16682m | 5.4m/s | -54.9°C | 0.6% | 98.6hPa | 2.7V | 04:04:37 | 01:13:37 | 00:00:00 | |
| BIOWL1-15 | 2026-09-03 05:43:27 | 49.30428 | 8.29257 | 111° | 60km/h | 16659m | 5m/s | -54.7°C | 0.6% | 99hPa | 2.7V | 04:04:37 | 01:13:32 | 00:00:00 | |
| DN1GJH-1 | 2026-09-03 05:43:26 | 49.30418 | 8.29298 | 109° | 53km/h | 16670m | 4.6m/s | -54.8°C | 1.4% | 98.8hPa | 2.6V | 04:04:00 | 00:00:00 | 00:00:00 | |
| HARRO8 | 2026-09-03 05:43:25 | 49.30433 | 8.29236 | 110° | 60km/h | 16655m | 4.2m/s | -54.7°C | 1.3% | 99.0hPa | 2.6V | 00:00:00 | 00:00:00 | 00:00:00 | |
| KANTATE | 2026-09-03 05:43:24 | 49.30433 | 8.29236 | 112° | 60km/h | 16655m | 4.2m/s | -54.7°C | 1.3% | 99.0hPa | 2.6V | 00:00:00 | 00:00:00 | 00:00:00 | |
| SFWM-10 | 2026-09-03 05:43:23 | 49.30433 | 8.29236 | 112° | 60km/h | 16655m | 4.2m/s | -54.7°C | 1.3% | 99.0hPa | 2.6V | 04:04:00 | 00:00:00 | 00:00:00 | |
| DM0DOS-11 | 2026-09-03 05:43:22 | 49.30469 | 8.29086 | 111° | 58km/h | 16623m | 4.4m/s | -54.6°C | 4.1% | 99.5hPa | 2.6V | 04:04:19 | 01:13:24 | 00:00:00 | |
| DK7TD | 2026-09-03 05:43:20 | 49.30453 | 8.29150 | 109° | 58km/h | 16637m | 4.5m/s | -54.6°C | 0.5% | 99.3hPa | 2.7V | 04:04:37 | 01:13:27 | 00:00:00 | |
| BIOWL1-15 | 2026-09-03 05:43:14 | 49.30484 | 8.29028 | 113° | 51km/h | 16609m | 3.5m/s | -54.7°C | 0.5% | 99.8hPa | 2.7V | 04:04:37 | 01:13:21 | 00:00:00 | |
| DO3MHA-11 | 2026-09-03 05:43:14 | 49.30484 | 8.29028 | 114° | 57km/h | 16609m | 3.4m/s | -54.7°C | 4.2% | 99.7hPa | 2.7V | 04:04:00 | 01:13:21 | 00:00:00 | |
| DM0DOS-11 | 2026-09-03 05:43:12 | 49.30527 | 8.28893 | 114° | 57km/h | 16577m | 4.2m/s | -54.7°C | 4.2% | 100.2hPa | 2.6V | 04:04:29 | 01:13:14 | 00:00:00 | |
| DK7TD | 2026-09-03 05:43:09 | 49.30515 | 8.28932 | 117° | 57km/h | 16587m | 5m/s | -54.7°C | 0.5% | 100.1hPa | 2.7V | 04:04:37 | 01:13:16 | 00:00:00 | |
| BIOWL1-15 | 2026-09-03 05:43:05 | 49.30552 | 8.28808 | 113° | 58km/h | 16560m | 4.7m/s | -54.8°C | 0.6% | 100.5hPa | 2.7V | 04:04:37 | 01:13:10 | 00:00:00 | |
| DK7TD | 2026-09-03 05:42:58 | 49.30580 | 8.28703 | 112° | 60km/h | 16538m | 4.1m/s | -55.1°C | 0.8% | 100.8hPa | 2.6V | 04:05:28 | 01:13:05 | 00:00:00 | |
| BIOWL1-15 | 2026-09-03 05:42:53 | 49.30606 | 8.28596 | 112° | 60km/h | 16516m | 4.5m/s | -55.1°C | 0.6% | 101.2hPa | 2.6V | 04:05:28 | 01:13:00 | 00:00:00 | |
| DL8DAS-15 | 2026-09-03 05:42:52 | 49.30606 | 8.28596 | 113° | 60km/h | 16516m | 4.5m/s | -55.1°C | 1.4% | 101.2hPa | 2.7V | 00:00:00 | 00:00:00 | 00:00:00 | |
| DK5PH-5 | 2026-09-03 05:42:51 | 49.30618 | 8.28554 | 117° | 68km/h | 16507m | 4.5m/s | -55.2°C | 4.3% | 101.3hPa | 2.7V | 04:04:00 | 01:12:58 | 00:00:00 | |
| DM0DOS-11 | 2026-09-03 05:42:50 | 49.30665 | 8.28433 | 119° | 66km/h | 16480m | 4.8m/s | -55.3°C | 4.5% | 101.8hPa | 2.7V | 04:04:51 | 01:12:52 | 00:00:00 | |
| DK7TD | 2026-09-03 05:42:48 | 49.30640 | 8.28496 | 122° | 60km/h | 16494m | 4.6m/s | -55.3°C | 0.7% | 101.5hPa | 2.6V | 04:05:28 | 01:12:55 | 00:00:00 | |
| AU51GT2 | 2026-09-03 05:42:47 | 49.30657 | 8.28455 | 122° | 64km/h | 16484m | 4.0m/s | -55.3°C | 1.4% | -1.0hPa | 2.6V | 00:00:00 | 00:00:00 | 00:00:00 | |
| BIOWL1-15 | 2026-09-03 05:42:42 | 49.30687 | 8.28363 | 113° | 69km/h | 16466m | 4.1m/s | -55.2°C | 0.8% | 102hPa | 2.6V | 04:05:28 | 01:12:49 | 00:00:00 | |
| DM0DOS-11 | 2026-09-03 05:42:40 | 49.30739 | 8.28189 | 117° | 69km/h | 16435m | 4.4m/s | -55.4°C | 4.4% | 102.5hPa | 2.7V | 04:05:01 | 01:12:42 | 00:00:00 | |
| DK7TD | 2026-09-03 05:42:37 | 49.30723 | 8.28237 | 116° | 68km/h | 16444m | 3.8m/s | -55.4°C | 0.8% | 102.4hPa | 2.6V | 04:05:28 | 01:12:44 | 00:00:00 | |
| BIOWL1-15 | 2026-09-03 05:42:32 | 49.30763 | 8.28119 | 117° | 66km/h | 16422m | 4.9m/s | -55.5°C | 0.9% | 102.7hPa | 2.6V | 04:05:28 | 01:12:39 | 00:00:00 | |
| DM7RM-13 | 2026-09-03 05:42:31 | 49.30763 | 8.28119 | 118° | 66km/h | 16422m | 4.9m/s | -55.5°C | 1.5% | 102.7hPa | 2.6V | 04:05:00 | 00:00:00 | 00:00:00 | |
| DM0DOS-11 | 2026-09-03 05:42:30 | 49.30812 | 8.27951 | 111° | 68km/h | 16391m | 4.2m/s | -55.5°C | 4.5% | 103.2hPa | 2.6V | 04:05:11 | 01:12:32 | 00:00:00 | |
| DK7TD | 2026-09-03 05:42:26 | 49.30806 | 8.27976 | 112° | 68km/h | 16396m | 4.8m/s | -55.5°C | 0.8% | 103.1hPa | 2.6V | 04:05:28 | 01:12:33 | 00:00:00 | |
| BIOWL1-15 | 2026-09-03 05:42:24 | 49.30832 | 8.27878 | 114° | 69km/h | 16378m | 3.6m/s | -55.8°C | 0.9% | 103.4hPa | 2.6V | 04:05:28 | 01:12:29 | 00:00:00 | |
| DK7TD | 2026-09-03 05:42:13 | 49.30887 | 8.27674 | 108° | 62km/h | 16341m | 3.7m/s | -55.9°C | 1.1% | 104hPa | 2.7V | 04:05:28 | 01:12:20 | 00:00:00 | |
| BIOWL1-15 | 2026-09-03 05:42:11 | 49.30896 | 8.27626 | 106° | 68km/h | 16331m | 5.3m/s | -56°C | 1.1% | 104.2hPa | 2.6V | 04:05:28 | 01:12:18 | 00:00:00 | |
| DK7TD | 2026-09-03 05:42:03 | 49.30925 | 8.27440 | 99° | 58km/h | 16296m | 4.3m/s | -56.4°C | 1.1% | 104.8hPa | 2.7V | 04:06:19 | 01:12:10 | 00:00:00 | |
| BIOWL1-15 | 2026-09-03 05:42:02 | 49.30932 | 8.27375 | 103° | 60km/h | 16284m | 4.2m/s | -56.4°C | 1.2% | 105hPa | 2.6V | 04:06:19 | 01:12:07 | 00:00:00 | |
| DM3KS-11 | 2026-09-03 05:42:01 | 49.30932 | 8.27375 | 103° | 58km/h | 16284m | 4.2m/s | -56.4°C | 1.7% | 105.0hPa | 2.6V | 00:00:00 | 00:00:00 | 00:00:00 | |
| DM0DOS-11 | 2026-09-03 05:42:00 | 49.30962 | 8.27257 | 116° | 66km/h | 16263m | 3.7m/s | -56.3°C | 5.1% | 105.3hPa | 2.6V | 04:05:41 | 01:12:02 | 00:00:00 | |
| DK7TD | 2026-09-03 05:41:52 | 49.30983 | 8.27189 | 113° | 64km/h | 16251m | 4.1m/s | -56.2°C | 1.3% | 105.5hPa | 2.7V | 04:06:19 | 01:11:59 | 00:00:00 | |
| BIOWL1-15 | 2026-09-03 05:41:52 | 49.30995 | 8.27145 | 114° | 58km/h | 16244m | 4m/s | -56.3°C | 1.3% | 105.6hPa | 2.6V | 04:06:19 | 01:11:57 | 00:00:00 | |
| DK5PH-5 | 2026-09-03 05:41:51 | 49.30989 | 8.27166 | 113° | 64km/h | 16248m | 3.1m/s | -56.2°C | 4.9% | 105.5hPa | 2.6V | 00:00:00 | 01:11:58 | 00:00:00 | |
| DM0DOS-11 | 2026-09-03 05:41:50 | 49.31025 | 8.27042 | 113° | 62km/h | 16223m | 3.8m/s | -56.4°C | 4.9% | 106hPa | 2.6V | 04:05:51 | 01:11:52 | 00:00:00 | |
| DF3TZ-5 | 2026-09-03 05:41:46 | 49.31019 | 8.27064 | 113° | 58km/h | 16227m | 4.9m/s | -56.4°C | 1.8% | 105.9hPa | 2.7V | 00:00:00 | 00:00:00 | 00:00:00 | |
| DK7TD | 2026-09-03 05:41:41 | 49.31052 | 8.26956 | 118° | 62km/h | 16205m | 3m/s | -56.5°C | 1.5% | 106.2hPa | 2.7V | 04:06:19 | 01:11:48 | 00:00:00 | |
| DB0NH | 2026-09-03 05:41:41 | 49.31052 | 8.26956 | 119° | 71km/h | 16206m | 2.9m/s | 0°C | 0% | 0hPa | 2.6V | 00:00:00 | 01:11:48 | 00:00:00 | |
| DM0DOS-11 | 2026-09-03 05:41:40 | 49.31096 | 8.26832 | 120° | 58km/h | 16180m | 3.3m/s | -56.9°C | 5.2% | 106.7hPa | 2.6V | 04:06:01 | 01:11:42 | 00:00:00 | |
| BIOWL1-15 | 2026-09-03 05:41:39 | 49.31088 | 8.26852 | 120° | 58km/h | 16184m | 4.9m/s | -56.9°C | 1.6% | 106.6hPa | 2.6V | 04:06:19 | 01:11:43 | 00:00:00 | |
| DK7TD | 2026-09-03 05:41:31 | 49.31127 | 8.26746 | 119° | 68km/h | 16164m | 4.2m/s | -57.1°C | 1.5% | 107hPa | 2.7V | 04:06:19 | 01:11:38 | 00:00:00 | |
| DM0DOS-11 | 2026-09-03 05:41:30 | 49.31184 | 8.26605 | 122° | 73km/h | 16138m | 4.4m/s | -57.3°C | 5.3% | 107.4hPa | 2.7V | 04:06:11 | 01:11:32 | 00:00:00 | |
| BIOWL1-15 | 2026-09-03 05:41:30 | 49.31154 | 8.26677 | 122° | 73km/h | 16151m | 4.1m/s | -57.2°C | 1.6% | 107.2hPa | 2.6V | 04:06:19 | 01:11:35 | 00:00:00 | |
| DK7TD | 2026-09-03 05:41:21 | 49.31222 | 8.26513 | 119° | 71km/h | 16121m | 5m/s | -57.6°C | 1.7% | 107.7hPa | 2.7V | 04:06:19 | 01:11:28 | 00:00:00 | |
| BIOWL1-15 | 2026-09-03 05:41:20 | 49.31247 | 8.26439 | 120° | 73km/h | 16109m | 4.4m/s | -57.6°C | 1.7% | 107.9hPa | 2.6V | 04:06:19 | 01:11:25 | 00:00:00 | |
| DK7TD | 2026-09-03 05:41:11 | 49.31321 | 8.26258 | 120° | 77km/h | 16080m | 4.8m/s | -57.7°C | 1.9% | 108.4hPa | 2.7V | 04:07:10 | 01:11:18 | 00:00:00 | |
| DD1CC8 | 2026-09-03 05:41:11 | 49.31330 | 8.26233 | 119° | 73km/h | 16075m | 4.9m/s | -57.8°C | 2.1% | 108.5hPa | 2.7V | 00:00:00 | 00:00:00 | 00:00:00 | |
| DM0DOS-11 | 2026-09-03 05:41:10 | 49.31371 | 8.26106 | 114° | 77km/h | 16054m | 3.9m/s | -57.7°C | 5.6% | 108.8hPa | 2.7V | 04:06:31 | 01:11:12 | 00:00:00 | |
| BIOWL1-15 | 2026-09-03 05:41:07 | 49.31356 | 8.26159 | 115° | 73km/h | 16063m | 5.4m/s | -57.8°C | 1.9% | 108.7hPa | 2.6V | 04:07:10 | 01:11:14 | 00:00:00 | |
| DJ2DS-15 | 2026-09-03 05:41:07 | 49.31356 | 8.26158 | 115° | 75km/h | 16063m | 5.4m/s | -57.8°C | 5.7% | 108.6hPa | 2.7V | 00:00:00 | 01:11:14 | 00:00:00 | |
| DN1GJH-1 | 2026-09-03 05:41:06 | 49.31356 | 8.26158 | 116° | 73km/h | 16063m | 5.4m/s | -57.8°C | 2.2% | 108.7hPa | 2.7V | 04:07:00 | 00:00:00 | 00:00:00 | |
| DB0NH | 2026-09-03 05:41:05 | 49.31371 | 8.26106 | 115° | 75km/h | 16054m | 3.8m/s | 0°C | 0% | 0hPa | 2.7V | 00:00:00 | 01:11:12 | 00:00:00 | |
| DO3MHA-11 | 2026-09-03 05:41:04 | 49.31380 | 8.26079 | 118° | 78km/h | 16050m | 5.0m/s | -57.7°C | 5.6% | 108.9hPa | 2.7V | 00:00:00 | 01:11:11 | 00:00:00 | |
| DB0ND-19 | 2026-09-03 05:41:03 | 49.31389 | 8.26053 | 119° | 78km/h | 16045m | 4.0m/s | -57.8°C | 2.2% | 109.0hPa | 2.7V | 00:00:00 | 00:00:00 | 00:00:00 | |
| DO1YAY-16 | 2026-09-03 05:41:02 | 49.31410 | 8.25999 | 121° | 82km/h | 16037m | 5.1m/s | -57.9°C | 2.1% | 109.1hPa | 2.7V | 00:00:00 | 00:00:00 | 00:00:00 | |
| DM0DOS-11 | 2026-09-03 05:41:00 | 49.31475 | 8.25850 | 123° | 69km/h | 16012m | 4.4m/s | -57.9°C | 5.8% | 109.5hPa | 2.7V | 04:06:41 | 01:11:02 | 00:00:00 | |
| DK7TD | 2026-09-03 05:41:00 | 49.31421 | 8.25971 | 122° | 82km/h | 16032m | 3.4m/s | -57.9°C | 1.9% | 109.2hPa | 2.7V | 04:07:10 | 01:11:07 | 00:00:00 | |
| BIOWL1-15 | 2026-09-03 05:40:56 | 49.31465 | 8.25872 | 125° | 71km/h | 16016m | 3.4m/s | -58°C | 2% | 109.5hPa | 2.7V | 04:07:10 | 01:11:03 | 00:00:00 | |
| DO3MHA-11 | 2026-09-03 05:40:54 | 49.31484 | 8.25826 | 120° | 71km/h | 16007m | 5.2m/s | -57.8°C | 5.8% | 109.6hPa | 2.7V | 00:00:00 | 01:11:01 | 00:00:00 | |
| DJTTGO | 2026-09-03 05:40:53 | 49.31484 | 8.25826 | 120° | 69km/h | 16007m | 5.3m/s | -57.9°C | 0% | 0hPa | 2.7V | 00:00:00 | 00:00:00 | 00:00:00 | |
| DK5PH-5 | 2026-09-03 05:40:51 | 49.31507 | 8.25752 | 114° | 71km/h | 15994m | 4.6m/s | -57.8°C | 5.8% | 109.8hPa | 2.7V | 00:00:00 | 01:10:58 | 00:00:00 | |
| DM0DOS-11 | 2026-09-03 05:40:50 | 49.31555 | 8.25605 | 120° | 69km/h | 15967m | 4.9m/s | -57.7°C | 5.7% | 110.3hPa | 2.7V | 04:06:51 | 01:10:52 | 00:00:00 | |
| DK7TD | 2026-09-03 05:40:49 | 49.31522 | 8.25703 | 116° | 69km/h | 15984m | 4m/s | -57.7°C | 2% | 110hPa | 2.6V | 04:07:10 | 01:10:56 | 00:00:00 | |
| BIOWL1-15 | 2026-09-03 05:40:48 | 49.31546 | 8.25629 | 118° | 71km/h | 15972m | 4.2m/s | -57.7°C | 2% | 110.3hPa | 2.7V | 04:07:10 | 01:10:53 | 00:00:00 | |
| DJ2DS-15 | 2026-09-03 05:40:47 | 49.31538 | 8.25654 | 117° | 71km/h | 15976m | 4.7m/s | -57.6°C | 5.6% | 110.1hPa | 2.6V | 04:06:00 | 01:10:54 | 00:00:00 | |
| DN1GJH-1 | 2026-09-03 05:40:46 | 49.31538 | 8.25654 | 118° | 71km/h | 15976m | 4.7m/s | -57.6°C | 2.2% | 110.2hPa | 2.6V | 04:07:00 | 00:00:00 | 00:00:00 | |
| DO3MHA-11 | 2026-09-03 05:40:44 | 49.31564 | 8.25582 | 123° | 71km/h | 15962m | 4.5m/s | -57.6°C | 5.7% | 110.4hPa | 2.6V | 04:06:00 | 01:10:51 | 00:00:00 | |
| DJ2KF-10 | 2026-09-03 05:40:42 | 49.31584 | 8.25537 | 124° | 71km/h | 15954m | 4.7m/s | 0°C | 0% | 0hPa | 2.7V | 00:00:00 | 01:10:49 | 00:00:00 | |
| DM0DOS-11 | 2026-09-03 05:40:40 | 49.31649 | 8.25374 | 118° | 71km/h | 15924m | 4.6m/s | -57.4°C | 5.6% | 111.1hPa | 2.7V | 04:07:01 | 01:10:42 | 00:00:00 | |
| DK7TD | 2026-09-03 05:40:38 | 49.31623 | 8.25443 | 122° | 68km/h | 15936m | 4.9m/s | -57.5°C | 2% | 110.9hPa | 2.6V | 04:07:10 | 01:10:45 | 00:00:00 | |
| BIOWL1-15 | 2026-09-03 05:40:35 | 49.31649 | 8.25374 | 118° | 71km/h | 15924m | 4.6m/s | -57.4°C | 2% | 111.1hPa | 2.7V | 04:07:10 | 01:10:42 | 00:00:00 | |
| DB0NH | 2026-09-03 05:40:35 | 49.31649 | 8.25374 | 119° | 73km/h | 15924m | 4.6m/s | 0°C | 0% | 0hPa | 2.6V | 00:00:00 | 01:10:42 | 00:00:00 | |
| DO3MHA-11 | 2026-09-03 05:40:34 | 49.31657 | 8.25350 | 119° | 71km/h | 15920m | 3.9m/s | -57.4°C | 5.6% | 111.1hPa | 2.6V | 00:00:00 | 01:10:41 | 00:00:00 | |
| CB1BUN | 2026-09-03 05:40:33 | 49.31657 | 8.25350 | 119° | 71km/h | 15920m | 3.9m/s | -57.4°C | 2.2% | 111.2hPa | 2.6V | 04:07:00 | 00:00:00 | 00:00:00 | |
| DB0ND-19 | 2026-09-03 05:40:32 | 49.31684 | 8.25280 | 122° | 68km/h | 15907m | 3.5m/s | -57.5°C | 2.2% | 111.4hPa | 2.6V | 00:00:00 | 00:00:00 | 00:00:00 | |
| DO1YAY-16 | 2026-09-03 05:40:31 | 49.31693 | 8.25257 | 122° | 69km/h | 15903m | 4.1m/s | -57.7°C | 2.3% | 111.5hPa | 2.6V | 00:00:00 | 00:00:00 | 00:00:00 | |
| DM0DOS-11 | 2026-09-03 05:40:30 | 49.31742 | 8.25143 | 122° | 68km/h | 15881m | 3.3m/s | -57.9°C | 5.9% | 111.8hPa | 2.6V | 04:07:11 | 01:10:32 | 00:00:00 | |
| DK7TD | 2026-09-03 05:40:28 | 49.31713 | 8.25211 | 124° | 73km/h | 15894m | 3.5m/s | -57.9°C | 2.2% | 111.6hPa | 2.6V | 04:07:10 | 01:10:35 | 00:00:00 | |
| BIOWL1-15 | 2026-09-03 05:40:24 | 49.31780 | 8.25049 | 121° | 73km/h | 15864m | 4.2m/s | -57.9°C | 2.1% | 112.2hPa | 2.7V | 04:08:01 | 01:10:28 | 00:00:00 | |
| DO3MHA-11 | 2026-09-03 05:40:24 | 49.31752 | 8.25120 | 122° | 73km/h | 15877m | 4.3m/s | -57.8°C | 5.7% | 111.9hPa | 2.7V | 00:00:00 | 01:10:31 | 00:00:00 | |
| SFWM-10 | 2026-09-03 05:40:23 | 49.31752 | 8.25120 | 123° | 69km/h | 15877m | 4.3m/s | -57.9°C | 2.2% | 111.9hPa | 2.7V | 04:08:00 | 00:00:00 | 00:00:00 | |
| DH7VM-15 | 2026-09-03 05:40:22 | 49.31761 | 8.25097 | 122° | 71km/h | 15873m | 5.0m/s | -57.8°C | 2.2% | 112.0hPa | 2.7V | 00:00:00 | 00:00:00 | 00:00:00 | |
| DK5PH-5 | 2026-09-03 05:40:21 | 49.31780 | 8.25049 | 121° | 80km/h | 15864m | 4.2m/s | -57.8°C | 5.7% | 112.1hPa | 2.7V | 04:07:00 | 01:10:28 | 00:00:00 | |
| DM0DOS-11 | 2026-09-03 05:40:20 | 49.31847 | 8.24911 | 132° | 77km/h | 15838m | 4.3m/s | -57.9°C | 5.9% | 112.6hPa | 2.7V | 04:07:21 | 01:10:22 | 00:00:00 | |
| DK7TD | 2026-09-03 05:40:17 | 49.31822 | 8.24956 | 129° | 77km/h | 15847m | 5.1m/s | -57.9°C | 2.2% | 112.4hPa | 2.6V | 04:08:01 | 01:10:24 | 00:00:00 | |
| BIOWL1-15 | 2026-09-03 05:40:13 | 49.31872 | 8.24868 | 130° | 73km/h | 15829m | 3.9m/s | -57.8°C | 2.4% | 112.8hPa | 2.6V | 04:08:01 | 01:10:20 | 00:00:00 | |
| DK7TD | 2026-09-03 05:40:06 | 49.31949 | 8.24694 | 123° | 77km/h | 15799m | 3.6m/s | -57.9°C | 2.3% | 113.3hPa | 2.7V | 04:08:01 | 01:10:13 | 00:00:00 | |
| BIOWL1-15 | 2026-09-03 05:40:02 | 49.31992 | 8.24592 | 123° | 82km/h | 15783m | 3.9m/s | -57.9°C | 2.3% | 113.6hPa | 2.7V | 04:08:01 | 01:10:09 | 00:00:00 | |
| DK7TD | 2026-09-03 05:39:55 | 49.32075 | 8.24402 | 122° | 91km/h | 15752m | 3.8m/s | -57.8°C | 2.5% | 114.2hPa | 2.7V | 04:08:01 | 01:10:02 | 00:00:00 | |
| BIOWL1-15 | 2026-09-03 05:39:51 | 49.32135 | 8.24259 | 121° | 84km/h | 15730m | 4.5m/s | -57.9°C | 2.5% | 114.6hPa | 2.8V | 04:08:01 | 01:09:57 | 00:00:00 | |
| DK7TD | 2026-09-03 05:39:45 | 49.32188 | 8.24125 | 120° | 82km/h | 15709m | 4m/s | -58.3°C | 2.7% | 114.9hPa | 2.7V | 04:08:01 | 01:09:52 | 00:00:00 | |
| DO3MHA-11 | 2026-09-03 05:39:44 | 49.32198 | 8.24096 | 119° | 89km/h | 15705m | 4.6m/s | -58.3°C | 6.2% | 114.9hPa | 2.7V | 00:00:00 | 01:09:51 | 00:00:00 | |
| BIOWL9-15 | 2026-09-03 05:39:42 | 49.32218 | 8.24036 | 116° | 89km/h | 15697m | 3.7m/s | -58.5°C | 2.7% | 115.1hPa | 2.6V | 00:00:00 | 00:00:00 | 00:00:00 | |
| SFWM-10 | 2026-09-03 05:39:41 | 49.32218 | 8.24036 | 118° | 89km/h | 15697m | 3.7m/s | -58.5°C | 2.7% | 115.1hPa | 2.6V | 04:08:00 | 00:00:00 | 00:00:00 | |
| DM0DOS-11 | 2026-09-03 05:39:40 | 49.32299 | 8.23825 | 120° | 91km/h | 15667m | 3.6m/s | -59°C | 6.6% | 115.7hPa | 2.6V | 04:08:01 | 01:09:42 | 00:00:00 | |
| BIOWL1-15 | 2026-09-03 05:39:40 | 49.32240 | 8.23975 | 120° | 89km/h | 15688m | 4.5m/s | -58.7°C | 2.8% | 115.3hPa | 2.7V | 04:08:01 | 01:09:47 | 00:00:00 | |
| DK7TD | 2026-09-03 05:39:34 | 49.32311 | 8.23796 | 121° | 89km/h | 15663m | 4.2m/s | -59.1°C | 3% | 115.8hPa | 2.6V | 04:08:52 | 01:09:41 | 00:00:00 | |
| BIOWL1-15 | 2026-09-03 05:39:32 | 49.32353 | 8.23678 | 115° | 86km/h | 15647m | 4.9m/s | -59.1°C | 3.2% | 116.1hPa | 2.7V | 04:08:52 | 01:09:37 | 00:00:00 | |
| DM0DOS-11 | 2026-09-03 05:39:30 | 49.32394 | 8.23525 | 111° | 84km/h | 15624m | 4m/s | -59°C | 6.8% | 116.5hPa | 2.7V | 04:08:11 | 01:09:32 | 00:00:00 | |
| DK7TD | 2026-09-03 05:39:23 | 49.32410 | 8.23463 | 113° | 88km/h | 15615m | 3.7m/s | -58.9°C | 3.1% | 116.6hPa | 2.6V | 04:08:52 | 01:09:30 | 00:00:00 | |
| DJ2DS-15 | 2026-09-03 05:39:22 | 49.32419 | 8.23432 | 114° | 86km/h | 15612m | 3.8m/s | -58.9°C | 2.9% | 116.7hPa | 2.6V | 00:00:00 | 00:00:00 | 00:00:00 | |
| DK5PH-5 | 2026-09-03 05:39:21 | 49.32428 | 8.23402 | 117° | 82km/h | 15607m | 5.7m/s | -58.9°C | 6.5% | 116.7hPa | 2.6V | 00:00:00 | 01:09:28 | 00:00:00 | |
| Es werden nur die letzten 3500 von 4727 Frames angezeigt. GPX/KML und Diagramme bleiben verfügbar. | |||||||||||||||